<?xml version='1.0' encoding='UTF-8'?><gpx version="1.1" creator="JPX - https://github.com/jenetics/jpx" xmlns="http://www.topografix.com/GPX/1/1"><trk><trkseg><trkpt lat="40.7308" lon="14.6867733"><ele>121.00000000000001</ele><time>2026-04-25T06:34:04.059Z</time></trkpt><trkpt lat="40.730755" lon="14.68671"><ele>121.0</ele><time>2026-04-25T06:34:17.058Z</time></trkpt><trkpt lat="40.7307083" lon="14.6868567"><ele>121.0</ele><time>2026-04-25T06:34:19.06Z</time></trkpt><trkpt lat="40.7307217" lon="14.6869533"><ele>121.0</ele><time>2026-04-25T06:34:28.036Z</time></trkpt><trkpt lat="40.7307767" lon="14.687"><ele>121.00000000000001</ele><time>2026-04-25T06:34:30.035Z</time></trkpt><trkpt lat="40.73085" lon="14.6870233"><ele>121.0</ele><time>2026-04-25T06:34:49.045Z</time></trkpt><trkpt lat="40.730895" lon="14.68709"><ele>120.57142857142857</ele><time>2026-04-25T06:34:51.039Z</time></trkpt><trkpt lat="40.7309317" lon="14.687165"><ele>120.14285714285714</ele><time>2026-04-25T06:34:53.044Z</time></trkpt><trkpt lat="40.73097" lon="14.6872317"><ele>119.71428571428571</ele><time>2026-04-25T06:34:55.034Z</time></trkpt><trkpt lat="40.7310083" lon="14.6873017"><ele>119.28571428571428</ele><time>2026-04-25T06:34:57.037Z</time></trkpt><trkpt lat="40.73105" lon="14.6873983"><ele>118.85714285714286</ele><time>2026-04-25T06:35:00.037Z</time></trkpt><trkpt lat="40.73101" lon="14.68749"><ele>118.42857142857142</ele><time>2026-04-25T06:35:02.034Z</time></trkpt><trkpt lat="40.7309733" lon="14.6875783"><ele>118.0</ele><time>2026-04-25T06:35:04.035Z</time></trkpt><trkpt lat="40.7309517" lon="14.6876567"><ele>118.00000000000001</ele><time>2026-04-25T06:35:06.043Z</time></trkpt><trkpt lat="40.7309367" lon="14.6877567"><ele>118.0</ele><time>2026-04-25T06:35:08.037Z</time></trkpt><trkpt lat="40.7309017" lon="14.6878717"><ele>118.0</ele><time>2026-04-25T06:35:10.035Z</time></trkpt><trkpt lat="40.7308483" lon="14.6879333"><ele>118.0</ele><time>2026-04-25T06:35:11.038Z</time></trkpt><trkpt lat="40.730785" lon="14.68801"><ele>118.00000000000001</ele><time>2026-04-25T06:35:12.036Z</time></trkpt><trkpt lat="40.7307167" lon="14.68808"><ele>118.0</ele><time>2026-04-25T06:35:13.037Z</time></trkpt><trkpt lat="40.7306417" lon="14.6881467"><ele>117.60000000000001</ele><time>2026-04-25T06:35:14.035Z</time></trkpt><trkpt lat="40.7305683" lon="14.688225"><ele>117.20000000000002</ele><time>2026-04-25T06:35:15.038Z</time></trkpt><trkpt lat="40.7304833" lon="14.6883017"><ele>116.8</ele><time>2026-04-25T06:35:16.032Z</time></trkpt><trkpt lat="40.7303967" lon="14.6883783"><ele>116.4</ele><time>2026-04-25T06:35:17.038Z</time></trkpt><trkpt lat="40.7303117" lon="14.68846"><ele>116.0</ele><time>2026-04-25T06:35:18.029Z</time></trkpt><trkpt lat="40.7302167" lon="14.6885317"><ele>115.8</ele><time>2026-04-25T06:35:19.039Z</time></trkpt><trkpt lat="40.7301283" lon="14.688605"><ele>115.6</ele><time>2026-04-25T06:35:20.033Z</time></trkpt><trkpt lat="40.7300417" lon="14.6886817"><ele>115.4</ele><time>2026-04-25T06:35:21.038Z</time></trkpt><trkpt lat="40.7299567" lon="14.6887583"><ele>115.2</ele><time>2026-04-25T06:35:22.032Z</time></trkpt><trkpt lat="40.72987" lon="14.6888383"><ele>115.0</ele><time>2026-04-25T06:35:23.032Z</time></trkpt><trkpt lat="40.729785" lon="14.68892"><ele>115.0</ele><time>2026-04-25T06:35:24.034Z</time></trkpt><trkpt lat="40.7296983" lon="14.6890033"><ele>115.0</ele><time>2026-04-25T06:35:25.041Z</time></trkpt><trkpt lat="40.7296167" lon="14.689085"><ele>115.0</ele><time>2026-04-25T06:35:26.035Z</time></trkpt><trkpt lat="40.7295333" lon="14.689165"><ele>115.0</ele><time>2026-04-25T06:35:27.038Z</time></trkpt><trkpt lat="40.7294483" lon="14.6892467"><ele>115.0</ele><time>2026-04-25T06:35:28.035Z</time></trkpt><trkpt lat="40.72936" lon="14.6893233"><ele>115.8</ele><time>2026-04-25T06:35:29.036Z</time></trkpt><trkpt lat="40.7292683" lon="14.6893967"><ele>116.6</ele><time>2026-04-25T06:35:30.038Z</time></trkpt><trkpt lat="40.7291783" lon="14.68948"><ele>117.4</ele><time>2026-04-25T06:35:31.036Z</time></trkpt><trkpt lat="40.729095" lon="14.68956"><ele>118.2</ele><time>2026-04-25T06:35:32.04Z</time></trkpt><trkpt lat="40.7290133" lon="14.6896467"><ele>119.0</ele><time>2026-04-25T06:35:33.042Z</time></trkpt><trkpt lat="40.72893" lon="14.6897333"><ele>119.0</ele><time>2026-04-25T06:35:34.033Z</time></trkpt><trkpt lat="40.72885" lon="14.68982"><ele>119.0</ele><time>2026-04-25T06:35:35.029Z</time></trkpt><trkpt lat="40.7287667" lon="14.6899033"><ele>119.0</ele><time>2026-04-25T06:35:36.042Z</time></trkpt><trkpt lat="40.7286833" lon="14.68998"><ele>119.0</ele><time>2026-04-25T06:35:37.035Z</time></trkpt><trkpt lat="40.7286033" lon="14.690055"><ele>119.0</ele><time>2026-04-25T06:35:38.038Z</time></trkpt><trkpt lat="40.7285233" lon="14.69013"><ele>119.75</ele><time>2026-04-25T06:35:39.041Z</time></trkpt><trkpt lat="40.72844" lon="14.690205"><ele>120.5</ele><time>2026-04-25T06:35:40.033Z</time></trkpt><trkpt lat="40.72835" lon="14.6902867"><ele>121.25</ele><time>2026-04-25T06:35:41.041Z</time></trkpt><trkpt lat="40.72825" lon="14.6903767"><ele>122.0</ele><time>2026-04-25T06:35:42.026Z</time></trkpt><trkpt lat="40.728145" lon="14.6904717"><ele>122.0</ele><time>2026-04-25T06:35:43.039Z</time></trkpt><trkpt lat="40.7280233" lon="14.6905767"><ele>122.0</ele><time>2026-04-25T06:35:44.037Z</time></trkpt><trkpt lat="40.7278983" lon="14.690685"><ele>122.0</ele><time>2026-04-25T06:35:45.042Z</time></trkpt><trkpt lat="40.7277783" lon="14.6907883"><ele>122.0</ele><time>2026-04-25T06:35:46.035Z</time></trkpt><trkpt lat="40.7276667" lon="14.6908867"><ele>123.0</ele><time>2026-04-25T06:35:47.037Z</time></trkpt><trkpt lat="40.7275667" lon="14.69098"><ele>123.99999999999999</ele><time>2026-04-25T06:35:48.033Z</time></trkpt><trkpt lat="40.727475" lon="14.691065"><ele>124.99999999999999</ele><time>2026-04-25T06:35:49.04Z</time></trkpt><trkpt lat="40.7273917" lon="14.69114"><ele>126.0</ele><time>2026-04-25T06:35:50.036Z</time></trkpt><trkpt lat="40.72732" lon="14.6912017"><ele>127.0</ele><time>2026-04-25T06:35:51.039Z</time></trkpt><trkpt lat="40.7272533" lon="14.691245"><ele>127.00000000000001</ele><time>2026-04-25T06:35:52.028Z</time></trkpt><trkpt lat="40.7271417" lon="14.6912633"><ele>127.0</ele><time>2026-04-25T06:35:54.031Z</time></trkpt><trkpt lat="40.7270667" lon="14.691225"><ele>127.0</ele><time>2026-04-25T06:35:56.03Z</time></trkpt><trkpt lat="40.7270617" lon="14.6913283"><ele>127.0</ele><time>2026-04-25T06:40:17.039Z</time></trkpt><trkpt lat="40.7270467" lon="14.6914417"><ele>127.00000000000001</ele><time>2026-04-25T06:40:28.035Z</time></trkpt><trkpt lat="40.7269983" lon="14.69152"><ele>127.0</ele><time>2026-04-25T06:40:30.038Z</time></trkpt><trkpt lat="40.7269167" lon="14.69161"><ele>127.16666666666667</ele><time>2026-04-25T06:40:32.034Z</time></trkpt><trkpt lat="40.7268617" lon="14.69167"><ele>127.33333333333334</ele><time>2026-04-25T06:40:33.037Z</time></trkpt><trkpt lat="40.726805" lon="14.6917317"><ele>127.5</ele><time>2026-04-25T06:40:34.035Z</time></trkpt><trkpt lat="40.726745" lon="14.6917867"><ele>127.66666666666666</ele><time>2026-04-25T06:40:35.043Z</time></trkpt><trkpt lat="40.7266817" lon="14.6918383"><ele>127.83333333333333</ele><time>2026-04-25T06:40:36.028Z</time></trkpt><trkpt lat="40.7266117" lon="14.6918983"><ele>128.0</ele><time>2026-04-25T06:40:37.042Z</time></trkpt><trkpt lat="40.72654" lon="14.6919667"><ele>128.0</ele><time>2026-04-25T06:40:38.047Z</time></trkpt><trkpt lat="40.726465" lon="14.6920333"><ele>128.0</ele><time>2026-04-25T06:40:39.029Z</time></trkpt><trkpt lat="40.7263883" lon="14.6921017"><ele>128.0</ele><time>2026-04-25T06:40:40.038Z</time></trkpt><trkpt lat="40.72631" lon="14.6921717"><ele>128.0</ele><time>2026-04-25T06:40:41.038Z</time></trkpt><trkpt lat="40.7262333" lon="14.6922417"><ele>128.0</ele><time>2026-04-25T06:40:42.041Z</time></trkpt><trkpt lat="40.7261533" lon="14.69231"><ele>127.99999999999999</ele><time>2026-04-25T06:40:43.04Z</time></trkpt><trkpt lat="40.7260767" lon="14.69238"><ele>128.0</ele><time>2026-04-25T06:40:44.056Z</time></trkpt><trkpt lat="40.7260017" lon="14.6924483"><ele>128.0</ele><time>2026-04-25T06:40:45.038Z</time></trkpt><trkpt lat="40.7259267" lon="14.6925133"><ele>128.0</ele><time>2026-04-25T06:40:46.036Z</time></trkpt><trkpt lat="40.725855" lon="14.692575"><ele>127.99999999999999</ele><time>2026-04-25T06:40:47.036Z</time></trkpt><trkpt lat="40.7257867" lon="14.692625"><ele>128.0</ele><time>2026-04-25T06:40:48.035Z</time></trkpt><trkpt lat="40.7257267" lon="14.692665"><ele>128.4</ele><time>2026-04-25T06:40:49.041Z</time></trkpt><trkpt lat="40.7256283" lon="14.69272"><ele>128.8</ele><time>2026-04-25T06:40:51.032Z</time></trkpt><trkpt lat="40.72554" lon="14.6927817"><ele>129.2</ele><time>2026-04-25T06:40:53.039Z</time></trkpt><trkpt lat="40.7254733" lon="14.6928567"><ele>129.6</ele><time>2026-04-25T06:40:55.038Z</time></trkpt><trkpt lat="40.725395" lon="14.6929467"><ele>130.0</ele><time>2026-04-25T06:40:57.038Z</time></trkpt><trkpt lat="40.7253" lon="14.693055"><ele>130.00000000000003</ele><time>2026-04-25T06:40:59.039Z</time></trkpt><trkpt lat="40.72524" lon="14.69311"><ele>130.0</ele><time>2026-04-25T06:41:00.03Z</time></trkpt><trkpt lat="40.72518" lon="14.6931633"><ele>130.0</ele><time>2026-04-25T06:41:01.036Z</time></trkpt><trkpt lat="40.72513" lon="14.6932217"><ele>130.0</ele><time>2026-04-25T06:41:02.037Z</time></trkpt><trkpt lat="40.725075" lon="14.6932767"><ele>130.0</ele><time>2026-04-25T06:41:03.034Z</time></trkpt><trkpt lat="40.725015" lon="14.6933317"><ele>130.00000000000003</ele><time>2026-04-25T06:41:04.04Z</time></trkpt><trkpt lat="40.72495" lon="14.6933817"><ele>130.0</ele><time>2026-04-25T06:41:05.039Z</time></trkpt><trkpt lat="40.7248867" lon="14.69344"><ele>130.66666666666669</ele><time>2026-04-25T06:41:06.032Z</time></trkpt><trkpt lat="40.724825" lon="14.6935017"><ele>131.33333333333334</ele><time>2026-04-25T06:41:07.044Z</time></trkpt><trkpt lat="40.72476" lon="14.6935667"><ele>132.0</ele><time>2026-04-25T06:41:08.059Z</time></trkpt><trkpt lat="40.7246883" lon="14.6936283"><ele>132.66666666666666</ele><time>2026-04-25T06:41:09.037Z</time></trkpt><trkpt lat="40.7246167" lon="14.69369"><ele>133.33333333333331</ele><time>2026-04-25T06:41:10.036Z</time></trkpt><trkpt lat="40.7245533" lon="14.6937467"><ele>134.0</ele><time>2026-04-25T06:41:11.034Z</time></trkpt><trkpt lat="40.724495" lon="14.6937917"><ele>134.0</ele><time>2026-04-25T06:41:12.047Z</time></trkpt><trkpt lat="40.7244383" lon="14.6938383"><ele>134.0</ele><time>2026-04-25T06:41:13.036Z</time></trkpt><trkpt lat="40.7243817" lon="14.6938867"><ele>134.0</ele><time>2026-04-25T06:41:14.051Z</time></trkpt><trkpt lat="40.7242817" lon="14.693975"><ele>134.0</ele><time>2026-04-25T06:41:16.032Z</time></trkpt><trkpt lat="40.7241783" lon="14.6940617"><ele>134.0</ele><time>2026-04-25T06:41:18.036Z</time></trkpt><trkpt lat="40.7241167" lon="14.6941183"><ele>134.0</ele><time>2026-04-25T06:41:19.032Z</time></trkpt><trkpt lat="40.724045" lon="14.6941933"><ele>134.0</ele><time>2026-04-25T06:41:20.05Z</time></trkpt><trkpt lat="40.7239633" lon="14.694285"><ele>134.0</ele><time>2026-04-25T06:41:21.039Z</time></trkpt><trkpt lat="40.7238783" lon="14.6943717"><ele>134.0</ele><time>2026-04-25T06:41:22.039Z</time></trkpt><trkpt lat="40.72379" lon="14.694465"><ele>134.0</ele><time>2026-04-25T06:41:23.034Z</time></trkpt><trkpt lat="40.7236983" lon="14.6945567"><ele>134.0</ele><time>2026-04-25T06:41:24.028Z</time></trkpt><trkpt lat="40.7236067" lon="14.6946383"><ele>134.0</ele><time>2026-04-25T06:41:25.032Z</time></trkpt><trkpt lat="40.723515" lon="14.6947133"><ele>134.0</ele><time>2026-04-25T06:41:26.03Z</time></trkpt><trkpt lat="40.7234267" lon="14.6947883"><ele>134.0</ele><time>2026-04-25T06:41:27.031Z</time></trkpt><trkpt lat="40.723335" lon="14.69487"><ele>134.0</ele><time>2026-04-25T06:41:28.035Z</time></trkpt><trkpt lat="40.72325" lon="14.6949467"><ele>134.4</ele><time>2026-04-25T06:41:29.036Z</time></trkpt><trkpt lat="40.7231633" lon="14.6950283"><ele>134.8</ele><time>2026-04-25T06:41:30.032Z</time></trkpt><trkpt lat="40.7230817" lon="14.69511"><ele>135.2</ele><time>2026-04-25T06:41:31.042Z</time></trkpt><trkpt lat="40.7230033" lon="14.6951883"><ele>135.6</ele><time>2026-04-25T06:41:32.03Z</time></trkpt><trkpt lat="40.7229283" lon="14.6952583"><ele>136.0</ele><time>2026-04-25T06:41:33.031Z</time></trkpt><trkpt lat="40.72286" lon="14.695325"><ele>136.0</ele><time>2026-04-25T06:41:34.04Z</time></trkpt><trkpt lat="40.7227883" lon="14.6953967"><ele>136.0</ele><time>2026-04-25T06:41:35.04Z</time></trkpt><trkpt lat="40.722715" lon="14.695475"><ele>136.0</ele><time>2026-04-25T06:41:36.026Z</time></trkpt><trkpt lat="40.722635" lon="14.6955533"><ele>136.0</ele><time>2026-04-25T06:41:37.036Z</time></trkpt><trkpt lat="40.7225467" lon="14.6956383"><ele>136.0</ele><time>2026-04-25T06:41:38.051Z</time></trkpt><trkpt lat="40.722455" lon="14.69572"><ele>137.0</ele><time>2026-04-25T06:41:39.036Z</time></trkpt><trkpt lat="40.7223683" lon="14.695805"><ele>138.0</ele><time>2026-04-25T06:41:40.035Z</time></trkpt><trkpt lat="40.7222767" lon="14.69589"><ele>139.0</ele><time>2026-04-25T06:41:41.039Z</time></trkpt><trkpt lat="40.72218" lon="14.695985"><ele>140.0</ele><time>2026-04-25T06:41:42.036Z</time></trkpt><trkpt lat="40.722075" lon="14.6960833"><ele>139.66666666666666</ele><time>2026-04-25T06:41:43.042Z</time></trkpt><trkpt lat="40.721955" lon="14.6961917"><ele>139.33333333333334</ele><time>2026-04-25T06:41:44.044Z</time></trkpt><trkpt lat="40.7218167" lon="14.6963167"><ele>139.0</ele><time>2026-04-25T06:41:45.036Z</time></trkpt><trkpt lat="40.7216767" lon="14.6964467"><ele>140.33333333333334</ele><time>2026-04-25T06:41:46.034Z</time></trkpt><trkpt lat="40.72154" lon="14.69657"><ele>141.66666666666666</ele><time>2026-04-25T06:41:47.028Z</time></trkpt><trkpt lat="40.72142" lon="14.6966783"><ele>143.0</ele><time>2026-04-25T06:41:48.03Z</time></trkpt><trkpt lat="40.7213017" lon="14.69679"><ele>143.0</ele><time>2026-04-25T06:41:49.032Z</time></trkpt><trkpt lat="40.72118" lon="14.6969"><ele>143.0</ele><time>2026-04-25T06:41:50.053Z</time></trkpt><trkpt lat="40.721055" lon="14.6970133"><ele>143.0</ele><time>2026-04-25T06:41:51.038Z</time></trkpt><trkpt lat="40.720925" lon="14.6971333"><ele>144.33333333333331</ele><time>2026-04-25T06:41:52.035Z</time></trkpt><trkpt lat="40.7207983" lon="14.6972467"><ele>145.66666666666666</ele><time>2026-04-25T06:41:53.041Z</time></trkpt><trkpt lat="40.7206717" lon="14.697355"><ele>147.0</ele><time>2026-04-25T06:41:54.036Z</time></trkpt><trkpt lat="40.7205467" lon="14.69746"><ele>147.0</ele><time>2026-04-25T06:41:55.037Z</time></trkpt><trkpt lat="40.720425" lon="14.6975583"><ele>147.0</ele><time>2026-04-25T06:41:56.032Z</time></trkpt><trkpt lat="40.7203067" lon="14.6976583"><ele>147.0</ele><time>2026-04-25T06:41:57.038Z</time></trkpt><trkpt lat="40.7201917" lon="14.6977667"><ele>147.0</ele><time>2026-04-25T06:41:58.034Z</time></trkpt><trkpt lat="40.720075" lon="14.6978833"><ele>147.66666666666666</ele><time>2026-04-25T06:41:59.045Z</time></trkpt><trkpt lat="40.7199567" lon="14.6980017"><ele>148.33333333333331</ele><time>2026-04-25T06:42:00.03Z</time></trkpt><trkpt lat="40.7198333" lon="14.6981217"><ele>149.0</ele><time>2026-04-25T06:42:01.042Z</time></trkpt><trkpt lat="40.7197033" lon="14.698235"><ele>149.0</ele><time>2026-04-25T06:42:02.035Z</time></trkpt><trkpt lat="40.7195717" lon="14.6983517"><ele>149.0</ele><time>2026-04-25T06:42:03.042Z</time></trkpt><trkpt lat="40.7194467" lon="14.698465"><ele>149.0</ele><time>2026-04-25T06:42:04.04Z</time></trkpt><trkpt lat="40.719335" lon="14.6985717"><ele>149.0</ele><time>2026-04-25T06:42:05.035Z</time></trkpt><trkpt lat="40.71923" lon="14.69867"><ele>149.5</ele><time>2026-04-25T06:42:06.039Z</time></trkpt><trkpt lat="40.7191233" lon="14.6987733"><ele>150.0</ele><time>2026-04-25T06:42:07.04Z</time></trkpt><trkpt lat="40.7190083" lon="14.698885"><ele>150.5</ele><time>2026-04-25T06:42:08.054Z</time></trkpt><trkpt lat="40.7188883" lon="14.6989967"><ele>151.0</ele><time>2026-04-25T06:42:09.038Z</time></trkpt><trkpt lat="40.718765" lon="14.6991117"><ele>151.0</ele><time>2026-04-25T06:42:10.029Z</time></trkpt><trkpt lat="40.71864" lon="14.69922"><ele>151.0</ele><time>2026-04-25T06:42:11.041Z</time></trkpt><trkpt lat="40.7185283" lon="14.699325"><ele>151.0</ele><time>2026-04-25T06:42:12.036Z</time></trkpt><trkpt lat="40.7184267" lon="14.6994167"><ele>151.0</ele><time>2026-04-25T06:42:13.027Z</time></trkpt><trkpt lat="40.7183283" lon="14.6995017"><ele>152.0</ele><time>2026-04-25T06:42:14.051Z</time></trkpt><trkpt lat="40.7182367" lon="14.69959"><ele>153.0</ele><time>2026-04-25T06:42:15.033Z</time></trkpt><trkpt lat="40.7181383" lon="14.6996717"><ele>154.0</ele><time>2026-04-25T06:42:16.038Z</time></trkpt><trkpt lat="40.71804" lon="14.6997583"><ele>155.0</ele><time>2026-04-25T06:42:17.039Z</time></trkpt><trkpt lat="40.717935" lon="14.699845"><ele>155.0</ele><time>2026-04-25T06:42:18.034Z</time></trkpt><trkpt lat="40.7178317" lon="14.6999267"><ele>155.0</ele><time>2026-04-25T06:42:19.041Z</time></trkpt><trkpt lat="40.7177367" lon="14.70001"><ele>155.0</ele><time>2026-04-25T06:42:20.052Z</time></trkpt><trkpt lat="40.71765" lon="14.7000867"><ele>155.0</ele><time>2026-04-25T06:42:21.036Z</time></trkpt><trkpt lat="40.7175583" lon="14.700165"><ele>155.0</ele><time>2026-04-25T06:42:22.04Z</time></trkpt><trkpt lat="40.71746" lon="14.7002517"><ele>156.0</ele><time>2026-04-25T06:42:23.039Z</time></trkpt><trkpt lat="40.7173533" lon="14.7003367"><ele>157.0</ele><time>2026-04-25T06:42:24.032Z</time></trkpt><trkpt lat="40.717245" lon="14.70042"><ele>158.0</ele><time>2026-04-25T06:42:25.039Z</time></trkpt><trkpt lat="40.717145" lon="14.7005033"><ele>159.0</ele><time>2026-04-25T06:42:26.095Z</time></trkpt><trkpt lat="40.7170583" lon="14.700585"><ele>159.0</ele><time>2026-04-25T06:42:27.033Z</time></trkpt><trkpt lat="40.7169733" lon="14.7006683"><ele>159.0</ele><time>2026-04-25T06:42:28.036Z</time></trkpt><trkpt lat="40.7168817" lon="14.7007633"><ele>159.0</ele><time>2026-04-25T06:42:29.031Z</time></trkpt><trkpt lat="40.7167767" lon="14.70087"><ele>159.0</ele><time>2026-04-25T06:42:30.035Z</time></trkpt><trkpt lat="40.7166617" lon="14.7009767"><ele>160.0</ele><time>2026-04-25T06:42:31.039Z</time></trkpt><trkpt lat="40.71654" lon="14.7010933"><ele>161.0</ele><time>2026-04-25T06:42:32.031Z</time></trkpt><trkpt lat="40.7164083" lon="14.7012133"><ele>162.0</ele><time>2026-04-25T06:42:33.026Z</time></trkpt><trkpt lat="40.716275" lon="14.7013333"><ele>162.0</ele><time>2026-04-25T06:42:34.028Z</time></trkpt><trkpt lat="40.7161467" lon="14.7014583"><ele>162.0</ele><time>2026-04-25T06:42:35.034Z</time></trkpt><trkpt lat="40.71603" lon="14.7015667"><ele>162.0</ele><time>2026-04-25T06:42:36.04Z</time></trkpt><trkpt lat="40.7159283" lon="14.7016617"><ele>162.0</ele><time>2026-04-25T06:42:37.039Z</time></trkpt><trkpt lat="40.715835" lon="14.7017567"><ele>162.39999999999998</ele><time>2026-04-25T06:42:38.049Z</time></trkpt><trkpt lat="40.7157583" lon="14.7018317"><ele>162.79999999999998</ele><time>2026-04-25T06:42:39.031Z</time></trkpt><trkpt lat="40.7156667" lon="14.701905"><ele>163.2</ele><time>2026-04-25T06:42:41.038Z</time></trkpt><trkpt lat="40.71559" lon="14.701975"><ele>163.6</ele><time>2026-04-25T06:42:44.055Z</time></trkpt><trkpt lat="40.7155117" lon="14.70206"><ele>164.0</ele><time>2026-04-25T06:42:46.03Z</time></trkpt><trkpt lat="40.71545" lon="14.7021517"><ele>164.0</ele><time>2026-04-25T06:42:48.036Z</time></trkpt><trkpt lat="40.7154433" lon="14.7022467"><ele>164.0</ele><time>2026-04-25T06:42:50.043Z</time></trkpt><trkpt lat="40.7155333" lon="14.7023983"><ele>164.0</ele><time>2026-04-25T06:42:52.046Z</time></trkpt><trkpt lat="40.7155817" lon="14.70251"><ele>164.0</ele><time>2026-04-25T06:42:53.038Z</time></trkpt><trkpt lat="40.7156367" lon="14.702665"><ele>164.0</ele><time>2026-04-25T06:42:54.037Z</time></trkpt><trkpt lat="40.7156983" lon="14.7029133"><ele>164.66666666666666</ele><time>2026-04-25T06:42:55.042Z</time></trkpt><trkpt lat="40.71575" lon="14.7031133"><ele>165.33333333333334</ele><time>2026-04-25T06:42:56.037Z</time></trkpt><trkpt lat="40.71581" lon="14.7033367"><ele>166.0</ele><time>2026-04-25T06:42:57.041Z</time></trkpt><trkpt lat="40.7158633" lon="14.7035567"><ele>168.0</ele><time>2026-04-25T06:42:58.034Z</time></trkpt><trkpt lat="40.715915" lon="14.7037733"><ele>170.0</ele><time>2026-04-25T06:42:59.036Z</time></trkpt><trkpt lat="40.71597" lon="14.7039833"><ele>172.0</ele><time>2026-04-25T06:43:00.035Z</time></trkpt><trkpt lat="40.7160183" lon="14.7041817"><ele>172.0</ele><time>2026-04-25T06:43:01.031Z</time></trkpt><trkpt lat="40.71606" lon="14.7043717"><ele>172.0</ele><time>2026-04-25T06:43:02.039Z</time></trkpt><trkpt lat="40.7160933" lon="14.7045517"><ele>172.0</ele><time>2026-04-25T06:43:03.039Z</time></trkpt><trkpt lat="40.7161167" lon="14.7047267"><ele>172.0</ele><time>2026-04-25T06:43:04.036Z</time></trkpt><trkpt lat="40.7161317" lon="14.704885"><ele>173.2</ele><time>2026-04-25T06:43:05.039Z</time></trkpt><trkpt lat="40.7161483" lon="14.70503"><ele>174.39999999999998</ele><time>2026-04-25T06:43:06.03Z</time></trkpt><trkpt lat="40.7161583" lon="14.7051617"><ele>175.60000000000002</ele><time>2026-04-25T06:43:07.039Z</time></trkpt><trkpt lat="40.7161617" lon="14.7052783"><ele>176.8</ele><time>2026-04-25T06:43:08.049Z</time></trkpt><trkpt lat="40.71615" lon="14.7053817"><ele>178.0</ele><time>2026-04-25T06:43:09.026Z</time></trkpt><trkpt lat="40.7161333" lon="14.7054817"><ele>178.66666666666669</ele><time>2026-04-25T06:43:10.036Z</time></trkpt><trkpt lat="40.7161167" lon="14.7055867"><ele>179.33333333333334</ele><time>2026-04-25T06:43:11.039Z</time></trkpt><trkpt lat="40.7161083" lon="14.7056933"><ele>180.0</ele><time>2026-04-25T06:43:12.039Z</time></trkpt><trkpt lat="40.7161067" lon="14.7058033"><ele>180.66666666666666</ele><time>2026-04-25T06:43:13.036Z</time></trkpt><trkpt lat="40.7161133" lon="14.705915"><ele>181.33333333333331</ele><time>2026-04-25T06:43:14.073Z</time></trkpt><trkpt lat="40.716125" lon="14.7060217"><ele>182.0</ele><time>2026-04-25T06:43:15.032Z</time></trkpt><trkpt lat="40.7161333" lon="14.7061183"><ele>183.0</ele><time>2026-04-25T06:43:16.034Z</time></trkpt><trkpt lat="40.7161417" lon="14.70621"><ele>184.0</ele><time>2026-04-25T06:43:17.038Z</time></trkpt><trkpt lat="40.71615" lon="14.7062983"><ele>185.0</ele><time>2026-04-25T06:43:18.033Z</time></trkpt><trkpt lat="40.71616" lon="14.7064433"><ele>186.0</ele><time>2026-04-25T06:43:20.05Z</time></trkpt><trkpt lat="40.71613" lon="14.70653"><ele>187.0</ele><time>2026-04-25T06:43:22.027Z</time></trkpt><trkpt lat="40.7160483" lon="14.7065983"><ele>188.0</ele><time>2026-04-25T06:43:24.033Z</time></trkpt><trkpt lat="40.7159333" lon="14.706655"><ele>188.0</ele><time>2026-04-25T06:43:26.024Z</time></trkpt><trkpt lat="40.7158717" lon="14.7066817"><ele>188.0</ele><time>2026-04-25T06:43:27.033Z</time></trkpt><trkpt lat="40.715755" lon="14.70674"><ele>188.0</ele><time>2026-04-25T06:43:29.042Z</time></trkpt><trkpt lat="40.715685" lon="14.70678"><ele>188.0</ele><time>2026-04-25T06:43:30.04Z</time></trkpt><trkpt lat="40.7156067" lon="14.7068283"><ele>188.0</ele><time>2026-04-25T06:43:31.044Z</time></trkpt><trkpt lat="40.71552" lon="14.7068883"><ele>188.75</ele><time>2026-04-25T06:43:32.035Z</time></trkpt><trkpt lat="40.7154233" lon="14.706955"><ele>189.5</ele><time>2026-04-25T06:43:33.037Z</time></trkpt><trkpt lat="40.7153133" lon="14.7070283"><ele>190.25</ele><time>2026-04-25T06:43:34.035Z</time></trkpt><trkpt lat="40.7151883" lon="14.7071017"><ele>191.0</ele><time>2026-04-25T06:43:35.027Z</time></trkpt><trkpt lat="40.7150517" lon="14.7071833"><ele>191.0</ele><time>2026-04-25T06:43:36.034Z</time></trkpt><trkpt lat="40.7149067" lon="14.7072617"><ele>191.0</ele><time>2026-04-25T06:43:37.039Z</time></trkpt><trkpt lat="40.7147717" lon="14.70734"><ele>191.0</ele><time>2026-04-25T06:43:38.06Z</time></trkpt><trkpt lat="40.7146467" lon="14.7074083"><ele>191.0</ele><time>2026-04-25T06:43:39.032Z</time></trkpt><trkpt lat="40.714535" lon="14.7074683"><ele>191.0</ele><time>2026-04-25T06:43:40.036Z</time></trkpt><trkpt lat="40.71443" lon="14.7075333"><ele>191.0</ele><time>2026-04-25T06:43:41.032Z</time></trkpt><trkpt lat="40.714325" lon="14.7076017"><ele>191.0</ele><time>2026-04-25T06:43:42.041Z</time></trkpt><trkpt lat="40.714215" lon="14.7076667"><ele>191.0</ele><time>2026-04-25T06:43:43.04Z</time></trkpt><trkpt lat="40.7141" lon="14.7077367"><ele>191.5</ele><time>2026-04-25T06:43:44.06Z</time></trkpt><trkpt lat="40.713985" lon="14.70781"><ele>192.0</ele><time>2026-04-25T06:43:45.033Z</time></trkpt><trkpt lat="40.7138717" lon="14.7078767"><ele>192.5</ele><time>2026-04-25T06:43:46.034Z</time></trkpt><trkpt lat="40.7137683" lon="14.70794"><ele>193.0</ele><time>2026-04-25T06:43:47.036Z</time></trkpt><trkpt lat="40.71368" lon="14.7080017"><ele>192.99999999999997</ele><time>2026-04-25T06:43:48.032Z</time></trkpt><trkpt lat="40.7136017" lon="14.7080567"><ele>193.0</ele><time>2026-04-25T06:43:49.041Z</time></trkpt><trkpt lat="40.71353" lon="14.7081033"><ele>193.0</ele><time>2026-04-25T06:43:50.06Z</time></trkpt><trkpt lat="40.71346" lon="14.7081383"><ele>193.0</ele><time>2026-04-25T06:43:51.032Z</time></trkpt><trkpt lat="40.7133883" lon="14.7081583"><ele>192.99999999999997</ele><time>2026-04-25T06:43:52.028Z</time></trkpt><trkpt lat="40.7133167" lon="14.7081717"><ele>193.0</ele><time>2026-04-25T06:43:53.035Z</time></trkpt><trkpt lat="40.71325" lon="14.708185"><ele>192.8</ele><time>2026-04-25T06:43:54.034Z</time></trkpt><trkpt lat="40.7131867" lon="14.7082117"><ele>192.60000000000002</ele><time>2026-04-25T06:43:55.035Z</time></trkpt><trkpt lat="40.7131283" lon="14.7083083"><ele>192.39999999999998</ele><time>2026-04-25T06:43:57.041Z</time></trkpt><trkpt lat="40.7132067" lon="14.7084617"><ele>192.2</ele><time>2026-04-25T06:43:59.043Z</time></trkpt><trkpt lat="40.7133367" lon="14.70854"><ele>192.0</ele><time>2026-04-25T06:44:00.028Z</time></trkpt><trkpt lat="40.7134533" lon="14.7085983"><ele>193.25</ele><time>2026-04-25T06:44:01.035Z</time></trkpt><trkpt lat="40.7135633" lon="14.7086433"><ele>194.5</ele><time>2026-04-25T06:44:02.028Z</time></trkpt><trkpt lat="40.7136683" lon="14.708695"><ele>195.75</ele><time>2026-04-25T06:44:03.031Z</time></trkpt><trkpt lat="40.7137783" lon="14.7087467"><ele>197.0</ele><time>2026-04-25T06:44:04.044Z</time></trkpt><trkpt lat="40.7138933" lon="14.708805"><ele>197.25</ele><time>2026-04-25T06:44:05.042Z</time></trkpt><trkpt lat="40.7140117" lon="14.7088717"><ele>197.5</ele><time>2026-04-25T06:44:06.032Z</time></trkpt><trkpt lat="40.71413" lon="14.7089383"><ele>197.75</ele><time>2026-04-25T06:44:07.041Z</time></trkpt><trkpt lat="40.7142367" lon="14.709"><ele>198.0</ele><time>2026-04-25T06:44:08.051Z</time></trkpt><trkpt lat="40.7143483" lon="14.7090633"><ele>198.0</ele><time>2026-04-25T06:44:09.03Z</time></trkpt><trkpt lat="40.7144667" lon="14.7091283"><ele>198.0</ele><time>2026-04-25T06:44:10.035Z</time></trkpt><trkpt lat="40.714595" lon="14.709185"><ele>198.0</ele><time>2026-04-25T06:44:11.039Z</time></trkpt><trkpt lat="40.7147317" lon="14.7092333"><ele>198.0</ele><time>2026-04-25T06:44:12.042Z</time></trkpt><trkpt lat="40.7148633" lon="14.70927"><ele>198.0</ele><time>2026-04-25T06:44:13.037Z</time></trkpt><trkpt lat="40.714995" lon="14.7092867"><ele>198.0</ele><time>2026-04-25T06:44:14.054Z</time></trkpt><trkpt lat="40.71512" lon="14.709305"><ele>198.0</ele><time>2026-04-25T06:44:15.027Z</time></trkpt><trkpt lat="40.7152533" lon="14.709325"><ele>198.0</ele><time>2026-04-25T06:44:16.035Z</time></trkpt><trkpt lat="40.71538" lon="14.7093367"><ele>199.25</ele><time>2026-04-25T06:44:17.033Z</time></trkpt><trkpt lat="40.7155083" lon="14.7093383"><ele>200.5</ele><time>2026-04-25T06:44:18.03Z</time></trkpt><trkpt lat="40.7156317" lon="14.7093417"><ele>201.75</ele><time>2026-04-25T06:44:19.037Z</time></trkpt><trkpt lat="40.7157433" lon="14.70935"><ele>203.0</ele><time>2026-04-25T06:44:20.058Z</time></trkpt><trkpt lat="40.715835" lon="14.70937"><ele>204.00000000000003</ele><time>2026-04-25T06:44:21.032Z</time></trkpt><trkpt lat="40.7158933" lon="14.70943"><ele>205.0</ele><time>2026-04-25T06:44:22.04Z</time></trkpt><trkpt lat="40.7159433" lon="14.7095033"><ele>206.0</ele><time>2026-04-25T06:44:23.031Z</time></trkpt><trkpt lat="40.7159967" lon="14.7095933"><ele>207.0</ele><time>2026-04-25T06:44:24.032Z</time></trkpt><trkpt lat="40.7160467" lon="14.70968"><ele>208.00000000000003</ele><time>2026-04-25T06:44:25.036Z</time></trkpt><trkpt lat="40.7160767" lon="14.70978"><ele>209.0</ele><time>2026-04-25T06:44:26.034Z</time></trkpt><trkpt lat="40.7160933" lon="14.7099033"><ele>209.0</ele><time>2026-04-25T06:44:27.033Z</time></trkpt><trkpt lat="40.7160983" lon="14.7100617"><ele>209.0</ele><time>2026-04-25T06:44:28.031Z</time></trkpt><trkpt lat="40.7160983" lon="14.71022"><ele>209.0</ele><time>2026-04-25T06:44:29.038Z</time></trkpt><trkpt lat="40.716095" lon="14.71037"><ele>209.0</ele><time>2026-04-25T06:44:30.037Z</time></trkpt><trkpt lat="40.7160933" lon="14.710505"><ele>209.66666666666669</ele><time>2026-04-25T06:44:31.033Z</time></trkpt><trkpt lat="40.71609" lon="14.7106133"><ele>210.33333333333334</ele><time>2026-04-25T06:44:32.027Z</time></trkpt><trkpt lat="40.71609" lon="14.7107067"><ele>211.0</ele><time>2026-04-25T06:44:33.039Z</time></trkpt><trkpt lat="40.716085" lon="14.710835"><ele>211.66666666666669</ele><time>2026-04-25T06:44:35.039Z</time></trkpt><trkpt lat="40.7160783" lon="14.7109283"><ele>212.33333333333334</ele><time>2026-04-25T06:44:37.043Z</time></trkpt><trkpt lat="40.7160967" lon="14.7110767"><ele>213.0</ele><time>2026-04-25T06:44:39.036Z</time></trkpt><trkpt lat="40.7161067" lon="14.7111867"><ele>214.0</ele><time>2026-04-25T06:44:40.036Z</time></trkpt><trkpt lat="40.71612" lon="14.7113217"><ele>215.0</ele><time>2026-04-25T06:44:41.036Z</time></trkpt><trkpt lat="40.7161283" lon="14.711465"><ele>216.0</ele><time>2026-04-25T06:44:42.032Z</time></trkpt><trkpt lat="40.7161383" lon="14.7116183"><ele>217.0</ele><time>2026-04-25T06:44:43.037Z</time></trkpt><trkpt lat="40.7161533" lon="14.71177"><ele>218.0</ele><time>2026-04-25T06:44:44.052Z</time></trkpt><trkpt lat="40.7161733" lon="14.7119233"><ele>219.2</ele><time>2026-04-25T06:44:45.031Z</time></trkpt><trkpt lat="40.7161867" lon="14.7120683"><ele>220.4</ele><time>2026-04-25T06:44:46.042Z</time></trkpt><trkpt lat="40.7161933" lon="14.7122"><ele>221.59999999999997</ele><time>2026-04-25T06:44:47.038Z</time></trkpt><trkpt lat="40.7161983" lon="14.7123333"><ele>222.79999999999998</ele><time>2026-04-25T06:44:48.03Z</time></trkpt><trkpt lat="40.71621" lon="14.7124583"><ele>224.0</ele><time>2026-04-25T06:44:49.036Z</time></trkpt><trkpt lat="40.7162283" lon="14.71257"><ele>224.00000000000003</ele><time>2026-04-25T06:44:50.055Z</time></trkpt><trkpt lat="40.716245" lon="14.7126867"><ele>224.0</ele><time>2026-04-25T06:44:51.03Z</time></trkpt><trkpt lat="40.7162583" lon="14.7127917"><ele>224.0</ele><time>2026-04-25T06:44:52.033Z</time></trkpt><trkpt lat="40.7162683" lon="14.7128833"><ele>224.0</ele><time>2026-04-25T06:44:53.04Z</time></trkpt><trkpt lat="40.716295" lon="14.7129733"><ele>224.00000000000003</ele><time>2026-04-25T06:44:54.035Z</time></trkpt><trkpt lat="40.71631" lon="14.7131333"><ele>224.0</ele><time>2026-04-25T06:44:56.101Z</time></trkpt><trkpt lat="40.7162917" lon="14.71323"><ele>224.16666666666669</ele><time>2026-04-25T06:44:57.025Z</time></trkpt><trkpt lat="40.7162467" lon="14.7133267"><ele>224.33333333333334</ele><time>2026-04-25T06:44:58.035Z</time></trkpt><trkpt lat="40.716205" lon="14.713425"><ele>224.5</ele><time>2026-04-25T06:44:59.032Z</time></trkpt><trkpt lat="40.71616" lon="14.713525"><ele>224.66666666666669</ele><time>2026-04-25T06:45:00.032Z</time></trkpt><trkpt lat="40.7161267" lon="14.7136233"><ele>224.83333333333334</ele><time>2026-04-25T06:45:01.032Z</time></trkpt><trkpt lat="40.7160983" lon="14.7137067"><ele>225.0</ele><time>2026-04-25T06:45:02.025Z</time></trkpt><trkpt lat="40.7160633" lon="14.71384"><ele>225.8</ele><time>2026-04-25T06:45:04.03Z</time></trkpt><trkpt lat="40.7160967" lon="14.7140033"><ele>226.6</ele><time>2026-04-25T06:45:06.038Z</time></trkpt><trkpt lat="40.7161333" lon="14.7140783"><ele>227.39999999999998</ele><time>2026-04-25T06:45:07.033Z</time></trkpt><trkpt lat="40.71623" lon="14.71415"><ele>228.2</ele><time>2026-04-25T06:45:09.034Z</time></trkpt><trkpt lat="40.7163533" lon="14.7141117"><ele>229.0</ele><time>2026-04-25T06:45:11.036Z</time></trkpt><trkpt lat="40.7164417" lon="14.7140433"><ele>229.0</ele><time>2026-04-25T06:45:12.036Z</time></trkpt><trkpt lat="40.7165333" lon="14.7139667"><ele>228.99999999999997</ele><time>2026-04-25T06:45:13.037Z</time></trkpt><trkpt lat="40.716625" lon="14.7138983"><ele>228.99999999999997</ele><time>2026-04-25T06:45:14.059Z</time></trkpt><trkpt lat="40.7167183" lon="14.71383"><ele>229.0</ele><time>2026-04-25T06:45:15.037Z</time></trkpt><trkpt lat="40.7168083" lon="14.71377"><ele>229.0</ele><time>2026-04-25T06:45:16.028Z</time></trkpt><trkpt lat="40.71691" lon="14.7137117"><ele>229.0</ele><time>2026-04-25T06:45:17.028Z</time></trkpt><trkpt lat="40.7169983" lon="14.713655"><ele>228.99999999999997</ele><time>2026-04-25T06:45:18.027Z</time></trkpt><trkpt lat="40.717085" lon="14.713585"><ele>228.99999999999997</ele><time>2026-04-25T06:45:19.033Z</time></trkpt><trkpt lat="40.717165" lon="14.71353"><ele>229.0</ele><time>2026-04-25T06:45:20.048Z</time></trkpt><trkpt lat="40.717245" lon="14.71347"><ele>229.0</ele><time>2026-04-25T06:45:21.03Z</time></trkpt><trkpt lat="40.7173233" lon="14.7134033"><ele>228.2</ele><time>2026-04-25T06:45:22.037Z</time></trkpt><trkpt lat="40.7173967" lon="14.7133167"><ele>227.39999999999998</ele><time>2026-04-25T06:45:23.04Z</time></trkpt><trkpt lat="40.717455" lon="14.713205"><ele>226.6</ele><time>2026-04-25T06:45:24.031Z</time></trkpt><trkpt lat="40.7175017" lon="14.713085"><ele>225.8</ele><time>2026-04-25T06:45:25.038Z</time></trkpt><trkpt lat="40.7175417" lon="14.712985"><ele>225.0</ele><time>2026-04-25T06:45:26.032Z</time></trkpt><trkpt lat="40.7175783" lon="14.7128967"><ele>225.0</ele><time>2026-04-25T06:45:27.034Z</time></trkpt><trkpt lat="40.71762" lon="14.7128117"><ele>225.0</ele><time>2026-04-25T06:45:28.035Z</time></trkpt><trkpt lat="40.7176717" lon="14.7127417"><ele>225.0</ele><time>2026-04-25T06:45:29.032Z</time></trkpt><trkpt lat="40.7177267" lon="14.71268"><ele>225.0</ele><time>2026-04-25T06:45:30.039Z</time></trkpt><trkpt lat="40.71784" lon="14.7127367"><ele>225.0</ele><time>2026-04-25T06:45:31.037Z</time></trkpt><trkpt lat="40.717935" lon="14.7127733"><ele>225.0</ele><time>2026-04-25T06:45:32.033Z</time></trkpt><trkpt lat="40.7180367" lon="14.71282"><ele>227.0</ele><time>2026-04-25T06:45:33.029Z</time></trkpt><trkpt lat="40.718165" lon="14.7128433"><ele>229.0</ele><time>2026-04-25T06:45:34.028Z</time></trkpt><trkpt lat="40.7182833" lon="14.7128633"><ele>231.0</ele><time>2026-04-25T06:45:35.031Z</time></trkpt><trkpt lat="40.7184117" lon="14.7128517"><ele>233.0</ele><time>2026-04-25T06:45:36.028Z</time></trkpt><trkpt lat="40.7185433" lon="14.712815"><ele>232.5</ele><time>2026-04-25T06:45:37.041Z</time></trkpt><trkpt lat="40.718675" lon="14.7127633"><ele>232.0</ele><time>2026-04-25T06:45:38.055Z</time></trkpt><trkpt lat="40.71881" lon="14.712695"><ele>231.5</ele><time>2026-04-25T06:45:39.041Z</time></trkpt><trkpt lat="40.7189333" lon="14.7126117"><ele>231.0</ele><time>2026-04-25T06:45:40.026Z</time></trkpt><trkpt lat="40.7190433" lon="14.71254"><ele>231.0</ele><time>2026-04-25T06:45:41.03Z</time></trkpt><trkpt lat="40.7191533" lon="14.7124733"><ele>231.0</ele><time>2026-04-25T06:45:42.034Z</time></trkpt><trkpt lat="40.719265" lon="14.712415"><ele>231.0</ele><time>2026-04-25T06:45:43.034Z</time></trkpt><trkpt lat="40.719375" lon="14.7123633"><ele>231.0</ele><time>2026-04-25T06:45:44.062Z</time></trkpt><trkpt lat="40.719495" lon="14.712335"><ele>232.0</ele><time>2026-04-25T06:45:45.037Z</time></trkpt><trkpt lat="40.719615" lon="14.7123217"><ele>233.0</ele><time>2026-04-25T06:45:46.031Z</time></trkpt><trkpt lat="40.7197383" lon="14.7123017"><ele>234.0</ele><time>2026-04-25T06:45:47.039Z</time></trkpt><trkpt lat="40.7198667" lon="14.7122933"><ele>235.0</ele><time>2026-04-25T06:45:48.033Z</time></trkpt><trkpt lat="40.7200017" lon="14.71231"><ele>235.0</ele><time>2026-04-25T06:45:49.041Z</time></trkpt><trkpt lat="40.720145" lon="14.7123317"><ele>235.0</ele><time>2026-04-25T06:45:50.055Z</time></trkpt><trkpt lat="40.7202917" lon="14.71235"><ele>235.0</ele><time>2026-04-25T06:45:51.026Z</time></trkpt><trkpt lat="40.7204383" lon="14.7123467"><ele>235.0</ele><time>2026-04-25T06:45:52.033Z</time></trkpt><trkpt lat="40.7205867" lon="14.712335"><ele>235.75</ele><time>2026-04-25T06:45:53.033Z</time></trkpt><trkpt lat="40.7207283" lon="14.7123167"><ele>236.5</ele><time>2026-04-25T06:45:54.029Z</time></trkpt><trkpt lat="40.7208667" lon="14.712305"><ele>237.25</ele><time>2026-04-25T06:45:55.042Z</time></trkpt><trkpt lat="40.7209967" lon="14.712315"><ele>238.0</ele><time>2026-04-25T06:45:56.035Z</time></trkpt><trkpt lat="40.7211167" lon="14.71235"><ele>238.75</ele><time>2026-04-25T06:45:57.041Z</time></trkpt><trkpt lat="40.7212267" lon="14.712425"><ele>239.5</ele><time>2026-04-25T06:45:58.033Z</time></trkpt><trkpt lat="40.7213367" lon="14.7124617"><ele>240.25</ele><time>2026-04-25T06:45:59.034Z</time></trkpt><trkpt lat="40.7214467" lon="14.7124833"><ele>241.0</ele><time>2026-04-25T06:46:00.031Z</time></trkpt><trkpt lat="40.7215633" lon="14.7124783"><ele>241.0</ele><time>2026-04-25T06:46:01.033Z</time></trkpt><trkpt lat="40.72168" lon="14.7124683"><ele>241.0</ele><time>2026-04-25T06:46:02.033Z</time></trkpt><trkpt lat="40.7217983" lon="14.7124583"><ele>241.0</ele><time>2026-04-25T06:46:03.034Z</time></trkpt><trkpt lat="40.721915" lon="14.7124417"><ele>241.0</ele><time>2026-04-25T06:46:04.039Z</time></trkpt><trkpt lat="40.7220233" lon="14.7124367"><ele>240.60000000000002</ele><time>2026-04-25T06:46:05.041Z</time></trkpt><trkpt lat="40.7221217" lon="14.7124283"><ele>240.20000000000002</ele><time>2026-04-25T06:46:06.03Z</time></trkpt><trkpt lat="40.7222133" lon="14.7123967"><ele>239.79999999999998</ele><time>2026-04-25T06:46:07.026Z</time></trkpt><trkpt lat="40.7222967" lon="14.7123333"><ele>239.39999999999998</ele><time>2026-04-25T06:46:08.058Z</time></trkpt><trkpt lat="40.7223733" lon="14.7122433"><ele>239.0</ele><time>2026-04-25T06:46:09.034Z</time></trkpt><trkpt lat="40.7224567" lon="14.7121433"><ele>239.0</ele><time>2026-04-25T06:46:10.029Z</time></trkpt><trkpt lat="40.7225433" lon="14.7120433"><ele>239.0</ele><time>2026-04-25T06:46:11.042Z</time></trkpt><trkpt lat="40.7226433" lon="14.7119517"><ele>239.0</ele><time>2026-04-25T06:46:12.03Z</time></trkpt><trkpt lat="40.7227583" lon="14.7118783"><ele>239.0</ele><time>2026-04-25T06:46:13.039Z</time></trkpt><trkpt lat="40.7228783" lon="14.7118133"><ele>239.5</ele><time>2026-04-25T06:46:14.054Z</time></trkpt><trkpt lat="40.7230033" lon="14.71175"><ele>240.0</ele><time>2026-04-25T06:46:15.031Z</time></trkpt><trkpt lat="40.7231367" lon="14.7117"><ele>240.5</ele><time>2026-04-25T06:46:16.03Z</time></trkpt><trkpt lat="40.7232667" lon="14.7116517"><ele>241.0</ele><time>2026-04-25T06:46:17.025Z</time></trkpt><trkpt lat="40.7233883" lon="14.7115833"><ele>241.0</ele><time>2026-04-25T06:46:18.028Z</time></trkpt><trkpt lat="40.7234933" lon="14.7114817"><ele>241.00000000000003</ele><time>2026-04-25T06:46:19.035Z</time></trkpt><trkpt lat="40.7235767" lon="14.7113733"><ele>241.00000000000003</ele><time>2026-04-25T06:46:20.067Z</time></trkpt><trkpt lat="40.7236383" lon="14.7112667"><ele>241.0</ele><time>2026-04-25T06:46:21.039Z</time></trkpt><trkpt lat="40.7236883" lon="14.7111517"><ele>241.0</ele><time>2026-04-25T06:46:22.032Z</time></trkpt><trkpt lat="40.723735" lon="14.7110417"><ele>240.66666666666666</ele><time>2026-04-25T06:46:23.031Z</time></trkpt><trkpt lat="40.72378" lon="14.7109483"><ele>240.33333333333331</ele><time>2026-04-25T06:46:24.035Z</time></trkpt><trkpt lat="40.7238317" lon="14.710855"><ele>240.0</ele><time>2026-04-25T06:46:25.039Z</time></trkpt><trkpt lat="40.723885" lon="14.7107583"><ele>239.66666666666669</ele><time>2026-04-25T06:46:26.024Z</time></trkpt><trkpt lat="40.7239417" lon="14.7106767"><ele>239.33333333333334</ele><time>2026-04-25T06:46:27.033Z</time></trkpt><trkpt lat="40.724" lon="14.7106183"><ele>239.0</ele><time>2026-04-25T06:46:28.029Z</time></trkpt><trkpt lat="40.7240733" lon="14.7105767"><ele>239.00000000000003</ele><time>2026-04-25T06:46:29.034Z</time></trkpt><trkpt lat="40.7241483" lon="14.7105383"><ele>239.0</ele><time>2026-04-25T06:46:30.03Z</time></trkpt><trkpt lat="40.7242233" lon="14.710495"><ele>239.0</ele><time>2026-04-25T06:46:31.04Z</time></trkpt><trkpt lat="40.7243083" lon="14.71048"><ele>239.0</ele><time>2026-04-25T06:46:32.035Z</time></trkpt><trkpt lat="40.7243917" lon="14.710485"><ele>239.00000000000003</ele><time>2026-04-25T06:46:33.035Z</time></trkpt><trkpt lat="40.72448" lon="14.7105317"><ele>239.0</ele><time>2026-04-25T06:46:34.031Z</time></trkpt><trkpt lat="40.72458" lon="14.7105933"><ele>239.25</ele><time>2026-04-25T06:46:35.036Z</time></trkpt><trkpt lat="40.7246867" lon="14.71064"><ele>239.5</ele><time>2026-04-25T06:46:36.029Z</time></trkpt><trkpt lat="40.7247933" lon="14.7107183"><ele>239.75</ele><time>2026-04-25T06:46:37.027Z</time></trkpt><trkpt lat="40.7249217" lon="14.7107367"><ele>240.0</ele><time>2026-04-25T06:46:38.058Z</time></trkpt><trkpt lat="40.7250567" lon="14.7107383"><ele>240.0</ele><time>2026-04-25T06:46:39.029Z</time></trkpt><trkpt lat="40.7252" lon="14.7107133"><ele>240.0</ele><time>2026-04-25T06:46:40.034Z</time></trkpt><trkpt lat="40.725365" lon="14.7106733"><ele>240.0</ele><time>2026-04-25T06:46:41.031Z</time></trkpt><trkpt lat="40.7255183" lon="14.7106183"><ele>242.5</ele><time>2026-04-25T06:46:42.032Z</time></trkpt><trkpt lat="40.7256717" lon="14.710575"><ele>245.0</ele><time>2026-04-25T06:46:43.032Z</time></trkpt><trkpt lat="40.7258183" lon="14.7105467"><ele>247.5</ele><time>2026-04-25T06:46:44.058Z</time></trkpt><trkpt lat="40.7259533" lon="14.710495"><ele>250.0</ele><time>2026-04-25T06:46:45.034Z</time></trkpt><trkpt lat="40.726075" lon="14.71046"><ele>250.6</ele><time>2026-04-25T06:46:46.025Z</time></trkpt><trkpt lat="40.726195" lon="14.71042"><ele>251.2</ele><time>2026-04-25T06:46:47.027Z</time></trkpt><trkpt lat="40.7263117" lon="14.710395"><ele>251.8</ele><time>2026-04-25T06:46:48.032Z</time></trkpt><trkpt lat="40.7264217" lon="14.7103867"><ele>252.4</ele><time>2026-04-25T06:46:49.027Z</time></trkpt><trkpt lat="40.7265167" lon="14.71038"><ele>253.0</ele><time>2026-04-25T06:46:50.057Z</time></trkpt><trkpt lat="40.726605" lon="14.7103783"><ele>253.0</ele><time>2026-04-25T06:46:51.036Z</time></trkpt><trkpt lat="40.7266917" lon="14.7103883"><ele>253.0</ele><time>2026-04-25T06:46:52.035Z</time></trkpt><trkpt lat="40.7267833" lon="14.7104083"><ele>253.0</ele><time>2026-04-25T06:46:53.038Z</time></trkpt><trkpt lat="40.7268717" lon="14.710435"><ele>253.0</ele><time>2026-04-25T06:46:54.033Z</time></trkpt><trkpt lat="40.72695" lon="14.7104967"><ele>253.0</ele><time>2026-04-25T06:46:55.029Z</time></trkpt><trkpt lat="40.72703" lon="14.7105667"><ele>252.4</ele><time>2026-04-25T06:46:56.031Z</time></trkpt><trkpt lat="40.7271117" lon="14.7106333"><ele>251.8</ele><time>2026-04-25T06:46:57.024Z</time></trkpt><trkpt lat="40.7272" lon="14.710685"><ele>251.2</ele><time>2026-04-25T06:46:58.032Z</time></trkpt><trkpt lat="40.72729" lon="14.710745"><ele>250.6</ele><time>2026-04-25T06:46:59.035Z</time></trkpt><trkpt lat="40.7273783" lon="14.7107933"><ele>250.0</ele><time>2026-04-25T06:47:00.028Z</time></trkpt><trkpt lat="40.72747" lon="14.710835"><ele>250.0</ele><time>2026-04-25T06:47:01.04Z</time></trkpt><trkpt lat="40.7275683" lon="14.710855"><ele>250.0</ele><time>2026-04-25T06:47:02.031Z</time></trkpt><trkpt lat="40.7276783" lon="14.7108633"><ele>250.0</ele><time>2026-04-25T06:47:03.03Z</time></trkpt><trkpt lat="40.7277933" lon="14.7108667"><ele>250.0</ele><time>2026-04-25T06:47:04.027Z</time></trkpt><trkpt lat="40.7279083" lon="14.7108683"><ele>250.0</ele><time>2026-04-25T06:47:05.033Z</time></trkpt><trkpt lat="40.7280233" lon="14.7108733"><ele>251.75</ele><time>2026-04-25T06:47:06.027Z</time></trkpt><trkpt lat="40.7281417" lon="14.7108783"><ele>253.5</ele><time>2026-04-25T06:47:07.033Z</time></trkpt><trkpt lat="40.7282683" lon="14.7108833"><ele>255.25</ele><time>2026-04-25T06:47:08.049Z</time></trkpt><trkpt lat="40.7284017" lon="14.7108817"><ele>257.0</ele><time>2026-04-25T06:47:09.032Z</time></trkpt><trkpt lat="40.7285417" lon="14.7108517"><ele>258.0</ele><time>2026-04-25T06:47:10.034Z</time></trkpt><trkpt lat="40.7286783" lon="14.7108317"><ele>259.0</ele><time>2026-04-25T06:47:11.029Z</time></trkpt><trkpt lat="40.7288" lon="14.7108167"><ele>260.0</ele><time>2026-04-25T06:47:12.042Z</time></trkpt><trkpt lat="40.7289" lon="14.71081"><ele>261.0</ele><time>2026-04-25T06:47:13.024Z</time></trkpt><trkpt lat="40.72899" lon="14.7107917"><ele>261.0</ele><time>2026-04-25T06:47:14.05Z</time></trkpt><trkpt lat="40.72907" lon="14.7107883"><ele>261.0</ele><time>2026-04-25T06:47:15.026Z</time></trkpt><trkpt lat="40.729145" lon="14.7107933"><ele>261.0</ele><time>2026-04-25T06:47:16.028Z</time></trkpt><trkpt lat="40.729225" lon="14.71082"><ele>261.0</ele><time>2026-04-25T06:47:17.037Z</time></trkpt><trkpt lat="40.7293217" lon="14.71085"><ele>261.0</ele><time>2026-04-25T06:47:18.033Z</time></trkpt><trkpt lat="40.72942" lon="14.7108767"><ele>261.0</ele><time>2026-04-25T06:47:19.039Z</time></trkpt><trkpt lat="40.7295717" lon="14.7108933"><ele>263.6666666666667</ele><time>2026-04-25T06:47:20.058Z</time></trkpt><trkpt lat="40.7297333" lon="14.710935"><ele>266.33333333333337</ele><time>2026-04-25T06:47:21.025Z</time></trkpt><trkpt lat="40.7298883" lon="14.71097"><ele>269.0</ele><time>2026-04-25T06:47:22.03Z</time></trkpt><trkpt lat="40.7300333" lon="14.7109983"><ele>269.0</ele><time>2026-04-25T06:47:23.031Z</time></trkpt><trkpt lat="40.73017" lon="14.7110317"><ele>269.0</ele><time>2026-04-25T06:47:24.031Z</time></trkpt><trkpt lat="40.7303033" lon="14.7110883"><ele>269.0</ele><time>2026-04-25T06:47:25.036Z</time></trkpt><trkpt lat="40.7304217" lon="14.7111367"><ele>269.0</ele><time>2026-04-25T06:47:26.099Z</time></trkpt><trkpt lat="40.73053" lon="14.7111833"><ele>271.59999999999997</ele><time>2026-04-25T06:47:27.031Z</time></trkpt><trkpt lat="40.7306317" lon="14.711215"><ele>274.2</ele><time>2026-04-25T06:47:28.033Z</time></trkpt><trkpt lat="40.7307183" lon="14.7112633"><ele>276.79999999999995</ele><time>2026-04-25T06:47:29.029Z</time></trkpt><trkpt lat="40.7307983" lon="14.711325"><ele>279.4</ele><time>2026-04-25T06:47:30.035Z</time></trkpt><trkpt lat="40.7308717" lon="14.7113917"><ele>282.0</ele><time>2026-04-25T06:47:31.037Z</time></trkpt><trkpt lat="40.7309567" lon="14.7114767"><ele>282.0</ele><time>2026-04-25T06:47:32.031Z</time></trkpt><trkpt lat="40.7310567" lon="14.7115633"><ele>282.0</ele><time>2026-04-25T06:47:33.038Z</time></trkpt><trkpt lat="40.73116" lon="14.7116367"><ele>282.0</ele><time>2026-04-25T06:47:34.024Z</time></trkpt><trkpt lat="40.731275" lon="14.711695"><ele>282.0</ele><time>2026-04-25T06:47:35.028Z</time></trkpt><trkpt lat="40.73139" lon="14.71173"><ele>282.6</ele><time>2026-04-25T06:47:36.035Z</time></trkpt><trkpt lat="40.73151" lon="14.7117667"><ele>283.2</ele><time>2026-04-25T06:47:37.037Z</time></trkpt><trkpt lat="40.7316183" lon="14.7118"><ele>283.8</ele><time>2026-04-25T06:47:38.058Z</time></trkpt><trkpt lat="40.7317167" lon="14.7118383"><ele>284.4</ele><time>2026-04-25T06:47:39.042Z</time></trkpt><trkpt lat="40.7317967" lon="14.7118683"><ele>285.0</ele><time>2026-04-25T06:47:40.037Z</time></trkpt><trkpt lat="40.73186" lon="14.7118933"><ele>286.8</ele><time>2026-04-25T06:47:41.035Z</time></trkpt><trkpt lat="40.7319333" lon="14.7119683"><ele>288.6</ele><time>2026-04-25T06:47:43.033Z</time></trkpt><trkpt lat="40.73195" lon="14.7120967"><ele>290.4</ele><time>2026-04-25T06:47:45.03Z</time></trkpt><trkpt lat="40.73195" lon="14.7121867"><ele>292.2</ele><time>2026-04-25T06:47:46.034Z</time></trkpt><trkpt lat="40.7319483" lon="14.712305"><ele>294.0</ele><time>2026-04-25T06:47:47.046Z</time></trkpt><trkpt lat="40.731945" lon="14.7125033"><ele>294.0</ele><time>2026-04-25T06:47:48.026Z</time></trkpt><trkpt lat="40.7319467" lon="14.7127"><ele>294.0</ele><time>2026-04-25T06:47:49.031Z</time></trkpt><trkpt lat="40.731955" lon="14.712905"><ele>294.0</ele><time>2026-04-25T06:47:50.058Z</time></trkpt><trkpt lat="40.731965" lon="14.7131017"><ele>295.75</ele><time>2026-04-25T06:47:51.03Z</time></trkpt><trkpt lat="40.7319717" lon="14.7132733"><ele>297.5</ele><time>2026-04-25T06:47:52.029Z</time></trkpt><trkpt lat="40.7319783" lon="14.713435"><ele>299.25</ele><time>2026-04-25T06:47:53.035Z</time></trkpt><trkpt lat="40.731985" lon="14.7135867"><ele>301.0</ele><time>2026-04-25T06:47:54.029Z</time></trkpt><trkpt lat="40.73199" lon="14.7137367"><ele>303.40000000000003</ele><time>2026-04-25T06:47:55.025Z</time></trkpt><trkpt lat="40.7319917" lon="14.71388"><ele>305.8</ele><time>2026-04-25T06:47:56.029Z</time></trkpt><trkpt lat="40.7319867" lon="14.7140167"><ele>308.20000000000005</ele><time>2026-04-25T06:47:57.039Z</time></trkpt><trkpt lat="40.73198" lon="14.71414"><ele>310.6</ele><time>2026-04-25T06:47:58.027Z</time></trkpt><trkpt lat="40.73196" lon="14.71425"><ele>313.0</ele><time>2026-04-25T06:47:59.038Z</time></trkpt><trkpt lat="40.7319233" lon="14.714365"><ele>315.4</ele><time>2026-04-25T06:48:00.04Z</time></trkpt><trkpt lat="40.7318883" lon="14.71449"><ele>317.8</ele><time>2026-04-25T06:48:01.03Z</time></trkpt><trkpt lat="40.7318533" lon="14.7146233"><ele>320.2</ele><time>2026-04-25T06:48:02.032Z</time></trkpt><trkpt lat="40.73182" lon="14.714765"><ele>322.6</ele><time>2026-04-25T06:48:03.038Z</time></trkpt><trkpt lat="40.7317933" lon="14.7149083"><ele>325.0</ele><time>2026-04-25T06:48:04.033Z</time></trkpt><trkpt lat="40.7317683" lon="14.7150567"><ele>325.0</ele><time>2026-04-25T06:48:05.032Z</time></trkpt><trkpt lat="40.7317483" lon="14.7152067"><ele>325.0</ele><time>2026-04-25T06:48:06.028Z</time></trkpt><trkpt lat="40.7317267" lon="14.71535"><ele>325.0</ele><time>2026-04-25T06:48:07.033Z</time></trkpt><trkpt lat="40.731715" lon="14.7154883"><ele>325.0</ele><time>2026-04-25T06:48:08.053Z</time></trkpt><trkpt lat="40.7317017" lon="14.715605"><ele>325.0</ele><time>2026-04-25T06:48:09.033Z</time></trkpt><trkpt lat="40.731685" lon="14.7157"><ele>326.8</ele><time>2026-04-25T06:48:10.031Z</time></trkpt><trkpt lat="40.73162" lon="14.715795"><ele>328.6</ele><time>2026-04-25T06:48:12.034Z</time></trkpt><trkpt lat="40.7315483" lon="14.71582"><ele>330.4</ele><time>2026-04-25T06:48:13.037Z</time></trkpt><trkpt lat="40.7314567" lon="14.71587"><ele>332.2</ele><time>2026-04-25T06:48:14.05Z</time></trkpt><trkpt lat="40.7313633" lon="14.7159333"><ele>334.0</ele><time>2026-04-25T06:48:15.027Z</time></trkpt><trkpt lat="40.73125" lon="14.7159883"><ele>334.0</ele><time>2026-04-25T06:48:16.03Z</time></trkpt><trkpt lat="40.7311317" lon="14.7160517"><ele>334.0</ele><time>2026-04-25T06:48:17.034Z</time></trkpt><trkpt lat="40.7310133" lon="14.7161417"><ele>334.0</ele><time>2026-04-25T06:48:18.034Z</time></trkpt><trkpt lat="40.7309067" lon="14.7162283"><ele>334.0</ele><time>2026-04-25T06:48:19.042Z</time></trkpt><trkpt lat="40.7308" lon="14.7163183"><ele>335.25</ele><time>2026-04-25T06:48:20.056Z</time></trkpt><trkpt lat="40.73069" lon="14.7163983"><ele>336.5</ele><time>2026-04-25T06:48:21.034Z</time></trkpt><trkpt lat="40.7305767" lon="14.7164617"><ele>337.75</ele><time>2026-04-25T06:48:22.032Z</time></trkpt><trkpt lat="40.7304633" lon="14.7165"><ele>339.0</ele><time>2026-04-25T06:48:23.038Z</time></trkpt><trkpt lat="40.7303517" lon="14.7165283"><ele>339.0</ele><time>2026-04-25T06:48:24.035Z</time></trkpt><trkpt lat="40.73024" lon="14.71655"><ele>339.0</ele><time>2026-04-25T06:48:25.04Z</time></trkpt><trkpt lat="40.7301217" lon="14.7165617"><ele>339.0</ele><time>2026-04-25T06:48:26.099Z</time></trkpt><trkpt lat="40.7300067" lon="14.7165567"><ele>339.0</ele><time>2026-04-25T06:48:27.033Z</time></trkpt><trkpt lat="40.7298933" lon="14.716545"><ele>340.6</ele><time>2026-04-25T06:48:28.031Z</time></trkpt><trkpt lat="40.729785" lon="14.7165367"><ele>342.2</ele><time>2026-04-25T06:48:29.035Z</time></trkpt><trkpt lat="40.7296767" lon="14.7165417"><ele>343.8</ele><time>2026-04-25T06:48:30.035Z</time></trkpt><trkpt lat="40.7295733" lon="14.7165633"><ele>345.40000000000003</ele><time>2026-04-25T06:48:31.035Z</time></trkpt><trkpt lat="40.7294717" lon="14.7166133"><ele>347.0</ele><time>2026-04-25T06:48:32.047Z</time></trkpt><trkpt lat="40.7293667" lon="14.71669"><ele>347.0</ele><time>2026-04-25T06:48:33.035Z</time></trkpt><trkpt lat="40.7292617" lon="14.7167733"><ele>347.0</ele><time>2026-04-25T06:48:34.025Z</time></trkpt><trkpt lat="40.729155" lon="14.7168583"><ele>347.0</ele><time>2026-04-25T06:48:35.027Z</time></trkpt><trkpt lat="40.7290583" lon="14.7169333"><ele>347.0</ele><time>2026-04-25T06:48:36.031Z</time></trkpt><trkpt lat="40.7289683" lon="14.717"><ele>349.1666666666667</ele><time>2026-04-25T06:48:37.036Z</time></trkpt><trkpt lat="40.7288867" lon="14.7170517"><ele>351.33333333333337</ele><time>2026-04-25T06:48:38.059Z</time></trkpt><trkpt lat="40.7288117" lon="14.7171017"><ele>353.5</ele><time>2026-04-25T06:48:39.027Z</time></trkpt><trkpt lat="40.7287483" lon="14.7171517"><ele>355.6666666666667</ele><time>2026-04-25T06:48:40.045Z</time></trkpt><trkpt lat="40.7286917" lon="14.7171933"><ele>357.8333333333333</ele><time>2026-04-25T06:48:41.043Z</time></trkpt><trkpt lat="40.728605" lon="14.7172717"><ele>360.0</ele><time>2026-04-25T06:48:43.033Z</time></trkpt><trkpt lat="40.728565" lon="14.7173483"><ele>360.0</ele><time>2026-04-25T06:48:45.026Z</time></trkpt><trkpt lat="40.7286033" lon="14.71742"><ele>360.0</ele><time>2026-04-25T06:48:48.033Z</time></trkpt><trkpt lat="40.7286683" lon="14.7174717"><ele>360.0</ele><time>2026-04-25T06:49:10.035Z</time></trkpt><trkpt lat="40.7287117" lon="14.7175583"><ele>360.0</ele><time>2026-04-25T06:49:13.036Z</time></trkpt><trkpt lat="40.7287967" lon="14.7176517"><ele>360.0</ele><time>2026-04-25T06:49:17.034Z</time></trkpt><trkpt lat="40.7288617" lon="14.7177317"><ele>360.0</ele><time>2026-04-25T06:49:19.039Z</time></trkpt><trkpt lat="40.7289517" lon="14.71774"><ele>360.0</ele><time>2026-04-25T06:49:21.032Z</time></trkpt><trkpt lat="40.7290083" lon="14.7177033"><ele>360.0</ele><time>2026-04-25T06:49:22.031Z</time></trkpt><trkpt lat="40.729065" lon="14.7176533"><ele>360.0</ele><time>2026-04-25T06:49:23.036Z</time></trkpt><trkpt lat="40.7292" lon="14.7176"><ele>360.0</ele><time>2026-04-25T06:49:25.037Z</time></trkpt><trkpt lat="40.729275" lon="14.7175867"><ele>360.0</ele><time>2026-04-25T06:49:26.038Z</time></trkpt><trkpt lat="40.7293617" lon="14.71758"><ele>360.0</ele><time>2026-04-25T06:49:27.033Z</time></trkpt><trkpt lat="40.72944" lon="14.71759"><ele>361.2</ele><time>2026-04-25T06:49:28.025Z</time></trkpt><trkpt lat="40.729525" lon="14.7176117"><ele>362.4</ele><time>2026-04-25T06:49:29.029Z</time></trkpt><trkpt lat="40.7296133" lon="14.717655"><ele>363.6</ele><time>2026-04-25T06:49:30.035Z</time></trkpt><trkpt lat="40.729705" lon="14.71771"><ele>364.8</ele><time>2026-04-25T06:49:31.037Z</time></trkpt><trkpt lat="40.729785" lon="14.7177867"><ele>366.0</ele><time>2026-04-25T06:49:32.101Z</time></trkpt><trkpt lat="40.7298633" lon="14.7178317"><ele>369.3333333333333</ele><time>2026-04-25T06:49:33.034Z</time></trkpt><trkpt lat="40.7299367" lon="14.7178783"><ele>372.66666666666663</ele><time>2026-04-25T06:49:34.036Z</time></trkpt><trkpt lat="40.73001" lon="14.7179133"><ele>376.0</ele><time>2026-04-25T06:49:35.037Z</time></trkpt><trkpt lat="40.7300783" lon="14.7179483"><ele>379.3333333333333</ele><time>2026-04-25T06:49:36.027Z</time></trkpt><trkpt lat="40.7301467" lon="14.718005"><ele>382.66666666666663</ele><time>2026-04-25T06:49:37.023Z</time></trkpt><trkpt lat="40.7302033" lon="14.71806"><ele>386.0</ele><time>2026-04-25T06:49:38.054Z</time></trkpt><trkpt lat="40.7302583" lon="14.718115"><ele>386.4</ele><time>2026-04-25T06:49:39.027Z</time></trkpt><trkpt lat="40.7303183" lon="14.7181717"><ele>386.8</ele><time>2026-04-25T06:49:40.032Z</time></trkpt><trkpt lat="40.730385" lon="14.7182367"><ele>387.2</ele><time>2026-04-25T06:49:41.035Z</time></trkpt><trkpt lat="40.73046" lon="14.7183"><ele>387.59999999999997</ele><time>2026-04-25T06:49:42.029Z</time></trkpt><trkpt lat="40.7305483" lon="14.718365"><ele>388.0</ele><time>2026-04-25T06:49:43.034Z</time></trkpt><trkpt lat="40.7306483" lon="14.7184267"><ele>388.0</ele><time>2026-04-25T06:49:44.064Z</time></trkpt><trkpt lat="40.7307467" lon="14.7185"><ele>388.0</ele><time>2026-04-25T06:49:45.028Z</time></trkpt><trkpt lat="40.730845" lon="14.718575"><ele>388.0</ele><time>2026-04-25T06:49:46.029Z</time></trkpt><trkpt lat="40.7309333" lon="14.7186567"><ele>388.0</ele><time>2026-04-25T06:49:47.03Z</time></trkpt><trkpt lat="40.7309967" lon="14.718705"><ele>388.0</ele><time>2026-04-25T06:49:48.027Z</time></trkpt><trkpt lat="40.7310683" lon="14.718795"><ele>393.0</ele><time>2026-04-25T06:49:49.033Z</time></trkpt><trkpt lat="40.7311383" lon="14.7188667"><ele>398.0</ele><time>2026-04-25T06:49:50.051Z</time></trkpt><trkpt lat="40.7311967" lon="14.7189117"><ele>403.0</ele><time>2026-04-25T06:49:51.025Z</time></trkpt><trkpt lat="40.7312717" lon="14.7189817"><ele>408.0</ele><time>2026-04-25T06:49:52.033Z</time></trkpt><trkpt lat="40.7313533" lon="14.7190633"><ele>413.0</ele><time>2026-04-25T06:49:53.029Z</time></trkpt><trkpt lat="40.7314467" lon="14.7191467"><ele>413.0</ele><time>2026-04-25T06:49:54.031Z</time></trkpt><trkpt lat="40.73153" lon="14.7192167"><ele>413.0</ele><time>2026-04-25T06:49:55.03Z</time></trkpt><trkpt lat="40.7316183" lon="14.7192917"><ele>413.0</ele><time>2026-04-25T06:49:56.09Z</time></trkpt><trkpt lat="40.731725" lon="14.71935"><ele>413.0</ele><time>2026-04-25T06:49:57.028Z</time></trkpt><trkpt lat="40.7318183" lon="14.7193983"><ele>413.0</ele><time>2026-04-25T06:49:58.031Z</time></trkpt><trkpt lat="40.7319317" lon="14.71945"><ele>418.4</ele><time>2026-04-25T06:49:59.029Z</time></trkpt><trkpt lat="40.732015" lon="14.71949"><ele>423.79999999999995</ele><time>2026-04-25T06:50:00.028Z</time></trkpt><trkpt lat="40.73208" lon="14.7195467"><ele>429.2</ele><time>2026-04-25T06:50:01.038Z</time></trkpt><trkpt lat="40.7321717" lon="14.7196133"><ele>434.6</ele><time>2026-04-25T06:50:02.035Z</time></trkpt><trkpt lat="40.7322517" lon="14.71968"><ele>440.0</ele><time>2026-04-25T06:50:03.023Z</time></trkpt><trkpt lat="40.73233" lon="14.719765"><ele>439.99999999999994</ele><time>2026-04-25T06:50:04.029Z</time></trkpt><trkpt lat="40.7324067" lon="14.719845"><ele>440.0</ele><time>2026-04-25T06:50:05.032Z</time></trkpt><trkpt lat="40.7324683" lon="14.719925"><ele>440.0</ele><time>2026-04-25T06:50:06.031Z</time></trkpt><trkpt lat="40.7325317" lon="14.7200133"><ele>440.0</ele><time>2026-04-25T06:50:07.034Z</time></trkpt><trkpt lat="40.73259" lon="14.7200967"><ele>439.99999999999994</ele><time>2026-04-25T06:50:08.056Z</time></trkpt><trkpt lat="40.7326467" lon="14.7201633"><ele>440.0</ele><time>2026-04-25T06:50:09.03Z</time></trkpt><trkpt lat="40.732705" lon="14.7202217"><ele>444.8</ele><time>2026-04-25T06:50:10.035Z</time></trkpt><trkpt lat="40.7327733" lon="14.72028"><ele>449.6</ele><time>2026-04-25T06:50:11.036Z</time></trkpt><trkpt lat="40.7328483" lon="14.720335"><ele>454.4</ele><time>2026-04-25T06:50:12.036Z</time></trkpt><trkpt lat="40.7329333" lon="14.720415"><ele>459.2</ele><time>2026-04-25T06:50:13.039Z</time></trkpt><trkpt lat="40.7330267" lon="14.7204567"><ele>464.0</ele><time>2026-04-25T06:50:14.056Z</time></trkpt><trkpt lat="40.73312" lon="14.7204917"><ele>464.0</ele><time>2026-04-25T06:50:15.033Z</time></trkpt><trkpt lat="40.73321" lon="14.7205"><ele>464.0</ele><time>2026-04-25T06:50:16.032Z</time></trkpt><trkpt lat="40.7333133" lon="14.7204833"><ele>464.0</ele><time>2026-04-25T06:50:17.032Z</time></trkpt><trkpt lat="40.7334067" lon="14.7204683"><ele>464.0</ele><time>2026-04-25T06:50:18.039Z</time></trkpt><trkpt lat="40.7334917" lon="14.7204717"><ele>464.0</ele><time>2026-04-25T06:50:19.036Z</time></trkpt><trkpt lat="40.733575" lon="14.7205133"><ele>463.99999999999994</ele><time>2026-04-25T06:50:21.031Z</time></trkpt><trkpt lat="40.7336267" lon="14.7205917"><ele>464.0</ele><time>2026-04-25T06:50:23.041Z</time></trkpt><trkpt lat="40.7336167" lon="14.720705"><ele>464.0</ele><time>2026-04-25T06:50:24.033Z</time></trkpt><trkpt lat="40.73361" lon="14.7207983"><ele>464.0</ele><time>2026-04-25T06:50:25.037Z</time></trkpt><trkpt lat="40.7335883" lon="14.7208817"><ele>463.99999999999994</ele><time>2026-04-25T06:50:26.067Z</time></trkpt><trkpt lat="40.7335217" lon="14.721015"><ele>464.0</ele><time>2026-04-25T06:50:28.037Z</time></trkpt><trkpt lat="40.73349" lon="14.7211533"><ele>461.66666666666663</ele><time>2026-04-25T06:50:30.032Z</time></trkpt><trkpt lat="40.7334917" lon="14.7212367"><ele>459.3333333333333</ele><time>2026-04-25T06:50:31.036Z</time></trkpt><trkpt lat="40.7335017" lon="14.7213317"><ele>457.0</ele><time>2026-04-25T06:50:32.066Z</time></trkpt><trkpt lat="40.7335267" lon="14.72143"><ele>454.66666666666663</ele><time>2026-04-25T06:50:33.031Z</time></trkpt><trkpt lat="40.7335533" lon="14.7215267"><ele>452.3333333333333</ele><time>2026-04-25T06:50:34.027Z</time></trkpt><trkpt lat="40.7335783" lon="14.7216283"><ele>450.0</ele><time>2026-04-25T06:50:35.032Z</time></trkpt><trkpt lat="40.7336017" lon="14.721725"><ele>450.0</ele><time>2026-04-25T06:50:36.03Z</time></trkpt><trkpt lat="40.7336283" lon="14.72183"><ele>450.0</ele><time>2026-04-25T06:50:37.032Z</time></trkpt><trkpt lat="40.7336533" lon="14.7219383"><ele>450.0</ele><time>2026-04-25T06:50:38.058Z</time></trkpt><trkpt lat="40.7336733" lon="14.7220433"><ele>450.0</ele><time>2026-04-25T06:50:39.028Z</time></trkpt><trkpt lat="40.7336767" lon="14.722145"><ele>450.0</ele><time>2026-04-25T06:50:40.033Z</time></trkpt><trkpt lat="40.7336683" lon="14.7222567"><ele>450.0</ele><time>2026-04-25T06:50:41.035Z</time></trkpt><trkpt lat="40.7336683" lon="14.7223733"><ele>453.4</ele><time>2026-04-25T06:50:42.034Z</time></trkpt><trkpt lat="40.7336783" lon="14.7224983"><ele>456.8</ele><time>2026-04-25T06:50:43.034Z</time></trkpt><trkpt lat="40.7336933" lon="14.7226233"><ele>460.20000000000005</ele><time>2026-04-25T06:50:44.057Z</time></trkpt><trkpt lat="40.73371" lon="14.7227517"><ele>463.6</ele><time>2026-04-25T06:50:45.037Z</time></trkpt><trkpt lat="40.733725" lon="14.7228733"><ele>467.0</ele><time>2026-04-25T06:50:46.034Z</time></trkpt><trkpt lat="40.733735" lon="14.7229983"><ele>470.66666666666663</ele><time>2026-04-25T06:50:47.039Z</time></trkpt><trkpt lat="40.7337417" lon="14.7231183"><ele>474.3333333333333</ele><time>2026-04-25T06:50:48.035Z</time></trkpt><trkpt lat="40.7337483" lon="14.7232333"><ele>478.0</ele><time>2026-04-25T06:50:49.033Z</time></trkpt><trkpt lat="40.7337617" lon="14.723345"><ele>481.66666666666663</ele><time>2026-04-25T06:50:50.052Z</time></trkpt><trkpt lat="40.7337783" lon="14.7234467"><ele>485.3333333333333</ele><time>2026-04-25T06:50:51.035Z</time></trkpt><trkpt lat="40.7337983" lon="14.723545"><ele>489.0</ele><time>2026-04-25T06:50:52.03Z</time></trkpt><trkpt lat="40.733835" lon="14.7236433"><ele>493.5</ele><time>2026-04-25T06:50:53.033Z</time></trkpt><trkpt lat="40.7338467" lon="14.7237483"><ele>498.0</ele><time>2026-04-25T06:50:54.038Z</time></trkpt><trkpt lat="40.733875" lon="14.72385"><ele>502.5</ele><time>2026-04-25T06:50:55.038Z</time></trkpt><trkpt lat="40.7339067" lon="14.7239567"><ele>507.0</ele><time>2026-04-25T06:50:56.079Z</time></trkpt><trkpt lat="40.7339283" lon="14.72406"><ele>511.5</ele><time>2026-04-25T06:50:57.029Z</time></trkpt><trkpt lat="40.7339517" lon="14.72415"><ele>516.0</ele><time>2026-04-25T06:50:58.033Z</time></trkpt><trkpt lat="40.7339883" lon="14.72424"><ele>516.0</ele><time>2026-04-25T06:50:59.04Z</time></trkpt><trkpt lat="40.7340267" lon="14.7243367"><ele>516.0</ele><time>2026-04-25T06:51:00.031Z</time></trkpt><trkpt lat="40.734065" lon="14.7244367"><ele>516.0</ele><time>2026-04-25T06:51:01.042Z</time></trkpt><trkpt lat="40.7341067" lon="14.7245333"><ele>516.0</ele><time>2026-04-25T06:51:02.074Z</time></trkpt><trkpt lat="40.7341517" lon="14.724635"><ele>516.0</ele><time>2026-04-25T06:51:03.029Z</time></trkpt><trkpt lat="40.7341967" lon="14.72472"><ele>516.0</ele><time>2026-04-25T06:51:04.034Z</time></trkpt><trkpt lat="40.7342483" lon="14.724785"><ele>519.5</ele><time>2026-04-25T06:51:05.033Z</time></trkpt><trkpt lat="40.7343117" lon="14.7248233"><ele>523.0</ele><time>2026-04-25T06:51:06.032Z</time></trkpt><trkpt lat="40.734385" lon="14.7248433"><ele>526.5</ele><time>2026-04-25T06:51:07.038Z</time></trkpt><trkpt lat="40.734465" lon="14.7248483"><ele>530.0</ele><time>2026-04-25T06:51:08.054Z</time></trkpt><trkpt lat="40.7345583" lon="14.7248417"><ele>533.5</ele><time>2026-04-25T06:51:09.037Z</time></trkpt><trkpt lat="40.7346517" lon="14.724825"><ele>537.0</ele><time>2026-04-25T06:51:10.036Z</time></trkpt><trkpt lat="40.7347433" lon="14.724805"><ele>537.0</ele><time>2026-04-25T06:51:11.038Z</time></trkpt><trkpt lat="40.7348283" lon="14.7247833"><ele>537.0</ele><time>2026-04-25T06:51:12.031Z</time></trkpt><trkpt lat="40.7349133" lon="14.7247467"><ele>537.0</ele><time>2026-04-25T06:51:13.04Z</time></trkpt><trkpt lat="40.7349933" lon="14.7247083"><ele>537.0</ele><time>2026-04-25T06:51:14.05Z</time></trkpt><trkpt lat="40.735065" lon="14.72466"><ele>537.0</ele><time>2026-04-25T06:51:15.031Z</time></trkpt><trkpt lat="40.7351267" lon="14.724625"><ele>537.0</ele><time>2026-04-25T06:51:16.027Z</time></trkpt><trkpt lat="40.735155" lon="14.724705"><ele>536.9999999999999</ele><time>2026-04-25T06:51:18.035Z</time></trkpt><trkpt lat="40.7351467" lon="14.7248533"><ele>537.0</ele><time>2026-04-25T06:51:20.054Z</time></trkpt><trkpt lat="40.7351217" lon="14.7249383"><ele>537.0</ele><time>2026-04-25T06:51:21.032Z</time></trkpt><trkpt lat="40.7350917" lon="14.7250183"><ele>537.0</ele><time>2026-04-25T06:51:22.036Z</time></trkpt><trkpt lat="40.735045" lon="14.7250783"><ele>537.0</ele><time>2026-04-25T06:51:23.029Z</time></trkpt><trkpt lat="40.7349867" lon="14.725125"><ele>536.9999999999999</ele><time>2026-04-25T06:51:24.032Z</time></trkpt><trkpt lat="40.73494" lon="14.7251833"><ele>537.0</ele><time>2026-04-25T06:51:25.044Z</time></trkpt><trkpt lat="40.7349067" lon="14.7253267"><ele>538.8000000000001</ele><time>2026-04-25T06:51:27.03Z</time></trkpt><trkpt lat="40.734915" lon="14.7254317"><ele>540.6</ele><time>2026-04-25T06:51:28.036Z</time></trkpt><trkpt lat="40.7349167" lon="14.72556"><ele>542.4000000000001</ele><time>2026-04-25T06:51:29.029Z</time></trkpt><trkpt lat="40.7349133" lon="14.7257083"><ele>544.2</ele><time>2026-04-25T06:51:30.027Z</time></trkpt><trkpt lat="40.7349133" lon="14.7258817"><ele>546.0</ele><time>2026-04-25T06:51:31.032Z</time></trkpt><trkpt lat="40.7349083" lon="14.7260383"><ele>548.2</ele><time>2026-04-25T06:51:32.055Z</time></trkpt><trkpt lat="40.734905" lon="14.7261833"><ele>550.4000000000001</ele><time>2026-04-25T06:51:33.027Z</time></trkpt><trkpt lat="40.7349017" lon="14.7263183"><ele>552.6</ele><time>2026-04-25T06:51:34.031Z</time></trkpt><trkpt lat="40.7348933" lon="14.72645"><ele>554.8000000000001</ele><time>2026-04-25T06:51:35.034Z</time></trkpt><trkpt lat="40.7348983" lon="14.7265833"><ele>557.0</ele><time>2026-04-25T06:51:36.031Z</time></trkpt><trkpt lat="40.734905" lon="14.726705"><ele>557.0</ele><time>2026-04-25T06:51:37.034Z</time></trkpt><trkpt lat="40.734905" lon="14.7268283"><ele>557.0</ele><time>2026-04-25T06:51:38.05Z</time></trkpt><trkpt lat="40.7349167" lon="14.7269267"><ele>557.0</ele><time>2026-04-25T06:51:39.029Z</time></trkpt><trkpt lat="40.7349667" lon="14.7270583"><ele>557.0</ele><time>2026-04-25T06:51:41.031Z</time></trkpt><trkpt lat="40.7350617" lon="14.72712"><ele>557.0</ele><time>2026-04-25T06:51:43.037Z</time></trkpt><trkpt lat="40.7351417" lon="14.727105"><ele>555.1666666666666</ele><time>2026-04-25T06:51:44.055Z</time></trkpt><trkpt lat="40.735235" lon="14.727065"><ele>553.3333333333333</ele><time>2026-04-25T06:51:45.031Z</time></trkpt><trkpt lat="40.7353217" lon="14.7270433"><ele>551.5</ele><time>2026-04-25T06:51:46.031Z</time></trkpt><trkpt lat="40.7354" lon="14.7270283"><ele>549.6666666666666</ele><time>2026-04-25T06:51:47.029Z</time></trkpt><trkpt lat="40.735465" lon="14.727025"><ele>547.8333333333334</ele><time>2026-04-25T06:51:48.032Z</time></trkpt><trkpt lat="40.7355517" lon="14.7270683"><ele>546.0</ele><time>2026-04-25T06:51:50.048Z</time></trkpt><trkpt lat="40.7355867" lon="14.7271567"><ele>546.0</ele><time>2026-04-25T06:51:52.033Z</time></trkpt><trkpt lat="40.73557" lon="14.7273"><ele>546.0</ele><time>2026-04-25T06:51:54.027Z</time></trkpt><trkpt lat="40.7355433" lon="14.7274017"><ele>546.0</ele><time>2026-04-25T06:51:55.03Z</time></trkpt><trkpt lat="40.7355217" lon="14.727485"><ele>546.0</ele><time>2026-04-25T06:51:56.059Z</time></trkpt><trkpt lat="40.7354967" lon="14.7275617"><ele>546.0</ele><time>2026-04-25T06:51:57.029Z</time></trkpt><trkpt lat="40.7354683" lon="14.7276417"><ele>546.0</ele><time>2026-04-25T06:51:58.031Z</time></trkpt><trkpt lat="40.7354433" lon="14.7277817"><ele>553.4</ele><time>2026-04-25T06:52:00.03Z</time></trkpt><trkpt lat="40.7354867" lon="14.7278783"><ele>560.8</ele><time>2026-04-25T06:52:02.075Z</time></trkpt><trkpt lat="40.73556" lon="14.72794"><ele>568.1999999999999</ele><time>2026-04-25T06:52:04.034Z</time></trkpt><trkpt lat="40.7356833" lon="14.7279633"><ele>575.6</ele><time>2026-04-25T06:52:06.028Z</time></trkpt><trkpt lat="40.7357683" lon="14.7279583"><ele>583.0</ele><time>2026-04-25T06:52:07.034Z</time></trkpt><trkpt lat="40.73585" lon="14.727935"><ele>583.0</ele><time>2026-04-25T06:52:08.055Z</time></trkpt><trkpt lat="40.735925" lon="14.72792"><ele>583.0</ele><time>2026-04-25T06:52:09.024Z</time></trkpt><trkpt lat="40.7359967" lon="14.7279133"><ele>583.0</ele><time>2026-04-25T06:52:10.032Z</time></trkpt><trkpt lat="40.7360667" lon="14.7279083"><ele>583.0</ele><time>2026-04-25T06:52:11.036Z</time></trkpt><trkpt lat="40.7362133" lon="14.7279367"><ele>583.0</ele><time>2026-04-25T06:52:13.04Z</time></trkpt><trkpt lat="40.7363333" lon="14.72793"><ele>581.6666666666667</ele><time>2026-04-25T06:52:15.029Z</time></trkpt><trkpt lat="40.7364017" lon="14.7279317"><ele>580.3333333333334</ele><time>2026-04-25T06:52:16.033Z</time></trkpt><trkpt lat="40.7364733" lon="14.727935"><ele>579.0</ele><time>2026-04-25T06:52:17.033Z</time></trkpt><trkpt lat="40.7365733" lon="14.7279533"><ele>577.6666666666666</ele><time>2026-04-25T06:52:19.026Z</time></trkpt><trkpt lat="40.736625" lon="14.72803"><ele>576.3333333333333</ele><time>2026-04-25T06:52:21.03Z</time></trkpt><trkpt lat="40.7366683" lon="14.7281417"><ele>575.0</ele><time>2026-04-25T06:52:23.032Z</time></trkpt><trkpt lat="40.7366967" lon="14.7283133"><ele>575.0</ele><time>2026-04-25T06:52:25.034Z</time></trkpt><trkpt lat="40.7367017" lon="14.7284317"><ele>575.0</ele><time>2026-04-25T06:52:26.095Z</time></trkpt><trkpt lat="40.736705" lon="14.72855"><ele>575.0</ele><time>2026-04-25T06:52:27.033Z</time></trkpt><trkpt lat="40.736715" lon="14.72866"><ele>575.0</ele><time>2026-04-25T06:52:28.029Z</time></trkpt><trkpt lat="40.7367217" lon="14.7287683"><ele>575.0</ele><time>2026-04-25T06:52:29.025Z</time></trkpt><trkpt lat="40.7367417" lon="14.7288767"><ele>575.0</ele><time>2026-04-25T06:52:30.03Z</time></trkpt><trkpt lat="40.7367633" lon="14.72899"><ele>579.6</ele><time>2026-04-25T06:52:31.025Z</time></trkpt><trkpt lat="40.73678" lon="14.72911"><ele>584.2</ele><time>2026-04-25T06:52:32.027Z</time></trkpt><trkpt lat="40.7367983" lon="14.729235"><ele>588.8</ele><time>2026-04-25T06:52:33.038Z</time></trkpt><trkpt lat="40.7368167" lon="14.7293567"><ele>593.4</ele><time>2026-04-25T06:52:34.036Z</time></trkpt><trkpt lat="40.73683" lon="14.72949"><ele>598.0</ele><time>2026-04-25T06:52:35.035Z</time></trkpt><trkpt lat="40.7368367" lon="14.72962"><ele>599.4</ele><time>2026-04-25T06:52:36.025Z</time></trkpt><trkpt lat="40.7368467" lon="14.729745"><ele>600.8</ele><time>2026-04-25T06:52:37.032Z</time></trkpt><trkpt lat="40.736855" lon="14.7298633"><ele>602.2</ele><time>2026-04-25T06:52:38.057Z</time></trkpt><trkpt lat="40.7368667" lon="14.7299967"><ele>603.6</ele><time>2026-04-25T06:52:39.026Z</time></trkpt><trkpt lat="40.7368817" lon="14.73012"><ele>605.0</ele><time>2026-04-25T06:52:40.035Z</time></trkpt><trkpt lat="40.7369067" lon="14.7302483"><ele>605.0</ele><time>2026-04-25T06:52:41.039Z</time></trkpt><trkpt lat="40.73693" lon="14.730375"><ele>605.0</ele><time>2026-04-25T06:52:42.032Z</time></trkpt><trkpt lat="40.736955" lon="14.7305083"><ele>605.0</ele><time>2026-04-25T06:52:43.04Z</time></trkpt><trkpt lat="40.736975" lon="14.7306433"><ele>605.0</ele><time>2026-04-25T06:52:44.051Z</time></trkpt><trkpt lat="40.7369717" lon="14.7307717"><ele>605.0</ele><time>2026-04-25T06:52:45.027Z</time></trkpt><trkpt lat="40.7369633" lon="14.7308883"><ele>605.0</ele><time>2026-04-25T06:52:46.03Z</time></trkpt><trkpt lat="40.7369633" lon="14.731"><ele>605.0</ele><time>2026-04-25T06:52:47.034Z</time></trkpt><trkpt lat="40.7369467" lon="14.73111"><ele>605.0</ele><time>2026-04-25T06:52:48.031Z</time></trkpt><trkpt lat="40.7369417" lon="14.7312283"><ele>605.0</ele><time>2026-04-25T06:52:49.036Z</time></trkpt><trkpt lat="40.7369283" lon="14.7313367"><ele>605.0</ele><time>2026-04-25T06:52:50.053Z</time></trkpt><trkpt lat="40.7369133" lon="14.7314383"><ele>605.0</ele><time>2026-04-25T06:52:51.033Z</time></trkpt><trkpt lat="40.736895" lon="14.731535"><ele>608.6666666666666</ele><time>2026-04-25T06:52:52.037Z</time></trkpt><trkpt lat="40.736895" lon="14.7316433"><ele>612.3333333333333</ele><time>2026-04-25T06:52:53.035Z</time></trkpt><trkpt lat="40.7368717" lon="14.7317417"><ele>616.0</ele><time>2026-04-25T06:52:54.031Z</time></trkpt><trkpt lat="40.7368433" lon="14.7318233"><ele>619.6666666666666</ele><time>2026-04-25T06:52:55.035Z</time></trkpt><trkpt lat="40.7368233" lon="14.731905"><ele>623.3333333333334</ele><time>2026-04-25T06:52:56.023Z</time></trkpt><trkpt lat="40.736795" lon="14.73203"><ele>627.0</ele><time>2026-04-25T06:52:58.03Z</time></trkpt><trkpt lat="40.7367683" lon="14.732155"><ele>627.0</ele><time>2026-04-25T06:53:00.038Z</time></trkpt><trkpt lat="40.7367083" lon="14.7322917"><ele>627.0</ele><time>2026-04-25T06:53:54.031Z</time></trkpt><trkpt lat="40.7366933" lon="14.7324117"><ele>627.0</ele><time>2026-04-25T06:53:56.077Z</time></trkpt><trkpt lat="40.7366633" lon="14.7325283"><ele>627.0</ele><time>2026-04-25T06:53:58.032Z</time></trkpt><trkpt lat="40.7366533" lon="14.7326867"><ele>627.0</ele><time>2026-04-25T06:54:00.032Z</time></trkpt><trkpt lat="40.7366533" lon="14.7327717"><ele>625.5</ele><time>2026-04-25T06:54:01.032Z</time></trkpt><trkpt lat="40.7366567" lon="14.7328567"><ele>624.0</ele><time>2026-04-25T06:54:02.037Z</time></trkpt><trkpt lat="40.7366617" lon="14.7329417"><ele>622.5</ele><time>2026-04-25T06:54:03.03Z</time></trkpt><trkpt lat="40.736665" lon="14.7330433"><ele>621.0</ele><time>2026-04-25T06:54:04.027Z</time></trkpt><trkpt lat="40.7366633" lon="14.7331617"><ele>619.5</ele><time>2026-04-25T06:54:05.035Z</time></trkpt><trkpt lat="40.7366667" lon="14.7332833"><ele>618.0</ele><time>2026-04-25T06:54:06.031Z</time></trkpt><trkpt lat="40.7366617" lon="14.7333967"><ele>618.0</ele><time>2026-04-25T06:54:07.031Z</time></trkpt><trkpt lat="40.7366617" lon="14.7335"><ele>618.0</ele><time>2026-04-25T06:54:08.058Z</time></trkpt><trkpt lat="40.7366717" lon="14.733605"><ele>618.0</ele><time>2026-04-25T06:54:09.034Z</time></trkpt><trkpt lat="40.73668" lon="14.7337183"><ele>618.0</ele><time>2026-04-25T06:54:10.038Z</time></trkpt><trkpt lat="40.7366833" lon="14.7338383"><ele>618.0</ele><time>2026-04-25T06:54:11.032Z</time></trkpt><trkpt lat="40.73669" lon="14.7339583"><ele>618.0</ele><time>2026-04-25T06:54:12.031Z</time></trkpt><trkpt lat="40.7366917" lon="14.7340733"><ele>616.6666666666666</ele><time>2026-04-25T06:54:13.038Z</time></trkpt><trkpt lat="40.7367017" lon="14.7341867"><ele>615.3333333333334</ele><time>2026-04-25T06:54:14.058Z</time></trkpt><trkpt lat="40.7367083" lon="14.7342917"><ele>614.0</ele><time>2026-04-25T06:54:15.035Z</time></trkpt><trkpt lat="40.7367167" lon="14.7343917"><ele>612.6666666666667</ele><time>2026-04-25T06:54:16.031Z</time></trkpt><trkpt lat="40.7367133" lon="14.734495"><ele>611.3333333333334</ele><time>2026-04-25T06:54:17.035Z</time></trkpt><trkpt lat="40.736735" lon="14.7346033"><ele>610.0</ele><time>2026-04-25T06:54:18.027Z</time></trkpt><trkpt lat="40.7367417" lon="14.7347083"><ele>609.0</ele><time>2026-04-25T06:54:19.038Z</time></trkpt><trkpt lat="40.7367533" lon="14.7348133"><ele>608.0</ele><time>2026-04-25T06:54:20.057Z</time></trkpt><trkpt lat="40.7367683" lon="14.7349183"><ele>607.0</ele><time>2026-04-25T06:54:21.027Z</time></trkpt><trkpt lat="40.7367833" lon="14.735015"><ele>606.0</ele><time>2026-04-25T06:54:22.032Z</time></trkpt><trkpt lat="40.73679" lon="14.73511"><ele>605.0</ele><time>2026-04-25T06:54:23.032Z</time></trkpt><trkpt lat="40.7367933" lon="14.7351983"><ele>604.0</ele><time>2026-04-25T06:54:24.036Z</time></trkpt><trkpt lat="40.7368033" lon="14.7352833"><ele>603.0</ele><time>2026-04-25T06:54:25.031Z</time></trkpt><trkpt lat="40.73684" lon="14.7354333"><ele>602.6</ele><time>2026-04-25T06:54:27.028Z</time></trkpt><trkpt lat="40.7368783" lon="14.7355683"><ele>602.1999999999999</ele><time>2026-04-25T06:54:29.038Z</time></trkpt><trkpt lat="40.7369233" lon="14.7356933"><ele>601.8</ele><time>2026-04-25T06:54:31.038Z</time></trkpt><trkpt lat="40.736915" lon="14.735825"><ele>601.4</ele><time>2026-04-25T06:54:33.031Z</time></trkpt><trkpt lat="40.7368983" lon="14.73592"><ele>601.0</ele><time>2026-04-25T06:54:35.03Z</time></trkpt><trkpt lat="40.73689" lon="14.736055"><ele>600.1428571428571</ele><time>2026-04-25T06:54:37.037Z</time></trkpt><trkpt lat="40.73689" lon="14.7361483"><ele>599.2857142857143</ele><time>2026-04-25T06:54:38.058Z</time></trkpt><trkpt lat="40.7368983" lon="14.7362467"><ele>598.4285714285714</ele><time>2026-04-25T06:54:39.032Z</time></trkpt><trkpt lat="40.7369183" lon="14.7363483"><ele>597.5714285714286</ele><time>2026-04-25T06:54:40.032Z</time></trkpt><trkpt lat="40.7369433" lon="14.73644"><ele>596.7142857142858</ele><time>2026-04-25T06:54:41.035Z</time></trkpt><trkpt lat="40.736965" lon="14.7365233"><ele>595.8571428571429</ele><time>2026-04-25T06:54:42.035Z</time></trkpt><trkpt lat="40.7369867" lon="14.7366217"><ele>595.0</ele><time>2026-04-25T06:54:43.035Z</time></trkpt><trkpt lat="40.7370067" lon="14.7367267"><ele>595.0</ele><time>2026-04-25T06:54:44.054Z</time></trkpt><trkpt lat="40.7370267" lon="14.7368517"><ele>595.0</ele><time>2026-04-25T06:54:45.029Z</time></trkpt><trkpt lat="40.7370483" lon="14.73697"><ele>595.0</ele><time>2026-04-25T06:54:46.029Z</time></trkpt><trkpt lat="40.7370767" lon="14.7370867"><ele>595.0</ele><time>2026-04-25T06:54:47.032Z</time></trkpt><trkpt lat="40.7371017" lon="14.7371917"><ele>595.0</ele><time>2026-04-25T06:54:48.03Z</time></trkpt><trkpt lat="40.73712" lon="14.7372983"><ele>595.0</ele><time>2026-04-25T06:54:49.028Z</time></trkpt><trkpt lat="40.7371467" lon="14.7374233"><ele>593.4</ele><time>2026-04-25T06:54:50.062Z</time></trkpt><trkpt lat="40.7371833" lon="14.73756"><ele>591.8</ele><time>2026-04-25T06:54:51.024Z</time></trkpt><trkpt lat="40.7372233" lon="14.7376933"><ele>590.2</ele><time>2026-04-25T06:54:52.026Z</time></trkpt><trkpt lat="40.7372633" lon="14.7378217"><ele>588.6</ele><time>2026-04-25T06:54:53.031Z</time></trkpt><trkpt lat="40.7373" lon="14.7379433"><ele>587.0</ele><time>2026-04-25T06:54:54.025Z</time></trkpt><trkpt lat="40.7373383" lon="14.738055"><ele>586.3333333333333</ele><time>2026-04-25T06:54:55.04Z</time></trkpt><trkpt lat="40.7373717" lon="14.7381617"><ele>585.6666666666666</ele><time>2026-04-25T06:54:56.094Z</time></trkpt><trkpt lat="40.7373983" lon="14.73826"><ele>585.0</ele><time>2026-04-25T06:54:57.03Z</time></trkpt><trkpt lat="40.7374267" lon="14.7383517"><ele>584.3333333333334</ele><time>2026-04-25T06:54:58.036Z</time></trkpt><trkpt lat="40.73745" lon="14.7384417"><ele>583.6666666666667</ele><time>2026-04-25T06:54:59.033Z</time></trkpt><trkpt lat="40.7374683" lon="14.738535"><ele>583.0</ele><time>2026-04-25T06:55:00.034Z</time></trkpt><trkpt lat="40.7374833" lon="14.7386433"><ele>582.1666666666667</ele><time>2026-04-25T06:55:01.036Z</time></trkpt><trkpt lat="40.7375067" lon="14.7387517"><ele>581.3333333333334</ele><time>2026-04-25T06:55:02.059Z</time></trkpt><trkpt lat="40.7375267" lon="14.7388567"><ele>580.5</ele><time>2026-04-25T06:55:03.032Z</time></trkpt><trkpt lat="40.7375517" lon="14.7389517"><ele>579.6666666666666</ele><time>2026-04-25T06:55:04.026Z</time></trkpt><trkpt lat="40.7375767" lon="14.7390417"><ele>578.8333333333333</ele><time>2026-04-25T06:55:05.037Z</time></trkpt><trkpt lat="40.7376067" lon="14.739125"><ele>578.0</ele><time>2026-04-25T06:55:06.028Z</time></trkpt><trkpt lat="40.7376417" lon="14.7392"><ele>578.0</ele><time>2026-04-25T06:55:07.032Z</time></trkpt><trkpt lat="40.7376783" lon="14.739275"><ele>578.0</ele><time>2026-04-25T06:55:08.059Z</time></trkpt><trkpt lat="40.7377233" lon="14.7393383"><ele>578.0</ele><time>2026-04-25T06:55:09.033Z</time></trkpt><trkpt lat="40.737775" lon="14.7393967"><ele>578.0</ele><time>2026-04-25T06:55:10.034Z</time></trkpt><trkpt lat="40.73784" lon="14.7394583"><ele>578.0</ele><time>2026-04-25T06:55:11.033Z</time></trkpt><trkpt lat="40.7379067" lon="14.7395217"><ele>578.0</ele><time>2026-04-25T06:55:12.031Z</time></trkpt><trkpt lat="40.73797" lon="14.7395783"><ele>578.0</ele><time>2026-04-25T06:55:13.038Z</time></trkpt><trkpt lat="40.73804" lon="14.7396917"><ele>577.8333333333333</ele><time>2026-04-25T06:55:15.038Z</time></trkpt><trkpt lat="40.73802" lon="14.7398183"><ele>577.6666666666666</ele><time>2026-04-25T06:55:18.034Z</time></trkpt><trkpt lat="40.73795" lon="14.7398933"><ele>577.5</ele><time>2026-04-25T06:55:20.049Z</time></trkpt><trkpt lat="40.737875" lon="14.7399317"><ele>577.3333333333334</ele><time>2026-04-25T06:55:22.025Z</time></trkpt><trkpt lat="40.7378133" lon="14.7399583"><ele>577.1666666666667</ele><time>2026-04-25T06:55:24.027Z</time></trkpt><trkpt lat="40.7377233" lon="14.7400183"><ele>577.0</ele><time>2026-04-25T06:55:33.038Z</time></trkpt><trkpt lat="40.7376417" lon="14.7400983"><ele>577.0</ele><time>2026-04-25T06:55:35.035Z</time></trkpt><trkpt lat="40.7375667" lon="14.740185"><ele>577.0</ele><time>2026-04-25T06:55:37.036Z</time></trkpt><trkpt lat="40.73752" lon="14.740285"><ele>577.0</ele><time>2026-04-25T06:55:39.034Z</time></trkpt><trkpt lat="40.7375133" lon="14.740415"><ele>577.0</ele><time>2026-04-25T06:55:41.036Z</time></trkpt><trkpt lat="40.73753" lon="14.74054"><ele>577.0</ele><time>2026-04-25T06:55:43.037Z</time></trkpt><trkpt lat="40.7375683" lon="14.740665"><ele>575.4</ele><time>2026-04-25T06:55:45.033Z</time></trkpt><trkpt lat="40.7376133" lon="14.7407917"><ele>573.8000000000001</ele><time>2026-04-25T06:55:47.032Z</time></trkpt><trkpt lat="40.73768" lon="14.7409167"><ele>572.2</ele><time>2026-04-25T06:55:49.035Z</time></trkpt><trkpt lat="40.7377567" lon="14.7410633"><ele>570.6</ele><time>2026-04-25T06:55:51.03Z</time></trkpt><trkpt lat="40.7378017" lon="14.741145"><ele>569.0</ele><time>2026-04-25T06:55:52.028Z</time></trkpt><trkpt lat="40.7378417" lon="14.7412217"><ele>569.0</ele><time>2026-04-25T06:55:53.031Z</time></trkpt><trkpt lat="40.737875" lon="14.7412933"><ele>569.0</ele><time>2026-04-25T06:55:54.036Z</time></trkpt><trkpt lat="40.737925" lon="14.74142"><ele>569.0</ele><time>2026-04-25T06:55:56.04Z</time></trkpt><trkpt lat="40.7379933" lon="14.741535"><ele>569.0</ele><time>2026-04-25T06:55:58.028Z</time></trkpt><trkpt lat="40.7380733" lon="14.7416367"><ele>569.0</ele><time>2026-04-25T06:56:00.031Z</time></trkpt><trkpt lat="40.7381567" lon="14.7417233"><ele>569.0</ele><time>2026-04-25T06:56:02.075Z</time></trkpt><trkpt lat="40.7382333" lon="14.74183"><ele>569.0</ele><time>2026-04-25T06:56:04.035Z</time></trkpt><trkpt lat="40.738275" lon="14.7418967"><ele>569.0</ele><time>2026-04-25T06:56:05.032Z</time></trkpt><trkpt lat="40.7383533" lon="14.7419983"><ele>569.0</ele><time>2026-04-25T06:56:07.033Z</time></trkpt><trkpt lat="40.73844" lon="14.7420917"><ele>569.0</ele><time>2026-04-25T06:56:09.035Z</time></trkpt><trkpt lat="40.7385417" lon="14.7421933"><ele>567.4</ele><time>2026-04-25T06:56:11.032Z</time></trkpt><trkpt lat="40.7386417" lon="14.742265"><ele>565.8</ele><time>2026-04-25T06:56:13.037Z</time></trkpt><trkpt lat="40.7387333" lon="14.7423333"><ele>564.2</ele><time>2026-04-25T06:56:15.032Z</time></trkpt><trkpt lat="40.7388367" lon="14.742415"><ele>562.6</ele><time>2026-04-25T06:56:17.03Z</time></trkpt><trkpt lat="40.7389417" lon="14.7424467"><ele>561.0</ele><time>2026-04-25T06:56:19.034Z</time></trkpt><trkpt lat="40.7390467" lon="14.7424167"><ele>561.0</ele><time>2026-04-25T06:56:21.028Z</time></trkpt><trkpt lat="40.73911" lon="14.7423933"><ele>561.0</ele><time>2026-04-25T06:56:22.029Z</time></trkpt><trkpt lat="40.73923" lon="14.7424"><ele>561.0</ele><time>2026-04-25T06:56:24.027Z</time></trkpt><trkpt lat="40.7393083" lon="14.7424783"><ele>561.0</ele><time>2026-04-25T06:56:26.093Z</time></trkpt><trkpt lat="40.7393417" lon="14.7425533"><ele>561.0</ele><time>2026-04-25T06:56:27.029Z</time></trkpt><trkpt lat="40.7393683" lon="14.7426467"><ele>561.0</ele><time>2026-04-25T06:56:28.03Z</time></trkpt><trkpt lat="40.7393933" lon="14.7427317"><ele>562.75</ele><time>2026-04-25T06:56:29.026Z</time></trkpt><trkpt lat="40.7394483" lon="14.74287"><ele>564.5</ele><time>2026-04-25T06:56:31.031Z</time></trkpt><trkpt lat="40.73951" lon="14.74299"><ele>566.25</ele><time>2026-04-25T06:56:33.044Z</time></trkpt><trkpt lat="40.7395833" lon="14.7431"><ele>568.0</ele><time>2026-04-25T06:56:35.039Z</time></trkpt><trkpt lat="40.7396717" lon="14.7432217"><ele>568.0</ele><time>2026-04-25T06:56:37.036Z</time></trkpt><trkpt lat="40.7397117" lon="14.7432967"><ele>568.0</ele><time>2026-04-25T06:56:38.049Z</time></trkpt><trkpt lat="40.7397517" lon="14.7433783"><ele>568.0</ele><time>2026-04-25T06:56:39.026Z</time></trkpt><trkpt lat="40.7397933" lon="14.74346"><ele>568.0</ele><time>2026-04-25T06:56:40.027Z</time></trkpt><trkpt lat="40.7398383" lon="14.7435467"><ele>568.0</ele><time>2026-04-25T06:56:41.032Z</time></trkpt><trkpt lat="40.73988" lon="14.7436367"><ele>568.0</ele><time>2026-04-25T06:56:42.024Z</time></trkpt><trkpt lat="40.7399233" lon="14.743725"><ele>565.4</ele><time>2026-04-25T06:56:43.03Z</time></trkpt><trkpt lat="40.73997" lon="14.7438133"><ele>562.8</ele><time>2026-04-25T06:56:44.057Z</time></trkpt><trkpt lat="40.74002" lon="14.7439117"><ele>560.2</ele><time>2026-04-25T06:56:45.022Z</time></trkpt><trkpt lat="40.74007" lon="14.7440233"><ele>557.6</ele><time>2026-04-25T06:56:46.041Z</time></trkpt><trkpt lat="40.7401233" lon="14.7441483"><ele>555.0</ele><time>2026-04-25T06:56:47.027Z</time></trkpt><trkpt lat="40.7401817" lon="14.74428"><ele>558.5</ele><time>2026-04-25T06:56:48.023Z</time></trkpt><trkpt lat="40.7402483" lon="14.7444083"><ele>562.0</ele><time>2026-04-25T06:56:49.028Z</time></trkpt><trkpt lat="40.7403167" lon="14.7445283"><ele>565.5</ele><time>2026-04-25T06:56:50.054Z</time></trkpt><trkpt lat="40.740395" lon="14.7446367"><ele>569.0</ele><time>2026-04-25T06:56:51.027Z</time></trkpt><trkpt lat="40.7404733" lon="14.744735"><ele>569.0</ele><time>2026-04-25T06:56:52.027Z</time></trkpt><trkpt lat="40.7405417" lon="14.744835"><ele>569.0</ele><time>2026-04-25T06:56:53.038Z</time></trkpt><trkpt lat="40.740595" lon="14.7449467"><ele>569.0</ele><time>2026-04-25T06:56:54.026Z</time></trkpt><trkpt lat="40.7406467" lon="14.7450617"><ele>569.0</ele><time>2026-04-25T06:56:55.038Z</time></trkpt><trkpt lat="40.74068" lon="14.7451817"><ele>569.0</ele><time>2026-04-25T06:56:56.09Z</time></trkpt><trkpt lat="40.7407083" lon="14.745305"><ele>568.2</ele><time>2026-04-25T06:56:57.027Z</time></trkpt><trkpt lat="40.7407233" lon="14.74544"><ele>567.4</ele><time>2026-04-25T06:56:58.029Z</time></trkpt><trkpt lat="40.7407367" lon="14.7455667"><ele>566.6</ele><time>2026-04-25T06:56:59.036Z</time></trkpt><trkpt lat="40.7407667" lon="14.74568"><ele>565.8</ele><time>2026-04-25T06:57:00.029Z</time></trkpt><trkpt lat="40.7408" lon="14.7457917"><ele>565.0</ele><time>2026-04-25T06:57:01.04Z</time></trkpt><trkpt lat="40.7408333" lon="14.74589"><ele>565.0</ele><time>2026-04-25T06:57:02.033Z</time></trkpt><trkpt lat="40.7408683" lon="14.74596"><ele>565.0</ele><time>2026-04-25T06:57:03.033Z</time></trkpt><trkpt lat="40.7409417" lon="14.74609"><ele>565.0</ele><time>2026-04-25T06:57:05.035Z</time></trkpt><trkpt lat="40.7410183" lon="14.7461967"><ele>565.0</ele><time>2026-04-25T06:57:07.038Z</time></trkpt><trkpt lat="40.7410933" lon="14.7463"><ele>565.0</ele><time>2026-04-25T06:57:09.031Z</time></trkpt><trkpt lat="40.7411633" lon="14.74637"><ele>561.1666666666667</ele><time>2026-04-25T06:57:11.023Z</time></trkpt><trkpt lat="40.7412117" lon="14.74645"><ele>557.3333333333334</ele><time>2026-04-25T06:57:13.034Z</time></trkpt><trkpt lat="40.741255" lon="14.7465817"><ele>553.5</ele><time>2026-04-25T06:57:15.039Z</time></trkpt><trkpt lat="40.7412833" lon="14.7466833"><ele>549.6666666666666</ele><time>2026-04-25T06:57:16.035Z</time></trkpt><trkpt lat="40.7413233" lon="14.7467717"><ele>545.8333333333333</ele><time>2026-04-25T06:57:17.031Z</time></trkpt><trkpt lat="40.7413567" lon="14.7468517"><ele>542.0</ele><time>2026-04-25T06:57:18.034Z</time></trkpt><trkpt lat="40.7414" lon="14.7469217"><ele>536.8333333333333</ele><time>2026-04-25T06:57:19.03Z</time></trkpt><trkpt lat="40.7414483" lon="14.746985"><ele>531.6666666666666</ele><time>2026-04-25T06:57:20.047Z</time></trkpt><trkpt lat="40.74155" lon="14.7470783"><ele>526.5</ele><time>2026-04-25T06:57:22.026Z</time></trkpt><trkpt lat="40.7416333" lon="14.7471617"><ele>521.3333333333334</ele><time>2026-04-25T06:57:24.027Z</time></trkpt><trkpt lat="40.7417067" lon="14.747195"><ele>516.1666666666667</ele><time>2026-04-25T06:57:26.092Z</time></trkpt><trkpt lat="40.7417733" lon="14.747185"><ele>511.0</ele><time>2026-04-25T06:57:28.026Z</time></trkpt><trkpt lat="40.7418483" lon="14.747155"><ele>509.20000000000005</ele><time>2026-04-25T06:57:30.032Z</time></trkpt><trkpt lat="40.7419367" lon="14.7471583"><ele>507.40000000000003</ele><time>2026-04-25T06:57:32.037Z</time></trkpt><trkpt lat="40.7420317" lon="14.7472317"><ele>505.6</ele><time>2026-04-25T06:57:34.026Z</time></trkpt><trkpt lat="40.742135" lon="14.7472733"><ele>503.8</ele><time>2026-04-25T06:57:36.036Z</time></trkpt><trkpt lat="40.7422583" lon="14.7472933"><ele>502.0</ele><time>2026-04-25T06:57:38.054Z</time></trkpt><trkpt lat="40.7423567" lon="14.7473433"><ele>502.0</ele><time>2026-04-25T06:57:40.036Z</time></trkpt><trkpt lat="40.74246" lon="14.747405"><ele>502.00000000000006</ele><time>2026-04-25T06:57:42.031Z</time></trkpt><trkpt lat="40.74255" lon="14.7474483"><ele>502.00000000000006</ele><time>2026-04-25T06:57:44.059Z</time></trkpt><trkpt lat="40.7426433" lon="14.7474517"><ele>502.0</ele><time>2026-04-25T06:57:46.033Z</time></trkpt><trkpt lat="40.7427317" lon="14.7475017"><ele>502.0</ele><time>2026-04-25T06:57:48.033Z</time></trkpt><trkpt lat="40.742805" lon="14.7476283"><ele>503.8571428571428</ele><time>2026-04-25T06:57:50.051Z</time></trkpt><trkpt lat="40.7428417" lon="14.7477083"><ele>505.71428571428567</ele><time>2026-04-25T06:57:51.026Z</time></trkpt><trkpt lat="40.7428917" lon="14.7477733"><ele>507.57142857142856</ele><time>2026-04-25T06:57:52.027Z</time></trkpt><trkpt lat="40.7429317" lon="14.7478467"><ele>509.4285714285714</ele><time>2026-04-25T06:57:53.03Z</time></trkpt><trkpt lat="40.7429667" lon="14.7479233"><ele>511.2857142857142</ele><time>2026-04-25T06:57:54.03Z</time></trkpt><trkpt lat="40.743" lon="14.7480033"><ele>513.1428571428571</ele><time>2026-04-25T06:57:55.03Z</time></trkpt><trkpt lat="40.7430267" lon="14.74809"><ele>515.0</ele><time>2026-04-25T06:57:56.033Z</time></trkpt><trkpt lat="40.743045" lon="14.7482"><ele>509.8333333333333</ele><time>2026-04-25T06:57:57.032Z</time></trkpt><trkpt lat="40.7430667" lon="14.7483133"><ele>504.66666666666663</ele><time>2026-04-25T06:57:58.027Z</time></trkpt><trkpt lat="40.7430817" lon="14.74844"><ele>499.5</ele><time>2026-04-25T06:57:59.04Z</time></trkpt><trkpt lat="40.7431017" lon="14.74853"><ele>494.33333333333337</ele><time>2026-04-25T06:58:00.03Z</time></trkpt><trkpt lat="40.7431383" lon="14.7486067"><ele>489.1666666666667</ele><time>2026-04-25T06:58:01.033Z</time></trkpt><trkpt lat="40.7432317" lon="14.7487083"><ele>484.0</ele><time>2026-04-25T06:58:03.032Z</time></trkpt><trkpt lat="40.7433017" lon="14.748715"><ele>484.00000000000006</ele><time>2026-04-25T06:58:04.028Z</time></trkpt><trkpt lat="40.743415" lon="14.7486633"><ele>484.0</ele><time>2026-04-25T06:58:06.034Z</time></trkpt><trkpt lat="40.7434683" lon="14.7486017"><ele>484.0</ele><time>2026-04-25T06:58:07.03Z</time></trkpt><trkpt lat="40.7435417" lon="14.7485233"><ele>484.0</ele><time>2026-04-25T06:58:09.034Z</time></trkpt><trkpt lat="40.743605" lon="14.74848"><ele>484.00000000000006</ele><time>2026-04-25T06:58:11.041Z</time></trkpt><trkpt lat="40.743675" lon="14.7484483"><ele>484.0</ele><time>2026-04-25T06:58:13.043Z</time></trkpt><trkpt lat="40.7437483" lon="14.7485217"><ele>486.2</ele><time>2026-04-25T06:58:16.03Z</time></trkpt><trkpt lat="40.7438267" lon="14.74863"><ele>488.4</ele><time>2026-04-25T06:58:18.032Z</time></trkpt><trkpt lat="40.7439117" lon="14.748745"><ele>490.6</ele><time>2026-04-25T06:58:20.047Z</time></trkpt><trkpt lat="40.7439583" lon="14.74882"><ele>492.8</ele><time>2026-04-25T06:58:22.03Z</time></trkpt><trkpt lat="40.7439167" lon="14.748915"><ele>495.0</ele><time>2026-04-25T06:58:24.029Z</time></trkpt><trkpt lat="40.7438317" lon="14.74903"><ele>495.0</ele><time>2026-04-25T06:58:26.033Z</time></trkpt><trkpt lat="40.7437667" lon="14.74913"><ele>495.0</ele><time>2026-04-25T06:58:28.041Z</time></trkpt><trkpt lat="40.7437033" lon="14.7492133"><ele>495.0</ele><time>2026-04-25T06:58:30.03Z</time></trkpt><trkpt lat="40.7436333" lon="14.7492867"><ele>495.0</ele><time>2026-04-25T06:58:32.034Z</time></trkpt><trkpt lat="40.74357" lon="14.7493783"><ele>495.0</ele><time>2026-04-25T06:58:34.03Z</time></trkpt><trkpt lat="40.7435217" lon="14.749475"><ele>488.8</ele><time>2026-04-25T06:58:36.028Z</time></trkpt><trkpt lat="40.7434467" lon="14.7495733"><ele>482.6</ele><time>2026-04-25T06:58:38.059Z</time></trkpt><trkpt lat="40.7433583" lon="14.74965"><ele>476.4</ele><time>2026-04-25T06:58:40.027Z</time></trkpt><trkpt lat="40.7432733" lon="14.7497467"><ele>470.2</ele><time>2026-04-25T06:58:42.031Z</time></trkpt><trkpt lat="40.7431833" lon="14.7498317"><ele>464.0</ele><time>2026-04-25T06:58:44.05Z</time></trkpt><trkpt lat="40.7430967" lon="14.7499033"><ele>464.0</ele><time>2026-04-25T06:58:46.028Z</time></trkpt><trkpt lat="40.7430033" lon="14.7499483"><ele>464.0</ele><time>2026-04-25T06:58:48.032Z</time></trkpt><trkpt lat="40.742895" lon="14.7500017"><ele>464.0</ele><time>2026-04-25T06:58:50.048Z</time></trkpt><trkpt lat="40.74283" lon="14.750045"><ele>464.0</ele><time>2026-04-25T06:58:51.033Z</time></trkpt><trkpt lat="40.7427583" lon="14.7501"><ele>464.0</ele><time>2026-04-25T06:58:52.039Z</time></trkpt><trkpt lat="40.7426883" lon="14.7501617"><ele>458.8333333333333</ele><time>2026-04-25T06:58:53.034Z</time></trkpt><trkpt lat="40.7426083" lon="14.7502233"><ele>453.66666666666663</ele><time>2026-04-25T06:58:54.029Z</time></trkpt><trkpt lat="40.742535" lon="14.7502933"><ele>448.5</ele><time>2026-04-25T06:58:55.033Z</time></trkpt><trkpt lat="40.7424683" lon="14.7503417"><ele>443.33333333333337</ele><time>2026-04-25T06:58:56.034Z</time></trkpt><trkpt lat="40.7424117" lon="14.7503833"><ele>438.1666666666667</ele><time>2026-04-25T06:58:57.039Z</time></trkpt><trkpt lat="40.742335" lon="14.7504533"><ele>433.0</ele><time>2026-04-25T06:58:59.03Z</time></trkpt><trkpt lat="40.742405" lon="14.7503933"><ele>433.00000000000006</ele><time>2026-04-25T06:59:02.032Z</time></trkpt><trkpt lat="40.7424583" lon="14.750325"><ele>433.0</ele><time>2026-04-25T06:59:04.03Z</time></trkpt><trkpt lat="40.7425" lon="14.7502317"><ele>433.0</ele><time>2026-04-25T06:59:06.032Z</time></trkpt><trkpt lat="40.742525" lon="14.7501483"><ele>433.0</ele><time>2026-04-25T06:59:08.06Z</time></trkpt><trkpt lat="40.7424767" lon="14.7500617"><ele>433.00000000000006</ele><time>2026-04-25T06:59:11.033Z</time></trkpt><trkpt lat="40.7424067" lon="14.750045"><ele>433.0</ele><time>2026-04-25T06:59:13.036Z</time></trkpt><trkpt lat="40.7423367" lon="14.7500167"><ele>430.50000000000006</ele><time>2026-04-25T06:59:15.035Z</time></trkpt><trkpt lat="40.7422667" lon="14.74996"><ele>428.0</ele><time>2026-04-25T06:59:17.033Z</time></trkpt><trkpt lat="40.742225" lon="14.7498867"><ele>425.5</ele><time>2026-04-25T06:59:19.038Z</time></trkpt><trkpt lat="40.74217" lon="14.7498267"><ele>423.0</ele><time>2026-04-25T06:59:23.029Z</time></trkpt><trkpt lat="40.7421267" lon="14.7499167"><ele>420.50000000000006</ele><time>2026-04-25T06:59:27.037Z</time></trkpt><trkpt lat="40.7420867" lon="14.7500117"><ele>418.0</ele><time>2026-04-25T06:59:29.036Z</time></trkpt><trkpt lat="40.7420183" lon="14.75012"><ele>418.00000000000006</ele><time>2026-04-25T06:59:31.035Z</time></trkpt><trkpt lat="40.741915" lon="14.75017"><ele>418.0</ele><time>2026-04-25T06:59:33.038Z</time></trkpt><trkpt lat="40.7418333" lon="14.7501967"><ele>418.0</ele><time>2026-04-25T06:59:35.041Z</time></trkpt><trkpt lat="40.74177" lon="14.75021"><ele>418.0</ele><time>2026-04-25T06:59:37.038Z</time></trkpt><trkpt lat="40.7417467" lon="14.7503283"><ele>418.00000000000006</ele><time>2026-04-25T06:59:40.026Z</time></trkpt><trkpt lat="40.7416933" lon="14.750435"><ele>418.0</ele><time>2026-04-25T06:59:42.03Z</time></trkpt><trkpt lat="40.741605" lon="14.7505267"><ele>413.79999999999995</ele><time>2026-04-25T06:59:44.051Z</time></trkpt><trkpt lat="40.7415267" lon="14.7506267"><ele>409.6</ele><time>2026-04-25T06:59:46.035Z</time></trkpt><trkpt lat="40.7414567" lon="14.7507383"><ele>405.4</ele><time>2026-04-25T06:59:48.032Z</time></trkpt><trkpt lat="40.74138" lon="14.7508333"><ele>401.20000000000005</ele><time>2026-04-25T06:59:50.051Z</time></trkpt><trkpt lat="40.7413" lon="14.75093"><ele>397.0</ele><time>2026-04-25T06:59:52.037Z</time></trkpt><trkpt lat="40.741265" lon="14.751055"><ele>397.00000000000006</ele><time>2026-04-25T06:59:54.029Z</time></trkpt><trkpt lat="40.741215" lon="14.75116"><ele>397.0</ele><time>2026-04-25T06:59:56.094Z</time></trkpt><trkpt lat="40.74118" lon="14.7512733"><ele>397.0</ele><time>2026-04-25T06:59:58.032Z</time></trkpt><trkpt lat="40.7411533" lon="14.7513617"><ele>397.0</ele><time>2026-04-25T07:00:00.033Z</time></trkpt><trkpt lat="40.74115" lon="14.751475"><ele>397.00000000000006</ele><time>2026-04-25T07:00:03.034Z</time></trkpt><trkpt lat="40.7412317" lon="14.7514767"><ele>397.0</ele><time>2026-04-25T07:00:09.033Z</time></trkpt><trkpt lat="40.7411967" lon="14.7515683"><ele>397.00000000000006</ele><time>2026-04-25T07:00:14.056Z</time></trkpt><trkpt lat="40.7411433" lon="14.7516133"><ele>397.0</ele><time>2026-04-25T07:00:16.033Z</time></trkpt><trkpt lat="40.7410933" lon="14.7516833"><ele>397.0</ele><time>2026-04-25T07:00:18.026Z</time></trkpt><trkpt lat="40.7410533" lon="14.751795"><ele>397.0</ele><time>2026-04-25T07:00:20.05Z</time></trkpt><trkpt lat="40.740985" lon="14.75188"><ele>397.00000000000006</ele><time>2026-04-25T07:00:22.029Z</time></trkpt><trkpt lat="40.7409167" lon="14.7519617"><ele>397.0</ele><time>2026-04-25T07:00:24.033Z</time></trkpt><trkpt lat="40.7408367" lon="14.752035"><ele>390.00000000000006</ele><time>2026-04-25T07:00:26.032Z</time></trkpt><trkpt lat="40.7407567" lon="14.752135"><ele>383.0</ele><time>2026-04-25T07:00:28.028Z</time></trkpt><trkpt lat="40.740685" lon="14.7522183"><ele>376.0</ele><time>2026-04-25T07:00:30.031Z</time></trkpt><trkpt lat="40.7406167" lon="14.7522583"><ele>369.0</ele><time>2026-04-25T07:00:32.029Z</time></trkpt><trkpt lat="40.740545" lon="14.7522883"><ele>362.0</ele><time>2026-04-25T07:00:34.03Z</time></trkpt><trkpt lat="40.740475" lon="14.7523483"><ele>355.0</ele><time>2026-04-25T07:00:36.031Z</time></trkpt><trkpt lat="40.7404667" lon="14.7524517"><ele>355.0</ele><time>2026-04-25T07:00:38.054Z</time></trkpt><trkpt lat="40.740435" lon="14.7525417"><ele>355.0</ele><time>2026-04-25T07:00:40.029Z</time></trkpt><trkpt lat="40.7404317" lon="14.752655"><ele>355.0</ele><time>2026-04-25T07:00:43.035Z</time></trkpt><trkpt lat="40.7404817" lon="14.752725"><ele>355.0</ele><time>2026-04-25T07:00:45.033Z</time></trkpt><trkpt lat="40.7405183" lon="14.7528117"><ele>355.0</ele><time>2026-04-25T07:00:47.039Z</time></trkpt><trkpt lat="40.740525" lon="14.7529367"><ele>355.0</ele><time>2026-04-25T07:00:49.032Z</time></trkpt><trkpt lat="40.7405067" lon="14.7530683"><ele>354.42857142857144</ele><time>2026-04-25T07:00:51.035Z</time></trkpt><trkpt lat="40.740455" lon="14.75317"><ele>353.8571428571429</ele><time>2026-04-25T07:00:53.039Z</time></trkpt><trkpt lat="40.740405" lon="14.7532233"><ele>353.28571428571433</ele><time>2026-04-25T07:00:54.031Z</time></trkpt><trkpt lat="40.740345" lon="14.753285"><ele>352.7142857142857</ele><time>2026-04-25T07:00:55.042Z</time></trkpt><trkpt lat="40.7402967" lon="14.7533467"><ele>352.14285714285717</ele><time>2026-04-25T07:00:56.097Z</time></trkpt><trkpt lat="40.7402417" lon="14.7534033"><ele>351.5714285714286</ele><time>2026-04-25T07:00:57.036Z</time></trkpt><trkpt lat="40.740185" lon="14.7534483"><ele>351.0</ele><time>2026-04-25T07:00:58.031Z</time></trkpt><trkpt lat="40.7401367" lon="14.7535533"><ele>344.1666666666667</ele><time>2026-04-25T07:01:00.034Z</time></trkpt><trkpt lat="40.7401017" lon="14.7536533"><ele>337.3333333333333</ele><time>2026-04-25T07:01:02.052Z</time></trkpt><trkpt lat="40.7400517" lon="14.7537733"><ele>330.5</ele><time>2026-04-25T07:01:04.037Z</time></trkpt><trkpt lat="40.739975" lon="14.7539083"><ele>323.66666666666663</ele><time>2026-04-25T07:01:06.039Z</time></trkpt><trkpt lat="40.739925" lon="14.7539717"><ele>316.8333333333333</ele><time>2026-04-25T07:01:07.034Z</time></trkpt><trkpt lat="40.73988" lon="14.7540317"><ele>310.0</ele><time>2026-04-25T07:01:08.05Z</time></trkpt><trkpt lat="40.7398333" lon="14.7540933"><ele>310.0</ele><time>2026-04-25T07:01:09.037Z</time></trkpt><trkpt lat="40.739755" lon="14.7541983"><ele>310.0</ele><time>2026-04-25T07:01:11.035Z</time></trkpt><trkpt lat="40.739665" lon="14.7542083"><ele>310.0</ele><time>2026-04-25T07:01:13.037Z</time></trkpt><trkpt lat="40.739595" lon="14.754295"><ele>310.0</ele><time>2026-04-25T07:01:16.031Z</time></trkpt><trkpt lat="40.7395283" lon="14.7543933"><ele>310.0</ele><time>2026-04-25T07:01:19.026Z</time></trkpt><trkpt lat="40.73947" lon="14.7545767"><ele>309.6</ele><time>2026-04-25T07:01:21.036Z</time></trkpt><trkpt lat="40.7394317" lon="14.7546783"><ele>309.2</ele><time>2026-04-25T07:01:22.035Z</time></trkpt><trkpt lat="40.7393767" lon="14.75481"><ele>308.8</ele><time>2026-04-25T07:01:23.034Z</time></trkpt><trkpt lat="40.7393167" lon="14.7549517"><ele>308.4</ele><time>2026-04-25T07:01:24.031Z</time></trkpt><trkpt lat="40.7392517" lon="14.75508"><ele>308.0</ele><time>2026-04-25T07:01:25.036Z</time></trkpt><trkpt lat="40.739185" lon="14.7551883"><ele>302.0</ele><time>2026-04-25T07:01:26.094Z</time></trkpt><trkpt lat="40.7391283" lon="14.755315"><ele>296.0</ele><time>2026-04-25T07:01:27.033Z</time></trkpt><trkpt lat="40.739075" lon="14.755445"><ele>290.0</ele><time>2026-04-25T07:01:28.03Z</time></trkpt><trkpt lat="40.7390317" lon="14.7555733"><ele>284.0</ele><time>2026-04-25T07:01:29.03Z</time></trkpt><trkpt lat="40.738995" lon="14.7556967"><ele>278.0</ele><time>2026-04-25T07:01:30.032Z</time></trkpt><trkpt lat="40.7389683" lon="14.7558133"><ele>278.0</ele><time>2026-04-25T07:01:31.039Z</time></trkpt><trkpt lat="40.73894" lon="14.755925"><ele>278.0</ele><time>2026-04-25T07:01:32.03Z</time></trkpt><trkpt lat="40.7389067" lon="14.75603"><ele>278.0</ele><time>2026-04-25T07:01:33.037Z</time></trkpt><trkpt lat="40.7388583" lon="14.7561267"><ele>278.0</ele><time>2026-04-25T07:01:34.037Z</time></trkpt><trkpt lat="40.738815" lon="14.7562133"><ele>278.0</ele><time>2026-04-25T07:01:35.033Z</time></trkpt><trkpt lat="40.738775" lon="14.756295"><ele>278.0</ele><time>2026-04-25T07:01:36.038Z</time></trkpt><trkpt lat="40.7387417" lon="14.7563833"><ele>276.33333333333337</ele><time>2026-04-25T07:01:37.028Z</time></trkpt><trkpt lat="40.7387167" lon="14.7564817"><ele>274.6666666666667</ele><time>2026-04-25T07:01:38.055Z</time></trkpt><trkpt lat="40.7387017" lon="14.7565767"><ele>273.0</ele><time>2026-04-25T07:01:39.036Z</time></trkpt><trkpt lat="40.7387433" lon="14.756655"><ele>271.3333333333333</ele><time>2026-04-25T07:01:40.03Z</time></trkpt><trkpt lat="40.738795" lon="14.756735"><ele>269.66666666666663</ele><time>2026-04-25T07:01:41.039Z</time></trkpt><trkpt lat="40.7388383" lon="14.756835"><ele>268.0</ele><time>2026-04-25T07:01:42.03Z</time></trkpt><trkpt lat="40.7388917" lon="14.7569283"><ele>266.4</ele><time>2026-04-25T07:01:43.04Z</time></trkpt><trkpt lat="40.738965" lon="14.75703"><ele>264.8</ele><time>2026-04-25T07:01:44.051Z</time></trkpt><trkpt lat="40.739045" lon="14.7571283"><ele>263.2</ele><time>2026-04-25T07:01:45.03Z</time></trkpt><trkpt lat="40.7391317" lon="14.7572083"><ele>261.6</ele><time>2026-04-25T07:01:46.029Z</time></trkpt><trkpt lat="40.7392183" lon="14.7572767"><ele>260.0</ele><time>2026-04-25T07:01:47.036Z</time></trkpt><trkpt lat="40.7393067" lon="14.7573333"><ele>260.4</ele><time>2026-04-25T07:01:48.026Z</time></trkpt><trkpt lat="40.739385" lon="14.7573917"><ele>260.8</ele><time>2026-04-25T07:01:49.034Z</time></trkpt><trkpt lat="40.739455" lon="14.75744"><ele>261.2</ele><time>2026-04-25T07:01:50.063Z</time></trkpt><trkpt lat="40.7395483" lon="14.7575333"><ele>261.6</ele><time>2026-04-25T07:01:52.029Z</time></trkpt><trkpt lat="40.7395933" lon="14.75761"><ele>262.0</ele><time>2026-04-25T07:01:53.036Z</time></trkpt><trkpt lat="40.7396667" lon="14.7577167"><ele>260.8</ele><time>2026-04-25T07:01:55.035Z</time></trkpt><trkpt lat="40.7397117" lon="14.7577783"><ele>259.6</ele><time>2026-04-25T07:01:57.039Z</time></trkpt><trkpt lat="40.7397933" lon="14.757795"><ele>258.40000000000003</ele><time>2026-04-25T07:07:02.058Z</time></trkpt><trkpt lat="40.7398883" lon="14.757885"><ele>257.2</ele><time>2026-04-25T07:07:04.027Z</time></trkpt><trkpt lat="40.7399867" lon="14.7579633"><ele>256.0</ele><time>2026-04-25T07:07:06.029Z</time></trkpt><trkpt lat="40.7401017" lon="14.7580083"><ele>256.5</ele><time>2026-04-25T07:07:08.053Z</time></trkpt><trkpt lat="40.7402167" lon="14.758065"><ele>257.0</ele><time>2026-04-25T07:07:10.03Z</time></trkpt><trkpt lat="40.740275" lon="14.7581083"><ele>257.5</ele><time>2026-04-25T07:07:11.038Z</time></trkpt><trkpt lat="40.7403183" lon="14.758205"><ele>258.0</ele><time>2026-04-25T07:07:12.038Z</time></trkpt><trkpt lat="40.7403617" lon="14.7582967"><ele>258.5</ele><time>2026-04-25T07:07:13.034Z</time></trkpt><trkpt lat="40.7404067" lon="14.758385"><ele>259.0</ele><time>2026-04-25T07:07:14.051Z</time></trkpt><trkpt lat="40.7404533" lon="14.7584783"><ele>257.8333333333333</ele><time>2026-04-25T07:07:15.043Z</time></trkpt><trkpt lat="40.7405067" lon="14.7585533"><ele>256.66666666666663</ele><time>2026-04-25T07:07:16.028Z</time></trkpt><trkpt lat="40.740555" lon="14.7586333"><ele>255.5</ele><time>2026-04-25T07:07:17.036Z</time></trkpt><trkpt lat="40.7406133" lon="14.7586983"><ele>254.33333333333331</ele><time>2026-04-25T07:07:18.036Z</time></trkpt><trkpt lat="40.7406783" lon="14.7587683"><ele>253.16666666666666</ele><time>2026-04-25T07:07:19.032Z</time></trkpt><trkpt lat="40.7407417" lon="14.75885"><ele>252.0</ele><time>2026-04-25T07:07:20.047Z</time></trkpt><trkpt lat="40.74081" lon="14.7589317"><ele>252.0</ele><time>2026-04-25T07:07:21.037Z</time></trkpt><trkpt lat="40.740865" lon="14.7590217"><ele>252.0</ele><time>2026-04-25T07:07:22.034Z</time></trkpt><trkpt lat="40.7409167" lon="14.7590967"><ele>252.0</ele><time>2026-04-25T07:07:23.035Z</time></trkpt><trkpt lat="40.740965" lon="14.7591783"><ele>252.0</ele><time>2026-04-25T07:07:24.034Z</time></trkpt><trkpt lat="40.74101" lon="14.7592783"><ele>252.0</ele><time>2026-04-25T07:07:25.035Z</time></trkpt><trkpt lat="40.7410533" lon="14.7593667"><ele>252.0</ele><time>2026-04-25T07:07:26.092Z</time></trkpt><trkpt lat="40.74109" lon="14.7594617"><ele>250.6</ele><time>2026-04-25T07:07:27.028Z</time></trkpt><trkpt lat="40.74113" lon="14.7595583"><ele>249.2</ele><time>2026-04-25T07:07:28.032Z</time></trkpt><trkpt lat="40.74117" lon="14.7596633"><ele>247.8</ele><time>2026-04-25T07:07:29.039Z</time></trkpt><trkpt lat="40.7412417" lon="14.7597883"><ele>246.4</ele><time>2026-04-25T07:07:30.024Z</time></trkpt><trkpt lat="40.7413117" lon="14.7599167"><ele>245.0</ele><time>2026-04-25T07:07:31.033Z</time></trkpt><trkpt lat="40.7413583" lon="14.760045"><ele>245.0</ele><time>2026-04-25T07:07:32.059Z</time></trkpt><trkpt lat="40.74138" lon="14.7601667"><ele>245.0</ele><time>2026-04-25T07:07:33.031Z</time></trkpt><trkpt lat="40.7413617" lon="14.7603533"><ele>245.0</ele><time>2026-04-25T07:07:34.034Z</time></trkpt><trkpt lat="40.74135" lon="14.7605183"><ele>245.0</ele><time>2026-04-25T07:07:35.036Z</time></trkpt><trkpt lat="40.741335" lon="14.7606733"><ele>243.0</ele><time>2026-04-25T07:07:36.029Z</time></trkpt><trkpt lat="40.741325" lon="14.7608467"><ele>241.0</ele><time>2026-04-25T07:07:37.025Z</time></trkpt><trkpt lat="40.7412967" lon="14.7610133"><ele>239.0</ele><time>2026-04-25T07:07:38.063Z</time></trkpt><trkpt lat="40.7412583" lon="14.761165"><ele>237.0</ele><time>2026-04-25T07:07:39.029Z</time></trkpt><trkpt lat="40.7412467" lon="14.7613033"><ele>236.2</ele><time>2026-04-25T07:07:40.028Z</time></trkpt><trkpt lat="40.74125" lon="14.76145"><ele>235.39999999999998</ele><time>2026-04-25T07:07:41.039Z</time></trkpt><trkpt lat="40.741255" lon="14.7616"><ele>234.60000000000002</ele><time>2026-04-25T07:07:42.03Z</time></trkpt><trkpt lat="40.7412533" lon="14.7617317"><ele>233.8</ele><time>2026-04-25T07:07:43.042Z</time></trkpt><trkpt lat="40.7412483" lon="14.76185"><ele>233.0</ele><time>2026-04-25T07:07:44.053Z</time></trkpt><trkpt lat="40.741235" lon="14.7619783"><ele>232.60000000000002</ele><time>2026-04-25T07:07:45.032Z</time></trkpt><trkpt lat="40.7411817" lon="14.76208"><ele>232.20000000000002</ele><time>2026-04-25T07:07:46.027Z</time></trkpt><trkpt lat="40.7411233" lon="14.7621717"><ele>231.8</ele><time>2026-04-25T07:07:47.036Z</time></trkpt><trkpt lat="40.7410367" lon="14.7622417"><ele>231.4</ele><time>2026-04-25T07:07:48.031Z</time></trkpt><trkpt lat="40.7409517" lon="14.7623133"><ele>231.0</ele><time>2026-04-25T07:07:49.04Z</time></trkpt><trkpt lat="40.7408417" lon="14.7623917"><ele>230.0</ele><time>2026-04-25T07:07:50.054Z</time></trkpt><trkpt lat="40.7407483" lon="14.7624717"><ele>229.00000000000003</ele><time>2026-04-25T07:07:51.037Z</time></trkpt><trkpt lat="40.7406617" lon="14.7625483"><ele>228.00000000000003</ele><time>2026-04-25T07:07:52.032Z</time></trkpt><trkpt lat="40.7405717" lon="14.762605"><ele>227.0</ele><time>2026-04-25T07:07:53.035Z</time></trkpt><trkpt lat="40.7404883" lon="14.7626583"><ele>226.0</ele><time>2026-04-25T07:07:54.032Z</time></trkpt><trkpt lat="40.7403883" lon="14.7627433"><ele>225.20000000000002</ele><time>2026-04-25T07:07:55.035Z</time></trkpt><trkpt lat="40.74032" lon="14.7628317"><ele>224.40000000000003</ele><time>2026-04-25T07:07:56.093Z</time></trkpt><trkpt lat="40.7402583" lon="14.7629333"><ele>223.6</ele><time>2026-04-25T07:07:57.023Z</time></trkpt><trkpt lat="40.74019" lon="14.7630567"><ele>222.8</ele><time>2026-04-25T07:07:58.034Z</time></trkpt><trkpt lat="40.7401367" lon="14.7631983"><ele>222.0</ele><time>2026-04-25T07:07:59.037Z</time></trkpt><trkpt lat="40.7401083" lon="14.7633517"><ele>221.33333333333334</ele><time>2026-04-25T07:08:00.037Z</time></trkpt><trkpt lat="40.74009" lon="14.763495"><ele>220.66666666666669</ele><time>2026-04-25T07:08:01.037Z</time></trkpt><trkpt lat="40.740065" lon="14.76362"><ele>220.0</ele><time>2026-04-25T07:08:02.03Z</time></trkpt><trkpt lat="40.7400517" lon="14.7637317"><ele>219.33333333333334</ele><time>2026-04-25T07:08:03.031Z</time></trkpt><trkpt lat="40.74004" lon="14.763825"><ele>218.66666666666669</ele><time>2026-04-25T07:08:04.03Z</time></trkpt><trkpt lat="40.74002" lon="14.76391"><ele>218.0</ele><time>2026-04-25T07:08:05.032Z</time></trkpt><trkpt lat="40.7399933" lon="14.7639883"><ele>217.66666666666669</ele><time>2026-04-25T07:08:06.031Z</time></trkpt><trkpt lat="40.7399667" lon="14.76409"><ele>217.33333333333334</ele><time>2026-04-25T07:08:08.053Z</time></trkpt><trkpt lat="40.740015" lon="14.7641917"><ele>217.0</ele><time>2026-04-25T07:08:11.036Z</time></trkpt><trkpt lat="40.7400683" lon="14.7642417"><ele>216.66666666666669</ele><time>2026-04-25T07:08:12.027Z</time></trkpt><trkpt lat="40.7401567" lon="14.7642983"><ele>216.33333333333334</ele><time>2026-04-25T07:08:13.033Z</time></trkpt><trkpt lat="40.740235" lon="14.7643567"><ele>216.0</ele><time>2026-04-25T07:08:14.049Z</time></trkpt><trkpt lat="40.740335" lon="14.7644317"><ele>214.5</ele><time>2026-04-25T07:08:15.038Z</time></trkpt><trkpt lat="40.7404583" lon="14.764495"><ele>213.0</ele><time>2026-04-25T07:08:16.028Z</time></trkpt><trkpt lat="40.74056" lon="14.764565"><ele>211.5</ele><time>2026-04-25T07:08:17.036Z</time></trkpt><trkpt lat="40.7406733" lon="14.764615"><ele>210.0</ele><time>2026-04-25T07:08:18.028Z</time></trkpt><trkpt lat="40.740805" lon="14.764665"><ele>210.0</ele><time>2026-04-25T07:08:19.029Z</time></trkpt><trkpt lat="40.7409233" lon="14.7647067"><ele>210.0</ele><time>2026-04-25T07:08:20.053Z</time></trkpt><trkpt lat="40.7410317" lon="14.7647433"><ele>210.0</ele><time>2026-04-25T07:08:21.029Z</time></trkpt><trkpt lat="40.7411283" lon="14.7647783"><ele>210.0</ele><time>2026-04-25T07:08:22.031Z</time></trkpt><trkpt lat="40.7412083" lon="14.7648317"><ele>210.0</ele><time>2026-04-25T07:08:23.037Z</time></trkpt><trkpt lat="40.7412617" lon="14.7649033"><ele>210.5</ele><time>2026-04-25T07:08:24.031Z</time></trkpt><trkpt lat="40.7413" lon="14.7649933"><ele>211.0</ele><time>2026-04-25T07:08:25.035Z</time></trkpt><trkpt lat="40.7413383" lon="14.765085"><ele>211.5</ele><time>2026-04-25T07:08:26.036Z</time></trkpt><trkpt lat="40.741375" lon="14.765175"><ele>212.0</ele><time>2026-04-25T07:08:27.027Z</time></trkpt><trkpt lat="40.7414117" lon="14.7652683"><ele>212.5</ele><time>2026-04-25T07:08:28.034Z</time></trkpt><trkpt lat="40.7414533" lon="14.7653567"><ele>213.0</ele><time>2026-04-25T07:08:29.03Z</time></trkpt><trkpt lat="40.7414917" lon="14.7654417"><ele>211.60000000000002</ele><time>2026-04-25T07:08:30.037Z</time></trkpt><trkpt lat="40.741525" lon="14.7655183"><ele>210.20000000000002</ele><time>2026-04-25T07:08:31.037Z</time></trkpt><trkpt lat="40.741575" lon="14.7656683"><ele>208.8</ele><time>2026-04-25T07:08:33.029Z</time></trkpt><trkpt lat="40.74162" lon="14.76579"><ele>207.4</ele><time>2026-04-25T07:08:35.032Z</time></trkpt><trkpt lat="40.741685" lon="14.7658467"><ele>206.0</ele><time>2026-04-25T07:08:37.037Z</time></trkpt><trkpt lat="40.7417833" lon="14.7658683"><ele>206.0</ele><time>2026-04-25T07:08:39.033Z</time></trkpt><trkpt lat="40.741845" lon="14.7658917"><ele>206.0</ele><time>2026-04-25T07:08:40.025Z</time></trkpt><trkpt lat="40.7419133" lon="14.7659383"><ele>206.0</ele><time>2026-04-25T07:08:41.032Z</time></trkpt><trkpt lat="40.741985" lon="14.7660033"><ele>206.0</ele><time>2026-04-25T07:08:42.029Z</time></trkpt><trkpt lat="40.7420817" lon="14.7660717"><ele>206.0</ele><time>2026-04-25T07:08:43.032Z</time></trkpt><trkpt lat="40.7421967" lon="14.7661633"><ele>204.33333333333334</ele><time>2026-04-25T07:08:44.054Z</time></trkpt><trkpt lat="40.7423167" lon="14.7662717"><ele>202.66666666666669</ele><time>2026-04-25T07:08:45.03Z</time></trkpt><trkpt lat="40.7424483" lon="14.7663817"><ele>201.0</ele><time>2026-04-25T07:08:46.038Z</time></trkpt><trkpt lat="40.742575" lon="14.766485"><ele>201.0</ele><time>2026-04-25T07:08:47.034Z</time></trkpt><trkpt lat="40.7427" lon="14.7665917"><ele>201.0</ele><time>2026-04-25T07:08:48.027Z</time></trkpt><trkpt lat="40.7428167" lon="14.7666833"><ele>201.0</ele><time>2026-04-25T07:08:49.033Z</time></trkpt><trkpt lat="40.742925" lon="14.766765"><ele>201.0</ele><time>2026-04-25T07:08:50.053Z</time></trkpt><trkpt lat="40.7430283" lon="14.7668367"><ele>201.0</ele><time>2026-04-25T07:08:51.033Z</time></trkpt><trkpt lat="40.7431267" lon="14.7669083"><ele>201.0</ele><time>2026-04-25T07:08:52.034Z</time></trkpt><trkpt lat="40.7432267" lon="14.766975"><ele>201.0</ele><time>2026-04-25T07:08:53.036Z</time></trkpt><trkpt lat="40.7433233" lon="14.7670433"><ele>201.0</ele><time>2026-04-25T07:08:54.028Z</time></trkpt><trkpt lat="40.7434233" lon="14.76711"><ele>201.0</ele><time>2026-04-25T07:08:55.034Z</time></trkpt><trkpt lat="40.7435183" lon="14.7671917"><ele>201.0</ele><time>2026-04-25T07:08:56.096Z</time></trkpt><trkpt lat="40.7436133" lon="14.76726"><ele>201.0</ele><time>2026-04-25T07:08:57.032Z</time></trkpt><trkpt lat="40.7436933" lon="14.7673567"><ele>201.0</ele><time>2026-04-25T07:08:58.033Z</time></trkpt><trkpt lat="40.7437833" lon="14.76744"><ele>201.0</ele><time>2026-04-25T07:08:59.032Z</time></trkpt><trkpt lat="40.743875" lon="14.7675083"><ele>201.0</ele><time>2026-04-25T07:09:00.036Z</time></trkpt><trkpt lat="40.7439783" lon="14.7675717"><ele>201.0</ele><time>2026-04-25T07:09:01.028Z</time></trkpt><trkpt lat="40.7440867" lon="14.7676417"><ele>201.0</ele><time>2026-04-25T07:09:02.044Z</time></trkpt><trkpt lat="40.7442033" lon="14.7676967"><ele>201.0</ele><time>2026-04-25T07:09:03.023Z</time></trkpt><trkpt lat="40.7443067" lon="14.7677867"><ele>201.0</ele><time>2026-04-25T07:09:04.032Z</time></trkpt><trkpt lat="40.7444133" lon="14.7678733"><ele>200.25</ele><time>2026-04-25T07:09:05.031Z</time></trkpt><trkpt lat="40.7445317" lon="14.7679333"><ele>199.5</ele><time>2026-04-25T07:09:06.031Z</time></trkpt><trkpt lat="40.7446433" lon="14.7679933"><ele>198.75</ele><time>2026-04-25T07:09:07.036Z</time></trkpt><trkpt lat="40.7447483" lon="14.7680433"><ele>198.0</ele><time>2026-04-25T07:09:08.055Z</time></trkpt><trkpt lat="40.7448583" lon="14.7680717"><ele>198.0</ele><time>2026-04-25T07:09:09.024Z</time></trkpt><trkpt lat="40.7449617" lon="14.7680883"><ele>198.0</ele><time>2026-04-25T07:09:10.037Z</time></trkpt><trkpt lat="40.745045" lon="14.7681117"><ele>198.0</ele><time>2026-04-25T07:09:11.035Z</time></trkpt><trkpt lat="40.74512" lon="14.7681317"><ele>198.0</ele><time>2026-04-25T07:09:12.036Z</time></trkpt><trkpt lat="40.745195" lon="14.7681467"><ele>198.0</ele><time>2026-04-25T07:09:13.036Z</time></trkpt><trkpt lat="40.7452717" lon="14.7681567"><ele>198.0</ele><time>2026-04-25T07:09:14.054Z</time></trkpt><trkpt lat="40.745345" lon="14.7681717"><ele>198.14285714285714</ele><time>2026-04-25T07:09:15.033Z</time></trkpt><trkpt lat="40.7454083" lon="14.76819"><ele>198.28571428571428</ele><time>2026-04-25T07:09:16.037Z</time></trkpt><trkpt lat="40.7454717" lon="14.76821"><ele>198.42857142857142</ele><time>2026-04-25T07:09:17.033Z</time></trkpt><trkpt lat="40.7455367" lon="14.7682183"><ele>198.57142857142856</ele><time>2026-04-25T07:09:18.032Z</time></trkpt><trkpt lat="40.7456" lon="14.768245"><ele>198.71428571428572</ele><time>2026-04-25T07:09:19.026Z</time></trkpt><trkpt lat="40.7456667" lon="14.7682867"><ele>198.85714285714283</ele><time>2026-04-25T07:09:20.058Z</time></trkpt><trkpt lat="40.74574" lon="14.76835"><ele>199.0</ele><time>2026-04-25T07:09:21.03Z</time></trkpt><trkpt lat="40.7458167" lon="14.7684217"><ele>198.99999999999997</ele><time>2026-04-25T07:09:22.028Z</time></trkpt><trkpt lat="40.7458933" lon="14.7684883"><ele>199.0</ele><time>2026-04-25T07:09:23.034Z</time></trkpt><trkpt lat="40.7459633" lon="14.7685617"><ele>199.0</ele><time>2026-04-25T07:09:24.028Z</time></trkpt><trkpt lat="40.7460283" lon="14.76862"><ele>199.0</ele><time>2026-04-25T07:09:25.034Z</time></trkpt><trkpt lat="40.74608" lon="14.7686783"><ele>198.99999999999997</ele><time>2026-04-25T07:09:26.09Z</time></trkpt><trkpt lat="40.7461267" lon="14.7687583"><ele>199.0</ele><time>2026-04-25T07:09:27.028Z</time></trkpt><trkpt lat="40.7461667" lon="14.7688267"><ele>198.79999999999998</ele><time>2026-04-25T07:09:28.032Z</time></trkpt><trkpt lat="40.7462183" lon="14.7688767"><ele>198.6</ele><time>2026-04-25T07:09:29.037Z</time></trkpt><trkpt lat="40.7462667" lon="14.7689317"><ele>198.4</ele><time>2026-04-25T07:09:30.037Z</time></trkpt><trkpt lat="40.7463383" lon="14.7690383"><ele>198.2</ele><time>2026-04-25T07:09:32.025Z</time></trkpt><trkpt lat="40.7463683" lon="14.7691967"><ele>198.0</ele><time>2026-04-25T07:09:34.021Z</time></trkpt><trkpt lat="40.7463633" lon="14.76932"><ele>197.5</ele><time>2026-04-25T07:09:35.023Z</time></trkpt><trkpt lat="40.7463533" lon="14.769475"><ele>197.0</ele><time>2026-04-25T07:09:36.037Z</time></trkpt><trkpt lat="40.7463367" lon="14.7696317"><ele>196.5</ele><time>2026-04-25T07:09:37.034Z</time></trkpt><trkpt lat="40.746325" lon="14.76978"><ele>196.0</ele><time>2026-04-25T07:09:38.047Z</time></trkpt><trkpt lat="40.746315" lon="14.76992"><ele>196.0</ele><time>2026-04-25T07:09:39.029Z</time></trkpt><trkpt lat="40.7462967" lon="14.77006"><ele>196.0</ele><time>2026-04-25T07:09:40.032Z</time></trkpt><trkpt lat="40.7462783" lon="14.7701833"><ele>196.0</ele><time>2026-04-25T07:09:41.031Z</time></trkpt><trkpt lat="40.7462033" lon="14.7702883"><ele>196.0</ele><time>2026-04-25T07:09:42.038Z</time></trkpt><trkpt lat="40.7461817" lon="14.7703867"><ele>196.0</ele><time>2026-04-25T07:09:43.034Z</time></trkpt><trkpt lat="40.746195" lon="14.77047"><ele>195.75</ele><time>2026-04-25T07:09:45.032Z</time></trkpt><trkpt lat="40.7461233" lon="14.7705383"><ele>195.5</ele><time>2026-04-25T07:09:47.034Z</time></trkpt><trkpt lat="40.7460033" lon="14.7705567"><ele>195.25</ele><time>2026-04-25T07:09:49.034Z</time></trkpt><trkpt lat="40.74588" lon="14.7705517"><ele>195.0</ele><time>2026-04-25T07:09:50.049Z</time></trkpt><trkpt lat="40.7457483" lon="14.7705617"><ele>195.0</ele><time>2026-04-25T07:09:51.032Z</time></trkpt><trkpt lat="40.7455917" lon="14.7705733"><ele>195.0</ele><time>2026-04-25T07:09:52.031Z</time></trkpt><trkpt lat="40.7454217" lon="14.770605"><ele>195.0</ele><time>2026-04-25T07:09:53.037Z</time></trkpt><trkpt lat="40.7452583" lon="14.77063"><ele>194.5</ele><time>2026-04-25T07:09:54.035Z</time></trkpt><trkpt lat="40.745115" lon="14.7706467"><ele>194.0</ele><time>2026-04-25T07:09:55.033Z</time></trkpt><trkpt lat="40.7449967" lon="14.770655"><ele>193.5</ele><time>2026-04-25T07:09:56.092Z</time></trkpt><trkpt lat="40.74489" lon="14.7706717"><ele>193.0</ele><time>2026-04-25T07:09:57.028Z</time></trkpt><trkpt lat="40.7447917" lon="14.7706967"><ele>193.0</ele><time>2026-04-25T07:09:58.025Z</time></trkpt><trkpt lat="40.744715" lon="14.77071"><ele>193.0</ele><time>2026-04-25T07:09:59.034Z</time></trkpt><trkpt lat="40.7446517" lon="14.77075"><ele>193.0</ele><time>2026-04-25T07:10:00.031Z</time></trkpt><trkpt lat="40.7445383" lon="14.7707783"><ele>193.0</ele><time>2026-04-25T07:10:02.029Z</time></trkpt><trkpt lat="40.74442" lon="14.770805"><ele>193.0</ele><time>2026-04-25T07:10:04.03Z</time></trkpt><trkpt lat="40.7443533" lon="14.7708233"><ele>193.16666666666666</ele><time>2026-04-25T07:10:05.036Z</time></trkpt><trkpt lat="40.7442867" lon="14.7708383"><ele>193.33333333333331</ele><time>2026-04-25T07:10:06.022Z</time></trkpt><trkpt lat="40.7441867" lon="14.7708583"><ele>193.5</ele><time>2026-04-25T07:10:08.054Z</time></trkpt><trkpt lat="40.7441183" lon="14.7709183"><ele>193.66666666666669</ele><time>2026-04-25T07:10:10.025Z</time></trkpt><trkpt lat="40.7440983" lon="14.771055"><ele>193.83333333333334</ele><time>2026-04-25T07:10:12.023Z</time></trkpt><trkpt lat="40.7441233" lon="14.7711633"><ele>194.0</ele><time>2026-04-25T07:10:13.037Z</time></trkpt><trkpt lat="40.74415" lon="14.7712833"><ele>192.0</ele><time>2026-04-25T07:10:14.052Z</time></trkpt><trkpt lat="40.7441883" lon="14.7714467"><ele>190.0</ele><time>2026-04-25T07:10:15.03Z</time></trkpt><trkpt lat="40.74427" lon="14.7716683"><ele>188.0</ele><time>2026-04-25T07:10:16.03Z</time></trkpt><trkpt lat="40.7443167" lon="14.77185"><ele>187.25</ele><time>2026-04-25T07:10:17.043Z</time></trkpt><trkpt lat="40.7443717" lon="14.772035"><ele>186.5</ele><time>2026-04-25T07:10:18.024Z</time></trkpt><trkpt lat="40.7444267" lon="14.7721883"><ele>185.75</ele><time>2026-04-25T07:10:19.037Z</time></trkpt><trkpt lat="40.7444717" lon="14.7723167"><ele>185.0</ele><time>2026-04-25T07:10:20.051Z</time></trkpt><trkpt lat="40.74451" lon="14.7724383"><ele>185.0</ele><time>2026-04-25T07:10:21.031Z</time></trkpt><trkpt lat="40.7445483" lon="14.772545"><ele>185.0</ele><time>2026-04-25T07:10:22.031Z</time></trkpt><trkpt lat="40.7445933" lon="14.772655"><ele>185.0</ele><time>2026-04-25T07:10:23.032Z</time></trkpt><trkpt lat="40.744645" lon="14.7727733"><ele>185.0</ele><time>2026-04-25T07:10:24.027Z</time></trkpt><trkpt lat="40.7446967" lon="14.7728867"><ele>185.0</ele><time>2026-04-25T07:10:25.032Z</time></trkpt><trkpt lat="40.744745" lon="14.7730033"><ele>185.0</ele><time>2026-04-25T07:10:26.032Z</time></trkpt><trkpt lat="40.7447817" lon="14.77311"><ele>185.0</ele><time>2026-04-25T07:10:27.029Z</time></trkpt><trkpt lat="40.7448017" lon="14.7732133"><ele>185.0</ele><time>2026-04-25T07:10:28.023Z</time></trkpt><trkpt lat="40.7448083" lon="14.7733117"><ele>185.0</ele><time>2026-04-25T07:10:29.024Z</time></trkpt><trkpt lat="40.7448067" lon="14.7733983"><ele>185.0</ele><time>2026-04-25T07:10:30.025Z</time></trkpt><trkpt lat="40.7447983" lon="14.7735117"><ele>185.0</ele><time>2026-04-25T07:10:32.031Z</time></trkpt><trkpt lat="40.74483" lon="14.7735883"><ele>185.0</ele><time>2026-04-25T07:10:34.027Z</time></trkpt><trkpt lat="40.7449067" lon="14.7736517"><ele>185.0</ele><time>2026-04-25T07:10:36.032Z</time></trkpt><trkpt lat="40.7450267" lon="14.773655"><ele>185.0</ele><time>2026-04-25T07:10:38.058Z</time></trkpt><trkpt lat="40.7451383" lon="14.77368"><ele>185.0</ele><time>2026-04-25T07:10:40.03Z</time></trkpt><trkpt lat="40.7452233" lon="14.773725"><ele>185.0</ele><time>2026-04-25T07:10:42.021Z</time></trkpt><trkpt lat="40.745305" lon="14.7737917"><ele>185.16666666666666</ele><time>2026-04-25T07:10:44.062Z</time></trkpt><trkpt lat="40.7453817" lon="14.7739"><ele>185.33333333333331</ele><time>2026-04-25T07:10:46.031Z</time></trkpt><trkpt lat="40.7454083" lon="14.7739833"><ele>185.5</ele><time>2026-04-25T07:10:47.033Z</time></trkpt><trkpt lat="40.7454233" lon="14.774075"><ele>185.66666666666666</ele><time>2026-04-25T07:10:48.031Z</time></trkpt><trkpt lat="40.7454383" lon="14.7741917"><ele>185.83333333333334</ele><time>2026-04-25T07:10:49.027Z</time></trkpt><trkpt lat="40.745455" lon="14.7743267"><ele>186.0</ele><time>2026-04-25T07:10:50.06Z</time></trkpt><trkpt lat="40.74547" lon="14.7744733"><ele>186.5</ele><time>2026-04-25T07:10:51.03Z</time></trkpt><trkpt lat="40.7454833" lon="14.77464"><ele>187.0</ele><time>2026-04-25T07:10:52.032Z</time></trkpt><trkpt lat="40.7455" lon="14.774815"><ele>187.5</ele><time>2026-04-25T07:10:53.038Z</time></trkpt><trkpt lat="40.7455183" lon="14.775"><ele>188.0</ele><time>2026-04-25T07:10:54.027Z</time></trkpt><trkpt lat="40.74553" lon="14.77519"><ele>188.25</ele><time>2026-04-25T07:10:55.034Z</time></trkpt><trkpt lat="40.74555" lon="14.7753633"><ele>188.5</ele><time>2026-04-25T07:10:56.03Z</time></trkpt><trkpt lat="40.7455683" lon="14.7755383"><ele>188.75</ele><time>2026-04-25T07:10:57.029Z</time></trkpt><trkpt lat="40.7455867" lon="14.7757117"><ele>189.0</ele><time>2026-04-25T07:10:58.033Z</time></trkpt><trkpt lat="40.7456067" lon="14.775885"><ele>189.5</ele><time>2026-04-25T07:10:59.031Z</time></trkpt><trkpt lat="40.7456383" lon="14.77606"><ele>190.0</ele><time>2026-04-25T07:11:00.033Z</time></trkpt><trkpt lat="40.7456733" lon="14.77624"><ele>190.5</ele><time>2026-04-25T07:11:01.03Z</time></trkpt><trkpt lat="40.7457083" lon="14.7764117"><ele>191.0</ele><time>2026-04-25T07:11:02.036Z</time></trkpt><trkpt lat="40.7457567" lon="14.776575"><ele>191.0</ele><time>2026-04-25T07:11:03.038Z</time></trkpt><trkpt lat="40.7458067" lon="14.7767333"><ele>191.0</ele><time>2026-04-25T07:11:04.033Z</time></trkpt><trkpt lat="40.7458667" lon="14.776885"><ele>191.0</ele><time>2026-04-25T07:11:05.029Z</time></trkpt><trkpt lat="40.74592" lon="14.7770467"><ele>191.0</ele><time>2026-04-25T07:11:06.032Z</time></trkpt><trkpt lat="40.7459717" lon="14.7772033"><ele>191.0</ele><time>2026-04-25T07:11:07.034Z</time></trkpt><trkpt lat="40.7460133" lon="14.7773583"><ele>191.0</ele><time>2026-04-25T07:11:08.065Z</time></trkpt><trkpt lat="40.7460467" lon="14.77751"><ele>191.0</ele><time>2026-04-25T07:11:09.033Z</time></trkpt><trkpt lat="40.746065" lon="14.7776717"><ele>191.0</ele><time>2026-04-25T07:11:10.034Z</time></trkpt><trkpt lat="40.7460667" lon="14.7778417"><ele>191.0</ele><time>2026-04-25T07:11:11.034Z</time></trkpt><trkpt lat="40.746055" lon="14.7780283"><ele>191.0</ele><time>2026-04-25T07:11:12.034Z</time></trkpt><trkpt lat="40.7460333" lon="14.7782133"><ele>191.0</ele><time>2026-04-25T07:11:13.031Z</time></trkpt><trkpt lat="40.746015" lon="14.7783833"><ele>191.0</ele><time>2026-04-25T07:11:14.06Z</time></trkpt><trkpt lat="40.7459933" lon="14.77855"><ele>190.75</ele><time>2026-04-25T07:11:15.025Z</time></trkpt><trkpt lat="40.745965" lon="14.77871"><ele>190.5</ele><time>2026-04-25T07:11:16.041Z</time></trkpt><trkpt lat="40.7459233" lon="14.778865"><ele>190.25</ele><time>2026-04-25T07:11:17.033Z</time></trkpt><trkpt lat="40.7458717" lon="14.7790217"><ele>190.0</ele><time>2026-04-25T07:11:18.033Z</time></trkpt><trkpt lat="40.7458083" lon="14.7791883"><ele>191.66666666666669</ele><time>2026-04-25T07:11:19.034Z</time></trkpt><trkpt lat="40.7457467" lon="14.77936"><ele>193.33333333333334</ele><time>2026-04-25T07:11:20.057Z</time></trkpt><trkpt lat="40.7456833" lon="14.7795483"><ele>195.0</ele><time>2026-04-25T07:11:21.025Z</time></trkpt><trkpt lat="40.7456183" lon="14.779755"><ele>195.0</ele><time>2026-04-25T07:11:22.024Z</time></trkpt><trkpt lat="40.745555" lon="14.7799717"><ele>195.0</ele><time>2026-04-25T07:11:23.021Z</time></trkpt><trkpt lat="40.7454967" lon="14.7801967"><ele>195.0</ele><time>2026-04-25T07:11:24.035Z</time></trkpt><trkpt lat="40.74544" lon="14.7804183"><ele>197.66666666666669</ele><time>2026-04-25T07:11:25.029Z</time></trkpt><trkpt lat="40.745395" lon="14.7806283"><ele>200.33333333333334</ele><time>2026-04-25T07:11:26.027Z</time></trkpt><trkpt lat="40.7453517" lon="14.780825"><ele>203.0</ele><time>2026-04-25T07:11:27.032Z</time></trkpt><trkpt lat="40.7453183" lon="14.7810033"><ele>204.0</ele><time>2026-04-25T07:11:28.034Z</time></trkpt><trkpt lat="40.7452883" lon="14.7811583"><ele>205.0</ele><time>2026-04-25T07:11:29.036Z</time></trkpt><trkpt lat="40.7452633" lon="14.7812933"><ele>206.0</ele><time>2026-04-25T07:11:30.027Z</time></trkpt><trkpt lat="40.7452283" lon="14.7814333"><ele>207.0</ele><time>2026-04-25T07:11:31.031Z</time></trkpt><trkpt lat="40.74519" lon="14.781575"><ele>207.0</ele><time>2026-04-25T07:11:32.032Z</time></trkpt><trkpt lat="40.7451433" lon="14.7817133"><ele>207.0</ele><time>2026-04-25T07:11:33.034Z</time></trkpt><trkpt lat="40.7451" lon="14.7818633"><ele>207.0</ele><time>2026-04-25T07:11:34.026Z</time></trkpt><trkpt lat="40.7450467" lon="14.7820167"><ele>207.0</ele><time>2026-04-25T07:11:35.03Z</time></trkpt><trkpt lat="40.7449917" lon="14.7821633"><ele>207.6</ele><time>2026-04-25T07:11:36.031Z</time></trkpt><trkpt lat="40.74495" lon="14.7823083"><ele>208.2</ele><time>2026-04-25T07:11:37.031Z</time></trkpt><trkpt lat="40.74494" lon="14.7824383"><ele>208.8</ele><time>2026-04-25T07:11:38.06Z</time></trkpt><trkpt lat="40.7449617" lon="14.7825633"><ele>209.4</ele><time>2026-04-25T07:11:39.03Z</time></trkpt><trkpt lat="40.7450133" lon="14.7826883"><ele>210.0</ele><time>2026-04-25T07:11:40.03Z</time></trkpt><trkpt lat="40.7450833" lon="14.7828033"><ele>210.0</ele><time>2026-04-25T07:11:41.033Z</time></trkpt><trkpt lat="40.74515" lon="14.7828917"><ele>210.0</ele><time>2026-04-25T07:11:42.029Z</time></trkpt><trkpt lat="40.7452183" lon="14.7829517"><ele>210.0</ele><time>2026-04-25T07:11:44.057Z</time></trkpt><trkpt lat="40.7452633" lon="14.7830683"><ele>210.0</ele><time>2026-04-25T07:11:49.029Z</time></trkpt><trkpt lat="40.7452383" lon="14.7832017"><ele>210.0</ele><time>2026-04-25T07:11:51.036Z</time></trkpt><trkpt lat="40.7451967" lon="14.7832817"><ele>210.6</ele><time>2026-04-25T07:11:52.028Z</time></trkpt><trkpt lat="40.745145" lon="14.7833683"><ele>211.2</ele><time>2026-04-25T07:11:53.036Z</time></trkpt><trkpt lat="40.74507" lon="14.7834567"><ele>211.8</ele><time>2026-04-25T07:11:54.032Z</time></trkpt><trkpt lat="40.7449783" lon="14.7835383"><ele>212.4</ele><time>2026-04-25T07:11:55.038Z</time></trkpt><trkpt lat="40.7448717" lon="14.7836167"><ele>213.0</ele><time>2026-04-25T07:11:56.029Z</time></trkpt><trkpt lat="40.744775" lon="14.78371"><ele>214.0</ele><time>2026-04-25T07:11:57.036Z</time></trkpt><trkpt lat="40.74469" lon="14.7838167"><ele>215.0</ele><time>2026-04-25T07:11:58.031Z</time></trkpt><trkpt lat="40.7446133" lon="14.7839383"><ele>216.0</ele><time>2026-04-25T07:11:59.024Z</time></trkpt><trkpt lat="40.7445417" lon="14.7840783"><ele>217.0</ele><time>2026-04-25T07:12:00.024Z</time></trkpt><trkpt lat="40.7444683" lon="14.784225"><ele>217.75</ele><time>2026-04-25T07:12:01.036Z</time></trkpt><trkpt lat="40.7443917" lon="14.7843767"><ele>218.5</ele><time>2026-04-25T07:12:02.031Z</time></trkpt><trkpt lat="40.74431" lon="14.78453"><ele>219.25</ele><time>2026-04-25T07:12:03.033Z</time></trkpt><trkpt lat="40.744215" lon="14.784695"><ele>220.0</ele><time>2026-04-25T07:12:04.032Z</time></trkpt><trkpt lat="40.7441167" lon="14.7848483"><ele>220.75</ele><time>2026-04-25T07:12:05.039Z</time></trkpt><trkpt lat="40.7440567" lon="14.7850017"><ele>221.5</ele><time>2026-04-25T07:12:06.026Z</time></trkpt><trkpt lat="40.7439883" lon="14.7851517"><ele>222.25</ele><time>2026-04-25T07:12:07.03Z</time></trkpt><trkpt lat="40.7439133" lon="14.785305"><ele>223.0</ele><time>2026-04-25T07:12:08.055Z</time></trkpt><trkpt lat="40.7438233" lon="14.7854483"><ele>224.0</ele><time>2026-04-25T07:12:09.032Z</time></trkpt><trkpt lat="40.7437317" lon="14.78559"><ele>225.0</ele><time>2026-04-25T07:12:10.027Z</time></trkpt><trkpt lat="40.7436333" lon="14.7857333"><ele>226.0</ele><time>2026-04-25T07:12:11.036Z</time></trkpt><trkpt lat="40.7435417" lon="14.7858817"><ele>227.0</ele><time>2026-04-25T07:12:12.032Z</time></trkpt><trkpt lat="40.7434567" lon="14.78603"><ele>228.0</ele><time>2026-04-25T07:12:13.034Z</time></trkpt><trkpt lat="40.7433683" lon="14.7861717"><ele>229.0</ele><time>2026-04-25T07:12:14.049Z</time></trkpt><trkpt lat="40.7432883" lon="14.786315"><ele>230.0</ele><time>2026-04-25T07:12:15.027Z</time></trkpt><trkpt lat="40.7432133" lon="14.78646"><ele>231.0</ele><time>2026-04-25T07:12:16.035Z</time></trkpt><trkpt lat="40.7431333" lon="14.786605"><ele>231.0</ele><time>2026-04-25T07:12:17.033Z</time></trkpt><trkpt lat="40.743055" lon="14.7867617"><ele>231.0</ele><time>2026-04-25T07:12:18.033Z</time></trkpt><trkpt lat="40.7429733" lon="14.7869233"><ele>231.0</ele><time>2026-04-25T07:12:19.033Z</time></trkpt><trkpt lat="40.7428883" lon="14.7870917"><ele>231.0</ele><time>2026-04-25T07:12:20.059Z</time></trkpt><trkpt lat="40.7428017" lon="14.7872667"><ele>232.33333333333331</ele><time>2026-04-25T07:12:21.037Z</time></trkpt><trkpt lat="40.742715" lon="14.7874467"><ele>233.66666666666666</ele><time>2026-04-25T07:12:22.031Z</time></trkpt><trkpt lat="40.7426317" lon="14.7876283"><ele>235.0</ele><time>2026-04-25T07:12:23.026Z</time></trkpt><trkpt lat="40.7425483" lon="14.7878067"><ele>238.0</ele><time>2026-04-25T07:12:24.025Z</time></trkpt><trkpt lat="40.7424617" lon="14.7879917"><ele>241.0</ele><time>2026-04-25T07:12:25.028Z</time></trkpt><trkpt lat="40.74237" lon="14.78818"><ele>244.0</ele><time>2026-04-25T07:12:26.08Z</time></trkpt><trkpt lat="40.7422717" lon="14.7883717"><ele>245.66666666666666</ele><time>2026-04-25T07:12:27.027Z</time></trkpt><trkpt lat="40.7421683" lon="14.7885617"><ele>247.33333333333331</ele><time>2026-04-25T07:12:28.031Z</time></trkpt><trkpt lat="40.7420567" lon="14.7887433"><ele>249.0</ele><time>2026-04-25T07:12:29.033Z</time></trkpt><trkpt lat="40.7419483" lon="14.7889383"><ele>249.0</ele><time>2026-04-25T07:12:30.031Z</time></trkpt><trkpt lat="40.7418417" lon="14.78915"><ele>249.0</ele><time>2026-04-25T07:12:31.038Z</time></trkpt><trkpt lat="40.741745" lon="14.78936"><ele>249.0</ele><time>2026-04-25T07:12:32.026Z</time></trkpt><trkpt lat="40.741655" lon="14.789555"><ele>250.75</ele><time>2026-04-25T07:12:33.031Z</time></trkpt><trkpt lat="40.74158" lon="14.7897283"><ele>252.5</ele><time>2026-04-25T07:12:34.03Z</time></trkpt><trkpt lat="40.7415083" lon="14.7898867"><ele>254.25</ele><time>2026-04-25T07:12:35.038Z</time></trkpt><trkpt lat="40.7414467" lon="14.7900417"><ele>256.0</ele><time>2026-04-25T07:12:36.033Z</time></trkpt><trkpt lat="40.7413917" lon="14.7902167"><ele>258.25</ele><time>2026-04-25T07:12:37.035Z</time></trkpt><trkpt lat="40.7413483" lon="14.7903933"><ele>260.5</ele><time>2026-04-25T07:12:38.059Z</time></trkpt><trkpt lat="40.7413133" lon="14.79058"><ele>262.75</ele><time>2026-04-25T07:12:39.026Z</time></trkpt><trkpt lat="40.74129" lon="14.790755"><ele>265.0</ele><time>2026-04-25T07:12:40.032Z</time></trkpt><trkpt lat="40.7412717" lon="14.790895"><ele>265.0</ele><time>2026-04-25T07:12:41.034Z</time></trkpt><trkpt lat="40.7412583" lon="14.7909917"><ele>265.0</ele><time>2026-04-25T07:12:42.025Z</time></trkpt><trkpt lat="40.741135" lon="14.7909617"><ele>265.0</ele><time>2026-04-25T07:12:45.029Z</time></trkpt><trkpt lat="40.7409917" lon="14.7908933"><ele>265.0</ele><time>2026-04-25T07:12:46.024Z</time></trkpt><trkpt lat="40.7408533" lon="14.7908533"><ele>265.0</ele><time>2026-04-25T07:12:47.03Z</time></trkpt><trkpt lat="40.740715" lon="14.7908233"><ele>265.0</ele><time>2026-04-25T07:12:48.033Z</time></trkpt><trkpt lat="40.7405767" lon="14.7907817"><ele>265.0</ele><time>2026-04-25T07:12:49.035Z</time></trkpt><trkpt lat="40.740445" lon="14.7907233"><ele>265.0</ele><time>2026-04-25T07:12:50.058Z</time></trkpt><trkpt lat="40.7403233" lon="14.7906467"><ele>267.2</ele><time>2026-04-25T07:12:51.029Z</time></trkpt><trkpt lat="40.740215" lon="14.79058"><ele>269.4</ele><time>2026-04-25T07:12:52.034Z</time></trkpt><trkpt lat="40.7401183" lon="14.7905367"><ele>271.6</ele><time>2026-04-25T07:12:53.026Z</time></trkpt><trkpt lat="40.7400333" lon="14.7905133"><ele>273.8</ele><time>2026-04-25T07:12:54.032Z</time></trkpt><trkpt lat="40.739955" lon="14.7905117"><ele>276.0</ele><time>2026-04-25T07:12:55.033Z</time></trkpt><trkpt lat="40.739885" lon="14.7905433"><ele>276.0</ele><time>2026-04-25T07:12:56.029Z</time></trkpt><trkpt lat="40.73984" lon="14.7906483"><ele>276.0</ele><time>2026-04-25T07:12:57.036Z</time></trkpt><trkpt lat="40.7397983" lon="14.7908033"><ele>276.0</ele><time>2026-04-25T07:12:58.031Z</time></trkpt><trkpt lat="40.739745" lon="14.7909567"><ele>276.0</ele><time>2026-04-25T07:12:59.034Z</time></trkpt><trkpt lat="40.7396967" lon="14.7911383"><ele>277.0</ele><time>2026-04-25T07:13:00.024Z</time></trkpt><trkpt lat="40.7396383" lon="14.7913233"><ele>278.0</ele><time>2026-04-25T07:13:01.035Z</time></trkpt><trkpt lat="40.7395733" lon="14.7915017"><ele>279.0</ele><time>2026-04-25T07:13:02.027Z</time></trkpt><trkpt lat="40.7395133" lon="14.7917033"><ele>280.6666666666667</ele><time>2026-04-25T07:13:03.032Z</time></trkpt><trkpt lat="40.73945" lon="14.7919033"><ele>282.33333333333337</ele><time>2026-04-25T07:13:04.026Z</time></trkpt><trkpt lat="40.7393783" lon="14.792105"><ele>284.0</ele><time>2026-04-25T07:13:05.036Z</time></trkpt><trkpt lat="40.739295" lon="14.7922867"><ele>286.33333333333337</ele><time>2026-04-25T07:13:06.035Z</time></trkpt><trkpt lat="40.739205" lon="14.7924567"><ele>288.6666666666667</ele><time>2026-04-25T07:13:07.037Z</time></trkpt><trkpt lat="40.7391167" lon="14.7926133"><ele>291.0</ele><time>2026-04-25T07:13:08.062Z</time></trkpt><trkpt lat="40.7390317" lon="14.7927683"><ele>291.75</ele><time>2026-04-25T07:13:09.034Z</time></trkpt><trkpt lat="40.7389567" lon="14.79289"><ele>292.5</ele><time>2026-04-25T07:13:10.032Z</time></trkpt><trkpt lat="40.738885" lon="14.7929917"><ele>293.25</ele><time>2026-04-25T07:13:11.031Z</time></trkpt><trkpt lat="40.7388133" lon="14.7930883"><ele>294.0</ele><time>2026-04-25T07:13:12.03Z</time></trkpt><trkpt lat="40.73869" lon="14.7931383"><ele>294.0</ele><time>2026-04-25T07:13:14.061Z</time></trkpt><trkpt lat="40.7385917" lon="14.79319"><ele>294.0</ele><time>2026-04-25T07:13:15.028Z</time></trkpt><trkpt lat="40.738505" lon="14.7932633"><ele>294.0</ele><time>2026-04-25T07:13:16.028Z</time></trkpt><trkpt lat="40.738405" lon="14.7933617"><ele>294.0</ele><time>2026-04-25T07:13:17.035Z</time></trkpt><trkpt lat="40.7383167" lon="14.7934833"><ele>295.25</ele><time>2026-04-25T07:13:18.031Z</time></trkpt><trkpt lat="40.7382567" lon="14.793675"><ele>296.5</ele><time>2026-04-25T07:13:19.036Z</time></trkpt><trkpt lat="40.7381883" lon="14.7938383"><ele>297.75</ele><time>2026-04-25T07:13:20.057Z</time></trkpt><trkpt lat="40.7381217" lon="14.793995"><ele>299.0</ele><time>2026-04-25T07:13:21.03Z</time></trkpt><trkpt lat="40.738055" lon="14.79414"><ele>299.0</ele><time>2026-04-25T07:13:22.026Z</time></trkpt><trkpt lat="40.7379967" lon="14.7942817"><ele>299.0</ele><time>2026-04-25T07:13:23.04Z</time></trkpt><trkpt lat="40.7379517" lon="14.794425"><ele>299.0</ele><time>2026-04-25T07:13:24.033Z</time></trkpt><trkpt lat="40.7379267" lon="14.7945717"><ele>299.0</ele><time>2026-04-25T07:13:25.038Z</time></trkpt><trkpt lat="40.737945" lon="14.7947117"><ele>300.0</ele><time>2026-04-25T07:13:26.085Z</time></trkpt><trkpt lat="40.7380033" lon="14.7948433"><ele>301.0</ele><time>2026-04-25T07:13:27.022Z</time></trkpt><trkpt lat="40.7380667" lon="14.7949633"><ele>302.0</ele><time>2026-04-25T07:13:28.028Z</time></trkpt><trkpt lat="40.7381083" lon="14.79506"><ele>303.0</ele><time>2026-04-25T07:13:29.033Z</time></trkpt><trkpt lat="40.7381" lon="14.795175"><ele>304.0</ele><time>2026-04-25T07:13:31.033Z</time></trkpt><trkpt lat="40.7380283" lon="14.79518"><ele>304.16666666666663</ele><time>2026-04-25T07:13:32.045Z</time></trkpt><trkpt lat="40.73796" lon="14.7952133"><ele>304.3333333333333</ele><time>2026-04-25T07:13:33.029Z</time></trkpt><trkpt lat="40.7379033" lon="14.7952583"><ele>304.5</ele><time>2026-04-25T07:13:34.029Z</time></trkpt><trkpt lat="40.7378417" lon="14.7953817"><ele>304.6666666666667</ele><time>2026-04-25T07:13:36.029Z</time></trkpt><trkpt lat="40.7378533" lon="14.79548"><ele>304.83333333333337</ele><time>2026-04-25T07:13:37.03Z</time></trkpt><trkpt lat="40.7378633" lon="14.79561"><ele>305.0</ele><time>2026-04-25T07:13:38.058Z</time></trkpt><trkpt lat="40.7378583" lon="14.7956983"><ele>305.0</ele><time>2026-04-25T07:13:39.025Z</time></trkpt><trkpt lat="40.7378517" lon="14.7957833"><ele>305.0</ele><time>2026-04-25T07:13:40.022Z</time></trkpt><trkpt lat="40.7378467" lon="14.7958683"><ele>305.0</ele><time>2026-04-25T07:13:41.022Z</time></trkpt><trkpt lat="40.73782" lon="14.7957"><ele>305.0</ele><time>2026-04-25T07:13:45.031Z</time></trkpt><trkpt lat="40.737805" lon="14.7955783"><ele>305.0</ele><time>2026-04-25T07:13:46.03Z</time></trkpt><trkpt lat="40.7377817" lon="14.7954767"><ele>305.0</ele><time>2026-04-25T07:13:47.033Z</time></trkpt><trkpt lat="40.7376933" lon="14.7954183"><ele>307.2</ele><time>2026-04-25T07:13:48.025Z</time></trkpt><trkpt lat="40.737595" lon="14.79537"><ele>309.4</ele><time>2026-04-25T07:13:49.034Z</time></trkpt><trkpt lat="40.7374867" lon="14.7953667"><ele>311.6</ele><time>2026-04-25T07:13:50.056Z</time></trkpt><trkpt lat="40.7373883" lon="14.7953383"><ele>313.8</ele><time>2026-04-25T07:13:51.031Z</time></trkpt><trkpt lat="40.737305" lon="14.795305"><ele>316.0</ele><time>2026-04-25T07:13:52.034Z</time></trkpt><trkpt lat="40.7372467" lon="14.795255"><ele>313.8</ele><time>2026-04-25T07:13:53.028Z</time></trkpt><trkpt lat="40.7372017" lon="14.7951617"><ele>311.6</ele><time>2026-04-25T07:13:54.024Z</time></trkpt><trkpt lat="40.737185" lon="14.7950017"><ele>309.4</ele><time>2026-04-25T07:13:55.039Z</time></trkpt><trkpt lat="40.7371417" lon="14.7948583"><ele>307.2</ele><time>2026-04-25T07:13:56.088Z</time></trkpt><trkpt lat="40.7370833" lon="14.7947233"><ele>305.0</ele><time>2026-04-25T07:13:57.025Z</time></trkpt><trkpt lat="40.7370133" lon="14.7945817"><ele>305.0</ele><time>2026-04-25T07:13:58.029Z</time></trkpt><trkpt lat="40.7369417" lon="14.7944717"><ele>305.0</ele><time>2026-04-25T07:13:59.036Z</time></trkpt><trkpt lat="40.7368767" lon="14.7943867"><ele>305.0</ele><time>2026-04-25T07:14:00.034Z</time></trkpt><trkpt lat="40.736805" lon="14.7943683"><ele>305.0</ele><time>2026-04-25T07:14:01.034Z</time></trkpt><trkpt lat="40.736685" lon="14.7943783"><ele>305.0</ele><time>2026-04-25T07:14:03.033Z</time></trkpt><trkpt lat="40.7366283" lon="14.79444"><ele>308.5</ele><time>2026-04-25T07:14:04.031Z</time></trkpt><trkpt lat="40.736565" lon="14.7945267"><ele>312.0</ele><time>2026-04-25T07:14:05.033Z</time></trkpt><trkpt lat="40.7364983" lon="14.79464"><ele>315.5</ele><time>2026-04-25T07:14:06.032Z</time></trkpt><trkpt lat="40.7364467" lon="14.7947967"><ele>319.0</ele><time>2026-04-25T07:14:07.033Z</time></trkpt><trkpt lat="40.7363933" lon="14.7949867"><ele>319.0</ele><time>2026-04-25T07:14:08.061Z</time></trkpt><trkpt lat="40.73633" lon="14.7951633"><ele>319.0</ele><time>2026-04-25T07:14:09.033Z</time></trkpt><trkpt lat="40.736265" lon="14.7953367"><ele>319.0</ele><time>2026-04-25T07:14:10.03Z</time></trkpt><trkpt lat="40.736215" lon="14.7954983"><ele>319.0</ele><time>2026-04-25T07:14:11.037Z</time></trkpt><trkpt lat="40.7361783" lon="14.7956583"><ele>320.75</ele><time>2026-04-25T07:14:12.029Z</time></trkpt><trkpt lat="40.7361567" lon="14.7958167"><ele>322.5</ele><time>2026-04-25T07:14:13.036Z</time></trkpt><trkpt lat="40.7361467" lon="14.7959717"><ele>324.25</ele><time>2026-04-25T07:14:14.058Z</time></trkpt><trkpt lat="40.736135" lon="14.7961167"><ele>326.0</ele><time>2026-04-25T07:14:15.032Z</time></trkpt><trkpt lat="40.736115" lon="14.7962483"><ele>327.5</ele><time>2026-04-25T07:14:16.03Z</time></trkpt><trkpt lat="40.73609" lon="14.7963517"><ele>329.0</ele><time>2026-04-25T07:14:17.031Z</time></trkpt><trkpt lat="40.7360683" lon="14.7964333"><ele>330.5</ele><time>2026-04-25T07:14:18.036Z</time></trkpt><trkpt lat="40.735975" lon="14.7964567"><ele>332.0</ele><time>2026-04-25T07:14:20.061Z</time></trkpt><trkpt lat="40.7359067" lon="14.796415"><ele>333.5</ele><time>2026-04-25T07:14:21.034Z</time></trkpt><trkpt lat="40.7358233" lon="14.796355"><ele>335.0</ele><time>2026-04-25T07:14:22.032Z</time></trkpt><trkpt lat="40.7357333" lon="14.7962833"><ele>335.6666666666667</ele><time>2026-04-25T07:14:23.032Z</time></trkpt><trkpt lat="40.7356483" lon="14.796195"><ele>336.33333333333337</ele><time>2026-04-25T07:14:24.028Z</time></trkpt><trkpt lat="40.7355683" lon="14.79611"><ele>337.0</ele><time>2026-04-25T07:14:25.036Z</time></trkpt><trkpt lat="40.7355033" lon="14.7960383"><ele>337.6666666666667</ele><time>2026-04-25T07:14:26.034Z</time></trkpt><trkpt lat="40.7354417" lon="14.795975"><ele>338.3333333333333</ele><time>2026-04-25T07:14:27.034Z</time></trkpt><trkpt lat="40.7353783" lon="14.7959283"><ele>339.0</ele><time>2026-04-25T07:14:28.022Z</time></trkpt><trkpt lat="40.7352317" lon="14.795975"><ele>340.0</ele><time>2026-04-25T07:14:30.034Z</time></trkpt><trkpt lat="40.7351417" lon="14.7960483"><ele>341.0</ele><time>2026-04-25T07:14:31.036Z</time></trkpt><trkpt lat="40.73504" lon="14.7961233"><ele>342.0</ele><time>2026-04-25T07:14:32.084Z</time></trkpt><trkpt lat="40.73493" lon="14.7961967"><ele>343.0</ele><time>2026-04-25T07:14:33.024Z</time></trkpt><trkpt lat="40.7348167" lon="14.7962733"><ele>343.0</ele><time>2026-04-25T07:14:34.028Z</time></trkpt><trkpt lat="40.7347133" lon="14.7963517"><ele>343.0</ele><time>2026-04-25T07:14:35.036Z</time></trkpt><trkpt lat="40.7346167" lon="14.796425"><ele>343.0</ele><time>2026-04-25T07:14:36.034Z</time></trkpt><trkpt lat="40.7345317" lon="14.7964917"><ele>343.0</ele><time>2026-04-25T07:14:37.035Z</time></trkpt><trkpt lat="40.7344533" lon="14.79656"><ele>343.0</ele><time>2026-04-25T07:14:38.058Z</time></trkpt><trkpt lat="40.73438" lon="14.796625"><ele>343.66666666666663</ele><time>2026-04-25T07:14:39.036Z</time></trkpt><trkpt lat="40.7343083" lon="14.7966933"><ele>344.3333333333333</ele><time>2026-04-25T07:14:40.031Z</time></trkpt><trkpt lat="40.73424" lon="14.7967683"><ele>345.0</ele><time>2026-04-25T07:14:41.032Z</time></trkpt><trkpt lat="40.7341783" lon="14.7968467"><ele>345.6666666666667</ele><time>2026-04-25T07:14:42.037Z</time></trkpt><trkpt lat="40.7341183" lon="14.7969283"><ele>346.33333333333337</ele><time>2026-04-25T07:14:43.034Z</time></trkpt><trkpt lat="40.7340517" lon="14.797015"><ele>347.0</ele><time>2026-04-25T07:14:44.06Z</time></trkpt><trkpt lat="40.7339767" lon="14.7971083"><ele>349.20000000000005</ele><time>2026-04-25T07:14:45.033Z</time></trkpt><trkpt lat="40.7338967" lon="14.7971983"><ele>351.4</ele><time>2026-04-25T07:14:46.031Z</time></trkpt><trkpt lat="40.7338117" lon="14.7972767"><ele>353.6</ele><time>2026-04-25T07:14:47.037Z</time></trkpt><trkpt lat="40.73373" lon="14.7973517"><ele>355.79999999999995</ele><time>2026-04-25T07:14:48.032Z</time></trkpt><trkpt lat="40.7336317" lon="14.79741"><ele>358.0</ele><time>2026-04-25T07:14:49.038Z</time></trkpt><trkpt lat="40.7335267" lon="14.7974583"><ele>358.59999999999997</ele><time>2026-04-25T07:14:50.058Z</time></trkpt><trkpt lat="40.7334217" lon="14.7975083"><ele>359.2</ele><time>2026-04-25T07:14:51.028Z</time></trkpt><trkpt lat="40.73332" lon="14.7975583"><ele>359.8</ele><time>2026-04-25T07:14:52.023Z</time></trkpt><trkpt lat="40.73322" lon="14.7976117"><ele>360.4</ele><time>2026-04-25T07:14:53.032Z</time></trkpt><trkpt lat="40.7331267" lon="14.79768"><ele>361.0</ele><time>2026-04-25T07:14:54.024Z</time></trkpt><trkpt lat="40.73303" lon="14.7977617"><ele>363.20000000000005</ele><time>2026-04-25T07:14:55.031Z</time></trkpt><trkpt lat="40.7329417" lon="14.7978533"><ele>365.40000000000003</ele><time>2026-04-25T07:14:56.088Z</time></trkpt><trkpt lat="40.7328533" lon="14.79793"><ele>367.6</ele><time>2026-04-25T07:14:57.026Z</time></trkpt><trkpt lat="40.7327717" lon="14.79801"><ele>369.8</ele><time>2026-04-25T07:14:58.024Z</time></trkpt><trkpt lat="40.7326867" lon="14.7980717"><ele>372.0</ele><time>2026-04-25T07:14:59.035Z</time></trkpt><trkpt lat="40.732595" lon="14.7981283"><ele>373.20000000000005</ele><time>2026-04-25T07:15:00.023Z</time></trkpt><trkpt lat="40.7325117" lon="14.7981017"><ele>374.4</ele><time>2026-04-25T07:15:01.024Z</time></trkpt><trkpt lat="40.732445" lon="14.7980283"><ele>375.6</ele><time>2026-04-25T07:15:02.025Z</time></trkpt><trkpt lat="40.7323833" lon="14.7979183"><ele>376.79999999999995</ele><time>2026-04-25T07:15:03.033Z</time></trkpt><trkpt lat="40.73231" lon="14.7977583"><ele>378.0</ele><time>2026-04-25T07:15:04.027Z</time></trkpt><trkpt lat="40.7322383" lon="14.7976433"><ele>378.0</ele><time>2026-04-25T07:15:05.032Z</time></trkpt><trkpt lat="40.7321517" lon="14.7975383"><ele>378.0</ele><time>2026-04-25T07:15:06.026Z</time></trkpt><trkpt lat="40.7320467" lon="14.7974517"><ele>378.0</ele><time>2026-04-25T07:15:07.034Z</time></trkpt><trkpt lat="40.73194" lon="14.7973933"><ele>378.0</ele><time>2026-04-25T07:15:08.055Z</time></trkpt><trkpt lat="40.7318333" lon="14.7973483"><ele>380.1666666666667</ele><time>2026-04-25T07:15:09.023Z</time></trkpt><trkpt lat="40.731745" lon="14.79729"><ele>382.33333333333337</ele><time>2026-04-25T07:15:10.024Z</time></trkpt><trkpt lat="40.7316817" lon="14.7972217"><ele>384.5</ele><time>2026-04-25T07:15:11.027Z</time></trkpt><trkpt lat="40.731595" lon="14.7971117"><ele>386.6666666666667</ele><time>2026-04-25T07:15:13.03Z</time></trkpt><trkpt lat="40.7315567" lon="14.7970217"><ele>388.83333333333337</ele><time>2026-04-25T07:15:14.057Z</time></trkpt><trkpt lat="40.731525" lon="14.79694"><ele>391.0</ele><time>2026-04-25T07:15:15.029Z</time></trkpt><trkpt lat="40.7314717" lon="14.79683"><ele>391.83333333333337</ele><time>2026-04-25T07:15:17.036Z</time></trkpt><trkpt lat="40.7314033" lon="14.7968533"><ele>392.6666666666667</ele><time>2026-04-25T07:15:19.032Z</time></trkpt><trkpt lat="40.7313567" lon="14.7969417"><ele>393.5</ele><time>2026-04-25T07:15:21.027Z</time></trkpt><trkpt lat="40.731325" lon="14.7970333"><ele>394.33333333333337</ele><time>2026-04-25T07:15:22.031Z</time></trkpt><trkpt lat="40.7312883" lon="14.797135"><ele>395.1666666666667</ele><time>2026-04-25T07:15:23.033Z</time></trkpt><trkpt lat="40.731245" lon="14.7972383"><ele>396.0</ele><time>2026-04-25T07:15:24.026Z</time></trkpt><trkpt lat="40.7312067" lon="14.7973467"><ele>396.0</ele><time>2026-04-25T07:15:25.033Z</time></trkpt><trkpt lat="40.731185" lon="14.797465"><ele>396.0</ele><time>2026-04-25T07:15:26.058Z</time></trkpt><trkpt lat="40.73118" lon="14.7975883"><ele>396.0</ele><time>2026-04-25T07:15:27.032Z</time></trkpt><trkpt lat="40.731185" lon="14.7977033"><ele>396.0</ele><time>2026-04-25T07:15:28.029Z</time></trkpt><trkpt lat="40.7311967" lon="14.797815"><ele>396.0</ele><time>2026-04-25T07:15:29.028Z</time></trkpt><trkpt lat="40.7311983" lon="14.7979133"><ele>396.0</ele><time>2026-04-25T07:15:30.025Z</time></trkpt><trkpt lat="40.7311267" lon="14.7980067"><ele>397.5</ele><time>2026-04-25T07:15:32.059Z</time></trkpt><trkpt lat="40.7310617" lon="14.797995"><ele>399.0</ele><time>2026-04-25T07:15:33.031Z</time></trkpt><trkpt lat="40.730985" lon="14.79797"><ele>400.5</ele><time>2026-04-25T07:15:34.025Z</time></trkpt><trkpt lat="40.730875" lon="14.7979517"><ele>402.0</ele><time>2026-04-25T07:15:36.029Z</time></trkpt><trkpt lat="40.7308117" lon="14.7980417"><ele>403.5</ele><time>2026-04-25T07:15:38.057Z</time></trkpt><trkpt lat="40.730805" lon="14.798125"><ele>405.0</ele><time>2026-04-25T07:15:39.027Z</time></trkpt><trkpt lat="40.7307883" lon="14.7982067"><ele>408.0</ele><time>2026-04-25T07:15:40.031Z</time></trkpt><trkpt lat="40.730725" lon="14.798335"><ele>411.0</ele><time>2026-04-25T07:15:42.027Z</time></trkpt><trkpt lat="40.7306717" lon="14.79838"><ele>414.0</ele><time>2026-04-25T07:15:43.032Z</time></trkpt><trkpt lat="40.7306083" lon="14.7984167"><ele>417.0</ele><time>2026-04-25T07:15:44.061Z</time></trkpt><trkpt lat="40.7305367" lon="14.7984683"><ele>420.0</ele><time>2026-04-25T07:15:45.029Z</time></trkpt><trkpt lat="40.7304767" lon="14.7985367"><ele>423.0</ele><time>2026-04-25T07:15:46.031Z</time></trkpt><trkpt lat="40.7304133" lon="14.7986267"><ele>424.75</ele><time>2026-04-25T07:15:47.032Z</time></trkpt><trkpt lat="40.7303483" lon="14.798745"><ele>426.5</ele><time>2026-04-25T07:15:48.036Z</time></trkpt><trkpt lat="40.73029" lon="14.79889"><ele>428.25</ele><time>2026-04-25T07:15:49.039Z</time></trkpt><trkpt lat="40.73024" lon="14.799035"><ele>430.0</ele><time>2026-04-25T07:15:50.057Z</time></trkpt><trkpt lat="40.7301867" lon="14.7991867"><ele>433.33333333333337</ele><time>2026-04-25T07:15:51.027Z</time></trkpt><trkpt lat="40.7301483" lon="14.79932"><ele>436.6666666666667</ele><time>2026-04-25T07:15:52.034Z</time></trkpt><trkpt lat="40.73011" lon="14.79944"><ele>440.0</ele><time>2026-04-25T07:15:53.029Z</time></trkpt><trkpt lat="40.7300683" lon="14.7995117"><ele>443.33333333333337</ele><time>2026-04-25T07:15:54.032Z</time></trkpt><trkpt lat="40.7300017" lon="14.7995817"><ele>446.6666666666667</ele><time>2026-04-25T07:15:55.033Z</time></trkpt><trkpt lat="40.729925" lon="14.7996333"><ele>450.0</ele><time>2026-04-25T07:15:56.078Z</time></trkpt><trkpt lat="40.729855" lon="14.7996767"><ele>450.0</ele><time>2026-04-25T07:15:57.03Z</time></trkpt><trkpt lat="40.72979" lon="14.7997267"><ele>450.0</ele><time>2026-04-25T07:15:58.029Z</time></trkpt><trkpt lat="40.72973" lon="14.799775"><ele>450.0</ele><time>2026-04-25T07:15:59.032Z</time></trkpt><trkpt lat="40.7296517" lon="14.7998883"><ele>450.0</ele><time>2026-04-25T07:16:01.035Z</time></trkpt><trkpt lat="40.729705" lon="14.80005"><ele>450.0</ele><time>2026-04-25T07:16:03.028Z</time></trkpt><trkpt lat="40.7297467" lon="14.8001283"><ele>451.8</ele><time>2026-04-25T07:16:04.023Z</time></trkpt><trkpt lat="40.72979" lon="14.8002933"><ele>453.6</ele><time>2026-04-25T07:16:06.026Z</time></trkpt><trkpt lat="40.7298217" lon="14.8003983"><ele>455.4</ele><time>2026-04-25T07:16:07.041Z</time></trkpt><trkpt lat="40.7298617" lon="14.8005167"><ele>457.2</ele><time>2026-04-25T07:16:08.054Z</time></trkpt><trkpt lat="40.729905" lon="14.800645"><ele>459.0</ele><time>2026-04-25T07:16:09.023Z</time></trkpt><trkpt lat="40.72994" lon="14.8007717"><ele>459.0</ele><time>2026-04-25T07:16:10.024Z</time></trkpt><trkpt lat="40.7299617" lon="14.80089"><ele>459.0</ele><time>2026-04-25T07:16:11.032Z</time></trkpt><trkpt lat="40.729975" lon="14.8010033"><ele>459.0</ele><time>2026-04-25T07:16:12.027Z</time></trkpt><trkpt lat="40.7299733" lon="14.8011033"><ele>459.0</ele><time>2026-04-25T07:16:13.031Z</time></trkpt><trkpt lat="40.7299367" lon="14.8011967"><ele>459.0</ele><time>2026-04-25T07:16:14.053Z</time></trkpt><trkpt lat="40.7298933" lon="14.80129"><ele>459.0</ele><time>2026-04-25T07:16:15.033Z</time></trkpt><trkpt lat="40.72985" lon="14.8014017"><ele>460.0</ele><time>2026-04-25T07:16:16.027Z</time></trkpt><trkpt lat="40.729795" lon="14.80151"><ele>461.0</ele><time>2026-04-25T07:16:17.039Z</time></trkpt><trkpt lat="40.72974" lon="14.801605"><ele>462.0</ele><time>2026-04-25T07:16:18.03Z</time></trkpt><trkpt lat="40.7296983" lon="14.8016883"><ele>463.0</ele><time>2026-04-25T07:16:19.03Z</time></trkpt><trkpt lat="40.7296683" lon="14.8017767"><ele>464.0</ele><time>2026-04-25T07:16:20.06Z</time></trkpt><trkpt lat="40.7296633" lon="14.8019217"><ele>465.0</ele><time>2026-04-25T07:16:22.028Z</time></trkpt><trkpt lat="40.729725" lon="14.8020267"><ele>468.5</ele><time>2026-04-25T07:16:24.025Z</time></trkpt><trkpt lat="40.7298117" lon="14.8021"><ele>472.0</ele><time>2026-04-25T07:16:25.035Z</time></trkpt><trkpt lat="40.7299217" lon="14.8022217"><ele>475.5</ele><time>2026-04-25T07:16:26.055Z</time></trkpt><trkpt lat="40.7300033" lon="14.8023367"><ele>479.0</ele><time>2026-04-25T07:16:27.028Z</time></trkpt><trkpt lat="40.7300833" lon="14.8024417"><ele>479.0</ele><time>2026-04-25T07:16:28.027Z</time></trkpt><trkpt lat="40.73015" lon="14.802535"><ele>479.0</ele><time>2026-04-25T07:16:29.034Z</time></trkpt><trkpt lat="40.7302117" lon="14.8026333"><ele>479.0</ele><time>2026-04-25T07:16:30.03Z</time></trkpt><trkpt lat="40.730265" lon="14.802745"><ele>479.0</ele><time>2026-04-25T07:16:31.028Z</time></trkpt><trkpt lat="40.730305" lon="14.8028617"><ele>479.0</ele><time>2026-04-25T07:16:32.058Z</time></trkpt><trkpt lat="40.730335" lon="14.8029817"><ele>476.5</ele><time>2026-04-25T07:16:33.03Z</time></trkpt><trkpt lat="40.7303567" lon="14.8031283"><ele>474.0</ele><time>2026-04-25T07:16:34.03Z</time></trkpt><trkpt lat="40.73038" lon="14.8033"><ele>471.5</ele><time>2026-04-25T07:16:35.03Z</time></trkpt><trkpt lat="40.7304117" lon="14.8034583"><ele>469.0</ele><time>2026-04-25T07:16:36.028Z</time></trkpt><trkpt lat="40.73044" lon="14.8036217"><ele>469.0</ele><time>2026-04-25T07:16:37.035Z</time></trkpt><trkpt lat="40.73046" lon="14.80377"><ele>469.0</ele><time>2026-04-25T07:16:38.052Z</time></trkpt><trkpt lat="40.730465" lon="14.8039017"><ele>469.0</ele><time>2026-04-25T07:16:39.024Z</time></trkpt><trkpt lat="40.7304617" lon="14.804045"><ele>469.0</ele><time>2026-04-25T07:16:40.028Z</time></trkpt><trkpt lat="40.730455" lon="14.8041717"><ele>469.0</ele><time>2026-04-25T07:16:41.038Z</time></trkpt><trkpt lat="40.730465" lon="14.8042933"><ele>471.4</ele><time>2026-04-25T07:16:42.028Z</time></trkpt><trkpt lat="40.73049" lon="14.804415"><ele>473.79999999999995</ele><time>2026-04-25T07:16:43.032Z</time></trkpt><trkpt lat="40.73052" lon="14.8045333"><ele>476.20000000000005</ele><time>2026-04-25T07:16:44.054Z</time></trkpt><trkpt lat="40.73054" lon="14.8046583"><ele>478.6</ele><time>2026-04-25T07:16:45.028Z</time></trkpt><trkpt lat="40.730555" lon="14.8047933"><ele>481.0</ele><time>2026-04-25T07:16:46.025Z</time></trkpt><trkpt lat="40.7305683" lon="14.8049367"><ele>481.0</ele><time>2026-04-25T07:16:47.036Z</time></trkpt><trkpt lat="40.730575" lon="14.8050917"><ele>481.0</ele><time>2026-04-25T07:16:48.029Z</time></trkpt><trkpt lat="40.7305783" lon="14.805265"><ele>481.0</ele><time>2026-04-25T07:16:49.029Z</time></trkpt><trkpt lat="40.730585" lon="14.80544"><ele>481.0</ele><time>2026-04-25T07:16:50.056Z</time></trkpt><trkpt lat="40.7305933" lon="14.8056"><ele>484.4</ele><time>2026-04-25T07:16:51.04Z</time></trkpt><trkpt lat="40.7306067" lon="14.8057433"><ele>487.8</ele><time>2026-04-25T07:16:52.03Z</time></trkpt><trkpt lat="40.7306233" lon="14.8058633"><ele>491.19999999999993</ele><time>2026-04-25T07:16:53.031Z</time></trkpt><trkpt lat="40.7306917" lon="14.8058517"><ele>494.59999999999997</ele><time>2026-04-25T07:16:54.026Z</time></trkpt><trkpt lat="40.7307567" lon="14.805855"><ele>498.0</ele><time>2026-04-25T07:16:55.031Z</time></trkpt><trkpt lat="40.7308767" lon="14.805825"><ele>498.0</ele><time>2026-04-25T07:16:57.03Z</time></trkpt><trkpt lat="40.73094" lon="14.80582"><ele>498.0</ele><time>2026-04-25T07:16:58.03Z</time></trkpt><trkpt lat="40.73101" lon="14.80583"><ele>498.0</ele><time>2026-04-25T07:16:59.033Z</time></trkpt><trkpt lat="40.7310783" lon="14.8058517"><ele>498.0</ele><time>2026-04-25T07:17:00.024Z</time></trkpt><trkpt lat="40.7311417" lon="14.8058933"><ele>498.0</ele><time>2026-04-25T07:17:01.034Z</time></trkpt><trkpt lat="40.7312083" lon="14.8059767"><ele>498.0</ele><time>2026-04-25T07:17:02.071Z</time></trkpt><trkpt lat="40.731285" lon="14.8060817"><ele>504.25</ele><time>2026-04-25T07:17:03.025Z</time></trkpt><trkpt lat="40.7313717" lon="14.806205"><ele>510.5</ele><time>2026-04-25T07:17:04.031Z</time></trkpt><trkpt lat="40.7314483" lon="14.806355"><ele>516.75</ele><time>2026-04-25T07:17:05.033Z</time></trkpt><trkpt lat="40.7315183" lon="14.8064933"><ele>523.0</ele><time>2026-04-25T07:17:06.027Z</time></trkpt><trkpt lat="40.731585" lon="14.8066117"><ele>523.0</ele><time>2026-04-25T07:17:07.033Z</time></trkpt><trkpt lat="40.7316417" lon="14.8067217"><ele>523.0</ele><time>2026-04-25T07:17:08.052Z</time></trkpt><trkpt lat="40.7316967" lon="14.8068117"><ele>523.0</ele><time>2026-04-25T07:17:09.023Z</time></trkpt><trkpt lat="40.7317517" lon="14.8069033"><ele>523.0</ele><time>2026-04-25T07:17:10.022Z</time></trkpt><trkpt lat="40.7318133" lon="14.8069933"><ele>523.0</ele><time>2026-04-25T07:17:11.024Z</time></trkpt><trkpt lat="40.73187" lon="14.80707"><ele>528.3333333333334</ele><time>2026-04-25T07:17:12.026Z</time></trkpt><trkpt lat="40.7319133" lon="14.8071583"><ele>533.6666666666667</ele><time>2026-04-25T07:17:13.026Z</time></trkpt><trkpt lat="40.7319583" lon="14.8072583"><ele>539.0</ele><time>2026-04-25T07:17:15.023Z</time></trkpt><trkpt lat="40.732035" lon="14.80729"><ele>544.3333333333334</ele><time>2026-04-25T07:17:17.035Z</time></trkpt><trkpt lat="40.7321083" lon="14.8072083"><ele>549.6666666666666</ele><time>2026-04-25T07:17:19.034Z</time></trkpt><trkpt lat="40.7322017" lon="14.807175"><ele>555.0</ele><time>2026-04-25T07:17:21.031Z</time></trkpt><trkpt lat="40.7322683" lon="14.8071767"><ele>555.0</ele><time>2026-04-25T07:17:22.026Z</time></trkpt><trkpt lat="40.73237" lon="14.8071867"><ele>555.0</ele><time>2026-04-25T07:17:24.03Z</time></trkpt><trkpt lat="40.7324317" lon="14.80715"><ele>555.0</ele><time>2026-04-25T07:17:26.088Z</time></trkpt><trkpt lat="40.7324183" lon="14.8070033"><ele>555.0</ele><time>2026-04-25T07:17:28.028Z</time></trkpt><trkpt lat="40.732345" lon="14.8068583"><ele>555.0</ele><time>2026-04-25T07:17:29.036Z</time></trkpt><trkpt lat="40.7323083" lon="14.8067433"><ele>553.8</ele><time>2026-04-25T07:17:30.033Z</time></trkpt><trkpt lat="40.7322783" lon="14.806635"><ele>552.6</ele><time>2026-04-25T07:17:31.029Z</time></trkpt><trkpt lat="40.73226" lon="14.8065083"><ele>551.4</ele><time>2026-04-25T07:17:32.062Z</time></trkpt><trkpt lat="40.7322617" lon="14.8064033"><ele>550.2</ele><time>2026-04-25T07:17:33.027Z</time></trkpt><trkpt lat="40.7322433" lon="14.806245"><ele>549.0</ele><time>2026-04-25T07:17:35.024Z</time></trkpt><trkpt lat="40.732245" lon="14.8061033"><ele>549.6</ele><time>2026-04-25T07:17:37.034Z</time></trkpt><trkpt lat="40.73225" lon="14.8059167"><ele>550.2</ele><time>2026-04-25T07:17:39.027Z</time></trkpt><trkpt lat="40.7322533" lon="14.80582"><ele>550.8000000000001</ele><time>2026-04-25T07:17:40.032Z</time></trkpt><trkpt lat="40.732305" lon="14.805695"><ele>551.4</ele><time>2026-04-25T07:17:42.023Z</time></trkpt><trkpt lat="40.7323583" lon="14.805645"><ele>552.0</ele><time>2026-04-25T07:17:43.033Z</time></trkpt><trkpt lat="40.7324333" lon="14.8055917"><ele>552.0</ele><time>2026-04-25T07:17:44.053Z</time></trkpt><trkpt lat="40.732505" lon="14.8055267"><ele>552.0</ele><time>2026-04-25T07:17:45.026Z</time></trkpt><trkpt lat="40.7325717" lon="14.8054667"><ele>552.0</ele><time>2026-04-25T07:17:46.032Z</time></trkpt><trkpt lat="40.7326283" lon="14.8054167"><ele>552.0</ele><time>2026-04-25T07:17:47.034Z</time></trkpt><trkpt lat="40.7327333" lon="14.8053717"><ele>552.0</ele><time>2026-04-25T07:17:49.031Z</time></trkpt><trkpt lat="40.7328483" lon="14.80541"><ele>554.4</ele><time>2026-04-25T07:17:51.027Z</time></trkpt><trkpt lat="40.7329117" lon="14.805465"><ele>556.8000000000001</ele><time>2026-04-25T07:17:52.027Z</time></trkpt><trkpt lat="40.732985" lon="14.8055317"><ele>559.2</ele><time>2026-04-25T07:17:53.033Z</time></trkpt><trkpt lat="40.7330617" lon="14.8056133"><ele>561.6</ele><time>2026-04-25T07:17:54.03Z</time></trkpt><trkpt lat="40.7331383" lon="14.8056883"><ele>564.0</ele><time>2026-04-25T07:17:55.029Z</time></trkpt><trkpt lat="40.7332133" lon="14.80577"><ele>564.0</ele><time>2026-04-25T07:17:56.058Z</time></trkpt><trkpt lat="40.733295" lon="14.8058417"><ele>564.0</ele><time>2026-04-25T07:17:57.026Z</time></trkpt><trkpt lat="40.7333833" lon="14.8059117"><ele>564.0</ele><time>2026-04-25T07:17:58.025Z</time></trkpt><trkpt lat="40.7334817" lon="14.805975"><ele>564.0</ele><time>2026-04-25T07:17:59.031Z</time></trkpt><trkpt lat="40.7335717" lon="14.806035"><ele>564.0</ele><time>2026-04-25T07:18:00.036Z</time></trkpt><trkpt lat="40.7336567" lon="14.8060967"><ele>566.8333333333334</ele><time>2026-04-25T07:18:01.033Z</time></trkpt><trkpt lat="40.7337233" lon="14.8061533"><ele>569.6666666666666</ele><time>2026-04-25T07:18:02.055Z</time></trkpt><trkpt lat="40.7338183" lon="14.8061733"><ele>572.5</ele><time>2026-04-25T07:18:04.029Z</time></trkpt><trkpt lat="40.7338567" lon="14.8060867"><ele>575.3333333333333</ele><time>2026-04-25T07:18:05.036Z</time></trkpt><trkpt lat="40.7338967" lon="14.806005"><ele>578.1666666666666</ele><time>2026-04-25T07:18:06.028Z</time></trkpt><trkpt lat="40.73392" lon="14.805895"><ele>581.0</ele><time>2026-04-25T07:18:07.038Z</time></trkpt><trkpt lat="40.73395" lon="14.8057833"><ele>581.0</ele><time>2026-04-25T07:18:08.055Z</time></trkpt><trkpt lat="40.7339783" lon="14.8056733"><ele>581.0</ele><time>2026-04-25T07:18:09.027Z</time></trkpt><trkpt lat="40.7340067" lon="14.805555"><ele>581.0</ele><time>2026-04-25T07:18:10.028Z</time></trkpt><trkpt lat="40.7340333" lon="14.8054283"><ele>581.0</ele><time>2026-04-25T07:18:11.031Z</time></trkpt><trkpt lat="40.7340533" lon="14.805305"><ele>581.0</ele><time>2026-04-25T07:18:12.028Z</time></trkpt><trkpt lat="40.734065" lon="14.805205"><ele>578.8333333333333</ele><time>2026-04-25T07:18:13.033Z</time></trkpt><trkpt lat="40.73408" lon="14.8051083"><ele>576.6666666666666</ele><time>2026-04-25T07:18:14.056Z</time></trkpt><trkpt lat="40.734105" lon="14.8050083"><ele>574.5</ele><time>2026-04-25T07:18:15.027Z</time></trkpt><trkpt lat="40.7341533" lon="14.8049183"><ele>572.3333333333334</ele><time>2026-04-25T07:18:16.028Z</time></trkpt><trkpt lat="40.734205" lon="14.80483"><ele>570.1666666666667</ele><time>2026-04-25T07:18:17.034Z</time></trkpt><trkpt lat="40.7342583" lon="14.8047583"><ele>568.0</ele><time>2026-04-25T07:18:18.027Z</time></trkpt><trkpt lat="40.734335" lon="14.8047467"><ele>568.0</ele><time>2026-04-25T07:18:20.06Z</time></trkpt><trkpt lat="40.7343417" lon="14.804865"><ele>568.0</ele><time>2026-04-25T07:18:22.025Z</time></trkpt><trkpt lat="40.7342917" lon="14.8049533"><ele>568.0</ele><time>2026-04-25T07:18:24.03Z</time></trkpt><trkpt lat="40.7342467" lon="14.8050183"><ele>568.0</ele><time>2026-04-25T07:18:25.036Z</time></trkpt><trkpt lat="40.7341933" lon="14.805175"><ele>568.0</ele><time>2026-04-25T07:18:27.025Z</time></trkpt><trkpt lat="40.7341983" lon="14.8052867"><ele>571.25</ele><time>2026-04-25T07:18:28.024Z</time></trkpt><trkpt lat="40.7342067" lon="14.80542"><ele>574.5</ele><time>2026-04-25T07:18:29.036Z</time></trkpt><trkpt lat="40.7342283" lon="14.8055833"><ele>577.75</ele><time>2026-04-25T07:18:30.03Z</time></trkpt><trkpt lat="40.7342433" lon="14.805785"><ele>581.0</ele><time>2026-04-25T07:18:31.034Z</time></trkpt><trkpt lat="40.73425" lon="14.8059733"><ele>585.6666666666666</ele><time>2026-04-25T07:18:32.053Z</time></trkpt><trkpt lat="40.734245" lon="14.8061417"><ele>590.3333333333333</ele><time>2026-04-25T07:18:33.028Z</time></trkpt><trkpt lat="40.734235" lon="14.806265"><ele>595.0</ele><time>2026-04-25T07:18:34.026Z</time></trkpt><trkpt lat="40.734225" lon="14.8063733"><ele>599.6666666666666</ele><time>2026-04-25T07:18:35.036Z</time></trkpt><trkpt lat="40.734225" lon="14.80646"><ele>604.3333333333334</ele><time>2026-04-25T07:18:36.019Z</time></trkpt><trkpt lat="40.7342567" lon="14.806555"><ele>609.0</ele><time>2026-04-25T07:18:38.058Z</time></trkpt><trkpt lat="40.7342317" lon="14.8066617"><ele>609.0</ele><time>2026-04-25T07:18:41.028Z</time></trkpt><trkpt lat="40.73414" lon="14.80672"><ele>609.0</ele><time>2026-04-25T07:18:43.033Z</time></trkpt><trkpt lat="40.73407" lon="14.8067233"><ele>609.0</ele><time>2026-04-25T07:18:44.057Z</time></trkpt><trkpt lat="40.73396" lon="14.8066767"><ele>609.0</ele><time>2026-04-25T07:18:45.03Z</time></trkpt><trkpt lat="40.7338583" lon="14.8066533"><ele>609.0</ele><time>2026-04-25T07:18:46.031Z</time></trkpt><trkpt lat="40.733755" lon="14.80662"><ele>609.0</ele><time>2026-04-25T07:18:47.026Z</time></trkpt><trkpt lat="40.733655" lon="14.8066117"><ele>609.0</ele><time>2026-04-25T07:18:48.028Z</time></trkpt><trkpt lat="40.733575" lon="14.8066083"><ele>609.0</ele><time>2026-04-25T07:18:49.017Z</time></trkpt><trkpt lat="40.7335117" lon="14.8066117"><ele>609.0</ele><time>2026-04-25T07:18:50.067Z</time></trkpt><trkpt lat="40.73344" lon="14.8066817"><ele>609.0</ele><time>2026-04-25T07:18:52.028Z</time></trkpt><trkpt lat="40.7334317" lon="14.806815"><ele>609.0</ele><time>2026-04-25T07:18:54.028Z</time></trkpt><trkpt lat="40.733465" lon="14.8069167"><ele>606.4</ele><time>2026-04-25T07:18:55.029Z</time></trkpt><trkpt lat="40.733505" lon="14.8070317"><ele>603.8</ele><time>2026-04-25T07:18:56.051Z</time></trkpt><trkpt lat="40.7335667" lon="14.8071517"><ele>601.2</ele><time>2026-04-25T07:18:57.028Z</time></trkpt><trkpt lat="40.7336283" lon="14.807265"><ele>598.6</ele><time>2026-04-25T07:18:58.024Z</time></trkpt><trkpt lat="40.73368" lon="14.80737"><ele>596.0</ele><time>2026-04-25T07:18:59.03Z</time></trkpt><trkpt lat="40.7337333" lon="14.8074717"><ele>602.6666666666666</ele><time>2026-04-25T07:19:00.027Z</time></trkpt><trkpt lat="40.733775" lon="14.8075683"><ele>609.3333333333333</ele><time>2026-04-25T07:19:01.034Z</time></trkpt><trkpt lat="40.7338" lon="14.8076533"><ele>616.0</ele><time>2026-04-25T07:19:02.06Z</time></trkpt><trkpt lat="40.73377" lon="14.807775"><ele>622.6666666666666</ele><time>2026-04-25T07:19:04.029Z</time></trkpt><trkpt lat="40.7336933" lon="14.8078983"><ele>629.3333333333334</ele><time>2026-04-25T07:19:06.029Z</time></trkpt><trkpt lat="40.7336617" lon="14.8079867"><ele>636.0</ele><time>2026-04-25T07:19:07.026Z</time></trkpt><trkpt lat="40.7336183" lon="14.8080883"><ele>633.0</ele><time>2026-04-25T07:19:08.055Z</time></trkpt><trkpt lat="40.7335667" lon="14.8082"><ele>630.0</ele><time>2026-04-25T07:19:09.034Z</time></trkpt><trkpt lat="40.7334883" lon="14.8082617"><ele>627.0</ele><time>2026-04-25T07:19:10.029Z</time></trkpt><trkpt lat="40.7333867" lon="14.8082983"><ele>624.0</ele><time>2026-04-25T07:19:11.035Z</time></trkpt><trkpt lat="40.7332817" lon="14.8083233"><ele>621.0</ele><time>2026-04-25T07:19:12.028Z</time></trkpt><trkpt lat="40.733185" lon="14.8083383"><ele>621.0</ele><time>2026-04-25T07:19:13.033Z</time></trkpt><trkpt lat="40.7331017" lon="14.8083617"><ele>621.0</ele><time>2026-04-25T07:19:14.06Z</time></trkpt><trkpt lat="40.7330283" lon="14.8084"><ele>621.0</ele><time>2026-04-25T07:19:15.034Z</time></trkpt><trkpt lat="40.7329883" lon="14.808485"><ele>621.0</ele><time>2026-04-25T07:19:16.031Z</time></trkpt><trkpt lat="40.7329467" lon="14.8085633"><ele>621.0</ele><time>2026-04-25T07:19:17.029Z</time></trkpt><trkpt lat="40.73297" lon="14.8086833"><ele>621.0</ele><time>2026-04-25T07:19:18.025Z</time></trkpt><trkpt lat="40.732995" lon="14.808805"><ele>626.3333333333334</ele><time>2026-04-25T07:19:19.028Z</time></trkpt><trkpt lat="40.733025" lon="14.80892"><ele>631.6666666666666</ele><time>2026-04-25T07:19:20.055Z</time></trkpt><trkpt lat="40.7330467" lon="14.8090283"><ele>637.0</ele><time>2026-04-25T07:19:21.03Z</time></trkpt><trkpt lat="40.733055" lon="14.8091333"><ele>642.3333333333333</ele><time>2026-04-25T07:19:22.028Z</time></trkpt><trkpt lat="40.7330467" lon="14.809235"><ele>647.6666666666666</ele><time>2026-04-25T07:19:23.032Z</time></trkpt><trkpt lat="40.7330233" lon="14.8093267"><ele>653.0</ele><time>2026-04-25T07:19:24.027Z</time></trkpt><trkpt lat="40.7329833" lon="14.8094133"><ele>655.8</ele><time>2026-04-25T07:19:25.032Z</time></trkpt><trkpt lat="40.7329567" lon="14.8095217"><ele>658.5999999999999</ele><time>2026-04-25T07:19:26.07Z</time></trkpt><trkpt lat="40.7329117" lon="14.8096383"><ele>661.4000000000001</ele><time>2026-04-25T07:19:27.032Z</time></trkpt><trkpt lat="40.7328633" lon="14.8097417"><ele>664.2</ele><time>2026-04-25T07:19:28.031Z</time></trkpt><trkpt lat="40.7328133" lon="14.8098333"><ele>667.0</ele><time>2026-04-25T07:19:29.031Z</time></trkpt><trkpt lat="40.732725" lon="14.8098683"><ele>663.4000000000001</ele><time>2026-04-25T07:19:30.032Z</time></trkpt><trkpt lat="40.732645" lon="14.8098917"><ele>659.8000000000001</ele><time>2026-04-25T07:19:31.033Z</time></trkpt><trkpt lat="40.73256" lon="14.8098967"><ele>656.2</ele><time>2026-04-25T07:19:32.055Z</time></trkpt><trkpt lat="40.732455" lon="14.8098917"><ele>652.6</ele><time>2026-04-25T07:19:33.023Z</time></trkpt><trkpt lat="40.7323467" lon="14.8099083"><ele>649.0</ele><time>2026-04-25T07:19:34.026Z</time></trkpt><trkpt lat="40.7322417" lon="14.8099533"><ele>649.0</ele><time>2026-04-25T07:19:35.033Z</time></trkpt><trkpt lat="40.732135" lon="14.8100167"><ele>649.0</ele><time>2026-04-25T07:19:36.027Z</time></trkpt><trkpt lat="40.73203" lon="14.8100883"><ele>649.0</ele><time>2026-04-25T07:19:37.036Z</time></trkpt><trkpt lat="40.731935" lon="14.8101583"><ele>649.0</ele><time>2026-04-25T07:19:38.056Z</time></trkpt><trkpt lat="40.7318533" lon="14.8102283"><ele>649.0</ele><time>2026-04-25T07:19:39.032Z</time></trkpt><trkpt lat="40.7317783" lon="14.8102917"><ele>648.3333333333334</ele><time>2026-04-25T07:19:40.03Z</time></trkpt><trkpt lat="40.7317017" lon="14.810335"><ele>647.6666666666667</ele><time>2026-04-25T07:19:41.03Z</time></trkpt><trkpt lat="40.7316333" lon="14.8103517"><ele>647.0</ele><time>2026-04-25T07:19:42.031Z</time></trkpt><trkpt lat="40.73152" lon="14.8103183"><ele>646.3333333333334</ele><time>2026-04-25T07:19:44.06Z</time></trkpt><trkpt lat="40.73147" lon="14.8102367"><ele>645.6666666666666</ele><time>2026-04-25T07:19:45.034Z</time></trkpt><trkpt lat="40.7314383" lon="14.81015"><ele>645.0</ele><time>2026-04-25T07:19:46.026Z</time></trkpt><trkpt lat="40.7313533" lon="14.8100583"><ele>645.0</ele><time>2026-04-25T07:19:48.031Z</time></trkpt><trkpt lat="40.7312767" lon="14.81005"><ele>645.0</ele><time>2026-04-25T07:19:50.057Z</time></trkpt><trkpt lat="40.7312183" lon="14.8101917"><ele>645.0</ele><time>2026-04-25T07:19:52.029Z</time></trkpt><trkpt lat="40.7311767" lon="14.8103117"><ele>645.0</ele><time>2026-04-25T07:19:53.023Z</time></trkpt><trkpt lat="40.7311167" lon="14.81043"><ele>645.0</ele><time>2026-04-25T07:19:54.027Z</time></trkpt><trkpt lat="40.7310533" lon="14.8105167"><ele>650.6</ele><time>2026-04-25T07:19:55.027Z</time></trkpt><trkpt lat="40.7309817" lon="14.8105833"><ele>656.2</ele><time>2026-04-25T07:19:56.085Z</time></trkpt><trkpt lat="40.7308917" lon="14.8106533"><ele>661.8</ele><time>2026-04-25T07:19:57.022Z</time></trkpt><trkpt lat="40.7307983" lon="14.8107"><ele>667.4</ele><time>2026-04-25T07:19:58.028Z</time></trkpt><trkpt lat="40.7306967" lon="14.8107417"><ele>673.0</ele><time>2026-04-25T07:19:59.024Z</time></trkpt><trkpt lat="40.7305883" lon="14.81078"><ele>673.0</ele><time>2026-04-25T07:20:00.026Z</time></trkpt><trkpt lat="40.73048" lon="14.8108283"><ele>673.0</ele><time>2026-04-25T07:20:01.03Z</time></trkpt><trkpt lat="40.7303733" lon="14.8108583"><ele>673.0</ele><time>2026-04-25T07:20:02.052Z</time></trkpt><trkpt lat="40.730285" lon="14.8108867"><ele>673.0</ele><time>2026-04-25T07:20:03.026Z</time></trkpt><trkpt lat="40.7302133" lon="14.81092"><ele>673.0</ele><time>2026-04-25T07:20:04.029Z</time></trkpt><trkpt lat="40.7301467" lon="14.8109717"><ele>673.6666666666667</ele><time>2026-04-25T07:20:05.033Z</time></trkpt><trkpt lat="40.730075" lon="14.8110133"><ele>674.3333333333334</ele><time>2026-04-25T07:20:06.044Z</time></trkpt><trkpt lat="40.7299917" lon="14.8110417"><ele>675.0</ele><time>2026-04-25T07:20:07.033Z</time></trkpt><trkpt lat="40.7299117" lon="14.8110533"><ele>675.6666666666666</ele><time>2026-04-25T07:20:08.065Z</time></trkpt><trkpt lat="40.7298383" lon="14.81109"><ele>676.3333333333333</ele><time>2026-04-25T07:20:09.026Z</time></trkpt><trkpt lat="40.729775" lon="14.8111433"><ele>677.0</ele><time>2026-04-25T07:20:10.03Z</time></trkpt><trkpt lat="40.7297117" lon="14.8111867"><ele>677.0</ele><time>2026-04-25T07:20:11.03Z</time></trkpt><trkpt lat="40.72966" lon="14.81124"><ele>677.0</ele><time>2026-04-25T07:20:12.028Z</time></trkpt><trkpt lat="40.7296017" lon="14.8113833"><ele>677.0</ele><time>2026-04-25T07:20:14.06Z</time></trkpt><trkpt lat="40.729645" lon="14.8115"><ele>677.0</ele><time>2026-04-25T07:20:16.028Z</time></trkpt><trkpt lat="40.72971" lon="14.8115133"><ele>677.0</ele><time>2026-04-25T07:20:18.031Z</time></trkpt><trkpt lat="40.7297817" lon="14.8115117"><ele>677.0</ele><time>2026-04-25T07:21:51.02Z</time></trkpt><trkpt lat="40.7298883" lon="14.8114383"><ele>677.0</ele><time>2026-04-25T07:21:53.036Z</time></trkpt><trkpt lat="40.7299833" lon="14.8113917"><ele>677.0</ele><time>2026-04-25T07:21:54.03Z</time></trkpt><trkpt lat="40.7300983" lon="14.811345"><ele>677.0</ele><time>2026-04-25T07:21:55.04Z</time></trkpt><trkpt lat="40.7302117" lon="14.811305"><ele>677.0</ele><time>2026-04-25T07:21:56.08Z</time></trkpt><trkpt lat="40.7303167" lon="14.8112667"><ele>677.0</ele><time>2026-04-25T07:21:57.019Z</time></trkpt><trkpt lat="40.7304117" lon="14.8112333"><ele>676.6666666666666</ele><time>2026-04-25T07:21:58.025Z</time></trkpt><trkpt lat="40.730495" lon="14.811205"><ele>676.3333333333333</ele><time>2026-04-25T07:21:59.025Z</time></trkpt><trkpt lat="40.7305733" lon="14.8111833"><ele>676.0</ele><time>2026-04-25T07:22:00.02Z</time></trkpt><trkpt lat="40.7306583" lon="14.8111667"><ele>675.6666666666666</ele><time>2026-04-25T07:22:01.027Z</time></trkpt><trkpt lat="40.7307383" lon="14.811145"><ele>675.3333333333334</ele><time>2026-04-25T07:22:02.025Z</time></trkpt><trkpt lat="40.7308117" lon="14.811125"><ele>675.0</ele><time>2026-04-25T07:22:03.025Z</time></trkpt><trkpt lat="40.730875" lon="14.8111117"><ele>675.0</ele><time>2026-04-25T07:22:04.03Z</time></trkpt><trkpt lat="40.7310033" lon="14.811075"><ele>675.0</ele><time>2026-04-25T07:22:06.022Z</time></trkpt><trkpt lat="40.73108" lon="14.8110417"><ele>675.0</ele><time>2026-04-25T07:22:07.03Z</time></trkpt><trkpt lat="40.7311583" lon="14.8110067"><ele>675.0</ele><time>2026-04-25T07:22:08.048Z</time></trkpt><trkpt lat="40.731235" lon="14.8109883"><ele>675.0</ele><time>2026-04-25T07:22:09.024Z</time></trkpt><trkpt lat="40.73131" lon="14.810975"><ele>675.0</ele><time>2026-04-25T07:22:10.034Z</time></trkpt><trkpt lat="40.731385" lon="14.8109783"><ele>676.0</ele><time>2026-04-25T07:22:11.029Z</time></trkpt><trkpt lat="40.73146" lon="14.8110067"><ele>677.0</ele><time>2026-04-25T07:22:12.024Z</time></trkpt><trkpt lat="40.7315383" lon="14.8110167"><ele>678.0</ele><time>2026-04-25T07:22:13.029Z</time></trkpt><trkpt lat="40.7316183" lon="14.81101"><ele>679.0</ele><time>2026-04-25T07:22:14.051Z</time></trkpt><trkpt lat="40.731705" lon="14.8109967"><ele>680.0</ele><time>2026-04-25T07:22:15.027Z</time></trkpt><trkpt lat="40.7317833" lon="14.810975"><ele>681.0</ele><time>2026-04-25T07:22:16.023Z</time></trkpt><trkpt lat="40.73186" lon="14.8109517"><ele>679.5</ele><time>2026-04-25T07:22:17.027Z</time></trkpt><trkpt lat="40.7319317" lon="14.8109417"><ele>678.0</ele><time>2026-04-25T07:22:18.026Z</time></trkpt><trkpt lat="40.7320017" lon="14.8109367"><ele>676.5</ele><time>2026-04-25T07:22:19.021Z</time></trkpt><trkpt lat="40.7321283" lon="14.8109067"><ele>675.0</ele><time>2026-04-25T07:22:21.026Z</time></trkpt><trkpt lat="40.732195" lon="14.81088"><ele>673.5</ele><time>2026-04-25T07:22:22.024Z</time></trkpt><trkpt lat="40.7322567" lon="14.810835"><ele>672.0</ele><time>2026-04-25T07:22:23.025Z</time></trkpt><trkpt lat="40.732315" lon="14.8108017"><ele>672.0</ele><time>2026-04-25T07:22:24.022Z</time></trkpt><trkpt lat="40.7324367" lon="14.810765"><ele>672.0</ele><time>2026-04-25T07:22:26.085Z</time></trkpt><trkpt lat="40.7325167" lon="14.8107667"><ele>672.0</ele><time>2026-04-25T07:22:27.025Z</time></trkpt><trkpt lat="40.73261" lon="14.8107633"><ele>672.0</ele><time>2026-04-25T07:22:28.032Z</time></trkpt><trkpt lat="40.7327017" lon="14.8107567"><ele>672.0</ele><time>2026-04-25T07:22:29.033Z</time></trkpt><trkpt lat="40.7327867" lon="14.8107367"><ele>671.0</ele><time>2026-04-25T07:22:30.02Z</time></trkpt><trkpt lat="40.7328667" lon="14.8107267"><ele>670.0</ele><time>2026-04-25T07:22:31.027Z</time></trkpt><trkpt lat="40.7329433" lon="14.8107167"><ele>669.0</ele><time>2026-04-25T07:22:32.027Z</time></trkpt><trkpt lat="40.7330167" lon="14.8107233"><ele>668.0</ele><time>2026-04-25T07:22:33.032Z</time></trkpt><trkpt lat="40.733095" lon="14.8107383"><ele>667.0</ele><time>2026-04-25T07:22:34.029Z</time></trkpt><trkpt lat="40.7331717" lon="14.81076"><ele>666.0</ele><time>2026-04-25T07:22:35.034Z</time></trkpt><trkpt lat="40.7332483" lon="14.8107733"><ele>666.0</ele><time>2026-04-25T07:22:36.027Z</time></trkpt><trkpt lat="40.7333283" lon="14.8107667"><ele>666.0</ele><time>2026-04-25T07:22:37.022Z</time></trkpt><trkpt lat="40.7334083" lon="14.8107433"><ele>666.0</ele><time>2026-04-25T07:22:38.055Z</time></trkpt><trkpt lat="40.733475" lon="14.810705"><ele>666.0</ele><time>2026-04-25T07:22:39.03Z</time></trkpt><trkpt lat="40.7335283" lon="14.81066"><ele>666.0</ele><time>2026-04-25T07:22:40.027Z</time></trkpt><trkpt lat="40.733585" lon="14.81061"><ele>666.0</ele><time>2026-04-25T07:22:41.035Z</time></trkpt><trkpt lat="40.7336417" lon="14.8105583"><ele>666.0</ele><time>2026-04-25T07:22:42.028Z</time></trkpt><trkpt lat="40.7337" lon="14.8105117"><ele>663.8</ele><time>2026-04-25T07:22:43.033Z</time></trkpt><trkpt lat="40.7337717" lon="14.81049"><ele>661.5999999999999</ele><time>2026-04-25T07:22:44.056Z</time></trkpt><trkpt lat="40.7338467" lon="14.8104817"><ele>659.4</ele><time>2026-04-25T07:22:45.019Z</time></trkpt><trkpt lat="40.733945" lon="14.8104517"><ele>657.2</ele><time>2026-04-25T07:22:46.023Z</time></trkpt><trkpt lat="40.73405" lon="14.8104083"><ele>655.0</ele><time>2026-04-25T07:22:47.032Z</time></trkpt><trkpt lat="40.7341617" lon="14.810355"><ele>655.0</ele><time>2026-04-25T07:22:48.028Z</time></trkpt><trkpt lat="40.7342567" lon="14.8103067"><ele>655.0</ele><time>2026-04-25T07:22:49.032Z</time></trkpt><trkpt lat="40.7343417" lon="14.8103117"><ele>655.0</ele><time>2026-04-25T07:22:50.052Z</time></trkpt><trkpt lat="40.7344117" lon="14.8103267"><ele>655.0</ele><time>2026-04-25T07:22:51.029Z</time></trkpt><trkpt lat="40.7345133" lon="14.810405"><ele>655.0</ele><time>2026-04-25T07:22:52.036Z</time></trkpt><trkpt lat="40.7345817" lon="14.8104117"><ele>655.0</ele><time>2026-04-25T07:22:53.033Z</time></trkpt><trkpt lat="40.7346517" lon="14.81041"><ele>653.3333333333334</ele><time>2026-04-25T07:22:54.026Z</time></trkpt><trkpt lat="40.7347417" lon="14.8103567"><ele>651.6666666666667</ele><time>2026-04-25T07:22:56.029Z</time></trkpt><trkpt lat="40.7348017" lon="14.8102567"><ele>650.0</ele><time>2026-04-25T07:22:58.021Z</time></trkpt><trkpt lat="40.7348217" lon="14.8101617"><ele>648.3333333333334</ele><time>2026-04-25T07:22:59.031Z</time></trkpt><trkpt lat="40.734855" lon="14.8100867"><ele>646.6666666666666</ele><time>2026-04-25T07:23:00.026Z</time></trkpt><trkpt lat="40.7349333" lon="14.8099833"><ele>645.0</ele><time>2026-04-25T07:23:02.023Z</time></trkpt><trkpt lat="40.7349933" lon="14.8099333"><ele>644.4</ele><time>2026-04-25T07:23:03.028Z</time></trkpt><trkpt lat="40.7350717" lon="14.8099633"><ele>643.8</ele><time>2026-04-25T07:23:04.028Z</time></trkpt><trkpt lat="40.73517" lon="14.8100333"><ele>643.2</ele><time>2026-04-25T07:23:05.025Z</time></trkpt><trkpt lat="40.735255" lon="14.8101167"><ele>642.6</ele><time>2026-04-25T07:23:06.033Z</time></trkpt><trkpt lat="40.7353283" lon="14.81018"><ele>642.0</ele><time>2026-04-25T07:23:07.04Z</time></trkpt><trkpt lat="40.73541" lon="14.8102567"><ele>642.0</ele><time>2026-04-25T07:23:09.024Z</time></trkpt><trkpt lat="40.735415" lon="14.810345"><ele>642.0</ele><time>2026-04-25T07:23:19.034Z</time></trkpt><trkpt lat="40.7354583" lon="14.8104567"><ele>642.0</ele><time>2026-04-25T07:23:21.037Z</time></trkpt><trkpt lat="40.7355117" lon="14.8105067"><ele>642.0</ele><time>2026-04-25T07:23:22.035Z</time></trkpt><trkpt lat="40.73561" lon="14.8106083"><ele>642.0</ele><time>2026-04-25T07:23:24.027Z</time></trkpt><trkpt lat="40.7356633" lon="14.810665"><ele>642.0</ele><time>2026-04-25T07:23:25.036Z</time></trkpt><trkpt lat="40.7357567" lon="14.8107283"><ele>642.0</ele><time>2026-04-25T07:23:27.03Z</time></trkpt><trkpt lat="40.7358817" lon="14.8107483"><ele>642.0</ele><time>2026-04-25T07:23:29.03Z</time></trkpt><trkpt lat="40.7359533" lon="14.810725"><ele>642.0</ele><time>2026-04-25T07:23:30.028Z</time></trkpt><trkpt lat="40.7360167" lon="14.8107"><ele>642.0</ele><time>2026-04-25T07:23:31.032Z</time></trkpt><trkpt lat="40.7360817" lon="14.81068"><ele>642.0</ele><time>2026-04-25T07:23:32.028Z</time></trkpt><trkpt lat="40.73619" lon="14.8106417"><ele>642.0</ele><time>2026-04-25T07:23:34.025Z</time></trkpt><trkpt lat="40.7362517" lon="14.8106233"><ele>640.5</ele><time>2026-04-25T07:23:35.033Z</time></trkpt><trkpt lat="40.7363133" lon="14.8105933"><ele>639.0</ele><time>2026-04-25T07:23:36.029Z</time></trkpt><trkpt lat="40.7363967" lon="14.8105667"><ele>637.5</ele><time>2026-04-25T07:23:37.033Z</time></trkpt><trkpt lat="40.7364867" lon="14.810535"><ele>636.0</ele><time>2026-04-25T07:23:38.049Z</time></trkpt><trkpt lat="40.7365933" lon="14.8105167"><ele>634.5</ele><time>2026-04-25T07:23:39.025Z</time></trkpt><trkpt lat="40.7366783" lon="14.8105017"><ele>633.0</ele><time>2026-04-25T07:23:40.032Z</time></trkpt><trkpt lat="40.7367683" lon="14.8104817"><ele>633.0</ele><time>2026-04-25T07:23:41.04Z</time></trkpt><trkpt lat="40.7368617" lon="14.81046"><ele>633.0</ele><time>2026-04-25T07:23:42.028Z</time></trkpt><trkpt lat="40.7369533" lon="14.8104567"><ele>633.0</ele><time>2026-04-25T07:23:43.032Z</time></trkpt><trkpt lat="40.73704" lon="14.810485"><ele>633.0</ele><time>2026-04-25T07:23:44.057Z</time></trkpt><trkpt lat="40.737115" lon="14.8105283"><ele>633.0</ele><time>2026-04-25T07:23:45.031Z</time></trkpt><trkpt lat="40.7371667" lon="14.81058"><ele>633.0</ele><time>2026-04-25T07:23:46.025Z</time></trkpt><trkpt lat="40.7372067" lon="14.8106833"><ele>633.8</ele><time>2026-04-25T07:23:47.028Z</time></trkpt><trkpt lat="40.7372433" lon="14.8107867"><ele>634.5999999999999</ele><time>2026-04-25T07:23:48.033Z</time></trkpt><trkpt lat="40.737285" lon="14.8108583"><ele>635.4000000000001</ele><time>2026-04-25T07:23:49.033Z</time></trkpt><trkpt lat="40.737385" lon="14.8109467"><ele>636.2</ele><time>2026-04-25T07:23:51.031Z</time></trkpt><trkpt lat="40.7374967" lon="14.811005"><ele>637.0</ele><time>2026-04-25T07:23:53.02Z</time></trkpt><trkpt lat="40.7375817" lon="14.8110133"><ele>631.2</ele><time>2026-04-25T07:23:54.023Z</time></trkpt><trkpt lat="40.7376533" lon="14.81102"><ele>625.4000000000001</ele><time>2026-04-25T07:23:55.029Z</time></trkpt><trkpt lat="40.73772" lon="14.81105"><ele>619.5999999999999</ele><time>2026-04-25T07:23:56.024Z</time></trkpt><trkpt lat="40.737835" lon="14.81109"><ele>613.8</ele><time>2026-04-25T07:23:58.02Z</time></trkpt><trkpt lat="40.737965" lon="14.8111383"><ele>608.0</ele><time>2026-04-25T07:24:00.028Z</time></trkpt><trkpt lat="40.7380433" lon="14.8111433"><ele>608.0</ele><time>2026-04-25T07:24:01.036Z</time></trkpt><trkpt lat="40.7381233" lon="14.8111417"><ele>608.0</ele><time>2026-04-25T07:24:02.03Z</time></trkpt><trkpt lat="40.738235" lon="14.8111467"><ele>608.0</ele><time>2026-04-25T07:24:04.024Z</time></trkpt><trkpt lat="40.7383183" lon="14.8111533"><ele>608.0</ele><time>2026-04-25T07:24:06.028Z</time></trkpt><trkpt lat="40.73842" lon="14.81115"><ele>608.0</ele><time>2026-04-25T07:24:08.056Z</time></trkpt><trkpt lat="40.738565" lon="14.811155"><ele>609.8333333333333</ele><time>2026-04-25T07:24:10.027Z</time></trkpt><trkpt lat="40.73866" lon="14.81118"><ele>611.6666666666666</ele><time>2026-04-25T07:24:11.033Z</time></trkpt><trkpt lat="40.7387467" lon="14.8111983"><ele>613.5</ele><time>2026-04-25T07:24:12.029Z</time></trkpt><trkpt lat="40.7388233" lon="14.8112217"><ele>615.3333333333334</ele><time>2026-04-25T07:24:13.037Z</time></trkpt><trkpt lat="40.73891" lon="14.81124"><ele>617.1666666666667</ele><time>2026-04-25T07:24:14.056Z</time></trkpt><trkpt lat="40.73899" lon="14.81126"><ele>619.0</ele><time>2026-04-25T07:24:15.031Z</time></trkpt><trkpt lat="40.7390717" lon="14.8113033"><ele>619.0</ele><time>2026-04-25T07:24:16.027Z</time></trkpt><trkpt lat="40.7391683" lon="14.8113333"><ele>619.0</ele><time>2026-04-25T07:24:18.027Z</time></trkpt><trkpt lat="40.7392517" lon="14.8113583"><ele>619.0</ele><time>2026-04-25T07:24:20.065Z</time></trkpt><trkpt lat="40.739325" lon="14.8113867"><ele>619.0</ele><time>2026-04-25T07:24:22.028Z</time></trkpt><trkpt lat="40.7393933" lon="14.8114583"><ele>619.0</ele><time>2026-04-25T07:24:25.035Z</time></trkpt><trkpt lat="40.7393917" lon="14.8115567"><ele>619.0</ele><time>2026-04-25T07:24:28.026Z</time></trkpt><trkpt lat="40.73934" lon="14.81163"><ele>619.0</ele><time>2026-04-25T07:24:30.026Z</time></trkpt><trkpt lat="40.7392417" lon="14.811735"><ele>619.0</ele><time>2026-04-25T07:24:32.024Z</time></trkpt><trkpt lat="40.7391883" lon="14.8118467"><ele>619.0</ele><time>2026-04-25T07:24:34.025Z</time></trkpt><trkpt lat="40.73919" lon="14.81193"><ele>619.0</ele><time>2026-04-25T07:24:36.028Z</time></trkpt><trkpt lat="40.7392633" lon="14.8119233"><ele>619.0</ele><time>2026-04-25T07:24:38.054Z</time></trkpt><trkpt lat="40.739365" lon="14.81194"><ele>621.5</ele><time>2026-04-25T07:24:40.022Z</time></trkpt><trkpt lat="40.7394567" lon="14.81192"><ele>624.0</ele><time>2026-04-25T07:24:42.028Z</time></trkpt><trkpt lat="40.7395233" lon="14.8119083"><ele>626.5</ele><time>2026-04-25T07:24:44.064Z</time></trkpt><trkpt lat="40.7394817" lon="14.811985"><ele>629.0</ele><time>2026-04-25T07:24:48.036Z</time></trkpt><trkpt lat="40.7393783" lon="14.812045"><ele>631.5</ele><time>2026-04-25T07:24:50.054Z</time></trkpt><trkpt lat="40.73931" lon="14.8121283"><ele>634.0</ele><time>2026-04-25T07:24:52.024Z</time></trkpt><trkpt lat="40.7392567" lon="14.812265"><ele>634.0</ele><time>2026-04-25T07:24:54.035Z</time></trkpt><trkpt lat="40.7392117" lon="14.8123317"><ele>634.0</ele><time>2026-04-25T07:24:55.035Z</time></trkpt><trkpt lat="40.7391583" lon="14.8124167"><ele>634.0</ele><time>2026-04-25T07:24:56.088Z</time></trkpt><trkpt lat="40.7391083" lon="14.8125167"><ele>634.0</ele><time>2026-04-25T07:24:57.029Z</time></trkpt><trkpt lat="40.739075" lon="14.812605"><ele>634.0</ele><time>2026-04-25T07:24:58.031Z</time></trkpt><trkpt lat="40.73905" lon="14.81269"><ele>634.0</ele><time>2026-04-25T07:24:59.035Z</time></trkpt><trkpt lat="40.7390383" lon="14.812825"><ele>638.8333333333334</ele><time>2026-04-25T07:25:01.035Z</time></trkpt><trkpt lat="40.7390183" lon="14.8129267"><ele>643.6666666666667</ele><time>2026-04-25T07:25:03.022Z</time></trkpt><trkpt lat="40.7389433" lon="14.81298"><ele>648.5</ele><time>2026-04-25T07:25:05.028Z</time></trkpt><trkpt lat="40.7388583" lon="14.8129333"><ele>653.3333333333334</ele><time>2026-04-25T07:25:06.034Z</time></trkpt><trkpt lat="40.7387717" lon="14.8128933"><ele>658.1666666666666</ele><time>2026-04-25T07:25:07.026Z</time></trkpt><trkpt lat="40.7386883" lon="14.8128767"><ele>663.0</ele><time>2026-04-25T07:25:08.05Z</time></trkpt><trkpt lat="40.7386133" lon="14.8128767"><ele>659.5714285714286</ele><time>2026-04-25T07:25:09.021Z</time></trkpt><trkpt lat="40.7385433" lon="14.812895"><ele>656.1428571428571</ele><time>2026-04-25T07:25:10.03Z</time></trkpt><trkpt lat="40.73848" lon="14.8129283"><ele>652.7142857142858</ele><time>2026-04-25T07:25:11.032Z</time></trkpt><trkpt lat="40.7384183" lon="14.812965"><ele>649.2857142857142</ele><time>2026-04-25T07:25:12.027Z</time></trkpt><trkpt lat="40.7383533" lon="14.813015"><ele>645.8571428571429</ele><time>2026-04-25T07:25:13.024Z</time></trkpt><trkpt lat="40.7382917" lon="14.81307"><ele>642.4285714285714</ele><time>2026-04-25T07:25:14.055Z</time></trkpt><trkpt lat="40.73824" lon="14.8131367"><ele>639.0</ele><time>2026-04-25T07:25:15.029Z</time></trkpt><trkpt lat="40.7382033" lon="14.8132083"><ele>639.0</ele><time>2026-04-25T07:25:16.024Z</time></trkpt><trkpt lat="40.7381683" lon="14.8133533"><ele>639.0</ele><time>2026-04-25T07:25:18.027Z</time></trkpt><trkpt lat="40.7381817" lon="14.81351"><ele>639.0</ele><time>2026-04-25T07:25:20.052Z</time></trkpt><trkpt lat="40.7381783" lon="14.8136417"><ele>639.0</ele><time>2026-04-25T07:25:22.021Z</time></trkpt><trkpt lat="40.73822" lon="14.8135483"><ele>639.0</ele><time>2026-04-25T07:25:28.029Z</time></trkpt><trkpt lat="40.7382367" lon="14.81345"><ele>639.0</ele><time>2026-04-25T07:25:29.033Z</time></trkpt><trkpt lat="40.7382933" lon="14.813305"><ele>639.0</ele><time>2026-04-25T07:25:31.029Z</time></trkpt><trkpt lat="40.73834" lon="14.8132433"><ele>639.0</ele><time>2026-04-25T07:25:32.033Z</time></trkpt><trkpt lat="40.7384067" lon="14.8131883"><ele>639.0</ele><time>2026-04-25T07:25:33.033Z</time></trkpt><trkpt lat="40.7384867" lon="14.8131517"><ele>639.0</ele><time>2026-04-25T07:25:34.026Z</time></trkpt><trkpt lat="40.73855" lon="14.8131217"><ele>639.0</ele><time>2026-04-25T07:25:35.032Z</time></trkpt><trkpt lat="40.738625" lon="14.8131133"><ele>639.0</ele><time>2026-04-25T07:25:37.034Z</time></trkpt><trkpt lat="40.7385833" lon="14.8131883"><ele>639.0</ele><time>2026-04-25T07:25:41.034Z</time></trkpt><trkpt lat="40.73851" lon="14.8132483"><ele>639.0</ele><time>2026-04-25T07:25:43.026Z</time></trkpt><trkpt lat="40.73845" lon="14.8133417"><ele>639.0</ele><time>2026-04-25T07:25:45.027Z</time></trkpt><trkpt lat="40.73843" lon="14.8135033"><ele>639.0</ele><time>2026-04-25T07:25:47.032Z</time></trkpt><trkpt lat="40.7384333" lon="14.813615"><ele>643.0</ele><time>2026-04-25T07:25:48.027Z</time></trkpt><trkpt lat="40.7384283" lon="14.8137217"><ele>647.0</ele><time>2026-04-25T07:25:49.027Z</time></trkpt><trkpt lat="40.7384183" lon="14.813845"><ele>651.0</ele><time>2026-04-25T07:25:50.056Z</time></trkpt><trkpt lat="40.7384083" lon="14.8139683"><ele>655.0</ele><time>2026-04-25T07:25:51.028Z</time></trkpt><trkpt lat="40.7383917" lon="14.8140717"><ele>659.0</ele><time>2026-04-25T07:25:52.026Z</time></trkpt><trkpt lat="40.7383767" lon="14.814155"><ele>663.0</ele><time>2026-04-25T07:25:53.033Z</time></trkpt><trkpt lat="40.7384183" lon="14.8140383"><ele>663.0</ele><time>2026-04-25T07:25:58.026Z</time></trkpt><trkpt lat="40.7384533" lon="14.813945"><ele>663.0</ele><time>2026-04-25T07:25:59.032Z</time></trkpt><trkpt lat="40.738495" lon="14.8138517"><ele>663.0</ele><time>2026-04-25T07:26:00.035Z</time></trkpt><trkpt lat="40.7385383" lon="14.813775"><ele>663.0</ele><time>2026-04-25T07:26:01.03Z</time></trkpt><trkpt lat="40.738595" lon="14.813705"><ele>663.0</ele><time>2026-04-25T07:26:02.055Z</time></trkpt><trkpt lat="40.7386617" lon="14.8136483"><ele>663.0</ele><time>2026-04-25T07:26:03.023Z</time></trkpt><trkpt lat="40.7387233" lon="14.8136167"><ele>667.8</ele><time>2026-04-25T07:26:04.024Z</time></trkpt><trkpt lat="40.738835" lon="14.8136"><ele>672.5999999999999</ele><time>2026-04-25T07:26:06.027Z</time></trkpt><trkpt lat="40.7389367" lon="14.8136733"><ele>677.4000000000001</ele><time>2026-04-25T07:26:08.051Z</time></trkpt><trkpt lat="40.739035" lon="14.8137383"><ele>682.2</ele><time>2026-04-25T07:26:10.037Z</time></trkpt><trkpt lat="40.73914" lon="14.8137267"><ele>687.0</ele><time>2026-04-25T07:26:12.027Z</time></trkpt><trkpt lat="40.7392017" lon="14.8137067"><ele>687.0</ele><time>2026-04-25T07:26:13.036Z</time></trkpt><trkpt lat="40.7392817" lon="14.81368"><ele>687.0</ele><time>2026-04-25T07:26:14.056Z</time></trkpt><trkpt lat="40.7393717" lon="14.813645"><ele>687.0</ele><time>2026-04-25T07:26:15.032Z</time></trkpt><trkpt lat="40.739465" lon="14.8136017"><ele>687.0</ele><time>2026-04-25T07:26:16.031Z</time></trkpt><trkpt lat="40.73955" lon="14.81356"><ele>687.0</ele><time>2026-04-25T07:26:17.033Z</time></trkpt><trkpt lat="40.739625" lon="14.8135267"><ele>687.0</ele><time>2026-04-25T07:26:18.028Z</time></trkpt><trkpt lat="40.7396917" lon="14.8135"><ele>688.0</ele><time>2026-04-25T07:26:19.036Z</time></trkpt><trkpt lat="40.7398167" lon="14.8134883"><ele>689.0</ele><time>2026-04-25T07:26:21.031Z</time></trkpt><trkpt lat="40.73988" lon="14.81352"><ele>690.0</ele><time>2026-04-25T07:26:22.023Z</time></trkpt><trkpt lat="40.739945" lon="14.8135583"><ele>691.0</ele><time>2026-04-25T07:26:23.032Z</time></trkpt><trkpt lat="40.740015" lon="14.8136017"><ele>692.0</ele><time>2026-04-25T07:26:24.027Z</time></trkpt><trkpt lat="40.7400833" lon="14.8136617"><ele>693.0</ele><time>2026-04-25T07:26:25.019Z</time></trkpt><trkpt lat="40.7401533" lon="14.8137117"><ele>693.1666666666666</ele><time>2026-04-25T07:26:26.084Z</time></trkpt><trkpt lat="40.740225" lon="14.8137467"><ele>693.3333333333334</ele><time>2026-04-25T07:26:27.02Z</time></trkpt><trkpt lat="40.740305" lon="14.8137617"><ele>693.5</ele><time>2026-04-25T07:26:28.024Z</time></trkpt><trkpt lat="40.7403867" lon="14.813765"><ele>693.6666666666667</ele><time>2026-04-25T07:26:29.032Z</time></trkpt><trkpt lat="40.7404717" lon="14.8137517"><ele>693.8333333333334</ele><time>2026-04-25T07:26:30.034Z</time></trkpt><trkpt lat="40.7405483" lon="14.8137367"><ele>694.0</ele><time>2026-04-25T07:26:31.026Z</time></trkpt><trkpt lat="40.7406433" lon="14.81372"><ele>694.0</ele><time>2026-04-25T07:26:33.033Z</time></trkpt><trkpt lat="40.7406017" lon="14.8138067"><ele>694.0</ele><time>2026-04-25T07:26:38.054Z</time></trkpt><trkpt lat="40.74049" lon="14.813885"><ele>694.0</ele><time>2026-04-25T07:26:40.032Z</time></trkpt><trkpt lat="40.740425" lon="14.8139233"><ele>694.0</ele><time>2026-04-25T07:26:41.028Z</time></trkpt><trkpt lat="40.7403583" lon="14.8139617"><ele>694.0</ele><time>2026-04-25T07:26:42.025Z</time></trkpt><trkpt lat="40.740285" lon="14.8140083"><ele>694.0</ele><time>2026-04-25T07:26:43.031Z</time></trkpt><trkpt lat="40.7402167" lon="14.8140583"><ele>693.8000000000001</ele><time>2026-04-25T07:26:44.06Z</time></trkpt><trkpt lat="40.7401633" lon="14.814105"><ele>693.6</ele><time>2026-04-25T07:26:45.023Z</time></trkpt><trkpt lat="40.7401083" lon="14.814215"><ele>693.4</ele><time>2026-04-25T07:26:47.031Z</time></trkpt><trkpt lat="40.7402017" lon="14.814315"><ele>693.2</ele><time>2026-04-25T07:26:49.023Z</time></trkpt><trkpt lat="40.7402767" lon="14.8143383"><ele>693.0</ele><time>2026-04-25T07:26:50.048Z</time></trkpt><trkpt lat="40.7403683" lon="14.8143467"><ele>690.4</ele><time>2026-04-25T07:26:51.025Z</time></trkpt><trkpt lat="40.7404633" lon="14.8143417"><ele>687.8</ele><time>2026-04-25T07:26:52.025Z</time></trkpt><trkpt lat="40.7405617" lon="14.81433"><ele>685.2</ele><time>2026-04-25T07:26:53.025Z</time></trkpt><trkpt lat="40.740655" lon="14.8143267"><ele>682.6</ele><time>2026-04-25T07:26:54.028Z</time></trkpt><trkpt lat="40.7407533" lon="14.8143433"><ele>680.0</ele><time>2026-04-25T07:26:55.024Z</time></trkpt><trkpt lat="40.740815" lon="14.8144167"><ele>680.0</ele><time>2026-04-25T07:26:56.033Z</time></trkpt><trkpt lat="40.74087" lon="14.8144967"><ele>680.0</ele><time>2026-04-25T07:26:57.036Z</time></trkpt><trkpt lat="40.74092" lon="14.8145817"><ele>680.0</ele><time>2026-04-25T07:26:58.025Z</time></trkpt><trkpt lat="40.7409667" lon="14.8146667"><ele>680.0</ele><time>2026-04-25T07:26:59.035Z</time></trkpt><trkpt lat="40.7410117" lon="14.8147517"><ele>680.0</ele><time>2026-04-25T07:27:00.028Z</time></trkpt><trkpt lat="40.7410467" lon="14.8148383"><ele>680.0</ele><time>2026-04-25T07:27:01.028Z</time></trkpt><trkpt lat="40.7410733" lon="14.8149417"><ele>677.6666666666666</ele><time>2026-04-25T07:27:02.09Z</time></trkpt><trkpt lat="40.741095" lon="14.8150533"><ele>675.3333333333333</ele><time>2026-04-25T07:27:03.042Z</time></trkpt><trkpt lat="40.7411183" lon="14.8151633"><ele>673.0</ele><time>2026-04-25T07:27:04.028Z</time></trkpt><trkpt lat="40.7411483" lon="14.8152667"><ele>670.6666666666666</ele><time>2026-04-25T07:27:05.02Z</time></trkpt><trkpt lat="40.74119" lon="14.81536"><ele>668.3333333333334</ele><time>2026-04-25T07:27:06.035Z</time></trkpt><trkpt lat="40.7412283" lon="14.815445"><ele>666.0</ele><time>2026-04-25T07:27:07.039Z</time></trkpt><trkpt lat="40.741255" lon="14.815525"><ele>666.0</ele><time>2026-04-25T07:27:08.06Z</time></trkpt><trkpt lat="40.741275" lon="14.8156167"><ele>666.0</ele><time>2026-04-25T07:27:09.019Z</time></trkpt><trkpt lat="40.7412883" lon="14.8157183"><ele>666.0</ele><time>2026-04-25T07:27:10.03Z</time></trkpt><trkpt lat="40.7413" lon="14.815825"><ele>666.0</ele><time>2026-04-25T07:27:11.025Z</time></trkpt><trkpt lat="40.7413233" lon="14.8159183"><ele>666.0</ele><time>2026-04-25T07:27:12.022Z</time></trkpt><trkpt lat="40.7413533" lon="14.815995"><ele>666.0</ele><time>2026-04-25T07:27:13.035Z</time></trkpt><trkpt lat="40.7413917" lon="14.8160667"><ele>666.0</ele><time>2026-04-25T07:27:14.046Z</time></trkpt><trkpt lat="40.741445" lon="14.8161433"><ele>664.0</ele><time>2026-04-25T07:27:15.023Z</time></trkpt><trkpt lat="40.7415017" lon="14.8162133"><ele>662.0</ele><time>2026-04-25T07:27:16.027Z</time></trkpt><trkpt lat="40.7415633" lon="14.8162883"><ele>660.0</ele><time>2026-04-25T07:27:17.03Z</time></trkpt><trkpt lat="40.7416417" lon="14.81635"><ele>658.0</ele><time>2026-04-25T07:27:18.023Z</time></trkpt><trkpt lat="40.7417317" lon="14.8164133"><ele>656.0</ele><time>2026-04-25T07:27:19.033Z</time></trkpt><trkpt lat="40.7418333" lon="14.8164733"><ele>656.5999999999999</ele><time>2026-04-25T07:27:20.056Z</time></trkpt><trkpt lat="40.7419317" lon="14.8165283"><ele>657.2</ele><time>2026-04-25T07:27:21.021Z</time></trkpt><trkpt lat="40.7420183" lon="14.816595"><ele>657.8</ele><time>2026-04-25T07:27:22.03Z</time></trkpt><trkpt lat="40.7420933" lon="14.8166917"><ele>658.4000000000001</ele><time>2026-04-25T07:27:23.035Z</time></trkpt><trkpt lat="40.7421633" lon="14.8168017"><ele>659.0</ele><time>2026-04-25T07:27:24.026Z</time></trkpt><trkpt lat="40.7422283" lon="14.8169183"><ele>661.8333333333333</ele><time>2026-04-25T07:27:25.035Z</time></trkpt><trkpt lat="40.74228" lon="14.8170317"><ele>664.6666666666666</ele><time>2026-04-25T07:27:26.092Z</time></trkpt><trkpt lat="40.7423267" lon="14.817135"><ele>667.5</ele><time>2026-04-25T07:27:27.028Z</time></trkpt><trkpt lat="40.742375" lon="14.8172233"><ele>670.3333333333334</ele><time>2026-04-25T07:27:28.023Z</time></trkpt><trkpt lat="40.7424183" lon="14.8173117"><ele>673.1666666666667</ele><time>2026-04-25T07:27:29.034Z</time></trkpt><trkpt lat="40.7424617" lon="14.8174033"><ele>676.0</ele><time>2026-04-25T07:27:30.03Z</time></trkpt><trkpt lat="40.74249" lon="14.817505"><ele>676.0</ele><time>2026-04-25T07:27:31.029Z</time></trkpt><trkpt lat="40.7425017" lon="14.817605"><ele>676.0</ele><time>2026-04-25T07:27:32.028Z</time></trkpt><trkpt lat="40.742495" lon="14.8177067"><ele>676.0</ele><time>2026-04-25T07:27:33.033Z</time></trkpt><trkpt lat="40.7424717" lon="14.8178083"><ele>676.0</ele><time>2026-04-25T07:27:34.031Z</time></trkpt><trkpt lat="40.7423983" lon="14.81792"><ele>676.0</ele><time>2026-04-25T07:27:35.023Z</time></trkpt><trkpt lat="40.7423417" lon="14.8180283"><ele>676.0</ele><time>2026-04-25T07:27:36.025Z</time></trkpt><trkpt lat="40.74231" lon="14.81814"><ele>678.4</ele><time>2026-04-25T07:27:37.029Z</time></trkpt><trkpt lat="40.7423067" lon="14.81823"><ele>680.8</ele><time>2026-04-25T07:27:38.057Z</time></trkpt><trkpt lat="40.7423517" lon="14.8184133"><ele>683.1999999999999</ele><time>2026-04-25T07:27:40.028Z</time></trkpt><trkpt lat="40.742405" lon="14.8185367"><ele>685.5999999999999</ele><time>2026-04-25T07:27:41.029Z</time></trkpt><trkpt lat="40.7424517" lon="14.8186567"><ele>688.0</ele><time>2026-04-25T07:27:42.027Z</time></trkpt><trkpt lat="40.742505" lon="14.8187583"><ele>689.4</ele><time>2026-04-25T07:27:43.029Z</time></trkpt><trkpt lat="40.7425433" lon="14.8188567"><ele>690.8</ele><time>2026-04-25T07:27:44.062Z</time></trkpt><trkpt lat="40.7425783" lon="14.818975"><ele>692.2</ele><time>2026-04-25T07:27:45.02Z</time></trkpt><trkpt lat="40.7425917" lon="14.8190833"><ele>693.6</ele><time>2026-04-25T07:27:46.027Z</time></trkpt><trkpt lat="40.7425867" lon="14.8191933"><ele>695.0</ele><time>2026-04-25T07:27:47.035Z</time></trkpt><trkpt lat="40.742465" lon="14.8192333"><ele>695.0</ele><time>2026-04-25T07:27:48.027Z</time></trkpt><trkpt lat="40.74237" lon="14.8193"><ele>695.0</ele><time>2026-04-25T07:27:49.034Z</time></trkpt><trkpt lat="40.74227" lon="14.8193833"><ele>695.0</ele><time>2026-04-25T07:27:50.06Z</time></trkpt><trkpt lat="40.7421733" lon="14.819485"><ele>695.0</ele><time>2026-04-25T07:27:51.026Z</time></trkpt><trkpt lat="40.7420767" lon="14.8195967"><ele>694.2</ele><time>2026-04-25T07:27:52.028Z</time></trkpt><trkpt lat="40.7419917" lon="14.8197033"><ele>693.4</ele><time>2026-04-25T07:27:53.032Z</time></trkpt><trkpt lat="40.7419183" lon="14.8197933"><ele>692.5999999999999</ele><time>2026-04-25T07:27:54.02Z</time></trkpt><trkpt lat="40.7418567" lon="14.81987"><ele>691.8</ele><time>2026-04-25T07:27:55.029Z</time></trkpt><trkpt lat="40.7417867" lon="14.8199233"><ele>691.0</ele><time>2026-04-25T07:28:00.026Z</time></trkpt><trkpt lat="40.7417217" lon="14.819985"><ele>691.0</ele><time>2026-04-25T07:28:02.057Z</time></trkpt><trkpt lat="40.74165" lon="14.82007"><ele>691.0</ele><time>2026-04-25T07:28:04.026Z</time></trkpt><trkpt lat="40.7416317" lon="14.8201533"><ele>691.0</ele><time>2026-04-25T07:28:07.031Z</time></trkpt><trkpt lat="40.741705" lon="14.8201317"><ele>691.0</ele><time>2026-04-25T07:28:09.033Z</time></trkpt><trkpt lat="40.74181" lon="14.8200883"><ele>691.0</ele><time>2026-04-25T07:28:11.026Z</time></trkpt><trkpt lat="40.7419317" lon="14.8201283"><ele>694.0</ele><time>2026-04-25T07:28:13.031Z</time></trkpt><trkpt lat="40.7419983" lon="14.820175"><ele>697.0</ele><time>2026-04-25T07:28:14.056Z</time></trkpt><trkpt lat="40.7420617" lon="14.8202467"><ele>700.0</ele><time>2026-04-25T07:28:15.023Z</time></trkpt><trkpt lat="40.7421267" lon="14.8203283"><ele>703.0</ele><time>2026-04-25T07:28:16.022Z</time></trkpt><trkpt lat="40.7421833" lon="14.8204083"><ele>706.0</ele><time>2026-04-25T07:28:17.031Z</time></trkpt><trkpt lat="40.7422417" lon="14.82048"><ele>709.0</ele><time>2026-04-25T07:28:18.024Z</time></trkpt><trkpt lat="40.7423067" lon="14.82054"><ele>709.0</ele><time>2026-04-25T07:28:19.028Z</time></trkpt><trkpt lat="40.742385" lon="14.8205867"><ele>709.0</ele><time>2026-04-25T07:28:20.056Z</time></trkpt><trkpt lat="40.7424783" lon="14.82064"><ele>709.0</ele><time>2026-04-25T07:28:21.024Z</time></trkpt><trkpt lat="40.7425733" lon="14.8207217"><ele>709.0</ele><time>2026-04-25T07:28:22.031Z</time></trkpt><trkpt lat="40.7426683" lon="14.82082"><ele>709.0</ele><time>2026-04-25T07:28:23.03Z</time></trkpt><trkpt lat="40.7427567" lon="14.8209283"><ele>713.5</ele><time>2026-04-25T07:28:24.03Z</time></trkpt><trkpt lat="40.74283" lon="14.8210617"><ele>718.0</ele><time>2026-04-25T07:28:25.029Z</time></trkpt><trkpt lat="40.7428933" lon="14.8211983"><ele>722.5</ele><time>2026-04-25T07:28:26.08Z</time></trkpt><trkpt lat="40.7429517" lon="14.82134"><ele>727.0</ele><time>2026-04-25T07:28:27.019Z</time></trkpt><trkpt lat="40.743" lon="14.8214883"><ele>727.0</ele><time>2026-04-25T07:28:28.025Z</time></trkpt><trkpt lat="40.7430267" lon="14.8216367"><ele>727.0</ele><time>2026-04-25T07:28:29.025Z</time></trkpt><trkpt lat="40.74304" lon="14.8217833"><ele>727.0</ele><time>2026-04-25T07:28:30.022Z</time></trkpt><trkpt lat="40.7430533" lon="14.8219233"><ele>727.0</ele><time>2026-04-25T07:28:31.026Z</time></trkpt><trkpt lat="40.7430583" lon="14.82205"><ele>727.0</ele><time>2026-04-25T07:28:32.079Z</time></trkpt><trkpt lat="40.7430583" lon="14.8221567"><ele>727.0</ele><time>2026-04-25T07:28:33.024Z</time></trkpt><trkpt lat="40.7430433" lon="14.82226"><ele>727.0</ele><time>2026-04-25T07:28:34.033Z</time></trkpt><trkpt lat="40.7430233" lon="14.8223683"><ele>727.0</ele><time>2026-04-25T07:28:35.03Z</time></trkpt><trkpt lat="40.743" lon="14.82249"><ele>727.0</ele><time>2026-04-25T07:28:36.031Z</time></trkpt><trkpt lat="40.7429733" lon="14.8226133"><ele>727.0</ele><time>2026-04-25T07:28:37.027Z</time></trkpt><trkpt lat="40.7429367" lon="14.82272"><ele>727.0</ele><time>2026-04-25T07:28:38.053Z</time></trkpt><trkpt lat="40.7428967" lon="14.8228133"><ele>721.2</ele><time>2026-04-25T07:28:39.021Z</time></trkpt><trkpt lat="40.742875" lon="14.8228967"><ele>715.4000000000001</ele><time>2026-04-25T07:28:40.024Z</time></trkpt><trkpt lat="40.74292" lon="14.8229883"><ele>709.5999999999999</ele><time>2026-04-25T07:28:42.023Z</time></trkpt><trkpt lat="40.7430483" lon="14.823015"><ele>703.8</ele><time>2026-04-25T07:28:44.057Z</time></trkpt><trkpt lat="40.74314" lon="14.8230217"><ele>698.0</ele><time>2026-04-25T07:28:45.026Z</time></trkpt><trkpt lat="40.7432383" lon="14.8230217"><ele>698.0</ele><time>2026-04-25T07:28:46.027Z</time></trkpt><trkpt lat="40.7433433" lon="14.8230167"><ele>698.0</ele><time>2026-04-25T07:28:47.022Z</time></trkpt><trkpt lat="40.7434517" lon="14.8230183"><ele>698.0</ele><time>2026-04-25T07:28:48.022Z</time></trkpt><trkpt lat="40.7435567" lon="14.82302"><ele>698.0</ele><time>2026-04-25T07:28:49.028Z</time></trkpt><trkpt lat="40.7436533" lon="14.823035"><ele>698.0</ele><time>2026-04-25T07:28:50.055Z</time></trkpt><trkpt lat="40.7437467" lon="14.8230567"><ele>702.5999999999999</ele><time>2026-04-25T07:28:51.03Z</time></trkpt><trkpt lat="40.7438483" lon="14.8231067"><ele>707.1999999999999</ele><time>2026-04-25T07:28:52.025Z</time></trkpt><trkpt lat="40.74393" lon="14.8231717"><ele>711.8</ele><time>2026-04-25T07:28:53.035Z</time></trkpt><trkpt lat="40.7440083" lon="14.8232367"><ele>716.4</ele><time>2026-04-25T07:28:54.026Z</time></trkpt><trkpt lat="40.744065" lon="14.823315"><ele>721.0</ele><time>2026-04-25T07:28:55.032Z</time></trkpt><trkpt lat="40.7441183" lon="14.8234133"><ele>722.1666666666667</ele><time>2026-04-25T07:28:56.055Z</time></trkpt><trkpt lat="40.7441667" lon="14.8235033"><ele>723.3333333333334</ele><time>2026-04-25T07:28:57.022Z</time></trkpt><trkpt lat="40.744215" lon="14.8235867"><ele>724.5</ele><time>2026-04-25T07:28:58.021Z</time></trkpt><trkpt lat="40.744265" lon="14.8236567"><ele>725.6666666666666</ele><time>2026-04-25T07:28:59.03Z</time></trkpt><trkpt lat="40.7443417" lon="14.8236933"><ele>726.8333333333333</ele><time>2026-04-25T07:29:00.029Z</time></trkpt><trkpt lat="40.74442" lon="14.8237367"><ele>728.0</ele><time>2026-04-25T07:29:01.035Z</time></trkpt><trkpt lat="40.7444967" lon="14.8237767"><ele>728.0</ele><time>2026-04-25T07:29:02.055Z</time></trkpt><trkpt lat="40.7445567" lon="14.8238233"><ele>728.0</ele><time>2026-04-25T07:29:03.027Z</time></trkpt><trkpt lat="40.7446017" lon="14.8238933"><ele>728.0</ele><time>2026-04-25T07:29:04.022Z</time></trkpt><trkpt lat="40.7446367" lon="14.823975"><ele>728.0</ele><time>2026-04-25T07:29:05.031Z</time></trkpt><trkpt lat="40.7446817" lon="14.8240417"><ele>728.0</ele><time>2026-04-25T07:29:06.025Z</time></trkpt><trkpt lat="40.7447333" lon="14.8241017"><ele>728.0</ele><time>2026-04-25T07:29:07.026Z</time></trkpt><trkpt lat="40.7448117" lon="14.824145"><ele>728.0</ele><time>2026-04-25T07:29:08.055Z</time></trkpt><trkpt lat="40.7449033" lon="14.8241933"><ele>728.0</ele><time>2026-04-25T07:29:09.024Z</time></trkpt><trkpt lat="40.74499" lon="14.8242683"><ele>728.0</ele><time>2026-04-25T07:29:10.022Z</time></trkpt><trkpt lat="40.7450433" lon="14.824405"><ele>728.0</ele><time>2026-04-25T07:29:11.031Z</time></trkpt><trkpt lat="40.7450933" lon="14.8245267"><ele>728.0</ele><time>2026-04-25T07:29:12.029Z</time></trkpt><trkpt lat="40.7451433" lon="14.8246217"><ele>728.0</ele><time>2026-04-25T07:29:13.031Z</time></trkpt><trkpt lat="40.7452167" lon="14.824695"><ele>727.8</ele><time>2026-04-25T07:29:15.03Z</time></trkpt><trkpt lat="40.74533" lon="14.8248017"><ele>727.5999999999999</ele><time>2026-04-25T07:29:17.031Z</time></trkpt><trkpt lat="40.7453983" lon="14.824865"><ele>727.4000000000001</ele><time>2026-04-25T07:29:18.029Z</time></trkpt><trkpt lat="40.745475" lon="14.8249383"><ele>727.2</ele><time>2026-04-25T07:29:19.029Z</time></trkpt><trkpt lat="40.745545" lon="14.825025"><ele>727.0</ele><time>2026-04-25T07:29:20.055Z</time></trkpt><trkpt lat="40.74561" lon="14.825115"><ele>725.2</ele><time>2026-04-25T07:29:21.025Z</time></trkpt><trkpt lat="40.7456733" lon="14.8252033"><ele>723.4000000000001</ele><time>2026-04-25T07:29:22.026Z</time></trkpt><trkpt lat="40.7457417" lon="14.82529"><ele>721.5999999999999</ele><time>2026-04-25T07:29:23.024Z</time></trkpt><trkpt lat="40.745805" lon="14.82538"><ele>719.8</ele><time>2026-04-25T07:29:24.018Z</time></trkpt><trkpt lat="40.7458417" lon="14.8254983"><ele>718.0</ele><time>2026-04-25T07:29:25.027Z</time></trkpt><trkpt lat="40.7458633" lon="14.8256233"><ele>718.0</ele><time>2026-04-25T07:29:26.055Z</time></trkpt><trkpt lat="40.745885" lon="14.8257417"><ele>718.0</ele><time>2026-04-25T07:29:27.028Z</time></trkpt><trkpt lat="40.745915" lon="14.8258667"><ele>718.0</ele><time>2026-04-25T07:29:28.028Z</time></trkpt><trkpt lat="40.745965" lon="14.8260017"><ele>718.0</ele><time>2026-04-25T07:29:29.038Z</time></trkpt><trkpt lat="40.746025" lon="14.82614"><ele>718.0</ele><time>2026-04-25T07:29:30.024Z</time></trkpt><trkpt lat="40.7460833" lon="14.8262767"><ele>717.6666666666667</ele><time>2026-04-25T07:29:31.024Z</time></trkpt><trkpt lat="40.7461483" lon="14.8264083"><ele>717.3333333333334</ele><time>2026-04-25T07:29:32.073Z</time></trkpt><trkpt lat="40.7462117" lon="14.8264983"><ele>717.0</ele><time>2026-04-25T07:29:33.023Z</time></trkpt><trkpt lat="40.74626" lon="14.826565"><ele>716.6666666666666</ele><time>2026-04-25T07:29:34.021Z</time></trkpt><trkpt lat="40.7462983" lon="14.8266317"><ele>716.3333333333333</ele><time>2026-04-25T07:29:35.029Z</time></trkpt><trkpt lat="40.746325" lon="14.8267583"><ele>716.0</ele><time>2026-04-25T07:29:37.024Z</time></trkpt><trkpt lat="40.74633" lon="14.8268517"><ele>719.0</ele><time>2026-04-25T07:29:38.052Z</time></trkpt><trkpt lat="40.7463217" lon="14.82694"><ele>722.0</ele><time>2026-04-25T07:29:39.025Z</time></trkpt><trkpt lat="40.7462817" lon="14.8271217"><ele>725.0</ele><time>2026-04-25T07:29:41.028Z</time></trkpt><trkpt lat="40.7462467" lon="14.8272083"><ele>728.0</ele><time>2026-04-25T07:29:42.022Z</time></trkpt><trkpt lat="40.7462067" lon="14.8272867"><ele>731.0</ele><time>2026-04-25T07:29:43.033Z</time></trkpt><trkpt lat="40.7461617" lon="14.8273567"><ele>734.0</ele><time>2026-04-25T07:29:44.058Z</time></trkpt><trkpt lat="40.7461033" lon="14.8274"><ele>734.0</ele><time>2026-04-25T07:29:45.025Z</time></trkpt><trkpt lat="40.7460467" lon="14.827455"><ele>734.0</ele><time>2026-04-25T07:29:46.02Z</time></trkpt><trkpt lat="40.7459967" lon="14.8275083"><ele>734.0</ele><time>2026-04-25T07:29:47.033Z</time></trkpt><trkpt lat="40.745945" lon="14.8276417"><ele>734.0</ele><time>2026-04-25T07:29:49.027Z</time></trkpt><trkpt lat="40.7459267" lon="14.8277417"><ele>734.0</ele><time>2026-04-25T07:29:50.059Z</time></trkpt><trkpt lat="40.745895" lon="14.82784"><ele>734.0</ele><time>2026-04-25T07:29:51.03Z</time></trkpt><trkpt lat="40.7458617" lon="14.8279283"><ele>738.6666666666666</ele><time>2026-04-25T07:29:52.028Z</time></trkpt><trkpt lat="40.74582" lon="14.828005"><ele>743.3333333333333</ele><time>2026-04-25T07:29:53.02Z</time></trkpt><trkpt lat="40.7457733" lon="14.828085"><ele>748.0</ele><time>2026-04-25T07:29:54.031Z</time></trkpt><trkpt lat="40.7457067" lon="14.82814"><ele>752.6666666666666</ele><time>2026-04-25T07:29:55.03Z</time></trkpt><trkpt lat="40.7456433" lon="14.8282067"><ele>757.3333333333334</ele><time>2026-04-25T07:29:56.087Z</time></trkpt><trkpt lat="40.7455933" lon="14.8282667"><ele>762.0</ele><time>2026-04-25T07:29:57.025Z</time></trkpt><trkpt lat="40.7455" lon="14.8283717"><ele>762.0</ele><time>2026-04-25T07:29:59.025Z</time></trkpt><trkpt lat="40.74547" lon="14.8284633"><ele>762.0</ele><time>2026-04-25T07:30:00.028Z</time></trkpt><trkpt lat="40.7454567" lon="14.8285667"><ele>762.0</ele><time>2026-04-25T07:30:01.026Z</time></trkpt><trkpt lat="40.74545" lon="14.82865"><ele>762.0</ele><time>2026-04-25T07:30:02.053Z</time></trkpt><trkpt lat="40.7454067" lon="14.8287533"><ele>762.0</ele><time>2026-04-25T07:30:04.024Z</time></trkpt><trkpt lat="40.7452933" lon="14.8288067"><ele>762.0</ele><time>2026-04-25T07:30:06.021Z</time></trkpt><trkpt lat="40.7451983" lon="14.8288117"><ele>765.25</ele><time>2026-04-25T07:30:07.03Z</time></trkpt><trkpt lat="40.7450983" lon="14.8288017"><ele>768.5</ele><time>2026-04-25T07:30:08.056Z</time></trkpt><trkpt lat="40.7449833" lon="14.8287733"><ele>771.75</ele><time>2026-04-25T07:30:09.025Z</time></trkpt><trkpt lat="40.7448567" lon="14.828755"><ele>775.0</ele><time>2026-04-25T07:30:10.029Z</time></trkpt><trkpt lat="40.744715" lon="14.8287233"><ele>775.0</ele><time>2026-04-25T07:30:11.037Z</time></trkpt><trkpt lat="40.7445833" lon="14.828725"><ele>775.0</ele><time>2026-04-25T07:30:12.024Z</time></trkpt><trkpt lat="40.744455" lon="14.828735"><ele>775.0</ele><time>2026-04-25T07:30:13.026Z</time></trkpt><trkpt lat="40.7443167" lon="14.8287333"><ele>775.0</ele><time>2026-04-25T07:30:14.051Z</time></trkpt><trkpt lat="40.744175" lon="14.828725"><ele>773.8</ele><time>2026-04-25T07:30:15.024Z</time></trkpt><trkpt lat="40.7440417" lon="14.828715"><ele>772.6</ele><time>2026-04-25T07:30:16.023Z</time></trkpt><trkpt lat="40.74393" lon="14.828715"><ele>771.4000000000001</ele><time>2026-04-25T07:30:17.033Z</time></trkpt><trkpt lat="40.7438433" lon="14.8287117"><ele>770.2</ele><time>2026-04-25T07:30:18.026Z</time></trkpt><trkpt lat="40.743775" lon="14.8286783"><ele>769.0</ele><time>2026-04-25T07:30:19.029Z</time></trkpt><trkpt lat="40.7437017" lon="14.82867"><ele>769.0</ele><time>2026-04-25T07:30:21.023Z</time></trkpt><trkpt lat="40.7436967" lon="14.8288367"><ele>769.0</ele><time>2026-04-25T07:35:38.058Z</time></trkpt><trkpt lat="40.7437617" lon="14.8289567"><ele>769.0</ele><time>2026-04-25T07:35:40.023Z</time></trkpt><trkpt lat="40.7438117" lon="14.8290483"><ele>769.0</ele><time>2026-04-25T07:35:41.028Z</time></trkpt><trkpt lat="40.743865" lon="14.829165"><ele>769.0</ele><time>2026-04-25T07:35:42.029Z</time></trkpt><trkpt lat="40.7439267" lon="14.8293133"><ele>767.25</ele><time>2026-04-25T07:35:43.03Z</time></trkpt><trkpt lat="40.7439817" lon="14.8294717"><ele>765.5</ele><time>2026-04-25T07:35:44.055Z</time></trkpt><trkpt lat="40.7440367" lon="14.8296283"><ele>763.75</ele><time>2026-04-25T07:35:45.024Z</time></trkpt><trkpt lat="40.7440883" lon="14.8297717"><ele>762.0</ele><time>2026-04-25T07:35:46.018Z</time></trkpt><trkpt lat="40.7441367" lon="14.8298967"><ele>762.0</ele><time>2026-04-25T07:35:47.029Z</time></trkpt><trkpt lat="40.7441933" lon="14.8300083"><ele>762.0</ele><time>2026-04-25T07:35:48.024Z</time></trkpt><trkpt lat="40.74426" lon="14.8300967"><ele>762.0</ele><time>2026-04-25T07:35:49.026Z</time></trkpt><trkpt lat="40.7443317" lon="14.8301883"><ele>762.0</ele><time>2026-04-25T07:35:50.059Z</time></trkpt><trkpt lat="40.7444167" lon="14.8302633"><ele>762.0</ele><time>2026-04-25T07:35:51.024Z</time></trkpt><trkpt lat="40.7445033" lon="14.8303533"><ele>765.25</ele><time>2026-04-25T07:35:52.032Z</time></trkpt><trkpt lat="40.7445917" lon="14.8304783"><ele>768.5</ele><time>2026-04-25T07:35:53.029Z</time></trkpt><trkpt lat="40.7446817" lon="14.83061"><ele>771.75</ele><time>2026-04-25T07:35:54.024Z</time></trkpt><trkpt lat="40.7447667" lon="14.8307367"><ele>775.0</ele><time>2026-04-25T07:35:55.022Z</time></trkpt><trkpt lat="40.7448467" lon="14.8308517"><ele>775.0</ele><time>2026-04-25T07:35:56.031Z</time></trkpt><trkpt lat="40.7449217" lon="14.830955"><ele>775.0</ele><time>2026-04-25T07:35:57.023Z</time></trkpt><trkpt lat="40.74499" lon="14.831045"><ele>775.0</ele><time>2026-04-25T07:35:58.029Z</time></trkpt><trkpt lat="40.7450617" lon="14.83112"><ele>775.0</ele><time>2026-04-25T07:35:59.027Z</time></trkpt><trkpt lat="40.7451383" lon="14.8311883"><ele>775.0</ele><time>2026-04-25T07:36:00.027Z</time></trkpt><trkpt lat="40.7452217" lon="14.8312517"><ele>773.6666666666666</ele><time>2026-04-25T07:36:01.03Z</time></trkpt><trkpt lat="40.74531" lon="14.8312867"><ele>772.3333333333333</ele><time>2026-04-25T07:36:02.017Z</time></trkpt><trkpt lat="40.7454" lon="14.8313167"><ele>771.0</ele><time>2026-04-25T07:36:03.025Z</time></trkpt><trkpt lat="40.7454867" lon="14.8313483"><ele>769.6666666666666</ele><time>2026-04-25T07:36:04.024Z</time></trkpt><trkpt lat="40.7455533" lon="14.8313617"><ele>768.3333333333333</ele><time>2026-04-25T07:36:05.021Z</time></trkpt><trkpt lat="40.7456417" lon="14.8314367"><ele>767.0</ele><time>2026-04-25T07:36:07.03Z</time></trkpt><trkpt lat="40.7456883" lon="14.8315217"><ele>767.0</ele><time>2026-04-25T07:36:08.059Z</time></trkpt><trkpt lat="40.74573" lon="14.8316233"><ele>767.0</ele><time>2026-04-25T07:36:09.023Z</time></trkpt><trkpt lat="40.7457817" lon="14.8317117"><ele>767.0</ele><time>2026-04-25T07:36:10.022Z</time></trkpt><trkpt lat="40.7458533" lon="14.8317767"><ele>767.0</ele><time>2026-04-25T07:36:11.024Z</time></trkpt><trkpt lat="40.74592" lon="14.8318417"><ele>767.0</ele><time>2026-04-25T07:36:12.027Z</time></trkpt><trkpt lat="40.7460017" lon="14.8318917"><ele>767.0</ele><time>2026-04-25T07:36:13.025Z</time></trkpt><trkpt lat="40.7461117" lon="14.831915"><ele>763.25</ele><time>2026-04-25T07:36:14.058Z</time></trkpt><trkpt lat="40.7462367" lon="14.8319367"><ele>759.5</ele><time>2026-04-25T07:36:15.027Z</time></trkpt><trkpt lat="40.7463783" lon="14.8319683"><ele>755.75</ele><time>2026-04-25T07:36:16.023Z</time></trkpt><trkpt lat="40.7465233" lon="14.8320183"><ele>752.0</ele><time>2026-04-25T07:36:17.024Z</time></trkpt><trkpt lat="40.7466467" lon="14.8320933"><ele>752.0</ele><time>2026-04-25T07:36:18.027Z</time></trkpt><trkpt lat="40.746775" lon="14.8321683"><ele>752.0</ele><time>2026-04-25T07:36:19.024Z</time></trkpt><trkpt lat="40.7468667" lon="14.8321917"><ele>752.0</ele><time>2026-04-25T07:36:20.064Z</time></trkpt><trkpt lat="40.7469567" lon="14.83221"><ele>752.0</ele><time>2026-04-25T07:36:21.024Z</time></trkpt><trkpt lat="40.7470333" lon="14.8322033"><ele>752.0</ele><time>2026-04-25T07:36:22.026Z</time></trkpt><trkpt lat="40.7471333" lon="14.8321217"><ele>751.8</ele><time>2026-04-25T07:36:24.026Z</time></trkpt><trkpt lat="40.747175" lon="14.83196"><ele>751.6</ele><time>2026-04-25T07:36:26.027Z</time></trkpt><trkpt lat="40.747185" lon="14.8318317"><ele>751.4</ele><time>2026-04-25T07:36:27.029Z</time></trkpt><trkpt lat="40.7471767" lon="14.8316867"><ele>751.1999999999999</ele><time>2026-04-25T07:36:28.021Z</time></trkpt><trkpt lat="40.7471983" lon="14.8315683"><ele>751.0</ele><time>2026-04-25T07:36:29.019Z</time></trkpt><trkpt lat="40.7472267" lon="14.8314317"><ele>751.0</ele><time>2026-04-25T07:36:30.024Z</time></trkpt><trkpt lat="40.74725" lon="14.8312967"><ele>751.0</ele><time>2026-04-25T07:36:31.024Z</time></trkpt><trkpt lat="40.7472633" lon="14.831175"><ele>751.0</ele><time>2026-04-25T07:36:32.021Z</time></trkpt><trkpt lat="40.7472767" lon="14.8310567"><ele>751.0</ele><time>2026-04-25T07:36:33.028Z</time></trkpt><trkpt lat="40.74729" lon="14.8309733"><ele>751.0</ele><time>2026-04-25T07:36:34.025Z</time></trkpt><trkpt lat="40.747315" lon="14.8308883"><ele>751.0</ele><time>2026-04-25T07:36:35.033Z</time></trkpt><trkpt lat="40.7473967" lon="14.830795"><ele>749.25</ele><time>2026-04-25T07:36:37.029Z</time></trkpt><trkpt lat="40.7474783" lon="14.8308067"><ele>747.5</ele><time>2026-04-25T07:36:38.056Z</time></trkpt><trkpt lat="40.747575" lon="14.8308433"><ele>745.75</ele><time>2026-04-25T07:36:39.023Z</time></trkpt><trkpt lat="40.7476933" lon="14.830915"><ele>744.0</ele><time>2026-04-25T07:36:40.027Z</time></trkpt><trkpt lat="40.7478217" lon="14.8310067"><ele>744.0</ele><time>2026-04-25T07:36:41.023Z</time></trkpt><trkpt lat="40.7479583" lon="14.8311267"><ele>744.0</ele><time>2026-04-25T07:36:42.025Z</time></trkpt><trkpt lat="40.7480867" lon="14.8312333"><ele>744.0</ele><time>2026-04-25T07:36:43.023Z</time></trkpt><trkpt lat="40.74819" lon="14.831345"><ele>744.0</ele><time>2026-04-25T07:36:44.059Z</time></trkpt><trkpt lat="40.7482883" lon="14.83143"><ele>744.0</ele><time>2026-04-25T07:36:45.023Z</time></trkpt><trkpt lat="40.7483817" lon="14.8315017"><ele>744.0</ele><time>2026-04-25T07:36:46.029Z</time></trkpt><trkpt lat="40.7484733" lon="14.8315567"><ele>744.0</ele><time>2026-04-25T07:36:47.031Z</time></trkpt><trkpt lat="40.7485767" lon="14.8315917"><ele>744.0</ele><time>2026-04-25T07:36:48.021Z</time></trkpt><trkpt lat="40.748705" lon="14.83161"><ele>744.0</ele><time>2026-04-25T07:36:49.028Z</time></trkpt><trkpt lat="40.7488233" lon="14.8316217"><ele>742.8000000000001</ele><time>2026-04-25T07:36:50.062Z</time></trkpt><trkpt lat="40.7489317" lon="14.8316267"><ele>741.6</ele><time>2026-04-25T07:36:51.027Z</time></trkpt><trkpt lat="40.749025" lon="14.831645"><ele>740.4</ele><time>2026-04-25T07:36:52.022Z</time></trkpt><trkpt lat="40.749105" lon="14.831665"><ele>739.2</ele><time>2026-04-25T07:36:53.021Z</time></trkpt><trkpt lat="40.749185" lon="14.8318233"><ele>738.0</ele><time>2026-04-25T07:36:55.019Z</time></trkpt><trkpt lat="40.7492383" lon="14.8319183"><ele>738.0</ele><time>2026-04-25T07:36:56.025Z</time></trkpt><trkpt lat="40.7493033" lon="14.8320083"><ele>738.0</ele><time>2026-04-25T07:36:57.028Z</time></trkpt><trkpt lat="40.7493717" lon="14.8320883"><ele>738.0</ele><time>2026-04-25T07:36:58.029Z</time></trkpt><trkpt lat="40.749425" lon="14.83217"><ele>738.0</ele><time>2026-04-25T07:36:59.035Z</time></trkpt><trkpt lat="40.7494783" lon="14.8322367"><ele>738.0</ele><time>2026-04-25T07:37:00.024Z</time></trkpt><trkpt lat="40.7495367" lon="14.8322983"><ele>738.0</ele><time>2026-04-25T07:37:02.021Z</time></trkpt><trkpt lat="40.7496167" lon="14.832265"><ele>738.2</ele><time>2026-04-25T07:37:04.025Z</time></trkpt><trkpt lat="40.7496783" lon="14.83223"><ele>738.4</ele><time>2026-04-25T07:37:05.03Z</time></trkpt><trkpt lat="40.7497533" lon="14.8322067"><ele>738.6</ele><time>2026-04-25T07:37:06.032Z</time></trkpt><trkpt lat="40.7498383" lon="14.8321817"><ele>738.8000000000001</ele><time>2026-04-25T07:37:07.027Z</time></trkpt><trkpt lat="40.7499283" lon="14.8321683"><ele>739.0</ele><time>2026-04-25T07:37:08.058Z</time></trkpt><trkpt lat="40.7500583" lon="14.8321733"><ele>737.0</ele><time>2026-04-25T07:37:09.024Z</time></trkpt><trkpt lat="40.7502233" lon="14.8322017"><ele>735.0</ele><time>2026-04-25T07:37:10.023Z</time></trkpt><trkpt lat="40.75037" lon="14.8322367"><ele>733.0</ele><time>2026-04-25T07:37:11.025Z</time></trkpt><trkpt lat="40.7504983" lon="14.832265"><ele>731.0</ele><time>2026-04-25T07:37:12.027Z</time></trkpt><trkpt lat="40.750615" lon="14.8323017"><ele>731.0</ele><time>2026-04-25T07:37:13.023Z</time></trkpt><trkpt lat="40.7507133" lon="14.8323517"><ele>731.0</ele><time>2026-04-25T07:37:14.056Z</time></trkpt><trkpt lat="40.7508" lon="14.8324133"><ele>731.0</ele><time>2026-04-25T07:37:15.026Z</time></trkpt><trkpt lat="40.750885" lon="14.8324767"><ele>731.0</ele><time>2026-04-25T07:37:16.027Z</time></trkpt><trkpt lat="40.7509667" lon="14.8325367"><ele>731.0</ele><time>2026-04-25T07:37:17.022Z</time></trkpt><trkpt lat="40.7510617" lon="14.8325967"><ele>730.5999999999999</ele><time>2026-04-25T07:37:18.019Z</time></trkpt><trkpt lat="40.751165" lon="14.8326567"><ele>730.2</ele><time>2026-04-25T07:37:19.023Z</time></trkpt><trkpt lat="40.75126" lon="14.832715"><ele>729.8</ele><time>2026-04-25T07:37:20.053Z</time></trkpt><trkpt lat="40.7513383" lon="14.8327833"><ele>729.4000000000001</ele><time>2026-04-25T07:37:21.019Z</time></trkpt><trkpt lat="40.75139" lon="14.8328483"><ele>729.0</ele><time>2026-04-25T07:37:22.021Z</time></trkpt><trkpt lat="40.7514" lon="14.8329467"><ele>729.0</ele><time>2026-04-25T07:37:24.023Z</time></trkpt><trkpt lat="40.7514367" lon="14.833055"><ele>729.0</ele><time>2026-04-25T07:37:26.085Z</time></trkpt><trkpt lat="40.751495" lon="14.8332"><ele>729.0</ele><time>2026-04-25T07:37:28.031Z</time></trkpt><trkpt lat="40.7515317" lon="14.8332917"><ele>729.0</ele><time>2026-04-25T07:37:29.029Z</time></trkpt><trkpt lat="40.7515833" lon="14.8334117"><ele>729.0</ele><time>2026-04-25T07:37:30.022Z</time></trkpt><trkpt lat="40.7516317" lon="14.8335383"><ele>726.4000000000001</ele><time>2026-04-25T07:37:31.023Z</time></trkpt><trkpt lat="40.7516717" lon="14.83366"><ele>723.8</ele><time>2026-04-25T07:37:32.026Z</time></trkpt><trkpt lat="40.7517133" lon="14.8337783"><ele>721.2</ele><time>2026-04-25T07:37:33.028Z</time></trkpt><trkpt lat="40.751755" lon="14.8338783"><ele>718.5999999999999</ele><time>2026-04-25T07:37:34.026Z</time></trkpt><trkpt lat="40.7518033" lon="14.8339617"><ele>716.0</ele><time>2026-04-25T07:37:35.033Z</time></trkpt><trkpt lat="40.75187" lon="14.834035"><ele>716.4</ele><time>2026-04-25T07:37:36.022Z</time></trkpt><trkpt lat="40.7519467" lon="14.8341017"><ele>716.8</ele><time>2026-04-25T07:37:37.021Z</time></trkpt><trkpt lat="40.75204" lon="14.8341683"><ele>717.1999999999999</ele><time>2026-04-25T07:37:38.062Z</time></trkpt><trkpt lat="40.752135" lon="14.8342367"><ele>717.5999999999999</ele><time>2026-04-25T07:37:39.018Z</time></trkpt><trkpt lat="40.7522283" lon="14.8342933"><ele>718.0</ele><time>2026-04-25T07:37:40.022Z</time></trkpt><trkpt lat="40.7523117" lon="14.834335"><ele>719.0</ele><time>2026-04-25T07:37:41.031Z</time></trkpt><trkpt lat="40.7523783" lon="14.834365"><ele>720.0</ele><time>2026-04-25T07:37:42.022Z</time></trkpt><trkpt lat="40.752485" lon="14.8344467"><ele>721.0</ele><time>2026-04-25T07:37:44.055Z</time></trkpt><trkpt lat="40.7525217" lon="14.83454"><ele>722.0</ele><time>2026-04-25T07:37:45.022Z</time></trkpt><trkpt lat="40.75256" lon="14.8346467"><ele>723.0</ele><time>2026-04-25T07:37:46.027Z</time></trkpt><trkpt lat="40.7525933" lon="14.8347517"><ele>724.0</ele><time>2026-04-25T07:37:47.019Z</time></trkpt><trkpt lat="40.75263" lon="14.8348483"><ele>724.0</ele><time>2026-04-25T07:37:48.029Z</time></trkpt><trkpt lat="40.7526633" lon="14.8349283"><ele>724.0</ele><time>2026-04-25T07:37:49.023Z</time></trkpt><trkpt lat="40.752725" lon="14.8350467"><ele>724.0</ele><time>2026-04-25T07:37:51.027Z</time></trkpt><trkpt lat="40.7527883" lon="14.8351133"><ele>724.0</ele><time>2026-04-25T07:37:53.024Z</time></trkpt><trkpt lat="40.7528817" lon="14.8351383"><ele>724.0</ele><time>2026-04-25T07:37:55.03Z</time></trkpt><trkpt lat="40.752945" lon="14.8351483"><ele>724.0</ele><time>2026-04-25T07:37:56.102Z</time></trkpt><trkpt lat="40.753025" lon="14.8351567"><ele>725.2</ele><time>2026-04-25T07:37:57.028Z</time></trkpt><trkpt lat="40.7531167" lon="14.8351817"><ele>726.4000000000001</ele><time>2026-04-25T07:37:58.026Z</time></trkpt><trkpt lat="40.7532183" lon="14.8352233"><ele>727.6</ele><time>2026-04-25T07:37:59.034Z</time></trkpt><trkpt lat="40.7533133" lon="14.8352683"><ele>728.8</ele><time>2026-04-25T07:38:00.03Z</time></trkpt><trkpt lat="40.7534017" lon="14.835315"><ele>730.0</ele><time>2026-04-25T07:38:01.03Z</time></trkpt><trkpt lat="40.75347" lon="14.835385"><ele>730.0</ele><time>2026-04-25T07:38:02.024Z</time></trkpt><trkpt lat="40.7535267" lon="14.8354633"><ele>730.0</ele><time>2026-04-25T07:38:03.016Z</time></trkpt><trkpt lat="40.7535633" lon="14.8355567"><ele>730.0</ele><time>2026-04-25T07:38:04.018Z</time></trkpt><trkpt lat="40.7535933" lon="14.8356467"><ele>730.0</ele><time>2026-04-25T07:38:05.028Z</time></trkpt><trkpt lat="40.753615" lon="14.8357483"><ele>730.0</ele><time>2026-04-25T07:38:06.022Z</time></trkpt><trkpt lat="40.7536617" lon="14.8358433"><ele>730.0</ele><time>2026-04-25T07:38:07.031Z</time></trkpt><trkpt lat="40.7537167" lon="14.8359433"><ele>728.5</ele><time>2026-04-25T07:38:08.053Z</time></trkpt><trkpt lat="40.7537817" lon="14.8360367"><ele>727.0</ele><time>2026-04-25T07:38:09.021Z</time></trkpt><trkpt lat="40.752135" lon="14.8342367"><ele>726.4000000000001</ele><time>2026-04-25T07:37:39.018Z</time></trkpt><trkpt lat="40.7522283" lon="14.8342933"><ele>725.8000000000001</ele><time>2026-04-25T07:37:40.022Z</time></trkpt><trkpt lat="40.7523117" lon="14.834335"><ele>725.2</ele><time>2026-04-25T07:37:41.031Z</time></trkpt><trkpt lat="40.7523783" lon="14.834365"><ele>724.6</ele><time>2026-04-25T07:37:42.022Z</time></trkpt><trkpt lat="40.752485" lon="14.8344467"><ele>724.0</ele><time>2026-04-25T07:37:44.055Z</time></trkpt><trkpt lat="40.7525217" lon="14.83454"><ele>724.0</ele><time>2026-04-25T07:37:45.022Z</time></trkpt><trkpt lat="40.75256" lon="14.8346467"><ele>724.0</ele><time>2026-04-25T07:37:46.027Z</time></trkpt><trkpt lat="40.7525933" lon="14.8347517"><ele>724.0</ele><time>2026-04-25T07:37:47.019Z</time></trkpt><trkpt lat="40.75263" lon="14.8348483"><ele>724.0</ele><time>2026-04-25T07:37:48.029Z</time></trkpt><trkpt lat="40.7526633" lon="14.8349283"><ele>724.0</ele><time>2026-04-25T07:37:49.023Z</time></trkpt><trkpt lat="40.752725" lon="14.8350467"><ele>724.0</ele><time>2026-04-25T07:37:51.027Z</time></trkpt><trkpt lat="40.7527883" lon="14.8351133"><ele>725.0</ele><time>2026-04-25T07:37:53.024Z</time></trkpt><trkpt lat="40.7528817" lon="14.8351383"><ele>726.0</ele><time>2026-04-25T07:37:55.03Z</time></trkpt><trkpt lat="40.752945" lon="14.8351483"><ele>727.0</ele><time>2026-04-25T07:37:56.102Z</time></trkpt><trkpt lat="40.753025" lon="14.8351567"><ele>728.0</ele><time>2026-04-25T07:37:57.028Z</time></trkpt><trkpt lat="40.7531167" lon="14.8351817"><ele>729.0</ele><time>2026-04-25T07:37:58.026Z</time></trkpt><trkpt lat="40.7532183" lon="14.8352233"><ele>730.0</ele><time>2026-04-25T07:37:59.034Z</time></trkpt><trkpt lat="40.7533133" lon="14.8352683"><ele>730.0</ele><time>2026-04-25T07:38:00.03Z</time></trkpt><trkpt lat="40.7534017" lon="14.835315"><ele>730.0</ele><time>2026-04-25T07:38:01.03Z</time></trkpt><trkpt lat="40.75347" lon="14.835385"><ele>730.0</ele><time>2026-04-25T07:38:02.024Z</time></trkpt><trkpt lat="40.7535267" lon="14.8354633"><ele>730.0</ele><time>2026-04-25T07:38:03.016Z</time></trkpt><trkpt lat="40.7535633" lon="14.8355567"><ele>730.0</ele><time>2026-04-25T07:38:04.018Z</time></trkpt><trkpt lat="40.7535933" lon="14.8356467"><ele>730.0</ele><time>2026-04-25T07:38:05.028Z</time></trkpt><trkpt lat="40.753615" lon="14.8357483"><ele>729.4</ele><time>2026-04-25T07:38:06.022Z</time></trkpt><trkpt lat="40.7536617" lon="14.8358433"><ele>728.8</ele><time>2026-04-25T07:38:07.031Z</time></trkpt><trkpt lat="40.7537167" lon="14.8359433"><ele>728.2</ele><time>2026-04-25T07:38:08.053Z</time></trkpt><trkpt lat="40.7537817" lon="14.8360367"><ele>727.6</ele><time>2026-04-25T07:38:09.021Z</time></trkpt><trkpt lat="40.753855" lon="14.8361367"><ele>727.0</ele><time>2026-04-25T07:38:10.022Z</time></trkpt><trkpt lat="40.753935" lon="14.83621"><ele>727.0</ele><time>2026-04-25T07:38:11.026Z</time></trkpt><trkpt lat="40.7540567" lon="14.836195"><ele>727.0</ele><time>2026-04-25T07:38:12.027Z</time></trkpt><trkpt lat="40.75417" lon="14.83619"><ele>727.0</ele><time>2026-04-25T07:38:13.03Z</time></trkpt><trkpt lat="40.7542917" lon="14.8361733"><ele>727.0</ele><time>2026-04-25T07:38:14.065Z</time></trkpt><trkpt lat="40.7544267" lon="14.836135"><ele>729.75</ele><time>2026-04-25T07:38:15.023Z</time></trkpt><trkpt lat="40.7545617" lon="14.83609"><ele>732.5</ele><time>2026-04-25T07:38:16.02Z</time></trkpt><trkpt lat="40.7546917" lon="14.836055"><ele>735.25</ele><time>2026-04-25T07:38:17.024Z</time></trkpt><trkpt lat="40.7548067" lon="14.8360383"><ele>738.0</ele><time>2026-04-25T07:38:18.021Z</time></trkpt><trkpt lat="40.7549083" lon="14.8360333"><ele>738.0</ele><time>2026-04-25T07:38:19.027Z</time></trkpt><trkpt lat="40.7549617" lon="14.8361517"><ele>738.0</ele><time>2026-04-25T07:38:21.022Z</time></trkpt><trkpt lat="40.7550017" lon="14.83622"><ele>738.0</ele><time>2026-04-25T07:38:22.023Z</time></trkpt><trkpt lat="40.7550433" lon="14.8362833"><ele>738.0</ele><time>2026-04-25T07:38:23.029Z</time></trkpt><trkpt lat="40.7551383" lon="14.8363967"><ele>738.0</ele><time>2026-04-25T07:38:25.028Z</time></trkpt><trkpt lat="40.7552167" lon="14.83644"><ele>738.0</ele><time>2026-04-25T07:38:26.088Z</time></trkpt><trkpt lat="40.7553217" lon="14.836465"><ele>740.0</ele><time>2026-04-25T07:38:27.017Z</time></trkpt><trkpt lat="40.755445" lon="14.83648"><ele>742.0</ele><time>2026-04-25T07:38:28.027Z</time></trkpt><trkpt lat="40.7555633" lon="14.83648"><ele>744.0</ele><time>2026-04-25T07:38:29.024Z</time></trkpt><trkpt lat="40.7556733" lon="14.8364683"><ele>746.0</ele><time>2026-04-25T07:38:30.026Z</time></trkpt><trkpt lat="40.7557717" lon="14.8364467"><ele>746.0</ele><time>2026-04-25T07:38:31.033Z</time></trkpt><trkpt lat="40.7558583" lon="14.83641"><ele>746.0</ele><time>2026-04-25T07:38:32.048Z</time></trkpt><trkpt lat="40.7559333" lon="14.83636"><ele>746.0</ele><time>2026-04-25T07:38:33.033Z</time></trkpt><trkpt lat="40.75601" lon="14.83633"><ele>746.0</ele><time>2026-04-25T07:38:34.027Z</time></trkpt><trkpt lat="40.7560967" lon="14.8363017"><ele>746.0</ele><time>2026-04-25T07:38:35.026Z</time></trkpt><trkpt lat="40.75619" lon="14.8362683"><ele>746.0</ele><time>2026-04-25T07:38:36.023Z</time></trkpt><trkpt lat="40.7562883" lon="14.8362267"><ele>745.0</ele><time>2026-04-25T07:38:37.025Z</time></trkpt><trkpt lat="40.7564017" lon="14.8361633"><ele>744.0</ele><time>2026-04-25T07:38:38.06Z</time></trkpt><trkpt lat="40.7565233" lon="14.8360783"><ele>743.0</ele><time>2026-04-25T07:38:39.022Z</time></trkpt><trkpt lat="40.7566333" lon="14.8360017"><ele>742.0</ele><time>2026-04-25T07:38:40.018Z</time></trkpt><trkpt lat="40.7567333" lon="14.8359267"><ele>742.6666666666667</ele><time>2026-04-25T07:38:41.018Z</time></trkpt><trkpt lat="40.75683" lon="14.83586"><ele>743.3333333333334</ele><time>2026-04-25T07:38:42.024Z</time></trkpt><trkpt lat="40.7569167" lon="14.8358017"><ele>744.0</ele><time>2026-04-25T07:38:43.026Z</time></trkpt><trkpt lat="40.7569933" lon="14.8358133"><ele>744.6666666666666</ele><time>2026-04-25T07:38:46.018Z</time></trkpt><trkpt lat="40.7569983" lon="14.8359"><ele>745.3333333333333</ele><time>2026-04-25T07:38:49.03Z</time></trkpt><trkpt lat="40.7570217" lon="14.836025"><ele>746.0</ele><time>2026-04-25T07:38:55.027Z</time></trkpt><trkpt lat="40.7570233" lon="14.8361133"><ele>746.0</ele><time>2026-04-25T07:38:56.085Z</time></trkpt><trkpt lat="40.7570217" lon="14.836215"><ele>746.0</ele><time>2026-04-25T07:38:57.025Z</time></trkpt><trkpt lat="40.7570167" lon="14.8363317"><ele>746.0</ele><time>2026-04-25T07:38:58.023Z</time></trkpt><trkpt lat="40.7570083" lon="14.83647"><ele>746.0</ele><time>2026-04-25T07:38:59.019Z</time></trkpt><trkpt lat="40.756995" lon="14.836655"><ele>746.0</ele><time>2026-04-25T07:39:00.026Z</time></trkpt><trkpt lat="40.75698" lon="14.8368233"><ele>743.75</ele><time>2026-04-25T07:39:01.028Z</time></trkpt><trkpt lat="40.7569617" lon="14.8369833"><ele>741.5</ele><time>2026-04-25T07:39:02.028Z</time></trkpt><trkpt lat="40.7569383" lon="14.8371333"><ele>739.25</ele><time>2026-04-25T07:39:03.033Z</time></trkpt><trkpt lat="40.7569017" lon="14.83728"><ele>737.0</ele><time>2026-04-25T07:39:04.018Z</time></trkpt><trkpt lat="40.756845" lon="14.8374433"><ele>736.6666666666666</ele><time>2026-04-25T07:39:05.025Z</time></trkpt><trkpt lat="40.7567717" lon="14.83761"><ele>736.3333333333334</ele><time>2026-04-25T07:39:06.02Z</time></trkpt><trkpt lat="40.756685" lon="14.8377667"><ele>736.0</ele><time>2026-04-25T07:39:07.026Z</time></trkpt><trkpt lat="40.75658" lon="14.83792"><ele>737.6666666666667</ele><time>2026-04-25T07:39:08.053Z</time></trkpt><trkpt lat="40.7564683" lon="14.838095"><ele>739.3333333333334</ele><time>2026-04-25T07:39:09.019Z</time></trkpt><trkpt lat="40.7563633" lon="14.838275"><ele>741.0</ele><time>2026-04-25T07:39:10.032Z</time></trkpt><trkpt lat="40.7562667" lon="14.8384583"><ele>740.0</ele><time>2026-04-25T07:39:11.021Z</time></trkpt><trkpt lat="40.756175" lon="14.838645"><ele>739.0</ele><time>2026-04-25T07:39:12.019Z</time></trkpt><trkpt lat="40.7560717" lon="14.8388433"><ele>738.0</ele><time>2026-04-25T07:39:13.023Z</time></trkpt><trkpt lat="40.7559683" lon="14.8390367"><ele>738.0</ele><time>2026-04-25T07:39:14.063Z</time></trkpt><trkpt lat="40.755865" lon="14.8392183"><ele>738.0</ele><time>2026-04-25T07:39:15.024Z</time></trkpt><trkpt lat="40.7557667" lon="14.8393983"><ele>738.0</ele><time>2026-04-25T07:39:16.024Z</time></trkpt><trkpt lat="40.75567" lon="14.8395717"><ele>735.3333333333334</ele><time>2026-04-25T07:39:17.029Z</time></trkpt><trkpt lat="40.7555717" lon="14.839745"><ele>732.6666666666667</ele><time>2026-04-25T07:39:18.022Z</time></trkpt><trkpt lat="40.7554733" lon="14.83991"><ele>730.0</ele><time>2026-04-25T07:39:19.029Z</time></trkpt><trkpt lat="40.755375" lon="14.84007"><ele>731.5</ele><time>2026-04-25T07:39:20.054Z</time></trkpt><trkpt lat="40.75529" lon="14.8402283"><ele>733.0</ele><time>2026-04-25T07:39:21.023Z</time></trkpt><trkpt lat="40.7552267" lon="14.8403917"><ele>734.5</ele><time>2026-04-25T07:39:22.025Z</time></trkpt><trkpt lat="40.7551617" lon="14.8405617"><ele>736.0</ele><time>2026-04-25T07:39:23.028Z</time></trkpt><trkpt lat="40.7551033" lon="14.84072"><ele>736.0</ele><time>2026-04-25T07:39:24.021Z</time></trkpt><trkpt lat="40.7550533" lon="14.8408567"><ele>736.0</ele><time>2026-04-25T07:39:25.023Z</time></trkpt><trkpt lat="40.7550083" lon="14.84098"><ele>736.0</ele><time>2026-04-25T07:39:26.024Z</time></trkpt><trkpt lat="40.754965" lon="14.8411017"><ele>736.0</ele><time>2026-04-25T07:39:27.027Z</time></trkpt><trkpt lat="40.754925" lon="14.8412233"><ele>736.0</ele><time>2026-04-25T07:39:28.017Z</time></trkpt><trkpt lat="40.7548867" lon="14.8413333"><ele>734.8333333333334</ele><time>2026-04-25T07:39:29.017Z</time></trkpt><trkpt lat="40.754845" lon="14.8414333"><ele>733.6666666666667</ele><time>2026-04-25T07:39:30.018Z</time></trkpt><trkpt lat="40.7547933" lon="14.841525"><ele>732.5</ele><time>2026-04-25T07:39:31.025Z</time></trkpt><trkpt lat="40.7547333" lon="14.8416117"><ele>731.3333333333334</ele><time>2026-04-25T07:39:32.086Z</time></trkpt><trkpt lat="40.754665" lon="14.8416883"><ele>730.1666666666666</ele><time>2026-04-25T07:39:33.02Z</time></trkpt><trkpt lat="40.7545883" lon="14.8417517"><ele>729.0</ele><time>2026-04-25T07:39:34.028Z</time></trkpt><trkpt lat="40.7545133" lon="14.8418083"><ele>730.8571428571429</ele><time>2026-04-25T07:39:35.026Z</time></trkpt><trkpt lat="40.7544517" lon="14.84185"><ele>732.7142857142857</ele><time>2026-04-25T07:39:36.018Z</time></trkpt><trkpt lat="40.7543917" lon="14.8419"><ele>734.5714285714286</ele><time>2026-04-25T07:39:37.03Z</time></trkpt><trkpt lat="40.7543333" lon="14.841955"><ele>736.4285714285714</ele><time>2026-04-25T07:39:38.058Z</time></trkpt><trkpt lat="40.7542867" lon="14.8420167"><ele>738.2857142857142</ele><time>2026-04-25T07:39:39.015Z</time></trkpt><trkpt lat="40.7542433" lon="14.842095"><ele>740.1428571428571</ele><time>2026-04-25T07:39:40.017Z</time></trkpt><trkpt lat="40.754215" lon="14.8421867"><ele>742.0</ele><time>2026-04-25T07:39:41.029Z</time></trkpt><trkpt lat="40.7542033" lon="14.8423117"><ele>742.0</ele><time>2026-04-25T07:39:42.023Z</time></trkpt><trkpt lat="40.75422" lon="14.8424583"><ele>742.0</ele><time>2026-04-25T07:39:43.023Z</time></trkpt><trkpt lat="40.7542483" lon="14.8426"><ele>742.0</ele><time>2026-04-25T07:39:44.058Z</time></trkpt><trkpt lat="40.7542683" lon="14.84275"><ele>742.0</ele><time>2026-04-25T07:39:45.02Z</time></trkpt><trkpt lat="40.75432" lon="14.842905"><ele>738.0</ele><time>2026-04-25T07:39:46.02Z</time></trkpt><trkpt lat="40.75439" lon="14.843065"><ele>734.0</ele><time>2026-04-25T07:39:47.023Z</time></trkpt><trkpt lat="40.7544817" lon="14.8432183"><ele>730.0</ele><time>2026-04-25T07:39:48.025Z</time></trkpt><trkpt lat="40.7545567" lon="14.8433717"><ele>726.0</ele><time>2026-04-25T07:39:49.025Z</time></trkpt><trkpt lat="40.75463" lon="14.84353"><ele>726.0</ele><time>2026-04-25T07:39:50.057Z</time></trkpt><trkpt lat="40.7546867" lon="14.843695"><ele>726.0</ele><time>2026-04-25T07:39:51.023Z</time></trkpt><trkpt lat="40.7547283" lon="14.8438567"><ele>726.0</ele><time>2026-04-25T07:39:52.024Z</time></trkpt><trkpt lat="40.754765" lon="14.8440117"><ele>726.0</ele><time>2026-04-25T07:39:53.024Z</time></trkpt><trkpt lat="40.7548" lon="14.8441583"><ele>726.0</ele><time>2026-04-25T07:39:54.024Z</time></trkpt><trkpt lat="40.7548433" lon="14.844295"><ele>726.0</ele><time>2026-04-25T07:39:55.023Z</time></trkpt><trkpt lat="40.7548983" lon="14.844425"><ele>726.0</ele><time>2026-04-25T07:39:56.086Z</time></trkpt><trkpt lat="40.7549767" lon="14.844545"><ele>726.0</ele><time>2026-04-25T07:39:57.02Z</time></trkpt><trkpt lat="40.7550783" lon="14.8446517"><ele>726.0</ele><time>2026-04-25T07:39:58.018Z</time></trkpt><trkpt lat="40.7551967" lon="14.844755"><ele>726.0</ele><time>2026-04-25T07:39:59.024Z</time></trkpt><trkpt lat="40.75532" lon="14.844845"><ele>726.0</ele><time>2026-04-25T07:40:00.019Z</time></trkpt><trkpt lat="40.7554383" lon="14.844935"><ele>726.0</ele><time>2026-04-25T07:40:01.026Z</time></trkpt><trkpt lat="40.7555483" lon="14.8450417"><ele>728.75</ele><time>2026-04-25T07:40:02.015Z</time></trkpt><trkpt lat="40.7556517" lon="14.8451667"><ele>731.5</ele><time>2026-04-25T07:40:03.026Z</time></trkpt><trkpt lat="40.7557383" lon="14.8453067"><ele>734.25</ele><time>2026-04-25T07:40:04.026Z</time></trkpt><trkpt lat="40.7558217" lon="14.8454367"><ele>737.0</ele><time>2026-04-25T07:40:05.026Z</time></trkpt><trkpt lat="40.7559033" lon="14.8455717"><ele>737.0</ele><time>2026-04-25T07:40:06.026Z</time></trkpt><trkpt lat="40.7559867" lon="14.8456967"><ele>737.0</ele><time>2026-04-25T07:40:07.026Z</time></trkpt><trkpt lat="40.7560733" lon="14.8457967"><ele>737.0</ele><time>2026-04-25T07:40:08.065Z</time></trkpt><trkpt lat="40.7561717" lon="14.8458717"><ele>737.0</ele><time>2026-04-25T07:40:09.024Z</time></trkpt><trkpt lat="40.7562717" lon="14.8459583"><ele>736.75</ele><time>2026-04-25T07:40:10.026Z</time></trkpt><trkpt lat="40.75637" lon="14.8460683"><ele>736.5</ele><time>2026-04-25T07:40:11.026Z</time></trkpt><trkpt lat="40.7564683" lon="14.84619"><ele>736.25</ele><time>2026-04-25T07:40:12.024Z</time></trkpt><trkpt lat="40.7565617" lon="14.8463183"><ele>736.0</ele><time>2026-04-25T07:40:13.03Z</time></trkpt><trkpt lat="40.7566483" lon="14.8464433"><ele>736.0</ele><time>2026-04-25T07:40:14.059Z</time></trkpt><trkpt lat="40.7567233" lon="14.846585"><ele>736.0</ele><time>2026-04-25T07:40:15.023Z</time></trkpt><trkpt lat="40.7567917" lon="14.8467233"><ele>736.0</ele><time>2026-04-25T07:40:16.017Z</time></trkpt><trkpt lat="40.75685" lon="14.846875"><ele>736.0</ele><time>2026-04-25T07:40:17.026Z</time></trkpt><trkpt lat="40.756905" lon="14.8470367"><ele>735.5</ele><time>2026-04-25T07:40:18.021Z</time></trkpt><trkpt lat="40.7569567" lon="14.8471983"><ele>735.0</ele><time>2026-04-25T07:40:19.032Z</time></trkpt><trkpt lat="40.7570067" lon="14.8473683"><ele>734.5</ele><time>2026-04-25T07:40:20.061Z</time></trkpt><trkpt lat="40.7570633" lon="14.8475383"><ele>734.0</ele><time>2026-04-25T07:40:21.025Z</time></trkpt><trkpt lat="40.757115" lon="14.8476983"><ele>736.0</ele><time>2026-04-25T07:40:22.024Z</time></trkpt><trkpt lat="40.7571633" lon="14.8478583"><ele>738.0</ele><time>2026-04-25T07:40:23.027Z</time></trkpt><trkpt lat="40.7572083" lon="14.8480017"><ele>740.0</ele><time>2026-04-25T07:40:24.026Z</time></trkpt><trkpt lat="40.75725" lon="14.8481383"><ele>742.0</ele><time>2026-04-25T07:40:25.03Z</time></trkpt><trkpt lat="40.7572983" lon="14.848275"><ele>742.0</ele><time>2026-04-25T07:40:26.051Z</time></trkpt><trkpt lat="40.7573517" lon="14.8483883"><ele>742.0</ele><time>2026-04-25T07:40:27.02Z</time></trkpt><trkpt lat="40.7574133" lon="14.8484817"><ele>742.0</ele><time>2026-04-25T07:40:28.026Z</time></trkpt><trkpt lat="40.7574833" lon="14.848575"><ele>742.0</ele><time>2026-04-25T07:40:29.026Z</time></trkpt><trkpt lat="40.7575583" lon="14.84869"><ele>742.0</ele><time>2026-04-25T07:40:30.025Z</time></trkpt><trkpt lat="40.7576333" lon="14.848825"><ele>741.8</ele><time>2026-04-25T07:40:31.026Z</time></trkpt><trkpt lat="40.7577033" lon="14.8489733"><ele>741.6</ele><time>2026-04-25T07:40:32.055Z</time></trkpt><trkpt lat="40.75776" lon="14.8491117"><ele>741.4</ele><time>2026-04-25T07:40:33.024Z</time></trkpt><trkpt lat="40.7578067" lon="14.8492383"><ele>741.1999999999999</ele><time>2026-04-25T07:40:34.019Z</time></trkpt><trkpt lat="40.7578383" lon="14.8493317"><ele>741.0</ele><time>2026-04-25T07:40:35.029Z</time></trkpt><trkpt lat="40.7578683" lon="14.849415"><ele>740.1666666666666</ele><time>2026-04-25T07:40:37.03Z</time></trkpt><trkpt lat="40.75795" lon="14.84947"><ele>739.3333333333334</ele><time>2026-04-25T07:40:40.025Z</time></trkpt><trkpt lat="40.7580633" lon="14.84953"><ele>738.5</ele><time>2026-04-25T07:40:42.024Z</time></trkpt><trkpt lat="40.7581333" lon="14.8495683"><ele>737.6666666666667</ele><time>2026-04-25T07:40:43.029Z</time></trkpt><trkpt lat="40.7581967" lon="14.849625"><ele>736.8333333333334</ele><time>2026-04-25T07:40:44.061Z</time></trkpt><trkpt lat="40.7582517" lon="14.849695"><ele>736.0</ele><time>2026-04-25T07:40:45.023Z</time></trkpt><trkpt lat="40.758305" lon="14.8497767"><ele>736.0</ele><time>2026-04-25T07:40:46.024Z</time></trkpt><trkpt lat="40.758365" lon="14.8498617"><ele>736.0</ele><time>2026-04-25T07:40:47.029Z</time></trkpt><trkpt lat="40.7584317" lon="14.8499533"><ele>736.0</ele><time>2026-04-25T07:40:48.022Z</time></trkpt><trkpt lat="40.7585133" lon="14.8500467"><ele>736.0</ele><time>2026-04-25T07:40:49.023Z</time></trkpt><trkpt lat="40.7586317" lon="14.8501333"><ele>736.0</ele><time>2026-04-25T07:40:50.063Z</time></trkpt><trkpt lat="40.7587883" lon="14.8502117"><ele>731.6666666666667</ele><time>2026-04-25T07:40:51.022Z</time></trkpt><trkpt lat="40.75896" lon="14.8502917"><ele>727.3333333333334</ele><time>2026-04-25T07:40:52.026Z</time></trkpt><trkpt lat="40.759105" lon="14.85039"><ele>723.0</ele><time>2026-04-25T07:40:53.036Z</time></trkpt><trkpt lat="40.7592367" lon="14.850495"><ele>723.0</ele><time>2026-04-25T07:40:54.024Z</time></trkpt><trkpt lat="40.759355" lon="14.8506"><ele>723.0</ele><time>2026-04-25T07:40:55.032Z</time></trkpt><trkpt lat="40.7594717" lon="14.8507167"><ele>723.0</ele><time>2026-04-25T07:40:56.075Z</time></trkpt><trkpt lat="40.7595533" lon="14.8508767"><ele>723.0</ele><time>2026-04-25T07:40:57.025Z</time></trkpt><trkpt lat="40.7596217" lon="14.85105"><ele>722.25</ele><time>2026-04-25T07:40:58.021Z</time></trkpt><trkpt lat="40.7596883" lon="14.8512383"><ele>721.5</ele><time>2026-04-25T07:40:59.03Z</time></trkpt><trkpt lat="40.7597417" lon="14.8514283"><ele>720.75</ele><time>2026-04-25T07:41:00.033Z</time></trkpt><trkpt lat="40.7597617" lon="14.85158"><ele>720.0</ele><time>2026-04-25T07:41:01.03Z</time></trkpt><trkpt lat="40.7597583" lon="14.8517017"><ele>721.0</ele><time>2026-04-25T07:41:02.08Z</time></trkpt><trkpt lat="40.7597517" lon="14.85181"><ele>722.0</ele><time>2026-04-25T07:41:03.024Z</time></trkpt><trkpt lat="40.7597267" lon="14.8519017"><ele>723.0</ele><time>2026-04-25T07:41:04.025Z</time></trkpt><trkpt lat="40.759705" lon="14.85198"><ele>724.0</ele><time>2026-04-25T07:41:05.029Z</time></trkpt><trkpt lat="40.75967" lon="14.8520633"><ele>725.0</ele><time>2026-04-25T07:41:06.027Z</time></trkpt><trkpt lat="40.7596233" lon="14.85215"><ele>726.0</ele><time>2026-04-25T07:41:07.03Z</time></trkpt><trkpt lat="40.7595933" lon="14.852235"><ele>727.0</ele><time>2026-04-25T07:41:08.057Z</time></trkpt><trkpt lat="40.7595733" lon="14.85232"><ele>727.0</ele><time>2026-04-25T07:41:09.019Z</time></trkpt><trkpt lat="40.75957" lon="14.852405"><ele>727.0</ele><time>2026-04-25T07:41:10.022Z</time></trkpt><trkpt lat="40.7595917" lon="14.85251"><ele>727.0</ele><time>2026-04-25T07:41:11.027Z</time></trkpt><trkpt lat="40.75962" lon="14.8526217"><ele>727.0</ele><time>2026-04-25T07:41:12.027Z</time></trkpt><trkpt lat="40.75964" lon="14.85274"><ele>727.0</ele><time>2026-04-25T07:41:13.027Z</time></trkpt><trkpt lat="40.7596567" lon="14.852855"><ele>727.0</ele><time>2026-04-25T07:41:14.058Z</time></trkpt><trkpt lat="40.7596583" lon="14.8529683"><ele>727.6666666666667</ele><time>2026-04-25T07:41:15.027Z</time></trkpt><trkpt lat="40.759665" lon="14.853065"><ele>728.3333333333334</ele><time>2026-04-25T07:41:16.02Z</time></trkpt><trkpt lat="40.75968" lon="14.853175"><ele>729.0</ele><time>2026-04-25T07:41:17.025Z</time></trkpt><trkpt lat="40.7597" lon="14.8532817"><ele>729.6666666666666</ele><time>2026-04-25T07:41:18.026Z</time></trkpt><trkpt lat="40.7597167" lon="14.853395"><ele>730.3333333333333</ele><time>2026-04-25T07:41:19.028Z</time></trkpt><trkpt lat="40.7597267" lon="14.85352"><ele>731.0</ele><time>2026-04-25T07:41:20.059Z</time></trkpt><trkpt lat="40.7597283" lon="14.8536367"><ele>729.3333333333333</ele><time>2026-04-25T07:41:21.027Z</time></trkpt><trkpt lat="40.7597183" lon="14.853745"><ele>727.6666666666666</ele><time>2026-04-25T07:41:22.029Z</time></trkpt><trkpt lat="40.759685" lon="14.8538467"><ele>726.0</ele><time>2026-04-25T07:41:23.026Z</time></trkpt><trkpt lat="40.759645" lon="14.8539517"><ele>724.3333333333334</ele><time>2026-04-25T07:41:24.029Z</time></trkpt><trkpt lat="40.7596" lon="14.854055"><ele>722.6666666666667</ele><time>2026-04-25T07:41:25.024Z</time></trkpt><trkpt lat="40.7595683" lon="14.85414"><ele>721.0</ele><time>2026-04-25T07:41:26.046Z</time></trkpt><trkpt lat="40.7595367" lon="14.8542283"><ele>718.6666666666667</ele><time>2026-04-25T07:41:27.032Z</time></trkpt><trkpt lat="40.7595083" lon="14.85432"><ele>716.3333333333334</ele><time>2026-04-25T07:41:28.026Z</time></trkpt><trkpt lat="40.759485" lon="14.8544067"><ele>714.0</ele><time>2026-04-25T07:41:29.025Z</time></trkpt><trkpt lat="40.7594633" lon="14.854485"><ele>711.6666666666666</ele><time>2026-04-25T07:41:30.024Z</time></trkpt><trkpt lat="40.7594217" lon="14.85459"><ele>709.3333333333333</ele><time>2026-04-25T07:41:32.046Z</time></trkpt><trkpt lat="40.7593567" lon="14.8546583"><ele>707.0</ele><time>2026-04-25T07:41:34.02Z</time></trkpt><trkpt lat="40.7592267" lon="14.85471"><ele>707.0</ele><time>2026-04-25T07:41:36.023Z</time></trkpt><trkpt lat="40.7591233" lon="14.8547617"><ele>707.0</ele><time>2026-04-25T07:41:37.028Z</time></trkpt><trkpt lat="40.7589933" lon="14.85485"><ele>707.0</ele><time>2026-04-25T07:41:38.059Z</time></trkpt><trkpt lat="40.7588717" lon="14.8549467"><ele>707.0</ele><time>2026-04-25T07:41:39.023Z</time></trkpt><trkpt lat="40.7587583" lon="14.8550483"><ele>703.6</ele><time>2026-04-25T07:41:40.017Z</time></trkpt><trkpt lat="40.758665" lon="14.85514"><ele>700.2</ele><time>2026-04-25T07:41:41.029Z</time></trkpt><trkpt lat="40.7585833" lon="14.8552233"><ele>696.8</ele><time>2026-04-25T07:41:42.027Z</time></trkpt><trkpt lat="40.758505" lon="14.85531"><ele>693.4</ele><time>2026-04-25T07:41:43.035Z</time></trkpt><trkpt lat="40.7584233" lon="14.85539"><ele>690.0</ele><time>2026-04-25T07:41:44.06Z</time></trkpt><trkpt lat="40.7583433" lon="14.8554533"><ele>690.0</ele><time>2026-04-25T07:41:45.026Z</time></trkpt><trkpt lat="40.758275" lon="14.8555083"><ele>690.0</ele><time>2026-04-25T07:41:46.024Z</time></trkpt><trkpt lat="40.7582183" lon="14.8555617"><ele>690.0</ele><time>2026-04-25T07:41:47.031Z</time></trkpt><trkpt lat="40.7581233" lon="14.8556733"><ele>690.0</ele><time>2026-04-25T07:41:49.025Z</time></trkpt><trkpt lat="40.7580733" lon="14.8557283"><ele>690.0</ele><time>2026-04-25T07:41:50.059Z</time></trkpt><trkpt lat="40.7580217" lon="14.8557867"><ele>690.0</ele><time>2026-04-25T07:41:51.031Z</time></trkpt><trkpt lat="40.7579617" lon="14.8558533"><ele>690.0</ele><time>2026-04-25T07:41:52.027Z</time></trkpt><trkpt lat="40.7578883" lon="14.855925"><ele>690.0</ele><time>2026-04-25T07:41:53.021Z</time></trkpt><trkpt lat="40.7578033" lon="14.8560033"><ele>690.0</ele><time>2026-04-25T07:41:54.025Z</time></trkpt><trkpt lat="40.7577133" lon="14.8560817"><ele>690.0</ele><time>2026-04-25T07:41:55.023Z</time></trkpt><trkpt lat="40.7576267" lon="14.8561717"><ele>690.0</ele><time>2026-04-25T07:41:56.048Z</time></trkpt><trkpt lat="40.7575517" lon="14.8562633"><ele>688.1666666666666</ele><time>2026-04-25T07:41:57.016Z</time></trkpt><trkpt lat="40.7574917" lon="14.8563467"><ele>686.3333333333334</ele><time>2026-04-25T07:41:58.026Z</time></trkpt><trkpt lat="40.757435" lon="14.8564367"><ele>684.5</ele><time>2026-04-25T07:41:59.03Z</time></trkpt><trkpt lat="40.7574" lon="14.8565283"><ele>682.6666666666667</ele><time>2026-04-25T07:42:00.024Z</time></trkpt><trkpt lat="40.757345" lon="14.85666"><ele>680.8333333333334</ele><time>2026-04-25T07:42:02.074Z</time></trkpt><trkpt lat="40.7572933" lon="14.8567183"><ele>679.0</ele><time>2026-04-25T07:42:03.022Z</time></trkpt><trkpt lat="40.7572267" lon="14.8567667"><ele>674.4000000000001</ele><time>2026-04-25T07:42:04.024Z</time></trkpt><trkpt lat="40.7571433" lon="14.856815"><ele>669.8</ele><time>2026-04-25T07:42:05.028Z</time></trkpt><trkpt lat="40.7570567" lon="14.8568783"><ele>665.2</ele><time>2026-04-25T07:42:06.024Z</time></trkpt><trkpt lat="40.7569667" lon="14.85696"><ele>660.5999999999999</ele><time>2026-04-25T07:42:07.027Z</time></trkpt><trkpt lat="40.756885" lon="14.857055"><ele>656.0</ele><time>2026-04-25T07:42:08.057Z</time></trkpt><trkpt lat="40.7568117" lon="14.857155"><ele>656.0</ele><time>2026-04-25T07:42:09.024Z</time></trkpt><trkpt lat="40.7567333" lon="14.8572433"><ele>656.0</ele><time>2026-04-25T07:42:10.032Z</time></trkpt><trkpt lat="40.7566533" lon="14.8573183"><ele>656.0</ele><time>2026-04-25T07:42:11.016Z</time></trkpt><trkpt lat="40.7565717" lon="14.8573767"><ele>656.0</ele><time>2026-04-25T07:42:12.025Z</time></trkpt><trkpt lat="40.7564933" lon="14.8574167"><ele>656.0</ele><time>2026-04-25T07:42:13.029Z</time></trkpt><trkpt lat="40.75642" lon="14.85745"><ele>655.9999999999999</ele><time>2026-04-25T07:42:14.059Z</time></trkpt><trkpt lat="40.75635" lon="14.857495"><ele>656.0</ele><time>2026-04-25T07:42:15.023Z</time></trkpt><trkpt lat="40.7562867" lon="14.8575467"><ele>656.0</ele><time>2026-04-25T07:42:16.028Z</time></trkpt><trkpt lat="40.75623" lon="14.8575983"><ele>656.0</ele><time>2026-04-25T07:42:17.027Z</time></trkpt><trkpt lat="40.7561817" lon="14.8576517"><ele>656.0</ele><time>2026-04-25T07:42:18.028Z</time></trkpt><trkpt lat="40.75613" lon="14.8577117"><ele>655.9999999999999</ele><time>2026-04-25T07:42:19.033Z</time></trkpt><trkpt lat="40.75607" lon="14.857765"><ele>656.0</ele><time>2026-04-25T07:42:20.054Z</time></trkpt><trkpt lat="40.7560067" lon="14.8578117"><ele>652.1666666666666</ele><time>2026-04-25T07:42:21.025Z</time></trkpt><trkpt lat="40.7559433" lon="14.85785"><ele>648.3333333333333</ele><time>2026-04-25T07:42:22.02Z</time></trkpt><trkpt lat="40.7558767" lon="14.8578883"><ele>644.5</ele><time>2026-04-25T07:42:23.032Z</time></trkpt><trkpt lat="40.7558083" lon="14.857925"><ele>640.6666666666666</ele><time>2026-04-25T07:42:24.023Z</time></trkpt><trkpt lat="40.7557" lon="14.8579667"><ele>636.8333333333334</ele><time>2026-04-25T07:42:26.081Z</time></trkpt><trkpt lat="40.7555867" lon="14.8579667"><ele>633.0</ele><time>2026-04-25T07:42:28.026Z</time></trkpt><trkpt lat="40.7555533" lon="14.85807"><ele>633.0</ele><time>2026-04-25T07:42:31.029Z</time></trkpt><trkpt lat="40.755615" lon="14.858145"><ele>633.0</ele><time>2026-04-25T07:42:34.017Z</time></trkpt><trkpt lat="40.7556833" lon="14.8581633"><ele>633.0</ele><time>2026-04-25T07:42:37.035Z</time></trkpt><trkpt lat="40.7556267" lon="14.85823"><ele>633.0</ele><time>2026-04-25T07:42:41.027Z</time></trkpt><trkpt lat="40.7555367" lon="14.8582717"><ele>633.0</ele><time>2026-04-25T07:42:43.034Z</time></trkpt><trkpt lat="40.7554717" lon="14.8583117"><ele>633.0</ele><time>2026-04-25T07:42:44.067Z</time></trkpt><trkpt lat="40.7554117" lon="14.8583433"><ele>633.0</ele><time>2026-04-25T07:42:45.027Z</time></trkpt><trkpt lat="40.7552967" lon="14.8583933"><ele>633.0</ele><time>2026-04-25T07:42:47.031Z</time></trkpt><trkpt lat="40.7552233" lon="14.8584433"><ele>633.0</ele><time>2026-04-25T07:42:48.023Z</time></trkpt><trkpt lat="40.7551483" lon="14.8585067"><ele>633.0</ele><time>2026-04-25T07:42:49.025Z</time></trkpt><trkpt lat="40.7550717" lon="14.858575"><ele>633.0</ele><time>2026-04-25T07:42:50.058Z</time></trkpt><trkpt lat="40.755" lon="14.8586583"><ele>628.5</ele><time>2026-04-25T07:42:51.023Z</time></trkpt><trkpt lat="40.75493" lon="14.85874"><ele>624.0</ele><time>2026-04-25T07:42:52.022Z</time></trkpt><trkpt lat="40.7548583" lon="14.8588133"><ele>619.5</ele><time>2026-04-25T07:42:53.034Z</time></trkpt><trkpt lat="40.754785" lon="14.858875"><ele>615.0</ele><time>2026-04-25T07:42:54.025Z</time></trkpt><trkpt lat="40.75472" lon="14.8589283"><ele>610.5</ele><time>2026-04-25T07:42:55.023Z</time></trkpt><trkpt lat="40.7546617" lon="14.858975"><ele>606.0</ele><time>2026-04-25T07:42:56.07Z</time></trkpt><trkpt lat="40.7546017" lon="14.85902"><ele>606.0</ele><time>2026-04-25T07:42:57.03Z</time></trkpt><trkpt lat="40.7545433" lon="14.8590583"><ele>606.0</ele><time>2026-04-25T07:42:58.018Z</time></trkpt><trkpt lat="40.7544833" lon="14.85909"><ele>606.0</ele><time>2026-04-25T07:42:59.032Z</time></trkpt><trkpt lat="40.7543883" lon="14.8591167"><ele>606.0</ele><time>2026-04-25T07:43:01.023Z</time></trkpt><trkpt lat="40.7543283" lon="14.859145"><ele>606.0</ele><time>2026-04-25T07:43:03.024Z</time></trkpt><trkpt lat="40.7543317" lon="14.85923"><ele>606.0</ele><time>2026-04-25T07:43:07.026Z</time></trkpt><trkpt lat="40.7543983" lon="14.8592333"><ele>606.0</ele><time>2026-04-25T07:43:09.02Z</time></trkpt><trkpt lat="40.75436" lon="14.85933"><ele>601.4</ele><time>2026-04-25T07:43:14.062Z</time></trkpt><trkpt lat="40.754245" lon="14.8593883"><ele>596.8</ele><time>2026-04-25T07:43:16.03Z</time></trkpt><trkpt lat="40.7541267" lon="14.8594283"><ele>592.1999999999999</ele><time>2026-04-25T07:43:18.029Z</time></trkpt><trkpt lat="40.75403" lon="14.8594333"><ele>587.6</ele><time>2026-04-25T07:43:20.066Z</time></trkpt><trkpt lat="40.753965" lon="14.8595033"><ele>583.0</ele><time>2026-04-25T07:43:23.027Z</time></trkpt><trkpt lat="40.7540067" lon="14.8595783"><ele>583.0</ele><time>2026-04-25T07:43:26.072Z</time></trkpt><trkpt lat="40.7540733" lon="14.8595783"><ele>583.0</ele><time>2026-04-25T07:43:28.023Z</time></trkpt><trkpt lat="40.7540433" lon="14.8596783"><ele>583.0</ele><time>2026-04-25T07:43:32.07Z</time></trkpt><trkpt lat="40.7539483" lon="14.8597"><ele>583.0</ele><time>2026-04-25T07:43:34.025Z</time></trkpt><trkpt lat="40.75387" lon="14.8597133"><ele>583.0</ele><time>2026-04-25T07:43:36.024Z</time></trkpt><trkpt lat="40.7537783" lon="14.8597433"><ele>583.0</ele><time>2026-04-25T07:43:38.058Z</time></trkpt><trkpt lat="40.7536917" lon="14.8597467"><ele>583.0</ele><time>2026-04-25T07:43:40.016Z</time></trkpt><trkpt lat="40.7536017" lon="14.8598217"><ele>583.0</ele><time>2026-04-25T07:43:42.022Z</time></trkpt><trkpt lat="40.7535317" lon="14.8599383"><ele>583.0</ele><time>2026-04-25T07:43:44.063Z</time></trkpt><trkpt lat="40.7534667" lon="14.8600333"><ele>583.0</ele><time>2026-04-25T07:43:46.026Z</time></trkpt><trkpt lat="40.7534383" lon="14.8601333"><ele>583.0</ele><time>2026-04-25T07:43:48.027Z</time></trkpt><trkpt lat="40.7534417" lon="14.86027"><ele>579.5</ele><time>2026-04-25T07:43:50.064Z</time></trkpt><trkpt lat="40.7534483" lon="14.8604217"><ele>576.0</ele><time>2026-04-25T07:43:52.031Z</time></trkpt><trkpt lat="40.75341" lon="14.86057"><ele>572.5</ele><time>2026-04-25T07:43:54.027Z</time></trkpt><trkpt lat="40.75338" lon="14.860645"><ele>569.0</ele><time>2026-04-25T07:43:55.032Z</time></trkpt><trkpt lat="40.7533417" lon="14.8607167"><ele>565.5</ele><time>2026-04-25T07:43:56.071Z</time></trkpt><trkpt lat="40.7533" lon="14.8607883"><ele>562.0</ele><time>2026-04-25T07:43:57.022Z</time></trkpt><trkpt lat="40.7532567" lon="14.8608567"><ele>562.0</ele><time>2026-04-25T07:43:58.025Z</time></trkpt><trkpt lat="40.753215" lon="14.8609383"><ele>562.0</ele><time>2026-04-25T07:43:59.025Z</time></trkpt><trkpt lat="40.7531767" lon="14.8610267"><ele>562.0</ele><time>2026-04-25T07:44:00.03Z</time></trkpt><trkpt lat="40.7531417" lon="14.86111"><ele>562.0</ele><time>2026-04-25T07:44:01.027Z</time></trkpt><trkpt lat="40.7531033" lon="14.8612"><ele>562.0</ele><time>2026-04-25T07:44:02.052Z</time></trkpt><trkpt lat="40.7530633" lon="14.8613033"><ele>562.0</ele><time>2026-04-25T07:44:03.024Z</time></trkpt><trkpt lat="40.753025" lon="14.861395"><ele>560.6666666666667</ele><time>2026-04-25T07:44:04.025Z</time></trkpt><trkpt lat="40.75298" lon="14.8614767"><ele>559.3333333333334</ele><time>2026-04-25T07:44:05.042Z</time></trkpt><trkpt lat="40.7529283" lon="14.8615517"><ele>558.0</ele><time>2026-04-25T07:44:06.03Z</time></trkpt><trkpt lat="40.75287" lon="14.8616183"><ele>556.6666666666666</ele><time>2026-04-25T07:44:07.028Z</time></trkpt><trkpt lat="40.7528083" lon="14.8616817"><ele>555.3333333333333</ele><time>2026-04-25T07:44:08.056Z</time></trkpt><trkpt lat="40.7527383" lon="14.8617533"><ele>554.0</ele><time>2026-04-25T07:44:09.02Z</time></trkpt><trkpt lat="40.7526667" lon="14.8618317"><ele>550.4</ele><time>2026-04-25T07:44:10.021Z</time></trkpt><trkpt lat="40.7526117" lon="14.8619117"><ele>546.8</ele><time>2026-04-25T07:44:11.022Z</time></trkpt><trkpt lat="40.75255" lon="14.861995"><ele>543.2</ele><time>2026-04-25T07:44:12.023Z</time></trkpt><trkpt lat="40.75248" lon="14.862075"><ele>539.6</ele><time>2026-04-25T07:44:13.026Z</time></trkpt><trkpt lat="40.752405" lon="14.8621433"><ele>536.0</ele><time>2026-04-25T07:44:14.061Z</time></trkpt><trkpt lat="40.7523267" lon="14.8622233"><ele>536.0</ele><time>2026-04-25T07:44:15.024Z</time></trkpt><trkpt lat="40.7522583" lon="14.8622867"><ele>536.0</ele><time>2026-04-25T07:44:16.017Z</time></trkpt><trkpt lat="40.752185" lon="14.862355"><ele>536.0</ele><time>2026-04-25T07:44:17.029Z</time></trkpt><trkpt lat="40.75212" lon="14.8624017"><ele>536.0</ele><time>2026-04-25T07:44:18.024Z</time></trkpt><trkpt lat="40.7520567" lon="14.86245"><ele>536.0</ele><time>2026-04-25T07:44:19.033Z</time></trkpt><trkpt lat="40.7520067" lon="14.86251"><ele>536.0</ele><time>2026-04-25T07:44:20.058Z</time></trkpt><trkpt lat="40.751965" lon="14.8625867"><ele>534.1666666666666</ele><time>2026-04-25T07:44:21.023Z</time></trkpt><trkpt lat="40.7518867" lon="14.8627017"><ele>532.3333333333333</ele><time>2026-04-25T07:44:23.025Z</time></trkpt><trkpt lat="40.75183" lon="14.862755"><ele>530.5</ele><time>2026-04-25T07:44:24.025Z</time></trkpt><trkpt lat="40.751775" lon="14.8628"><ele>528.6666666666666</ele><time>2026-04-25T07:44:25.035Z</time></trkpt><trkpt lat="40.7517167" lon="14.8628517"><ele>526.8333333333334</ele><time>2026-04-25T07:44:26.076Z</time></trkpt><trkpt lat="40.7516683" lon="14.8629117"><ele>525.0</ele><time>2026-04-25T07:44:27.024Z</time></trkpt><trkpt lat="40.7516233" lon="14.862975"><ele>523.0</ele><time>2026-04-25T07:44:28.024Z</time></trkpt><trkpt lat="40.7515383" lon="14.8630567"><ele>521.0</ele><time>2026-04-25T07:44:30.021Z</time></trkpt><trkpt lat="40.751475" lon="14.863085"><ele>519.0</ele><time>2026-04-25T07:44:31.018Z</time></trkpt><trkpt lat="40.7514017" lon="14.8630867"><ele>517.0</ele><time>2026-04-25T07:44:32.067Z</time></trkpt><trkpt lat="40.751325" lon="14.863075"><ele>515.0</ele><time>2026-04-25T07:44:33.023Z</time></trkpt><trkpt lat="40.7512217" lon="14.8630233"><ele>513.0</ele><time>2026-04-25T07:44:35.029Z</time></trkpt><trkpt lat="40.7511733" lon="14.8629667"><ele>513.0</ele><time>2026-04-25T07:44:37.028Z</time></trkpt><trkpt lat="40.75122" lon="14.8629033"><ele>513.0</ele><time>2026-04-25T07:44:38.057Z</time></trkpt><trkpt lat="40.7512617" lon="14.86284"><ele>513.0</ele><time>2026-04-25T07:44:39.031Z</time></trkpt><trkpt lat="40.7513217" lon="14.862755"><ele>513.0</ele><time>2026-04-25T07:44:40.025Z</time></trkpt><trkpt lat="40.751375" lon="14.862685"><ele>513.0</ele><time>2026-04-25T07:44:41.035Z</time></trkpt><trkpt lat="40.7514217" lon="14.86262"><ele>513.0</ele><time>2026-04-25T07:44:42.022Z</time></trkpt><trkpt lat="40.7514883" lon="14.8624833"><ele>513.8</ele><time>2026-04-25T07:44:44.066Z</time></trkpt><trkpt lat="40.75151" lon="14.8623333"><ele>514.5999999999999</ele><time>2026-04-25T07:44:46.027Z</time></trkpt><trkpt lat="40.751495" lon="14.8621883"><ele>515.4000000000001</ele><time>2026-04-25T07:44:48.02Z</time></trkpt><trkpt lat="40.7515033" lon="14.862075"><ele>516.2</ele><time>2026-04-25T07:44:50.066Z</time></trkpt><trkpt lat="40.7515583" lon="14.861995"><ele>517.0</ele><time>2026-04-25T07:44:52.019Z</time></trkpt><trkpt lat="40.7516133" lon="14.8619433"><ele>517.0</ele><time>2026-04-25T07:44:53.026Z</time></trkpt><trkpt lat="40.7516833" lon="14.8619117"><ele>517.0</ele><time>2026-04-25T07:44:54.023Z</time></trkpt><trkpt lat="40.7517467" lon="14.8618833"><ele>517.0</ele><time>2026-04-25T07:44:55.019Z</time></trkpt><trkpt lat="40.7518183" lon="14.8618617"><ele>517.0</ele><time>2026-04-25T07:44:56.078Z</time></trkpt><trkpt lat="40.7518783" lon="14.8618333"><ele>517.0</ele><time>2026-04-25T07:44:57.022Z</time></trkpt><trkpt lat="40.751935" lon="14.8617833"><ele>517.0</ele><time>2026-04-25T07:44:58.026Z</time></trkpt><trkpt lat="40.752005" lon="14.8617217"><ele>517.0</ele><time>2026-04-25T07:44:59.023Z</time></trkpt><trkpt lat="40.7520517" lon="14.86166"><ele>519.6</ele><time>2026-04-25T07:45:00.023Z</time></trkpt><trkpt lat="40.7521433" lon="14.8615733"><ele>522.2</ele><time>2026-04-25T07:45:02.067Z</time></trkpt><trkpt lat="40.7521867" lon="14.8614867"><ele>524.8</ele><time>2026-04-25T07:45:04.026Z</time></trkpt><trkpt lat="40.7521133" lon="14.8615017"><ele>527.4</ele><time>2026-04-25T07:45:10.02Z</time></trkpt><trkpt lat="40.7519833" lon="14.861545"><ele>530.0</ele><time>2026-04-25T07:45:12.023Z</time></trkpt><trkpt lat="40.7519133" lon="14.8615517"><ele>525.1666666666666</ele><time>2026-04-25T07:45:13.029Z</time></trkpt><trkpt lat="40.7518433" lon="14.8615533"><ele>520.3333333333333</ele><time>2026-04-25T07:45:14.059Z</time></trkpt><trkpt lat="40.7517817" lon="14.86153"><ele>515.5</ele><time>2026-04-25T07:45:15.026Z</time></trkpt><trkpt lat="40.7517" lon="14.8615183"><ele>510.66666666666663</ele><time>2026-04-25T07:45:17.025Z</time></trkpt><trkpt lat="40.7516317" lon="14.8615517"><ele>505.8333333333333</ele><time>2026-04-25T07:45:20.062Z</time></trkpt><trkpt lat="40.7516917" lon="14.8615117"><ele>501.0</ele><time>2026-04-25T07:45:24.021Z</time></trkpt><trkpt lat="40.75179" lon="14.86151"><ele>501.0</ele><time>2026-04-25T07:45:26.082Z</time></trkpt><trkpt lat="40.7518633" lon="14.86145"><ele>501.0</ele><time>2026-04-25T07:45:28.022Z</time></trkpt><trkpt lat="40.751915" lon="14.861375"><ele>501.0</ele><time>2026-04-25T07:45:30.022Z</time></trkpt><trkpt lat="40.7518167" lon="14.8613267"><ele>501.0</ele><time>2026-04-25T07:45:38.063Z</time></trkpt><trkpt lat="40.7517067" lon="14.8613367"><ele>501.0</ele><time>2026-04-25T07:45:39.021Z</time></trkpt><trkpt lat="40.7515717" lon="14.86135"><ele>501.0</ele><time>2026-04-25T07:45:40.02Z</time></trkpt><trkpt lat="40.75148" lon="14.8613683"><ele>501.0</ele><time>2026-04-25T07:45:41.024Z</time></trkpt><trkpt lat="40.7514" lon="14.8613967"><ele>501.0</ele><time>2026-04-25T07:45:42.028Z</time></trkpt><trkpt lat="40.7513217" lon="14.8614583"><ele>501.0</ele><time>2026-04-25T07:45:43.026Z</time></trkpt><trkpt lat="40.751245" lon="14.86153"><ele>501.0</ele><time>2026-04-25T07:45:44.055Z</time></trkpt><trkpt lat="40.7511683" lon="14.861595"><ele>501.0</ele><time>2026-04-25T07:45:45.024Z</time></trkpt><trkpt lat="40.751095" lon="14.86166"><ele>501.0</ele><time>2026-04-25T07:45:46.025Z</time></trkpt><trkpt lat="40.7510333" lon="14.8617233"><ele>501.0</ele><time>2026-04-25T07:45:47.026Z</time></trkpt><trkpt lat="40.7509833" lon="14.8618017"><ele>501.0</ele><time>2026-04-25T07:45:48.028Z</time></trkpt><trkpt lat="40.750955" lon="14.861905"><ele>501.0</ele><time>2026-04-25T07:45:49.019Z</time></trkpt><trkpt lat="40.7509217" lon="14.8619867"><ele>501.0</ele><time>2026-04-25T07:45:50.059Z</time></trkpt><trkpt lat="40.7508917" lon="14.8620817"><ele>499.1666666666667</ele><time>2026-04-25T07:45:51.026Z</time></trkpt><trkpt lat="40.75085" lon="14.8621583"><ele>497.33333333333337</ele><time>2026-04-25T07:45:52.023Z</time></trkpt><trkpt lat="40.7508" lon="14.862235"><ele>495.5</ele><time>2026-04-25T07:45:53.026Z</time></trkpt><trkpt lat="40.7507433" lon="14.8623083"><ele>493.6666666666667</ele><time>2026-04-25T07:45:54.024Z</time></trkpt><trkpt lat="40.7506833" lon="14.8623617"><ele>491.83333333333337</ele><time>2026-04-25T07:45:55.022Z</time></trkpt><trkpt lat="40.750605" lon="14.8624033"><ele>490.0</ele><time>2026-04-25T07:45:56.047Z</time></trkpt><trkpt lat="40.7505033" lon="14.862425"><ele>490.0</ele><time>2026-04-25T07:45:57.022Z</time></trkpt><trkpt lat="40.7504017" lon="14.862425"><ele>490.0</ele><time>2026-04-25T07:45:58.047Z</time></trkpt><trkpt lat="40.75033" lon="14.8624333"><ele>490.0</ele><time>2026-04-25T07:45:59.023Z</time></trkpt><trkpt lat="40.7502417" lon="14.8624617"><ele>490.0</ele><time>2026-04-25T07:46:01.018Z</time></trkpt><trkpt lat="40.7502" lon="14.8625917"><ele>490.0</ele><time>2026-04-25T07:46:03.016Z</time></trkpt><trkpt lat="40.7501817" lon="14.86274"><ele>489.2</ele><time>2026-04-25T07:46:05.026Z</time></trkpt><trkpt lat="40.7501483" lon="14.8628683"><ele>488.4</ele><time>2026-04-25T07:46:07.03Z</time></trkpt><trkpt lat="40.75007" lon="14.86302"><ele>487.6</ele><time>2026-04-25T07:46:09.028Z</time></trkpt><trkpt lat="40.750025" lon="14.8631233"><ele>486.8</ele><time>2026-04-25T07:46:10.02Z</time></trkpt><trkpt lat="40.74999" lon="14.863215"><ele>486.0</ele><time>2026-04-25T07:46:11.027Z</time></trkpt><trkpt lat="40.7499717" lon="14.8633"><ele>484.5</ele><time>2026-04-25T07:46:12.023Z</time></trkpt><trkpt lat="40.74997" lon="14.8634483"><ele>483.0</ele><time>2026-04-25T07:46:14.061Z</time></trkpt><trkpt lat="40.7499717" lon="14.8635333"><ele>481.5</ele><time>2026-04-25T07:46:15.025Z</time></trkpt><trkpt lat="40.7499533" lon="14.8636217"><ele>480.0</ele><time>2026-04-25T07:46:16.026Z</time></trkpt><trkpt lat="40.7499217" lon="14.8637117"><ele>478.5</ele><time>2026-04-25T07:46:17.035Z</time></trkpt><trkpt lat="40.7498917" lon="14.8638"><ele>477.0</ele><time>2026-04-25T07:46:18.028Z</time></trkpt><trkpt lat="40.7498433" lon="14.86388"><ele>477.0</ele><time>2026-04-25T07:46:19.019Z</time></trkpt><trkpt lat="40.74979" lon="14.8639367"><ele>477.00000000000006</ele><time>2026-04-25T07:46:20.059Z</time></trkpt><trkpt lat="40.74973" lon="14.8640533"><ele>477.00000000000006</ele><time>2026-04-25T07:46:22.021Z</time></trkpt><trkpt lat="40.7497267" lon="14.86423"><ele>477.0</ele><time>2026-04-25T07:46:24.033Z</time></trkpt><trkpt lat="40.74971" lon="14.864345"><ele>477.0</ele><time>2026-04-25T07:46:25.029Z</time></trkpt><trkpt lat="40.7496917" lon="14.8644517"><ele>474.8</ele><time>2026-04-25T07:46:26.078Z</time></trkpt><trkpt lat="40.7496683" lon="14.8645583"><ele>472.6</ele><time>2026-04-25T07:46:27.016Z</time></trkpt><trkpt lat="40.7496367" lon="14.8646767"><ele>470.40000000000003</ele><time>2026-04-25T07:46:28.014Z</time></trkpt><trkpt lat="40.7496017" lon="14.8648133"><ele>468.20000000000005</ele><time>2026-04-25T07:46:29.024Z</time></trkpt><trkpt lat="40.7495817" lon="14.864955"><ele>466.0</ele><time>2026-04-25T07:46:30.018Z</time></trkpt><trkpt lat="40.7495833" lon="14.86509"><ele>464.4</ele><time>2026-04-25T07:46:31.024Z</time></trkpt><trkpt lat="40.7495883" lon="14.8652167"><ele>462.8</ele><time>2026-04-25T07:46:32.075Z</time></trkpt><trkpt lat="40.7495967" lon="14.8653317"><ele>461.19999999999993</ele><time>2026-04-25T07:46:33.022Z</time></trkpt><trkpt lat="40.74959" lon="14.8654483"><ele>459.59999999999997</ele><time>2026-04-25T07:46:34.018Z</time></trkpt><trkpt lat="40.749575" lon="14.8655783"><ele>458.0</ele><time>2026-04-25T07:46:35.029Z</time></trkpt><trkpt lat="40.7495433" lon="14.86573"><ele>458.0</ele><time>2026-04-25T07:46:36.021Z</time></trkpt><trkpt lat="40.749495" lon="14.8658817"><ele>458.0</ele><time>2026-04-25T07:46:37.019Z</time></trkpt><trkpt lat="40.7494567" lon="14.8660167"><ele>458.0</ele><time>2026-04-25T07:46:38.055Z</time></trkpt><trkpt lat="40.7494183" lon="14.866155"><ele>458.0</ele><time>2026-04-25T07:46:39.018Z</time></trkpt><trkpt lat="40.7493833" lon="14.866285"><ele>461.75</ele><time>2026-04-25T07:46:40.022Z</time></trkpt><trkpt lat="40.7493533" lon="14.866405"><ele>465.5</ele><time>2026-04-25T07:46:41.021Z</time></trkpt><trkpt lat="40.7493283" lon="14.86653"><ele>469.25</ele><time>2026-04-25T07:46:42.027Z</time></trkpt><trkpt lat="40.7493117" lon="14.866675"><ele>473.0</ele><time>2026-04-25T07:46:43.021Z</time></trkpt><trkpt lat="40.7492917" lon="14.8668667"><ele>473.0</ele><time>2026-04-25T07:46:44.055Z</time></trkpt><trkpt lat="40.7492683" lon="14.8670617"><ele>473.0</ele><time>2026-04-25T07:46:45.019Z</time></trkpt><trkpt lat="40.7492583" lon="14.86724"><ele>473.0</ele><time>2026-04-25T07:46:46.02Z</time></trkpt><trkpt lat="40.7492583" lon="14.867405"><ele>473.0</ele><time>2026-04-25T07:46:47.033Z</time></trkpt><trkpt lat="40.7492617" lon="14.8675467"><ele>471.25</ele><time>2026-04-25T07:46:48.02Z</time></trkpt><trkpt lat="40.7492583" lon="14.8676683"><ele>469.5</ele><time>2026-04-25T07:46:49.031Z</time></trkpt><trkpt lat="40.7492683" lon="14.8678083"><ele>467.75</ele><time>2026-04-25T07:46:50.057Z</time></trkpt><trkpt lat="40.74929" lon="14.8679767"><ele>466.0</ele><time>2026-04-25T07:46:51.022Z</time></trkpt><trkpt lat="40.749315" lon="14.86815"><ele>466.0</ele><time>2026-04-25T07:46:52.028Z</time></trkpt><trkpt lat="40.74934" lon="14.8683117"><ele>466.0</ele><time>2026-04-25T07:46:53.029Z</time></trkpt><trkpt lat="40.7493567" lon="14.8684617"><ele>466.0</ele><time>2026-04-25T07:46:54.026Z</time></trkpt><trkpt lat="40.749365" lon="14.8686167"><ele>466.0</ele><time>2026-04-25T07:46:55.032Z</time></trkpt><trkpt lat="40.7493633" lon="14.86877"><ele>464.0</ele><time>2026-04-25T07:46:56.085Z</time></trkpt><trkpt lat="40.749355" lon="14.86892"><ele>462.0</ele><time>2026-04-25T07:46:57.022Z</time></trkpt><trkpt lat="40.74935" lon="14.86907"><ele>460.0</ele><time>2026-04-25T07:46:58.024Z</time></trkpt><trkpt lat="40.7493483" lon="14.8692183"><ele>458.0</ele><time>2026-04-25T07:46:59.022Z</time></trkpt><trkpt lat="40.749345" lon="14.8693517"><ele>456.0</ele><time>2026-04-25T07:47:00.023Z</time></trkpt><trkpt lat="40.7493467" lon="14.8694633"><ele>455.0</ele><time>2026-04-25T07:47:01.023Z</time></trkpt><trkpt lat="40.7493617" lon="14.8695717"><ele>453.99999999999994</ele><time>2026-04-25T07:47:02.07Z</time></trkpt><trkpt lat="40.749385" lon="14.8696583"><ele>453.0</ele><time>2026-04-25T07:47:03.021Z</time></trkpt><trkpt lat="40.7493933" lon="14.869745"><ele>452.0</ele><time>2026-04-25T07:47:04.028Z</time></trkpt><trkpt lat="40.7493883" lon="14.86984"><ele>450.99999999999994</ele><time>2026-04-25T07:47:05.026Z</time></trkpt><trkpt lat="40.74937" lon="14.8699317"><ele>450.0</ele><time>2026-04-25T07:47:06.02Z</time></trkpt><trkpt lat="40.7493283" lon="14.8700033"><ele>449.0</ele><time>2026-04-25T07:47:07.019Z</time></trkpt><trkpt lat="40.7492317" lon="14.870055"><ele>449.0</ele><time>2026-04-25T07:47:09.022Z</time></trkpt><trkpt lat="40.7493267" lon="14.8700717"><ele>449.0</ele><time>2026-04-25T07:47:13.035Z</time></trkpt><trkpt lat="40.74939" lon="14.87002"><ele>449.0</ele><time>2026-04-25T07:47:14.059Z</time></trkpt><trkpt lat="40.7494783" lon="14.86986"><ele>449.0</ele><time>2026-04-25T07:47:15.027Z</time></trkpt><trkpt lat="40.74955" lon="14.8697117"><ele>446.4</ele><time>2026-04-25T07:47:16.023Z</time></trkpt><trkpt lat="40.7496167" lon="14.8695583"><ele>443.79999999999995</ele><time>2026-04-25T07:47:17.027Z</time></trkpt><trkpt lat="40.7496767" lon="14.8694267"><ele>441.20000000000005</ele><time>2026-04-25T07:47:18.025Z</time></trkpt><trkpt lat="40.74973" lon="14.8693117"><ele>438.6</ele><time>2026-04-25T07:47:19.022Z</time></trkpt><trkpt lat="40.74977" lon="14.86921"><ele>436.0</ele><time>2026-04-25T07:47:20.054Z</time></trkpt><trkpt lat="40.7498033" lon="14.86912"><ele>436.00000000000006</ele><time>2026-04-25T07:47:21.026Z</time></trkpt><trkpt lat="40.7498233" lon="14.869035"><ele>436.0</ele><time>2026-04-25T07:47:22.023Z</time></trkpt><trkpt lat="40.7498333" lon="14.8689433"><ele>436.0</ele><time>2026-04-25T07:47:23.036Z</time></trkpt><trkpt lat="40.7498333" lon="14.8688417"><ele>436.0</ele><time>2026-04-25T07:47:24.021Z</time></trkpt><trkpt lat="40.749845" lon="14.86873"><ele>436.00000000000006</ele><time>2026-04-25T07:47:25.017Z</time></trkpt><trkpt lat="40.7498617" lon="14.8686183"><ele>436.0</ele><time>2026-04-25T07:47:26.076Z</time></trkpt><trkpt lat="40.749875" lon="14.8685133"><ele>436.6666666666667</ele><time>2026-04-25T07:47:27.017Z</time></trkpt><trkpt lat="40.7498767" lon="14.8684117"><ele>437.33333333333337</ele><time>2026-04-25T07:47:28.022Z</time></trkpt><trkpt lat="40.7498717" lon="14.8682983"><ele>438.0</ele><time>2026-04-25T07:47:29.025Z</time></trkpt><trkpt lat="40.74986" lon="14.8681767"><ele>438.66666666666663</ele><time>2026-04-25T07:47:30.017Z</time></trkpt><trkpt lat="40.7498533" lon="14.8680517"><ele>439.3333333333333</ele><time>2026-04-25T07:47:31.022Z</time></trkpt><trkpt lat="40.7498533" lon="14.867935"><ele>440.0</ele><time>2026-04-25T07:47:32.046Z</time></trkpt><trkpt lat="40.7498633" lon="14.86783"><ele>439.99999999999994</ele><time>2026-04-25T07:47:33.026Z</time></trkpt><trkpt lat="40.749935" lon="14.8677733"><ele>440.0</ele><time>2026-04-25T07:47:34.023Z</time></trkpt><trkpt lat="40.7500033" lon="14.867715"><ele>440.0</ele><time>2026-04-25T07:47:35.027Z</time></trkpt><trkpt lat="40.7500717" lon="14.867655"><ele>440.0</ele><time>2026-04-25T07:47:36.028Z</time></trkpt><trkpt lat="40.750125" lon="14.8675883"><ele>439.99999999999994</ele><time>2026-04-25T07:47:37.033Z</time></trkpt><trkpt lat="40.7501617" lon="14.86752"><ele>440.0</ele><time>2026-04-25T07:47:38.062Z</time></trkpt><trkpt lat="40.7501967" lon="14.8674283"><ele>440.3333333333333</ele><time>2026-04-25T07:47:40.016Z</time></trkpt><trkpt lat="40.7501933" lon="14.8673167"><ele>440.66666666666663</ele><time>2026-04-25T07:47:43.028Z</time></trkpt><trkpt lat="40.7502083" lon="14.8672"><ele>441.0</ele><time>2026-04-25T07:47:45.031Z</time></trkpt><trkpt lat="40.7502017" lon="14.86705"><ele>441.33333333333337</ele><time>2026-04-25T07:47:47.025Z</time></trkpt><trkpt lat="40.7501783" lon="14.8669633"><ele>441.6666666666667</ele><time>2026-04-25T07:47:48.022Z</time></trkpt><trkpt lat="40.7501567" lon="14.8668717"><ele>442.0</ele><time>2026-04-25T07:47:49.025Z</time></trkpt><trkpt lat="40.7501433" lon="14.86677"><ele>441.50000000000006</ele><time>2026-04-25T07:47:50.059Z</time></trkpt><trkpt lat="40.7501433" lon="14.8666667"><ele>441.0</ele><time>2026-04-25T07:47:51.028Z</time></trkpt><trkpt lat="40.7501667" lon="14.866575"><ele>440.5</ele><time>2026-04-25T07:47:52.022Z</time></trkpt><trkpt lat="40.75022" lon="14.8664967"><ele>440.0</ele><time>2026-04-25T07:47:53.028Z</time></trkpt><trkpt lat="40.7502867" lon="14.866445"><ele>439.50000000000006</ele><time>2026-04-25T07:47:54.026Z</time></trkpt><trkpt lat="40.7503733" lon="14.8664033"><ele>439.0</ele><time>2026-04-25T07:47:55.016Z</time></trkpt><trkpt lat="40.75047" lon="14.86637"><ele>439.0</ele><time>2026-04-25T07:47:56.085Z</time></trkpt><trkpt lat="40.7506033" lon="14.8663517"><ele>439.0</ele><time>2026-04-25T07:47:57.025Z</time></trkpt><trkpt lat="40.7507033" lon="14.8663217"><ele>439.0</ele><time>2026-04-25T07:47:59.031Z</time></trkpt><trkpt lat="40.7507683" lon="14.86632"><ele>439.0</ele><time>2026-04-25T07:48:01.026Z</time></trkpt><trkpt lat="40.750635" lon="14.8665333"><ele>439.0</ele><time>2026-04-25T07:48:05.025Z</time></trkpt><trkpt lat="40.7506017" lon="14.866605"><ele>439.0</ele><time>2026-04-25T07:48:06.025Z</time></trkpt><trkpt lat="40.7505767" lon="14.8666933"><ele>439.0</ele><time>2026-04-25T07:48:07.033Z</time></trkpt><trkpt lat="40.7505733" lon="14.8667767"><ele>439.0</ele><time>2026-04-25T07:48:08.066Z</time></trkpt><trkpt lat="40.7505817" lon="14.8668717"><ele>439.0</ele><time>2026-04-25T07:48:09.026Z</time></trkpt><trkpt lat="40.7505983" lon="14.8669617"><ele>439.0</ele><time>2026-04-25T07:48:10.023Z</time></trkpt><trkpt lat="40.750615" lon="14.8670567"><ele>439.0</ele><time>2026-04-25T07:48:11.031Z</time></trkpt><trkpt lat="40.7506367" lon="14.8671683"><ele>436.4</ele><time>2026-04-25T07:48:12.023Z</time></trkpt><trkpt lat="40.7506633" lon="14.867295"><ele>433.79999999999995</ele><time>2026-04-25T07:48:13.035Z</time></trkpt><trkpt lat="40.7506917" lon="14.86743"><ele>431.20000000000005</ele><time>2026-04-25T07:48:14.059Z</time></trkpt><trkpt lat="40.7507233" lon="14.8675567"><ele>428.6</ele><time>2026-04-25T07:48:15.022Z</time></trkpt><trkpt lat="40.7507417" lon="14.8676833"><ele>426.0</ele><time>2026-04-25T07:48:16.022Z</time></trkpt><trkpt lat="40.7507783" lon="14.8677833"><ele>423.1666666666667</ele><time>2026-04-25T07:48:17.029Z</time></trkpt><trkpt lat="40.7507367" lon="14.867875"><ele>420.33333333333337</ele><time>2026-04-25T07:48:18.023Z</time></trkpt><trkpt lat="40.75071" lon="14.8679883"><ele>417.5</ele><time>2026-04-25T07:48:19.029Z</time></trkpt><trkpt lat="40.7506933" lon="14.868105"><ele>414.6666666666667</ele><time>2026-04-25T07:48:20.056Z</time></trkpt><trkpt lat="40.75069" lon="14.8682217"><ele>411.83333333333337</ele><time>2026-04-25T07:48:21.023Z</time></trkpt><trkpt lat="40.7507" lon="14.8683383"><ele>409.0</ele><time>2026-04-25T07:48:22.02Z</time></trkpt><trkpt lat="40.75073" lon="14.868445"><ele>406.1666666666667</ele><time>2026-04-25T07:48:23.032Z</time></trkpt><trkpt lat="40.7507683" lon="14.8685517"><ele>403.33333333333337</ele><time>2026-04-25T07:48:24.023Z</time></trkpt><trkpt lat="40.75082" lon="14.8686567"><ele>400.5</ele><time>2026-04-25T07:48:25.023Z</time></trkpt><trkpt lat="40.7508667" lon="14.8687533"><ele>397.66666666666663</ele><time>2026-04-25T07:48:26.029Z</time></trkpt><trkpt lat="40.7509083" lon="14.868855"><ele>394.8333333333333</ele><time>2026-04-25T07:48:27.028Z</time></trkpt><trkpt lat="40.7509367" lon="14.8689483"><ele>392.0</ele><time>2026-04-25T07:48:28.022Z</time></trkpt><trkpt lat="40.7509633" lon="14.8690633"><ele>392.0</ele><time>2026-04-25T07:48:29.025Z</time></trkpt><trkpt lat="40.750985" lon="14.8692"><ele>392.0</ele><time>2026-04-25T07:48:30.021Z</time></trkpt><trkpt lat="40.7510233" lon="14.86933"><ele>392.0</ele><time>2026-04-25T07:48:31.026Z</time></trkpt><trkpt lat="40.751075" lon="14.8694433"><ele>392.0</ele><time>2026-04-25T07:48:32.02Z</time></trkpt><trkpt lat="40.7511083" lon="14.869565"><ele>392.0</ele><time>2026-04-25T07:48:33.022Z</time></trkpt><trkpt lat="40.751135" lon="14.8696683"><ele>392.99999999999994</ele><time>2026-04-25T07:48:34.026Z</time></trkpt><trkpt lat="40.751155" lon="14.8697717"><ele>394.0</ele><time>2026-04-25T07:48:35.028Z</time></trkpt><trkpt lat="40.7511367" lon="14.869885"><ele>395.0</ele><time>2026-04-25T07:48:36.015Z</time></trkpt><trkpt lat="40.7510767" lon="14.8700033"><ele>396.0</ele><time>2026-04-25T07:48:37.023Z</time></trkpt><trkpt lat="40.75101" lon="14.87008"><ele>396.99999999999994</ele><time>2026-04-25T07:48:38.053Z</time></trkpt><trkpt lat="40.7509683" lon="14.87017"><ele>398.0</ele><time>2026-04-25T07:48:39.019Z</time></trkpt><trkpt lat="40.75093" lon="14.8702617"><ele>395.16666666666663</ele><time>2026-04-25T07:48:40.026Z</time></trkpt><trkpt lat="40.7508933" lon="14.8703533"><ele>392.3333333333333</ele><time>2026-04-25T07:48:41.029Z</time></trkpt><trkpt lat="40.7508533" lon="14.8704317"><ele>389.5</ele><time>2026-04-25T07:48:42.033Z</time></trkpt><trkpt lat="40.7507933" lon="14.870515"><ele>386.66666666666663</ele><time>2026-04-25T07:48:43.024Z</time></trkpt><trkpt lat="40.7507383" lon="14.8706083"><ele>383.8333333333333</ele><time>2026-04-25T07:48:44.06Z</time></trkpt><trkpt lat="40.7506683" lon="14.8707083"><ele>381.0</ele><time>2026-04-25T07:48:45.019Z</time></trkpt><trkpt lat="40.7506233" lon="14.8708167"><ele>382.4</ele><time>2026-04-25T07:48:46.025Z</time></trkpt><trkpt lat="40.750595" lon="14.8709417"><ele>383.8</ele><time>2026-04-25T07:48:47.026Z</time></trkpt><trkpt lat="40.7505717" lon="14.87107"><ele>385.2</ele><time>2026-04-25T07:48:48.021Z</time></trkpt><trkpt lat="40.750565" lon="14.871195"><ele>386.59999999999997</ele><time>2026-04-25T07:48:49.028Z</time></trkpt><trkpt lat="40.75054" lon="14.8713217"><ele>388.0</ele><time>2026-04-25T07:48:50.055Z</time></trkpt><trkpt lat="40.7505433" lon="14.8714367"><ele>388.0</ele><time>2026-04-25T07:48:51.023Z</time></trkpt><trkpt lat="40.7505333" lon="14.871555"><ele>388.0</ele><time>2026-04-25T07:48:52.029Z</time></trkpt><trkpt lat="40.7505383" lon="14.8716767"><ele>388.0</ele><time>2026-04-25T07:48:53.023Z</time></trkpt><trkpt lat="40.75053" lon="14.8718017"><ele>388.0</ele><time>2026-04-25T07:48:54.023Z</time></trkpt><trkpt lat="40.7505083" lon="14.87194"><ele>388.0</ele><time>2026-04-25T07:48:55.026Z</time></trkpt><trkpt lat="40.7505017" lon="14.87206"><ele>384.00000000000006</ele><time>2026-04-25T07:48:56.026Z</time></trkpt><trkpt lat="40.7505017" lon="14.8721833"><ele>380.0</ele><time>2026-04-25T07:48:57.03Z</time></trkpt><trkpt lat="40.7505133" lon="14.87231"><ele>376.0</ele><time>2026-04-25T07:48:58.022Z</time></trkpt><trkpt lat="40.7505333" lon="14.872425"><ele>372.0</ele><time>2026-04-25T07:48:59.027Z</time></trkpt><trkpt lat="40.75056" lon="14.8725383"><ele>368.0</ele><time>2026-04-25T07:49:00.022Z</time></trkpt><trkpt lat="40.75058" lon="14.87264"><ele>364.0</ele><time>2026-04-25T07:49:01.031Z</time></trkpt><trkpt lat="40.750595" lon="14.8727433"><ele>358.4</ele><time>2026-04-25T07:49:02.017Z</time></trkpt><trkpt lat="40.7505833" lon="14.8728533"><ele>352.79999999999995</ele><time>2026-04-25T07:49:03.021Z</time></trkpt><trkpt lat="40.7505617" lon="14.8729783"><ele>347.20000000000005</ele><time>2026-04-25T07:49:04.023Z</time></trkpt><trkpt lat="40.7505517" lon="14.87311"><ele>341.6</ele><time>2026-04-25T07:49:05.027Z</time></trkpt><trkpt lat="40.75054" lon="14.8732283"><ele>336.0</ele><time>2026-04-25T07:49:06.031Z</time></trkpt><trkpt lat="40.7505267" lon="14.8733417"><ele>336.0</ele><time>2026-04-25T07:49:07.028Z</time></trkpt><trkpt lat="40.75055" lon="14.8734267"><ele>336.0</ele><time>2026-04-25T07:49:08.057Z</time></trkpt><trkpt lat="40.750665" lon="14.8733967"><ele>336.0</ele><time>2026-04-25T07:49:10.024Z</time></trkpt><trkpt lat="40.750745" lon="14.8733083"><ele>336.0</ele><time>2026-04-25T07:49:12.022Z</time></trkpt><trkpt lat="40.7508083" lon="14.8732583"><ele>336.0</ele><time>2026-04-25T07:49:14.057Z</time></trkpt><trkpt lat="40.7507383" lon="14.8733817"><ele>330.8333333333333</ele><time>2026-04-25T07:49:18.02Z</time></trkpt><trkpt lat="40.7506833" lon="14.87346"><ele>325.6666666666667</ele><time>2026-04-25T07:49:19.018Z</time></trkpt><trkpt lat="40.7506333" lon="14.8735567"><ele>320.5</ele><time>2026-04-25T07:49:20.055Z</time></trkpt><trkpt lat="40.7505833" lon="14.873645"><ele>315.33333333333337</ele><time>2026-04-25T07:49:21.022Z</time></trkpt><trkpt lat="40.750535" lon="14.87373"><ele>310.1666666666667</ele><time>2026-04-25T07:49:22.027Z</time></trkpt><trkpt lat="40.7504867" lon="14.8737933"><ele>305.0</ele><time>2026-04-25T07:49:23.028Z</time></trkpt><trkpt lat="40.7504067" lon="14.87383"><ele>305.0</ele><time>2026-04-25T07:49:25.031Z</time></trkpt><trkpt lat="40.7503467" lon="14.8737633"><ele>305.0</ele><time>2026-04-25T07:49:27.037Z</time></trkpt><trkpt lat="40.7503283" lon="14.8736817"><ele>305.0</ele><time>2026-04-25T07:49:28.019Z</time></trkpt><trkpt lat="40.7503067" lon="14.8735767"><ele>305.0</ele><time>2026-04-25T07:49:29.027Z</time></trkpt><trkpt lat="40.7503033" lon="14.873435"><ele>305.0</ele><time>2026-04-25T07:49:30.03Z</time></trkpt><trkpt lat="40.75029" lon="14.87332"><ele>305.0</ele><time>2026-04-25T07:49:31.022Z</time></trkpt><trkpt lat="40.750295" lon="14.8731967"><ele>311.2</ele><time>2026-04-25T07:49:32.023Z</time></trkpt><trkpt lat="40.7503" lon="14.8730533"><ele>317.4</ele><time>2026-04-25T07:49:33.028Z</time></trkpt><trkpt lat="40.7503" lon="14.8729317"><ele>323.6</ele><time>2026-04-25T07:49:34.015Z</time></trkpt><trkpt lat="40.7502933" lon="14.8728133"><ele>329.8</ele><time>2026-04-25T07:49:35.024Z</time></trkpt><trkpt lat="40.750285" lon="14.8727167"><ele>336.0</ele><time>2026-04-25T07:49:36.022Z</time></trkpt><trkpt lat="40.7502383" lon="14.8729817"><ele>336.0</ele><time>2026-04-25T07:49:41.04Z</time></trkpt><trkpt lat="40.750245" lon="14.87314"><ele>336.0</ele><time>2026-04-25T07:49:42.028Z</time></trkpt><trkpt lat="40.7502367" lon="14.8733167"><ele>336.0</ele><time>2026-04-25T07:49:43.027Z</time></trkpt><trkpt lat="40.750225" lon="14.8734967"><ele>336.0</ele><time>2026-04-25T07:49:44.057Z</time></trkpt><trkpt lat="40.7502117" lon="14.8736767"><ele>329.0</ele><time>2026-04-25T07:49:45.021Z</time></trkpt><trkpt lat="40.7501983" lon="14.8738583"><ele>322.0</ele><time>2026-04-25T07:49:46.028Z</time></trkpt><trkpt lat="40.7501783" lon="14.8740383"><ele>315.0</ele><time>2026-04-25T07:49:47.024Z</time></trkpt><trkpt lat="40.7501667" lon="14.8742133"><ele>308.0</ele><time>2026-04-25T07:49:48.021Z</time></trkpt><trkpt lat="40.7501433" lon="14.87437"><ele>307.6</ele><time>2026-04-25T07:49:49.021Z</time></trkpt><trkpt lat="40.750135" lon="14.8745033"><ele>307.20000000000005</ele><time>2026-04-25T07:49:50.056Z</time></trkpt><trkpt lat="40.7501817" lon="14.8745967"><ele>306.8</ele><time>2026-04-25T07:49:51.023Z</time></trkpt><trkpt lat="40.7502333" lon="14.8746567"><ele>306.40000000000003</ele><time>2026-04-25T07:49:52.015Z</time></trkpt><trkpt lat="40.7502567" lon="14.87477"><ele>306.0</ele><time>2026-04-25T07:49:54.021Z</time></trkpt><trkpt lat="40.7501417" lon="14.87487"><ele>303.75</ele><time>2026-04-25T07:49:56.08Z</time></trkpt><trkpt lat="40.7500683" lon="14.8749667"><ele>301.5</ele><time>2026-04-25T07:49:57.024Z</time></trkpt><trkpt lat="40.7499883" lon="14.8750833"><ele>299.25</ele><time>2026-04-25T07:49:58.024Z</time></trkpt><trkpt lat="40.74991" lon="14.87522"><ele>297.0</ele><time>2026-04-25T07:49:59.03Z</time></trkpt><trkpt lat="40.7498317" lon="14.8753683"><ele>297.0</ele><time>2026-04-25T07:50:00.022Z</time></trkpt><trkpt lat="40.749755" lon="14.87554"><ele>297.0</ele><time>2026-04-25T07:50:01.031Z</time></trkpt><trkpt lat="40.7496867" lon="14.8757"><ele>297.0</ele><time>2026-04-25T07:50:02.015Z</time></trkpt><trkpt lat="40.7496133" lon="14.8758433"><ele>297.0</ele><time>2026-04-25T07:50:03.029Z</time></trkpt><trkpt lat="40.74953" lon="14.8759767"><ele>293.5</ele><time>2026-04-25T07:50:04.019Z</time></trkpt><trkpt lat="40.7494267" lon="14.8760817"><ele>290.0</ele><time>2026-04-25T07:50:05.025Z</time></trkpt><trkpt lat="40.74931" lon="14.87617"><ele>286.5</ele><time>2026-04-25T07:50:06.025Z</time></trkpt><trkpt lat="40.7492" lon="14.8762667"><ele>283.0</ele><time>2026-04-25T07:50:07.024Z</time></trkpt><trkpt lat="40.7490917" lon="14.8763633"><ele>283.0</ele><time>2026-04-25T07:50:08.061Z</time></trkpt><trkpt lat="40.7489933" lon="14.8764667"><ele>283.0</ele><time>2026-04-25T07:50:09.021Z</time></trkpt><trkpt lat="40.748905" lon="14.8765533"><ele>283.0</ele><time>2026-04-25T07:50:10.024Z</time></trkpt><trkpt lat="40.748845" lon="14.87665"><ele>283.0</ele><time>2026-04-25T07:50:11.034Z</time></trkpt><trkpt lat="40.7488483" lon="14.8768033"><ele>283.0</ele><time>2026-04-25T07:50:12.023Z</time></trkpt><trkpt lat="40.74884" lon="14.8769583"><ele>282.25</ele><time>2026-04-25T07:50:13.023Z</time></trkpt><trkpt lat="40.74884" lon="14.87711"><ele>281.5</ele><time>2026-04-25T07:50:14.057Z</time></trkpt><trkpt lat="40.7488367" lon="14.8772633"><ele>280.75</ele><time>2026-04-25T07:50:15.025Z</time></trkpt><trkpt lat="40.7488283" lon="14.8774217"><ele>280.0</ele><time>2026-04-25T07:50:16.019Z</time></trkpt><trkpt lat="40.7488033" lon="14.8775567"><ele>278.8</ele><time>2026-04-25T07:50:17.013Z</time></trkpt><trkpt lat="40.7487717" lon="14.8777033"><ele>277.6</ele><time>2026-04-25T07:50:18.017Z</time></trkpt><trkpt lat="40.74872" lon="14.87783"><ele>276.4</ele><time>2026-04-25T07:50:19.028Z</time></trkpt><trkpt lat="40.74864" lon="14.8779017"><ele>275.2</ele><time>2026-04-25T07:50:20.06Z</time></trkpt><trkpt lat="40.74854" lon="14.8779433"><ele>274.0</ele><time>2026-04-25T07:50:21.027Z</time></trkpt><trkpt lat="40.748455" lon="14.8780033"><ele>274.0</ele><time>2026-04-25T07:50:22.024Z</time></trkpt><trkpt lat="40.7483883" lon="14.8780833"><ele>274.0</ele><time>2026-04-25T07:50:23.027Z</time></trkpt><trkpt lat="40.7483333" lon="14.8781733"><ele>274.0</ele><time>2026-04-25T07:50:24.02Z</time></trkpt><trkpt lat="40.748285" lon="14.87828"><ele>274.0</ele><time>2026-04-25T07:50:25.028Z</time></trkpt><trkpt lat="40.748245" lon="14.8783983"><ele>274.0</ele><time>2026-04-25T07:50:26.083Z</time></trkpt><trkpt lat="40.7482" lon="14.8785167"><ele>276.8</ele><time>2026-04-25T07:50:27.017Z</time></trkpt><trkpt lat="40.7481517" lon="14.8786383"><ele>279.59999999999997</ele><time>2026-04-25T07:50:28.024Z</time></trkpt><trkpt lat="40.7480933" lon="14.8787433"><ele>282.4</ele><time>2026-04-25T07:50:29.026Z</time></trkpt><trkpt lat="40.7480283" lon="14.8788417"><ele>285.2</ele><time>2026-04-25T07:50:30.025Z</time></trkpt><trkpt lat="40.7479433" lon="14.8789283"><ele>288.0</ele><time>2026-04-25T07:50:31.026Z</time></trkpt><trkpt lat="40.7478467" lon="14.878995"><ele>288.0</ele><time>2026-04-25T07:50:32.017Z</time></trkpt><trkpt lat="40.7477383" lon="14.87905"><ele>288.0</ele><time>2026-04-25T07:50:33.028Z</time></trkpt><trkpt lat="40.747635" lon="14.879115"><ele>288.0</ele><time>2026-04-25T07:50:34.022Z</time></trkpt><trkpt lat="40.7475317" lon="14.87919"><ele>288.0</ele><time>2026-04-25T07:50:35.03Z</time></trkpt><trkpt lat="40.74744" lon="14.8792817"><ele>282.75</ele><time>2026-04-25T07:50:36.019Z</time></trkpt><trkpt lat="40.7473633" lon="14.879385"><ele>277.5</ele><time>2026-04-25T07:50:37.014Z</time></trkpt><trkpt lat="40.74731" lon="14.8795533"><ele>272.25</ele><time>2026-04-25T07:50:38.063Z</time></trkpt><trkpt lat="40.7472533" lon="14.8797383"><ele>267.0</ele><time>2026-04-25T07:50:39.026Z</time></trkpt><trkpt lat="40.7471917" lon="14.8799433"><ele>267.6666666666667</ele><time>2026-04-25T07:50:40.022Z</time></trkpt><trkpt lat="40.7471333" lon="14.880145"><ele>268.33333333333337</ele><time>2026-04-25T07:50:41.011Z</time></trkpt><trkpt lat="40.7470783" lon="14.8803367"><ele>269.0</ele><time>2026-04-25T07:50:42.023Z</time></trkpt><trkpt lat="40.7470317" lon="14.8805117"><ele>269.0</ele><time>2026-04-25T07:50:43.027Z</time></trkpt><trkpt lat="40.7470133" lon="14.880675"><ele>269.0</ele><time>2026-04-25T07:50:44.063Z</time></trkpt><trkpt lat="40.74698" lon="14.8808367"><ele>269.0</ele><time>2026-04-25T07:50:45.018Z</time></trkpt><trkpt lat="40.7469467" lon="14.8809983"><ele>269.0</ele><time>2026-04-25T07:50:46.02Z</time></trkpt><trkpt lat="40.7469367" lon="14.8811683"><ele>270.0</ele><time>2026-04-25T07:50:47.033Z</time></trkpt><trkpt lat="40.7469083" lon="14.88135"><ele>271.0</ele><time>2026-04-25T07:50:48.023Z</time></trkpt><trkpt lat="40.746875" lon="14.8815217"><ele>272.0</ele><time>2026-04-25T07:50:49.026Z</time></trkpt><trkpt lat="40.746845" lon="14.8816867"><ele>273.0</ele><time>2026-04-25T07:50:50.056Z</time></trkpt><trkpt lat="40.7468017" lon="14.881845"><ele>269.4</ele><time>2026-04-25T07:50:51.018Z</time></trkpt><trkpt lat="40.746755" lon="14.88199"><ele>265.8</ele><time>2026-04-25T07:50:52.025Z</time></trkpt><trkpt lat="40.7467033" lon="14.8821083"><ele>262.2</ele><time>2026-04-25T07:50:53.027Z</time></trkpt><trkpt lat="40.7466467" lon="14.8822"><ele>258.6</ele><time>2026-04-25T07:50:54.019Z</time></trkpt><trkpt lat="40.7465967" lon="14.8822783"><ele>255.0</ele><time>2026-04-25T07:50:56.087Z</time></trkpt><trkpt lat="40.7466867" lon="14.8823083"><ele>255.0</ele><time>2026-04-25T07:53:48.025Z</time></trkpt><trkpt lat="40.7467783" lon="14.8824017"><ele>255.0</ele><time>2026-04-25T07:53:50.057Z</time></trkpt><trkpt lat="40.746845" lon="14.8825367"><ele>255.0</ele><time>2026-04-25T07:53:52.028Z</time></trkpt><trkpt lat="40.7468833" lon="14.8826133"><ele>255.0</ele><time>2026-04-25T07:53:53.027Z</time></trkpt><trkpt lat="40.7469317" lon="14.882685"><ele>255.0</ele><time>2026-04-25T07:53:54.021Z</time></trkpt><trkpt lat="40.7469867" lon="14.8827433"><ele>256.6666666666667</ele><time>2026-04-25T07:53:55.027Z</time></trkpt><trkpt lat="40.7470517" lon="14.8827983"><ele>258.3333333333333</ele><time>2026-04-25T07:53:56.045Z</time></trkpt><trkpt lat="40.7471283" lon="14.8828383"><ele>260.0</ele><time>2026-04-25T07:53:57.025Z</time></trkpt><trkpt lat="40.7472167" lon="14.882875"><ele>261.66666666666663</ele><time>2026-04-25T07:53:58.02Z</time></trkpt><trkpt lat="40.7472983" lon="14.8829183"><ele>263.3333333333333</ele><time>2026-04-25T07:53:59.024Z</time></trkpt><trkpt lat="40.747375" lon="14.8829733"><ele>265.0</ele><time>2026-04-25T07:54:00.017Z</time></trkpt><trkpt lat="40.7474467" lon="14.8830533"><ele>265.0</ele><time>2026-04-25T07:54:01.024Z</time></trkpt><trkpt lat="40.7475167" lon="14.8831433"><ele>265.0</ele><time>2026-04-25T07:54:02.042Z</time></trkpt><trkpt lat="40.747595" lon="14.8832367"><ele>265.0</ele><time>2026-04-25T07:54:03.026Z</time></trkpt><trkpt lat="40.7476883" lon="14.8833217"><ele>265.0</ele><time>2026-04-25T07:54:04.016Z</time></trkpt><trkpt lat="40.74779" lon="14.8833833"><ele>265.0</ele><time>2026-04-25T07:54:05.028Z</time></trkpt><trkpt lat="40.7478967" lon="14.883435"><ele>269.0</ele><time>2026-04-25T07:54:06.016Z</time></trkpt><trkpt lat="40.748" lon="14.8834833"><ele>273.0</ele><time>2026-04-25T07:54:07.034Z</time></trkpt><trkpt lat="40.7481033" lon="14.883535"><ele>277.0</ele><time>2026-04-25T07:54:08.052Z</time></trkpt><trkpt lat="40.7482067" lon="14.8835933"><ele>281.0</ele><time>2026-04-25T07:54:09.017Z</time></trkpt><trkpt lat="40.7483033" lon="14.88366"><ele>285.0</ele><time>2026-04-25T07:54:10.028Z</time></trkpt><trkpt lat="40.7483983" lon="14.8837333"><ele>285.0</ele><time>2026-04-25T07:54:11.017Z</time></trkpt><trkpt lat="40.74849" lon="14.8837967"><ele>285.0</ele><time>2026-04-25T07:54:12.028Z</time></trkpt><trkpt lat="40.748585" lon="14.8838517"><ele>285.0</ele><time>2026-04-25T07:54:13.027Z</time></trkpt><trkpt lat="40.748685" lon="14.883905"><ele>285.0</ele><time>2026-04-25T07:54:14.057Z</time></trkpt><trkpt lat="40.7487883" lon="14.88395"><ele>285.0</ele><time>2026-04-25T07:54:15.013Z</time></trkpt><trkpt lat="40.74889" lon="14.8839817"><ele>283.2</ele><time>2026-04-25T07:54:16.021Z</time></trkpt><trkpt lat="40.7489833" lon="14.8840133"><ele>281.4</ele><time>2026-04-25T07:54:17.026Z</time></trkpt><trkpt lat="40.7490717" lon="14.88405"><ele>279.6</ele><time>2026-04-25T07:54:18.023Z</time></trkpt><trkpt lat="40.74916" lon="14.8841017"><ele>277.8</ele><time>2026-04-25T07:54:19.028Z</time></trkpt><trkpt lat="40.7492417" lon="14.8841583"><ele>276.0</ele><time>2026-04-25T07:54:20.088Z</time></trkpt><trkpt lat="40.749315" lon="14.8842133"><ele>275.8</ele><time>2026-04-25T07:54:21.017Z</time></trkpt><trkpt lat="40.7493867" lon="14.8842467"><ele>275.6</ele><time>2026-04-25T07:54:22.023Z</time></trkpt><trkpt lat="40.7494567" lon="14.8842633"><ele>275.4</ele><time>2026-04-25T07:54:23.023Z</time></trkpt><trkpt lat="40.7495333" lon="14.8842667"><ele>275.2</ele><time>2026-04-25T07:54:24.019Z</time></trkpt><trkpt lat="40.7496367" lon="14.8842567"><ele>275.0</ele><time>2026-04-25T07:54:25.026Z</time></trkpt><trkpt lat="40.74976" lon="14.8842467"><ele>275.0</ele><time>2026-04-25T07:54:26.044Z</time></trkpt><trkpt lat="40.7498917" lon="14.8842517"><ele>275.0</ele><time>2026-04-25T07:54:27.019Z</time></trkpt><trkpt lat="40.7500117" lon="14.8842817"><ele>275.0</ele><time>2026-04-25T07:54:28.021Z</time></trkpt><trkpt lat="40.7501183" lon="14.8843367"><ele>275.0</ele><time>2026-04-25T07:54:29.027Z</time></trkpt><trkpt lat="40.750215" lon="14.8844067"><ele>279.0</ele><time>2026-04-25T07:54:30.021Z</time></trkpt><trkpt lat="40.7503167" lon="14.8844683"><ele>283.0</ele><time>2026-04-25T07:54:31.025Z</time></trkpt><trkpt lat="40.750435" lon="14.8845083"><ele>287.0</ele><time>2026-04-25T07:54:32.064Z</time></trkpt><trkpt lat="40.750575" lon="14.8845233"><ele>291.0</ele><time>2026-04-25T07:54:33.017Z</time></trkpt><trkpt lat="40.7507317" lon="14.8845233"><ele>291.0</ele><time>2026-04-25T07:54:34.017Z</time></trkpt><trkpt lat="40.750895" lon="14.88453"><ele>291.0</ele><time>2026-04-25T07:54:35.024Z</time></trkpt><trkpt lat="40.7510617" lon="14.8845417"><ele>291.0</ele><time>2026-04-25T07:54:36.02Z</time></trkpt><trkpt lat="40.7512183" lon="14.8845583"><ele>289.25</ele><time>2026-04-25T07:54:37.027Z</time></trkpt><trkpt lat="40.7513633" lon="14.884575"><ele>287.5</ele><time>2026-04-25T07:54:38.056Z</time></trkpt><trkpt lat="40.7514983" lon="14.8845717"><ele>285.75</ele><time>2026-04-25T07:54:39.018Z</time></trkpt><trkpt lat="40.7516133" lon="14.8845667"><ele>284.0</ele><time>2026-04-25T07:54:40.024Z</time></trkpt><trkpt lat="40.7517167" lon="14.884575"><ele>284.0</ele><time>2026-04-25T07:54:41.019Z</time></trkpt><trkpt lat="40.7518083" lon="14.8845783"><ele>284.0</ele><time>2026-04-25T07:54:42.022Z</time></trkpt><trkpt lat="40.751875" lon="14.8847483"><ele>284.0</ele><time>2026-04-25T07:54:44.059Z</time></trkpt><trkpt lat="40.7519417" lon="14.884795"><ele>284.0</ele><time>2026-04-25T07:54:45.026Z</time></trkpt><trkpt lat="40.7520133" lon="14.884815"><ele>284.0</ele><time>2026-04-25T07:54:46.023Z</time></trkpt><trkpt lat="40.7520967" lon="14.884815"><ele>285.2</ele><time>2026-04-25T07:54:47.024Z</time></trkpt><trkpt lat="40.75218" lon="14.884805"><ele>286.4</ele><time>2026-04-25T07:54:48.021Z</time></trkpt><trkpt lat="40.7522817" lon="14.884785"><ele>287.6</ele><time>2026-04-25T07:54:49.022Z</time></trkpt><trkpt lat="40.7523817" lon="14.8847733"><ele>288.8</ele><time>2026-04-25T07:54:50.055Z</time></trkpt><trkpt lat="40.752475" lon="14.8847767"><ele>290.0</ele><time>2026-04-25T07:54:51.017Z</time></trkpt><trkpt lat="40.7525583" lon="14.8847967"><ele>290.0</ele><time>2026-04-25T07:54:52.028Z</time></trkpt><trkpt lat="40.7526267" lon="14.88485"><ele>290.0</ele><time>2026-04-25T07:54:53.029Z</time></trkpt><trkpt lat="40.7527017" lon="14.8848833"><ele>290.0</ele><time>2026-04-25T07:54:54.016Z</time></trkpt><trkpt lat="40.7527867" lon="14.88491"><ele>290.0</ele><time>2026-04-25T07:54:55.025Z</time></trkpt><trkpt lat="40.7528917" lon="14.88486"><ele>290.0</ele><time>2026-04-25T07:54:56.086Z</time></trkpt><trkpt lat="40.752985" lon="14.8848117"><ele>295.25</ele><time>2026-04-25T07:54:57.021Z</time></trkpt><trkpt lat="40.7530933" lon="14.8847317"><ele>300.5</ele><time>2026-04-25T07:54:58.02Z</time></trkpt><trkpt lat="40.7532" lon="14.8846333"><ele>305.75</ele><time>2026-04-25T07:54:59.024Z</time></trkpt><trkpt lat="40.753305" lon="14.8845567"><ele>311.0</ele><time>2026-04-25T07:55:00.016Z</time></trkpt><trkpt lat="40.7534133" lon="14.8844917"><ele>311.0</ele><time>2026-04-25T07:55:01.019Z</time></trkpt><trkpt lat="40.7535267" lon="14.8844383"><ele>311.0</ele><time>2026-04-25T07:55:02.043Z</time></trkpt><trkpt lat="40.753645" lon="14.88438"><ele>311.0</ele><time>2026-04-25T07:55:03.016Z</time></trkpt><trkpt lat="40.7537567" lon="14.8843033"><ele>311.0</ele><time>2026-04-25T07:55:04.031Z</time></trkpt><trkpt lat="40.7538483" lon="14.8842067"><ele>310.75</ele><time>2026-04-25T07:55:05.016Z</time></trkpt><trkpt lat="40.7539417" lon="14.8841117"><ele>310.5</ele><time>2026-04-25T07:55:06.022Z</time></trkpt><trkpt lat="40.7540417" lon="14.884025"><ele>310.25</ele><time>2026-04-25T07:55:07.025Z</time></trkpt><trkpt lat="40.7541417" lon="14.8839367"><ele>310.0</ele><time>2026-04-25T07:55:08.049Z</time></trkpt><trkpt lat="40.754245" lon="14.8838583"><ele>310.0</ele><time>2026-04-25T07:55:09.013Z</time></trkpt><trkpt lat="40.7543483" lon="14.88378"><ele>310.0</ele><time>2026-04-25T07:55:10.015Z</time></trkpt><trkpt lat="40.754455" lon="14.883715"><ele>310.0</ele><time>2026-04-25T07:55:11.019Z</time></trkpt><trkpt lat="40.7545617" lon="14.883655"><ele>310.0</ele><time>2026-04-25T07:55:12.023Z</time></trkpt><trkpt lat="40.7546583" lon="14.8835833"><ele>310.0</ele><time>2026-04-25T07:55:13.027Z</time></trkpt><trkpt lat="40.7547367" lon="14.8835317"><ele>310.0</ele><time>2026-04-25T07:55:14.054Z</time></trkpt><trkpt lat="40.7548083" lon="14.8835017"><ele>310.0</ele><time>2026-04-25T07:55:15.023Z</time></trkpt><trkpt lat="40.754895" lon="14.883475"><ele>310.0</ele><time>2026-04-25T07:55:16.02Z</time></trkpt><trkpt lat="40.754985" lon="14.8834333"><ele>310.0</ele><time>2026-04-25T07:55:17.02Z</time></trkpt><trkpt lat="40.7550883" lon="14.8833967"><ele>310.0</ele><time>2026-04-25T07:55:18.015Z</time></trkpt><trkpt lat="40.7552033" lon="14.883345"><ele>310.0</ele><time>2026-04-25T07:55:19.016Z</time></trkpt><trkpt lat="40.7553217" lon="14.8833"><ele>310.0</ele><time>2026-04-25T07:55:20.056Z</time></trkpt><trkpt lat="40.7554333" lon="14.883255"><ele>310.0</ele><time>2026-04-25T07:55:21.028Z</time></trkpt><trkpt lat="40.7555367" lon="14.8831767"><ele>536.0</ele><time>2026-04-25T07:55:22.017Z</time></trkpt><trkpt lat="40.752405" lon="14.8621433"><ele>536.0</ele><time>2026-04-25T07:44:14.061Z</time></trkpt><trkpt lat="40.7523267" lon="14.8622233"><ele>536.0</ele><time>2026-04-25T07:44:15.024Z</time></trkpt><trkpt lat="40.7522583" lon="14.8622867"><ele>536.0</ele><time>2026-04-25T07:44:16.017Z</time></trkpt><trkpt lat="40.752185" lon="14.862355"><ele>536.0</ele><time>2026-04-25T07:44:17.029Z</time></trkpt><trkpt lat="40.75212" lon="14.8624017"><ele>536.0</ele><time>2026-04-25T07:44:18.024Z</time></trkpt><trkpt lat="40.7520567" lon="14.86245"><ele>536.0</ele><time>2026-04-25T07:44:19.033Z</time></trkpt><trkpt lat="40.7520067" lon="14.86251"><ele>536.0</ele><time>2026-04-25T07:44:20.058Z</time></trkpt><trkpt lat="40.751965" lon="14.8625867"><ele>536.0</ele><time>2026-04-25T07:44:21.023Z</time></trkpt><trkpt lat="40.7518867" lon="14.8627017"><ele>536.0</ele><time>2026-04-25T07:44:23.025Z</time></trkpt><trkpt lat="40.75183" lon="14.862755"><ele>536.0</ele><time>2026-04-25T07:44:24.025Z</time></trkpt><trkpt lat="40.751775" lon="14.8628"><ele>536.0</ele><time>2026-04-25T07:44:25.035Z</time></trkpt><trkpt lat="40.7517167" lon="14.8628517"><ele>536.0</ele><time>2026-04-25T07:44:26.076Z</time></trkpt><trkpt lat="40.7516683" lon="14.8629117"><ele>532.1666666666666</ele><time>2026-04-25T07:44:27.024Z</time></trkpt><trkpt lat="40.7516233" lon="14.862975"><ele>528.3333333333333</ele><time>2026-04-25T07:44:28.024Z</time></trkpt><trkpt lat="40.7515383" lon="14.8630567"><ele>524.5</ele><time>2026-04-25T07:44:30.021Z</time></trkpt><trkpt lat="40.751475" lon="14.863085"><ele>520.6666666666666</ele><time>2026-04-25T07:44:31.018Z</time></trkpt><trkpt lat="40.7514017" lon="14.8630867"><ele>516.8333333333334</ele><time>2026-04-25T07:44:32.067Z</time></trkpt><trkpt lat="40.751325" lon="14.863075"><ele>513.0</ele><time>2026-04-25T07:44:33.023Z</time></trkpt><trkpt lat="40.7512217" lon="14.8630233"><ele>513.0000000000001</ele><time>2026-04-25T07:44:35.029Z</time></trkpt><trkpt lat="40.7511733" lon="14.8629667"><ele>513.0</ele><time>2026-04-25T07:44:37.028Z</time></trkpt><trkpt lat="40.75122" lon="14.8629033"><ele>513.0</ele><time>2026-04-25T07:44:38.057Z</time></trkpt><trkpt lat="40.7512617" lon="14.86284"><ele>513.0</ele><time>2026-04-25T07:44:39.031Z</time></trkpt><trkpt lat="40.7513217" lon="14.862755"><ele>513.0</ele><time>2026-04-25T07:44:40.025Z</time></trkpt><trkpt lat="40.751375" lon="14.862685"><ele>513.0000000000001</ele><time>2026-04-25T07:44:41.035Z</time></trkpt><trkpt lat="40.7514217" lon="14.86262"><ele>513.0</ele><time>2026-04-25T07:44:42.022Z</time></trkpt><trkpt lat="40.7514883" lon="14.8624833"><ele>513.8</ele><time>2026-04-25T07:44:44.066Z</time></trkpt><trkpt lat="40.75151" lon="14.8623333"><ele>514.5999999999999</ele><time>2026-04-25T07:44:46.027Z</time></trkpt><trkpt lat="40.751495" lon="14.8621883"><ele>515.4000000000001</ele><time>2026-04-25T07:44:48.02Z</time></trkpt><trkpt lat="40.7515033" lon="14.862075"><ele>516.2</ele><time>2026-04-25T07:44:50.066Z</time></trkpt><trkpt lat="40.7515583" lon="14.861995"><ele>517.0</ele><time>2026-04-25T07:44:52.019Z</time></trkpt><trkpt lat="40.7516133" lon="14.8619433"><ele>517.0</ele><time>2026-04-25T07:44:53.026Z</time></trkpt><trkpt lat="40.7516833" lon="14.8619117"><ele>517.0</ele><time>2026-04-25T07:44:54.023Z</time></trkpt><trkpt lat="40.7517467" lon="14.8618833"><ele>517.0</ele><time>2026-04-25T07:44:55.019Z</time></trkpt><trkpt lat="40.7518183" lon="14.8618617"><ele>517.0</ele><time>2026-04-25T07:44:56.078Z</time></trkpt><trkpt lat="40.7518783" lon="14.8618333"><ele>517.0</ele><time>2026-04-25T07:44:57.022Z</time></trkpt><trkpt lat="40.751935" lon="14.8617833"><ele>517.0</ele><time>2026-04-25T07:44:58.026Z</time></trkpt><trkpt lat="40.752005" lon="14.8617217"><ele>517.0</ele><time>2026-04-25T07:44:59.023Z</time></trkpt><trkpt lat="40.7520517" lon="14.86166"><ele>519.6</ele><time>2026-04-25T07:45:00.023Z</time></trkpt><trkpt lat="40.7521433" lon="14.8615733"><ele>522.2</ele><time>2026-04-25T07:45:02.067Z</time></trkpt><trkpt lat="40.7521867" lon="14.8614867"><ele>524.8</ele><time>2026-04-25T07:45:04.026Z</time></trkpt><trkpt lat="40.7521133" lon="14.8615017"><ele>527.4</ele><time>2026-04-25T07:45:10.02Z</time></trkpt><trkpt lat="40.7519833" lon="14.861545"><ele>530.0</ele><time>2026-04-25T07:45:12.023Z</time></trkpt><trkpt lat="40.7519133" lon="14.8615517"><ele>525.1666666666666</ele><time>2026-04-25T07:45:13.029Z</time></trkpt><trkpt lat="40.7518433" lon="14.8615533"><ele>520.3333333333333</ele><time>2026-04-25T07:45:14.059Z</time></trkpt><trkpt lat="40.7517817" lon="14.86153"><ele>515.5</ele><time>2026-04-25T07:45:15.026Z</time></trkpt><trkpt lat="40.7517" lon="14.8615183"><ele>510.66666666666663</ele><time>2026-04-25T07:45:17.025Z</time></trkpt><trkpt lat="40.7516317" lon="14.8615517"><ele>505.8333333333333</ele><time>2026-04-25T07:45:20.062Z</time></trkpt><trkpt lat="40.7516917" lon="14.8615117"><ele>501.0</ele><time>2026-04-25T07:45:24.021Z</time></trkpt><trkpt lat="40.75179" lon="14.86151"><ele>501.0</ele><time>2026-04-25T07:45:26.082Z</time></trkpt><trkpt lat="40.7518633" lon="14.86145"><ele>501.0</ele><time>2026-04-25T07:45:28.022Z</time></trkpt><trkpt lat="40.751915" lon="14.861375"><ele>501.0</ele><time>2026-04-25T07:45:30.022Z</time></trkpt><trkpt lat="40.7518167" lon="14.8613267"><ele>501.0</ele><time>2026-04-25T07:45:38.063Z</time></trkpt><trkpt lat="40.7517067" lon="14.8613367"><ele>501.0</ele><time>2026-04-25T07:45:39.021Z</time></trkpt><trkpt lat="40.7515717" lon="14.86135"><ele>501.0</ele><time>2026-04-25T07:45:40.02Z</time></trkpt><trkpt lat="40.75148" lon="14.8613683"><ele>501.0</ele><time>2026-04-25T07:45:41.024Z</time></trkpt><trkpt lat="40.7514" lon="14.8613967"><ele>501.0</ele><time>2026-04-25T07:45:42.028Z</time></trkpt><trkpt lat="40.7513217" lon="14.8614583"><ele>501.0</ele><time>2026-04-25T07:45:43.026Z</time></trkpt><trkpt lat="40.751245" lon="14.86153"><ele>501.0</ele><time>2026-04-25T07:45:44.055Z</time></trkpt><trkpt lat="40.7511683" lon="14.861595"><ele>501.0</ele><time>2026-04-25T07:45:45.024Z</time></trkpt><trkpt lat="40.751095" lon="14.86166"><ele>501.0</ele><time>2026-04-25T07:45:46.025Z</time></trkpt><trkpt lat="40.7510333" lon="14.8617233"><ele>501.0</ele><time>2026-04-25T07:45:47.026Z</time></trkpt><trkpt lat="40.7509833" lon="14.8618017"><ele>501.0</ele><time>2026-04-25T07:45:48.028Z</time></trkpt><trkpt lat="40.750955" lon="14.861905"><ele>501.0</ele><time>2026-04-25T07:45:49.019Z</time></trkpt><trkpt lat="40.7509217" lon="14.8619867"><ele>501.0</ele><time>2026-04-25T07:45:50.059Z</time></trkpt><trkpt lat="40.7508917" lon="14.8620817"><ele>499.1666666666667</ele><time>2026-04-25T07:45:51.026Z</time></trkpt><trkpt lat="40.75085" lon="14.8621583"><ele>497.33333333333337</ele><time>2026-04-25T07:45:52.023Z</time></trkpt><trkpt lat="40.7508" lon="14.862235"><ele>495.5</ele><time>2026-04-25T07:45:53.026Z</time></trkpt><trkpt lat="40.7507433" lon="14.8623083"><ele>493.6666666666667</ele><time>2026-04-25T07:45:54.024Z</time></trkpt><trkpt lat="40.7506833" lon="14.8623617"><ele>491.83333333333337</ele><time>2026-04-25T07:45:55.022Z</time></trkpt><trkpt lat="40.750605" lon="14.8624033"><ele>490.0</ele><time>2026-04-25T07:45:56.047Z</time></trkpt><trkpt lat="40.7505033" lon="14.862425"><ele>490.0</ele><time>2026-04-25T07:45:57.022Z</time></trkpt><trkpt lat="40.7504017" lon="14.862425"><ele>490.0</ele><time>2026-04-25T07:45:58.047Z</time></trkpt><trkpt lat="40.75033" lon="14.8624333"><ele>490.0</ele><time>2026-04-25T07:45:59.023Z</time></trkpt><trkpt lat="40.7502417" lon="14.8624617"><ele>490.0</ele><time>2026-04-25T07:46:01.018Z</time></trkpt><trkpt lat="40.7502" lon="14.8625917"><ele>490.0</ele><time>2026-04-25T07:46:03.016Z</time></trkpt><trkpt lat="40.7501817" lon="14.86274"><ele>489.2</ele><time>2026-04-25T07:46:05.026Z</time></trkpt><trkpt lat="40.7501483" lon="14.8628683"><ele>488.4</ele><time>2026-04-25T07:46:07.03Z</time></trkpt><trkpt lat="40.75007" lon="14.86302"><ele>487.6</ele><time>2026-04-25T07:46:09.028Z</time></trkpt><trkpt lat="40.750025" lon="14.8631233"><ele>486.8</ele><time>2026-04-25T07:46:10.02Z</time></trkpt><trkpt lat="40.74999" lon="14.863215"><ele>486.0</ele><time>2026-04-25T07:46:11.027Z</time></trkpt><trkpt lat="40.7499717" lon="14.8633"><ele>484.5</ele><time>2026-04-25T07:46:12.023Z</time></trkpt><trkpt lat="40.74997" lon="14.8634483"><ele>483.0</ele><time>2026-04-25T07:46:14.061Z</time></trkpt><trkpt lat="40.7499717" lon="14.8635333"><ele>481.5</ele><time>2026-04-25T07:46:15.025Z</time></trkpt><trkpt lat="40.7499533" lon="14.8636217"><ele>480.0</ele><time>2026-04-25T07:46:16.026Z</time></trkpt><trkpt lat="40.7499217" lon="14.8637117"><ele>478.5</ele><time>2026-04-25T07:46:17.035Z</time></trkpt><trkpt lat="40.7498917" lon="14.8638"><ele>477.0</ele><time>2026-04-25T07:46:18.028Z</time></trkpt><trkpt lat="40.7498433" lon="14.86388"><ele>477.0</ele><time>2026-04-25T07:46:19.019Z</time></trkpt><trkpt lat="40.74979" lon="14.8639367"><ele>477.00000000000006</ele><time>2026-04-25T07:46:20.059Z</time></trkpt><trkpt lat="40.74973" lon="14.8640533"><ele>477.00000000000006</ele><time>2026-04-25T07:46:22.021Z</time></trkpt><trkpt lat="40.7497267" lon="14.86423"><ele>477.0</ele><time>2026-04-25T07:46:24.033Z</time></trkpt><trkpt lat="40.74971" lon="14.864345"><ele>477.0</ele><time>2026-04-25T07:46:25.029Z</time></trkpt><trkpt lat="40.7496917" lon="14.8644517"><ele>474.8</ele><time>2026-04-25T07:46:26.078Z</time></trkpt><trkpt lat="40.7496683" lon="14.8645583"><ele>472.6</ele><time>2026-04-25T07:46:27.016Z</time></trkpt><trkpt lat="40.7496367" lon="14.8646767"><ele>470.40000000000003</ele><time>2026-04-25T07:46:28.014Z</time></trkpt><trkpt lat="40.7496017" lon="14.8648133"><ele>468.20000000000005</ele><time>2026-04-25T07:46:29.024Z</time></trkpt><trkpt lat="40.7495817" lon="14.864955"><ele>466.0</ele><time>2026-04-25T07:46:30.018Z</time></trkpt><trkpt lat="40.7495833" lon="14.86509"><ele>464.4</ele><time>2026-04-25T07:46:31.024Z</time></trkpt><trkpt lat="40.7495883" lon="14.8652167"><ele>462.8</ele><time>2026-04-25T07:46:32.075Z</time></trkpt><trkpt lat="40.7495967" lon="14.8653317"><ele>461.19999999999993</ele><time>2026-04-25T07:46:33.022Z</time></trkpt><trkpt lat="40.74959" lon="14.8654483"><ele>459.59999999999997</ele><time>2026-04-25T07:46:34.018Z</time></trkpt><trkpt lat="40.749575" lon="14.8655783"><ele>458.0</ele><time>2026-04-25T07:46:35.029Z</time></trkpt><trkpt lat="40.7495433" lon="14.86573"><ele>458.0</ele><time>2026-04-25T07:46:36.021Z</time></trkpt><trkpt lat="40.749495" lon="14.8658817"><ele>458.0</ele><time>2026-04-25T07:46:37.019Z</time></trkpt><trkpt lat="40.7494567" lon="14.8660167"><ele>458.0</ele><time>2026-04-25T07:46:38.055Z</time></trkpt><trkpt lat="40.7494183" lon="14.866155"><ele>458.0</ele><time>2026-04-25T07:46:39.018Z</time></trkpt><trkpt lat="40.7493833" lon="14.866285"><ele>461.75</ele><time>2026-04-25T07:46:40.022Z</time></trkpt><trkpt lat="40.7493533" lon="14.866405"><ele>465.5</ele><time>2026-04-25T07:46:41.021Z</time></trkpt><trkpt lat="40.7493283" lon="14.86653"><ele>469.25</ele><time>2026-04-25T07:46:42.027Z</time></trkpt><trkpt lat="40.7493117" lon="14.866675"><ele>473.0</ele><time>2026-04-25T07:46:43.021Z</time></trkpt><trkpt lat="40.7492917" lon="14.8668667"><ele>473.0</ele><time>2026-04-25T07:46:44.055Z</time></trkpt><trkpt lat="40.7492683" lon="14.8670617"><ele>473.0</ele><time>2026-04-25T07:46:45.019Z</time></trkpt><trkpt lat="40.7492583" lon="14.86724"><ele>473.0</ele><time>2026-04-25T07:46:46.02Z</time></trkpt><trkpt lat="40.7492583" lon="14.867405"><ele>473.0</ele><time>2026-04-25T07:46:47.033Z</time></trkpt><trkpt lat="40.7492617" lon="14.8675467"><ele>471.25</ele><time>2026-04-25T07:46:48.02Z</time></trkpt><trkpt lat="40.7492583" lon="14.8676683"><ele>469.5</ele><time>2026-04-25T07:46:49.031Z</time></trkpt><trkpt lat="40.7492683" lon="14.8678083"><ele>467.75</ele><time>2026-04-25T07:46:50.057Z</time></trkpt><trkpt lat="40.74929" lon="14.8679767"><ele>466.0</ele><time>2026-04-25T07:46:51.022Z</time></trkpt><trkpt lat="40.749315" lon="14.86815"><ele>466.0</ele><time>2026-04-25T07:46:52.028Z</time></trkpt><trkpt lat="40.74934" lon="14.8683117"><ele>466.0</ele><time>2026-04-25T07:46:53.029Z</time></trkpt><trkpt lat="40.7493567" lon="14.8684617"><ele>466.0</ele><time>2026-04-25T07:46:54.026Z</time></trkpt><trkpt lat="40.749365" lon="14.8686167"><ele>466.0</ele><time>2026-04-25T07:46:55.032Z</time></trkpt><trkpt lat="40.7493633" lon="14.86877"><ele>464.0</ele><time>2026-04-25T07:46:56.085Z</time></trkpt><trkpt lat="40.749355" lon="14.86892"><ele>462.0</ele><time>2026-04-25T07:46:57.022Z</time></trkpt><trkpt lat="40.74935" lon="14.86907"><ele>460.0</ele><time>2026-04-25T07:46:58.024Z</time></trkpt><trkpt lat="40.7493483" lon="14.8692183"><ele>458.0</ele><time>2026-04-25T07:46:59.022Z</time></trkpt><trkpt lat="40.749345" lon="14.8693517"><ele>456.0</ele><time>2026-04-25T07:47:00.023Z</time></trkpt><trkpt lat="40.7493467" lon="14.8694633"><ele>455.0</ele><time>2026-04-25T07:47:01.023Z</time></trkpt><trkpt lat="40.7493617" lon="14.8695717"><ele>453.99999999999994</ele><time>2026-04-25T07:47:02.07Z</time></trkpt><trkpt lat="40.749385" lon="14.8696583"><ele>453.0</ele><time>2026-04-25T07:47:03.021Z</time></trkpt><trkpt lat="40.7493933" lon="14.869745"><ele>452.0</ele><time>2026-04-25T07:47:04.028Z</time></trkpt><trkpt lat="40.7493883" lon="14.86984"><ele>450.99999999999994</ele><time>2026-04-25T07:47:05.026Z</time></trkpt><trkpt lat="40.74937" lon="14.8699317"><ele>450.0</ele><time>2026-04-25T07:47:06.02Z</time></trkpt><trkpt lat="40.7493283" lon="14.8700033"><ele>449.0</ele><time>2026-04-25T07:47:07.019Z</time></trkpt><trkpt lat="40.7492317" lon="14.870055"><ele>449.0</ele><time>2026-04-25T07:47:09.022Z</time></trkpt><trkpt lat="40.7493267" lon="14.8700717"><ele>449.0</ele><time>2026-04-25T07:47:13.035Z</time></trkpt><trkpt lat="40.74939" lon="14.87002"><ele>449.0</ele><time>2026-04-25T07:47:14.059Z</time></trkpt><trkpt lat="40.7494783" lon="14.86986"><ele>449.0</ele><time>2026-04-25T07:47:15.027Z</time></trkpt><trkpt lat="40.74955" lon="14.8697117"><ele>446.4</ele><time>2026-04-25T07:47:16.023Z</time></trkpt><trkpt lat="40.7496167" lon="14.8695583"><ele>443.79999999999995</ele><time>2026-04-25T07:47:17.027Z</time></trkpt><trkpt lat="40.7496767" lon="14.8694267"><ele>441.20000000000005</ele><time>2026-04-25T07:47:18.025Z</time></trkpt><trkpt lat="40.74973" lon="14.8693117"><ele>438.6</ele><time>2026-04-25T07:47:19.022Z</time></trkpt><trkpt lat="40.74977" lon="14.86921"><ele>436.0</ele><time>2026-04-25T07:47:20.054Z</time></trkpt><trkpt lat="40.7498033" lon="14.86912"><ele>436.00000000000006</ele><time>2026-04-25T07:47:21.026Z</time></trkpt><trkpt lat="40.7498233" lon="14.869035"><ele>436.0</ele><time>2026-04-25T07:47:22.023Z</time></trkpt><trkpt lat="40.7498333" lon="14.8689433"><ele>436.0</ele><time>2026-04-25T07:47:23.036Z</time></trkpt><trkpt lat="40.7498333" lon="14.8688417"><ele>436.0</ele><time>2026-04-25T07:47:24.021Z</time></trkpt><trkpt lat="40.749845" lon="14.86873"><ele>436.00000000000006</ele><time>2026-04-25T07:47:25.017Z</time></trkpt><trkpt lat="40.7498617" lon="14.8686183"><ele>436.0</ele><time>2026-04-25T07:47:26.076Z</time></trkpt><trkpt lat="40.749875" lon="14.8685133"><ele>436.6666666666667</ele><time>2026-04-25T07:47:27.017Z</time></trkpt><trkpt lat="40.7498767" lon="14.8684117"><ele>437.33333333333337</ele><time>2026-04-25T07:47:28.022Z</time></trkpt><trkpt lat="40.7498717" lon="14.8682983"><ele>438.0</ele><time>2026-04-25T07:47:29.025Z</time></trkpt><trkpt lat="40.74986" lon="14.8681767"><ele>438.66666666666663</ele><time>2026-04-25T07:47:30.017Z</time></trkpt><trkpt lat="40.7498533" lon="14.8680517"><ele>439.3333333333333</ele><time>2026-04-25T07:47:31.022Z</time></trkpt><trkpt lat="40.7498533" lon="14.867935"><ele>440.0</ele><time>2026-04-25T07:47:32.046Z</time></trkpt><trkpt lat="40.7498633" lon="14.86783"><ele>439.99999999999994</ele><time>2026-04-25T07:47:33.026Z</time></trkpt><trkpt lat="40.749935" lon="14.8677733"><ele>440.0</ele><time>2026-04-25T07:47:34.023Z</time></trkpt><trkpt lat="40.7500033" lon="14.867715"><ele>440.0</ele><time>2026-04-25T07:47:35.027Z</time></trkpt><trkpt lat="40.7500717" lon="14.867655"><ele>440.0</ele><time>2026-04-25T07:47:36.028Z</time></trkpt><trkpt lat="40.750125" lon="14.8675883"><ele>439.99999999999994</ele><time>2026-04-25T07:47:37.033Z</time></trkpt><trkpt lat="40.7501617" lon="14.86752"><ele>440.0</ele><time>2026-04-25T07:47:38.062Z</time></trkpt><trkpt lat="40.7501967" lon="14.8674283"><ele>440.3333333333333</ele><time>2026-04-25T07:47:40.016Z</time></trkpt><trkpt lat="40.7501933" lon="14.8673167"><ele>440.66666666666663</ele><time>2026-04-25T07:47:43.028Z</time></trkpt><trkpt lat="40.7502083" lon="14.8672"><ele>441.0</ele><time>2026-04-25T07:47:45.031Z</time></trkpt><trkpt lat="40.7502017" lon="14.86705"><ele>441.33333333333337</ele><time>2026-04-25T07:47:47.025Z</time></trkpt><trkpt lat="40.7501783" lon="14.8669633"><ele>441.6666666666667</ele><time>2026-04-25T07:47:48.022Z</time></trkpt><trkpt lat="40.7501567" lon="14.8668717"><ele>442.0</ele><time>2026-04-25T07:47:49.025Z</time></trkpt><trkpt lat="40.7501433" lon="14.86677"><ele>441.50000000000006</ele><time>2026-04-25T07:47:50.059Z</time></trkpt><trkpt lat="40.7501433" lon="14.8666667"><ele>441.0</ele><time>2026-04-25T07:47:51.028Z</time></trkpt><trkpt lat="40.7501667" lon="14.866575"><ele>440.5</ele><time>2026-04-25T07:47:52.022Z</time></trkpt><trkpt lat="40.75022" lon="14.8664967"><ele>440.0</ele><time>2026-04-25T07:47:53.028Z</time></trkpt><trkpt lat="40.7502867" lon="14.866445"><ele>439.50000000000006</ele><time>2026-04-25T07:47:54.026Z</time></trkpt><trkpt lat="40.7503733" lon="14.8664033"><ele>439.0</ele><time>2026-04-25T07:47:55.016Z</time></trkpt><trkpt lat="40.75047" lon="14.86637"><ele>439.0</ele><time>2026-04-25T07:47:56.085Z</time></trkpt><trkpt lat="40.7506033" lon="14.8663517"><ele>439.0</ele><time>2026-04-25T07:47:57.025Z</time></trkpt><trkpt lat="40.7507033" lon="14.8663217"><ele>439.0</ele><time>2026-04-25T07:47:59.031Z</time></trkpt><trkpt lat="40.7507683" lon="14.86632"><ele>439.0</ele><time>2026-04-25T07:48:01.026Z</time></trkpt><trkpt lat="40.750635" lon="14.8665333"><ele>439.0</ele><time>2026-04-25T07:48:05.025Z</time></trkpt><trkpt lat="40.7506017" lon="14.866605"><ele>439.0</ele><time>2026-04-25T07:48:06.025Z</time></trkpt><trkpt lat="40.7505767" lon="14.8666933"><ele>439.0</ele><time>2026-04-25T07:48:07.033Z</time></trkpt><trkpt lat="40.7505733" lon="14.8667767"><ele>439.0</ele><time>2026-04-25T07:48:08.066Z</time></trkpt><trkpt lat="40.7505817" lon="14.8668717"><ele>439.0</ele><time>2026-04-25T07:48:09.026Z</time></trkpt><trkpt lat="40.7505983" lon="14.8669617"><ele>439.0</ele><time>2026-04-25T07:48:10.023Z</time></trkpt><trkpt lat="40.750615" lon="14.8670567"><ele>439.0</ele><time>2026-04-25T07:48:11.031Z</time></trkpt><trkpt lat="40.7506367" lon="14.8671683"><ele>436.4</ele><time>2026-04-25T07:48:12.023Z</time></trkpt><trkpt lat="40.7506633" lon="14.867295"><ele>433.79999999999995</ele><time>2026-04-25T07:48:13.035Z</time></trkpt><trkpt lat="40.7506917" lon="14.86743"><ele>431.20000000000005</ele><time>2026-04-25T07:48:14.059Z</time></trkpt><trkpt lat="40.7507233" lon="14.8675567"><ele>428.6</ele><time>2026-04-25T07:48:15.022Z</time></trkpt><trkpt lat="40.7507417" lon="14.8676833"><ele>426.0</ele><time>2026-04-25T07:48:16.022Z</time></trkpt><trkpt lat="40.7507783" lon="14.8677833"><ele>423.1666666666667</ele><time>2026-04-25T07:48:17.029Z</time></trkpt><trkpt lat="40.7507367" lon="14.867875"><ele>420.33333333333337</ele><time>2026-04-25T07:48:18.023Z</time></trkpt><trkpt lat="40.75071" lon="14.8679883"><ele>417.5</ele><time>2026-04-25T07:48:19.029Z</time></trkpt><trkpt lat="40.7506933" lon="14.868105"><ele>414.6666666666667</ele><time>2026-04-25T07:48:20.056Z</time></trkpt><trkpt lat="40.75069" lon="14.8682217"><ele>411.83333333333337</ele><time>2026-04-25T07:48:21.023Z</time></trkpt><trkpt lat="40.7507" lon="14.8683383"><ele>409.0</ele><time>2026-04-25T07:48:22.02Z</time></trkpt><trkpt lat="40.75073" lon="14.868445"><ele>406.1666666666667</ele><time>2026-04-25T07:48:23.032Z</time></trkpt><trkpt lat="40.7507683" lon="14.8685517"><ele>403.33333333333337</ele><time>2026-04-25T07:48:24.023Z</time></trkpt><trkpt lat="40.75082" lon="14.8686567"><ele>400.5</ele><time>2026-04-25T07:48:25.023Z</time></trkpt><trkpt lat="40.7508667" lon="14.8687533"><ele>397.66666666666663</ele><time>2026-04-25T07:48:26.029Z</time></trkpt><trkpt lat="40.7509083" lon="14.868855"><ele>394.8333333333333</ele><time>2026-04-25T07:48:27.028Z</time></trkpt><trkpt lat="40.7509367" lon="14.8689483"><ele>392.0</ele><time>2026-04-25T07:48:28.022Z</time></trkpt><trkpt lat="40.7509633" lon="14.8690633"><ele>392.0</ele><time>2026-04-25T07:48:29.025Z</time></trkpt><trkpt lat="40.750985" lon="14.8692"><ele>392.0</ele><time>2026-04-25T07:48:30.021Z</time></trkpt><trkpt lat="40.7510233" lon="14.86933"><ele>392.0</ele><time>2026-04-25T07:48:31.026Z</time></trkpt><trkpt lat="40.751075" lon="14.8694433"><ele>392.0</ele><time>2026-04-25T07:48:32.02Z</time></trkpt><trkpt lat="40.7511083" lon="14.869565"><ele>392.0</ele><time>2026-04-25T07:48:33.022Z</time></trkpt><trkpt lat="40.751135" lon="14.8696683"><ele>392.99999999999994</ele><time>2026-04-25T07:48:34.026Z</time></trkpt><trkpt lat="40.751155" lon="14.8697717"><ele>394.0</ele><time>2026-04-25T07:48:35.028Z</time></trkpt><trkpt lat="40.7511367" lon="14.869885"><ele>395.0</ele><time>2026-04-25T07:48:36.015Z</time></trkpt><trkpt lat="40.7510767" lon="14.8700033"><ele>396.0</ele><time>2026-04-25T07:48:37.023Z</time></trkpt><trkpt lat="40.75101" lon="14.87008"><ele>396.99999999999994</ele><time>2026-04-25T07:48:38.053Z</time></trkpt><trkpt lat="40.7509683" lon="14.87017"><ele>398.0</ele><time>2026-04-25T07:48:39.019Z</time></trkpt><trkpt lat="40.75093" lon="14.8702617"><ele>395.16666666666663</ele><time>2026-04-25T07:48:40.026Z</time></trkpt><trkpt lat="40.7508933" lon="14.8703533"><ele>392.3333333333333</ele><time>2026-04-25T07:48:41.029Z</time></trkpt><trkpt lat="40.7508533" lon="14.8704317"><ele>389.5</ele><time>2026-04-25T07:48:42.033Z</time></trkpt><trkpt lat="40.7507933" lon="14.870515"><ele>386.66666666666663</ele><time>2026-04-25T07:48:43.024Z</time></trkpt><trkpt lat="40.7507383" lon="14.8706083"><ele>383.8333333333333</ele><time>2026-04-25T07:48:44.06Z</time></trkpt><trkpt lat="40.7506683" lon="14.8707083"><ele>381.0</ele><time>2026-04-25T07:48:45.019Z</time></trkpt><trkpt lat="40.7506233" lon="14.8708167"><ele>382.4</ele><time>2026-04-25T07:48:46.025Z</time></trkpt><trkpt lat="40.750595" lon="14.8709417"><ele>383.8</ele><time>2026-04-25T07:48:47.026Z</time></trkpt><trkpt lat="40.7505717" lon="14.87107"><ele>385.2</ele><time>2026-04-25T07:48:48.021Z</time></trkpt><trkpt lat="40.750565" lon="14.871195"><ele>386.59999999999997</ele><time>2026-04-25T07:48:49.028Z</time></trkpt><trkpt lat="40.75054" lon="14.8713217"><ele>388.0</ele><time>2026-04-25T07:48:50.055Z</time></trkpt><trkpt lat="40.7505433" lon="14.8714367"><ele>388.0</ele><time>2026-04-25T07:48:51.023Z</time></trkpt><trkpt lat="40.7505333" lon="14.871555"><ele>388.0</ele><time>2026-04-25T07:48:52.029Z</time></trkpt><trkpt lat="40.7505383" lon="14.8716767"><ele>388.0</ele><time>2026-04-25T07:48:53.023Z</time></trkpt><trkpt lat="40.75053" lon="14.8718017"><ele>388.0</ele><time>2026-04-25T07:48:54.023Z</time></trkpt><trkpt lat="40.7505083" lon="14.87194"><ele>388.0</ele><time>2026-04-25T07:48:55.026Z</time></trkpt><trkpt lat="40.7505017" lon="14.87206"><ele>384.00000000000006</ele><time>2026-04-25T07:48:56.026Z</time></trkpt><trkpt lat="40.7505017" lon="14.8721833"><ele>380.0</ele><time>2026-04-25T07:48:57.03Z</time></trkpt><trkpt lat="40.7505133" lon="14.87231"><ele>376.0</ele><time>2026-04-25T07:48:58.022Z</time></trkpt><trkpt lat="40.7505333" lon="14.872425"><ele>372.0</ele><time>2026-04-25T07:48:59.027Z</time></trkpt><trkpt lat="40.75056" lon="14.8725383"><ele>368.0</ele><time>2026-04-25T07:49:00.022Z</time></trkpt><trkpt lat="40.75058" lon="14.87264"><ele>364.0</ele><time>2026-04-25T07:49:01.031Z</time></trkpt><trkpt lat="40.750595" lon="14.8727433"><ele>358.4</ele><time>2026-04-25T07:49:02.017Z</time></trkpt><trkpt lat="40.7505833" lon="14.8728533"><ele>352.79999999999995</ele><time>2026-04-25T07:49:03.021Z</time></trkpt><trkpt lat="40.7505617" lon="14.8729783"><ele>347.20000000000005</ele><time>2026-04-25T07:49:04.023Z</time></trkpt><trkpt lat="40.7505517" lon="14.87311"><ele>341.6</ele><time>2026-04-25T07:49:05.027Z</time></trkpt><trkpt lat="40.75054" lon="14.8732283"><ele>336.0</ele><time>2026-04-25T07:49:06.031Z</time></trkpt><trkpt lat="40.7505267" lon="14.8733417"><ele>336.0</ele><time>2026-04-25T07:49:07.028Z</time></trkpt><trkpt lat="40.75055" lon="14.8734267"><ele>336.0</ele><time>2026-04-25T07:49:08.057Z</time></trkpt><trkpt lat="40.750665" lon="14.8733967"><ele>336.0</ele><time>2026-04-25T07:49:10.024Z</time></trkpt><trkpt lat="40.750745" lon="14.8733083"><ele>336.0</ele><time>2026-04-25T07:49:12.022Z</time></trkpt><trkpt lat="40.7508083" lon="14.8732583"><ele>336.0</ele><time>2026-04-25T07:49:14.057Z</time></trkpt><trkpt lat="40.7507383" lon="14.8733817"><ele>330.8333333333333</ele><time>2026-04-25T07:49:18.02Z</time></trkpt><trkpt lat="40.7506833" lon="14.87346"><ele>325.6666666666667</ele><time>2026-04-25T07:49:19.018Z</time></trkpt><trkpt lat="40.7506333" lon="14.8735567"><ele>320.5</ele><time>2026-04-25T07:49:20.055Z</time></trkpt><trkpt lat="40.7505833" lon="14.873645"><ele>315.33333333333337</ele><time>2026-04-25T07:49:21.022Z</time></trkpt><trkpt lat="40.750535" lon="14.87373"><ele>310.1666666666667</ele><time>2026-04-25T07:49:22.027Z</time></trkpt><trkpt lat="40.7504867" lon="14.8737933"><ele>305.0</ele><time>2026-04-25T07:49:23.028Z</time></trkpt><trkpt lat="40.7504067" lon="14.87383"><ele>305.0</ele><time>2026-04-25T07:49:25.031Z</time></trkpt><trkpt lat="40.7503467" lon="14.8737633"><ele>305.0</ele><time>2026-04-25T07:49:27.037Z</time></trkpt><trkpt lat="40.7503283" lon="14.8736817"><ele>305.0</ele><time>2026-04-25T07:49:28.019Z</time></trkpt><trkpt lat="40.7503067" lon="14.8735767"><ele>305.0</ele><time>2026-04-25T07:49:29.027Z</time></trkpt><trkpt lat="40.7503033" lon="14.873435"><ele>305.0</ele><time>2026-04-25T07:49:30.03Z</time></trkpt><trkpt lat="40.75029" lon="14.87332"><ele>305.0</ele><time>2026-04-25T07:49:31.022Z</time></trkpt><trkpt lat="40.750295" lon="14.8731967"><ele>311.2</ele><time>2026-04-25T07:49:32.023Z</time></trkpt><trkpt lat="40.7503" lon="14.8730533"><ele>317.4</ele><time>2026-04-25T07:49:33.028Z</time></trkpt><trkpt lat="40.7503" lon="14.8729317"><ele>323.6</ele><time>2026-04-25T07:49:34.015Z</time></trkpt><trkpt lat="40.7502933" lon="14.8728133"><ele>329.8</ele><time>2026-04-25T07:49:35.024Z</time></trkpt><trkpt lat="40.750285" lon="14.8727167"><ele>336.0</ele><time>2026-04-25T07:49:36.022Z</time></trkpt><trkpt lat="40.7502383" lon="14.8729817"><ele>336.0</ele><time>2026-04-25T07:49:41.04Z</time></trkpt><trkpt lat="40.750245" lon="14.87314"><ele>336.0</ele><time>2026-04-25T07:49:42.028Z</time></trkpt><trkpt lat="40.7502367" lon="14.8733167"><ele>336.0</ele><time>2026-04-25T07:49:43.027Z</time></trkpt><trkpt lat="40.750225" lon="14.8734967"><ele>336.0</ele><time>2026-04-25T07:49:44.057Z</time></trkpt><trkpt lat="40.7502117" lon="14.8736767"><ele>329.0</ele><time>2026-04-25T07:49:45.021Z</time></trkpt><trkpt lat="40.7501983" lon="14.8738583"><ele>322.0</ele><time>2026-04-25T07:49:46.028Z</time></trkpt><trkpt lat="40.7501783" lon="14.8740383"><ele>315.0</ele><time>2026-04-25T07:49:47.024Z</time></trkpt><trkpt lat="40.7501667" lon="14.8742133"><ele>308.0</ele><time>2026-04-25T07:49:48.021Z</time></trkpt><trkpt lat="40.7501433" lon="14.87437"><ele>307.6</ele><time>2026-04-25T07:49:49.021Z</time></trkpt><trkpt lat="40.750135" lon="14.8745033"><ele>307.20000000000005</ele><time>2026-04-25T07:49:50.056Z</time></trkpt><trkpt lat="40.7501817" lon="14.8745967"><ele>306.8</ele><time>2026-04-25T07:49:51.023Z</time></trkpt><trkpt lat="40.7502333" lon="14.8746567"><ele>306.40000000000003</ele><time>2026-04-25T07:49:52.015Z</time></trkpt><trkpt lat="40.7502567" lon="14.87477"><ele>306.0</ele><time>2026-04-25T07:49:54.021Z</time></trkpt><trkpt lat="40.7501417" lon="14.87487"><ele>303.75</ele><time>2026-04-25T07:49:56.08Z</time></trkpt><trkpt lat="40.7500683" lon="14.8749667"><ele>301.5</ele><time>2026-04-25T07:49:57.024Z</time></trkpt><trkpt lat="40.7499883" lon="14.8750833"><ele>299.25</ele><time>2026-04-25T07:49:58.024Z</time></trkpt><trkpt lat="40.74991" lon="14.87522"><ele>297.0</ele><time>2026-04-25T07:49:59.03Z</time></trkpt><trkpt lat="40.7498317" lon="14.8753683"><ele>297.0</ele><time>2026-04-25T07:50:00.022Z</time></trkpt><trkpt lat="40.749755" lon="14.87554"><ele>297.0</ele><time>2026-04-25T07:50:01.031Z</time></trkpt><trkpt lat="40.7496867" lon="14.8757"><ele>297.0</ele><time>2026-04-25T07:50:02.015Z</time></trkpt><trkpt lat="40.7496133" lon="14.8758433"><ele>297.0</ele><time>2026-04-25T07:50:03.029Z</time></trkpt><trkpt lat="40.74953" lon="14.8759767"><ele>293.5</ele><time>2026-04-25T07:50:04.019Z</time></trkpt><trkpt lat="40.7494267" lon="14.8760817"><ele>290.0</ele><time>2026-04-25T07:50:05.025Z</time></trkpt><trkpt lat="40.74931" lon="14.87617"><ele>286.5</ele><time>2026-04-25T07:50:06.025Z</time></trkpt><trkpt lat="40.7492" lon="14.8762667"><ele>283.0</ele><time>2026-04-25T07:50:07.024Z</time></trkpt><trkpt lat="40.7490917" lon="14.8763633"><ele>283.0</ele><time>2026-04-25T07:50:08.061Z</time></trkpt><trkpt lat="40.7489933" lon="14.8764667"><ele>283.0</ele><time>2026-04-25T07:50:09.021Z</time></trkpt><trkpt lat="40.748905" lon="14.8765533"><ele>283.0</ele><time>2026-04-25T07:50:10.024Z</time></trkpt><trkpt lat="40.748845" lon="14.87665"><ele>283.0</ele><time>2026-04-25T07:50:11.034Z</time></trkpt><trkpt lat="40.7488483" lon="14.8768033"><ele>283.0</ele><time>2026-04-25T07:50:12.023Z</time></trkpt><trkpt lat="40.74884" lon="14.8769583"><ele>282.25</ele><time>2026-04-25T07:50:13.023Z</time></trkpt><trkpt lat="40.74884" lon="14.87711"><ele>281.5</ele><time>2026-04-25T07:50:14.057Z</time></trkpt><trkpt lat="40.7488367" lon="14.8772633"><ele>280.75</ele><time>2026-04-25T07:50:15.025Z</time></trkpt><trkpt lat="40.7488283" lon="14.8774217"><ele>280.0</ele><time>2026-04-25T07:50:16.019Z</time></trkpt><trkpt lat="40.7488033" lon="14.8775567"><ele>278.8</ele><time>2026-04-25T07:50:17.013Z</time></trkpt><trkpt lat="40.7487717" lon="14.8777033"><ele>277.6</ele><time>2026-04-25T07:50:18.017Z</time></trkpt><trkpt lat="40.74872" lon="14.87783"><ele>276.4</ele><time>2026-04-25T07:50:19.028Z</time></trkpt><trkpt lat="40.74864" lon="14.8779017"><ele>275.2</ele><time>2026-04-25T07:50:20.06Z</time></trkpt><trkpt lat="40.74854" lon="14.8779433"><ele>274.0</ele><time>2026-04-25T07:50:21.027Z</time></trkpt><trkpt lat="40.748455" lon="14.8780033"><ele>274.0</ele><time>2026-04-25T07:50:22.024Z</time></trkpt><trkpt lat="40.7483883" lon="14.8780833"><ele>274.0</ele><time>2026-04-25T07:50:23.027Z</time></trkpt><trkpt lat="40.7483333" lon="14.8781733"><ele>274.0</ele><time>2026-04-25T07:50:24.02Z</time></trkpt><trkpt lat="40.748285" lon="14.87828"><ele>274.0</ele><time>2026-04-25T07:50:25.028Z</time></trkpt><trkpt lat="40.748245" lon="14.8783983"><ele>274.0</ele><time>2026-04-25T07:50:26.083Z</time></trkpt><trkpt lat="40.7482" lon="14.8785167"><ele>276.8</ele><time>2026-04-25T07:50:27.017Z</time></trkpt><trkpt lat="40.7481517" lon="14.8786383"><ele>279.59999999999997</ele><time>2026-04-25T07:50:28.024Z</time></trkpt><trkpt lat="40.7480933" lon="14.8787433"><ele>282.4</ele><time>2026-04-25T07:50:29.026Z</time></trkpt><trkpt lat="40.7480283" lon="14.8788417"><ele>285.2</ele><time>2026-04-25T07:50:30.025Z</time></trkpt><trkpt lat="40.7479433" lon="14.8789283"><ele>288.0</ele><time>2026-04-25T07:50:31.026Z</time></trkpt><trkpt lat="40.7478467" lon="14.878995"><ele>288.0</ele><time>2026-04-25T07:50:32.017Z</time></trkpt><trkpt lat="40.7477383" lon="14.87905"><ele>288.0</ele><time>2026-04-25T07:50:33.028Z</time></trkpt><trkpt lat="40.747635" lon="14.879115"><ele>288.0</ele><time>2026-04-25T07:50:34.022Z</time></trkpt><trkpt lat="40.7475317" lon="14.87919"><ele>288.0</ele><time>2026-04-25T07:50:35.03Z</time></trkpt><trkpt lat="40.74744" lon="14.8792817"><ele>282.75</ele><time>2026-04-25T07:50:36.019Z</time></trkpt><trkpt lat="40.7473633" lon="14.879385"><ele>277.5</ele><time>2026-04-25T07:50:37.014Z</time></trkpt><trkpt lat="40.74731" lon="14.8795533"><ele>272.25</ele><time>2026-04-25T07:50:38.063Z</time></trkpt><trkpt lat="40.7472533" lon="14.8797383"><ele>267.0</ele><time>2026-04-25T07:50:39.026Z</time></trkpt><trkpt lat="40.7471917" lon="14.8799433"><ele>267.6666666666667</ele><time>2026-04-25T07:50:40.022Z</time></trkpt><trkpt lat="40.7471333" lon="14.880145"><ele>268.33333333333337</ele><time>2026-04-25T07:50:41.011Z</time></trkpt><trkpt lat="40.7470783" lon="14.8803367"><ele>269.0</ele><time>2026-04-25T07:50:42.023Z</time></trkpt><trkpt lat="40.7470317" lon="14.8805117"><ele>269.0</ele><time>2026-04-25T07:50:43.027Z</time></trkpt><trkpt lat="40.7470133" lon="14.880675"><ele>269.0</ele><time>2026-04-25T07:50:44.063Z</time></trkpt><trkpt lat="40.74698" lon="14.8808367"><ele>269.0</ele><time>2026-04-25T07:50:45.018Z</time></trkpt><trkpt lat="40.7469467" lon="14.8809983"><ele>269.0</ele><time>2026-04-25T07:50:46.02Z</time></trkpt><trkpt lat="40.7469367" lon="14.8811683"><ele>270.0</ele><time>2026-04-25T07:50:47.033Z</time></trkpt><trkpt lat="40.7469083" lon="14.88135"><ele>271.0</ele><time>2026-04-25T07:50:48.023Z</time></trkpt><trkpt lat="40.746875" lon="14.8815217"><ele>272.0</ele><time>2026-04-25T07:50:49.026Z</time></trkpt><trkpt lat="40.746845" lon="14.8816867"><ele>273.0</ele><time>2026-04-25T07:50:50.056Z</time></trkpt><trkpt lat="40.7468017" lon="14.881845"><ele>269.4</ele><time>2026-04-25T07:50:51.018Z</time></trkpt><trkpt lat="40.746755" lon="14.88199"><ele>265.8</ele><time>2026-04-25T07:50:52.025Z</time></trkpt><trkpt lat="40.7467033" lon="14.8821083"><ele>262.2</ele><time>2026-04-25T07:50:53.027Z</time></trkpt><trkpt lat="40.7466467" lon="14.8822"><ele>258.6</ele><time>2026-04-25T07:50:54.019Z</time></trkpt><trkpt lat="40.7465967" lon="14.8822783"><ele>255.0</ele><time>2026-04-25T07:50:56.087Z</time></trkpt><trkpt lat="40.7466867" lon="14.8823083"><ele>255.0</ele><time>2026-04-25T07:53:48.025Z</time></trkpt><trkpt lat="40.7467783" lon="14.8824017"><ele>255.0</ele><time>2026-04-25T07:53:50.057Z</time></trkpt><trkpt lat="40.746845" lon="14.8825367"><ele>255.0</ele><time>2026-04-25T07:53:52.028Z</time></trkpt><trkpt lat="40.7468833" lon="14.8826133"><ele>255.0</ele><time>2026-04-25T07:53:53.027Z</time></trkpt><trkpt lat="40.7469317" lon="14.882685"><ele>255.0</ele><time>2026-04-25T07:53:54.021Z</time></trkpt><trkpt lat="40.7469867" lon="14.8827433"><ele>256.6666666666667</ele><time>2026-04-25T07:53:55.027Z</time></trkpt><trkpt lat="40.7470517" lon="14.8827983"><ele>258.3333333333333</ele><time>2026-04-25T07:53:56.045Z</time></trkpt><trkpt lat="40.7471283" lon="14.8828383"><ele>260.0</ele><time>2026-04-25T07:53:57.025Z</time></trkpt><trkpt lat="40.7472167" lon="14.882875"><ele>261.66666666666663</ele><time>2026-04-25T07:53:58.02Z</time></trkpt><trkpt lat="40.7472983" lon="14.8829183"><ele>263.3333333333333</ele><time>2026-04-25T07:53:59.024Z</time></trkpt><trkpt lat="40.747375" lon="14.8829733"><ele>265.0</ele><time>2026-04-25T07:54:00.017Z</time></trkpt><trkpt lat="40.7474467" lon="14.8830533"><ele>265.0</ele><time>2026-04-25T07:54:01.024Z</time></trkpt><trkpt lat="40.7475167" lon="14.8831433"><ele>265.0</ele><time>2026-04-25T07:54:02.042Z</time></trkpt><trkpt lat="40.747595" lon="14.8832367"><ele>265.0</ele><time>2026-04-25T07:54:03.026Z</time></trkpt><trkpt lat="40.7476883" lon="14.8833217"><ele>265.0</ele><time>2026-04-25T07:54:04.016Z</time></trkpt><trkpt lat="40.74779" lon="14.8833833"><ele>265.0</ele><time>2026-04-25T07:54:05.028Z</time></trkpt><trkpt lat="40.7478967" lon="14.883435"><ele>269.0</ele><time>2026-04-25T07:54:06.016Z</time></trkpt><trkpt lat="40.748" lon="14.8834833"><ele>273.0</ele><time>2026-04-25T07:54:07.034Z</time></trkpt><trkpt lat="40.7481033" lon="14.883535"><ele>277.0</ele><time>2026-04-25T07:54:08.052Z</time></trkpt><trkpt lat="40.7482067" lon="14.8835933"><ele>281.0</ele><time>2026-04-25T07:54:09.017Z</time></trkpt><trkpt lat="40.7483033" lon="14.88366"><ele>285.0</ele><time>2026-04-25T07:54:10.028Z</time></trkpt><trkpt lat="40.7483983" lon="14.8837333"><ele>285.0</ele><time>2026-04-25T07:54:11.017Z</time></trkpt><trkpt lat="40.74849" lon="14.8837967"><ele>285.0</ele><time>2026-04-25T07:54:12.028Z</time></trkpt><trkpt lat="40.748585" lon="14.8838517"><ele>285.0</ele><time>2026-04-25T07:54:13.027Z</time></trkpt><trkpt lat="40.748685" lon="14.883905"><ele>285.0</ele><time>2026-04-25T07:54:14.057Z</time></trkpt><trkpt lat="40.7487883" lon="14.88395"><ele>285.0</ele><time>2026-04-25T07:54:15.013Z</time></trkpt><trkpt lat="40.74889" lon="14.8839817"><ele>283.2</ele><time>2026-04-25T07:54:16.021Z</time></trkpt><trkpt lat="40.7489833" lon="14.8840133"><ele>281.4</ele><time>2026-04-25T07:54:17.026Z</time></trkpt><trkpt lat="40.7490717" lon="14.88405"><ele>279.6</ele><time>2026-04-25T07:54:18.023Z</time></trkpt><trkpt lat="40.74916" lon="14.8841017"><ele>277.8</ele><time>2026-04-25T07:54:19.028Z</time></trkpt><trkpt lat="40.7492417" lon="14.8841583"><ele>276.0</ele><time>2026-04-25T07:54:20.088Z</time></trkpt><trkpt lat="40.749315" lon="14.8842133"><ele>275.8</ele><time>2026-04-25T07:54:21.017Z</time></trkpt><trkpt lat="40.7493867" lon="14.8842467"><ele>275.6</ele><time>2026-04-25T07:54:22.023Z</time></trkpt><trkpt lat="40.7494567" lon="14.8842633"><ele>275.4</ele><time>2026-04-25T07:54:23.023Z</time></trkpt><trkpt lat="40.7495333" lon="14.8842667"><ele>275.2</ele><time>2026-04-25T07:54:24.019Z</time></trkpt><trkpt lat="40.7496367" lon="14.8842567"><ele>275.0</ele><time>2026-04-25T07:54:25.026Z</time></trkpt><trkpt lat="40.74976" lon="14.8842467"><ele>275.0</ele><time>2026-04-25T07:54:26.044Z</time></trkpt><trkpt lat="40.7498917" lon="14.8842517"><ele>275.0</ele><time>2026-04-25T07:54:27.019Z</time></trkpt><trkpt lat="40.7500117" lon="14.8842817"><ele>275.0</ele><time>2026-04-25T07:54:28.021Z</time></trkpt><trkpt lat="40.7501183" lon="14.8843367"><ele>275.0</ele><time>2026-04-25T07:54:29.027Z</time></trkpt><trkpt lat="40.750215" lon="14.8844067"><ele>279.0</ele><time>2026-04-25T07:54:30.021Z</time></trkpt><trkpt lat="40.7503167" lon="14.8844683"><ele>283.0</ele><time>2026-04-25T07:54:31.025Z</time></trkpt><trkpt lat="40.750435" lon="14.8845083"><ele>287.0</ele><time>2026-04-25T07:54:32.064Z</time></trkpt><trkpt lat="40.750575" lon="14.8845233"><ele>291.0</ele><time>2026-04-25T07:54:33.017Z</time></trkpt><trkpt lat="40.7507317" lon="14.8845233"><ele>291.0</ele><time>2026-04-25T07:54:34.017Z</time></trkpt><trkpt lat="40.750895" lon="14.88453"><ele>291.0</ele><time>2026-04-25T07:54:35.024Z</time></trkpt><trkpt lat="40.7510617" lon="14.8845417"><ele>291.0</ele><time>2026-04-25T07:54:36.02Z</time></trkpt><trkpt lat="40.7512183" lon="14.8845583"><ele>289.25</ele><time>2026-04-25T07:54:37.027Z</time></trkpt><trkpt lat="40.7513633" lon="14.884575"><ele>287.5</ele><time>2026-04-25T07:54:38.056Z</time></trkpt><trkpt lat="40.7514983" lon="14.8845717"><ele>285.75</ele><time>2026-04-25T07:54:39.018Z</time></trkpt><trkpt lat="40.7516133" lon="14.8845667"><ele>284.0</ele><time>2026-04-25T07:54:40.024Z</time></trkpt><trkpt lat="40.7517167" lon="14.884575"><ele>284.0</ele><time>2026-04-25T07:54:41.019Z</time></trkpt><trkpt lat="40.7518083" lon="14.8845783"><ele>284.0</ele><time>2026-04-25T07:54:42.022Z</time></trkpt><trkpt lat="40.751875" lon="14.8847483"><ele>284.0</ele><time>2026-04-25T07:54:44.059Z</time></trkpt><trkpt lat="40.7519417" lon="14.884795"><ele>284.0</ele><time>2026-04-25T07:54:45.026Z</time></trkpt><trkpt lat="40.7520133" lon="14.884815"><ele>284.0</ele><time>2026-04-25T07:54:46.023Z</time></trkpt><trkpt lat="40.7520967" lon="14.884815"><ele>285.2</ele><time>2026-04-25T07:54:47.024Z</time></trkpt><trkpt lat="40.75218" lon="14.884805"><ele>286.4</ele><time>2026-04-25T07:54:48.021Z</time></trkpt><trkpt lat="40.7522817" lon="14.884785"><ele>287.6</ele><time>2026-04-25T07:54:49.022Z</time></trkpt><trkpt lat="40.7523817" lon="14.8847733"><ele>288.8</ele><time>2026-04-25T07:54:50.055Z</time></trkpt><trkpt lat="40.752475" lon="14.8847767"><ele>290.0</ele><time>2026-04-25T07:54:51.017Z</time></trkpt><trkpt lat="40.7525583" lon="14.8847967"><ele>290.0</ele><time>2026-04-25T07:54:52.028Z</time></trkpt><trkpt lat="40.7526267" lon="14.88485"><ele>290.0</ele><time>2026-04-25T07:54:53.029Z</time></trkpt><trkpt lat="40.7527017" lon="14.8848833"><ele>290.0</ele><time>2026-04-25T07:54:54.016Z</time></trkpt><trkpt lat="40.7527867" lon="14.88491"><ele>290.0</ele><time>2026-04-25T07:54:55.025Z</time></trkpt><trkpt lat="40.7528917" lon="14.88486"><ele>290.0</ele><time>2026-04-25T07:54:56.086Z</time></trkpt><trkpt lat="40.752985" lon="14.8848117"><ele>295.25</ele><time>2026-04-25T07:54:57.021Z</time></trkpt><trkpt lat="40.7530933" lon="14.8847317"><ele>300.5</ele><time>2026-04-25T07:54:58.02Z</time></trkpt><trkpt lat="40.7532" lon="14.8846333"><ele>305.75</ele><time>2026-04-25T07:54:59.024Z</time></trkpt><trkpt lat="40.753305" lon="14.8845567"><ele>311.0</ele><time>2026-04-25T07:55:00.016Z</time></trkpt><trkpt lat="40.7534133" lon="14.8844917"><ele>311.0</ele><time>2026-04-25T07:55:01.019Z</time></trkpt><trkpt lat="40.7535267" lon="14.8844383"><ele>311.0</ele><time>2026-04-25T07:55:02.043Z</time></trkpt><trkpt lat="40.753645" lon="14.88438"><ele>311.0</ele><time>2026-04-25T07:55:03.016Z</time></trkpt><trkpt lat="40.7537567" lon="14.8843033"><ele>311.0</ele><time>2026-04-25T07:55:04.031Z</time></trkpt><trkpt lat="40.7538483" lon="14.8842067"><ele>310.75</ele><time>2026-04-25T07:55:05.016Z</time></trkpt><trkpt lat="40.7539417" lon="14.8841117"><ele>310.5</ele><time>2026-04-25T07:55:06.022Z</time></trkpt><trkpt lat="40.7540417" lon="14.884025"><ele>310.25</ele><time>2026-04-25T07:55:07.025Z</time></trkpt><trkpt lat="40.7541417" lon="14.8839367"><ele>310.0</ele><time>2026-04-25T07:55:08.049Z</time></trkpt><trkpt lat="40.754245" lon="14.8838583"><ele>310.0</ele><time>2026-04-25T07:55:09.013Z</time></trkpt><trkpt lat="40.7543483" lon="14.88378"><ele>310.0</ele><time>2026-04-25T07:55:10.015Z</time></trkpt><trkpt lat="40.754455" lon="14.883715"><ele>310.0</ele><time>2026-04-25T07:55:11.019Z</time></trkpt><trkpt lat="40.7545617" lon="14.883655"><ele>310.0</ele><time>2026-04-25T07:55:12.023Z</time></trkpt><trkpt lat="40.7546583" lon="14.8835833"><ele>310.0</ele><time>2026-04-25T07:55:13.027Z</time></trkpt><trkpt lat="40.7547367" lon="14.8835317"><ele>310.0</ele><time>2026-04-25T07:55:14.054Z</time></trkpt><trkpt lat="40.7548083" lon="14.8835017"><ele>310.0</ele><time>2026-04-25T07:55:15.023Z</time></trkpt><trkpt lat="40.754895" lon="14.883475"><ele>310.0</ele><time>2026-04-25T07:55:16.02Z</time></trkpt><trkpt lat="40.754985" lon="14.8834333"><ele>310.0</ele><time>2026-04-25T07:55:17.02Z</time></trkpt><trkpt lat="40.7550883" lon="14.8833967"><ele>310.0</ele><time>2026-04-25T07:55:18.015Z</time></trkpt><trkpt lat="40.7552033" lon="14.883345"><ele>310.0</ele><time>2026-04-25T07:55:19.016Z</time></trkpt><trkpt lat="40.7553217" lon="14.8833"><ele>310.0</ele><time>2026-04-25T07:55:20.056Z</time></trkpt><trkpt lat="40.7554333" lon="14.883255"><ele>310.0</ele><time>2026-04-25T07:55:21.028Z</time></trkpt><trkpt lat="40.7555367" lon="14.8831767"><ele>312.6</ele><time>2026-04-25T07:55:22.017Z</time></trkpt><trkpt lat="40.7556317" lon="14.883105"><ele>315.2</ele><time>2026-04-25T07:55:23.02Z</time></trkpt><trkpt lat="40.7557233" lon="14.8830483"><ele>317.79999999999995</ele><time>2026-04-25T07:55:24.021Z</time></trkpt><trkpt lat="40.7558133" lon="14.8830183"><ele>320.4</ele><time>2026-04-25T07:55:25.025Z</time></trkpt><trkpt lat="40.7558883" lon="14.8829867"><ele>323.0</ele><time>2026-04-25T07:55:26.063Z</time></trkpt><trkpt lat="40.7559483" lon="14.8829433"><ele>323.0</ele><time>2026-04-25T07:55:27.038Z</time></trkpt><trkpt lat="40.75597" lon="14.882805"><ele>323.0</ele><time>2026-04-25T07:55:28.022Z</time></trkpt><trkpt lat="40.756005" lon="14.8826783"><ele>323.0</ele><time>2026-04-25T07:55:29.022Z</time></trkpt><trkpt lat="40.756035" lon="14.8825483"><ele>323.0</ele><time>2026-04-25T07:55:30.026Z</time></trkpt><trkpt lat="40.7560633" lon="14.8824333"><ele>323.0</ele><time>2026-04-25T07:55:31.026Z</time></trkpt><trkpt lat="40.7561233" lon="14.882335"><ele>321.59999999999997</ele><time>2026-04-25T07:55:32.066Z</time></trkpt><trkpt lat="40.7562133" lon="14.8822483"><ele>320.2</ele><time>2026-04-25T07:55:33.019Z</time></trkpt><trkpt lat="40.756305" lon="14.8821683"><ele>318.8</ele><time>2026-04-25T07:55:34.02Z</time></trkpt><trkpt lat="40.7563983" lon="14.88211"><ele>317.4</ele><time>2026-04-25T07:55:35.018Z</time></trkpt><trkpt lat="40.7565033" lon="14.8820817"><ele>316.0</ele><time>2026-04-25T07:55:36.022Z</time></trkpt><trkpt lat="40.756605" lon="14.88205"><ele>316.0</ele><time>2026-04-25T07:55:37.025Z</time></trkpt><trkpt lat="40.7567283" lon="14.8820433"><ele>316.0</ele><time>2026-04-25T07:55:38.06Z</time></trkpt><trkpt lat="40.7568517" lon="14.882035"><ele>316.0</ele><time>2026-04-25T07:55:39.021Z</time></trkpt><trkpt lat="40.7569667" lon="14.8820317"><ele>316.0</ele><time>2026-04-25T07:55:40.02Z</time></trkpt><trkpt lat="40.7570683" lon="14.8820267"><ele>317.4</ele><time>2026-04-25T07:55:41.028Z</time></trkpt><trkpt lat="40.757175" lon="14.88203"><ele>318.8</ele><time>2026-04-25T07:55:42.022Z</time></trkpt><trkpt lat="40.7572767" lon="14.88206"><ele>320.2</ele><time>2026-04-25T07:55:43.033Z</time></trkpt><trkpt lat="40.757385" lon="14.882105"><ele>321.59999999999997</ele><time>2026-04-25T07:55:44.056Z</time></trkpt><trkpt lat="40.7574917" lon="14.8821767"><ele>323.0</ele><time>2026-04-25T07:55:45.025Z</time></trkpt><trkpt lat="40.7576067" lon="14.8822467"><ele>324.59999999999997</ele><time>2026-04-25T07:55:46.022Z</time></trkpt><trkpt lat="40.7577217" lon="14.8822867"><ele>326.2</ele><time>2026-04-25T07:55:47.027Z</time></trkpt><trkpt lat="40.7578283" lon="14.8823117"><ele>327.8</ele><time>2026-04-25T07:55:48.018Z</time></trkpt><trkpt lat="40.7579367" lon="14.8823033"><ele>329.4</ele><time>2026-04-25T07:55:49.023Z</time></trkpt><trkpt lat="40.75804" lon="14.88229"><ele>331.0</ele><time>2026-04-25T07:55:50.058Z</time></trkpt><trkpt lat="40.75814" lon="14.882295"><ele>331.0</ele><time>2026-04-25T07:55:51.028Z</time></trkpt><trkpt lat="40.7582383" lon="14.882325"><ele>331.0</ele><time>2026-04-25T07:55:52.018Z</time></trkpt><trkpt lat="40.7583367" lon="14.8823733"><ele>331.0</ele><time>2026-04-25T07:55:53.025Z</time></trkpt><trkpt lat="40.75843" lon="14.8824167"><ele>331.0</ele><time>2026-04-25T07:55:54.019Z</time></trkpt><trkpt lat="40.75852" lon="14.8824417"><ele>331.0</ele><time>2026-04-25T07:55:55.024Z</time></trkpt><trkpt lat="40.7585933" lon="14.8824633"><ele>332.4</ele><time>2026-04-25T07:55:56.069Z</time></trkpt><trkpt lat="40.7586683" lon="14.8824767"><ele>333.8</ele><time>2026-04-25T07:55:57.015Z</time></trkpt><trkpt lat="40.758745" lon="14.8824667"><ele>335.2</ele><time>2026-04-25T07:55:58.021Z</time></trkpt><trkpt lat="40.7588267" lon="14.8824483"><ele>336.59999999999997</ele><time>2026-04-25T07:55:59.027Z</time></trkpt><trkpt lat="40.75889" lon="14.8822933"><ele>338.0</ele><time>2026-04-25T07:56:00.031Z</time></trkpt><trkpt lat="40.7589333" lon="14.882155"><ele>338.0</ele><time>2026-04-25T07:56:01.022Z</time></trkpt><trkpt lat="40.7589933" lon="14.8820933"><ele>338.0</ele><time>2026-04-25T07:56:02.066Z</time></trkpt><trkpt lat="40.7590583" lon="14.8820267"><ele>338.0</ele><time>2026-04-25T07:56:03.019Z</time></trkpt><trkpt lat="40.75913" lon="14.8819833"><ele>338.0</ele><time>2026-04-25T07:56:04.012Z</time></trkpt><trkpt lat="40.7591883" lon="14.881925"><ele>338.0</ele><time>2026-04-25T07:56:05.02Z</time></trkpt><trkpt lat="40.759245" lon="14.881845"><ele>338.0</ele><time>2026-04-25T07:56:06.025Z</time></trkpt><trkpt lat="40.7592967" lon="14.8817783"><ele>340.0</ele><time>2026-04-25T07:56:07.02Z</time></trkpt><trkpt lat="40.7593467" lon="14.8817267"><ele>342.0</ele><time>2026-04-25T07:56:08.061Z</time></trkpt><trkpt lat="40.759445" lon="14.881705"><ele>344.0</ele><time>2026-04-25T07:56:10.019Z</time></trkpt><trkpt lat="40.7595083" lon="14.8817617"><ele>346.0</ele><time>2026-04-25T07:56:11.025Z</time></trkpt><trkpt lat="40.7595717" lon="14.8818333"><ele>348.0</ele><time>2026-04-25T07:56:12.019Z</time></trkpt><trkpt lat="40.7596917" lon="14.88187"><ele>350.0</ele><time>2026-04-25T07:56:14.06Z</time></trkpt><trkpt lat="40.7597567" lon="14.8818517"><ele>350.0</ele><time>2026-04-25T07:56:15.022Z</time></trkpt><trkpt lat="40.7598167" lon="14.8817883"><ele>350.0</ele><time>2026-04-25T07:56:16.018Z</time></trkpt><trkpt lat="40.7598833" lon="14.881695"><ele>350.0</ele><time>2026-04-25T07:56:17.027Z</time></trkpt><trkpt lat="40.7599417" lon="14.8816067"><ele>350.0</ele><time>2026-04-25T07:56:18.021Z</time></trkpt><trkpt lat="40.7599983" lon="14.881505"><ele>350.0</ele><time>2026-04-25T07:56:19.021Z</time></trkpt><trkpt lat="40.7600617" lon="14.8814233"><ele>350.0</ele><time>2026-04-25T07:56:20.059Z</time></trkpt><trkpt lat="40.76011" lon="14.8813367"><ele>350.0</ele><time>2026-04-25T07:56:21.022Z</time></trkpt><trkpt lat="40.76016" lon="14.8814267"><ele>350.0</ele><time>2026-04-25T07:56:25.022Z</time></trkpt><trkpt lat="40.760125" lon="14.8815467"><ele>350.0</ele><time>2026-04-25T07:56:26.065Z</time></trkpt><trkpt lat="40.7600967" lon="14.881665"><ele>350.0</ele><time>2026-04-25T07:56:27.023Z</time></trkpt><trkpt lat="40.7600717" lon="14.8817667"><ele>350.0</ele><time>2026-04-25T07:56:28.018Z</time></trkpt><trkpt lat="40.7600883" lon="14.8818683"><ele>350.0</ele><time>2026-04-25T07:56:29.024Z</time></trkpt><trkpt lat="40.7601017" lon="14.8819567"><ele>350.0</ele><time>2026-04-25T07:56:30.014Z</time></trkpt><trkpt lat="40.7601367" lon="14.8820583"><ele>350.0</ele><time>2026-04-25T07:56:31.016Z</time></trkpt><trkpt lat="40.7601883" lon="14.8821483"><ele>350.0</ele><time>2026-04-25T07:56:32.046Z</time></trkpt><trkpt lat="40.76026" lon="14.8822"><ele>350.0</ele><time>2026-04-25T07:56:33.022Z</time></trkpt><trkpt lat="40.76035" lon="14.8821983"><ele>350.0</ele><time>2026-04-25T07:56:34.021Z</time></trkpt><trkpt lat="40.7604517" lon="14.8821833"><ele>350.0</ele><time>2026-04-25T07:56:35.027Z</time></trkpt><trkpt lat="40.7605433" lon="14.8821467"><ele>351.0</ele><time>2026-04-25T07:56:36.02Z</time></trkpt><trkpt lat="40.7606117" lon="14.8821033"><ele>352.0</ele><time>2026-04-25T07:56:37.029Z</time></trkpt><trkpt lat="40.7606917" lon="14.882055"><ele>353.0</ele><time>2026-04-25T07:56:38.055Z</time></trkpt><trkpt lat="40.7608167" lon="14.8820683"><ele>354.0</ele><time>2026-04-25T07:56:40.014Z</time></trkpt><trkpt lat="40.7608467" lon="14.8821717"><ele>355.0</ele><time>2026-04-25T07:56:41.023Z</time></trkpt><trkpt lat="40.7608667" lon="14.8822633"><ele>356.0</ele><time>2026-04-25T07:56:42.019Z</time></trkpt><trkpt lat="40.760955" lon="14.8823783"><ele>358.8</ele><time>2026-04-25T07:56:44.057Z</time></trkpt><trkpt lat="40.7610333" lon="14.882425"><ele>361.6</ele><time>2026-04-25T07:56:45.02Z</time></trkpt><trkpt lat="40.7611133" lon="14.8824583"><ele>364.4</ele><time>2026-04-25T07:56:46.022Z</time></trkpt><trkpt lat="40.7612117" lon="14.8824667"><ele>367.2</ele><time>2026-04-25T07:56:47.024Z</time></trkpt><trkpt lat="40.76129" lon="14.8824633"><ele>370.0</ele><time>2026-04-25T07:56:48.014Z</time></trkpt><trkpt lat="40.7613933" lon="14.8824817"><ele>370.0</ele><time>2026-04-25T07:56:50.047Z</time></trkpt><trkpt lat="40.7614667" lon="14.882555"><ele>370.0</ele><time>2026-04-25T07:56:52.016Z</time></trkpt><trkpt lat="40.7615717" lon="14.8826533"><ele>370.0</ele><time>2026-04-25T07:56:54.024Z</time></trkpt><trkpt lat="40.76164" lon="14.8826767"><ele>370.0</ele><time>2026-04-25T07:56:55.027Z</time></trkpt><trkpt lat="40.76173" lon="14.8826383"><ele>370.0</ele><time>2026-04-25T07:56:56.069Z</time></trkpt><trkpt lat="40.7618417" lon="14.882635"><ele>372.0</ele><time>2026-04-25T07:56:58.018Z</time></trkpt><trkpt lat="40.761905" lon="14.8826633"><ele>374.0</ele><time>2026-04-25T07:56:59.015Z</time></trkpt><trkpt lat="40.7619717" lon="14.882705"><ele>376.0</ele><time>2026-04-25T07:57:00.011Z</time></trkpt><trkpt lat="40.7620633" lon="14.8827667"><ele>378.0</ele><time>2026-04-25T07:57:01.012Z</time></trkpt><trkpt lat="40.7621633" lon="14.8828183"><ele>380.0</ele><time>2026-04-25T07:57:02.067Z</time></trkpt><trkpt lat="40.762265" lon="14.8828683"><ele>380.0</ele><time>2026-04-25T07:57:03.021Z</time></trkpt><trkpt lat="40.7623617" lon="14.882915"><ele>380.0</ele><time>2026-04-25T07:57:04.02Z</time></trkpt><trkpt lat="40.7624433" lon="14.8829583"><ele>380.0</ele><time>2026-04-25T07:57:05.025Z</time></trkpt><trkpt lat="40.7625167" lon="14.8830067"><ele>380.0</ele><time>2026-04-25T07:57:06.017Z</time></trkpt><trkpt lat="40.7625983" lon="14.8831"><ele>380.0</ele><time>2026-04-25T07:57:08.055Z</time></trkpt><trkpt lat="40.762575" lon="14.883225"><ele>380.0</ele><time>2026-04-25T07:57:10.016Z</time></trkpt><trkpt lat="40.76232" lon="14.883305"><ele>380.0</ele><time>2026-04-25T07:57:11.02Z</time></trkpt><trkpt lat="40.7621867" lon="14.88338"><ele>380.0</ele><time>2026-04-25T07:57:12.02Z</time></trkpt><trkpt lat="40.7620917" lon="14.8834317"><ele>384.8</ele><time>2026-04-25T07:57:13.022Z</time></trkpt><trkpt lat="40.762" lon="14.8834817"><ele>389.6</ele><time>2026-04-25T07:57:14.058Z</time></trkpt><trkpt lat="40.7618983" lon="14.8835"><ele>394.4</ele><time>2026-04-25T07:57:15.028Z</time></trkpt><trkpt lat="40.7618033" lon="14.8834917"><ele>399.2</ele><time>2026-04-25T07:57:16.021Z</time></trkpt><trkpt lat="40.761695" lon="14.88347"><ele>404.0</ele><time>2026-04-25T07:57:17.02Z</time></trkpt><trkpt lat="40.761585" lon="14.8834817"><ele>404.0</ele><time>2026-04-25T07:57:18.019Z</time></trkpt><trkpt lat="40.76147" lon="14.8834883"><ele>404.0</ele><time>2026-04-25T07:57:19.013Z</time></trkpt><trkpt lat="40.761355" lon="14.8834883"><ele>404.0</ele><time>2026-04-25T07:57:20.05Z</time></trkpt><trkpt lat="40.7612483" lon="14.8834683"><ele>404.0</ele><time>2026-04-25T07:57:21.018Z</time></trkpt><trkpt lat="40.7611583" lon="14.8834567"><ele>404.0</ele><time>2026-04-25T07:57:22.017Z</time></trkpt><trkpt lat="40.7610883" lon="14.8834383"><ele>406.0</ele><time>2026-04-25T07:57:23.019Z</time></trkpt><trkpt lat="40.7609817" lon="14.88346"><ele>408.0</ele><time>2026-04-25T07:57:25.014Z</time></trkpt><trkpt lat="40.760925" lon="14.8835267"><ele>410.0</ele><time>2026-04-25T07:57:27.015Z</time></trkpt><trkpt lat="40.7608233" lon="14.8835767"><ele>412.0</ele><time>2026-04-25T07:57:29.015Z</time></trkpt><trkpt lat="40.76075" lon="14.88362"><ele>414.0</ele><time>2026-04-25T07:57:30.017Z</time></trkpt><trkpt lat="40.7606733" lon="14.8836617"><ele>414.0</ele><time>2026-04-25T07:57:31.019Z</time></trkpt><trkpt lat="40.760585" lon="14.883695"><ele>414.0</ele><time>2026-04-25T07:57:32.065Z</time></trkpt><trkpt lat="40.7604917" lon="14.8837417"><ele>414.0</ele><time>2026-04-25T07:57:33.024Z</time></trkpt><trkpt lat="40.7604017" lon="14.8837967"><ele>414.0</ele><time>2026-04-25T07:57:34.018Z</time></trkpt><trkpt lat="40.7603133" lon="14.8838417"><ele>414.0</ele><time>2026-04-25T07:57:35.017Z</time></trkpt><trkpt lat="40.7602233" lon="14.8838783"><ele>413.2</ele><time>2026-04-25T07:57:36.016Z</time></trkpt><trkpt lat="40.76013" lon="14.883905"><ele>412.4</ele><time>2026-04-25T07:57:37.021Z</time></trkpt><trkpt lat="40.76002" lon="14.8839133"><ele>411.6</ele><time>2026-04-25T07:57:38.053Z</time></trkpt><trkpt lat="40.7599317" lon="14.8839333"><ele>410.8</ele><time>2026-04-25T07:57:39.012Z</time></trkpt><trkpt lat="40.7598383" lon="14.883945"><ele>410.0</ele><time>2026-04-25T07:57:40.019Z</time></trkpt><trkpt lat="40.75974" lon="14.88397"><ele>410.0</ele><time>2026-04-25T07:57:41.012Z</time></trkpt><trkpt lat="40.7596367" lon="14.884"><ele>410.0</ele><time>2026-04-25T07:57:42.025Z</time></trkpt><trkpt lat="40.759535" lon="14.884045"><ele>410.0</ele><time>2026-04-25T07:57:43.021Z</time></trkpt><trkpt lat="40.7594367" lon="14.8841067"><ele>410.0</ele><time>2026-04-25T07:57:44.053Z</time></trkpt><trkpt lat="40.7593417" lon="14.8841767"><ele>410.0</ele><time>2026-04-25T07:57:45.017Z</time></trkpt><trkpt lat="40.75924" lon="14.8842383"><ele>415.75</ele><time>2026-04-25T07:57:46.019Z</time></trkpt><trkpt lat="40.7591317" lon="14.8842933"><ele>421.5</ele><time>2026-04-25T07:57:47.021Z</time></trkpt><trkpt lat="40.7590083" lon="14.8843383"><ele>427.25</ele><time>2026-04-25T07:57:48.015Z</time></trkpt><trkpt lat="40.7588683" lon="14.8843883"><ele>433.0</ele><time>2026-04-25T07:57:49.038Z</time></trkpt><trkpt lat="40.7587217" lon="14.8844583"><ele>433.0</ele><time>2026-04-25T07:57:50.056Z</time></trkpt><trkpt lat="40.7585783" lon="14.88452"><ele>433.0</ele><time>2026-04-25T07:57:51.018Z</time></trkpt><trkpt lat="40.7584383" lon="14.88458"><ele>433.0</ele><time>2026-04-25T07:57:52.017Z</time></trkpt><trkpt lat="40.7583" lon="14.8846317"><ele>433.0</ele><time>2026-04-25T07:57:53.022Z</time></trkpt><trkpt lat="40.7581717" lon="14.8846817"><ele>432.79999999999995</ele><time>2026-04-25T07:57:54.023Z</time></trkpt><trkpt lat="40.7580617" lon="14.8847317"><ele>432.59999999999997</ele><time>2026-04-25T07:57:55.021Z</time></trkpt><trkpt lat="40.757965" lon="14.88479"><ele>432.40000000000003</ele><time>2026-04-25T07:57:56.091Z</time></trkpt><trkpt lat="40.7578733" lon="14.8848317"><ele>432.20000000000005</ele><time>2026-04-25T07:57:57.019Z</time></trkpt><trkpt lat="40.7577833" lon="14.88483"><ele>432.0</ele><time>2026-04-25T07:57:58.018Z</time></trkpt><trkpt lat="40.757685" lon="14.88474"><ele>432.0</ele><time>2026-04-25T07:57:59.016Z</time></trkpt><trkpt lat="40.75756" lon="14.8846783"><ele>432.0</ele><time>2026-04-25T07:58:00.02Z</time></trkpt><trkpt lat="40.757425" lon="14.8846267"><ele>432.0</ele><time>2026-04-25T07:58:01.019Z</time></trkpt><trkpt lat="40.757305" lon="14.88457"><ele>432.0</ele><time>2026-04-25T07:58:02.068Z</time></trkpt><trkpt lat="40.7571917" lon="14.88452"><ele>432.0</ele><time>2026-04-25T07:58:03.022Z</time></trkpt><trkpt lat="40.75708" lon="14.8844967"><ele>432.0</ele><time>2026-04-25T07:58:04.022Z</time></trkpt><trkpt lat="40.7569633" lon="14.8845133"><ele>432.0</ele><time>2026-04-25T07:58:05.021Z</time></trkpt><trkpt lat="40.756855" lon="14.88452"><ele>432.0</ele><time>2026-04-25T07:58:06.023Z</time></trkpt><trkpt lat="40.7567383" lon="14.88454"><ele>429.75</ele><time>2026-04-25T07:58:07.026Z</time></trkpt><trkpt lat="40.7566183" lon="14.8845733"><ele>427.5</ele><time>2026-04-25T07:58:08.058Z</time></trkpt><trkpt lat="40.7565033" lon="14.8846167"><ele>425.25</ele><time>2026-04-25T07:58:09.023Z</time></trkpt><trkpt lat="40.7563917" lon="14.88467"><ele>423.0</ele><time>2026-04-25T07:58:10.025Z</time></trkpt><trkpt lat="40.75628" lon="14.884725"><ele>423.0</ele><time>2026-04-25T07:58:11.034Z</time></trkpt><trkpt lat="40.756175" lon="14.8848067"><ele>423.0</ele><time>2026-04-25T07:58:12.025Z</time></trkpt><trkpt lat="40.7560883" lon="14.8848667"><ele>423.0</ele><time>2026-04-25T07:58:13.029Z</time></trkpt><trkpt lat="40.75602" lon="14.88493"><ele>423.0</ele><time>2026-04-25T07:58:14.055Z</time></trkpt><trkpt lat="40.7559667" lon="14.8849967"><ele>423.0</ele><time>2026-04-25T07:58:15.021Z</time></trkpt><trkpt lat="40.7559783" lon="14.8850867"><ele>423.0</ele><time>2026-04-25T07:58:16.016Z</time></trkpt><trkpt lat="40.7559817" lon="14.8851767"><ele>422.6666666666667</ele><time>2026-04-25T07:58:17.02Z</time></trkpt><trkpt lat="40.7560133" lon="14.885255"><ele>422.33333333333337</ele><time>2026-04-25T07:58:18.022Z</time></trkpt><trkpt lat="40.7560567" lon="14.88534"><ele>422.0</ele><time>2026-04-25T07:58:19.029Z</time></trkpt><trkpt lat="40.7561233" lon="14.88543"><ele>421.6666666666667</ele><time>2026-04-25T07:58:20.06Z</time></trkpt><trkpt lat="40.7562033" lon="14.8855117"><ele>421.33333333333337</ele><time>2026-04-25T07:58:21.023Z</time></trkpt><trkpt lat="40.7562833" lon="14.88559"><ele>421.0</ele><time>2026-04-25T07:58:22.019Z</time></trkpt><trkpt lat="40.75635" lon="14.8857017"><ele>421.0</ele><time>2026-04-25T07:58:23.022Z</time></trkpt><trkpt lat="40.7564267" lon="14.8858133"><ele>421.0</ele><time>2026-04-25T07:58:24.019Z</time></trkpt><trkpt lat="40.7565183" lon="14.88593"><ele>421.0</ele><time>2026-04-25T07:58:25.029Z</time></trkpt><trkpt lat="40.756605" lon="14.8860367"><ele>421.0</ele><time>2026-04-25T07:58:26.046Z</time></trkpt><trkpt lat="40.7566333" lon="14.8861583"><ele>420.33333333333337</ele><time>2026-04-25T07:58:27.024Z</time></trkpt><trkpt lat="40.7566467" lon="14.8862883"><ele>419.6666666666667</ele><time>2026-04-25T07:58:28.024Z</time></trkpt><trkpt lat="40.756655" lon="14.886405"><ele>419.0</ele><time>2026-04-25T07:58:29.023Z</time></trkpt><trkpt lat="40.756645" lon="14.8865033"><ele>418.33333333333337</ele><time>2026-04-25T07:58:30.022Z</time></trkpt><trkpt lat="40.756605" lon="14.8865817"><ele>417.6666666666667</ele><time>2026-04-25T07:58:31.02Z</time></trkpt><trkpt lat="40.7565383" lon="14.88651"><ele>417.0</ele><time>2026-04-25T07:58:32.059Z</time></trkpt><trkpt lat="40.75646" lon="14.8864883"><ele>417.0</ele><time>2026-04-25T07:58:33.016Z</time></trkpt><trkpt lat="40.7563867" lon="14.8865"><ele>417.0</ele><time>2026-04-25T07:58:34.026Z</time></trkpt><trkpt lat="40.7563167" lon="14.8865483"><ele>417.0</ele><time>2026-04-25T07:58:35.024Z</time></trkpt><trkpt lat="40.75624" lon="14.8866333"><ele>417.0</ele><time>2026-04-25T07:58:36.025Z</time></trkpt><trkpt lat="40.7561567" lon="14.8867117"><ele>417.0</ele><time>2026-04-25T07:58:37.019Z</time></trkpt><trkpt lat="40.7560717" lon="14.886795"><ele>418.40000000000003</ele><time>2026-04-25T07:58:38.054Z</time></trkpt><trkpt lat="40.7559767" lon="14.8868467"><ele>419.8</ele><time>2026-04-25T07:58:39.021Z</time></trkpt><trkpt lat="40.7558767" lon="14.8868817"><ele>421.2</ele><time>2026-04-25T07:58:40.024Z</time></trkpt><trkpt lat="40.75577" lon="14.8868917"><ele>422.6</ele><time>2026-04-25T07:58:41.018Z</time></trkpt><trkpt lat="40.75569" lon="14.88691"><ele>424.0</ele><time>2026-04-25T07:58:42.02Z</time></trkpt><trkpt lat="40.7556167" lon="14.8869367"><ele>424.00000000000006</ele><time>2026-04-25T07:58:43.019Z</time></trkpt><trkpt lat="40.7555583" lon="14.8869733"><ele>424.0</ele><time>2026-04-25T07:58:44.06Z</time></trkpt><trkpt lat="40.7555217" lon="14.8870983"><ele>424.0</ele><time>2026-04-25T07:58:46.032Z</time></trkpt><trkpt lat="40.7555767" lon="14.887225"><ele>424.0</ele><time>2026-04-25T07:58:48.023Z</time></trkpt><trkpt lat="40.75563" lon="14.8873133"><ele>424.00000000000006</ele><time>2026-04-25T07:58:49.028Z</time></trkpt><trkpt lat="40.7556733" lon="14.8874083"><ele>424.0</ele><time>2026-04-25T07:58:50.052Z</time></trkpt><trkpt lat="40.7557317" lon="14.8875167"><ele>424.0</ele><time>2026-04-25T07:58:52.022Z</time></trkpt><trkpt lat="40.7557083" lon="14.88761"><ele>424.0</ele><time>2026-04-25T07:58:54.013Z</time></trkpt><trkpt lat="40.7555867" lon="14.8876083"><ele>424.0</ele><time>2026-04-25T07:58:56.078Z</time></trkpt><trkpt lat="40.7554533" lon="14.8875883"><ele>424.0</ele><time>2026-04-25T07:58:57.02Z</time></trkpt><trkpt lat="40.755305" lon="14.8875533"><ele>423.0</ele><time>2026-04-25T07:58:58.021Z</time></trkpt><trkpt lat="40.7551733" lon="14.88754"><ele>422.0</ele><time>2026-04-25T07:58:59.013Z</time></trkpt><trkpt lat="40.75505" lon="14.8875383"><ele>421.0</ele><time>2026-04-25T07:59:00.018Z</time></trkpt><trkpt lat="40.75493" lon="14.8875483"><ele>420.0</ele><time>2026-04-25T07:59:01.024Z</time></trkpt><trkpt lat="40.7548183" lon="14.8875517"><ele>420.0</ele><time>2026-04-25T07:59:02.062Z</time></trkpt><trkpt lat="40.754715" lon="14.8875433"><ele>420.0</ele><time>2026-04-25T07:59:03.016Z</time></trkpt><trkpt lat="40.75461" lon="14.8875283"><ele>420.0</ele><time>2026-04-25T07:59:04.024Z</time></trkpt><trkpt lat="40.754495" lon="14.8875067"><ele>420.0</ele><time>2026-04-25T07:59:05.023Z</time></trkpt><trkpt lat="40.754375" lon="14.8875017"><ele>420.0</ele><time>2026-04-25T07:59:06.026Z</time></trkpt><trkpt lat="40.7542483" lon="14.887495"><ele>418.75</ele><time>2026-04-25T07:59:07.022Z</time></trkpt><trkpt lat="40.754125" lon="14.8875"><ele>417.5</ele><time>2026-04-25T07:59:08.049Z</time></trkpt><trkpt lat="40.7540017" lon="14.8875067"><ele>416.25</ele><time>2026-04-25T07:59:09.023Z</time></trkpt><trkpt lat="40.7538667" lon="14.8875283"><ele>415.0</ele><time>2026-04-25T07:59:10.022Z</time></trkpt><trkpt lat="40.7537333" lon="14.8875467"><ele>415.0</ele><time>2026-04-25T07:59:11.03Z</time></trkpt><trkpt lat="40.7536033" lon="14.8875717"><ele>415.0</ele><time>2026-04-25T07:59:12.02Z</time></trkpt><trkpt lat="40.7534967" lon="14.887585"><ele>415.0</ele><time>2026-04-25T07:59:13.022Z</time></trkpt><trkpt lat="40.7534017" lon="14.8875917"><ele>415.0</ele><time>2026-04-25T07:59:14.053Z</time></trkpt><trkpt lat="40.7533317" lon="14.8875867"><ele>415.0</ele><time>2026-04-25T07:59:15.017Z</time></trkpt><trkpt lat="40.7532683" lon="14.8875117"><ele>413.6666666666667</ele><time>2026-04-25T07:59:30.022Z</time></trkpt><trkpt lat="40.7531867" lon="14.8875"><ele>412.33333333333337</ele><time>2026-04-25T07:59:33.021Z</time></trkpt><trkpt lat="40.7530917" lon="14.8875167"><ele>411.0</ele><time>2026-04-25T07:59:36.017Z</time></trkpt><trkpt lat="40.7529733" lon="14.8875383"><ele>409.66666666666663</ele><time>2026-04-25T07:59:38.025Z</time></trkpt><trkpt lat="40.75291" lon="14.887545"><ele>408.3333333333333</ele><time>2026-04-25T07:59:39.025Z</time></trkpt><trkpt lat="40.7528383" lon="14.887535"><ele>407.0</ele><time>2026-04-25T07:59:40.016Z</time></trkpt><trkpt lat="40.7527583" lon="14.88752"><ele>404.8</ele><time>2026-04-25T07:59:41.017Z</time></trkpt><trkpt lat="40.752675" lon="14.88751"><ele>402.6</ele><time>2026-04-25T07:59:42.019Z</time></trkpt><trkpt lat="40.7525883" lon="14.8875017"><ele>400.40000000000003</ele><time>2026-04-25T07:59:43.027Z</time></trkpt><trkpt lat="40.7524917" lon="14.8874933"><ele>398.20000000000005</ele><time>2026-04-25T07:59:44.023Z</time></trkpt><trkpt lat="40.75238" lon="14.8875083"><ele>396.0</ele><time>2026-04-25T07:59:45.022Z</time></trkpt><trkpt lat="40.7522633" lon="14.88753"><ele>396.0</ele><time>2026-04-25T07:59:46.018Z</time></trkpt><trkpt lat="40.75216" lon="14.88755"><ele>396.0</ele><time>2026-04-25T07:59:47.014Z</time></trkpt><trkpt lat="40.7520817" lon="14.8875667"><ele>396.0</ele><time>2026-04-25T07:59:48.026Z</time></trkpt><trkpt lat="40.7520183" lon="14.8876183"><ele>396.0</ele><time>2026-04-25T07:59:50.017Z</time></trkpt><trkpt lat="40.7520233" lon="14.8877017"><ele>396.0</ele><time>2026-04-25T07:59:52.024Z</time></trkpt><trkpt lat="40.7521517" lon="14.8877967"><ele>392.0</ele><time>2026-04-25T07:59:54.024Z</time></trkpt><trkpt lat="40.752255" lon="14.8878383"><ele>388.0</ele><time>2026-04-25T07:59:55.016Z</time></trkpt><trkpt lat="40.7523633" lon="14.8878583"><ele>384.0</ele><time>2026-04-25T07:59:56.085Z</time></trkpt><trkpt lat="40.7524633" lon="14.8878767"><ele>380.0</ele><time>2026-04-25T07:59:57.017Z</time></trkpt><trkpt lat="40.7525633" lon="14.8878983"><ele>376.0</ele><time>2026-04-25T07:59:58.022Z</time></trkpt><trkpt lat="40.75266" lon="14.887935"><ele>378.8</ele><time>2026-04-25T07:59:59.023Z</time></trkpt><trkpt lat="40.7527517" lon="14.8879817"><ele>381.6</ele><time>2026-04-25T08:00:00.027Z</time></trkpt><trkpt lat="40.75284" lon="14.8880483"><ele>384.4</ele><time>2026-04-25T08:00:01.024Z</time></trkpt><trkpt lat="40.7529183" lon="14.8881167"><ele>387.2</ele><time>2026-04-25T08:00:02.042Z</time></trkpt><trkpt lat="40.7529983" lon="14.8881783"><ele>390.0</ele><time>2026-04-25T08:00:03.014Z</time></trkpt><trkpt lat="40.753085" lon="14.8882317"><ele>390.0</ele><time>2026-04-25T08:00:04.019Z</time></trkpt><trkpt lat="40.7531767" lon="14.8882817"><ele>390.0</ele><time>2026-04-25T08:00:05.025Z</time></trkpt><trkpt lat="40.7532633" lon="14.8883317"><ele>390.0</ele><time>2026-04-25T08:00:06.02Z</time></trkpt><trkpt lat="40.7533483" lon="14.8883833"><ele>390.0</ele><time>2026-04-25T08:00:07.029Z</time></trkpt><trkpt lat="40.7534367" lon="14.88844"><ele>390.0</ele><time>2026-04-25T08:00:08.017Z</time></trkpt><trkpt lat="40.75352" lon="14.88848"><ele>391.6</ele><time>2026-04-25T08:00:09.02Z</time></trkpt><trkpt lat="40.7535833" lon="14.8885617"><ele>393.2</ele><time>2026-04-25T08:00:10.022Z</time></trkpt><trkpt lat="40.75363" lon="14.8886717"><ele>394.79999999999995</ele><time>2026-04-25T08:00:11.024Z</time></trkpt><trkpt lat="40.7536567" lon="14.8887883"><ele>396.4</ele><time>2026-04-25T08:00:12.018Z</time></trkpt><trkpt lat="40.75365" lon="14.8888783"><ele>398.0</ele><time>2026-04-25T08:00:13.019Z</time></trkpt><trkpt lat="40.753635" lon="14.8890283"><ele>398.0</ele><time>2026-04-25T08:00:15.025Z</time></trkpt><trkpt lat="40.7535483" lon="14.88913"><ele>398.0</ele><time>2026-04-25T08:00:17.023Z</time></trkpt><trkpt lat="40.75348" lon="14.8891683"><ele>398.0</ele><time>2026-04-25T08:00:18.023Z</time></trkpt><trkpt lat="40.7533833" lon="14.8892017"><ele>398.0</ele><time>2026-04-25T08:00:19.011Z</time></trkpt><trkpt lat="40.753255" lon="14.8892267"><ele>398.0</ele><time>2026-04-25T08:00:20.016Z</time></trkpt><trkpt lat="40.7531433" lon="14.889245"><ele>402.4</ele><time>2026-04-25T08:00:21.018Z</time></trkpt><trkpt lat="40.75304" lon="14.8892683"><ele>406.79999999999995</ele><time>2026-04-25T08:00:22.022Z</time></trkpt><trkpt lat="40.7529433" lon="14.8893"><ele>411.2</ele><time>2026-04-25T08:00:23.022Z</time></trkpt><trkpt lat="40.7528583" lon="14.889345"><ele>415.6</ele><time>2026-04-25T08:00:24.023Z</time></trkpt><trkpt lat="40.7527867" lon="14.8894133"><ele>420.0</ele><time>2026-04-25T08:00:25.016Z</time></trkpt><trkpt lat="40.7527117" lon="14.8894817"><ele>417.4</ele><time>2026-04-25T08:00:26.082Z</time></trkpt><trkpt lat="40.752625" lon="14.8895383"><ele>414.8</ele><time>2026-04-25T08:00:27.018Z</time></trkpt><trkpt lat="40.7525233" lon="14.8895517"><ele>412.20000000000005</ele><time>2026-04-25T08:00:28.018Z</time></trkpt><trkpt lat="40.7524117" lon="14.889565"><ele>409.6</ele><time>2026-04-25T08:00:29.023Z</time></trkpt><trkpt lat="40.7523133" lon="14.889565"><ele>407.0</ele><time>2026-04-25T08:00:30.017Z</time></trkpt><trkpt lat="40.7522233" lon="14.8895667"><ele>407.0</ele><time>2026-04-25T08:00:31.024Z</time></trkpt><trkpt lat="40.7521417" lon="14.88958"><ele>407.0</ele><time>2026-04-25T08:00:32.022Z</time></trkpt><trkpt lat="40.7520567" lon="14.8896467"><ele>407.0</ele><time>2026-04-25T08:00:33.025Z</time></trkpt><trkpt lat="40.7519667" lon="14.8897067"><ele>407.0</ele><time>2026-04-25T08:00:34.025Z</time></trkpt><trkpt lat="40.7518867" lon="14.8897767"><ele>407.0</ele><time>2026-04-25T08:00:35.028Z</time></trkpt><trkpt lat="40.7518133" lon="14.8898367"><ele>402.8333333333333</ele><time>2026-04-25T08:00:36.016Z</time></trkpt><trkpt lat="40.75175" lon="14.8899233"><ele>398.66666666666663</ele><time>2026-04-25T08:00:37.021Z</time></trkpt><trkpt lat="40.7517" lon="14.8900267"><ele>394.5</ele><time>2026-04-25T08:00:38.022Z</time></trkpt><trkpt lat="40.7516633" lon="14.8901433"><ele>390.3333333333333</ele><time>2026-04-25T08:00:39.026Z</time></trkpt><trkpt lat="40.75163" lon="14.8902433"><ele>386.16666666666663</ele><time>2026-04-25T08:00:40.025Z</time></trkpt><trkpt lat="40.7516033" lon="14.89033"><ele>382.0</ele><time>2026-04-25T08:00:41.017Z</time></trkpt><trkpt lat="40.751595" lon="14.8904633"><ele>381.25</ele><time>2026-04-25T08:00:43.013Z</time></trkpt><trkpt lat="40.75168" lon="14.89057"><ele>380.5</ele><time>2026-04-25T08:00:45.021Z</time></trkpt><trkpt lat="40.7517617" lon="14.8906317"><ele>379.75</ele><time>2026-04-25T08:00:46.017Z</time></trkpt><trkpt lat="40.7518583" lon="14.8907567"><ele>379.0</ele><time>2026-04-25T08:00:47.025Z</time></trkpt><trkpt lat="40.751945" lon="14.8908883"><ele>384.25</ele><time>2026-04-25T08:00:48.02Z</time></trkpt><trkpt lat="40.7520183" lon="14.891015"><ele>389.5</ele><time>2026-04-25T08:00:49.024Z</time></trkpt><trkpt lat="40.752085" lon="14.8911483"><ele>394.75</ele><time>2026-04-25T08:00:50.02Z</time></trkpt><trkpt lat="40.752145" lon="14.8912817"><ele>400.0</ele><time>2026-04-25T08:00:51.025Z</time></trkpt><trkpt lat="40.7521983" lon="14.891425"><ele>400.0</ele><time>2026-04-25T08:00:52.017Z</time></trkpt><trkpt lat="40.7522333" lon="14.8915767"><ele>400.0</ele><time>2026-04-25T08:00:53.024Z</time></trkpt><trkpt lat="40.7522583" lon="14.8917317"><ele>400.0</ele><time>2026-04-25T08:00:54.016Z</time></trkpt><trkpt lat="40.7522783" lon="14.8918683"><ele>400.0</ele><time>2026-04-25T08:00:55.021Z</time></trkpt><trkpt lat="40.752305" lon="14.8919967"><ele>400.0</ele><time>2026-04-25T08:00:56.027Z</time></trkpt><trkpt lat="40.75233" lon="14.8921067"><ele>400.00000000000006</ele><time>2026-04-25T08:00:57.021Z</time></trkpt><trkpt lat="40.752345" lon="14.8921983"><ele>400.0</ele><time>2026-04-25T08:00:58.013Z</time></trkpt><trkpt lat="40.7522767" lon="14.8922333"><ele>400.0</ele><time>2026-04-25T08:01:01.022Z</time></trkpt><trkpt lat="40.7521967" lon="14.892195"><ele>400.0</ele><time>2026-04-25T08:01:02.017Z</time></trkpt><trkpt lat="40.75212" lon="14.8921717"><ele>400.00000000000006</ele><time>2026-04-25T08:01:03.018Z</time></trkpt><trkpt lat="40.75204" lon="14.8921267"><ele>400.0</ele><time>2026-04-25T08:01:04.023Z</time></trkpt><trkpt lat="40.75197" lon="14.8920833"><ele>400.00000000000006</ele><time>2026-04-25T08:01:05.016Z</time></trkpt><trkpt lat="40.7519067" lon="14.8920467"><ele>400.0</ele><time>2026-04-25T08:01:06.017Z</time></trkpt><trkpt lat="40.7518417" lon="14.8920017"><ele>400.0</ele><time>2026-04-25T08:01:07.025Z</time></trkpt><trkpt lat="40.75174" lon="14.8920283"><ele>400.0</ele><time>2026-04-25T08:01:09.026Z</time></trkpt><trkpt lat="40.751635" lon="14.8920917"><ele>400.00000000000006</ele><time>2026-04-25T08:01:11.018Z</time></trkpt><trkpt lat="40.75157" lon="14.8920917"><ele>400.0</ele><time>2026-04-25T08:01:12.016Z</time></trkpt><trkpt lat="40.7515" lon="14.8920667"><ele>401.4</ele><time>2026-04-25T08:01:13.022Z</time></trkpt><trkpt lat="40.7514217" lon="14.8920417"><ele>402.8</ele><time>2026-04-25T08:01:14.021Z</time></trkpt><trkpt lat="40.7513417" lon="14.89202"><ele>404.20000000000005</ele><time>2026-04-25T08:01:15.016Z</time></trkpt><trkpt lat="40.7512417" lon="14.892005"><ele>405.6</ele><time>2026-04-25T08:01:16.015Z</time></trkpt><trkpt lat="40.7511383" lon="14.8919683"><ele>407.0</ele><time>2026-04-25T08:01:17.019Z</time></trkpt><trkpt lat="40.75105" lon="14.891935"><ele>407.20000000000005</ele><time>2026-04-25T08:01:18.019Z</time></trkpt><trkpt lat="40.750965" lon="14.89194"><ele>407.4</ele><time>2026-04-25T08:01:19.024Z</time></trkpt><trkpt lat="40.7508767" lon="14.8919533"><ele>407.6</ele><time>2026-04-25T08:01:20.011Z</time></trkpt><trkpt lat="40.7507717" lon="14.8919933"><ele>407.79999999999995</ele><time>2026-04-25T08:01:21.014Z</time></trkpt><trkpt lat="40.750675" lon="14.8920617"><ele>408.0</ele><time>2026-04-25T08:01:22.017Z</time></trkpt><trkpt lat="40.7505917" lon="14.89214"><ele>408.0</ele><time>2026-04-25T08:01:23.02Z</time></trkpt><trkpt lat="40.750525" lon="14.8922067"><ele>408.0</ele><time>2026-04-25T08:01:24.018Z</time></trkpt><trkpt lat="40.75047" lon="14.8922833"><ele>408.0</ele><time>2026-04-25T08:01:25.033Z</time></trkpt><trkpt lat="40.750425" lon="14.8923883"><ele>408.0</ele><time>2026-04-25T08:01:26.019Z</time></trkpt><trkpt lat="40.7503767" lon="14.8925217"><ele>408.0</ele><time>2026-04-25T08:01:27.027Z</time></trkpt><trkpt lat="40.7503233" lon="14.8926717"><ele>407.0</ele><time>2026-04-25T08:01:28.02Z</time></trkpt><trkpt lat="40.7502617" lon="14.8928317"><ele>406.0</ele><time>2026-04-25T08:01:29.023Z</time></trkpt><trkpt lat="40.7501983" lon="14.892985"><ele>405.0</ele><time>2026-04-25T08:01:30.013Z</time></trkpt><trkpt lat="40.7501367" lon="14.89312"><ele>404.0</ele><time>2026-04-25T08:01:31.017Z</time></trkpt><trkpt lat="40.7500783" lon="14.8932317"><ele>404.0</ele><time>2026-04-25T08:01:32.012Z</time></trkpt><trkpt lat="40.75001" lon="14.8933183"><ele>404.0</ele><time>2026-04-25T08:01:33.026Z</time></trkpt><trkpt lat="40.7499067" lon="14.8933683"><ele>404.0</ele><time>2026-04-25T08:01:34.018Z</time></trkpt><trkpt lat="40.7498033" lon="14.8934233"><ele>404.0</ele><time>2026-04-25T08:01:35.025Z</time></trkpt><trkpt lat="40.749705" lon="14.8934733"><ele>404.0</ele><time>2026-04-25T08:01:36.014Z</time></trkpt><trkpt lat="40.74963" lon="14.8935217"><ele>404.79999999999995</ele><time>2026-04-25T08:01:37.015Z</time></trkpt><trkpt lat="40.7495717" lon="14.893575"><ele>405.59999999999997</ele><time>2026-04-25T08:01:38.019Z</time></trkpt><trkpt lat="40.7495217" lon="14.89369"><ele>406.4</ele><time>2026-04-25T08:01:40.023Z</time></trkpt><trkpt lat="40.7495333" lon="14.8937983"><ele>407.2</ele><time>2026-04-25T08:01:42.024Z</time></trkpt><trkpt lat="40.7496" lon="14.89401"><ele>408.0</ele><time>2026-04-25T08:01:44.019Z</time></trkpt><trkpt lat="40.74965" lon="14.8941533"><ele>404.25</ele><time>2026-04-25T08:01:45.015Z</time></trkpt><trkpt lat="40.7497117" lon="14.8942933"><ele>400.5</ele><time>2026-04-25T08:01:46.015Z</time></trkpt><trkpt lat="40.749775" lon="14.8944183"><ele>396.75</ele><time>2026-04-25T08:01:47.024Z</time></trkpt><trkpt lat="40.7498383" lon="14.8945567"><ele>393.0</ele><time>2026-04-25T08:01:48.015Z</time></trkpt><trkpt lat="40.7499067" lon="14.8946833"><ele>393.0</ele><time>2026-04-25T08:01:49.024Z</time></trkpt><trkpt lat="40.74997" lon="14.8947883"><ele>393.0</ele><time>2026-04-25T08:01:50.02Z</time></trkpt><trkpt lat="40.7500333" lon="14.8948767"><ele>393.0</ele><time>2026-04-25T08:01:51.023Z</time></trkpt><trkpt lat="40.750085" lon="14.8949367"><ele>393.0</ele><time>2026-04-25T08:01:52.016Z</time></trkpt><trkpt lat="40.7501367" lon="14.89501"><ele>393.0</ele><time>2026-04-25T08:01:54.018Z</time></trkpt><trkpt lat="40.750135" lon="14.8951133"><ele>393.0</ele><time>2026-04-25T08:01:58.017Z</time></trkpt><trkpt lat="40.7500983" lon="14.8952267"><ele>393.0</ele><time>2026-04-25T08:02:00.026Z</time></trkpt><trkpt lat="40.7500883" lon="14.895395"><ele>393.0</ele><time>2026-04-25T08:02:02.017Z</time></trkpt><trkpt lat="40.7500983" lon="14.89548"><ele>393.0</ele><time>2026-04-25T08:02:03.023Z</time></trkpt><trkpt lat="40.75013" lon="14.8955683"><ele>393.0</ele><time>2026-04-25T08:02:04.013Z</time></trkpt><trkpt lat="40.750195" lon="14.89564"><ele>393.0</ele><time>2026-04-25T08:02:05.023Z</time></trkpt><trkpt lat="40.7502533" lon="14.8957217"><ele>393.0</ele><time>2026-04-25T08:02:06.02Z</time></trkpt><trkpt lat="40.7502917" lon="14.8958117"><ele>398.5</ele><time>2026-04-25T08:02:07.024Z</time></trkpt><trkpt lat="40.7503167" lon="14.8958983"><ele>404.0</ele><time>2026-04-25T08:02:08.021Z</time></trkpt><trkpt lat="40.7502983" lon="14.896005"><ele>409.5</ele><time>2026-04-25T08:02:10.019Z</time></trkpt><trkpt lat="40.7502433" lon="14.8960617"><ele>415.0</ele><time>2026-04-25T08:02:12.014Z</time></trkpt><trkpt lat="40.7502467" lon="14.8961533"><ele>420.5</ele><time>2026-04-25T08:02:14.018Z</time></trkpt><trkpt lat="40.7502583" lon="14.8963133"><ele>426.0</ele><time>2026-04-25T08:02:16.013Z</time></trkpt><trkpt lat="40.750265" lon="14.8964167"><ele>426.0</ele><time>2026-04-25T08:02:17.021Z</time></trkpt><trkpt lat="40.75028" lon="14.8965167"><ele>426.0</ele><time>2026-04-25T08:02:18.014Z</time></trkpt><trkpt lat="40.7503" lon="14.8966133"><ele>426.0</ele><time>2026-04-25T08:02:19.023Z</time></trkpt><trkpt lat="40.7503233" lon="14.896695"><ele>426.0</ele><time>2026-04-25T08:02:20.022Z</time></trkpt><trkpt lat="40.750385" lon="14.8968183"><ele>426.0</ele><time>2026-04-25T08:02:22.019Z</time></trkpt><trkpt lat="40.750425" lon="14.896885"><ele>426.0</ele><time>2026-04-25T08:02:23.025Z</time></trkpt><trkpt lat="40.7504683" lon="14.89701"><ele>426.20000000000005</ele><time>2026-04-25T08:02:25.017Z</time></trkpt><trkpt lat="40.7504517" lon="14.897135"><ele>426.40000000000003</ele><time>2026-04-25T08:02:27.017Z</time></trkpt><trkpt lat="40.7504083" lon="14.8972067"><ele>426.6</ele><time>2026-04-25T08:02:29.02Z</time></trkpt><trkpt lat="40.75028" lon="14.89717"><ele>426.8</ele><time>2026-04-25T08:02:31.026Z</time></trkpt><trkpt lat="40.7501683" lon="14.8971433"><ele>427.0</ele><time>2026-04-25T08:02:32.023Z</time></trkpt><trkpt lat="40.7500417" lon="14.8971033"><ele>428.0</ele><time>2026-04-25T08:02:33.024Z</time></trkpt><trkpt lat="40.7499183" lon="14.8970483"><ele>429.00000000000006</ele><time>2026-04-25T08:02:34.017Z</time></trkpt><trkpt lat="40.7498067" lon="14.89699"><ele>430.00000000000006</ele><time>2026-04-25T08:02:35.021Z</time></trkpt><trkpt lat="40.7497183" lon="14.89693"><ele>431.0</ele><time>2026-04-25T08:02:36.022Z</time></trkpt><trkpt lat="40.74967" lon="14.8968267"><ele>432.0</ele><time>2026-04-25T08:02:37.024Z</time></trkpt><trkpt lat="40.7496217" lon="14.896725"><ele>429.20000000000005</ele><time>2026-04-25T08:02:38.014Z</time></trkpt><trkpt lat="40.7495767" lon="14.8966133"><ele>426.40000000000003</ele><time>2026-04-25T08:02:39.019Z</time></trkpt><trkpt lat="40.74955" lon="14.89651"><ele>423.6</ele><time>2026-04-25T08:02:40.023Z</time></trkpt><trkpt lat="40.749515" lon="14.89643"><ele>420.79999999999995</ele><time>2026-04-25T08:02:41.03Z</time></trkpt><trkpt lat="40.749395" lon="14.8963367"><ele>418.0</ele><time>2026-04-25T08:02:43.018Z</time></trkpt><trkpt lat="40.74931" lon="14.8963033"><ele>418.00000000000006</ele><time>2026-04-25T08:02:44.021Z</time></trkpt><trkpt lat="40.7492033" lon="14.8963033"><ele>418.0</ele><time>2026-04-25T08:02:45.026Z</time></trkpt><trkpt lat="40.7491033" lon="14.8963317"><ele>418.0</ele><time>2026-04-25T08:02:46.026Z</time></trkpt><trkpt lat="40.7490133" lon="14.8963667"><ele>418.0</ele><time>2026-04-25T08:02:47.022Z</time></trkpt><trkpt lat="40.74894" lon="14.8964117"><ele>418.00000000000006</ele><time>2026-04-25T08:02:48.017Z</time></trkpt><trkpt lat="40.7489083" lon="14.8964867"><ele>418.0</ele><time>2026-04-25T08:02:49.03Z</time></trkpt><trkpt lat="40.7489217" lon="14.8965883"><ele>418.00000000000006</ele><time>2026-04-25T08:02:51.023Z</time></trkpt><trkpt lat="40.7490067" lon="14.8966233"><ele>418.0</ele><time>2026-04-25T08:02:53.021Z</time></trkpt><trkpt lat="40.7490733" lon="14.896615"><ele>418.0</ele><time>2026-04-25T08:02:54.018Z</time></trkpt><trkpt lat="40.7491417" lon="14.8966117"><ele>418.0</ele><time>2026-04-25T08:02:55.026Z</time></trkpt><trkpt lat="40.7492083" lon="14.8966267"><ele>418.00000000000006</ele><time>2026-04-25T08:02:56.088Z</time></trkpt><trkpt lat="40.749285" lon="14.8966683"><ele>418.0</ele><time>2026-04-25T08:02:58.012Z</time></trkpt><trkpt lat="40.7492367" lon="14.896785"><ele>419.50000000000006</ele><time>2026-04-25T08:03:00.034Z</time></trkpt><trkpt lat="40.74923" lon="14.8969333"><ele>421.0</ele><time>2026-04-25T08:03:02.018Z</time></trkpt><trkpt lat="40.7492467" lon="14.8970217"><ele>422.5</ele><time>2026-04-25T08:03:03.018Z</time></trkpt><trkpt lat="40.74928" lon="14.897115"><ele>424.0</ele><time>2026-04-25T08:03:04.013Z</time></trkpt><trkpt lat="40.749315" lon="14.8971983"><ele>425.50000000000006</ele><time>2026-04-25T08:03:05.023Z</time></trkpt><trkpt lat="40.749345" lon="14.8973333"><ele>427.0</ele><time>2026-04-25T08:03:07.034Z</time></trkpt><trkpt lat="40.7493117" lon="14.8974933"><ele>427.6</ele><time>2026-04-25T08:03:09.02Z</time></trkpt><trkpt lat="40.7492917" lon="14.8975933"><ele>428.20000000000005</ele><time>2026-04-25T08:03:10.023Z</time></trkpt><trkpt lat="40.74927" lon="14.8977033"><ele>428.8</ele><time>2026-04-25T08:03:11.023Z</time></trkpt><trkpt lat="40.7492583" lon="14.8978233"><ele>429.4</ele><time>2026-04-25T08:03:12.023Z</time></trkpt><trkpt lat="40.749255" lon="14.8979483"><ele>430.0</ele><time>2026-04-25T08:03:13.035Z</time></trkpt><trkpt lat="40.7492583" lon="14.8980917"><ele>430.0</ele><time>2026-04-25T08:03:14.022Z</time></trkpt><trkpt lat="40.749265" lon="14.8982483"><ele>430.0</ele><time>2026-04-25T08:03:15.031Z</time></trkpt><trkpt lat="40.7492633" lon="14.8983967"><ele>430.0</ele><time>2026-04-25T08:03:16.018Z</time></trkpt><trkpt lat="40.74926" lon="14.8985317"><ele>430.0</ele><time>2026-04-25T08:03:17.033Z</time></trkpt><trkpt lat="40.74926" lon="14.8986467"><ele>430.0</ele><time>2026-04-25T08:03:18.024Z</time></trkpt><trkpt lat="40.7492533" lon="14.8987333"><ele>430.8</ele><time>2026-04-25T08:03:19.026Z</time></trkpt><trkpt lat="40.7492867" lon="14.8989"><ele>431.6</ele><time>2026-04-25T08:03:21.024Z</time></trkpt><trkpt lat="40.74931" lon="14.898995"><ele>432.4</ele><time>2026-04-25T08:03:22.022Z</time></trkpt><trkpt lat="40.7493033" lon="14.8991617"><ele>433.2</ele><time>2026-04-25T08:03:24.016Z</time></trkpt><trkpt lat="40.749245" lon="14.8992867"><ele>434.0</ele><time>2026-04-25T08:03:26.085Z</time></trkpt><trkpt lat="40.7491967" lon="14.8993483"><ele>436.3333333333333</ele><time>2026-04-25T08:03:27.018Z</time></trkpt><trkpt lat="40.7491367" lon="14.8994767"><ele>438.66666666666663</ele><time>2026-04-25T08:03:29.024Z</time></trkpt><trkpt lat="40.7491167" lon="14.899645"><ele>441.0</ele><time>2026-04-25T08:03:31.024Z</time></trkpt><trkpt lat="40.74911" lon="14.8997383"><ele>443.33333333333337</ele><time>2026-04-25T08:03:32.071Z</time></trkpt><trkpt lat="40.749115" lon="14.899825"><ele>445.6666666666667</ele><time>2026-04-25T08:03:33.017Z</time></trkpt><trkpt lat="40.7491267" lon="14.8999067"><ele>448.0</ele><time>2026-04-25T08:03:34.013Z</time></trkpt><trkpt lat="40.749145" lon="14.8999867"><ele>451.50000000000006</ele><time>2026-04-25T08:03:35.013Z</time></trkpt><trkpt lat="40.74916" lon="14.90013"><ele>455.0</ele><time>2026-04-25T08:03:37.017Z</time></trkpt><trkpt lat="40.74914" lon="14.9002783"><ele>458.5</ele><time>2026-04-25T08:03:39.024Z</time></trkpt><trkpt lat="40.749135" lon="14.900385"><ele>462.0</ele><time>2026-04-25T08:03:40.018Z</time></trkpt><trkpt lat="40.7491267" lon="14.9004867"><ele>465.50000000000006</ele><time>2026-04-25T08:03:41.015Z</time></trkpt><trkpt lat="40.749115" lon="14.9005717"><ele>469.0</ele><time>2026-04-25T08:03:42.017Z</time></trkpt><trkpt lat="40.7490783" lon="14.9006717"><ele>469.0</ele><time>2026-04-25T08:03:44.016Z</time></trkpt><trkpt lat="40.7490017" lon="14.90064"><ele>469.0</ele><time>2026-04-25T08:03:45.023Z</time></trkpt><trkpt lat="40.7489133" lon="14.9006317"><ele>469.0</ele><time>2026-04-25T08:03:46.027Z</time></trkpt><trkpt lat="40.7488067" lon="14.9006183"><ele>469.0</ele><time>2026-04-25T08:03:47.028Z</time></trkpt><trkpt lat="40.7486983" lon="14.9006017"><ele>469.0</ele><time>2026-04-25T08:03:48.011Z</time></trkpt><trkpt lat="40.74859" lon="14.9005733"><ele>469.0</ele><time>2026-04-25T08:03:49.02Z</time></trkpt><trkpt lat="40.748485" lon="14.90053"><ele>469.0</ele><time>2026-04-25T08:03:50.018Z</time></trkpt><trkpt lat="40.74839" lon="14.9004783"><ele>469.0</ele><time>2026-04-25T08:03:51.029Z</time></trkpt><trkpt lat="40.748295" lon="14.900425"><ele>469.0</ele><time>2026-04-25T08:03:52.014Z</time></trkpt><trkpt lat="40.748195" lon="14.9003967"><ele>469.0</ele><time>2026-04-25T08:03:53.024Z</time></trkpt><trkpt lat="40.7481067" lon="14.90038"><ele>469.00000000000006</ele><time>2026-04-25T08:03:54.029Z</time></trkpt><trkpt lat="40.74802" lon="14.900375"><ele>469.0</ele><time>2026-04-25T08:03:55.027Z</time></trkpt><trkpt lat="40.7479333" lon="14.9003833"><ele>469.0</ele><time>2026-04-25T08:03:56.086Z</time></trkpt><trkpt lat="40.7478467" lon="14.9003833"><ele>469.0</ele><time>2026-04-25T08:03:57.013Z</time></trkpt><trkpt lat="40.7477633" lon="14.9003833"><ele>469.00000000000006</ele><time>2026-04-25T08:03:58.011Z</time></trkpt><trkpt lat="40.7476883" lon="14.900385"><ele>469.0</ele><time>2026-04-25T08:03:59.02Z</time></trkpt><trkpt lat="40.7475933" lon="14.90037"><ele>468.6</ele><time>2026-04-25T08:04:01.023Z</time></trkpt><trkpt lat="40.7474967" lon="14.9003067"><ele>468.2</ele><time>2026-04-25T08:04:03.031Z</time></trkpt><trkpt lat="40.7473817" lon="14.90028"><ele>467.80000000000007</ele><time>2026-04-25T08:04:05.025Z</time></trkpt><trkpt lat="40.74728" lon="14.900315"><ele>467.40000000000003</ele><time>2026-04-25T08:04:07.027Z</time></trkpt><trkpt lat="40.7472183" lon="14.9003317"><ele>467.0</ele><time>2026-04-25T08:04:08.022Z</time></trkpt><trkpt lat="40.7471467" lon="14.9003517"><ele>466.99999999999994</ele><time>2026-04-25T08:04:09.022Z</time></trkpt><trkpt lat="40.7470833" lon="14.9003683"><ele>467.0</ele><time>2026-04-25T08:04:10.016Z</time></trkpt><trkpt lat="40.7470033" lon="14.9004017"><ele>467.0</ele><time>2026-04-25T08:04:12.02Z</time></trkpt><trkpt lat="40.74699" lon="14.900515"><ele>467.0</ele><time>2026-04-25T08:04:14.023Z</time></trkpt><trkpt lat="40.7469967" lon="14.900615"><ele>466.99999999999994</ele><time>2026-04-25T08:04:15.027Z</time></trkpt><trkpt lat="40.7470133" lon="14.9007633"><ele>467.0</ele><time>2026-04-25T08:04:16.016Z</time></trkpt><trkpt lat="40.7470233" lon="14.90092"><ele>469.0</ele><time>2026-04-25T08:04:17.018Z</time></trkpt><trkpt lat="40.7470217" lon="14.90108"><ele>471.0</ele><time>2026-04-25T08:04:18.022Z</time></trkpt><trkpt lat="40.74701" lon="14.9012483"><ele>473.0</ele><time>2026-04-25T08:04:19.02Z</time></trkpt><trkpt lat="40.7469817" lon="14.9014133"><ele>475.0</ele><time>2026-04-25T08:04:20.023Z</time></trkpt><trkpt lat="40.7469333" lon="14.9015783"><ele>470.75</ele><time>2026-04-25T08:04:21.021Z</time></trkpt><trkpt lat="40.746875" lon="14.9017383"><ele>466.5</ele><time>2026-04-25T08:04:22.023Z</time></trkpt><trkpt lat="40.746815" lon="14.9018767"><ele>462.25</ele><time>2026-04-25T08:04:23.028Z</time></trkpt><trkpt lat="40.7467683" lon="14.9019833"><ele>458.0</ele><time>2026-04-25T08:04:24.022Z</time></trkpt><trkpt lat="40.746725" lon="14.9021117"><ele>457.59999999999997</ele><time>2026-04-25T08:04:26.082Z</time></trkpt><trkpt lat="40.746655" lon="14.9022183"><ele>457.19999999999993</ele><time>2026-04-25T08:04:28.023Z</time></trkpt><trkpt lat="40.7466383" lon="14.9023633"><ele>456.8</ele><time>2026-04-25T08:04:30.017Z</time></trkpt><trkpt lat="40.7466717" lon="14.9024467"><ele>456.4</ele><time>2026-04-25T08:04:31.028Z</time></trkpt><trkpt lat="40.7467167" lon="14.9025417"><ele>456.0</ele><time>2026-04-25T08:04:32.083Z</time></trkpt><trkpt lat="40.7467767" lon="14.9026533"><ele>456.6</ele><time>2026-04-25T08:04:33.017Z</time></trkpt><trkpt lat="40.74684" lon="14.9027583"><ele>457.20000000000005</ele><time>2026-04-25T08:04:34.025Z</time></trkpt><trkpt lat="40.7469" lon="14.9028767"><ele>457.79999999999995</ele><time>2026-04-25T08:04:35.019Z</time></trkpt><trkpt lat="40.7469583" lon="14.9030033"><ele>458.4</ele><time>2026-04-25T08:04:36.017Z</time></trkpt><trkpt lat="40.747015" lon="14.9031283"><ele>459.0</ele><time>2026-04-25T08:04:37.016Z</time></trkpt><trkpt lat="40.74706" lon="14.9032433"><ele>459.0</ele><time>2026-04-25T08:04:38.019Z</time></trkpt><trkpt lat="40.7470933" lon="14.9033467"><ele>459.0</ele><time>2026-04-25T08:04:39.016Z</time></trkpt><trkpt lat="40.7471117" lon="14.903435"><ele>459.0</ele><time>2026-04-25T08:04:40.016Z</time></trkpt><trkpt lat="40.747075" lon="14.9035467"><ele>459.0</ele><time>2026-04-25T08:04:42.019Z</time></trkpt><trkpt lat="40.74701" lon="14.903575"><ele>459.0</ele><time>2026-04-25T08:04:43.028Z</time></trkpt><trkpt lat="40.746915" lon="14.90359"><ele>459.0</ele><time>2026-04-25T08:04:44.021Z</time></trkpt><trkpt lat="40.7467267" lon="14.903605"><ele>457.0</ele><time>2026-04-25T08:04:45.029Z</time></trkpt><trkpt lat="40.7465933" lon="14.9036367"><ele>455.0</ele><time>2026-04-25T08:04:46.013Z</time></trkpt><trkpt lat="40.7464767" lon="14.9036667"><ele>453.0</ele><time>2026-04-25T08:04:47.021Z</time></trkpt><trkpt lat="40.7463783" lon="14.9037067"><ele>451.0</ele><time>2026-04-25T08:04:48.014Z</time></trkpt><trkpt lat="40.7463033" lon="14.90376"><ele>449.0</ele><time>2026-04-25T08:04:49.019Z</time></trkpt><trkpt lat="40.7462483" lon="14.90383"><ele>448.99999999999994</ele><time>2026-04-25T08:04:50.027Z</time></trkpt><trkpt lat="40.746205" lon="14.9039"><ele>449.0</ele><time>2026-04-25T08:04:51.023Z</time></trkpt><trkpt lat="40.7462" lon="14.9039967"><ele>449.0</ele><time>2026-04-25T08:04:52.016Z</time></trkpt><trkpt lat="40.7462317" lon="14.9040817"><ele>449.0</ele><time>2026-04-25T08:04:53.022Z</time></trkpt><trkpt lat="40.7462833" lon="14.9041383"><ele>448.99999999999994</ele><time>2026-04-25T08:04:54.021Z</time></trkpt><trkpt lat="40.7463083" lon="14.9042367"><ele>449.0</ele><time>2026-04-25T08:04:57.009Z</time></trkpt><trkpt lat="40.7461783" lon="14.9041733"><ele>449.0</ele><time>2026-04-25T08:05:00.014Z</time></trkpt><trkpt lat="40.746105" lon="14.9041283"><ele>449.0</ele><time>2026-04-25T08:05:01.025Z</time></trkpt><trkpt lat="40.7460083" lon="14.9040833"><ele>449.0</ele><time>2026-04-25T08:05:02.063Z</time></trkpt><trkpt lat="40.7459317" lon="14.9040267"><ele>449.0</ele><time>2026-04-25T08:05:03.011Z</time></trkpt><trkpt lat="40.7458417" lon="14.9039417"><ele>449.0</ele><time>2026-04-25T08:05:04.018Z</time></trkpt><trkpt lat="40.74576" lon="14.9038567"><ele>447.0</ele><time>2026-04-25T08:05:05.022Z</time></trkpt><trkpt lat="40.745665" lon="14.9038317"><ele>445.0</ele><time>2026-04-25T08:05:06.019Z</time></trkpt><trkpt lat="40.7455767" lon="14.903815"><ele>443.0</ele><time>2026-04-25T08:05:07.02Z</time></trkpt><trkpt lat="40.7454667" lon="14.9038167"><ele>441.0</ele><time>2026-04-25T08:05:08.016Z</time></trkpt><trkpt lat="40.74538" lon="14.9038067"><ele>439.0</ele><time>2026-04-25T08:05:09.022Z</time></trkpt><trkpt lat="40.7453067" lon="14.903795"><ele>439.0</ele><time>2026-04-25T08:05:10.017Z</time></trkpt><trkpt lat="40.745255" lon="14.9037433"><ele>439.0</ele><time>2026-04-25T08:05:12.014Z</time></trkpt><trkpt lat="40.7453467" lon="14.9037267"><ele>439.0</ele><time>2026-04-25T08:05:17.022Z</time></trkpt><trkpt lat="40.745415" lon="14.9036883"><ele>439.0</ele><time>2026-04-25T08:05:19.024Z</time></trkpt><trkpt lat="40.7454217" lon="14.9036033"><ele>439.0</ele><time>2026-04-25T08:05:21.013Z</time></trkpt><trkpt lat="40.7453733" lon="14.903545"><ele>439.0</ele><time>2026-04-25T08:05:22.01Z</time></trkpt><trkpt lat="40.7453217" lon="14.9034883"><ele>439.0</ele><time>2026-04-25T08:05:23.01Z</time></trkpt><trkpt lat="40.7452667" lon="14.9034333"><ele>439.00000000000006</ele><time>2026-04-25T08:05:24.012Z</time></trkpt><trkpt lat="40.74521" lon="14.9033833"><ele>439.0</ele><time>2026-04-25T08:05:25.015Z</time></trkpt><trkpt lat="40.74513" lon="14.9033217"><ele>439.0</ele><time>2026-04-25T08:05:27.02Z</time></trkpt><trkpt lat="40.7452167" lon="14.9034017"><ele>439.0</ele><time>2026-04-25T08:05:52.014Z</time></trkpt><trkpt lat="40.74527" lon="14.9034583"><ele>439.00000000000006</ele><time>2026-04-25T08:05:53.022Z</time></trkpt><trkpt lat="40.74533" lon="14.903515"><ele>439.0</ele><time>2026-04-25T08:05:54.022Z</time></trkpt><trkpt lat="40.7453833" lon="14.9035633"><ele>439.0</ele><time>2026-04-25T08:05:55.025Z</time></trkpt><trkpt lat="40.7454617" lon="14.9036117"><ele>439.0</ele><time>2026-04-25T08:05:58.02Z</time></trkpt><trkpt lat="40.745525" lon="14.903575"><ele>439.0</ele><time>2026-04-25T08:06:00.022Z</time></trkpt><trkpt lat="40.7455333" lon="14.9034817"><ele>439.0</ele><time>2026-04-25T08:06:02.065Z</time></trkpt><trkpt lat="40.7454883" lon="14.9033117"><ele>439.0</ele><time>2026-04-25T08:06:04.013Z</time></trkpt><trkpt lat="40.7454183" lon="14.9032283"><ele>437.7142857142857</ele><time>2026-04-25T08:06:05.024Z</time></trkpt><trkpt lat="40.7453483" lon="14.9031933"><ele>436.42857142857144</ele><time>2026-04-25T08:06:06.019Z</time></trkpt><trkpt lat="40.7452817" lon="14.9031383"><ele>435.1428571428571</ele><time>2026-04-25T08:06:08.018Z</time></trkpt><trkpt lat="40.7452983" lon="14.9030417"><ele>433.8571428571429</ele><time>2026-04-25T08:06:11.018Z</time></trkpt><trkpt lat="40.74523" lon="14.9029917"><ele>432.5714285714286</ele><time>2026-04-25T08:06:14.012Z</time></trkpt><trkpt lat="40.7451583" lon="14.9029667"><ele>431.2857142857143</ele><time>2026-04-25T08:06:16.019Z</time></trkpt><trkpt lat="40.745095" lon="14.9029383"><ele>430.0</ele><time>2026-04-25T08:06:18.011Z</time></trkpt><trkpt lat="40.745045" lon="14.9028367"><ele>428.33333333333337</ele><time>2026-04-25T08:06:21.011Z</time></trkpt><trkpt lat="40.745" lon="14.9027783"><ele>426.6666666666667</ele><time>2026-04-25T08:06:24.02Z</time></trkpt><trkpt lat="40.74486" lon="14.9027917"><ele>425.0</ele><time>2026-04-25T08:08:59.02Z</time></trkpt><trkpt lat="40.7449467" lon="14.9027767"><ele>423.33333333333337</ele><time>2026-04-25T08:09:44.026Z</time></trkpt><trkpt lat="40.7448967" lon="14.9028283"><ele>421.6666666666667</ele><time>2026-04-25T08:13:28.014Z</time></trkpt><trkpt lat="40.7449567" lon="14.90279"><ele>420.0</ele><time>2026-04-25T08:16:56.073Z</time></trkpt><trkpt lat="40.7448817" lon="14.9027267"><ele>420.0</ele><time>2026-04-25T08:16:58.017Z</time></trkpt><trkpt lat="40.744775" lon="14.9026183"><ele>420.0</ele><time>2026-04-25T08:17:00.017Z</time></trkpt><trkpt lat="40.744725" lon="14.9025667"><ele>420.0</ele><time>2026-04-25T08:17:01.026Z</time></trkpt><trkpt lat="40.7446433" lon="14.9024817"><ele>420.0</ele><time>2026-04-25T08:17:03.014Z</time></trkpt><trkpt lat="40.7445583" lon="14.9024067"><ele>420.0</ele><time>2026-04-25T08:17:05.017Z</time></trkpt><trkpt lat="40.7444667" lon="14.90237"><ele>421.2</ele><time>2026-04-25T08:17:07.023Z</time></trkpt><trkpt lat="40.7444017" lon="14.9023667"><ele>422.4</ele><time>2026-04-25T08:17:08.034Z</time></trkpt><trkpt lat="40.7443083" lon="14.9023783"><ele>423.6</ele><time>2026-04-25T08:17:09.016Z</time></trkpt><trkpt lat="40.7442067" lon="14.9023917"><ele>424.8</ele><time>2026-04-25T08:17:10.018Z</time></trkpt><trkpt lat="40.7441" lon="14.9023867"><ele>426.0</ele><time>2026-04-25T08:17:11.022Z</time></trkpt><trkpt lat="40.7439917" lon="14.9023617"><ele>423.4</ele><time>2026-04-25T08:17:12.017Z</time></trkpt><trkpt lat="40.7438783" lon="14.902365"><ele>420.8</ele><time>2026-04-25T08:17:13.014Z</time></trkpt><trkpt lat="40.743765" lon="14.902385"><ele>418.2</ele><time>2026-04-25T08:17:14.03Z</time></trkpt><trkpt lat="40.7436617" lon="14.9024217"><ele>415.59999999999997</ele><time>2026-04-25T08:17:15.022Z</time></trkpt><trkpt lat="40.743565" lon="14.9024867"><ele>413.0</ele><time>2026-04-25T08:17:16.016Z</time></trkpt><trkpt lat="40.7434633" lon="14.9025433"><ele>410.66666666666663</ele><time>2026-04-25T08:17:17.011Z</time></trkpt><trkpt lat="40.7433633" lon="14.90259"><ele>408.3333333333333</ele><time>2026-04-25T08:17:18.013Z</time></trkpt><trkpt lat="40.7432683" lon="14.902635"><ele>406.0</ele><time>2026-04-25T08:17:19.021Z</time></trkpt><trkpt lat="40.743185" lon="14.902665"><ele>403.66666666666663</ele><time>2026-04-25T08:17:20.033Z</time></trkpt><trkpt lat="40.7431133" lon="14.90269"><ele>401.3333333333333</ele><time>2026-04-25T08:17:21.016Z</time></trkpt><trkpt lat="40.7430767" lon="14.9027617"><ele>399.0</ele><time>2026-04-25T08:17:23.026Z</time></trkpt><trkpt lat="40.74311" lon="14.9028483"><ele>399.0</ele><time>2026-04-25T08:17:25.022Z</time></trkpt><trkpt lat="40.7431817" lon="14.902825"><ele>399.0</ele><time>2026-04-25T08:17:26.084Z</time></trkpt><trkpt lat="40.7433067" lon="14.9028267"><ele>399.0</ele><time>2026-04-25T08:17:28.018Z</time></trkpt><trkpt lat="40.7433633" lon="14.9029783"><ele>399.0</ele><time>2026-04-25T08:17:30.012Z</time></trkpt><trkpt lat="40.7433733" lon="14.903085"><ele>399.0</ele><time>2026-04-25T08:17:31.021Z</time></trkpt><trkpt lat="40.743365" lon="14.9032"><ele>399.0</ele><time>2026-04-25T08:17:32.055Z</time></trkpt><trkpt lat="40.7433367" lon="14.9033133"><ele>399.0</ele><time>2026-04-25T08:17:33.012Z</time></trkpt><trkpt lat="40.7432117" lon="14.90334"><ele>399.0</ele><time>2026-04-25T08:17:35.021Z</time></trkpt><trkpt lat="40.7431233" lon="14.90332"><ele>399.0</ele><time>2026-04-25T08:17:36.016Z</time></trkpt><trkpt lat="40.7430217" lon="14.9032783"><ele>399.0</ele><time>2026-04-25T08:17:37.017Z</time></trkpt><trkpt lat="40.7429083" lon="14.9032367"><ele>399.0</ele><time>2026-04-25T08:17:38.035Z</time></trkpt><trkpt lat="40.7427433" lon="14.903275"><ele>399.0</ele><time>2026-04-25T08:17:39.023Z</time></trkpt><trkpt lat="40.7426233" lon="14.9033283"><ele>399.0</ele><time>2026-04-25T08:17:40.018Z</time></trkpt><trkpt lat="40.7425083" lon="14.903405"><ele>399.0</ele><time>2026-04-25T08:17:41.02Z</time></trkpt><trkpt lat="40.742395" lon="14.9035083"><ele>400.75</ele><time>2026-04-25T08:17:42.015Z</time></trkpt><trkpt lat="40.7422783" lon="14.9035933"><ele>402.5</ele><time>2026-04-25T08:17:43.022Z</time></trkpt><trkpt lat="40.74217" lon="14.9036933"><ele>404.25</ele><time>2026-04-25T08:17:44.031Z</time></trkpt><trkpt lat="40.7420533" lon="14.9037683"><ele>406.0</ele><time>2026-04-25T08:17:45.014Z</time></trkpt><trkpt lat="40.7419383" lon="14.9038483"><ele>401.25</ele><time>2026-04-25T08:17:46.016Z</time></trkpt><trkpt lat="40.741825" lon="14.903925"><ele>396.5</ele><time>2026-04-25T08:17:47.025Z</time></trkpt><trkpt lat="40.74172" lon="14.9039967"><ele>391.75</ele><time>2026-04-25T08:17:48.022Z</time></trkpt><trkpt lat="40.741615" lon="14.90406"><ele>387.0</ele><time>2026-04-25T08:17:49.013Z</time></trkpt><trkpt lat="40.74151" lon="14.904095"><ele>387.0</ele><time>2026-04-25T08:17:50.035Z</time></trkpt><trkpt lat="40.7414" lon="14.9041217"><ele>387.0</ele><time>2026-04-25T08:17:51.017Z</time></trkpt><trkpt lat="40.7412967" lon="14.9040783"><ele>387.0</ele><time>2026-04-25T08:17:52.018Z</time></trkpt><trkpt lat="40.741185" lon="14.9040683"><ele>387.0</ele><time>2026-04-25T08:17:53.01Z</time></trkpt><trkpt lat="40.74107" lon="14.9040633"><ele>387.0</ele><time>2026-04-25T08:17:54.01Z</time></trkpt><trkpt lat="40.7409667" lon="14.9041067"><ele>384.20000000000005</ele><time>2026-04-25T08:17:55.024Z</time></trkpt><trkpt lat="40.74088" lon="14.904145"><ele>381.4</ele><time>2026-04-25T08:17:56.055Z</time></trkpt><trkpt lat="40.7408033" lon="14.9041717"><ele>378.6</ele><time>2026-04-25T08:17:57.011Z</time></trkpt><trkpt lat="40.740735" lon="14.9042817"><ele>375.79999999999995</ele><time>2026-04-25T08:17:59.014Z</time></trkpt><trkpt lat="40.74076" lon="14.9043967"><ele>373.0</ele><time>2026-04-25T08:18:00.012Z</time></trkpt><trkpt lat="40.7407833" lon="14.9044983"><ele>373.0</ele><time>2026-04-25T08:18:01.011Z</time></trkpt><trkpt lat="40.7407917" lon="14.904585"><ele>373.0</ele><time>2026-04-25T08:18:02.032Z</time></trkpt><trkpt lat="40.7407683" lon="14.9047367"><ele>373.0</ele><time>2026-04-25T08:18:04.015Z</time></trkpt><trkpt lat="40.7406967" lon="14.9048167"><ele>373.0</ele><time>2026-04-25T08:18:05.015Z</time></trkpt><trkpt lat="40.740625" lon="14.9048717"><ele>373.0</ele><time>2026-04-25T08:18:06.021Z</time></trkpt><trkpt lat="40.74055" lon="14.9049133"><ele>373.0</ele><time>2026-04-25T08:18:07.018Z</time></trkpt><trkpt lat="40.7404533" lon="14.9049183"><ele>373.0</ele><time>2026-04-25T08:18:08.037Z</time></trkpt><trkpt lat="40.740345" lon="14.90487"><ele>373.0</ele><time>2026-04-25T08:18:09.015Z</time></trkpt><trkpt lat="40.740235" lon="14.9047883"><ele>373.0</ele><time>2026-04-25T08:18:10.023Z</time></trkpt><trkpt lat="40.7401383" lon="14.9047033"><ele>373.0</ele><time>2026-04-25T08:18:11.013Z</time></trkpt><trkpt lat="40.7400517" lon="14.9046183"><ele>373.2</ele><time>2026-04-25T08:18:12.014Z</time></trkpt><trkpt lat="40.73998" lon="14.9045267"><ele>373.4</ele><time>2026-04-25T08:18:13.018Z</time></trkpt><trkpt lat="40.7399267" lon="14.9044617"><ele>373.59999999999997</ele><time>2026-04-25T08:18:14.033Z</time></trkpt><trkpt lat="40.739875" lon="14.9044117"><ele>373.79999999999995</ele><time>2026-04-25T08:18:15.021Z</time></trkpt><trkpt lat="40.7397883" lon="14.904335"><ele>374.0</ele><time>2026-04-25T08:18:17.019Z</time></trkpt><trkpt lat="40.739675" lon="14.904445"><ele>374.0</ele><time>2026-04-25T08:18:20.038Z</time></trkpt><trkpt lat="40.739605" lon="14.9045967"><ele>374.0</ele><time>2026-04-25T08:18:21.023Z</time></trkpt><trkpt lat="40.739535" lon="14.9047017"><ele>374.0</ele><time>2026-04-25T08:18:22.013Z</time></trkpt><trkpt lat="40.739445" lon="14.9047867"><ele>374.0</ele><time>2026-04-25T08:18:23.023Z</time></trkpt><trkpt lat="40.7393667" lon="14.90487"><ele>372.4</ele><time>2026-04-25T08:18:24.022Z</time></trkpt><trkpt lat="40.7392967" lon="14.9049517"><ele>370.79999999999995</ele><time>2026-04-25T08:18:25.019Z</time></trkpt><trkpt lat="40.73922" lon="14.9050383"><ele>369.20000000000005</ele><time>2026-04-25T08:18:26.056Z</time></trkpt><trkpt lat="40.7391367" lon="14.905115"><ele>367.6</ele><time>2026-04-25T08:18:27.018Z</time></trkpt><trkpt lat="40.73906" lon="14.9052167"><ele>366.0</ele><time>2026-04-25T08:18:28.015Z</time></trkpt><trkpt lat="40.7389517" lon="14.9052733"><ele>371.75</ele><time>2026-04-25T08:18:29.021Z</time></trkpt><trkpt lat="40.7388333" lon="14.90532"><ele>377.5</ele><time>2026-04-25T08:18:30.017Z</time></trkpt><trkpt lat="40.7387067" lon="14.9053383"><ele>383.25</ele><time>2026-04-25T08:18:31.024Z</time></trkpt><trkpt lat="40.7385383" lon="14.9053317"><ele>389.0</ele><time>2026-04-25T08:18:32.057Z</time></trkpt><trkpt lat="40.7383783" lon="14.9053483"><ele>389.0</ele><time>2026-04-25T08:18:33.016Z</time></trkpt><trkpt lat="40.7381983" lon="14.905355"><ele>389.0</ele><time>2026-04-25T08:18:34.016Z</time></trkpt><trkpt lat="40.7380317" lon="14.9053783"><ele>389.0</ele><time>2026-04-25T08:18:35.018Z</time></trkpt><trkpt lat="40.7378733" lon="14.90543"><ele>389.0</ele><time>2026-04-25T08:18:36.019Z</time></trkpt><trkpt lat="40.7377333" lon="14.9054967"><ele>389.0</ele><time>2026-04-25T08:18:37.022Z</time></trkpt><trkpt lat="40.7376033" lon="14.9055633"><ele>389.0</ele><time>2026-04-25T08:18:38.034Z</time></trkpt><trkpt lat="40.7374817" lon="14.90563"><ele>389.0</ele><time>2026-04-25T08:18:39.022Z</time></trkpt><trkpt lat="40.73735" lon="14.9056883"><ele>386.25</ele><time>2026-04-25T08:18:40.018Z</time></trkpt><trkpt lat="40.7372167" lon="14.9057333"><ele>383.5</ele><time>2026-04-25T08:18:41.022Z</time></trkpt><trkpt lat="40.7370783" lon="14.9057617"><ele>380.75</ele><time>2026-04-25T08:18:42.011Z</time></trkpt><trkpt lat="40.7369367" lon="14.9057683"><ele>378.0</ele><time>2026-04-25T08:18:43.017Z</time></trkpt><trkpt lat="40.7368017" lon="14.90577"><ele>376.0</ele><time>2026-04-25T08:18:44.032Z</time></trkpt><trkpt lat="40.736675" lon="14.9057733"><ele>374.0</ele><time>2026-04-25T08:18:45.013Z</time></trkpt><trkpt lat="40.7365583" lon="14.9057783"><ele>372.0</ele><time>2026-04-25T08:18:46.015Z</time></trkpt><trkpt lat="40.7364483" lon="14.9057817"><ele>370.0</ele><time>2026-04-25T08:18:47.017Z</time></trkpt><trkpt lat="40.73634" lon="14.9057883"><ele>370.0</ele><time>2026-04-25T08:18:48.014Z</time></trkpt><trkpt lat="40.7362267" lon="14.90579"><ele>370.0</ele><time>2026-04-25T08:18:49.02Z</time></trkpt><trkpt lat="40.7361183" lon="14.90579"><ele>370.0</ele><time>2026-04-25T08:18:50.033Z</time></trkpt><trkpt lat="40.7360067" lon="14.9057917"><ele>370.0</ele><time>2026-04-25T08:18:51.017Z</time></trkpt><trkpt lat="40.735895" lon="14.9058083"><ele>370.0</ele><time>2026-04-25T08:18:52.017Z</time></trkpt><trkpt lat="40.7357883" lon="14.9058383"><ele>368.8</ele><time>2026-04-25T08:18:53.022Z</time></trkpt><trkpt lat="40.7356867" lon="14.9058733"><ele>367.6</ele><time>2026-04-25T08:18:54.018Z</time></trkpt><trkpt lat="40.735565" lon="14.9058933"><ele>366.4</ele><time>2026-04-25T08:18:55.024Z</time></trkpt><trkpt lat="40.73546" lon="14.905935"><ele>365.2</ele><time>2026-04-25T08:18:56.035Z</time></trkpt><trkpt lat="40.7353867" lon="14.90604"><ele>364.0</ele><time>2026-04-25T08:18:57.018Z</time></trkpt><trkpt lat="40.73532" lon="14.906155"><ele>361.5</ele><time>2026-04-25T08:18:58.02Z</time></trkpt><trkpt lat="40.7352567" lon="14.906295"><ele>359.0</ele><time>2026-04-25T08:18:59.019Z</time></trkpt><trkpt lat="40.7351983" lon="14.906435"><ele>356.5</ele><time>2026-04-25T08:19:00.019Z</time></trkpt><trkpt lat="40.73516" lon="14.9065783"><ele>354.0</ele><time>2026-04-25T08:19:01.017Z</time></trkpt><trkpt lat="40.73514" lon="14.9067317"><ele>352.3333333333333</ele><time>2026-04-25T08:19:02.027Z</time></trkpt><trkpt lat="40.735135" lon="14.906905"><ele>350.66666666666663</ele><time>2026-04-25T08:19:03.013Z</time></trkpt><trkpt lat="40.7351367" lon="14.9070683"><ele>349.0</ele><time>2026-04-25T08:19:04.017Z</time></trkpt><trkpt lat="40.73523" lon="14.9072983"><ele>351.5</ele><time>2026-04-25T08:19:05.024Z</time></trkpt><trkpt lat="40.735285" lon="14.9074583"><ele>354.0</ele><time>2026-04-25T08:19:06.022Z</time></trkpt><trkpt lat="40.7353617" lon="14.9075883"><ele>356.5</ele><time>2026-04-25T08:19:07.021Z</time></trkpt><trkpt lat="40.7354483" lon="14.9077217"><ele>359.0</ele><time>2026-04-25T08:19:08.029Z</time></trkpt><trkpt lat="40.73553" lon="14.9078583"><ele>359.0</ele><time>2026-04-25T08:19:09.008Z</time></trkpt><trkpt lat="40.73559" lon="14.9079883"><ele>359.0</ele><time>2026-04-25T08:19:10.016Z</time></trkpt><trkpt lat="40.7356367" lon="14.9080917"><ele>359.0</ele><time>2026-04-25T08:19:11.019Z</time></trkpt><trkpt lat="40.73559" lon="14.9082067"><ele>359.0</ele><time>2026-04-25T08:19:13.015Z</time></trkpt><trkpt lat="40.7355367" lon="14.9082667"><ele>359.0</ele><time>2026-04-25T08:19:14.035Z</time></trkpt><trkpt lat="40.73546" lon="14.9083233"><ele>359.0</ele><time>2026-04-25T08:19:15.022Z</time></trkpt><trkpt lat="40.73536" lon="14.9084"><ele>359.0</ele><time>2026-04-25T08:19:16.02Z</time></trkpt><trkpt lat="40.7352383" lon="14.90848"><ele>359.0</ele><time>2026-04-25T08:19:17.017Z</time></trkpt><trkpt lat="40.7351033" lon="14.9085433"><ele>359.0</ele><time>2026-04-25T08:19:18.01Z</time></trkpt><trkpt lat="40.7349717" lon="14.9085917"><ele>359.2</ele><time>2026-04-25T08:19:19.025Z</time></trkpt><trkpt lat="40.7348533" lon="14.9086233"><ele>359.4</ele><time>2026-04-25T08:19:20.036Z</time></trkpt><trkpt lat="40.73475" lon="14.90864"><ele>359.6</ele><time>2026-04-25T08:19:21.015Z</time></trkpt><trkpt lat="40.7346717" lon="14.908625"><ele>359.8</ele><time>2026-04-25T08:19:22.01Z</time></trkpt><trkpt lat="40.7346067" lon="14.90854"><ele>360.0</ele><time>2026-04-25T08:19:23.012Z</time></trkpt><trkpt lat="40.73454" lon="14.90846"><ele>357.75</ele><time>2026-04-25T08:19:24.016Z</time></trkpt><trkpt lat="40.7344633" lon="14.9083767"><ele>355.5</ele><time>2026-04-25T08:19:25.023Z</time></trkpt><trkpt lat="40.7343683" lon="14.90829"><ele>353.25</ele><time>2026-04-25T08:19:26.059Z</time></trkpt><trkpt lat="40.7342567" lon="14.908235"><ele>351.0</ele><time>2026-04-25T08:19:27.02Z</time></trkpt><trkpt lat="40.7341433" lon="14.90818"><ele>355.20000000000005</ele><time>2026-04-25T08:19:28.014Z</time></trkpt><trkpt lat="40.734035" lon="14.908115"><ele>359.40000000000003</ele><time>2026-04-25T08:19:29.018Z</time></trkpt><trkpt lat="40.7339367" lon="14.9080417"><ele>363.6</ele><time>2026-04-25T08:19:30.022Z</time></trkpt><trkpt lat="40.7338383" lon="14.9079783"><ele>367.8</ele><time>2026-04-25T08:19:31.022Z</time></trkpt><trkpt lat="40.7337467" lon="14.90791"><ele>372.0</ele><time>2026-04-25T08:19:32.055Z</time></trkpt><trkpt lat="40.7336483" lon="14.9078467"><ele>373.20000000000005</ele><time>2026-04-25T08:19:33.011Z</time></trkpt><trkpt lat="40.733555" lon="14.90778"><ele>374.4</ele><time>2026-04-25T08:19:34.017Z</time></trkpt><trkpt lat="40.7334733" lon="14.9076983"><ele>375.6</ele><time>2026-04-25T08:19:35.026Z</time></trkpt><trkpt lat="40.7333883" lon="14.90761"><ele>376.79999999999995</ele><time>2026-04-25T08:19:36.017Z</time></trkpt><trkpt lat="40.7333183" lon="14.9074917"><ele>378.0</ele><time>2026-04-25T08:19:37.019Z</time></trkpt><trkpt lat="40.733265" lon="14.907365"><ele>378.0</ele><time>2026-04-25T08:19:38.031Z</time></trkpt><trkpt lat="40.7332183" lon="14.907225"><ele>378.0</ele><time>2026-04-25T08:19:39.015Z</time></trkpt><trkpt lat="40.7331933" lon="14.9070933"><ele>378.0</ele><time>2026-04-25T08:19:40.013Z</time></trkpt><trkpt lat="40.733205" lon="14.9069883"><ele>378.0</ele><time>2026-04-25T08:19:41.019Z</time></trkpt><trkpt lat="40.7332283" lon="14.90691"><ele>378.0</ele><time>2026-04-25T08:19:42.014Z</time></trkpt><trkpt lat="40.73328" lon="14.90684"><ele>378.0</ele><time>2026-04-25T08:19:43.016Z</time></trkpt><trkpt lat="40.7332967" lon="14.9066633"><ele>377.0</ele><time>2026-04-25T08:19:45.011Z</time></trkpt><trkpt lat="40.7332933" lon="14.90656"><ele>376.0</ele><time>2026-04-25T08:19:46.009Z</time></trkpt><trkpt lat="40.73327" lon="14.9064367"><ele>375.0</ele><time>2026-04-25T08:19:47.009Z</time></trkpt><trkpt lat="40.7332367" lon="14.9062917"><ele>374.0</ele><time>2026-04-25T08:19:48.014Z</time></trkpt><trkpt lat="40.7331817" lon="14.9061633"><ele>373.0</ele><time>2026-04-25T08:19:49.018Z</time></trkpt><trkpt lat="40.733135" lon="14.9060333"><ele>371.2</ele><time>2026-04-25T08:19:50.039Z</time></trkpt><trkpt lat="40.7330783" lon="14.9059033"><ele>369.4</ele><time>2026-04-25T08:19:51.023Z</time></trkpt><trkpt lat="40.7330217" lon="14.9057733"><ele>367.59999999999997</ele><time>2026-04-25T08:19:52.017Z</time></trkpt><trkpt lat="40.732965" lon="14.90565"><ele>365.79999999999995</ele><time>2026-04-25T08:19:53.019Z</time></trkpt><trkpt lat="40.732905" lon="14.9055483"><ele>364.0</ele><time>2026-04-25T08:19:54.016Z</time></trkpt><trkpt lat="40.732845" lon="14.9054683"><ele>364.0</ele><time>2026-04-25T08:19:55.021Z</time></trkpt><trkpt lat="40.7327467" lon="14.9054117"><ele>364.0</ele><time>2026-04-25T08:19:56.076Z</time></trkpt><trkpt lat="40.7326783" lon="14.905345"><ele>364.0</ele><time>2026-04-25T08:19:57.015Z</time></trkpt><trkpt lat="40.7326083" lon="14.905285"><ele>364.0</ele><time>2026-04-25T08:19:58.012Z</time></trkpt><trkpt lat="40.7325317" lon="14.905245"><ele>364.0</ele><time>2026-04-25T08:19:59.017Z</time></trkpt><trkpt lat="40.73245" lon="14.9051933"><ele>364.0</ele><time>2026-04-25T08:20:00.018Z</time></trkpt><trkpt lat="40.73237" lon="14.9051467"><ele>365.2</ele><time>2026-04-25T08:20:01.016Z</time></trkpt><trkpt lat="40.7322917" lon="14.9051"><ele>366.4</ele><time>2026-04-25T08:20:02.056Z</time></trkpt><trkpt lat="40.7322133" lon="14.9050483"><ele>367.6</ele><time>2026-04-25T08:20:03.016Z</time></trkpt><trkpt lat="40.73212" lon="14.9050117"><ele>368.8</ele><time>2026-04-25T08:20:04.011Z</time></trkpt><trkpt lat="40.7320483" lon="14.90501"><ele>370.0</ele><time>2026-04-25T08:20:05.01Z</time></trkpt><trkpt lat="40.73193" lon="14.9050417"><ele>375.6</ele><time>2026-04-25T08:20:07.015Z</time></trkpt><trkpt lat="40.7318617" lon="14.9051183"><ele>381.2</ele><time>2026-04-25T08:20:08.036Z</time></trkpt><trkpt lat="40.731785" lon="14.90519"><ele>386.79999999999995</ele><time>2026-04-25T08:20:09.02Z</time></trkpt><trkpt lat="40.7317" lon="14.9052567"><ele>392.4</ele><time>2026-04-25T08:20:10.019Z</time></trkpt><trkpt lat="40.7316017" lon="14.9053267"><ele>398.0</ele><time>2026-04-25T08:20:11.02Z</time></trkpt><trkpt lat="40.7314967" lon="14.9053767"><ele>398.0</ele><time>2026-04-25T08:20:12.013Z</time></trkpt><trkpt lat="40.73138" lon="14.9054267"><ele>398.0</ele><time>2026-04-25T08:20:13.022Z</time></trkpt><trkpt lat="40.73126" lon="14.9054867"><ele>398.0</ele><time>2026-04-25T08:20:14.03Z</time></trkpt><trkpt lat="40.7311367" lon="14.90556"><ele>398.0</ele><time>2026-04-25T08:20:15.017Z</time></trkpt><trkpt lat="40.7310583" lon="14.9056083"><ele>400.2</ele><time>2026-04-25T08:20:16.014Z</time></trkpt><trkpt lat="40.7309783" lon="14.9056933"><ele>402.4</ele><time>2026-04-25T08:20:17.02Z</time></trkpt><trkpt lat="40.7308867" lon="14.9057783"><ele>404.59999999999997</ele><time>2026-04-25T08:20:18.009Z</time></trkpt><trkpt lat="40.73079" lon="14.9058567"><ele>406.79999999999995</ele><time>2026-04-25T08:20:19.016Z</time></trkpt><trkpt lat="40.7306917" lon="14.905915"><ele>409.0</ele><time>2026-04-25T08:20:20.035Z</time></trkpt><trkpt lat="40.730605" lon="14.90596"><ele>409.0</ele><time>2026-04-25T08:20:21.016Z</time></trkpt><trkpt lat="40.73052" lon="14.905995"><ele>409.0</ele><time>2026-04-25T08:20:22.015Z</time></trkpt><trkpt lat="40.7304467" lon="14.9059867"><ele>409.0</ele><time>2026-04-25T08:20:23.023Z</time></trkpt><trkpt lat="40.73035" lon="14.9059133"><ele>409.0</ele><time>2026-04-25T08:20:24.016Z</time></trkpt><trkpt lat="40.73025" lon="14.9058583"><ele>409.0</ele><time>2026-04-25T08:20:25.019Z</time></trkpt><trkpt lat="40.7301433" lon="14.9058383"><ele>404.79999999999995</ele><time>2026-04-25T08:20:26.056Z</time></trkpt><trkpt lat="40.7300433" lon="14.905825"><ele>400.59999999999997</ele><time>2026-04-25T08:20:27.02Z</time></trkpt><trkpt lat="40.7299317" lon="14.905845"><ele>396.4</ele><time>2026-04-25T08:20:28.013Z</time></trkpt><trkpt lat="40.7298183" lon="14.9058867"><ele>392.2</ele><time>2026-04-25T08:20:29.018Z</time></trkpt><trkpt lat="40.7297067" lon="14.9059283"><ele>388.0</ele><time>2026-04-25T08:20:30.016Z</time></trkpt><trkpt lat="40.729605" lon="14.9059733"><ele>388.0</ele><time>2026-04-25T08:20:31.018Z</time></trkpt><trkpt lat="40.7295117" lon="14.9060017"><ele>388.0</ele><time>2026-04-25T08:20:32.053Z</time></trkpt><trkpt lat="40.7294333" lon="14.9060217"><ele>388.0</ele><time>2026-04-25T08:20:33.013Z</time></trkpt><trkpt lat="40.7293617" lon="14.9060967"><ele>388.0</ele><time>2026-04-25T08:20:35.019Z</time></trkpt><trkpt lat="40.7293967" lon="14.90624"><ele>388.0</ele><time>2026-04-25T08:20:37.024Z</time></trkpt><trkpt lat="40.7294417" lon="14.9063333"><ele>388.0</ele><time>2026-04-25T08:20:38.027Z</time></trkpt><trkpt lat="40.72951" lon="14.9064383"><ele>388.0</ele><time>2026-04-25T08:20:39.019Z</time></trkpt><trkpt lat="40.72959" lon="14.9065617"><ele>388.0</ele><time>2026-04-25T08:20:40.01Z</time></trkpt><trkpt lat="40.72967" lon="14.90669"><ele>388.0</ele><time>2026-04-25T08:20:41.017Z</time></trkpt><trkpt lat="40.7297583" lon="14.9068317"><ele>385.25</ele><time>2026-04-25T08:20:42.015Z</time></trkpt><trkpt lat="40.7298267" lon="14.9069717"><ele>382.5</ele><time>2026-04-25T08:20:43.021Z</time></trkpt><trkpt lat="40.729885" lon="14.9071167"><ele>379.75</ele><time>2026-04-25T08:20:44.031Z</time></trkpt><trkpt lat="40.72994" lon="14.9072683"><ele>377.0</ele><time>2026-04-25T08:20:45.01Z</time></trkpt><trkpt lat="40.7299933" lon="14.9074267"><ele>374.75</ele><time>2026-04-25T08:20:46.017Z</time></trkpt><trkpt lat="40.73005" lon="14.9076017"><ele>372.5</ele><time>2026-04-25T08:20:47.011Z</time></trkpt><trkpt lat="40.7300967" lon="14.9077583"><ele>370.25</ele><time>2026-04-25T08:20:48.015Z</time></trkpt><trkpt lat="40.73013" lon="14.9079083"><ele>368.0</ele><time>2026-04-25T08:20:49.02Z</time></trkpt><trkpt lat="40.7301633" lon="14.9080683"><ele>368.0</ele><time>2026-04-25T08:20:50.033Z</time></trkpt><trkpt lat="40.7302017" lon="14.9082467"><ele>368.0</ele><time>2026-04-25T08:20:51.016Z</time></trkpt><trkpt lat="40.7302383" lon="14.9084417"><ele>368.0</ele><time>2026-04-25T08:20:52.014Z</time></trkpt><trkpt lat="40.730265" lon="14.90864"><ele>368.0</ele><time>2026-04-25T08:20:53.018Z</time></trkpt><trkpt lat="40.7302867" lon="14.9088333"><ele>377.5</ele><time>2026-04-25T08:20:54.021Z</time></trkpt><trkpt lat="40.7302983" lon="14.9090167"><ele>387.0</ele><time>2026-04-25T08:20:55.024Z</time></trkpt><trkpt lat="40.730305" lon="14.9091967"><ele>396.5</ele><time>2026-04-25T08:20:56.055Z</time></trkpt><trkpt lat="40.7303017" lon="14.9093783"><ele>406.0</ele><time>2026-04-25T08:20:57.014Z</time></trkpt><trkpt lat="40.7302883" lon="14.9095417"><ele>406.0</ele><time>2026-04-25T08:20:58.017Z</time></trkpt><trkpt lat="40.730265" lon="14.9096967"><ele>406.0</ele><time>2026-04-25T08:20:59.02Z</time></trkpt><trkpt lat="40.73024" lon="14.9098617"><ele>406.0</ele><time>2026-04-25T08:21:00.023Z</time></trkpt><trkpt lat="40.7302167" lon="14.9100033"><ele>406.0</ele><time>2026-04-25T08:21:01.018Z</time></trkpt><trkpt lat="40.730195" lon="14.9101167"><ele>406.0</ele><time>2026-04-25T08:21:02.061Z</time></trkpt><trkpt lat="40.7301733" lon="14.9101967"><ele>404.0</ele><time>2026-04-25T08:21:03.016Z</time></trkpt><trkpt lat="40.7301017" lon="14.9102"><ele>402.0</ele><time>2026-04-25T08:21:06.014Z</time></trkpt><trkpt lat="40.7300117" lon="14.9100333"><ele>400.0</ele><time>2026-04-25T08:21:08.029Z</time></trkpt><trkpt lat="40.729925" lon="14.9099667"><ele>398.0</ele><time>2026-04-25T08:21:09.025Z</time></trkpt><trkpt lat="40.729835" lon="14.909905"><ele>396.0</ele><time>2026-04-25T08:21:10.012Z</time></trkpt><trkpt lat="40.72974" lon="14.9098333"><ele>394.5</ele><time>2026-04-25T08:21:11.022Z</time></trkpt><trkpt lat="40.729645" lon="14.909765"><ele>393.0</ele><time>2026-04-25T08:21:12.013Z</time></trkpt><trkpt lat="40.72954" lon="14.909695"><ele>391.5</ele><time>2026-04-25T08:21:13.019Z</time></trkpt><trkpt lat="40.7294367" lon="14.909625"><ele>390.0</ele><time>2026-04-25T08:21:14.034Z</time></trkpt><trkpt lat="40.7293433" lon="14.9095517"><ele>390.0</ele><time>2026-04-25T08:21:15.008Z</time></trkpt><trkpt lat="40.7292483" lon="14.9094817"><ele>390.0</ele><time>2026-04-25T08:21:16.01Z</time></trkpt><trkpt lat="40.7291467" lon="14.909425"><ele>390.0</ele><time>2026-04-25T08:21:17.022Z</time></trkpt><trkpt lat="40.7290267" lon="14.9093867"><ele>390.0</ele><time>2026-04-25T08:21:18.017Z</time></trkpt><trkpt lat="40.7288917" lon="14.9093617"><ele>390.0</ele><time>2026-04-25T08:21:19.025Z</time></trkpt><trkpt lat="40.7287733" lon="14.9093183"><ele>390.0</ele><time>2026-04-25T08:21:20.027Z</time></trkpt><trkpt lat="40.7286733" lon="14.9092717"><ele>390.0</ele><time>2026-04-25T08:21:21.014Z</time></trkpt><trkpt lat="40.728595" lon="14.909225"><ele>390.0</ele><time>2026-04-25T08:21:22.018Z</time></trkpt><trkpt lat="40.7285317" lon="14.9091917"><ele>390.0</ele><time>2026-04-25T08:21:23.023Z</time></trkpt><trkpt lat="40.7284683" lon="14.9090833"><ele>387.6666666666667</ele><time>2026-04-25T08:21:25.014Z</time></trkpt><trkpt lat="40.72844" lon="14.9090033"><ele>385.3333333333333</ele><time>2026-04-25T08:21:26.055Z</time></trkpt><trkpt lat="40.7283617" lon="14.9088833"><ele>383.0</ele><time>2026-04-25T08:21:28.015Z</time></trkpt><trkpt lat="40.7282783" lon="14.908895"><ele>380.66666666666663</ele><time>2026-04-25T08:21:29.021Z</time></trkpt><trkpt lat="40.7282067" lon="14.9089117"><ele>378.3333333333333</ele><time>2026-04-25T08:21:30.013Z</time></trkpt><trkpt lat="40.72814" lon="14.9089733"><ele>376.0</ele><time>2026-04-25T08:21:31.022Z</time></trkpt><trkpt lat="40.728075" lon="14.9090533"><ele>376.0</ele><time>2026-04-25T08:21:32.058Z</time></trkpt><trkpt lat="40.728015" lon="14.9091417"><ele>376.0</ele><time>2026-04-25T08:21:33.016Z</time></trkpt><trkpt lat="40.727965" lon="14.9092317"><ele>376.0</ele><time>2026-04-25T08:21:34.014Z</time></trkpt><trkpt lat="40.7279117" lon="14.9093167"><ele>376.0</ele><time>2026-04-25T08:21:35.019Z</time></trkpt><trkpt lat="40.7278617" lon="14.9093833"><ele>376.0</ele><time>2026-04-25T08:21:36.015Z</time></trkpt><trkpt lat="40.7277983" lon="14.909435"><ele>376.0</ele><time>2026-04-25T08:21:37.019Z</time></trkpt><trkpt lat="40.7277317" lon="14.909435"><ele>374.75</ele><time>2026-04-25T08:21:38.035Z</time></trkpt><trkpt lat="40.7276567" lon="14.90939"><ele>373.5</ele><time>2026-04-25T08:21:39.015Z</time></trkpt><trkpt lat="40.7275517" lon="14.9093"><ele>372.25</ele><time>2026-04-25T08:21:40.013Z</time></trkpt><trkpt lat="40.7274567" lon="14.9091933"><ele>371.0</ele><time>2026-04-25T08:21:41.023Z</time></trkpt><trkpt lat="40.7273667" lon="14.9090783"><ele>371.0</ele><time>2026-04-25T08:21:42.017Z</time></trkpt><trkpt lat="40.7272817" lon="14.909005"><ele>371.0</ele><time>2026-04-25T08:21:43.022Z</time></trkpt><trkpt lat="40.727195" lon="14.90894"><ele>371.0</ele><time>2026-04-25T08:21:44.042Z</time></trkpt><trkpt lat="40.7271033" lon="14.9088967"><ele>371.0</ele><time>2026-04-25T08:21:45.02Z</time></trkpt><trkpt lat="40.7270133" lon="14.9088683"><ele>371.0</ele><time>2026-04-25T08:21:46.012Z</time></trkpt><trkpt lat="40.726935" lon="14.908855"><ele>373.0</ele><time>2026-04-25T08:21:47.018Z</time></trkpt><trkpt lat="40.726855" lon="14.9088433"><ele>375.0</ele><time>2026-04-25T08:21:48.02Z</time></trkpt><trkpt lat="40.7267783" lon="14.908815"><ele>377.0</ele><time>2026-04-25T08:21:49.019Z</time></trkpt><trkpt lat="40.7267133" lon="14.9087383"><ele>379.0</ele><time>2026-04-25T08:21:50.028Z</time></trkpt><trkpt lat="40.7266367" lon="14.90865"><ele>381.0</ele><time>2026-04-25T08:21:51.016Z</time></trkpt><trkpt lat="40.726555" lon="14.908545"><ele>381.0</ele><time>2026-04-25T08:21:52.013Z</time></trkpt><trkpt lat="40.7264667" lon="14.90846"><ele>381.0</ele><time>2026-04-25T08:21:53.021Z</time></trkpt><trkpt lat="40.7263783" lon="14.9083667"><ele>381.0</ele><time>2026-04-25T08:21:54.011Z</time></trkpt><trkpt lat="40.72629" lon="14.9082767"><ele>381.0</ele><time>2026-04-25T08:21:55.018Z</time></trkpt><trkpt lat="40.7262083" lon="14.9081833"><ele>381.0</ele><time>2026-04-25T08:21:56.05Z</time></trkpt><trkpt lat="40.7261233" lon="14.9080833"><ele>377.4</ele><time>2026-04-25T08:21:57.014Z</time></trkpt><trkpt lat="40.7260383" lon="14.90798"><ele>373.8</ele><time>2026-04-25T08:21:58.019Z</time></trkpt><trkpt lat="40.72596" lon="14.90787"><ele>370.2</ele><time>2026-04-25T08:21:59.024Z</time></trkpt><trkpt lat="40.7258717" lon="14.9077883"><ele>366.59999999999997</ele><time>2026-04-25T08:22:00.013Z</time></trkpt><trkpt lat="40.7257883" lon="14.9077233"><ele>363.0</ele><time>2026-04-25T08:22:01.021Z</time></trkpt><trkpt lat="40.7256933" lon="14.907685"><ele>363.0</ele><time>2026-04-25T08:22:02.053Z</time></trkpt><trkpt lat="40.725585" lon="14.9076817"><ele>363.0</ele><time>2026-04-25T08:22:03.02Z</time></trkpt><trkpt lat="40.72548" lon="14.90769"><ele>363.0</ele><time>2026-04-25T08:22:04.014Z</time></trkpt><trkpt lat="40.72538" lon="14.9077117"><ele>363.0</ele><time>2026-04-25T08:22:05.02Z</time></trkpt><trkpt lat="40.725285" lon="14.907735"><ele>363.0</ele><time>2026-04-25T08:22:06.013Z</time></trkpt><trkpt lat="40.725195" lon="14.907765"><ele>362.0</ele><time>2026-04-25T08:22:07.019Z</time></trkpt><trkpt lat="40.72511" lon="14.907785"><ele>361.0</ele><time>2026-04-25T08:22:08.03Z</time></trkpt><trkpt lat="40.7250233" lon="14.907785"><ele>360.0</ele><time>2026-04-25T08:22:09.014Z</time></trkpt><trkpt lat="40.7249383" lon="14.907775"><ele>359.0</ele><time>2026-04-25T08:22:10.014Z</time></trkpt><trkpt lat="40.7248517" lon="14.9076783"><ele>358.0</ele><time>2026-04-25T08:22:11.019Z</time></trkpt><trkpt lat="40.72476" lon="14.9076033"><ele>352.2</ele><time>2026-04-25T08:22:12.017Z</time></trkpt><trkpt lat="40.7246683" lon="14.907535"><ele>346.4</ele><time>2026-04-25T08:22:13.019Z</time></trkpt><trkpt lat="40.7245733" lon="14.9074767"><ele>340.59999999999997</ele><time>2026-04-25T08:22:14.035Z</time></trkpt><trkpt lat="40.7244733" lon="14.9074333"><ele>334.79999999999995</ele><time>2026-04-25T08:22:15.021Z</time></trkpt><trkpt lat="40.7243733" lon="14.907395"><ele>329.0</ele><time>2026-04-25T08:22:16.011Z</time></trkpt><trkpt lat="40.7242817" lon="14.9073767"><ele>327.4</ele><time>2026-04-25T08:22:17.019Z</time></trkpt><trkpt lat="40.7241917" lon="14.907375"><ele>325.79999999999995</ele><time>2026-04-25T08:22:18.015Z</time></trkpt><trkpt lat="40.7241" lon="14.907395"><ele>324.20000000000005</ele><time>2026-04-25T08:22:19.02Z</time></trkpt><trkpt lat="40.72399" lon="14.907455"><ele>322.6</ele><time>2026-04-25T08:22:20.03Z</time></trkpt><trkpt lat="40.7239017" lon="14.9075017"><ele>321.0</ele><time>2026-04-25T08:22:21.02Z</time></trkpt><trkpt lat="40.7238217" lon="14.9075433"><ele>321.0</ele><time>2026-04-25T08:22:22.016Z</time></trkpt><trkpt lat="40.723745" lon="14.9075717"><ele>321.0</ele><time>2026-04-25T08:22:23.021Z</time></trkpt><trkpt lat="40.7236583" lon="14.9075883"><ele>321.0</ele><time>2026-04-25T08:22:24.017Z</time></trkpt><trkpt lat="40.7235583" lon="14.907585"><ele>321.0</ele><time>2026-04-25T08:22:25.02Z</time></trkpt><trkpt lat="40.723445" lon="14.9075767"><ele>321.0</ele><time>2026-04-25T08:22:26.078Z</time></trkpt><trkpt lat="40.7233417" lon="14.9075833"><ele>324.0</ele><time>2026-04-25T08:22:27.015Z</time></trkpt><trkpt lat="40.7232417" lon="14.9075867"><ele>327.0</ele><time>2026-04-25T08:22:28.02Z</time></trkpt><trkpt lat="40.7231483" lon="14.9076183"><ele>330.0</ele><time>2026-04-25T08:22:29.017Z</time></trkpt><trkpt lat="40.723075" lon="14.9076517"><ele>333.0</ele><time>2026-04-25T08:22:30.018Z</time></trkpt><trkpt lat="40.723015" lon="14.9077283"><ele>336.0</ele><time>2026-04-25T08:22:31.015Z</time></trkpt><trkpt lat="40.7229517" lon="14.9078"><ele>339.0</ele><time>2026-04-25T08:22:32.055Z</time></trkpt><trkpt lat="40.722875" lon="14.9078483"><ele>339.0</ele><time>2026-04-25T08:22:33.02Z</time></trkpt><trkpt lat="40.722795" lon="14.9078917"><ele>339.0</ele><time>2026-04-25T08:22:34.009Z</time></trkpt><trkpt lat="40.722715" lon="14.907925"><ele>339.0</ele><time>2026-04-25T08:22:35.023Z</time></trkpt><trkpt lat="40.7226317" lon="14.907955"><ele>339.0</ele><time>2026-04-25T08:22:36.012Z</time></trkpt><trkpt lat="40.722555" lon="14.9079767"><ele>339.0</ele><time>2026-04-25T08:22:37.017Z</time></trkpt><trkpt lat="40.7224783" lon="14.90799"><ele>339.0</ele><time>2026-04-25T08:22:38.033Z</time></trkpt><trkpt lat="40.7224083" lon="14.9079883"><ele>335.6</ele><time>2026-04-25T08:22:39.02Z</time></trkpt><trkpt lat="40.7223367" lon="14.9079817"><ele>332.2</ele><time>2026-04-25T08:22:40.014Z</time></trkpt><trkpt lat="40.722215" lon="14.9079733"><ele>328.8</ele><time>2026-04-25T08:22:42.014Z</time></trkpt><trkpt lat="40.7221" lon="14.9079733"><ele>325.40000000000003</ele><time>2026-04-25T08:22:44.03Z</time></trkpt><trkpt lat="40.722005" lon="14.907975"><ele>322.0</ele><time>2026-04-25T08:22:46.009Z</time></trkpt><trkpt lat="40.721915" lon="14.90797"><ele>318.8333333333333</ele><time>2026-04-25T08:22:49.016Z</time></trkpt><trkpt lat="40.7218383" lon="14.9079767"><ele>315.66666666666663</ele><time>2026-04-25T08:22:51.016Z</time></trkpt><trkpt lat="40.7217233" lon="14.9080017"><ele>312.5</ele><time>2026-04-25T08:22:53.022Z</time></trkpt><trkpt lat="40.72165" lon="14.90804"><ele>309.3333333333333</ele><time>2026-04-25T08:22:54.02Z</time></trkpt><trkpt lat="40.7215817" lon="14.9081"><ele>306.1666666666667</ele><time>2026-04-25T08:22:55.017Z</time></trkpt><trkpt lat="40.7215167" lon="14.9081783"><ele>303.0</ele><time>2026-04-25T08:22:56.08Z</time></trkpt><trkpt lat="40.721455" lon="14.9082733"><ele>303.0</ele><time>2026-04-25T08:22:57.016Z</time></trkpt><trkpt lat="40.72141" lon="14.9083883"><ele>303.0</ele><time>2026-04-25T08:22:58.02Z</time></trkpt><trkpt lat="40.721375" lon="14.90852"><ele>303.0</ele><time>2026-04-25T08:22:59.014Z</time></trkpt><trkpt lat="40.7213417" lon="14.9086717"><ele>303.0</ele><time>2026-04-25T08:23:00.018Z</time></trkpt><trkpt lat="40.7213083" lon="14.9088"><ele>303.0</ele><time>2026-04-25T08:23:01.02Z</time></trkpt><trkpt lat="40.721255" lon="14.9088583"><ele>305.0</ele><time>2026-04-25T08:23:02.056Z</time></trkpt><trkpt lat="40.721155" lon="14.9088433"><ele>307.0</ele><time>2026-04-25T08:23:04.022Z</time></trkpt><trkpt lat="40.7210833" lon="14.9086967"><ele>309.0</ele><time>2026-04-25T08:23:06.014Z</time></trkpt><trkpt lat="40.7210567" lon="14.9085967"><ele>311.0</ele><time>2026-04-25T08:23:07.018Z</time></trkpt><trkpt lat="40.7210533" lon="14.9084983"><ele>313.0</ele><time>2026-04-25T08:23:08.035Z</time></trkpt><trkpt lat="40.7210433" lon="14.9083767"><ele>311.3333333333333</ele><time>2026-04-25T08:23:09.021Z</time></trkpt><trkpt lat="40.7210483" lon="14.908255"><ele>309.66666666666663</ele><time>2026-04-25T08:23:10.018Z</time></trkpt><trkpt lat="40.721065" lon="14.9081467"><ele>308.0</ele><time>2026-04-25T08:23:11.02Z</time></trkpt><trkpt lat="40.7210767" lon="14.908035"><ele>306.3333333333333</ele><time>2026-04-25T08:23:12.017Z</time></trkpt><trkpt lat="40.7210833" lon="14.9079333"><ele>304.6666666666667</ele><time>2026-04-25T08:23:13.02Z</time></trkpt><trkpt lat="40.721075" lon="14.907845"><ele>303.0</ele><time>2026-04-25T08:23:14.035Z</time></trkpt><trkpt lat="40.721055" lon="14.9077517"><ele>299.1666666666667</ele><time>2026-04-25T08:23:15.016Z</time></trkpt><trkpt lat="40.7210117" lon="14.9076583"><ele>295.3333333333333</ele><time>2026-04-25T08:23:16.019Z</time></trkpt><trkpt lat="40.7209617" lon="14.9075767"><ele>291.5</ele><time>2026-04-25T08:23:17.024Z</time></trkpt><trkpt lat="40.7208917" lon="14.9075167"><ele>287.66666666666663</ele><time>2026-04-25T08:23:18.013Z</time></trkpt><trkpt lat="40.7208067" lon="14.9074783"><ele>283.8333333333333</ele><time>2026-04-25T08:23:19.02Z</time></trkpt><trkpt lat="40.7207233" lon="14.9074383"><ele>280.0</ele><time>2026-04-25T08:23:20.033Z</time></trkpt><trkpt lat="40.7206333" lon="14.90739"><ele>276.25</ele><time>2026-04-25T08:23:21.016Z</time></trkpt><trkpt lat="40.720545" lon="14.9073233"><ele>272.5</ele><time>2026-04-25T08:23:22.013Z</time></trkpt><trkpt lat="40.7204383" lon="14.90723"><ele>268.75</ele><time>2026-04-25T08:23:23.024Z</time></trkpt><trkpt lat="40.7203217" lon="14.907125"><ele>265.0</ele><time>2026-04-25T08:23:24.021Z</time></trkpt><trkpt lat="40.7202167" lon="14.9070233"><ele>264.0</ele><time>2026-04-25T08:23:25.02Z</time></trkpt><trkpt lat="40.7201233" lon="14.9069367"><ele>263.0</ele><time>2026-04-25T08:23:26.041Z</time></trkpt><trkpt lat="40.7200433" lon="14.9068767"><ele>262.0</ele><time>2026-04-25T08:23:27.013Z</time></trkpt><trkpt lat="40.71998" lon="14.9068517"><ele>261.0</ele><time>2026-04-25T08:23:28.016Z</time></trkpt><trkpt lat="40.719865" lon="14.9068833"><ele>260.0</ele><time>2026-04-25T08:23:30.021Z</time></trkpt><trkpt lat="40.7198483" lon="14.9070483"><ele>260.0</ele><time>2026-04-25T08:23:31.018Z</time></trkpt><trkpt lat="40.719795" lon="14.9071633"><ele>260.0</ele><time>2026-04-25T08:23:32.058Z</time></trkpt><trkpt lat="40.7197367" lon="14.9072967"><ele>260.0</ele><time>2026-04-25T08:23:33.015Z</time></trkpt><trkpt lat="40.7196767" lon="14.9074417"><ele>260.0</ele><time>2026-04-25T08:23:34.022Z</time></trkpt><trkpt lat="40.7196283" lon="14.907595"><ele>260.4</ele><time>2026-04-25T08:23:35.022Z</time></trkpt><trkpt lat="40.7195817" lon="14.9077367"><ele>260.8</ele><time>2026-04-25T08:23:36.018Z</time></trkpt><trkpt lat="40.719545" lon="14.907855"><ele>261.2</ele><time>2026-04-25T08:23:37.019Z</time></trkpt><trkpt lat="40.71951" lon="14.907955"><ele>261.6</ele><time>2026-04-25T08:23:38.028Z</time></trkpt><trkpt lat="40.7194517" lon="14.9080183"><ele>262.0</ele><time>2026-04-25T08:23:39.011Z</time></trkpt><trkpt lat="40.71936" lon="14.9080083"><ele>259.8</ele><time>2026-04-25T08:23:40.01Z</time></trkpt><trkpt lat="40.719255" lon="14.90799"><ele>257.6</ele><time>2026-04-25T08:23:41.018Z</time></trkpt><trkpt lat="40.7191583" lon="14.907995"><ele>255.40000000000003</ele><time>2026-04-25T08:23:42.01Z</time></trkpt><trkpt lat="40.7190583" lon="14.9080033"><ele>253.20000000000002</ele><time>2026-04-25T08:23:43.015Z</time></trkpt><trkpt lat="40.7189633" lon="14.9080267"><ele>251.0</ele><time>2026-04-25T08:23:44.031Z</time></trkpt><trkpt lat="40.7188767" lon="14.90806"><ele>251.00000000000003</ele><time>2026-04-25T08:23:45.014Z</time></trkpt><trkpt lat="40.718785" lon="14.908085"><ele>251.0</ele><time>2026-04-25T08:23:46.015Z</time></trkpt><trkpt lat="40.7186967" lon="14.90809"><ele>251.0</ele><time>2026-04-25T08:23:47.019Z</time></trkpt><trkpt lat="40.7186167" lon="14.908065"><ele>251.0</ele><time>2026-04-25T08:23:48.014Z</time></trkpt><trkpt lat="40.7185317" lon="14.90805"><ele>251.00000000000003</ele><time>2026-04-25T08:23:49.024Z</time></trkpt><trkpt lat="40.7184333" lon="14.908045"><ele>251.0</ele><time>2026-04-25T08:23:50.032Z</time></trkpt><trkpt lat="40.7183283" lon="14.90806"><ele>249.25</ele><time>2026-04-25T08:23:51.017Z</time></trkpt><trkpt lat="40.7182133" lon="14.908075"><ele>247.5</ele><time>2026-04-25T08:23:52.012Z</time></trkpt><trkpt lat="40.7180917" lon="14.90808"><ele>245.75</ele><time>2026-04-25T08:23:53.022Z</time></trkpt><trkpt lat="40.717975" lon="14.9081083"><ele>244.0</ele><time>2026-04-25T08:23:54.014Z</time></trkpt><trkpt lat="40.7178517" lon="14.9081417"><ele>244.25</ele><time>2026-04-25T08:23:55.023Z</time></trkpt><trkpt lat="40.717735" lon="14.9081883"><ele>244.5</ele><time>2026-04-25T08:23:56.077Z</time></trkpt><trkpt lat="40.7176217" lon="14.908225"><ele>244.75</ele><time>2026-04-25T08:23:57.017Z</time></trkpt><trkpt lat="40.7175067" lon="14.9082467"><ele>245.0</ele><time>2026-04-25T08:23:58.016Z</time></trkpt><trkpt lat="40.717395" lon="14.90826"><ele>245.0</ele><time>2026-04-25T08:23:59.018Z</time></trkpt><trkpt lat="40.7172867" lon="14.9082733"><ele>245.0</ele><time>2026-04-25T08:24:00.012Z</time></trkpt><trkpt lat="40.7171983" lon="14.9082817"><ele>245.0</ele><time>2026-04-25T08:24:01.018Z</time></trkpt><trkpt lat="40.7171267" lon="14.9082967"><ele>245.0</ele><time>2026-04-25T08:24:02.06Z</time></trkpt><trkpt lat="40.7170067" lon="14.9083267"><ele>245.0</ele><time>2026-04-25T08:24:04.009Z</time></trkpt><trkpt lat="40.7169267" lon="14.90841"><ele>245.33333333333334</ele><time>2026-04-25T08:24:06.015Z</time></trkpt><trkpt lat="40.7169217" lon="14.9085467"><ele>245.66666666666669</ele><time>2026-04-25T08:24:08.027Z</time></trkpt><trkpt lat="40.7169133" lon="14.90863"><ele>246.0</ele><time>2026-04-25T08:24:09.012Z</time></trkpt><trkpt lat="40.7169133" lon="14.9087433"><ele>246.33333333333331</ele><time>2026-04-25T08:24:10.018Z</time></trkpt><trkpt lat="40.7169067" lon="14.9088567"><ele>246.66666666666666</ele><time>2026-04-25T08:24:11.02Z</time></trkpt><trkpt lat="40.7169117" lon="14.908975"><ele>247.0</ele><time>2026-04-25T08:24:12.016Z</time></trkpt><trkpt lat="40.716915" lon="14.9090817"><ele>247.0</ele><time>2026-04-25T08:24:13.014Z</time></trkpt><trkpt lat="40.7169217" lon="14.909175"><ele>247.0</ele><time>2026-04-25T08:24:14.036Z</time></trkpt><trkpt lat="40.71694" lon="14.9092783"><ele>247.0</ele><time>2026-04-25T08:24:15.019Z</time></trkpt><trkpt lat="40.7169667" lon="14.90939"><ele>247.0</ele><time>2026-04-25T08:24:16.016Z</time></trkpt><trkpt lat="40.7170167" lon="14.909525"><ele>247.0</ele><time>2026-04-25T08:24:17.023Z</time></trkpt><trkpt lat="40.7170817" lon="14.9096817"><ele>245.75</ele><time>2026-04-25T08:24:18.021Z</time></trkpt><trkpt lat="40.7171483" lon="14.90982"><ele>244.5</ele><time>2026-04-25T08:24:19.023Z</time></trkpt><trkpt lat="40.7171917" lon="14.9099567"><ele>243.25</ele><time>2026-04-25T08:24:20.032Z</time></trkpt><trkpt lat="40.7172317" lon="14.9101083"><ele>242.0</ele><time>2026-04-25T08:24:21.014Z</time></trkpt><trkpt lat="40.7172483" lon="14.9102583"><ele>242.0</ele><time>2026-04-25T08:24:22.013Z</time></trkpt><trkpt lat="40.7172533" lon="14.9104417"><ele>242.0</ele><time>2026-04-25T08:24:23.017Z</time></trkpt><trkpt lat="40.7172333" lon="14.910645"><ele>242.0</ele><time>2026-04-25T08:24:24.015Z</time></trkpt><trkpt lat="40.7172183" lon="14.9107833"><ele>242.0</ele><time>2026-04-25T08:24:25.023Z</time></trkpt><trkpt lat="40.717195" lon="14.9109133"><ele>242.39999999999998</ele><time>2026-04-25T08:24:26.082Z</time></trkpt><trkpt lat="40.7171767" lon="14.911045"><ele>242.79999999999998</ele><time>2026-04-25T08:24:27.017Z</time></trkpt><trkpt lat="40.71717" lon="14.91118"><ele>243.2</ele><time>2026-04-25T08:24:28.019Z</time></trkpt><trkpt lat="40.717165" lon="14.9113217"><ele>243.6</ele><time>2026-04-25T08:24:29.021Z</time></trkpt><trkpt lat="40.717165" lon="14.9114683"><ele>244.0</ele><time>2026-04-25T08:24:30.017Z</time></trkpt><trkpt lat="40.7171667" lon="14.9116067"><ele>244.39999999999998</ele><time>2026-04-25T08:24:31.016Z</time></trkpt><trkpt lat="40.71717" lon="14.9117583"><ele>244.79999999999998</ele><time>2026-04-25T08:24:32.058Z</time></trkpt><trkpt lat="40.7171667" lon="14.911905"><ele>245.20000000000002</ele><time>2026-04-25T08:24:33.012Z</time></trkpt><trkpt lat="40.7171567" lon="14.91205"><ele>245.60000000000002</ele><time>2026-04-25T08:24:34.011Z</time></trkpt><trkpt lat="40.717145" lon="14.912175"><ele>246.0</ele><time>2026-04-25T08:24:35.015Z</time></trkpt><trkpt lat="40.71713" lon="14.9122783"><ele>246.0</ele><time>2026-04-25T08:24:36.014Z</time></trkpt><trkpt lat="40.7171217" lon="14.912375"><ele>246.0</ele><time>2026-04-25T08:24:37.021Z</time></trkpt><trkpt lat="40.71712" lon="14.9124783"><ele>246.0</ele><time>2026-04-25T08:24:38.034Z</time></trkpt><trkpt lat="40.7171233" lon="14.9125933"><ele>246.0</ele><time>2026-04-25T08:24:39.015Z</time></trkpt><trkpt lat="40.7171183" lon="14.912715"><ele>246.0</ele><time>2026-04-25T08:24:40.014Z</time></trkpt><trkpt lat="40.7170967" lon="14.9128367"><ele>246.0</ele><time>2026-04-25T08:24:41.019Z</time></trkpt><trkpt lat="40.7170583" lon="14.9129633"><ele>247.20000000000002</ele><time>2026-04-25T08:24:42.014Z</time></trkpt><trkpt lat="40.717005" lon="14.9130883"><ele>248.40000000000003</ele><time>2026-04-25T08:24:43.025Z</time></trkpt><trkpt lat="40.71695" lon="14.9131967"><ele>249.6</ele><time>2026-04-25T08:24:44.032Z</time></trkpt><trkpt lat="40.7168983" lon="14.9132883"><ele>250.8</ele><time>2026-04-25T08:24:45.017Z</time></trkpt><trkpt lat="40.7168483" lon="14.913385"><ele>252.0</ele><time>2026-04-25T08:24:46.013Z</time></trkpt><trkpt lat="40.7168017" lon="14.9134867"><ele>246.25</ele><time>2026-04-25T08:24:47.016Z</time></trkpt><trkpt lat="40.71675" lon="14.91361"><ele>240.5</ele><time>2026-04-25T08:24:48.023Z</time></trkpt><trkpt lat="40.7166867" lon="14.913745"><ele>234.75</ele><time>2026-04-25T08:24:49.016Z</time></trkpt><trkpt lat="40.7166117" lon="14.9138867"><ele>229.0</ele><time>2026-04-25T08:24:50.029Z</time></trkpt><trkpt lat="40.7165267" lon="14.9140333"><ele>229.0</ele><time>2026-04-25T08:24:51.015Z</time></trkpt><trkpt lat="40.71644" lon="14.914175"><ele>229.0</ele><time>2026-04-25T08:24:52.015Z</time></trkpt><trkpt lat="40.7163533" lon="14.9143083"><ele>229.0</ele><time>2026-04-25T08:24:53.016Z</time></trkpt><trkpt lat="40.7162733" lon="14.9144433"><ele>229.0</ele><time>2026-04-25T08:24:54.015Z</time></trkpt><trkpt lat="40.7162033" lon="14.91459"><ele>230.0</ele><time>2026-04-25T08:24:55.021Z</time></trkpt><trkpt lat="40.7161533" lon="14.9147467"><ele>231.0</ele><time>2026-04-25T08:24:56.089Z</time></trkpt><trkpt lat="40.7161167" lon="14.9149117"><ele>232.0</ele><time>2026-04-25T08:24:57.011Z</time></trkpt><trkpt lat="40.7160883" lon="14.9150867"><ele>233.0</ele><time>2026-04-25T08:24:58.015Z</time></trkpt><trkpt lat="40.7160567" lon="14.9152617"><ele>228.25</ele><time>2026-04-25T08:24:59.017Z</time></trkpt><trkpt lat="40.7160167" lon="14.91543"><ele>223.5</ele><time>2026-04-25T08:25:00.017Z</time></trkpt><trkpt lat="40.7159783" lon="14.91559"><ele>218.75</ele><time>2026-04-25T08:25:01.018Z</time></trkpt><trkpt lat="40.71594" lon="14.91574"><ele>214.0</ele><time>2026-04-25T08:25:02.054Z</time></trkpt><trkpt lat="40.7159083" lon="14.9158833"><ele>214.79999999999998</ele><time>2026-04-25T08:25:03.016Z</time></trkpt><trkpt lat="40.71588" lon="14.916015"><ele>215.59999999999997</ele><time>2026-04-25T08:25:04.009Z</time></trkpt><trkpt lat="40.7158483" lon="14.9161383"><ele>216.4</ele><time>2026-04-25T08:25:05.016Z</time></trkpt><trkpt lat="40.715815" lon="14.9162633"><ele>217.2</ele><time>2026-04-25T08:25:06.015Z</time></trkpt><trkpt lat="40.7157783" lon="14.9163883"><ele>218.0</ele><time>2026-04-25T08:25:07.021Z</time></trkpt><trkpt lat="40.7157383" lon="14.916515"><ele>218.0</ele><time>2026-04-25T08:25:08.028Z</time></trkpt><trkpt lat="40.715695" lon="14.9166483"><ele>218.0</ele><time>2026-04-25T08:25:09.014Z</time></trkpt><trkpt lat="40.7156433" lon="14.9167733"><ele>218.0</ele><time>2026-04-25T08:25:10.015Z</time></trkpt><trkpt lat="40.715585" lon="14.9168967"><ele>218.0</ele><time>2026-04-25T08:25:11.014Z</time></trkpt><trkpt lat="40.71553" lon="14.91702"><ele>218.0</ele><time>2026-04-25T08:25:12.013Z</time></trkpt><trkpt lat="40.7154767" lon="14.9171467"><ele>219.0</ele><time>2026-04-25T08:25:13.014Z</time></trkpt><trkpt lat="40.715435" lon="14.917285"><ele>220.0</ele><time>2026-04-25T08:25:14.026Z</time></trkpt><trkpt lat="40.7154017" lon="14.9174333"><ele>221.0</ele><time>2026-04-25T08:25:15.008Z</time></trkpt><trkpt lat="40.71538" lon="14.9175883"><ele>222.0</ele><time>2026-04-25T08:25:16.014Z</time></trkpt><trkpt lat="40.7153733" lon="14.9177517"><ele>222.8</ele><time>2026-04-25T08:25:17.011Z</time></trkpt><trkpt lat="40.7153717" lon="14.9179083"><ele>223.6</ele><time>2026-04-25T08:25:18.01Z</time></trkpt><trkpt lat="40.7153617" lon="14.9180517"><ele>224.40000000000003</ele><time>2026-04-25T08:25:19.013Z</time></trkpt><trkpt lat="40.715325" lon="14.9181767"><ele>225.20000000000002</ele><time>2026-04-25T08:25:20.031Z</time></trkpt><trkpt lat="40.7152583" lon="14.9182717"><ele>226.0</ele><time>2026-04-25T08:25:21.015Z</time></trkpt><trkpt lat="40.715165" lon="14.91835"><ele>224.5</ele><time>2026-04-25T08:25:22.015Z</time></trkpt><trkpt lat="40.7150617" lon="14.91842"><ele>223.0</ele><time>2026-04-25T08:25:23.011Z</time></trkpt><trkpt lat="40.7149517" lon="14.918495"><ele>221.5</ele><time>2026-04-25T08:25:24.007Z</time></trkpt><trkpt lat="40.7148367" lon="14.918575"><ele>220.0</ele><time>2026-04-25T08:25:25.011Z</time></trkpt><trkpt lat="40.71473" lon="14.9186667"><ele>220.0</ele><time>2026-04-25T08:25:26.078Z</time></trkpt><trkpt lat="40.7146233" lon="14.918755"><ele>220.0</ele><time>2026-04-25T08:25:27.006Z</time></trkpt><trkpt lat="40.7145167" lon="14.918845"><ele>220.0</ele><time>2026-04-25T08:25:28.014Z</time></trkpt><trkpt lat="40.71441" lon="14.9189333"><ele>220.0</ele><time>2026-04-25T08:25:29.017Z</time></trkpt><trkpt lat="40.7143083" lon="14.9190267"><ele>219.5</ele><time>2026-04-25T08:25:30.018Z</time></trkpt><trkpt lat="40.714205" lon="14.9191217"><ele>219.0</ele><time>2026-04-25T08:25:31.012Z</time></trkpt><trkpt lat="40.7141083" lon="14.919235"><ele>218.5</ele><time>2026-04-25T08:25:32.049Z</time></trkpt><trkpt lat="40.71403" lon="14.9193783"><ele>218.0</ele><time>2026-04-25T08:25:33.011Z</time></trkpt><trkpt lat="40.7139583" lon="14.91954"><ele>218.0</ele><time>2026-04-25T08:25:34.011Z</time></trkpt><trkpt lat="40.7138933" lon="14.9197083"><ele>218.0</ele><time>2026-04-25T08:25:35.014Z</time></trkpt><trkpt lat="40.7138217" lon="14.9198817"><ele>218.0</ele><time>2026-04-25T08:25:36.01Z</time></trkpt><trkpt lat="40.7137633" lon="14.9200567"><ele>218.0</ele><time>2026-04-25T08:25:37.023Z</time></trkpt><trkpt lat="40.7137367" lon="14.9202383"><ele>217.75</ele><time>2026-04-25T08:25:38.035Z</time></trkpt><trkpt lat="40.7137567" lon="14.9204"><ele>217.5</ele><time>2026-04-25T08:25:39.01Z</time></trkpt><trkpt lat="40.7137933" lon="14.92057"><ele>217.25</ele><time>2026-04-25T08:25:40.009Z</time></trkpt><trkpt lat="40.7138383" lon="14.9207467"><ele>217.0</ele><time>2026-04-25T08:25:41.015Z</time></trkpt><trkpt lat="40.7138917" lon="14.9209183"><ele>215.75</ele><time>2026-04-25T08:25:42.016Z</time></trkpt><trkpt lat="40.713945" lon="14.9210983"><ele>214.5</ele><time>2026-04-25T08:25:43.011Z</time></trkpt><trkpt lat="40.7139983" lon="14.9212733"><ele>213.25</ele><time>2026-04-25T08:25:44.028Z</time></trkpt><trkpt lat="40.7140383" lon="14.9214483"><ele>212.0</ele><time>2026-04-25T08:25:45.014Z</time></trkpt><trkpt lat="40.714065" lon="14.92162"><ele>212.75</ele><time>2026-04-25T08:25:46.012Z</time></trkpt><trkpt lat="40.7140833" lon="14.921785"><ele>213.5</ele><time>2026-04-25T08:25:47.014Z</time></trkpt><trkpt lat="40.7140767" lon="14.921955"><ele>214.25</ele><time>2026-04-25T08:25:48.014Z</time></trkpt><trkpt lat="40.714045" lon="14.9221317"><ele>215.0</ele><time>2026-04-25T08:25:49.025Z</time></trkpt><trkpt lat="40.71399" lon="14.9223183"><ele>215.0</ele><time>2026-04-25T08:25:50.031Z</time></trkpt><trkpt lat="40.713935" lon="14.9225033"><ele>215.0</ele><time>2026-04-25T08:25:51.017Z</time></trkpt><trkpt lat="40.7138717" lon="14.9226917"><ele>215.0</ele><time>2026-04-25T08:25:52.015Z</time></trkpt><trkpt lat="40.7138033" lon="14.9228767"><ele>217.0</ele><time>2026-04-25T08:25:53.013Z</time></trkpt><trkpt lat="40.713735" lon="14.923055"><ele>219.0</ele><time>2026-04-25T08:25:54.016Z</time></trkpt><trkpt lat="40.713675" lon="14.9232267"><ele>221.0</ele><time>2026-04-25T08:25:55.014Z</time></trkpt><trkpt lat="40.7136267" lon="14.923395"><ele>223.0</ele><time>2026-04-25T08:25:56.029Z</time></trkpt><trkpt lat="40.7136017" lon="14.923575"><ele>223.25</ele><time>2026-04-25T08:25:57.015Z</time></trkpt><trkpt lat="40.7135883" lon="14.9237633"><ele>223.5</ele><time>2026-04-25T08:25:58.015Z</time></trkpt><trkpt lat="40.7135833" lon="14.9239517"><ele>223.75</ele><time>2026-04-25T08:25:59.019Z</time></trkpt><trkpt lat="40.7135783" lon="14.9241433"><ele>224.0</ele><time>2026-04-25T08:26:00.013Z</time></trkpt><trkpt lat="40.713575" lon="14.9243317"><ele>220.75</ele><time>2026-04-25T08:26:01.019Z</time></trkpt><trkpt lat="40.7135683" lon="14.9245183"><ele>217.5</ele><time>2026-04-25T08:26:02.057Z</time></trkpt><trkpt lat="40.7135583" lon="14.924695"><ele>214.25</ele><time>2026-04-25T08:26:03.012Z</time></trkpt><trkpt lat="40.7135567" lon="14.9248533"><ele>211.0</ele><time>2026-04-25T08:26:04.012Z</time></trkpt><trkpt lat="40.7135633" lon="14.925005"><ele>212.0</ele><time>2026-04-25T08:26:05.027Z</time></trkpt><trkpt lat="40.7135833" lon="14.9251483"><ele>213.0</ele><time>2026-04-25T08:26:06.014Z</time></trkpt><trkpt lat="40.7136217" lon="14.9252767"><ele>214.00000000000003</ele><time>2026-04-25T08:26:07.018Z</time></trkpt><trkpt lat="40.7136867" lon="14.9253917"><ele>215.0</ele><time>2026-04-25T08:26:08.027Z</time></trkpt><trkpt lat="40.71377" lon="14.92549"><ele>216.0</ele><time>2026-04-25T08:26:09.012Z</time></trkpt><trkpt lat="40.7138667" lon="14.92558"><ele>216.0</ele><time>2026-04-25T08:26:10.012Z</time></trkpt><trkpt lat="40.71397" lon="14.92567"><ele>216.0</ele><time>2026-04-25T08:26:11.02Z</time></trkpt><trkpt lat="40.71407" lon="14.9257617"><ele>216.0</ele><time>2026-04-25T08:26:12.012Z</time></trkpt><trkpt lat="40.7141433" lon="14.925865"><ele>216.0</ele><time>2026-04-25T08:26:13.021Z</time></trkpt><trkpt lat="40.714195" lon="14.9259833"><ele>216.0</ele><time>2026-04-25T08:26:14.03Z</time></trkpt><trkpt lat="40.7142033" lon="14.9261283"><ele>216.0</ele><time>2026-04-25T08:26:15.01Z</time></trkpt><trkpt lat="40.7141917" lon="14.9262717"><ele>216.0</ele><time>2026-04-25T08:26:16.013Z</time></trkpt><trkpt lat="40.7141617" lon="14.92644"><ele>216.0</ele><time>2026-04-25T08:26:17.021Z</time></trkpt><trkpt lat="40.7141417" lon="14.9266167"><ele>216.5</ele><time>2026-04-25T08:26:18.019Z</time></trkpt><trkpt lat="40.71413" lon="14.92679"><ele>217.0</ele><time>2026-04-25T08:26:19.018Z</time></trkpt><trkpt lat="40.714135" lon="14.9269517"><ele>217.5</ele><time>2026-04-25T08:26:20.031Z</time></trkpt><trkpt lat="40.7141433" lon="14.9271"><ele>218.0</ele><time>2026-04-25T08:26:21.015Z</time></trkpt><trkpt lat="40.71414" lon="14.92725"><ele>218.0</ele><time>2026-04-25T08:26:22.013Z</time></trkpt><trkpt lat="40.7141133" lon="14.9273867"><ele>218.0</ele><time>2026-04-25T08:26:23.019Z</time></trkpt><trkpt lat="40.714065" lon="14.9275167"><ele>218.0</ele><time>2026-04-25T08:26:24.019Z</time></trkpt><trkpt lat="40.7139933" lon="14.9276267"><ele>218.0</ele><time>2026-04-25T08:26:25.014Z</time></trkpt><trkpt lat="40.7139067" lon="14.9277467"><ele>219.0</ele><time>2026-04-25T08:26:26.075Z</time></trkpt><trkpt lat="40.7138217" lon="14.927885"><ele>220.0</ele><time>2026-04-25T08:26:27.014Z</time></trkpt><trkpt lat="40.7137483" lon="14.928035"><ele>221.0</ele><time>2026-04-25T08:26:28.008Z</time></trkpt><trkpt lat="40.7136933" lon="14.9282117"><ele>222.0</ele><time>2026-04-25T08:26:29.015Z</time></trkpt><trkpt lat="40.713655" lon="14.9284067"><ele>222.0</ele><time>2026-04-25T08:26:30.014Z</time></trkpt><trkpt lat="40.7136233" lon="14.9286183"><ele>222.0</ele><time>2026-04-25T08:26:31.018Z</time></trkpt><trkpt lat="40.7135917" lon="14.9288383"><ele>222.0</ele><time>2026-04-25T08:26:32.061Z</time></trkpt><trkpt lat="40.7135567" lon="14.9290483"><ele>219.5</ele><time>2026-04-25T08:26:33.025Z</time></trkpt><trkpt lat="40.7135283" lon="14.9292367"><ele>217.0</ele><time>2026-04-25T08:26:34.012Z</time></trkpt><trkpt lat="40.7135" lon="14.9294067"><ele>214.5</ele><time>2026-04-25T08:26:35.024Z</time></trkpt><trkpt lat="40.7134717" lon="14.92956"><ele>212.0</ele><time>2026-04-25T08:26:36.015Z</time></trkpt><trkpt lat="40.713445" lon="14.9296967"><ele>212.0</ele><time>2026-04-25T08:26:37.016Z</time></trkpt><trkpt lat="40.713415" lon="14.929825"><ele>212.0</ele><time>2026-04-25T08:26:38.031Z</time></trkpt><trkpt lat="40.71337" lon="14.929945"><ele>212.0</ele><time>2026-04-25T08:26:39.015Z</time></trkpt><trkpt lat="40.7133083" lon="14.9300567"><ele>212.0</ele><time>2026-04-25T08:26:40.013Z</time></trkpt><trkpt lat="40.71324" lon="14.93016"><ele>212.0</ele><time>2026-04-25T08:26:41.009Z</time></trkpt><trkpt lat="40.7131783" lon="14.9302633"><ele>212.8</ele><time>2026-04-25T08:26:42.015Z</time></trkpt><trkpt lat="40.71313" lon="14.9303817"><ele>213.6</ele><time>2026-04-25T08:26:43.017Z</time></trkpt><trkpt lat="40.7131017" lon="14.9305083"><ele>214.40000000000003</ele><time>2026-04-25T08:26:44.031Z</time></trkpt><trkpt lat="40.71309" lon="14.93063"><ele>215.20000000000002</ele><time>2026-04-25T08:26:45.018Z</time></trkpt><trkpt lat="40.713095" lon="14.9307467"><ele>216.0</ele><time>2026-04-25T08:26:46.011Z</time></trkpt><trkpt lat="40.7131117" lon="14.9308667"><ele>216.4</ele><time>2026-04-25T08:26:47.022Z</time></trkpt><trkpt lat="40.7131417" lon="14.9309833"><ele>216.8</ele><time>2026-04-25T08:26:48.023Z</time></trkpt><trkpt lat="40.7131783" lon="14.931095"><ele>217.20000000000002</ele><time>2026-04-25T08:26:49.022Z</time></trkpt><trkpt lat="40.71322" lon="14.9312217"><ele>217.60000000000002</ele><time>2026-04-25T08:26:50.026Z</time></trkpt><trkpt lat="40.7132433" lon="14.931355"><ele>218.0</ele><time>2026-04-25T08:26:51.013Z</time></trkpt><trkpt lat="40.7132467" lon="14.9314983"><ele>218.0</ele><time>2026-04-25T08:26:52.012Z</time></trkpt><trkpt lat="40.7132233" lon="14.931655"><ele>218.0</ele><time>2026-04-25T08:26:53.02Z</time></trkpt><trkpt lat="40.7131783" lon="14.9318383"><ele>218.0</ele><time>2026-04-25T08:26:54.011Z</time></trkpt><trkpt lat="40.7131067" lon="14.9320333"><ele>218.0</ele><time>2026-04-25T08:26:55.021Z</time></trkpt><trkpt lat="40.713025" lon="14.9322417"><ele>221.66666666666669</ele><time>2026-04-25T08:26:56.078Z</time></trkpt><trkpt lat="40.7129383" lon="14.93244"><ele>225.33333333333331</ele><time>2026-04-25T08:26:57.016Z</time></trkpt><trkpt lat="40.71285" lon="14.9326183"><ele>229.0</ele><time>2026-04-25T08:26:58.015Z</time></trkpt><trkpt lat="40.712755" lon="14.9327817"><ele>223.5</ele><time>2026-04-25T08:26:59.023Z</time></trkpt><trkpt lat="40.7126567" lon="14.9329283"><ele>218.0</ele><time>2026-04-25T08:27:00.014Z</time></trkpt><trkpt lat="40.712565" lon="14.9330767"><ele>212.5</ele><time>2026-04-25T08:27:01.019Z</time></trkpt><trkpt lat="40.712495" lon="14.933225"><ele>207.0</ele><time>2026-04-25T08:27:02.06Z</time></trkpt><trkpt lat="40.7124533" lon="14.9333833"><ele>206.75</ele><time>2026-04-25T08:27:03.016Z</time></trkpt><trkpt lat="40.71242" lon="14.9335567"><ele>206.5</ele><time>2026-04-25T08:27:04.019Z</time></trkpt><trkpt lat="40.7124017" lon="14.9337367"><ele>206.25</ele><time>2026-04-25T08:27:05.016Z</time></trkpt><trkpt lat="40.7123783" lon="14.93391"><ele>206.0</ele><time>2026-04-25T08:27:06.016Z</time></trkpt><trkpt lat="40.7123417" lon="14.93408"><ele>205.25</ele><time>2026-04-25T08:27:07.014Z</time></trkpt><trkpt lat="40.7122883" lon="14.9342467"><ele>204.5</ele><time>2026-04-25T08:27:08.027Z</time></trkpt><trkpt lat="40.712215" lon="14.9343917"><ele>203.75</ele><time>2026-04-25T08:27:09.012Z</time></trkpt><trkpt lat="40.7121317" lon="14.93451"><ele>203.0</ele><time>2026-04-25T08:27:10.018Z</time></trkpt><trkpt lat="40.7120633" lon="14.9346267"><ele>203.0</ele><time>2026-04-25T08:27:11.019Z</time></trkpt><trkpt lat="40.7120117" lon="14.9347417"><ele>203.0</ele><time>2026-04-25T08:27:12.018Z</time></trkpt><trkpt lat="40.7120233" lon="14.9348817"><ele>203.0</ele><time>2026-04-25T08:27:13.016Z</time></trkpt><trkpt lat="40.7120683" lon="14.9350283"><ele>203.0</ele><time>2026-04-25T08:27:14.029Z</time></trkpt><trkpt lat="40.7121217" lon="14.9351717"><ele>203.0</ele><time>2026-04-25T08:27:15.021Z</time></trkpt><trkpt lat="40.7122" lon="14.935325"><ele>200.66666666666669</ele><time>2026-04-25T08:27:16.016Z</time></trkpt><trkpt lat="40.7123183" lon="14.935485"><ele>198.33333333333331</ele><time>2026-04-25T08:27:17.025Z</time></trkpt><trkpt lat="40.7124367" lon="14.93564"><ele>196.0</ele><time>2026-04-25T08:27:18.019Z</time></trkpt><trkpt lat="40.7125583" lon="14.93581"><ele>194.0</ele><time>2026-04-25T08:27:19.023Z</time></trkpt><trkpt lat="40.712675" lon="14.9359817"><ele>192.0</ele><time>2026-04-25T08:27:20.03Z</time></trkpt><trkpt lat="40.7127867" lon="14.936145"><ele>190.0</ele><time>2026-04-25T08:27:21.011Z</time></trkpt><trkpt lat="40.7128983" lon="14.9362917"><ele>193.25</ele><time>2026-04-25T08:27:22.01Z</time></trkpt><trkpt lat="40.7130083" lon="14.9364267"><ele>196.5</ele><time>2026-04-25T08:27:23.016Z</time></trkpt><trkpt lat="40.7131067" lon="14.93657"><ele>199.75</ele><time>2026-04-25T08:27:24.015Z</time></trkpt><trkpt lat="40.713185" lon="14.9367317"><ele>203.0</ele><time>2026-04-25T08:27:25.024Z</time></trkpt><trkpt lat="40.713245" lon="14.936905"><ele>203.0</ele><time>2026-04-25T08:27:26.076Z</time></trkpt><trkpt lat="40.7132967" lon="14.9370983"><ele>203.0</ele><time>2026-04-25T08:27:27.01Z</time></trkpt><trkpt lat="40.713325" lon="14.9373133"><ele>203.0</ele><time>2026-04-25T08:27:28.012Z</time></trkpt><trkpt lat="40.713355" lon="14.9375217"><ele>200.0</ele><time>2026-04-25T08:27:29.013Z</time></trkpt><trkpt lat="40.7133817" lon="14.9377217"><ele>197.0</ele><time>2026-04-25T08:27:30.012Z</time></trkpt><trkpt lat="40.7134067" lon="14.9379183"><ele>194.0</ele><time>2026-04-25T08:27:31.015Z</time></trkpt><trkpt lat="40.7134333" lon="14.938105"><ele>191.0</ele><time>2026-04-25T08:27:32.058Z</time></trkpt><trkpt lat="40.7134633" lon="14.93829"><ele>189.5</ele><time>2026-04-25T08:27:33.011Z</time></trkpt><trkpt lat="40.71349" lon="14.9384717"><ele>188.0</ele><time>2026-04-25T08:27:34.017Z</time></trkpt><trkpt lat="40.71351" lon="14.9386433"><ele>186.5</ele><time>2026-04-25T08:27:35.026Z</time></trkpt><trkpt lat="40.7135233" lon="14.93881"><ele>185.0</ele><time>2026-04-25T08:27:36.017Z</time></trkpt><trkpt lat="40.7135333" lon="14.9389633"><ele>185.0</ele><time>2026-04-25T08:27:37.019Z</time></trkpt><trkpt lat="40.7135283" lon="14.9391067"><ele>185.0</ele><time>2026-04-25T08:27:38.033Z</time></trkpt><trkpt lat="40.713515" lon="14.93924"><ele>185.0</ele><time>2026-04-25T08:27:39.016Z</time></trkpt><trkpt lat="40.7134967" lon="14.9393717"><ele>185.0</ele><time>2026-04-25T08:27:40.019Z</time></trkpt><trkpt lat="40.7134683" lon="14.9394967"><ele>185.0</ele><time>2026-04-25T08:27:41.014Z</time></trkpt><trkpt lat="40.7134217" lon="14.9396017"><ele>184.4</ele><time>2026-04-25T08:27:42.014Z</time></trkpt><trkpt lat="40.7133733" lon="14.9396883"><ele>183.8</ele><time>2026-04-25T08:27:43.022Z</time></trkpt><trkpt lat="40.7132933" lon="14.9397867"><ele>183.2</ele><time>2026-04-25T08:27:45.016Z</time></trkpt><trkpt lat="40.7132717" lon="14.9399133"><ele>182.6</ele><time>2026-04-25T08:27:58.015Z</time></trkpt><trkpt lat="40.713325" lon="14.940105"><ele>182.0</ele><time>2026-04-25T08:28:43.018Z</time></trkpt><trkpt lat="40.7132417" lon="14.9401633"><ele>181.66666666666666</ele><time>2026-04-25T08:29:28.005Z</time></trkpt><trkpt lat="40.7131867" lon="14.9402467"><ele>181.33333333333331</ele><time>2026-04-25T08:29:46.013Z</time></trkpt><trkpt lat="40.7131083" lon="14.94031"><ele>181.0</ele><time>2026-04-25T08:29:49.014Z</time></trkpt><trkpt lat="40.713025" lon="14.940345"><ele>180.66666666666666</ele><time>2026-04-25T08:29:51.016Z</time></trkpt><trkpt lat="40.7129983" lon="14.94045"><ele>180.33333333333334</ele><time>2026-04-25T08:29:56.079Z</time></trkpt><trkpt lat="40.71302" lon="14.9405333"><ele>180.0</ele><time>2026-04-25T08:29:57.006Z</time></trkpt><trkpt lat="40.713045" lon="14.9406383"><ele>180.0</ele><time>2026-04-25T08:29:58.004Z</time></trkpt><trkpt lat="40.7130667" lon="14.94076"><ele>180.0</ele><time>2026-04-25T08:29:59.012Z</time></trkpt><trkpt lat="40.71309" lon="14.9408783"><ele>180.0</ele><time>2026-04-25T08:30:00.011Z</time></trkpt><trkpt lat="40.7131117" lon="14.9409833"><ele>180.0</ele><time>2026-04-25T08:30:01.012Z</time></trkpt><trkpt lat="40.7131417" lon="14.94109"><ele>180.0</ele><time>2026-04-25T08:30:02.06Z</time></trkpt><trkpt lat="40.71317" lon="14.9411967"><ele>180.0</ele><time>2026-04-25T08:30:03.007Z</time></trkpt><trkpt lat="40.713195" lon="14.9413083"><ele>179.16666666666666</ele><time>2026-04-25T08:30:04.01Z</time></trkpt><trkpt lat="40.71321" lon="14.9414083"><ele>178.33333333333334</ele><time>2026-04-25T08:30:05.014Z</time></trkpt><trkpt lat="40.713225" lon="14.941495"><ele>177.5</ele><time>2026-04-25T08:30:06.013Z</time></trkpt><trkpt lat="40.7132517" lon="14.9416367"><ele>176.66666666666669</ele><time>2026-04-25T08:30:08.027Z</time></trkpt><trkpt lat="40.7132667" lon="14.9417533"><ele>175.83333333333334</ele><time>2026-04-25T08:30:10.012Z</time></trkpt><trkpt lat="40.71327" lon="14.9418367"><ele>175.0</ele><time>2026-04-25T08:30:11.011Z</time></trkpt><trkpt lat="40.71328" lon="14.9419433"><ele>175.0</ele><time>2026-04-25T08:30:12.013Z</time></trkpt><trkpt lat="40.7132983" lon="14.942075"><ele>175.0</ele><time>2026-04-25T08:30:13.011Z</time></trkpt><trkpt lat="40.7133133" lon="14.942215"><ele>175.0</ele><time>2026-04-25T08:30:14.027Z</time></trkpt><trkpt lat="40.7133317" lon="14.94235"><ele>175.0</ele><time>2026-04-25T08:30:15.013Z</time></trkpt><trkpt lat="40.7133533" lon="14.9424717"><ele>175.0</ele><time>2026-04-25T08:30:16.013Z</time></trkpt><trkpt lat="40.7133833" lon="14.9425917"><ele>175.0</ele><time>2026-04-25T08:30:17.007Z</time></trkpt><trkpt lat="40.7134217" lon="14.9426967"><ele>175.0</ele><time>2026-04-25T08:30:18.01Z</time></trkpt><trkpt lat="40.7134667" lon="14.9427917"><ele>175.0</ele><time>2026-04-25T08:30:19.015Z</time></trkpt><trkpt lat="40.7135483" lon="14.9428017"><ele>175.0</ele><time>2026-04-25T08:30:20.029Z</time></trkpt><trkpt lat="40.71365" lon="14.9428117"><ele>175.0</ele><time>2026-04-25T08:30:21.008Z</time></trkpt><trkpt lat="40.7137667" lon="14.9427917"><ele>175.25</ele><time>2026-04-25T08:30:22.012Z</time></trkpt><trkpt lat="40.7138833" lon="14.94277"><ele>175.5</ele><time>2026-04-25T08:30:23.018Z</time></trkpt><trkpt lat="40.714" lon="14.94277"><ele>175.75</ele><time>2026-04-25T08:30:24.02Z</time></trkpt><trkpt lat="40.714115" lon="14.942795"><ele>176.0</ele><time>2026-04-25T08:30:25.017Z</time></trkpt><trkpt lat="40.7142167" lon="14.94285"><ele>176.0</ele><time>2026-04-25T08:30:26.067Z</time></trkpt><trkpt lat="40.714305" lon="14.9429333"><ele>176.0</ele><time>2026-04-25T08:30:27.01Z</time></trkpt><trkpt lat="40.7143733" lon="14.9430317"><ele>176.0</ele><time>2026-04-25T08:30:28.011Z</time></trkpt><trkpt lat="40.7144383" lon="14.9431433"><ele>176.0</ele><time>2026-04-25T08:30:29.015Z</time></trkpt><trkpt lat="40.71451" lon="14.9432433"><ele>176.0</ele><time>2026-04-25T08:30:30.012Z</time></trkpt><trkpt lat="40.7145933" lon="14.9433267"><ele>177.0</ele><time>2026-04-25T08:30:31.008Z</time></trkpt><trkpt lat="40.7146817" lon="14.9433867"><ele>178.0</ele><time>2026-04-25T08:30:32.032Z</time></trkpt><trkpt lat="40.7147783" lon="14.9433783"><ele>179.0</ele><time>2026-04-25T08:30:33.01Z</time></trkpt><trkpt lat="40.71487" lon="14.9433717"><ele>180.0</ele><time>2026-04-25T08:30:34.015Z</time></trkpt><trkpt lat="40.7149583" lon="14.9433567"><ele>181.0</ele><time>2026-04-25T08:30:35.011Z</time></trkpt><trkpt lat="40.7150333" lon="14.94334"><ele>181.20000000000002</ele><time>2026-04-25T08:30:36.025Z</time></trkpt><trkpt lat="40.7151117" lon="14.9433267"><ele>181.4</ele><time>2026-04-25T08:30:37.013Z</time></trkpt><trkpt lat="40.7151817" lon="14.9433417"><ele>181.6</ele><time>2026-04-25T08:30:38.032Z</time></trkpt><trkpt lat="40.715275" lon="14.9434617"><ele>181.8</ele><time>2026-04-25T08:30:40.01Z</time></trkpt><trkpt lat="40.7153367" lon="14.9435567"><ele>182.0</ele><time>2026-04-25T08:30:41.013Z</time></trkpt><trkpt lat="40.7153967" lon="14.9436767"><ele>181.66666666666666</ele><time>2026-04-25T08:30:42.013Z</time></trkpt><trkpt lat="40.7154567" lon="14.9437917"><ele>181.33333333333331</ele><time>2026-04-25T08:30:43.018Z</time></trkpt><trkpt lat="40.7155" lon="14.9439067"><ele>181.0</ele><time>2026-04-25T08:30:44.033Z</time></trkpt><trkpt lat="40.7155367" lon="14.9439983"><ele>180.66666666666666</ele><time>2026-04-25T08:30:45.011Z</time></trkpt><trkpt lat="40.7155517" lon="14.9440967"><ele>180.33333333333334</ele><time>2026-04-25T08:30:46.009Z</time></trkpt><trkpt lat="40.71554" lon="14.9442117"><ele>180.0</ele><time>2026-04-25T08:30:47.021Z</time></trkpt><trkpt lat="40.7155283" lon="14.9443167"><ele>180.0</ele><time>2026-04-25T08:30:48.011Z</time></trkpt><trkpt lat="40.715495" lon="14.94444"><ele>180.0</ele><time>2026-04-25T08:30:49.008Z</time></trkpt><trkpt lat="40.7154567" lon="14.9445667"><ele>180.0</ele><time>2026-04-25T08:30:50.029Z</time></trkpt><trkpt lat="40.7154183" lon="14.9447083"><ele>180.0</ele><time>2026-04-25T08:30:51.013Z</time></trkpt><trkpt lat="40.7153833" lon="14.944865"><ele>180.0</ele><time>2026-04-25T08:30:52.012Z</time></trkpt><trkpt lat="40.7153717" lon="14.94501"><ele>178.6</ele><time>2026-04-25T08:30:53.016Z</time></trkpt><trkpt lat="40.7153583" lon="14.9451517"><ele>177.2</ele><time>2026-04-25T08:30:54.004Z</time></trkpt><trkpt lat="40.7153433" lon="14.94529"><ele>175.8</ele><time>2026-04-25T08:30:55.016Z</time></trkpt><trkpt lat="40.715325" lon="14.9454267"><ele>174.4</ele><time>2026-04-25T08:30:56.061Z</time></trkpt><trkpt lat="40.7153017" lon="14.94557"><ele>173.0</ele><time>2026-04-25T08:30:57.012Z</time></trkpt><trkpt lat="40.7152733" lon="14.94572"><ele>173.0</ele><time>2026-04-25T08:30:58.013Z</time></trkpt><trkpt lat="40.7152467" lon="14.945875"><ele>173.0</ele><time>2026-04-25T08:30:59.015Z</time></trkpt><trkpt lat="40.71521" lon="14.9460383"><ele>173.0</ele><time>2026-04-25T08:31:00.017Z</time></trkpt><trkpt lat="40.7151617" lon="14.9462"><ele>173.0</ele><time>2026-04-25T08:31:01.012Z</time></trkpt><trkpt lat="40.715105" lon="14.9463633"><ele>172.0</ele><time>2026-04-25T08:31:02.061Z</time></trkpt><trkpt lat="40.71504" lon="14.9465217"><ele>171.0</ele><time>2026-04-25T08:31:03.007Z</time></trkpt><trkpt lat="40.7149617" lon="14.9466733"><ele>170.0</ele><time>2026-04-25T08:31:04.015Z</time></trkpt><trkpt lat="40.714875" lon="14.9468183"><ele>169.0</ele><time>2026-04-25T08:31:05.014Z</time></trkpt><trkpt lat="40.71478" lon="14.9469517"><ele>171.25</ele><time>2026-04-25T08:31:06.009Z</time></trkpt><trkpt lat="40.7146717" lon="14.9470617"><ele>173.5</ele><time>2026-04-25T08:31:07.014Z</time></trkpt><trkpt lat="40.71455" lon="14.9471617"><ele>175.75</ele><time>2026-04-25T08:31:08.033Z</time></trkpt><trkpt lat="40.7144133" lon="14.9472417"><ele>178.0</ele><time>2026-04-25T08:31:09.01Z</time></trkpt><trkpt lat="40.714265" lon="14.947305"><ele>178.33333333333334</ele><time>2026-04-25T08:31:10.015Z</time></trkpt><trkpt lat="40.71411" lon="14.9473683"><ele>178.66666666666666</ele><time>2026-04-25T08:31:11.014Z</time></trkpt><trkpt lat="40.7139533" lon="14.9474383"><ele>179.0</ele><time>2026-04-25T08:31:12.014Z</time></trkpt><trkpt lat="40.713795" lon="14.9475167"><ele>181.0</ele><time>2026-04-25T08:31:13.005Z</time></trkpt><trkpt lat="40.713645" lon="14.9476"><ele>183.0</ele><time>2026-04-25T08:31:14.027Z</time></trkpt><trkpt lat="40.713505" lon="14.9476783"><ele>185.0</ele><time>2026-04-25T08:31:15.01Z</time></trkpt><trkpt lat="40.71338" lon="14.9477317"><ele>187.0</ele><time>2026-04-25T08:31:16.005Z</time></trkpt><trkpt lat="40.7132683" lon="14.9477417"><ele>187.0</ele><time>2026-04-25T08:31:17.013Z</time></trkpt><trkpt lat="40.7131567" lon="14.94772"><ele>187.0</ele><time>2026-04-25T08:31:18.014Z</time></trkpt><trkpt lat="40.71304" lon="14.9476833"><ele>187.0</ele><time>2026-04-25T08:31:19.011Z</time></trkpt><trkpt lat="40.712915" lon="14.947655"><ele>187.0</ele><time>2026-04-25T08:31:20.03Z</time></trkpt><trkpt lat="40.71278" lon="14.947645"><ele>187.0</ele><time>2026-04-25T08:31:21.015Z</time></trkpt><trkpt lat="40.71263" lon="14.947675"><ele>187.0</ele><time>2026-04-25T08:31:22.015Z</time></trkpt><trkpt lat="40.7124567" lon="14.9477417"><ele>187.0</ele><time>2026-04-25T08:31:23.017Z</time></trkpt><trkpt lat="40.71228" lon="14.9478133"><ele>187.0</ele><time>2026-04-25T08:31:24.013Z</time></trkpt><trkpt lat="40.7121067" lon="14.94789"><ele>187.0</ele><time>2026-04-25T08:31:25.02Z</time></trkpt><trkpt lat="40.7119367" lon="14.9479633"><ele>187.0</ele><time>2026-04-25T08:31:26.027Z</time></trkpt><trkpt lat="40.7117667" lon="14.9480383"><ele>185.66666666666669</ele><time>2026-04-25T08:31:27.01Z</time></trkpt><trkpt lat="40.7116067" lon="14.9481183"><ele>184.33333333333334</ele><time>2026-04-25T08:31:28.01Z</time></trkpt><trkpt lat="40.71146" lon="14.9482033"><ele>183.0</ele><time>2026-04-25T08:31:29.013Z</time></trkpt><trkpt lat="40.71134" lon="14.9483033"><ele>185.5</ele><time>2026-04-25T08:31:30.011Z</time></trkpt><trkpt lat="40.71124" lon="14.9484233"><ele>188.0</ele><time>2026-04-25T08:31:31.01Z</time></trkpt><trkpt lat="40.711165" lon="14.94857"><ele>190.5</ele><time>2026-04-25T08:31:32.034Z</time></trkpt><trkpt lat="40.711095" lon="14.9486983"><ele>193.0</ele><time>2026-04-25T08:31:33.018Z</time></trkpt><trkpt lat="40.711025" lon="14.9487767"><ele>193.0</ele><time>2026-04-25T08:31:34.015Z</time></trkpt><trkpt lat="40.7109433" lon="14.94879"><ele>193.0</ele><time>2026-04-25T08:31:35.005Z</time></trkpt><trkpt lat="40.71086" lon="14.9487683"><ele>193.0</ele><time>2026-04-25T08:31:36.017Z</time></trkpt><trkpt lat="40.7107633" lon="14.948695"><ele>193.0</ele><time>2026-04-25T08:31:37.019Z</time></trkpt><trkpt lat="40.7106533" lon="14.9486083"><ele>193.0</ele><time>2026-04-25T08:31:38.029Z</time></trkpt><trkpt lat="40.7105417" lon="14.948525"><ele>193.0</ele><time>2026-04-25T08:31:39.017Z</time></trkpt><trkpt lat="40.7104217" lon="14.9484717"><ele>193.0</ele><time>2026-04-25T08:31:40.016Z</time></trkpt><trkpt lat="40.7102733" lon="14.9484833"><ele>193.0</ele><time>2026-04-25T08:31:41.015Z</time></trkpt><trkpt lat="40.7101117" lon="14.9485217"><ele>193.0</ele><time>2026-04-25T08:31:42.012Z</time></trkpt><trkpt lat="40.7099367" lon="14.9485767"><ele>193.66666666666666</ele><time>2026-04-25T08:31:43.012Z</time></trkpt><trkpt lat="40.7097633" lon="14.9486333"><ele>194.33333333333331</ele><time>2026-04-25T08:31:44.029Z</time></trkpt><trkpt lat="40.709605" lon="14.9486917"><ele>195.0</ele><time>2026-04-25T08:31:45.015Z</time></trkpt><trkpt lat="40.70947" lon="14.9487517"><ele>194.2</ele><time>2026-04-25T08:31:46.017Z</time></trkpt><trkpt lat="40.7093883" lon="14.9488333"><ele>193.4</ele><time>2026-04-25T08:31:47.008Z</time></trkpt><trkpt lat="40.7093283" lon="14.9489133"><ele>192.60000000000002</ele><time>2026-04-25T08:31:48.01Z</time></trkpt><trkpt lat="40.709245" lon="14.948935"><ele>191.8</ele><time>2026-04-25T08:31:51.017Z</time></trkpt><trkpt lat="40.7091833" lon="14.9488083"><ele>191.0</ele><time>2026-04-25T08:31:53.007Z</time></trkpt><trkpt lat="40.7091417" lon="14.9487167"><ele>191.0</ele><time>2026-04-25T08:31:54.018Z</time></trkpt><trkpt lat="40.7090933" lon="14.9486083"><ele>191.0</ele><time>2026-04-25T08:31:55.019Z</time></trkpt><trkpt lat="40.7090483" lon="14.948505"><ele>191.0</ele><time>2026-04-25T08:31:56.058Z</time></trkpt><trkpt lat="40.709005" lon="14.948395"><ele>191.0</ele><time>2026-04-25T08:31:57.018Z</time></trkpt><trkpt lat="40.708955" lon="14.94829"><ele>191.0</ele><time>2026-04-25T08:31:58.017Z</time></trkpt><trkpt lat="40.7089" lon="14.9481917"><ele>189.83333333333331</ele><time>2026-04-25T08:31:59.017Z</time></trkpt><trkpt lat="40.7088417" lon="14.948095"><ele>188.66666666666666</ele><time>2026-04-25T08:32:00.013Z</time></trkpt><trkpt lat="40.708785" lon="14.9480067"><ele>187.5</ele><time>2026-04-25T08:32:01.017Z</time></trkpt><trkpt lat="40.708735" lon="14.9479417"><ele>186.33333333333334</ele><time>2026-04-25T08:32:02.056Z</time></trkpt><trkpt lat="40.70867" lon="14.9478583"><ele>185.16666666666669</ele><time>2026-04-25T08:32:04.013Z</time></trkpt><trkpt lat="40.7086017" lon="14.94778"><ele>184.0</ele><time>2026-04-25T08:32:06.015Z</time></trkpt><trkpt lat="40.7085533" lon="14.94772"><ele>183.0</ele><time>2026-04-25T08:32:07.016Z</time></trkpt><trkpt lat="40.708505" lon="14.947635"><ele>182.0</ele><time>2026-04-25T08:32:08.031Z</time></trkpt><trkpt lat="40.7084483" lon="14.9475433"><ele>181.0</ele><time>2026-04-25T08:32:09.017Z</time></trkpt><trkpt lat="40.7083883" lon="14.94745"><ele>180.0</ele><time>2026-04-25T08:32:10.017Z</time></trkpt><trkpt lat="40.708335" lon="14.947355"><ele>179.0</ele><time>2026-04-25T08:32:11.021Z</time></trkpt><trkpt lat="40.7082833" lon="14.9472567"><ele>178.0</ele><time>2026-04-25T08:32:12.014Z</time></trkpt><trkpt lat="40.7082433" lon="14.9471617"><ele>177.0</ele><time>2026-04-25T08:32:13.014Z</time></trkpt><trkpt lat="40.7082167" lon="14.9470467"><ele>176.0</ele><time>2026-04-25T08:32:14.033Z</time></trkpt><trkpt lat="40.7082133" lon="14.9469467"><ele>175.0</ele><time>2026-04-25T08:32:15.014Z</time></trkpt><trkpt lat="40.70822" lon="14.9468233"><ele>174.0</ele><time>2026-04-25T08:32:16.015Z</time></trkpt><trkpt lat="40.708225" lon="14.9466983"><ele>173.0</ele><time>2026-04-25T08:32:17.008Z</time></trkpt><trkpt lat="40.7082317" lon="14.946585"><ele>172.0</ele><time>2026-04-25T08:32:18.012Z</time></trkpt><trkpt lat="40.7082167" lon="14.9464817"><ele>170.2</ele><time>2026-04-25T08:32:19.012Z</time></trkpt><trkpt lat="40.7081959" lon="14.9463784"><ele>168.39999999999998</ele><time>2026-04-25T08:32:20.03Z</time></trkpt><trkpt lat="40.7081233" lon="14.9463123"><ele>166.60000000000002</ele><time>2026-04-25T08:32:21.013Z</time></trkpt><trkpt lat="40.7080255" lon="14.9462507"><ele>164.8</ele><time>2026-04-25T08:32:22.009Z</time></trkpt><trkpt lat="40.7079179" lon="14.9461838"><ele>163.0</ele><time>2026-04-25T08:32:23.011Z</time></trkpt><trkpt lat="40.707804" lon="14.9461103"><ele>163.2</ele><time>2026-04-25T08:32:24.012Z</time></trkpt><trkpt lat="40.7076911" lon="14.9460453"><ele>163.4</ele><time>2026-04-25T08:32:25.018Z</time></trkpt><trkpt lat="40.707583" lon="14.9459947"><ele>163.6</ele><time>2026-04-25T08:32:26.077Z</time></trkpt><trkpt lat="40.7074994" lon="14.9459368"><ele>163.79999999999998</ele><time>2026-04-25T08:32:27.014Z</time></trkpt><trkpt lat="40.7074222" lon="14.9458576"><ele>164.0</ele><time>2026-04-25T08:32:28.011Z</time></trkpt><trkpt lat="40.7073515" lon="14.9457603"><ele>162.6</ele><time>2026-04-25T08:32:29.024Z</time></trkpt><trkpt lat="40.7072968" lon="14.9456397"><ele>161.2</ele><time>2026-04-25T08:32:30.015Z</time></trkpt><trkpt lat="40.7072583" lon="14.9455072"><ele>159.79999999999998</ele><time>2026-04-25T08:32:31.019Z</time></trkpt><trkpt lat="40.7072256" lon="14.9453965"><ele>158.39999999999998</ele><time>2026-04-25T08:32:32.064Z</time></trkpt><trkpt lat="40.7071995" lon="14.9453048"><ele>157.0</ele><time>2026-04-25T08:32:33.012Z</time></trkpt><trkpt lat="40.7071433" lon="14.945239"><ele>157.0</ele><time>2026-04-25T08:32:37.025Z</time></trkpt><trkpt lat="40.7070977" lon="14.9453076"><ele>157.0</ele><time>2026-04-25T08:32:39.012Z</time></trkpt><trkpt lat="40.7070555" lon="14.9454112"><ele>157.0</ele><time>2026-04-25T08:32:41.013Z</time></trkpt><trkpt lat="40.707002" lon="14.9455072"><ele>157.0</ele><time>2026-04-25T08:32:43.02Z</time></trkpt><trkpt lat="40.7069185" lon="14.9456258"><ele>157.0</ele><time>2026-04-25T08:32:45.015Z</time></trkpt><trkpt lat="40.7068638" lon="14.9457029"><ele>157.75</ele><time>2026-04-25T08:32:46.02Z</time></trkpt><trkpt lat="40.7067989" lon="14.9457997"><ele>158.5</ele><time>2026-04-25T08:32:47.013Z</time></trkpt><trkpt lat="40.7067231" lon="14.9459234"><ele>159.25</ele><time>2026-04-25T08:32:48.019Z</time></trkpt><trkpt lat="40.70664" lon="14.9460767"><ele>160.0</ele><time>2026-04-25T08:32:49.019Z</time></trkpt><trkpt lat="40.706565" lon="14.94622"><ele>160.0</ele><time>2026-04-25T08:32:50.033Z</time></trkpt><trkpt lat="40.7064933" lon="14.9463583"><ele>160.0</ele><time>2026-04-25T08:32:51.018Z</time></trkpt><trkpt lat="40.70643" lon="14.9465033"><ele>160.0</ele><time>2026-04-25T08:32:52.015Z</time></trkpt><trkpt lat="40.706365" lon="14.946655"><ele>160.0</ele><time>2026-04-25T08:32:53.019Z</time></trkpt><trkpt lat="40.7063017" lon="14.9468117"><ele>159.75</ele><time>2026-04-25T08:32:54.011Z</time></trkpt><trkpt lat="40.7062317" lon="14.94696"><ele>159.5</ele><time>2026-04-25T08:32:55.013Z</time></trkpt><trkpt lat="40.7061683" lon="14.947105"><ele>159.25</ele><time>2026-04-25T08:32:56.059Z</time></trkpt><trkpt lat="40.706115" lon="14.9472517"><ele>159.0</ele><time>2026-04-25T08:32:57.007Z</time></trkpt><trkpt lat="40.70607" lon="14.9474033"><ele>159.25</ele><time>2026-04-25T08:32:58.016Z</time></trkpt><trkpt lat="40.7060467" lon="14.947565"><ele>159.5</ele><time>2026-04-25T08:32:59.014Z</time></trkpt><trkpt lat="40.70605" lon="14.9477533"><ele>159.75</ele><time>2026-04-25T08:33:00.017Z</time></trkpt><trkpt lat="40.70607" lon="14.9479683"><ele>160.0</ele><time>2026-04-25T08:33:01.018Z</time></trkpt><trkpt lat="40.70609" lon="14.948195"><ele>160.66666666666669</ele><time>2026-04-25T08:33:02.055Z</time></trkpt><trkpt lat="40.706095" lon="14.9484267"><ele>161.33333333333334</ele><time>2026-04-25T08:33:03.011Z</time></trkpt><trkpt lat="40.7060733" lon="14.9486817"><ele>162.0</ele><time>2026-04-25T08:33:04.01Z</time></trkpt><trkpt lat="40.7060517" lon="14.948955"><ele>164.33333333333334</ele><time>2026-04-25T08:33:05.018Z</time></trkpt><trkpt lat="40.706025" lon="14.9492383"><ele>166.66666666666669</ele><time>2026-04-25T08:33:06.017Z</time></trkpt><trkpt lat="40.70599" lon="14.94953"><ele>169.0</ele><time>2026-04-25T08:33:07.015Z</time></trkpt><trkpt lat="40.7059417" lon="14.94983"><ele>170.33333333333334</ele><time>2026-04-25T08:33:08.027Z</time></trkpt><trkpt lat="40.705885" lon="14.95011"><ele>171.66666666666666</ele><time>2026-04-25T08:33:09.012Z</time></trkpt><trkpt lat="40.7058383" lon="14.9503567"><ele>173.0</ele><time>2026-04-25T08:33:10.014Z</time></trkpt><trkpt lat="40.705795" lon="14.9506033"><ele>173.0</ele><time>2026-04-25T08:33:11.012Z</time></trkpt><trkpt lat="40.7057783" lon="14.9508033"><ele>173.0</ele><time>2026-04-25T08:33:12.02Z</time></trkpt><trkpt lat="40.7057633" lon="14.95096"><ele>173.0</ele><time>2026-04-25T08:33:13.012Z</time></trkpt><trkpt lat="40.7057317" lon="14.95111"><ele>173.0</ele><time>2026-04-25T08:33:14.03Z</time></trkpt><trkpt lat="40.70568" lon="14.9512633"><ele>173.75</ele><time>2026-04-25T08:33:15.01Z</time></trkpt><trkpt lat="40.7056167" lon="14.9514067"><ele>174.5</ele><time>2026-04-25T08:33:16.008Z</time></trkpt><trkpt lat="40.7055483" lon="14.95153"><ele>175.25</ele><time>2026-04-25T08:33:17.02Z</time></trkpt><trkpt lat="40.7054683" lon="14.9516333"><ele>176.0</ele><time>2026-04-25T08:33:18.017Z</time></trkpt><trkpt lat="40.705385" lon="14.95171"><ele>176.20000000000002</ele><time>2026-04-25T08:33:19.014Z</time></trkpt><trkpt lat="40.7053117" lon="14.9517933"><ele>176.4</ele><time>2026-04-25T08:33:20.027Z</time></trkpt><trkpt lat="40.7052467" lon="14.9518933"><ele>176.6</ele><time>2026-04-25T08:33:21.007Z</time></trkpt><trkpt lat="40.7051967" lon="14.9520033"><ele>176.8</ele><time>2026-04-25T08:33:22.013Z</time></trkpt><trkpt lat="40.7051533" lon="14.9521167"><ele>177.0</ele><time>2026-04-25T08:33:23.01Z</time></trkpt><trkpt lat="40.7051133" lon="14.952225"><ele>177.0</ele><time>2026-04-25T08:33:24.008Z</time></trkpt><trkpt lat="40.7050717" lon="14.952335"><ele>177.0</ele><time>2026-04-25T08:33:25.017Z</time></trkpt><trkpt lat="40.7050267" lon="14.9524567"><ele>177.0</ele><time>2026-04-25T08:33:26.055Z</time></trkpt><trkpt lat="40.7049817" lon="14.9525883"><ele>177.0</ele><time>2026-04-25T08:33:27.014Z</time></trkpt><trkpt lat="40.7049383" lon="14.9527267"><ele>177.0</ele><time>2026-04-25T08:33:28.018Z</time></trkpt><trkpt lat="40.7048967" lon="14.9528683"><ele>177.5</ele><time>2026-04-25T08:33:29.014Z</time></trkpt><trkpt lat="40.7048533" lon="14.9530133"><ele>178.0</ele><time>2026-04-25T08:33:30.015Z</time></trkpt><trkpt lat="40.70481" lon="14.95316"><ele>178.5</ele><time>2026-04-25T08:33:31.015Z</time></trkpt><trkpt lat="40.7047667" lon="14.9533083"><ele>179.0</ele><time>2026-04-25T08:33:32.059Z</time></trkpt><trkpt lat="40.7047233" lon="14.9534583"><ele>180.0</ele><time>2026-04-25T08:33:33.013Z</time></trkpt><trkpt lat="40.7046767" lon="14.9536083"><ele>181.0</ele><time>2026-04-25T08:33:34.011Z</time></trkpt><trkpt lat="40.7046267" lon="14.953755"><ele>182.0</ele><time>2026-04-25T08:33:35.014Z</time></trkpt><trkpt lat="40.7045783" lon="14.9538983"><ele>183.0</ele><time>2026-04-25T08:33:36.011Z</time></trkpt><trkpt lat="40.7045267" lon="14.9540333"><ele>183.0</ele><time>2026-04-25T08:33:37.017Z</time></trkpt><trkpt lat="40.7044833" lon="14.95417"><ele>183.0</ele><time>2026-04-25T08:33:38.026Z</time></trkpt><trkpt lat="40.704455" lon="14.9543033"><ele>183.0</ele><time>2026-04-25T08:33:39.012Z</time></trkpt><trkpt lat="40.704435" lon="14.9544483"><ele>183.0</ele><time>2026-04-25T08:33:40.014Z</time></trkpt><trkpt lat="40.7044167" lon="14.954605"><ele>183.0</ele><time>2026-04-25T08:33:41.015Z</time></trkpt><trkpt lat="40.704395" lon="14.9547633"><ele>182.75</ele><time>2026-04-25T08:33:42.012Z</time></trkpt><trkpt lat="40.7043633" lon="14.954915"><ele>182.5</ele><time>2026-04-25T08:33:43.016Z</time></trkpt><trkpt lat="40.7043133" lon="14.9550567"><ele>182.25</ele><time>2026-04-25T08:33:44.033Z</time></trkpt><trkpt lat="40.7042417" lon="14.9551933"><ele>182.0</ele><time>2026-04-25T08:33:45.013Z</time></trkpt><trkpt lat="40.7041583" lon="14.9553117"><ele>182.0</ele><time>2026-04-25T08:33:46.016Z</time></trkpt><trkpt lat="40.704075" lon="14.9554283"><ele>182.0</ele><time>2026-04-25T08:33:47.009Z</time></trkpt><trkpt lat="40.7039983" lon="14.9555517"><ele>182.0</ele><time>2026-04-25T08:33:48.013Z</time></trkpt><trkpt lat="40.70393" lon="14.9556817"><ele>182.0</ele><time>2026-04-25T08:33:49.015Z</time></trkpt><trkpt lat="40.70386" lon="14.955815"><ele>182.5</ele><time>2026-04-25T08:33:50.028Z</time></trkpt><trkpt lat="40.703785" lon="14.9559467"><ele>183.0</ele><time>2026-04-25T08:33:51.007Z</time></trkpt><trkpt lat="40.70371" lon="14.9560917"><ele>183.5</ele><time>2026-04-25T08:33:52.011Z</time></trkpt><trkpt lat="40.7036383" lon="14.956245"><ele>184.0</ele><time>2026-04-25T08:33:53.009Z</time></trkpt><trkpt lat="40.7035617" lon="14.9563933"><ele>184.0</ele><time>2026-04-25T08:33:54.011Z</time></trkpt><trkpt lat="40.7034883" lon="14.9565433"><ele>184.0</ele><time>2026-04-25T08:33:55.013Z</time></trkpt><trkpt lat="40.7034167" lon="14.9566917"><ele>184.0</ele><time>2026-04-25T08:33:56.057Z</time></trkpt><trkpt lat="40.7033417" lon="14.9568267"><ele>184.0</ele><time>2026-04-25T08:33:57.01Z</time></trkpt><trkpt lat="40.7032617" lon="14.9569483"><ele>184.25</ele><time>2026-04-25T08:33:58.011Z</time></trkpt><trkpt lat="40.7031783" lon="14.9570667"><ele>184.5</ele><time>2026-04-25T08:33:59.012Z</time></trkpt><trkpt lat="40.7030983" lon="14.9571883"><ele>184.75</ele><time>2026-04-25T08:34:00.008Z</time></trkpt><trkpt lat="40.7030267" lon="14.9573167"><ele>185.0</ele><time>2026-04-25T08:34:01.016Z</time></trkpt><trkpt lat="40.7029667" lon="14.9574583"><ele>185.5</ele><time>2026-04-25T08:34:02.065Z</time></trkpt><trkpt lat="40.7029217" lon="14.9576117"><ele>186.0</ele><time>2026-04-25T08:34:03.012Z</time></trkpt><trkpt lat="40.7028867" lon="14.9577717"><ele>186.5</ele><time>2026-04-25T08:34:04.017Z</time></trkpt><trkpt lat="40.7028483" lon="14.9579317"><ele>187.0</ele><time>2026-04-25T08:34:05.015Z</time></trkpt><trkpt lat="40.702815" lon="14.9580833"><ele>187.0</ele><time>2026-04-25T08:34:06.016Z</time></trkpt><trkpt lat="40.7027783" lon="14.9582283"><ele>187.0</ele><time>2026-04-25T08:34:07.019Z</time></trkpt><trkpt lat="40.7027383" lon="14.9583817"><ele>187.0</ele><time>2026-04-25T08:34:08.027Z</time></trkpt><trkpt lat="40.7026967" lon="14.9585417"><ele>187.0</ele><time>2026-04-25T08:34:09.015Z</time></trkpt><trkpt lat="40.7026467" lon="14.958705"><ele>188.5</ele><time>2026-04-25T08:34:10.012Z</time></trkpt><trkpt lat="40.7025933" lon="14.9588683"><ele>190.0</ele><time>2026-04-25T08:34:11.022Z</time></trkpt><trkpt lat="40.7025467" lon="14.95903"><ele>191.5</ele><time>2026-04-25T08:34:12.017Z</time></trkpt><trkpt lat="40.7024983" lon="14.959195"><ele>193.0</ele><time>2026-04-25T08:34:13.012Z</time></trkpt><trkpt lat="40.7024483" lon="14.95936"><ele>193.25</ele><time>2026-04-25T08:34:14.026Z</time></trkpt><trkpt lat="40.7023983" lon="14.9595167"><ele>193.5</ele><time>2026-04-25T08:34:15.016Z</time></trkpt><trkpt lat="40.7023567" lon="14.959655"><ele>193.75</ele><time>2026-04-25T08:34:16.01Z</time></trkpt><trkpt lat="40.7023033" lon="14.9597783"><ele>194.0</ele><time>2026-04-25T08:34:17.015Z</time></trkpt><trkpt lat="40.7022367" lon="14.9598867"><ele>194.0</ele><time>2026-04-25T08:34:18.015Z</time></trkpt><trkpt lat="40.7021567" lon="14.9599883"><ele>194.0</ele><time>2026-04-25T08:34:19.019Z</time></trkpt><trkpt lat="40.7020783" lon="14.9600867"><ele>194.0</ele><time>2026-04-25T08:34:20.03Z</time></trkpt><trkpt lat="40.7020133" lon="14.96019"><ele>194.0</ele><time>2026-04-25T08:34:21.016Z</time></trkpt><trkpt lat="40.7019733" lon="14.9603017"><ele>194.0</ele><time>2026-04-25T08:34:22.01Z</time></trkpt><trkpt lat="40.7019417" lon="14.960415"><ele>194.66666666666669</ele><time>2026-04-25T08:34:23.012Z</time></trkpt><trkpt lat="40.7019117" lon="14.9605117"><ele>195.33333333333334</ele><time>2026-04-25T08:34:24.018Z</time></trkpt><trkpt lat="40.7018883" lon="14.9605983"><ele>196.0</ele><time>2026-04-25T08:34:25.021Z</time></trkpt><trkpt lat="40.701795" lon="14.9607183"><ele>196.66666666666669</ele><time>2026-04-25T08:34:27.019Z</time></trkpt><trkpt lat="40.7017433" lon="14.96079"><ele>197.33333333333334</ele><time>2026-04-25T08:34:28.011Z</time></trkpt><trkpt lat="40.7017033" lon="14.960865"><ele>198.0</ele><time>2026-04-25T08:34:29.017Z</time></trkpt><trkpt lat="40.70166" lon="14.96094"><ele>198.4</ele><time>2026-04-25T08:34:30.014Z</time></trkpt><trkpt lat="40.7016117" lon="14.961075"><ele>198.8</ele><time>2026-04-25T08:34:32.059Z</time></trkpt><trkpt lat="40.7015567" lon="14.961205"><ele>199.2</ele><time>2026-04-25T08:34:34.008Z</time></trkpt><trkpt lat="40.70147" lon="14.96123"><ele>199.6</ele><time>2026-04-25T08:34:36.011Z</time></trkpt><trkpt lat="40.7013417" lon="14.96119"><ele>200.0</ele><time>2026-04-25T08:34:38.033Z</time></trkpt><trkpt lat="40.7012417" lon="14.9611517"><ele>200.00000000000003</ele><time>2026-04-25T08:34:39.017Z</time></trkpt><trkpt lat="40.7011383" lon="14.96112"><ele>200.0</ele><time>2026-04-25T08:34:40.018Z</time></trkpt><trkpt lat="40.7010417" lon="14.9610917"><ele>200.0</ele><time>2026-04-25T08:34:41.021Z</time></trkpt><trkpt lat="40.70096" lon="14.961055"><ele>200.0</ele><time>2026-04-25T08:34:42.014Z</time></trkpt><trkpt lat="40.70089" lon="14.9610117"><ele>200.00000000000003</ele><time>2026-04-25T08:34:43.025Z</time></trkpt><trkpt lat="40.7008217" lon="14.96097"><ele>200.0</ele><time>2026-04-25T08:34:44.032Z</time></trkpt><trkpt lat="40.7007583" lon="14.960945"><ele>201.25</ele><time>2026-04-25T08:34:45.011Z</time></trkpt><trkpt lat="40.7006433" lon="14.9609533"><ele>202.5</ele><time>2026-04-25T08:34:47.01Z</time></trkpt><trkpt lat="40.7005267" lon="14.9610417"><ele>203.75</ele><time>2026-04-25T08:34:49.015Z</time></trkpt><trkpt lat="40.7004467" lon="14.961095"><ele>205.0</ele><time>2026-04-25T08:34:50.028Z</time></trkpt><trkpt lat="40.7003433" lon="14.9611467"><ele>207.5</ele><time>2026-04-25T08:34:51.014Z</time></trkpt><trkpt lat="40.7002217" lon="14.9612117"><ele>210.0</ele><time>2026-04-25T08:34:52.011Z</time></trkpt><trkpt lat="40.7000817" lon="14.961285"><ele>212.5</ele><time>2026-04-25T08:34:53.006Z</time></trkpt><trkpt lat="40.6999533" lon="14.9613567"><ele>215.0</ele><time>2026-04-25T08:34:54.012Z</time></trkpt><trkpt lat="40.6998383" lon="14.9614267"><ele>215.00000000000003</ele><time>2026-04-25T08:34:55.02Z</time></trkpt><trkpt lat="40.6997517" lon="14.9614583"><ele>215.0</ele><time>2026-04-25T08:34:56.074Z</time></trkpt><trkpt lat="40.699685" lon="14.9614633"><ele>215.0</ele><time>2026-04-25T08:34:57.007Z</time></trkpt><trkpt lat="40.69962" lon="14.9614683"><ele>215.0</ele><time>2026-04-25T08:34:58.009Z</time></trkpt><trkpt lat="40.6995467" lon="14.96148"><ele>215.00000000000003</ele><time>2026-04-25T08:34:59.019Z</time></trkpt><trkpt lat="40.6994517" lon="14.9615033"><ele>215.0</ele><time>2026-04-25T08:35:00.019Z</time></trkpt><trkpt lat="40.6993133" lon="14.96155"><ele>217.75</ele><time>2026-04-25T08:35:01.018Z</time></trkpt><trkpt lat="40.6991733" lon="14.961585"><ele>220.5</ele><time>2026-04-25T08:35:02.056Z</time></trkpt><trkpt lat="40.6990467" lon="14.9616167"><ele>223.25</ele><time>2026-04-25T08:35:03.01Z</time></trkpt><trkpt lat="40.69894" lon="14.9616533"><ele>226.0</ele><time>2026-04-25T08:35:04.015Z</time></trkpt><trkpt lat="40.698845" lon="14.9617033"><ele>226.0</ele><time>2026-04-25T08:35:05.017Z</time></trkpt><trkpt lat="40.6987467" lon="14.961775"><ele>226.0</ele><time>2026-04-25T08:35:06.005Z</time></trkpt><trkpt lat="40.698635" lon="14.9618633"><ele>226.0</ele><time>2026-04-25T08:35:07.02Z</time></trkpt><trkpt lat="40.6985267" lon="14.9619333"><ele>226.0</ele><time>2026-04-25T08:35:08.028Z</time></trkpt><trkpt lat="40.6984317" lon="14.9619867"><ele>227.8</ele><time>2026-04-25T08:35:09.016Z</time></trkpt><trkpt lat="40.6983417" lon="14.9620267"><ele>229.60000000000002</ele><time>2026-04-25T08:35:10.017Z</time></trkpt><trkpt lat="40.69824" lon="14.9620583"><ele>231.4</ele><time>2026-04-25T08:35:11.023Z</time></trkpt><trkpt lat="40.6981233" lon="14.96208"><ele>233.2</ele><time>2026-04-25T08:35:12.01Z</time></trkpt><trkpt lat="40.6979983" lon="14.962085"><ele>235.0</ele><time>2026-04-25T08:35:13.008Z</time></trkpt><trkpt lat="40.69788" lon="14.9620867"><ele>234.99999999999997</ele><time>2026-04-25T08:35:14.031Z</time></trkpt><trkpt lat="40.69777" lon="14.9621083"><ele>235.0</ele><time>2026-04-25T08:35:15.015Z</time></trkpt><trkpt lat="40.6976817" lon="14.962145"><ele>235.0</ele><time>2026-04-25T08:35:16.012Z</time></trkpt><trkpt lat="40.69761" lon="14.962175"><ele>235.0</ele><time>2026-04-25T08:35:17.015Z</time></trkpt><trkpt lat="40.6975333" lon="14.9621817"><ele>234.99999999999997</ele><time>2026-04-25T08:35:18.013Z</time></trkpt><trkpt lat="40.6974483" lon="14.9621833"><ele>235.0</ele><time>2026-04-25T08:35:19.02Z</time></trkpt><trkpt lat="40.697345" lon="14.962165"><ele>238.75</ele><time>2026-04-25T08:35:20.031Z</time></trkpt><trkpt lat="40.6972233" lon="14.96214"><ele>242.5</ele><time>2026-04-25T08:35:21.016Z</time></trkpt><trkpt lat="40.6970917" lon="14.9621117"><ele>246.25</ele><time>2026-04-25T08:35:22.013Z</time></trkpt><trkpt lat="40.696945" lon="14.96206"><ele>250.0</ele><time>2026-04-25T08:35:23.025Z</time></trkpt><trkpt lat="40.6967833" lon="14.962005"><ele>255.66666666666666</ele><time>2026-04-25T08:35:24.019Z</time></trkpt><trkpt lat="40.6966183" lon="14.9619567"><ele>261.3333333333333</ele><time>2026-04-25T08:35:25.015Z</time></trkpt><trkpt lat="40.6964517" lon="14.961915"><ele>267.0</ele><time>2026-04-25T08:35:26.08Z</time></trkpt><trkpt lat="40.6962917" lon="14.961885"><ele>267.0</ele><time>2026-04-25T08:35:27.014Z</time></trkpt><trkpt lat="40.696145" lon="14.96186"><ele>267.0</ele><time>2026-04-25T08:35:28.014Z</time></trkpt><trkpt lat="40.6960133" lon="14.96182"><ele>267.0</ele><time>2026-04-25T08:35:29.019Z</time></trkpt><trkpt lat="40.6958833" lon="14.9617633"><ele>267.0</ele><time>2026-04-25T08:35:30.023Z</time></trkpt><trkpt lat="40.6957617" lon="14.9616933"><ele>269.4</ele><time>2026-04-25T08:35:31.016Z</time></trkpt><trkpt lat="40.6956583" lon="14.9616217"><ele>271.79999999999995</ele><time>2026-04-25T08:35:32.063Z</time></trkpt><trkpt lat="40.6955567" lon="14.961635"><ele>274.2</ele><time>2026-04-25T08:35:34.018Z</time></trkpt><trkpt lat="40.695515" lon="14.9617733"><ele>276.59999999999997</ele><time>2026-04-25T08:35:36.01Z</time></trkpt><trkpt lat="40.6954967" lon="14.9618533"><ele>279.0</ele><time>2026-04-25T08:35:37.019Z</time></trkpt><trkpt lat="40.695395" lon="14.9619533"><ele>280.0</ele><time>2026-04-25T08:35:39.011Z</time></trkpt><trkpt lat="40.6953133" lon="14.9619567"><ele>281.0</ele><time>2026-04-25T08:35:40.008Z</time></trkpt><trkpt lat="40.6952233" lon="14.961965"><ele>282.0</ele><time>2026-04-25T08:35:41.016Z</time></trkpt><trkpt lat="40.6951417" lon="14.9619983"><ele>283.0</ele><time>2026-04-25T08:35:42.012Z</time></trkpt><trkpt lat="40.6950667" lon="14.9620533"><ele>284.0</ele><time>2026-04-25T08:35:43.017Z</time></trkpt><trkpt lat="40.6949983" lon="14.9621167"><ele>285.0</ele><time>2026-04-25T08:35:44.026Z</time></trkpt><trkpt lat="40.69495" lon="14.96218"><ele>290.3333333333333</ele><time>2026-04-25T08:35:45.012Z</time></trkpt><trkpt lat="40.69496" lon="14.9623967"><ele>295.66666666666663</ele><time>2026-04-25T08:35:47.018Z</time></trkpt><trkpt lat="40.6949633" lon="14.9625717"><ele>301.0</ele><time>2026-04-25T08:35:48.017Z</time></trkpt><trkpt lat="40.6950017" lon="14.9627683"><ele>303.0</ele><time>2026-04-25T08:35:49.016Z</time></trkpt><trkpt lat="40.695045" lon="14.962965"><ele>305.0</ele><time>2026-04-25T08:35:50.024Z</time></trkpt><trkpt lat="40.69509" lon="14.9631567"><ele>307.0</ele><time>2026-04-25T08:35:51.013Z</time></trkpt><trkpt lat="40.6951333" lon="14.9633383"><ele>308.2</ele><time>2026-04-25T08:35:52.016Z</time></trkpt><trkpt lat="40.6951717" lon="14.9635017"><ele>309.4</ele><time>2026-04-25T08:35:53.021Z</time></trkpt><trkpt lat="40.6951967" lon="14.9636533"><ele>310.6</ele><time>2026-04-25T08:35:54.012Z</time></trkpt><trkpt lat="40.69522" lon="14.96375"><ele>311.8</ele><time>2026-04-25T08:35:55.018Z</time></trkpt><trkpt lat="40.695145" lon="14.963695"><ele>313.0</ele><time>2026-04-25T08:35:59.019Z</time></trkpt><trkpt lat="40.6950933" lon="14.96351"><ele>313.0</ele><time>2026-04-25T08:36:01.015Z</time></trkpt><trkpt lat="40.695045" lon="14.9633933"><ele>313.0</ele><time>2026-04-25T08:36:02.059Z</time></trkpt><trkpt lat="40.69497" lon="14.9632617"><ele>313.0</ele><time>2026-04-25T08:36:03.007Z</time></trkpt><trkpt lat="40.6948683" lon="14.9631267"><ele>313.0</ele><time>2026-04-25T08:36:04.011Z</time></trkpt><trkpt lat="40.69475" lon="14.963"><ele>311.5</ele><time>2026-04-25T08:36:05.015Z</time></trkpt><trkpt lat="40.6946533" lon="14.9628733"><ele>310.0</ele><time>2026-04-25T08:36:06.006Z</time></trkpt><trkpt lat="40.6945733" lon="14.96274"><ele>308.5</ele><time>2026-04-25T08:36:07.015Z</time></trkpt><trkpt lat="40.6945117" lon="14.9626017"><ele>307.0</ele><time>2026-04-25T08:36:08.03Z</time></trkpt><trkpt lat="40.6944733" lon="14.9624483"><ele>305.5</ele><time>2026-04-25T08:36:09.019Z</time></trkpt><trkpt lat="40.6944583" lon="14.9622633"><ele>304.0</ele><time>2026-04-25T08:36:10.016Z</time></trkpt><trkpt lat="40.6944233" lon="14.9620733"><ele>302.5</ele><time>2026-04-25T08:36:11.016Z</time></trkpt><trkpt lat="40.6943717" lon="14.96188"><ele>301.0</ele><time>2026-04-25T08:36:12.009Z</time></trkpt><trkpt lat="40.6943" lon="14.961705"><ele>305.75</ele><time>2026-04-25T08:36:13.017Z</time></trkpt><trkpt lat="40.694215" lon="14.9615467"><ele>310.5</ele><time>2026-04-25T08:36:14.03Z</time></trkpt><trkpt lat="40.694105" lon="14.961445"><ele>315.25</ele><time>2026-04-25T08:36:15.019Z</time></trkpt><trkpt lat="40.694" lon="14.96135"><ele>320.0</ele><time>2026-04-25T08:36:16.011Z</time></trkpt><trkpt lat="40.6938967" lon="14.961275"><ele>320.0</ele><time>2026-04-25T08:36:17.018Z</time></trkpt><trkpt lat="40.6938067" lon="14.9611883"><ele>320.0</ele><time>2026-04-25T08:36:18.012Z</time></trkpt><trkpt lat="40.6937233" lon="14.96108"><ele>320.0</ele><time>2026-04-25T08:36:19.016Z</time></trkpt><trkpt lat="40.6936633" lon="14.9609333"><ele>320.0</ele><time>2026-04-25T08:36:20.034Z</time></trkpt><trkpt lat="40.69359" lon="14.9607767"><ele>326.33333333333337</ele><time>2026-04-25T08:36:21.026Z</time></trkpt><trkpt lat="40.69351" lon="14.9606067"><ele>332.6666666666667</ele><time>2026-04-25T08:36:22.011Z</time></trkpt><trkpt lat="40.6934267" lon="14.96042"><ele>339.0</ele><time>2026-04-25T08:36:23.022Z</time></trkpt><trkpt lat="40.69336" lon="14.96023"><ele>339.0</ele><time>2026-04-25T08:36:24.015Z</time></trkpt><trkpt lat="40.6932967" lon="14.9600483"><ele>339.0</ele><time>2026-04-25T08:36:25.017Z</time></trkpt><trkpt lat="40.6932433" lon="14.9598883"><ele>339.0</ele><time>2026-04-25T08:36:26.078Z</time></trkpt><trkpt lat="40.6931933" lon="14.9597583"><ele>339.0</ele><time>2026-04-25T08:36:27.008Z</time></trkpt><trkpt lat="40.693135" lon="14.9596517"><ele>337.6</ele><time>2026-04-25T08:36:28.01Z</time></trkpt><trkpt lat="40.6930683" lon="14.9595533"><ele>336.2</ele><time>2026-04-25T08:36:29.02Z</time></trkpt><trkpt lat="40.692985" lon="14.959465"><ele>334.8</ele><time>2026-04-25T08:36:30.012Z</time></trkpt><trkpt lat="40.6928867" lon="14.9593783"><ele>333.40000000000003</ele><time>2026-04-25T08:36:31.018Z</time></trkpt><trkpt lat="40.6928017" lon="14.9593"><ele>332.0</ele><time>2026-04-25T08:36:32.056Z</time></trkpt><trkpt lat="40.6927133" lon="14.9592283"><ele>334.0</ele><time>2026-04-25T08:36:33.011Z</time></trkpt><trkpt lat="40.6926267" lon="14.95917"><ele>336.0</ele><time>2026-04-25T08:36:34.013Z</time></trkpt><trkpt lat="40.6925733" lon="14.9590833"><ele>338.0</ele><time>2026-04-25T08:36:35.016Z</time></trkpt><trkpt lat="40.6925233" lon="14.9589717"><ele>340.0</ele><time>2026-04-25T08:36:36.011Z</time></trkpt><trkpt lat="40.6924783" lon="14.9588317"><ele>342.0</ele><time>2026-04-25T08:36:37.016Z</time></trkpt><trkpt lat="40.6924367" lon="14.9586917"><ele>342.0</ele><time>2026-04-25T08:36:38.029Z</time></trkpt><trkpt lat="40.6923917" lon="14.958555"><ele>342.0</ele><time>2026-04-25T08:36:39.012Z</time></trkpt><trkpt lat="40.6923317" lon="14.9584267"><ele>342.0</ele><time>2026-04-25T08:36:40.014Z</time></trkpt><trkpt lat="40.692265" lon="14.958285"><ele>342.0</ele><time>2026-04-25T08:36:41.015Z</time></trkpt><trkpt lat="40.692195" lon="14.9581483"><ele>340.6</ele><time>2026-04-25T08:36:42.016Z</time></trkpt><trkpt lat="40.6921417" lon="14.9579933"><ele>339.20000000000005</ele><time>2026-04-25T08:36:43.012Z</time></trkpt><trkpt lat="40.6921" lon="14.95786"><ele>337.8</ele><time>2026-04-25T08:36:44.026Z</time></trkpt><trkpt lat="40.6920833" lon="14.9577233"><ele>336.4</ele><time>2026-04-25T08:36:45.02Z</time></trkpt><trkpt lat="40.6920817" lon="14.9576133"><ele>335.0</ele><time>2026-04-25T08:36:46.013Z</time></trkpt><trkpt lat="40.6920767" lon="14.9575"><ele>333.8</ele><time>2026-04-25T08:36:47.016Z</time></trkpt><trkpt lat="40.6920633" lon="14.9573883"><ele>332.6</ele><time>2026-04-25T08:36:48.01Z</time></trkpt><trkpt lat="40.69204" lon="14.9573033"><ele>331.4</ele><time>2026-04-25T08:36:49.015Z</time></trkpt><trkpt lat="40.6919517" lon="14.95725"><ele>330.2</ele><time>2026-04-25T08:36:50.031Z</time></trkpt><trkpt lat="40.6918717" lon="14.9571883"><ele>329.0</ele><time>2026-04-25T08:36:51.014Z</time></trkpt><trkpt lat="40.6917533" lon="14.9571317"><ele>333.25</ele><time>2026-04-25T08:36:52.015Z</time></trkpt><trkpt lat="40.6916383" lon="14.95706"><ele>337.5</ele><time>2026-04-25T08:36:53.017Z</time></trkpt><trkpt lat="40.6915333" lon="14.9569983"><ele>341.75</ele><time>2026-04-25T08:36:54.016Z</time></trkpt><trkpt lat="40.6914317" lon="14.9569483"><ele>346.0</ele><time>2026-04-25T08:36:55.015Z</time></trkpt><trkpt lat="40.6913267" lon="14.956915"><ele>346.0</ele><time>2026-04-25T08:36:56.081Z</time></trkpt><trkpt lat="40.6912083" lon="14.956895"><ele>346.0</ele><time>2026-04-25T08:36:57.012Z</time></trkpt><trkpt lat="40.6910733" lon="14.9568733"><ele>346.0</ele><time>2026-04-25T08:36:58.017Z</time></trkpt><trkpt lat="40.6909433" lon="14.9568333"><ele>346.0</ele><time>2026-04-25T08:36:59.021Z</time></trkpt><trkpt lat="40.69083" lon="14.956785"><ele>346.0</ele><time>2026-04-25T08:37:00.011Z</time></trkpt><trkpt lat="40.6907283" lon="14.9567483"><ele>346.0</ele><time>2026-04-25T08:37:01.017Z</time></trkpt><trkpt lat="40.6906467" lon="14.95669"><ele>346.0</ele><time>2026-04-25T08:37:02.062Z</time></trkpt><trkpt lat="40.6905567" lon="14.9566333"><ele>346.0</ele><time>2026-04-25T08:37:03.02Z</time></trkpt><trkpt lat="40.6904683" lon="14.9565533"><ele>346.0</ele><time>2026-04-25T08:37:04.013Z</time></trkpt><trkpt lat="40.6903733" lon="14.956435"><ele>346.0</ele><time>2026-04-25T08:37:05.02Z</time></trkpt><trkpt lat="40.6902833" lon="14.956285"><ele>346.0</ele><time>2026-04-25T08:37:06.016Z</time></trkpt><trkpt lat="40.6902183" lon="14.956155"><ele>346.0</ele><time>2026-04-25T08:37:07.016Z</time></trkpt><trkpt lat="40.69016" lon="14.9560417"><ele>346.0</ele><time>2026-04-25T08:37:08.031Z</time></trkpt><trkpt lat="40.6901167" lon="14.9559483"><ele>348.20000000000005</ele><time>2026-04-25T08:37:09.016Z</time></trkpt><trkpt lat="40.690065" lon="14.9558567"><ele>350.40000000000003</ele><time>2026-04-25T08:37:10.013Z</time></trkpt><trkpt lat="40.6900117" lon="14.95576"><ele>352.6</ele><time>2026-04-25T08:37:11.017Z</time></trkpt><trkpt lat="40.6899467" lon="14.9556417"><ele>354.8</ele><time>2026-04-25T08:37:12.014Z</time></trkpt><trkpt lat="40.689875" lon="14.9555067"><ele>357.0</ele><time>2026-04-25T08:37:13.016Z</time></trkpt><trkpt lat="40.689795" lon="14.9553717"><ele>357.0</ele><time>2026-04-25T08:37:14.032Z</time></trkpt><trkpt lat="40.6896867" lon="14.95523"><ele>357.0</ele><time>2026-04-25T08:37:15.016Z</time></trkpt><trkpt lat="40.689585" lon="14.9551"><ele>357.0</ele><time>2026-04-25T08:37:16.014Z</time></trkpt><trkpt lat="40.689495" lon="14.9549683"><ele>357.0</ele><time>2026-04-25T08:37:17.016Z</time></trkpt><trkpt lat="40.6894083" lon="14.9548267"><ele>365.3333333333333</ele><time>2026-04-25T08:37:18.012Z</time></trkpt><trkpt lat="40.6893233" lon="14.9546767"><ele>373.66666666666663</ele><time>2026-04-25T08:37:19.015Z</time></trkpt><trkpt lat="40.6892317" lon="14.954505"><ele>382.0</ele><time>2026-04-25T08:37:20.029Z</time></trkpt><trkpt lat="40.6891517" lon="14.9543217"><ele>381.0</ele><time>2026-04-25T08:37:21.006Z</time></trkpt><trkpt lat="40.68907" lon="14.9541517"><ele>380.0</ele><time>2026-04-25T08:37:22.014Z</time></trkpt><trkpt lat="40.6889867" lon="14.9539983"><ele>379.0</ele><time>2026-04-25T08:37:23.02Z</time></trkpt><trkpt lat="40.688915" lon="14.9538733"><ele>378.0</ele><time>2026-04-25T08:37:24.012Z</time></trkpt><trkpt lat="40.6888467" lon="14.953755"><ele>378.0</ele><time>2026-04-25T08:37:25.018Z</time></trkpt><trkpt lat="40.688795" lon="14.95364"><ele>378.0</ele><time>2026-04-25T08:37:26.075Z</time></trkpt><trkpt lat="40.6887533" lon="14.9535267"><ele>378.0</ele><time>2026-04-25T08:37:27.008Z</time></trkpt><trkpt lat="40.68874" lon="14.9533983"><ele>378.0</ele><time>2026-04-25T08:37:28.014Z</time></trkpt><trkpt lat="40.688705" lon="14.9532667"><ele>378.0</ele><time>2026-04-25T08:37:29.017Z</time></trkpt><trkpt lat="40.6887" lon="14.9531067"><ele>379.5</ele><time>2026-04-25T08:37:30.015Z</time></trkpt><trkpt lat="40.6886433" lon="14.9529367"><ele>381.0</ele><time>2026-04-25T08:37:31.018Z</time></trkpt><trkpt lat="40.68857" lon="14.9527717"><ele>382.5</ele><time>2026-04-25T08:37:32.059Z</time></trkpt><trkpt lat="40.6884867" lon="14.9526283"><ele>384.0</ele><time>2026-04-25T08:37:33.01Z</time></trkpt><trkpt lat="40.6884067" lon="14.9525033"><ele>388.4</ele><time>2026-04-25T08:37:34.01Z</time></trkpt><trkpt lat="40.6883417" lon="14.9524017"><ele>392.79999999999995</ele><time>2026-04-25T08:37:35.019Z</time></trkpt><trkpt lat="40.688265" lon="14.9523133"><ele>397.20000000000005</ele><time>2026-04-25T08:37:36.016Z</time></trkpt><trkpt lat="40.688185" lon="14.9522317"><ele>401.6</ele><time>2026-04-25T08:37:37.019Z</time></trkpt><trkpt lat="40.6880967" lon="14.9521767"><ele>406.0</ele><time>2026-04-25T08:37:38.031Z</time></trkpt><trkpt lat="40.6880133" lon="14.952115"><ele>406.0</ele><time>2026-04-25T08:37:39.012Z</time></trkpt><trkpt lat="40.68792" lon="14.9521567"><ele>406.0</ele><time>2026-04-25T08:37:40.014Z</time></trkpt><trkpt lat="40.68786" lon="14.9523583"><ele>406.0</ele><time>2026-04-25T08:37:41.018Z</time></trkpt><trkpt lat="40.6878317" lon="14.9524783"><ele>406.0</ele><time>2026-04-25T08:37:42.022Z</time></trkpt><trkpt lat="40.6878117" lon="14.9525883"><ele>406.0</ele><time>2026-04-25T08:37:43.018Z</time></trkpt><trkpt lat="40.6878083" lon="14.95268"><ele>406.50000000000006</ele><time>2026-04-25T08:37:44.027Z</time></trkpt><trkpt lat="40.6878133" lon="14.9527717"><ele>407.0</ele><time>2026-04-25T08:37:45.012Z</time></trkpt><trkpt lat="40.6878283" lon="14.9528717"><ele>407.5</ele><time>2026-04-25T08:37:46.015Z</time></trkpt><trkpt lat="40.6878317" lon="14.952995"><ele>408.0</ele><time>2026-04-25T08:37:47.039Z</time></trkpt><trkpt lat="40.6878417" lon="14.9531083"><ele>408.50000000000006</ele><time>2026-04-25T08:37:48.018Z</time></trkpt><trkpt lat="40.6878667" lon="14.9531983"><ele>409.0</ele><time>2026-04-25T08:37:49.015Z</time></trkpt><trkpt lat="40.6878933" lon="14.9533117"><ele>409.2</ele><time>2026-04-25T08:37:50.026Z</time></trkpt><trkpt lat="40.68792" lon="14.9534267"><ele>409.4</ele><time>2026-04-25T08:37:51.013Z</time></trkpt><trkpt lat="40.687955" lon="14.9535567"><ele>409.6</ele><time>2026-04-25T08:37:52.018Z</time></trkpt><trkpt lat="40.687985" lon="14.953705"><ele>409.8</ele><time>2026-04-25T08:37:53.007Z</time></trkpt><trkpt lat="40.6880067" lon="14.9538683"><ele>410.0</ele><time>2026-04-25T08:37:54.011Z</time></trkpt><trkpt lat="40.6880183" lon="14.9540467"><ele>412.5</ele><time>2026-04-25T08:37:55.015Z</time></trkpt><trkpt lat="40.6880217" lon="14.9542233"><ele>415.0</ele><time>2026-04-25T08:37:56.078Z</time></trkpt><trkpt lat="40.6880083" lon="14.9543883"><ele>417.5</ele><time>2026-04-25T08:37:57.011Z</time></trkpt><trkpt lat="40.6879983" lon="14.9545267"><ele>420.0</ele><time>2026-04-25T08:37:58.009Z</time></trkpt><trkpt lat="40.6879933" lon="14.954645"><ele>420.0</ele><time>2026-04-25T08:37:59.013Z</time></trkpt><trkpt lat="40.6880033" lon="14.9547517"><ele>420.0</ele><time>2026-04-25T08:38:00.009Z</time></trkpt><trkpt lat="40.6880367" lon="14.9548483"><ele>420.0</ele><time>2026-04-25T08:38:01.019Z</time></trkpt><trkpt lat="40.6880883" lon="14.95494"><ele>420.0</ele><time>2026-04-25T08:38:02.039Z</time></trkpt><trkpt lat="40.6881817" lon="14.95503"><ele>420.0</ele><time>2026-04-25T08:38:03.015Z</time></trkpt><trkpt lat="40.6882383" lon="14.9551567"><ele>423.0</ele><time>2026-04-25T08:38:04.007Z</time></trkpt><trkpt lat="40.6883" lon="14.9552767"><ele>426.0</ele><time>2026-04-25T08:38:05.023Z</time></trkpt><trkpt lat="40.6883683" lon="14.9553833"><ele>429.0</ele><time>2026-04-25T08:38:06.01Z</time></trkpt><trkpt lat="40.6884217" lon="14.955485"><ele>432.0</ele><time>2026-04-25T08:38:07.014Z</time></trkpt><trkpt lat="40.688475" lon="14.95558"><ele>435.0</ele><time>2026-04-25T08:38:08.026Z</time></trkpt><trkpt lat="40.6885233" lon="14.955665"><ele>435.00000000000006</ele><time>2026-04-25T08:38:09.016Z</time></trkpt><trkpt lat="40.6885733" lon="14.9557383"><ele>435.0</ele><time>2026-04-25T08:38:10.012Z</time></trkpt><trkpt lat="40.6886217" lon="14.9558117"><ele>435.0</ele><time>2026-04-25T08:38:11.018Z</time></trkpt><trkpt lat="40.6886567" lon="14.95589"><ele>435.0</ele><time>2026-04-25T08:38:12.01Z</time></trkpt><trkpt lat="40.688685" lon="14.9559733"><ele>435.0</ele><time>2026-04-25T08:38:13.013Z</time></trkpt><trkpt lat="40.68872" lon="14.9560567"><ele>435.00000000000006</ele><time>2026-04-25T08:38:14.027Z</time></trkpt><trkpt lat="40.6887583" lon="14.9561467"><ele>435.0</ele><time>2026-04-25T08:38:15.013Z</time></trkpt><trkpt lat="40.688805" lon="14.9562433"><ele>434.0</ele><time>2026-04-25T08:38:16.016Z</time></trkpt><trkpt lat="40.68886" lon="14.956345"><ele>433.0</ele><time>2026-04-25T08:38:17.02Z</time></trkpt><trkpt lat="40.688925" lon="14.95645"><ele>432.0</ele><time>2026-04-25T08:38:18.021Z</time></trkpt><trkpt lat="40.6890117" lon="14.9565583"><ele>431.0</ele><time>2026-04-25T08:38:19.014Z</time></trkpt><trkpt lat="40.689085" lon="14.9566683"><ele>430.0</ele><time>2026-04-25T08:38:20.031Z</time></trkpt><trkpt lat="40.689145" lon="14.956775"><ele>430.0</ele><time>2026-04-25T08:38:21.013Z</time></trkpt><trkpt lat="40.6891933" lon="14.9568917"><ele>430.0</ele><time>2026-04-25T08:38:22.014Z</time></trkpt><trkpt lat="40.6892233" lon="14.9570217"><ele>430.0</ele><time>2026-04-25T08:38:23.021Z</time></trkpt><trkpt lat="40.6892517" lon="14.957155"><ele>430.0</ele><time>2026-04-25T08:38:24.01Z</time></trkpt><trkpt lat="40.6892867" lon="14.9572667"><ele>430.0</ele><time>2026-04-25T08:38:25.014Z</time></trkpt><trkpt lat="40.6893217" lon="14.9573567"><ele>430.00000000000006</ele><time>2026-04-25T08:38:26.031Z</time></trkpt><trkpt lat="40.6893817" lon="14.9573917"><ele>430.0</ele><time>2026-04-25T08:38:33.004Z</time></trkpt><trkpt lat="40.6894583" lon="14.9574283"><ele>430.0</ele><time>2026-04-25T08:38:35.014Z</time></trkpt><trkpt lat="40.6895417" lon="14.9574883"><ele>430.0</ele><time>2026-04-25T08:38:37.018Z</time></trkpt><trkpt lat="40.68964" lon="14.9575633"><ele>430.00000000000006</ele><time>2026-04-25T08:38:39.018Z</time></trkpt><trkpt lat="40.6896867" lon="14.9576233"><ele>430.0</ele><time>2026-04-25T08:38:40.015Z</time></trkpt><trkpt lat="40.6897333" lon="14.9576883"><ele>427.85714285714283</ele><time>2026-04-25T08:38:41.02Z</time></trkpt><trkpt lat="40.689785" lon="14.957745"><ele>425.7142857142857</ele><time>2026-04-25T08:38:42.02Z</time></trkpt><trkpt lat="40.68983" lon="14.9578083"><ele>423.57142857142856</ele><time>2026-04-25T08:38:43.017Z</time></trkpt><trkpt lat="40.6898617" lon="14.957895"><ele>421.42857142857144</ele><time>2026-04-25T08:38:44.037Z</time></trkpt><trkpt lat="40.6899017" lon="14.9579633"><ele>419.28571428571433</ele><time>2026-04-25T08:38:45.014Z</time></trkpt><trkpt lat="40.689945" lon="14.958035"><ele>417.14285714285717</ele><time>2026-04-25T08:38:46.015Z</time></trkpt><trkpt lat="40.6899983" lon="14.9581183"><ele>415.0</ele><time>2026-04-25T08:38:47.013Z</time></trkpt><trkpt lat="40.69004" lon="14.958205"><ele>415.00000000000006</ele><time>2026-04-25T08:38:48.012Z</time></trkpt><trkpt lat="40.69009" lon="14.9583"><ele>415.0</ele><time>2026-04-25T08:38:49.018Z</time></trkpt><trkpt lat="40.6901433" lon="14.958405"><ele>415.0</ele><time>2026-04-25T08:38:50.023Z</time></trkpt><trkpt lat="40.6901917" lon="14.9584983"><ele>415.0</ele><time>2026-04-25T08:38:51.02Z</time></trkpt><trkpt lat="40.6902517" lon="14.9586"><ele>415.00000000000006</ele><time>2026-04-25T08:38:52.009Z</time></trkpt><trkpt lat="40.6903033" lon="14.9586833"><ele>415.0</ele><time>2026-04-25T08:38:53.025Z</time></trkpt><trkpt lat="40.69035" lon="14.9587517"><ele>412.50000000000006</ele><time>2026-04-25T08:38:54.013Z</time></trkpt><trkpt lat="40.6904083" lon="14.9588067"><ele>410.0</ele><time>2026-04-25T08:38:55.02Z</time></trkpt><trkpt lat="40.6904667" lon="14.9588733"><ele>407.5</ele><time>2026-04-25T08:38:56.078Z</time></trkpt><trkpt lat="40.690535" lon="14.95894"><ele>405.0</ele><time>2026-04-25T08:38:57.01Z</time></trkpt><trkpt lat="40.6905933" lon="14.9589983"><ele>402.50000000000006</ele><time>2026-04-25T08:38:58.014Z</time></trkpt><trkpt lat="40.6906667" lon="14.95909"><ele>400.0</ele><time>2026-04-25T08:39:00.012Z</time></trkpt><trkpt lat="40.6907217" lon="14.959215"><ele>400.0</ele><time>2026-04-25T08:39:02.059Z</time></trkpt><trkpt lat="40.690725" lon="14.9593233"><ele>400.0</ele><time>2026-04-25T08:39:03.011Z</time></trkpt><trkpt lat="40.690725" lon="14.9594633"><ele>400.0</ele><time>2026-04-25T08:39:04.009Z</time></trkpt><trkpt lat="40.69072" lon="14.9595767"><ele>400.0</ele><time>2026-04-25T08:39:05.016Z</time></trkpt><trkpt lat="40.6907233" lon="14.9596933"><ele>400.0</ele><time>2026-04-25T08:39:06.01Z</time></trkpt><trkpt lat="40.6907383" lon="14.95982"><ele>400.0</ele><time>2026-04-25T08:39:07.014Z</time></trkpt><trkpt lat="40.6907633" lon="14.9599433"><ele>400.0</ele><time>2026-04-25T08:39:08.029Z</time></trkpt><trkpt lat="40.6907817" lon="14.9600617"><ele>400.0</ele><time>2026-04-25T08:39:09.01Z</time></trkpt><trkpt lat="40.6908083" lon="14.9601833"><ele>400.0</ele><time>2026-04-25T08:39:10.011Z</time></trkpt><trkpt lat="40.6908233" lon="14.9603083"><ele>400.0</ele><time>2026-04-25T08:39:11.016Z</time></trkpt><trkpt lat="40.6908433" lon="14.9604217"><ele>400.4</ele><time>2026-04-25T08:39:12.014Z</time></trkpt><trkpt lat="40.690855" lon="14.9605367"><ele>400.8</ele><time>2026-04-25T08:39:13.015Z</time></trkpt><trkpt lat="40.6908517" lon="14.9606683"><ele>401.20000000000005</ele><time>2026-04-25T08:39:14.029Z</time></trkpt><trkpt lat="40.690855" lon="14.96082"><ele>401.6</ele><time>2026-04-25T08:39:15.019Z</time></trkpt><trkpt lat="40.69086" lon="14.9609617"><ele>402.0</ele><time>2026-04-25T08:39:16.012Z</time></trkpt><trkpt lat="40.6908733" lon="14.961075"><ele>403.6</ele><time>2026-04-25T08:39:17.016Z</time></trkpt><trkpt lat="40.690885" lon="14.9611783"><ele>405.20000000000005</ele><time>2026-04-25T08:39:18.013Z</time></trkpt><trkpt lat="40.6908667" lon="14.9613367"><ele>406.8</ele><time>2026-04-25T08:39:20.028Z</time></trkpt><trkpt lat="40.6908633" lon="14.9614733"><ele>408.4</ele><time>2026-04-25T08:39:22.015Z</time></trkpt><trkpt lat="40.6909167" lon="14.9616167"><ele>410.0</ele><time>2026-04-25T08:39:24.018Z</time></trkpt><trkpt lat="40.6909733" lon="14.96168"><ele>410.0</ele><time>2026-04-25T08:39:25.015Z</time></trkpt><trkpt lat="40.6910733" lon="14.9616567"><ele>410.0</ele><time>2026-04-25T08:39:26.077Z</time></trkpt><trkpt lat="40.6911717" lon="14.9616483"><ele>410.0</ele><time>2026-04-25T08:39:27.01Z</time></trkpt><trkpt lat="40.69126" lon="14.9616483"><ele>410.0</ele><time>2026-04-25T08:39:28.014Z</time></trkpt><trkpt lat="40.691355" lon="14.9616517"><ele>410.0</ele><time>2026-04-25T08:39:29.013Z</time></trkpt><trkpt lat="40.6914433" lon="14.9616567"><ele>409.42857142857144</ele><time>2026-04-25T08:39:30.005Z</time></trkpt><trkpt lat="40.6915267" lon="14.9616717"><ele>408.85714285714283</ele><time>2026-04-25T08:39:31.011Z</time></trkpt><trkpt lat="40.6915933" lon="14.9616967"><ele>408.2857142857143</ele><time>2026-04-25T08:39:32.057Z</time></trkpt><trkpt lat="40.6916583" lon="14.96172"><ele>407.7142857142857</ele><time>2026-04-25T08:39:33.011Z</time></trkpt><trkpt lat="40.6917233" lon="14.961745"><ele>407.1428571428571</ele><time>2026-04-25T08:39:34.015Z</time></trkpt><trkpt lat="40.6917883" lon="14.9617667"><ele>406.57142857142856</ele><time>2026-04-25T08:39:35.014Z</time></trkpt><trkpt lat="40.69185" lon="14.9618"><ele>406.0</ele><time>2026-04-25T08:39:36.011Z</time></trkpt><trkpt lat="40.6919283" lon="14.9618933"><ele>404.4</ele><time>2026-04-25T08:39:38.026Z</time></trkpt><trkpt lat="40.6919433" lon="14.9620617"><ele>402.8</ele><time>2026-04-25T08:39:40.006Z</time></trkpt><trkpt lat="40.6919717" lon="14.962155"><ele>401.2</ele><time>2026-04-25T08:39:41.011Z</time></trkpt><trkpt lat="40.6919967" lon="14.962265"><ele>399.59999999999997</ele><time>2026-04-25T08:39:42.012Z</time></trkpt><trkpt lat="40.6920183" lon="14.9623767"><ele>398.0</ele><time>2026-04-25T08:39:43.019Z</time></trkpt><trkpt lat="40.6920467" lon="14.962495"><ele>399.0</ele><time>2026-04-25T08:39:44.03Z</time></trkpt><trkpt lat="40.69207" lon="14.96261"><ele>400.0</ele><time>2026-04-25T08:39:45.01Z</time></trkpt><trkpt lat="40.692105" lon="14.9627133"><ele>401.0</ele><time>2026-04-25T08:39:46.011Z</time></trkpt><trkpt lat="40.6921367" lon="14.9628333"><ele>402.0</ele><time>2026-04-25T08:39:47.016Z</time></trkpt><trkpt lat="40.69217" lon="14.962955"><ele>403.0</ele><time>2026-04-25T08:39:48.013Z</time></trkpt><trkpt lat="40.69221" lon="14.9630767"><ele>403.0</ele><time>2026-04-25T08:39:49.015Z</time></trkpt><trkpt lat="40.6922517" lon="14.963225"><ele>403.0</ele><time>2026-04-25T08:39:50.023Z</time></trkpt><trkpt lat="40.6922667" lon="14.9633533"><ele>403.0</ele><time>2026-04-25T08:39:51.009Z</time></trkpt><trkpt lat="40.692285" lon="14.963475"><ele>403.0</ele><time>2026-04-25T08:39:52.014Z</time></trkpt><trkpt lat="40.6922867" lon="14.9635783"><ele>403.0</ele><time>2026-04-25T08:39:53.016Z</time></trkpt><trkpt lat="40.6922783" lon="14.9636733"><ele>401.6666666666667</ele><time>2026-04-25T08:39:54.02Z</time></trkpt><trkpt lat="40.6922733" lon="14.9637733"><ele>400.33333333333337</ele><time>2026-04-25T08:39:55.012Z</time></trkpt><trkpt lat="40.69227" lon="14.9638783"><ele>399.0</ele><time>2026-04-25T08:39:56.084Z</time></trkpt><trkpt lat="40.6922667" lon="14.9639783"><ele>397.66666666666663</ele><time>2026-04-25T08:39:57.013Z</time></trkpt><trkpt lat="40.6922517" lon="14.9640733"><ele>396.3333333333333</ele><time>2026-04-25T08:39:58.012Z</time></trkpt><trkpt lat="40.6922333" lon="14.9641617"><ele>395.0</ele><time>2026-04-25T08:39:59.015Z</time></trkpt><trkpt lat="40.69219" lon="14.9643067"><ele>393.4</ele><time>2026-04-25T08:40:01.016Z</time></trkpt><trkpt lat="40.6921433" lon="14.964455"><ele>391.8</ele><time>2026-04-25T08:40:03.013Z</time></trkpt><trkpt lat="40.69213" lon="14.9646183"><ele>390.20000000000005</ele><time>2026-04-25T08:40:05.018Z</time></trkpt><trkpt lat="40.6921517" lon="14.9647"><ele>388.6</ele><time>2026-04-25T08:40:06.007Z</time></trkpt><trkpt lat="40.6921833" lon="14.9648483"><ele>387.0</ele><time>2026-04-25T08:40:08.028Z</time></trkpt><trkpt lat="40.6922267" lon="14.964975"><ele>386.6666666666667</ele><time>2026-04-25T08:40:10.014Z</time></trkpt><trkpt lat="40.692265" lon="14.965045"><ele>386.33333333333337</ele><time>2026-04-25T08:40:11.019Z</time></trkpt><trkpt lat="40.6923" lon="14.965115"><ele>386.0</ele><time>2026-04-25T08:40:12.01Z</time></trkpt><trkpt lat="40.69235" lon="14.9652667"><ele>385.6666666666667</ele><time>2026-04-25T08:40:14.03Z</time></trkpt><trkpt lat="40.6923567" lon="14.9654083"><ele>385.33333333333337</ele><time>2026-04-25T08:40:16.005Z</time></trkpt><trkpt lat="40.6923617" lon="14.9654967"><ele>385.0</ele><time>2026-04-25T08:40:18.016Z</time></trkpt><trkpt lat="40.6923583" lon="14.9656083"><ele>385.0</ele><time>2026-04-25T08:40:21.01Z</time></trkpt><trkpt lat="40.6923717" lon="14.9657383"><ele>385.0</ele><time>2026-04-25T08:40:23.017Z</time></trkpt><trkpt lat="40.692405" lon="14.9659167"><ele>385.0</ele><time>2026-04-25T08:40:25.015Z</time></trkpt><trkpt lat="40.6924233" lon="14.9660283"><ele>385.0</ele><time>2026-04-25T08:40:26.081Z</time></trkpt><trkpt lat="40.692455" lon="14.9661567"><ele>385.0</ele><time>2026-04-25T08:40:27.01Z</time></trkpt><trkpt lat="40.6924833" lon="14.9662933"><ele>386.33333333333337</ele><time>2026-04-25T08:40:28.009Z</time></trkpt><trkpt lat="40.6925117" lon="14.966415"><ele>387.6666666666667</ele><time>2026-04-25T08:40:29.024Z</time></trkpt><trkpt lat="40.6925417" lon="14.9665317"><ele>389.0</ele><time>2026-04-25T08:40:30.013Z</time></trkpt><trkpt lat="40.6925783" lon="14.9666383"><ele>390.33333333333337</ele><time>2026-04-25T08:40:31.015Z</time></trkpt><trkpt lat="40.6926017" lon="14.9667367"><ele>391.6666666666667</ele><time>2026-04-25T08:40:32.033Z</time></trkpt><trkpt lat="40.69263" lon="14.96682"><ele>393.0</ele><time>2026-04-25T08:40:33.018Z</time></trkpt><trkpt lat="40.6926733" lon="14.9669267"><ele>391.4</ele><time>2026-04-25T08:40:34.011Z</time></trkpt><trkpt lat="40.6927133" lon="14.967035"><ele>389.79999999999995</ele><time>2026-04-25T08:40:35.019Z</time></trkpt><trkpt lat="40.6927533" lon="14.9671467"><ele>388.2</ele><time>2026-04-25T08:40:36.014Z</time></trkpt><trkpt lat="40.692805" lon="14.9672367"><ele>386.6</ele><time>2026-04-25T08:40:37.016Z</time></trkpt><trkpt lat="40.6929317" lon="14.967285"><ele>385.0</ele><time>2026-04-25T08:40:38.026Z</time></trkpt><trkpt lat="40.6930367" lon="14.9673333"><ele>385.00000000000006</ele><time>2026-04-25T08:40:39.014Z</time></trkpt><trkpt lat="40.6931283" lon="14.9673783"><ele>385.0</ele><time>2026-04-25T08:40:40.014Z</time></trkpt><trkpt lat="40.693215" lon="14.9674133"><ele>385.0</ele><time>2026-04-25T08:40:41.019Z</time></trkpt><trkpt lat="40.693285" lon="14.9674533"><ele>385.0</ele><time>2026-04-25T08:40:42.011Z</time></trkpt><trkpt lat="40.6933433" lon="14.967505"><ele>385.00000000000006</ele><time>2026-04-25T08:40:43.016Z</time></trkpt><trkpt lat="40.693415" lon="14.9676133"><ele>385.0</ele><time>2026-04-25T08:40:45.013Z</time></trkpt><trkpt lat="40.6934417" lon="14.9677183"><ele>389.0</ele><time>2026-04-25T08:40:47.014Z</time></trkpt><trkpt lat="40.69345" lon="14.96783"><ele>393.0</ele><time>2026-04-25T08:40:49.014Z</time></trkpt><trkpt lat="40.693445" lon="14.9680033"><ele>397.0</ele><time>2026-04-25T08:40:51.014Z</time></trkpt><trkpt lat="40.6934417" lon="14.9681083"><ele>401.0</ele><time>2026-04-25T08:40:52.013Z</time></trkpt><trkpt lat="40.6934383" lon="14.9681967"><ele>405.0</ele><time>2026-04-25T08:40:53.015Z</time></trkpt><trkpt lat="40.6934283" lon="14.9683467"><ele>406.2857142857143</ele><time>2026-04-25T08:40:55.017Z</time></trkpt><trkpt lat="40.693415" lon="14.9684333"><ele>407.57142857142856</ele><time>2026-04-25T08:40:56.081Z</time></trkpt><trkpt lat="40.6934217" lon="14.9685233"><ele>408.8571428571429</ele><time>2026-04-25T08:40:57.013Z</time></trkpt><trkpt lat="40.693425" lon="14.96862"><ele>410.1428571428571</ele><time>2026-04-25T08:40:58.01Z</time></trkpt><trkpt lat="40.6934317" lon="14.9687217"><ele>411.42857142857144</ele><time>2026-04-25T08:40:59.014Z</time></trkpt><trkpt lat="40.6934317" lon="14.9688217"><ele>412.7142857142857</ele><time>2026-04-25T08:41:00.012Z</time></trkpt><trkpt lat="40.693435" lon="14.9689117"><ele>414.0</ele><time>2026-04-25T08:41:01.015Z</time></trkpt><trkpt lat="40.6934367" lon="14.9690083"><ele>414.0</ele><time>2026-04-25T08:41:02.06Z</time></trkpt><trkpt lat="40.6934483" lon="14.96911"><ele>414.0</ele><time>2026-04-25T08:41:03.011Z</time></trkpt><trkpt lat="40.69347" lon="14.9691933"><ele>414.0</ele><time>2026-04-25T08:41:04.008Z</time></trkpt><trkpt lat="40.6934733" lon="14.9692783"><ele>414.0</ele><time>2026-04-25T08:41:05.015Z</time></trkpt><trkpt lat="40.6934917" lon="14.96942"><ele>414.0</ele><time>2026-04-25T08:41:07.017Z</time></trkpt><trkpt lat="40.693495" lon="14.96956"><ele>414.0</ele><time>2026-04-25T08:41:09.011Z</time></trkpt><trkpt lat="40.6934517" lon="14.969705"><ele>411.6</ele><time>2026-04-25T08:41:11.011Z</time></trkpt><trkpt lat="40.6933817" lon="14.9698267"><ele>409.2</ele><time>2026-04-25T08:41:13.012Z</time></trkpt><trkpt lat="40.6933283" lon="14.969875"><ele>406.8</ele><time>2026-04-25T08:41:14.025Z</time></trkpt><trkpt lat="40.69326" lon="14.96994"><ele>404.40000000000003</ele><time>2026-04-25T08:41:15.01Z</time></trkpt><trkpt lat="40.6931817" lon="14.9700167"><ele>402.0</ele><time>2026-04-25T08:41:16.006Z</time></trkpt><trkpt lat="40.6930917" lon="14.9700967"><ele>399.40000000000003</ele><time>2026-04-25T08:41:17.016Z</time></trkpt><trkpt lat="40.6930117" lon="14.97016"><ele>396.8</ele><time>2026-04-25T08:41:18.011Z</time></trkpt><trkpt lat="40.692935" lon="14.9702283"><ele>394.2</ele><time>2026-04-25T08:41:19.012Z</time></trkpt><trkpt lat="40.6928717" lon="14.9702867"><ele>391.6</ele><time>2026-04-25T08:41:20.03Z</time></trkpt><trkpt lat="40.69281" lon="14.97034"><ele>389.0</ele><time>2026-04-25T08:41:21.013Z</time></trkpt><trkpt lat="40.6927" lon="14.97042"><ele>389.0</ele><time>2026-04-25T08:41:22.009Z</time></trkpt><trkpt lat="40.69262" lon="14.9704767"><ele>389.0</ele><time>2026-04-25T08:41:23.014Z</time></trkpt><trkpt lat="40.69251" lon="14.9705283"><ele>389.0</ele><time>2026-04-25T08:41:25.015Z</time></trkpt><trkpt lat="40.6924483" lon="14.9705467"><ele>389.0</ele><time>2026-04-25T08:41:26.077Z</time></trkpt><trkpt lat="40.69235" lon="14.9705817"><ele>389.0</ele><time>2026-04-25T08:41:28.007Z</time></trkpt><trkpt lat="40.692285" lon="14.97068"><ele>389.0</ele><time>2026-04-25T08:41:30.014Z</time></trkpt><trkpt lat="40.6922417" lon="14.9707567"><ele>389.0</ele><time>2026-04-25T08:41:31.016Z</time></trkpt><trkpt lat="40.692185" lon="14.9708383"><ele>389.0</ele><time>2026-04-25T08:41:32.054Z</time></trkpt><trkpt lat="40.6921117" lon="14.9709283"><ele>389.0</ele><time>2026-04-25T08:41:33.018Z</time></trkpt><trkpt lat="40.69203" lon="14.971025"><ele>389.0</ele><time>2026-04-25T08:41:34.013Z</time></trkpt><trkpt lat="40.69196" lon="14.97112"><ele>387.79999999999995</ele><time>2026-04-25T08:41:35.015Z</time></trkpt><trkpt lat="40.6918883" lon="14.9712117"><ele>386.59999999999997</ele><time>2026-04-25T08:41:36.014Z</time></trkpt><trkpt lat="40.69182" lon="14.9713083"><ele>385.4</ele><time>2026-04-25T08:41:37.013Z</time></trkpt><trkpt lat="40.6917533" lon="14.9714"><ele>384.2</ele><time>2026-04-25T08:41:38.024Z</time></trkpt><trkpt lat="40.6916983" lon="14.971485"><ele>383.0</ele><time>2026-04-25T08:41:39.006Z</time></trkpt><trkpt lat="40.6916567" lon="14.9715683"><ele>383.0</ele><time>2026-04-25T08:41:40.012Z</time></trkpt><trkpt lat="40.691625" lon="14.9716467"><ele>383.0</ele><time>2026-04-25T08:41:41.013Z</time></trkpt><trkpt lat="40.691595" lon="14.9717217"><ele>383.0</ele><time>2026-04-25T08:41:42.012Z</time></trkpt><trkpt lat="40.691565" lon="14.971795"><ele>383.0</ele><time>2026-04-25T08:41:43.016Z</time></trkpt><trkpt lat="40.6915333" lon="14.9719183"><ele>383.0</ele><time>2026-04-25T08:41:45.011Z</time></trkpt><trkpt lat="40.6915133" lon="14.9720017"><ele>383.0</ele><time>2026-04-25T08:41:46.015Z</time></trkpt><trkpt lat="40.6914917" lon="14.9720917"><ele>383.0</ele><time>2026-04-25T08:41:47.014Z</time></trkpt><trkpt lat="40.691475" lon="14.97219"><ele>380.5</ele><time>2026-04-25T08:41:48.012Z</time></trkpt><trkpt lat="40.691465" lon="14.9722883"><ele>378.0</ele><time>2026-04-25T08:41:49.017Z</time></trkpt><trkpt lat="40.6914683" lon="14.9723817"><ele>375.5</ele><time>2026-04-25T08:41:50.029Z</time></trkpt><trkpt lat="40.6914767" lon="14.9724667"><ele>373.0</ele><time>2026-04-25T08:41:51.016Z</time></trkpt><trkpt lat="40.6914717" lon="14.9725517"><ele>370.5</ele><time>2026-04-25T08:41:52.018Z</time></trkpt><trkpt lat="40.6914717" lon="14.9726967"><ele>368.0</ele><time>2026-04-25T08:41:54.014Z</time></trkpt><trkpt lat="40.6914683" lon="14.9728467"><ele>366.59999999999997</ele><time>2026-04-25T08:41:56.07Z</time></trkpt><trkpt lat="40.69139" lon="14.9729783"><ele>365.2</ele><time>2026-04-25T08:41:58.007Z</time></trkpt><trkpt lat="40.6913417" lon="14.9730417"><ele>363.8</ele><time>2026-04-25T08:41:59.015Z</time></trkpt><trkpt lat="40.69126" lon="14.9730967"><ele>362.4</ele><time>2026-04-25T08:42:00.011Z</time></trkpt><trkpt lat="40.6911317" lon="14.9731417"><ele>361.0</ele><time>2026-04-25T08:42:01.01Z</time></trkpt><trkpt lat="40.6909983" lon="14.9731917"><ele>361.0</ele><time>2026-04-25T08:42:02.072Z</time></trkpt><trkpt lat="40.6908583" lon="14.9732467"><ele>361.0</ele><time>2026-04-25T08:42:03.009Z</time></trkpt><trkpt lat="40.6907367" lon="14.9732983"><ele>361.0</ele><time>2026-04-25T08:42:04.014Z</time></trkpt><trkpt lat="40.6906317" lon="14.9733317"><ele>361.0</ele><time>2026-04-25T08:42:05.007Z</time></trkpt><trkpt lat="40.6905417" lon="14.973345"><ele>361.0</ele><time>2026-04-25T08:42:06.005Z</time></trkpt><trkpt lat="40.6904367" lon="14.973355"><ele>361.0</ele><time>2026-04-25T08:42:07.008Z</time></trkpt><trkpt lat="40.690335" lon="14.973365"><ele>361.0</ele><time>2026-04-25T08:42:08.023Z</time></trkpt><trkpt lat="40.69025" lon="14.973375"><ele>361.0</ele><time>2026-04-25T08:42:09.014Z</time></trkpt><trkpt lat="40.69018" lon="14.9733883"><ele>361.0</ele><time>2026-04-25T08:42:10.012Z</time></trkpt><trkpt lat="40.6902" lon="14.973495"><ele>361.0</ele><time>2026-04-25T08:42:13.015Z</time></trkpt><trkpt lat="40.69024" lon="14.9736"><ele>357.5</ele><time>2026-04-25T08:42:14.027Z</time></trkpt><trkpt lat="40.690285" lon="14.9737317"><ele>354.0</ele><time>2026-04-25T08:42:15.005Z</time></trkpt><trkpt lat="40.6903383" lon="14.97388"><ele>350.5</ele><time>2026-04-25T08:42:16.008Z</time></trkpt><trkpt lat="40.690395" lon="14.9740433"><ele>347.0</ele><time>2026-04-25T08:42:17.011Z</time></trkpt><trkpt lat="40.6904383" lon="14.9742033"><ele>346.75</ele><time>2026-04-25T08:42:18.005Z</time></trkpt><trkpt lat="40.6904617" lon="14.9743617"><ele>346.5</ele><time>2026-04-25T08:42:19.014Z</time></trkpt><trkpt lat="40.6904817" lon="14.974515"><ele>346.25</ele><time>2026-04-25T08:42:20.029Z</time></trkpt><trkpt lat="40.6905033" lon="14.9746667"><ele>346.0</ele><time>2026-04-25T08:42:21.013Z</time></trkpt><trkpt lat="40.6905417" lon="14.9748183"><ele>346.0</ele><time>2026-04-25T08:42:22.019Z</time></trkpt><trkpt lat="40.6905883" lon="14.9749583"><ele>346.0</ele><time>2026-04-25T08:42:23.02Z</time></trkpt><trkpt lat="40.6906617" lon="14.975035"><ele>346.0</ele><time>2026-04-25T08:42:24.014Z</time></trkpt><trkpt lat="40.6907333" lon="14.97511"><ele>346.0</ele><time>2026-04-25T08:42:25.012Z</time></trkpt><trkpt lat="40.6908183" lon="14.9751667"><ele>346.0</ele><time>2026-04-25T08:42:26.079Z</time></trkpt><trkpt lat="40.6909083" lon="14.9752067"><ele>346.8</ele><time>2026-04-25T08:42:27.009Z</time></trkpt><trkpt lat="40.6909867" lon="14.9752467"><ele>347.6</ele><time>2026-04-25T08:42:28.014Z</time></trkpt><trkpt lat="40.69107" lon="14.9753"><ele>348.4</ele><time>2026-04-25T08:42:29.016Z</time></trkpt><trkpt lat="40.69115" lon="14.9753817"><ele>349.2</ele><time>2026-04-25T08:42:30.018Z</time></trkpt><trkpt lat="40.69123" lon="14.9754733"><ele>350.0</ele><time>2026-04-25T08:42:31.018Z</time></trkpt><trkpt lat="40.6913183" lon="14.9755567"><ele>348.2</ele><time>2026-04-25T08:42:32.057Z</time></trkpt><trkpt lat="40.6914117" lon="14.9756367"><ele>346.4</ele><time>2026-04-25T08:42:33.015Z</time></trkpt><trkpt lat="40.6915033" lon="14.9757233"><ele>344.6</ele><time>2026-04-25T08:42:34.022Z</time></trkpt><trkpt lat="40.6915883" lon="14.975805"><ele>342.8</ele><time>2026-04-25T08:42:35.021Z</time></trkpt><trkpt lat="40.69167" lon="14.975875"><ele>341.0</ele><time>2026-04-25T08:42:36.007Z</time></trkpt><trkpt lat="40.691755" lon="14.9759317"><ele>339.4</ele><time>2026-04-25T08:42:37.014Z</time></trkpt><trkpt lat="40.6918267" lon="14.9760033"><ele>337.8</ele><time>2026-04-25T08:42:38.031Z</time></trkpt><trkpt lat="40.6918833" lon="14.9760867"><ele>336.2</ele><time>2026-04-25T08:42:39.019Z</time></trkpt><trkpt lat="40.6919367" lon="14.9761767"><ele>334.59999999999997</ele><time>2026-04-25T08:42:40.014Z</time></trkpt><trkpt lat="40.6919767" lon="14.976285"><ele>333.0</ele><time>2026-04-25T08:42:41.019Z</time></trkpt><trkpt lat="40.6920183" lon="14.9764117"><ele>332.0</ele><time>2026-04-25T08:42:42.017Z</time></trkpt><trkpt lat="40.69204" lon="14.9765467"><ele>331.0</ele><time>2026-04-25T08:42:43.021Z</time></trkpt><trkpt lat="40.692025" lon="14.9767067"><ele>330.0</ele><time>2026-04-25T08:42:44.024Z</time></trkpt><trkpt lat="40.6919417" lon="14.9768717"><ele>329.0</ele><time>2026-04-25T08:42:45.013Z</time></trkpt><trkpt lat="40.691885" lon="14.97702"><ele>326.5</ele><time>2026-04-25T08:42:46.021Z</time></trkpt><trkpt lat="40.6918117" lon="14.9771783"><ele>324.0</ele><time>2026-04-25T08:42:47.015Z</time></trkpt><trkpt lat="40.691705" lon="14.9773567"><ele>321.5</ele><time>2026-04-25T08:42:48.014Z</time></trkpt><trkpt lat="40.69163" lon="14.9774883"><ele>319.0</ele><time>2026-04-25T08:42:49.014Z</time></trkpt><trkpt lat="40.6915617" lon="14.9776133"><ele>317.5</ele><time>2026-04-25T08:42:50.028Z</time></trkpt><trkpt lat="40.6914983" lon="14.9777317"><ele>316.0</ele><time>2026-04-25T08:42:51.015Z</time></trkpt><trkpt lat="40.69147" lon="14.9778117"><ele>314.5</ele><time>2026-04-25T08:42:52.011Z</time></trkpt><trkpt lat="40.6915033" lon="14.977895"><ele>313.0</ele><time>2026-04-25T08:42:55.016Z</time></trkpt><trkpt lat="40.69156" lon="14.9779433"><ele>311.5</ele><time>2026-04-25T08:42:56.051Z</time></trkpt><trkpt lat="40.69162" lon="14.9780217"><ele>310.0</ele><time>2026-04-25T08:42:57.005Z</time></trkpt><trkpt lat="40.6917333" lon="14.978085"><ele>310.0</ele><time>2026-04-25T08:42:58.009Z</time></trkpt><trkpt lat="40.6918667" lon="14.978115"><ele>310.0</ele><time>2026-04-25T08:42:59.012Z</time></trkpt><trkpt lat="40.6919983" lon="14.9781283"><ele>310.0</ele><time>2026-04-25T08:43:00.005Z</time></trkpt><trkpt lat="40.6921333" lon="14.9781283"><ele>310.0</ele><time>2026-04-25T08:43:01.013Z</time></trkpt><trkpt lat="40.6922683" lon="14.9781083"><ele>310.6</ele><time>2026-04-25T08:43:02.03Z</time></trkpt><trkpt lat="40.6923917" lon="14.9780783"><ele>311.2</ele><time>2026-04-25T08:43:03.012Z</time></trkpt><trkpt lat="40.6924917" lon="14.97805"><ele>311.8</ele><time>2026-04-25T08:43:04.013Z</time></trkpt><trkpt lat="40.6925833" lon="14.9780367"><ele>312.4</ele><time>2026-04-25T08:43:05.012Z</time></trkpt><trkpt lat="40.692665" lon="14.9780267"><ele>313.0</ele><time>2026-04-25T08:43:06.007Z</time></trkpt><trkpt lat="40.6927633" lon="14.9780383"><ele>313.0</ele><time>2026-04-25T08:43:08.033Z</time></trkpt><trkpt lat="40.6927083" lon="14.978145"><ele>313.0</ele><time>2026-04-25T08:43:10.006Z</time></trkpt><trkpt lat="40.692515" lon="14.9782767"><ele>313.0</ele><time>2026-04-25T08:43:11.016Z</time></trkpt><trkpt lat="40.6923817" lon="14.978355"><ele>310.25</ele><time>2026-04-25T08:43:12.011Z</time></trkpt><trkpt lat="40.6922433" lon="14.97843"><ele>307.5</ele><time>2026-04-25T08:43:13.011Z</time></trkpt><trkpt lat="40.6921167" lon="14.9784517"><ele>304.75</ele><time>2026-04-25T08:43:14.031Z</time></trkpt><trkpt lat="40.6919933" lon="14.9784483"><ele>302.0</ele><time>2026-04-25T08:43:15.023Z</time></trkpt><trkpt lat="40.6918667" lon="14.97847"><ele>301.0</ele><time>2026-04-25T08:43:16.01Z</time></trkpt><trkpt lat="40.69177" lon="14.9784117"><ele>300.0</ele><time>2026-04-25T08:43:17.01Z</time></trkpt><trkpt lat="40.691685" lon="14.9784017"><ele>299.0</ele><time>2026-04-25T08:43:18.011Z</time></trkpt><trkpt lat="40.6916" lon="14.9784067"><ele>298.0</ele><time>2026-04-25T08:43:19.012Z</time></trkpt><trkpt lat="40.691525" lon="14.978365"><ele>297.0</ele><time>2026-04-25T08:43:20.026Z</time></trkpt><trkpt lat="40.6914317" lon="14.9783417"><ele>296.6</ele><time>2026-04-25T08:43:21.015Z</time></trkpt><trkpt lat="40.69134" lon="14.9783183"><ele>296.2</ele><time>2026-04-25T08:43:22.011Z</time></trkpt><trkpt lat="40.6912433" lon="14.9782833"><ele>295.8</ele><time>2026-04-25T08:43:23.017Z</time></trkpt><trkpt lat="40.6911467" lon="14.9782383"><ele>295.4</ele><time>2026-04-25T08:43:24.008Z</time></trkpt><trkpt lat="40.691035" lon="14.9781833"><ele>295.0</ele><time>2026-04-25T08:43:25.014Z</time></trkpt><trkpt lat="40.69091" lon="14.9781183"><ele>295.0</ele><time>2026-04-25T08:43:26.056Z</time></trkpt><trkpt lat="40.6907617" lon="14.978035"><ele>295.0</ele><time>2026-04-25T08:43:27.004Z</time></trkpt><trkpt lat="40.6905983" lon="14.97795"><ele>295.0</ele><time>2026-04-25T08:43:28.012Z</time></trkpt><trkpt lat="40.6904333" lon="14.9778733"><ele>295.0</ele><time>2026-04-25T08:43:29.006Z</time></trkpt><trkpt lat="40.69028" lon="14.977805"><ele>295.0</ele><time>2026-04-25T08:43:30.008Z</time></trkpt><trkpt lat="40.6901333" lon="14.9777417"><ele>295.0</ele><time>2026-04-25T08:43:31.011Z</time></trkpt><trkpt lat="40.6899933" lon="14.9776883"><ele>291.5</ele><time>2026-04-25T08:43:32.062Z</time></trkpt><trkpt lat="40.6898567" lon="14.9776567"><ele>288.0</ele><time>2026-04-25T08:43:33.003Z</time></trkpt><trkpt lat="40.6897233" lon="14.977645"><ele>284.5</ele><time>2026-04-25T08:43:34.005Z</time></trkpt><trkpt lat="40.689595" lon="14.9776517"><ele>281.0</ele><time>2026-04-25T08:43:35.007Z</time></trkpt><trkpt lat="40.6894633" lon="14.97766"><ele>279.0</ele><time>2026-04-25T08:43:36.006Z</time></trkpt><trkpt lat="40.68933" lon="14.9776583"><ele>277.0</ele><time>2026-04-25T08:43:37.002Z</time></trkpt><trkpt lat="40.6891983" lon="14.9776433"><ele>275.0</ele><time>2026-04-25T08:43:38.027Z</time></trkpt><trkpt lat="40.6890717" lon="14.977625"><ele>273.0</ele><time>2026-04-25T08:43:39.009Z</time></trkpt><trkpt lat="40.68895" lon="14.9776017"><ele>273.0</ele><time>2026-04-25T08:43:40.006Z</time></trkpt><trkpt lat="40.6888433" lon="14.9775833"><ele>273.0</ele><time>2026-04-25T08:43:41.007Z</time></trkpt><trkpt lat="40.6887417" lon="14.9775617"><ele>273.0</ele><time>2026-04-25T08:43:42.012Z</time></trkpt><trkpt lat="40.6886567" lon="14.977545"><ele>273.0</ele><time>2026-04-25T08:43:43.01Z</time></trkpt><trkpt lat="40.6885833" lon="14.9775317"><ele>273.0</ele><time>2026-04-25T08:43:44.022Z</time></trkpt><trkpt lat="40.68851" lon="14.9775233"><ele>273.0</ele><time>2026-04-25T08:43:45.008Z</time></trkpt><trkpt lat="40.6884233" lon="14.977515"><ele>273.0</ele><time>2026-04-25T08:43:46.005Z</time></trkpt><trkpt lat="40.68832" lon="14.977505"><ele>273.0</ele><time>2026-04-25T08:43:47.015Z</time></trkpt><trkpt lat="40.6882183" lon="14.97751"><ele>273.0</ele><time>2026-04-25T08:43:48.008Z</time></trkpt><trkpt lat="40.6881267" lon="14.977515"><ele>273.0</ele><time>2026-04-25T08:43:49.01Z</time></trkpt><trkpt lat="40.6880517" lon="14.9775267"><ele>273.0</ele><time>2026-04-25T08:43:50.028Z</time></trkpt><trkpt lat="40.6879817" lon="14.9775533"><ele>273.0</ele><time>2026-04-25T08:43:52.012Z</time></trkpt><trkpt lat="40.687965" lon="14.9776467"><ele>271.0</ele><time>2026-04-25T08:43:53.01Z</time></trkpt><trkpt lat="40.6879833" lon="14.9777433"><ele>269.0</ele><time>2026-04-25T08:43:54.003Z</time></trkpt><trkpt lat="40.688" lon="14.977885"><ele>267.0</ele><time>2026-04-25T08:43:55.009Z</time></trkpt><trkpt lat="40.6880017" lon="14.9780367"><ele>265.0</ele><time>2026-04-25T08:43:56.032Z</time></trkpt><trkpt lat="40.6879983" lon="14.9781967"><ele>263.0</ele><time>2026-04-25T08:43:57.014Z</time></trkpt><trkpt lat="40.6880183" lon="14.9783433"><ele>260.6</ele><time>2026-04-25T08:43:58.012Z</time></trkpt><trkpt lat="40.6880317" lon="14.9784933"><ele>258.20000000000005</ele><time>2026-04-25T08:43:59.018Z</time></trkpt><trkpt lat="40.68806" lon="14.978635"><ele>255.8</ele><time>2026-04-25T08:44:00.008Z</time></trkpt><trkpt lat="40.6880983" lon="14.9787633"><ele>253.4</ele><time>2026-04-25T08:44:01.012Z</time></trkpt><trkpt lat="40.68812" lon="14.9788883"><ele>251.0</ele><time>2026-04-25T08:44:02.023Z</time></trkpt><trkpt lat="40.6881233" lon="14.9790067"><ele>251.0</ele><time>2026-04-25T08:44:03.006Z</time></trkpt><trkpt lat="40.6881133" lon="14.979115"><ele>251.0</ele><time>2026-04-25T08:44:04.01Z</time></trkpt><trkpt lat="40.688075" lon="14.9792367"><ele>251.0</ele><time>2026-04-25T08:44:05.013Z</time></trkpt><trkpt lat="40.6879833" lon="14.9793967"><ele>251.0</ele><time>2026-04-25T08:44:06.006Z</time></trkpt><trkpt lat="40.6879033" lon="14.9795517"><ele>249.75</ele><time>2026-04-25T08:44:07.017Z</time></trkpt><trkpt lat="40.6878333" lon="14.979695"><ele>248.5</ele><time>2026-04-25T08:44:08.032Z</time></trkpt><trkpt lat="40.68777" lon="14.97984"><ele>247.25</ele><time>2026-04-25T08:44:09.009Z</time></trkpt><trkpt lat="40.6877067" lon="14.9799833"><ele>246.0</ele><time>2026-04-25T08:44:10.01Z</time></trkpt><trkpt lat="40.687645" lon="14.98012"><ele>245.16666666666666</ele><time>2026-04-25T08:44:11.006Z</time></trkpt><trkpt lat="40.687595" lon="14.980245"><ele>244.33333333333331</ele><time>2026-04-25T08:44:12.005Z</time></trkpt><trkpt lat="40.6875433" lon="14.980365"><ele>243.5</ele><time>2026-04-25T08:44:13.02Z</time></trkpt><trkpt lat="40.687495" lon="14.9804667"><ele>242.66666666666666</ele><time>2026-04-25T08:44:14.027Z</time></trkpt><trkpt lat="40.6874567" lon="14.9805367"><ele>241.83333333333331</ele><time>2026-04-25T08:44:15.008Z</time></trkpt><trkpt lat="40.6874333" lon="14.9806333"><ele>241.0</ele><time>2026-04-25T08:44:17.008Z</time></trkpt><trkpt lat="40.6874767" lon="14.980745"><ele>238.8</ele><time>2026-04-25T08:44:19.009Z</time></trkpt><trkpt lat="40.6874883" lon="14.9808667"><ele>236.60000000000002</ele><time>2026-04-25T08:44:21.007Z</time></trkpt><trkpt lat="40.6874933" lon="14.9809617"><ele>234.4</ele><time>2026-04-25T08:44:23.014Z</time></trkpt><trkpt lat="40.6874717" lon="14.9810683"><ele>232.2</ele><time>2026-04-25T08:44:25.021Z</time></trkpt><trkpt lat="40.6874367" lon="14.9812517"><ele>230.0</ele><time>2026-04-25T08:44:27.005Z</time></trkpt><trkpt lat="40.687405" lon="14.9813717"><ele>230.00000000000003</ele><time>2026-04-25T08:44:29.009Z</time></trkpt><trkpt lat="40.687325" lon="14.981425"><ele>230.0</ele><time>2026-04-25T08:44:32.056Z</time></trkpt><trkpt lat="40.6872617" lon="14.9814317"><ele>230.0</ele><time>2026-04-25T08:44:33.008Z</time></trkpt><trkpt lat="40.687185" lon="14.9814183"><ele>230.0</ele><time>2026-04-25T08:44:34.01Z</time></trkpt><trkpt lat="40.6871067" lon="14.9813833"><ele>230.00000000000003</ele><time>2026-04-25T08:44:35.018Z</time></trkpt><trkpt lat="40.687035" lon="14.98134"><ele>230.0</ele><time>2026-04-25T08:44:36.013Z</time></trkpt><trkpt lat="40.68697" lon="14.9813217"><ele>229.16666666666669</ele><time>2026-04-25T08:44:37.013Z</time></trkpt><trkpt lat="40.686905" lon="14.98126"><ele>228.33333333333334</ele><time>2026-04-25T08:44:38.028Z</time></trkpt><trkpt lat="40.6867967" lon="14.9812033"><ele>227.5</ele><time>2026-04-25T08:44:40.014Z</time></trkpt><trkpt lat="40.6867133" lon="14.9811717"><ele>226.66666666666669</ele><time>2026-04-25T08:44:42.013Z</time></trkpt><trkpt lat="40.6866517" lon="14.9811533"><ele>225.83333333333334</ele><time>2026-04-25T08:44:43.01Z</time></trkpt><trkpt lat="40.68659" lon="14.9811233"><ele>225.0</ele><time>2026-04-25T08:44:44.021Z</time></trkpt><trkpt lat="40.6865183" lon="14.9810967"><ele>225.0</ele><time>2026-04-25T08:44:45.007Z</time></trkpt><trkpt lat="40.6864383" lon="14.9810717"><ele>225.0</ele><time>2026-04-25T08:44:46.005Z</time></trkpt><trkpt lat="40.6863083" lon="14.9810783"><ele>225.0</ele><time>2026-04-25T08:44:47.011Z</time></trkpt><trkpt lat="40.68623" lon="14.9810783"><ele>225.0</ele><time>2026-04-25T08:44:48.006Z</time></trkpt><trkpt lat="40.6861467" lon="14.98109"><ele>225.0</ele><time>2026-04-25T08:44:49.008Z</time></trkpt><trkpt lat="40.6860217" lon="14.9810783"><ele>224.0</ele><time>2026-04-25T08:44:51.011Z</time></trkpt><trkpt lat="40.6859667" lon="14.98103"><ele>223.0</ele><time>2026-04-25T08:44:52.015Z</time></trkpt><trkpt lat="40.6859067" lon="14.9809733"><ele>222.0</ele><time>2026-04-25T08:44:53.014Z</time></trkpt><trkpt lat="40.68584" lon="14.98092"><ele>221.0</ele><time>2026-04-25T08:44:54.009Z</time></trkpt><trkpt lat="40.6857683" lon="14.9808883"><ele>220.0</ele><time>2026-04-25T08:44:55.012Z</time></trkpt><trkpt lat="40.685685" lon="14.9808667"><ele>219.0</ele><time>2026-04-25T08:44:56.071Z</time></trkpt><trkpt lat="40.685595" lon="14.98085"><ele>219.0</ele><time>2026-04-25T08:44:57.009Z</time></trkpt><trkpt lat="40.6855033" lon="14.9808333"><ele>219.0</ele><time>2026-04-25T08:44:58.005Z</time></trkpt><trkpt lat="40.6854117" lon="14.980835"><ele>219.0</ele><time>2026-04-25T08:44:59.005Z</time></trkpt><trkpt lat="40.6853367" lon="14.980855"><ele>219.0</ele><time>2026-04-25T08:45:00.013Z</time></trkpt><trkpt lat="40.68526" lon="14.9808733"><ele>219.0</ele><time>2026-04-25T08:45:01.013Z</time></trkpt><trkpt lat="40.685195" lon="14.9808867"><ele>219.0</ele><time>2026-04-25T08:45:02.055Z</time></trkpt><trkpt lat="40.6851283" lon="14.980895"><ele>219.33333333333334</ele><time>2026-04-25T08:45:03.014Z</time></trkpt><trkpt lat="40.6850633" lon="14.9808783"><ele>219.66666666666669</ele><time>2026-04-25T08:45:04.008Z</time></trkpt><trkpt lat="40.68499" lon="14.98086"><ele>220.0</ele><time>2026-04-25T08:45:05.007Z</time></trkpt><trkpt lat="40.6849183" lon="14.980805"><ele>220.33333333333334</ele><time>2026-04-25T08:45:06.004Z</time></trkpt><trkpt lat="40.6848533" lon="14.9807283"><ele>220.66666666666669</ele><time>2026-04-25T08:45:07.004Z</time></trkpt><trkpt lat="40.6847767" lon="14.9806883"><ele>221.0</ele><time>2026-04-25T08:45:08.025Z</time></trkpt><trkpt lat="40.6847083" lon="14.980635"><ele>223.00000000000003</ele><time>2026-04-25T08:45:09.009Z</time></trkpt><trkpt lat="40.6846367" lon="14.9805833"><ele>225.0</ele><time>2026-04-25T08:45:10.009Z</time></trkpt><trkpt lat="40.6845683" lon="14.98057"><ele>227.0</ele><time>2026-04-25T08:45:11.015Z</time></trkpt><trkpt lat="40.6844883" lon="14.9805417"><ele>229.0</ele><time>2026-04-25T08:45:12.007Z</time></trkpt><trkpt lat="40.6844017" lon="14.9805033"><ele>231.00000000000003</ele><time>2026-04-25T08:45:13.013Z</time></trkpt><trkpt lat="40.684315" lon="14.9804783"><ele>233.0</ele><time>2026-04-25T08:45:14.028Z</time></trkpt><trkpt lat="40.6842283" lon="14.980445"><ele>233.00000000000003</ele><time>2026-04-25T08:45:15.012Z</time></trkpt><trkpt lat="40.6841367" lon="14.9804417"><ele>233.0</ele><time>2026-04-25T08:45:16.004Z</time></trkpt><trkpt lat="40.6840567" lon="14.9804767"><ele>233.0</ele><time>2026-04-25T08:45:17.014Z</time></trkpt><trkpt lat="40.68398" lon="14.9805117"><ele>233.0</ele><time>2026-04-25T08:45:18.007Z</time></trkpt><trkpt lat="40.6839133" lon="14.98056"><ele>233.00000000000003</ele><time>2026-04-25T08:45:19.007Z</time></trkpt><trkpt lat="40.6838567" lon="14.9806083"><ele>233.0</ele><time>2026-04-25T08:45:20.028Z</time></trkpt><trkpt lat="40.6837867" lon="14.9806383"><ele>233.00000000000003</ele><time>2026-04-25T08:45:22.008Z</time></trkpt><trkpt lat="40.6837117" lon="14.98068"><ele>233.0</ele><time>2026-04-25T08:45:24.012Z</time></trkpt><trkpt lat="40.68366" lon="14.9807333"><ele>233.0</ele><time>2026-04-25T08:45:25.014Z</time></trkpt><trkpt lat="40.6836083" lon="14.9808"><ele>233.0</ele><time>2026-04-25T08:45:26.057Z</time></trkpt><trkpt lat="40.6835417" lon="14.9808783"><ele>233.00000000000003</ele><time>2026-04-25T08:45:27.013Z</time></trkpt><trkpt lat="40.68347" lon="14.9809533"><ele>233.0</ele><time>2026-04-25T08:45:28.008Z</time></trkpt><trkpt lat="40.6833883" lon="14.9809867"><ele>230.0</ele><time>2026-04-25T08:45:29.016Z</time></trkpt><trkpt lat="40.6833117" lon="14.9810717"><ele>227.0</ele><time>2026-04-25T08:45:30.01Z</time></trkpt><trkpt lat="40.6832083" lon="14.9811267"><ele>224.0</ele><time>2026-04-25T08:45:31.011Z</time></trkpt><trkpt lat="40.6831033" lon="14.9811933"><ele>221.0</ele><time>2026-04-25T08:45:32.052Z</time></trkpt><trkpt lat="40.6829967" lon="14.9812667"><ele>218.0</ele><time>2026-04-25T08:45:33.01Z</time></trkpt><trkpt lat="40.6829017" lon="14.98133"><ele>218.0</ele><time>2026-04-25T08:45:34.007Z</time></trkpt><trkpt lat="40.682805" lon="14.9813933"><ele>218.0</ele><time>2026-04-25T08:45:35.011Z</time></trkpt><trkpt lat="40.68271" lon="14.98146"><ele>218.0</ele><time>2026-04-25T08:45:36.004Z</time></trkpt><trkpt lat="40.6826017" lon="14.9815217"><ele>218.0</ele><time>2026-04-25T08:45:37.014Z</time></trkpt><trkpt lat="40.6825083" lon="14.9815683"><ele>218.0</ele><time>2026-04-25T08:45:38.026Z</time></trkpt><trkpt lat="40.6824317" lon="14.9816067"><ele>219.00000000000003</ele><time>2026-04-25T08:45:39.012Z</time></trkpt><trkpt lat="40.68236" lon="14.98163"><ele>220.0</ele><time>2026-04-25T08:45:40.007Z</time></trkpt><trkpt lat="40.682295" lon="14.98164"><ele>221.0</ele><time>2026-04-25T08:45:41.017Z</time></trkpt><trkpt lat="40.6822183" lon="14.981645"><ele>222.0</ele><time>2026-04-25T08:45:42.011Z</time></trkpt><trkpt lat="40.68214" lon="14.9816467"><ele>223.00000000000003</ele><time>2026-04-25T08:45:43.013Z</time></trkpt><trkpt lat="40.6820517" lon="14.9816633"><ele>224.0</ele><time>2026-04-25T08:45:44.028Z</time></trkpt><trkpt lat="40.6819533" lon="14.9816867"><ele>218.75</ele><time>2026-04-25T08:45:45.013Z</time></trkpt><trkpt lat="40.6818367" lon="14.981715"><ele>213.5</ele><time>2026-04-25T08:45:46.016Z</time></trkpt><trkpt lat="40.6817267" lon="14.9817417"><ele>208.25</ele><time>2026-04-25T08:45:47.02Z</time></trkpt><trkpt lat="40.6816217" lon="14.981785"><ele>203.0</ele><time>2026-04-25T08:45:48.008Z</time></trkpt><trkpt lat="40.6815083" lon="14.9818283"><ele>203.0</ele><time>2026-04-25T08:45:49.017Z</time></trkpt><trkpt lat="40.6813967" lon="14.98186"><ele>203.0</ele><time>2026-04-25T08:45:50.023Z</time></trkpt><trkpt lat="40.68127" lon="14.9818883"><ele>203.0</ele><time>2026-04-25T08:45:51.009Z</time></trkpt><trkpt lat="40.6811317" lon="14.98192"><ele>203.0</ele><time>2026-04-25T08:45:52.015Z</time></trkpt><trkpt lat="40.6809783" lon="14.9819417"><ele>203.33333333333334</ele><time>2026-04-25T08:45:53.017Z</time></trkpt><trkpt lat="40.68082" lon="14.98196"><ele>203.66666666666669</ele><time>2026-04-25T08:45:54.009Z</time></trkpt><trkpt lat="40.6806633" lon="14.9819833"><ele>204.0</ele><time>2026-04-25T08:45:55.009Z</time></trkpt><trkpt lat="40.680515" lon="14.98201"><ele>204.0</ele><time>2026-04-25T08:45:56.06Z</time></trkpt><trkpt lat="40.6803733" lon="14.9820417"><ele>204.0</ele><time>2026-04-25T08:45:57.004Z</time></trkpt><trkpt lat="40.6802383" lon="14.9820717"><ele>204.0</ele><time>2026-04-25T08:45:58.008Z</time></trkpt><trkpt lat="40.6801083" lon="14.9821033"><ele>204.0</ele><time>2026-04-25T08:45:59.011Z</time></trkpt><trkpt lat="40.679975" lon="14.9821383"><ele>203.75</ele><time>2026-04-25T08:46:00.011Z</time></trkpt><trkpt lat="40.679845" lon="14.9821833"><ele>203.5</ele><time>2026-04-25T08:46:01.013Z</time></trkpt><trkpt lat="40.6797183" lon="14.982255"><ele>203.25</ele><time>2026-04-25T08:46:02.056Z</time></trkpt><trkpt lat="40.6795967" lon="14.9823483"><ele>203.0</ele><time>2026-04-25T08:46:03.004Z</time></trkpt><trkpt lat="40.67948" lon="14.9824483"><ele>199.75</ele><time>2026-04-25T08:46:04.007Z</time></trkpt><trkpt lat="40.6793667" lon="14.982555"><ele>196.5</ele><time>2026-04-25T08:46:05.007Z</time></trkpt><trkpt lat="40.6792417" lon="14.9826367"><ele>193.25</ele><time>2026-04-25T08:46:06.008Z</time></trkpt><trkpt lat="40.6790967" lon="14.98271"><ele>190.0</ele><time>2026-04-25T08:46:07.015Z</time></trkpt><trkpt lat="40.6789533" lon="14.982775"><ele>190.0</ele><time>2026-04-25T08:46:08.023Z</time></trkpt><trkpt lat="40.6788167" lon="14.9828267"><ele>190.0</ele><time>2026-04-25T08:46:09.011Z</time></trkpt><trkpt lat="40.6786783" lon="14.9828867"><ele>190.0</ele><time>2026-04-25T08:46:10.011Z</time></trkpt><trkpt lat="40.6785367" lon="14.98295"><ele>190.0</ele><time>2026-04-25T08:46:11.018Z</time></trkpt><trkpt lat="40.678395" lon="14.983005"><ele>192.0</ele><time>2026-04-25T08:46:12.01Z</time></trkpt><trkpt lat="40.67825" lon="14.9830617"><ele>194.0</ele><time>2026-04-25T08:46:13.012Z</time></trkpt><trkpt lat="40.6781067" lon="14.98312"><ele>196.0</ele><time>2026-04-25T08:46:14.027Z</time></trkpt><trkpt lat="40.6779583" lon="14.9831783"><ele>196.0</ele><time>2026-04-25T08:46:15.006Z</time></trkpt><trkpt lat="40.6778167" lon="14.9832367"><ele>196.0</ele><time>2026-04-25T08:46:16.007Z</time></trkpt><trkpt lat="40.67768" lon="14.98329"><ele>196.0</ele><time>2026-04-25T08:46:17.019Z</time></trkpt><trkpt lat="40.6775433" lon="14.9833433"><ele>196.0</ele><time>2026-04-25T08:46:18.008Z</time></trkpt><trkpt lat="40.6774083" lon="14.9833883"><ele>195.0</ele><time>2026-04-25T08:46:19.013Z</time></trkpt><trkpt lat="40.6772733" lon="14.983435"><ele>194.0</ele><time>2026-04-25T08:46:20.023Z</time></trkpt><trkpt lat="40.6771417" lon="14.9834717"><ele>193.0</ele><time>2026-04-25T08:46:21.014Z</time></trkpt><trkpt lat="40.6770167" lon="14.9834933"><ele>192.0</ele><time>2026-04-25T08:46:22.013Z</time></trkpt><trkpt lat="40.6768983" lon="14.9835033"><ele>192.0</ele><time>2026-04-25T08:46:23.01Z</time></trkpt><trkpt lat="40.6767817" lon="14.9835083"><ele>192.0</ele><time>2026-04-25T08:46:24.008Z</time></trkpt><trkpt lat="40.6766733" lon="14.9835183"><ele>192.0</ele><time>2026-04-25T08:46:25.012Z</time></trkpt><trkpt lat="40.6765767" lon="14.983545"><ele>192.0</ele><time>2026-04-25T08:46:26.053Z</time></trkpt><trkpt lat="40.676495" lon="14.9835883"><ele>192.0</ele><time>2026-04-25T08:46:27.003Z</time></trkpt><trkpt lat="40.6764083" lon="14.98363"><ele>192.0</ele><time>2026-04-25T08:46:28.007Z</time></trkpt><trkpt lat="40.67632" lon="14.9836817"><ele>192.0</ele><time>2026-04-25T08:46:29.01Z</time></trkpt><trkpt lat="40.6762267" lon="14.9837433"><ele>192.0</ele><time>2026-04-25T08:46:30.011Z</time></trkpt><trkpt lat="40.6761383" lon="14.9838067"><ele>192.0</ele><time>2026-04-25T08:46:31.014Z</time></trkpt><trkpt lat="40.67603" lon="14.98388"><ele>192.0</ele><time>2026-04-25T08:46:32.055Z</time></trkpt><trkpt lat="40.67592" lon="14.9839533"><ele>192.5</ele><time>2026-04-25T08:46:33.007Z</time></trkpt><trkpt lat="40.675805" lon="14.9840267"><ele>193.0</ele><time>2026-04-25T08:46:34.004Z</time></trkpt><trkpt lat="40.6756917" lon="14.9840983"><ele>193.5</ele><time>2026-04-25T08:46:35.013Z</time></trkpt><trkpt lat="40.6755917" lon="14.98416"><ele>194.0</ele><time>2026-04-25T08:46:36.01Z</time></trkpt><trkpt lat="40.6755" lon="14.984215"><ele>192.2</ele><time>2026-04-25T08:46:37.015Z</time></trkpt><trkpt lat="40.6754133" lon="14.984265"><ele>190.39999999999998</ele><time>2026-04-25T08:46:38.025Z</time></trkpt><trkpt lat="40.6753283" lon="14.9843283"><ele>188.6</ele><time>2026-04-25T08:46:39.018Z</time></trkpt><trkpt lat="40.675245" lon="14.9844033"><ele>186.8</ele><time>2026-04-25T08:46:40.007Z</time></trkpt><trkpt lat="40.6751733" lon="14.9845017"><ele>185.0</ele><time>2026-04-25T08:46:41.012Z</time></trkpt><trkpt lat="40.675105" lon="14.9846067"><ele>185.0</ele><time>2026-04-25T08:46:42.011Z</time></trkpt><trkpt lat="40.6750483" lon="14.9847383"><ele>185.0</ele><time>2026-04-25T08:46:43.014Z</time></trkpt><trkpt lat="40.674985" lon="14.9848667"><ele>185.0</ele><time>2026-04-25T08:46:44.027Z</time></trkpt><trkpt lat="40.6749167" lon="14.98499"><ele>185.0</ele><time>2026-04-25T08:46:45.014Z</time></trkpt><trkpt lat="40.6748517" lon="14.98512"><ele>182.6</ele><time>2026-04-25T08:46:46.008Z</time></trkpt><trkpt lat="40.674795" lon="14.9852517"><ele>180.2</ele><time>2026-04-25T08:46:47.014Z</time></trkpt><trkpt lat="40.67474" lon="14.985385"><ele>177.8</ele><time>2026-04-25T08:46:48.008Z</time></trkpt><trkpt lat="40.6746867" lon="14.985515"><ele>175.4</ele><time>2026-04-25T08:46:49.007Z</time></trkpt><trkpt lat="40.674645" lon="14.9856367"><ele>173.0</ele><time>2026-04-25T08:46:50.022Z</time></trkpt><trkpt lat="40.6746117" lon="14.9857433"><ele>173.0</ele><time>2026-04-25T08:46:51.001Z</time></trkpt><trkpt lat="40.6745833" lon="14.98584"><ele>173.0</ele><time>2026-04-25T08:46:52.007Z</time></trkpt><trkpt lat="40.674555" lon="14.985915"><ele>173.0</ele><time>2026-04-25T08:46:53.014Z</time></trkpt><trkpt lat="40.6745067" lon="14.98601"><ele>173.0</ele><time>2026-04-25T08:46:55.016Z</time></trkpt><trkpt lat="40.67452" lon="14.9860917"><ele>173.0</ele><time>2026-04-25T08:46:58.011Z</time></trkpt><trkpt lat="40.67459" lon="14.986195"><ele>173.0</ele><time>2026-04-25T08:47:00.011Z</time></trkpt><trkpt lat="40.67465" lon="14.98625"><ele>172.7142857142857</ele><time>2026-04-25T08:47:01.013Z</time></trkpt><trkpt lat="40.6747133" lon="14.9863017"><ele>172.42857142857144</ele><time>2026-04-25T08:47:02.058Z</time></trkpt><trkpt lat="40.6747767" lon="14.9863533"><ele>172.14285714285714</ele><time>2026-04-25T08:47:03.01Z</time></trkpt><trkpt lat="40.6748467" lon="14.9864067"><ele>171.85714285714283</ele><time>2026-04-25T08:47:04.007Z</time></trkpt><trkpt lat="40.6748983" lon="14.9864817"><ele>171.57142857142856</ele><time>2026-04-25T08:47:05.013Z</time></trkpt><trkpt lat="40.6749283" lon="14.9865583"><ele>171.28571428571428</ele><time>2026-04-25T08:47:06.011Z</time></trkpt><trkpt lat="40.6749483" lon="14.9866417"><ele>171.0</ele><time>2026-04-25T08:47:07.014Z</time></trkpt><trkpt lat="40.6749383" lon="14.9867333"><ele>171.0</ele><time>2026-04-25T08:47:08.028Z</time></trkpt><trkpt lat="40.674905" lon="14.986825"><ele>171.0</ele><time>2026-04-25T08:47:09.008Z</time></trkpt><trkpt lat="40.6748467" lon="14.98693"><ele>171.0</ele><time>2026-04-25T08:47:10.003Z</time></trkpt><trkpt lat="40.6747983" lon="14.98703"><ele>171.0</ele><time>2026-04-25T08:47:11.006Z</time></trkpt><trkpt lat="40.67474" lon="14.98713"><ele>171.0</ele><time>2026-04-25T08:47:12.006Z</time></trkpt><trkpt lat="40.6747" lon="14.9872267"><ele>171.0</ele><time>2026-04-25T08:47:13.012Z</time></trkpt><trkpt lat="40.674675" lon="14.9873217"><ele>171.0</ele><time>2026-04-25T08:47:14.021Z</time></trkpt><trkpt lat="40.674685" lon="14.987455"><ele>171.0</ele><time>2026-04-25T08:47:16.004Z</time></trkpt><trkpt lat="40.6748" lon="14.9875433"><ele>171.0</ele><time>2026-04-25T08:47:18.013Z</time></trkpt><trkpt lat="40.6748683" lon="14.9876017"><ele>171.0</ele><time>2026-04-25T08:47:19.009Z</time></trkpt><trkpt lat="40.6749417" lon="14.9876583"><ele>171.0</ele><time>2026-04-25T08:47:20.026Z</time></trkpt><trkpt lat="40.67501" lon="14.9877267"><ele>171.83333333333334</ele><time>2026-04-25T08:47:21.016Z</time></trkpt><trkpt lat="40.6750783" lon="14.9878"><ele>172.66666666666666</ele><time>2026-04-25T08:47:22.003Z</time></trkpt><trkpt lat="40.6751433" lon="14.9878767"><ele>173.5</ele><time>2026-04-25T08:47:23.015Z</time></trkpt><trkpt lat="40.6752117" lon="14.9879467"><ele>174.33333333333331</ele><time>2026-04-25T08:47:24.01Z</time></trkpt><trkpt lat="40.6752783" lon="14.9880117"><ele>175.16666666666666</ele><time>2026-04-25T08:47:25.017Z</time></trkpt><trkpt lat="40.675345" lon="14.9880633"><ele>176.0</ele><time>2026-04-25T08:47:26.076Z</time></trkpt><trkpt lat="40.67541" lon="14.9881117"><ele>176.66666666666666</ele><time>2026-04-25T08:47:27.012Z</time></trkpt><trkpt lat="40.6754783" lon="14.9881383"><ele>177.33333333333331</ele><time>2026-04-25T08:47:28.004Z</time></trkpt><trkpt lat="40.67554" lon="14.988175"><ele>178.0</ele><time>2026-04-25T08:47:29.005Z</time></trkpt><trkpt lat="40.6756417" lon="14.98827"><ele>178.66666666666666</ele><time>2026-04-25T08:47:31.011Z</time></trkpt><trkpt lat="40.675685" lon="14.988335"><ele>179.33333333333334</ele><time>2026-04-25T08:47:32.057Z</time></trkpt><trkpt lat="40.6757267" lon="14.9884117"><ele>180.0</ele><time>2026-04-25T08:47:33.004Z</time></trkpt><trkpt lat="40.675755" lon="14.9885067"><ele>180.66666666666666</ele><time>2026-04-25T08:47:34.01Z</time></trkpt><trkpt lat="40.6757817" lon="14.988605"><ele>181.33333333333334</ele><time>2026-04-25T08:47:35.015Z</time></trkpt><trkpt lat="40.6758067" lon="14.9887017"><ele>182.0</ele><time>2026-04-25T08:47:36.012Z</time></trkpt><trkpt lat="40.6758317" lon="14.9888067"><ele>182.66666666666669</ele><time>2026-04-25T08:47:37.012Z</time></trkpt><trkpt lat="40.675845" lon="14.9889133"><ele>183.33333333333334</ele><time>2026-04-25T08:47:38.03Z</time></trkpt><trkpt lat="40.67584" lon="14.9890217"><ele>184.0</ele><time>2026-04-25T08:47:39.018Z</time></trkpt><trkpt lat="40.6758267" lon="14.9891217"><ele>184.83333333333334</ele><time>2026-04-25T08:47:40.017Z</time></trkpt><trkpt lat="40.6757967" lon="14.9892217"><ele>185.66666666666669</ele><time>2026-04-25T08:47:41.008Z</time></trkpt><trkpt lat="40.6757517" lon="14.989315"><ele>186.5</ele><time>2026-04-25T08:47:42.013Z</time></trkpt><trkpt lat="40.67571" lon="14.9894033"><ele>187.33333333333334</ele><time>2026-04-25T08:47:43.009Z</time></trkpt><trkpt lat="40.6756667" lon="14.9894867"><ele>188.16666666666666</ele><time>2026-04-25T08:47:44.021Z</time></trkpt><trkpt lat="40.67562" lon="14.9895683"><ele>189.0</ele><time>2026-04-25T08:47:45.009Z</time></trkpt><trkpt lat="40.6755733" lon="14.9896417"><ele>189.0</ele><time>2026-04-25T08:47:46.002Z</time></trkpt><trkpt lat="40.6755283" lon="14.9897217"><ele>189.0</ele><time>2026-04-25T08:47:47.007Z</time></trkpt><trkpt lat="40.675485" lon="14.9898067"><ele>189.0</ele><time>2026-04-25T08:47:48.006Z</time></trkpt><trkpt lat="40.67544" lon="14.9898917"><ele>189.0</ele><time>2026-04-25T08:47:49.011Z</time></trkpt><trkpt lat="40.6754" lon="14.98998"><ele>189.0</ele><time>2026-04-25T08:47:50.024Z</time></trkpt><trkpt lat="40.6753617" lon="14.9900633"><ele>189.0</ele><time>2026-04-25T08:47:51.004Z</time></trkpt><trkpt lat="40.6753183" lon="14.99015"><ele>190.0</ele><time>2026-04-25T08:47:52.012Z</time></trkpt><trkpt lat="40.67528" lon="14.990235"><ele>191.0</ele><time>2026-04-25T08:47:53.009Z</time></trkpt><trkpt lat="40.67525" lon="14.990315"><ele>192.0</ele><time>2026-04-25T08:47:54.004Z</time></trkpt><trkpt lat="40.6752017" lon="14.9904333"><ele>193.0</ele><time>2026-04-25T08:47:56.073Z</time></trkpt><trkpt lat="40.6751417" lon="14.9905617"><ele>194.0</ele><time>2026-04-25T08:53:54.007Z</time></trkpt><trkpt lat="40.67511" lon="14.9906433"><ele>195.0</ele><time>2026-04-25T08:53:55.012Z</time></trkpt><trkpt lat="40.6750733" lon="14.99073"><ele>195.0</ele><time>2026-04-25T08:53:56.073Z</time></trkpt><trkpt lat="40.6750317" lon="14.990825"><ele>195.0</ele><time>2026-04-25T08:53:57.004Z</time></trkpt><trkpt lat="40.6749833" lon="14.990925"><ele>195.0</ele><time>2026-04-25T08:53:58.009Z</time></trkpt><trkpt lat="40.6749333" lon="14.99103"><ele>195.0</ele><time>2026-04-25T08:53:59.005Z</time></trkpt><trkpt lat="40.674885" lon="14.99114"><ele>195.0</ele><time>2026-04-25T08:54:00.014Z</time></trkpt><trkpt lat="40.67483" lon="14.991255"><ele>197.16666666666666</ele><time>2026-04-25T08:54:01.013Z</time></trkpt><trkpt lat="40.674775" lon="14.99137"><ele>199.33333333333331</ele><time>2026-04-25T08:54:02.06Z</time></trkpt><trkpt lat="40.674725" lon="14.9914767"><ele>201.5</ele><time>2026-04-25T08:54:03.006Z</time></trkpt><trkpt lat="40.6746833" lon="14.9915767"><ele>203.66666666666666</ele><time>2026-04-25T08:54:04.009Z</time></trkpt><trkpt lat="40.6746567" lon="14.9916683"><ele>205.83333333333331</ele><time>2026-04-25T08:54:05.012Z</time></trkpt><trkpt lat="40.6746467" lon="14.9917517"><ele>208.0</ele><time>2026-04-25T08:54:06.01Z</time></trkpt><trkpt lat="40.67465" lon="14.9918383"><ele>209.4</ele><time>2026-04-25T08:54:07.008Z</time></trkpt><trkpt lat="40.6747083" lon="14.9919083"><ele>210.8</ele><time>2026-04-25T08:54:08.037Z</time></trkpt><trkpt lat="40.674775" lon="14.991975"><ele>212.2</ele><time>2026-04-25T08:54:09.009Z</time></trkpt><trkpt lat="40.6748533" lon="14.9920333"><ele>213.6</ele><time>2026-04-25T08:54:10.007Z</time></trkpt><trkpt lat="40.6749367" lon="14.9920983"><ele>215.0</ele><time>2026-04-25T08:54:11.013Z</time></trkpt><trkpt lat="40.67503" lon="14.992165"><ele>215.0</ele><time>2026-04-25T08:54:12.008Z</time></trkpt><trkpt lat="40.675125" lon="14.9922333"><ele>215.0</ele><time>2026-04-25T08:54:13.012Z</time></trkpt><trkpt lat="40.675225" lon="14.992305"><ele>215.0</ele><time>2026-04-25T08:54:14.031Z</time></trkpt><trkpt lat="40.6753283" lon="14.9923867"><ele>215.0</ele><time>2026-04-25T08:54:15.003Z</time></trkpt><trkpt lat="40.6754383" lon="14.9924717"><ele>217.75</ele><time>2026-04-25T08:54:16.002Z</time></trkpt><trkpt lat="40.67555" lon="14.9925567"><ele>220.5</ele><time>2026-04-25T08:54:17.007Z</time></trkpt><trkpt lat="40.6756633" lon="14.9926367"><ele>223.25</ele><time>2026-04-25T08:54:18.007Z</time></trkpt><trkpt lat="40.6757717" lon="14.992715"><ele>226.0</ele><time>2026-04-25T08:54:19.009Z</time></trkpt><trkpt lat="40.6758783" lon="14.992795"><ele>226.0</ele><time>2026-04-25T08:54:20.035Z</time></trkpt><trkpt lat="40.6759833" lon="14.9928767"><ele>226.0</ele><time>2026-04-25T08:54:21.005Z</time></trkpt><trkpt lat="40.6760867" lon="14.9929567"><ele>226.0</ele><time>2026-04-25T08:54:22.005Z</time></trkpt><trkpt lat="40.6761917" lon="14.9930417"><ele>226.0</ele><time>2026-04-25T08:54:23.01Z</time></trkpt><trkpt lat="40.6763" lon="14.9931267"><ele>227.5</ele><time>2026-04-25T08:54:24.009Z</time></trkpt><trkpt lat="40.676405" lon="14.9932033"><ele>229.0</ele><time>2026-04-25T08:54:25.014Z</time></trkpt><trkpt lat="40.6765133" lon="14.99328"><ele>230.5</ele><time>2026-04-25T08:54:26.071Z</time></trkpt><trkpt lat="40.676625" lon="14.9933633"><ele>232.0</ele><time>2026-04-25T08:54:27.003Z</time></trkpt><trkpt lat="40.67674" lon="14.993445"><ele>233.0</ele><time>2026-04-25T08:54:28.007Z</time></trkpt><trkpt lat="40.6768517" lon="14.9935267"><ele>234.0</ele><time>2026-04-25T08:54:29.009Z</time></trkpt><trkpt lat="40.6769633" lon="14.99361"><ele>235.0</ele><time>2026-04-25T08:54:30.012Z</time></trkpt><trkpt lat="40.6770767" lon="14.9936983"><ele>236.0</ele><time>2026-04-25T08:54:31.011Z</time></trkpt><trkpt lat="40.6771917" lon="14.9937883"><ele>238.5</ele><time>2026-04-25T08:54:32.072Z</time></trkpt><trkpt lat="40.67731" lon="14.9938767"><ele>241.0</ele><time>2026-04-25T08:54:33.006Z</time></trkpt><trkpt lat="40.67743" lon="14.9939683"><ele>243.5</ele><time>2026-04-25T08:54:34.004Z</time></trkpt><trkpt lat="40.6775533" lon="14.9940617"><ele>246.0</ele><time>2026-04-25T08:54:35.006Z</time></trkpt><trkpt lat="40.677675" lon="14.9941533"><ele>248.75</ele><time>2026-04-25T08:54:36.004Z</time></trkpt><trkpt lat="40.6777967" lon="14.9942467"><ele>251.5</ele><time>2026-04-25T08:54:37.003Z</time></trkpt><trkpt lat="40.6779183" lon="14.9943383"><ele>254.25</ele><time>2026-04-25T08:54:38.037Z</time></trkpt><trkpt lat="40.678035" lon="14.9944283"><ele>257.0</ele><time>2026-04-25T08:54:39.007Z</time></trkpt><trkpt lat="40.6781583" lon="14.9945233"><ele>257.0</ele><time>2026-04-25T08:54:40.005Z</time></trkpt><trkpt lat="40.6782883" lon="14.9946217"><ele>257.0</ele><time>2026-04-25T08:54:41.011Z</time></trkpt><trkpt lat="40.6784217" lon="14.99472"><ele>257.0</ele><time>2026-04-25T08:54:42.006Z</time></trkpt><trkpt lat="40.6785667" lon="14.99482"><ele>258.33333333333337</ele><time>2026-04-25T08:54:43.012Z</time></trkpt><trkpt lat="40.678715" lon="14.99493"><ele>259.6666666666667</ele><time>2026-04-25T08:54:44.036Z</time></trkpt><trkpt lat="40.6788667" lon="14.9950433"><ele>261.0</ele><time>2026-04-25T08:54:45.006Z</time></trkpt><trkpt lat="40.6790133" lon="14.9951583"><ele>262.6666666666667</ele><time>2026-04-25T08:54:46.007Z</time></trkpt><trkpt lat="40.6791667" lon="14.995275"><ele>264.33333333333337</ele><time>2026-04-25T08:54:47.009Z</time></trkpt><trkpt lat="40.6793217" lon="14.9953933"><ele>266.0</ele><time>2026-04-25T08:54:48.006Z</time></trkpt><trkpt lat="40.6796233" lon="14.9956117"><ele>268.0</ele><time>2026-04-25T08:54:50.039Z</time></trkpt><trkpt lat="40.6797633" lon="14.9957067"><ele>270.0</ele><time>2026-04-25T08:54:51.003Z</time></trkpt><trkpt lat="40.6798967" lon="14.9957967"><ele>272.0</ele><time>2026-04-25T08:54:52.008Z</time></trkpt><trkpt lat="40.6800133" lon="14.995875"><ele>274.0</ele><time>2026-04-25T08:54:53.006Z</time></trkpt><trkpt lat="40.6800917" lon="14.9959283"><ele>275.4</ele><time>2026-04-25T08:54:54.023Z</time></trkpt><trkpt lat="40.6801517" lon="14.99599"><ele>276.79999999999995</ele><time>2026-04-25T08:54:56.074Z</time></trkpt><trkpt lat="40.68013" lon="14.9960867"><ele>278.20000000000005</ele><time>2026-04-25T08:54:59.012Z</time></trkpt><trkpt lat="40.6800433" lon="14.9962167"><ele>279.6</ele><time>2026-04-25T08:55:01.014Z</time></trkpt><trkpt lat="40.6799833" lon="14.9963183"><ele>281.0</ele><time>2026-04-25T08:55:02.07Z</time></trkpt><trkpt lat="40.6799067" lon="14.9964817"><ele>281.0</ele><time>2026-04-25T08:55:03.01Z</time></trkpt><trkpt lat="40.6798367" lon="14.996645"><ele>281.0</ele><time>2026-04-25T08:55:04.007Z</time></trkpt><trkpt lat="40.6797717" lon="14.9968033"><ele>281.0</ele><time>2026-04-25T08:55:05.001Z</time></trkpt><trkpt lat="40.67971" lon="14.9969517"><ele>281.0</ele><time>2026-04-25T08:55:06.004Z</time></trkpt><trkpt lat="40.6796517" lon="14.9970917"><ele>281.8</ele><time>2026-04-25T08:55:07.01Z</time></trkpt><trkpt lat="40.6795967" lon="14.9972183"><ele>282.6</ele><time>2026-04-25T08:55:08.041Z</time></trkpt><trkpt lat="40.6795467" lon="14.9973367"><ele>283.4</ele><time>2026-04-25T08:55:09.009Z</time></trkpt><trkpt lat="40.67949" lon="14.9974533"><ele>284.2</ele><time>2026-04-25T08:55:10.008Z</time></trkpt><trkpt lat="40.6794317" lon="14.997565"><ele>285.0</ele><time>2026-04-25T08:55:11.012Z</time></trkpt><trkpt lat="40.6793767" lon="14.9976683"><ele>283.0</ele><time>2026-04-25T08:55:12.011Z</time></trkpt><trkpt lat="40.679325" lon="14.997765"><ele>281.0</ele><time>2026-04-25T08:55:13.007Z</time></trkpt><trkpt lat="40.6792833" lon="14.9978633"><ele>279.0</ele><time>2026-04-25T08:55:14.045Z</time></trkpt><trkpt lat="40.6792583" lon="14.9979583"><ele>277.0</ele><time>2026-04-25T08:55:15.036Z</time></trkpt><trkpt lat="40.6792567" lon="14.9980483"><ele>275.0</ele><time>2026-04-25T08:55:16.013Z</time></trkpt><trkpt lat="40.67927" lon="14.9981333"><ele>273.0</ele><time>2026-04-25T08:55:17.01Z</time></trkpt><trkpt lat="40.6792833" lon="14.99822"><ele>274.2</ele><time>2026-04-25T08:55:18.015Z</time></trkpt><trkpt lat="40.6792617" lon="14.9983733"><ele>275.4</ele><time>2026-04-25T08:55:20.045Z</time></trkpt><trkpt lat="40.6792067" lon="14.9984533"><ele>276.59999999999997</ele><time>2026-04-25T08:55:21.012Z</time></trkpt><trkpt lat="40.6791567" lon="14.9985433"><ele>277.8</ele><time>2026-04-25T08:55:22.007Z</time></trkpt><trkpt lat="40.679105" lon="14.99864"><ele>279.0</ele><time>2026-04-25T08:55:23.017Z</time></trkpt><trkpt lat="40.67906" lon="14.99874"><ele>279.0</ele><time>2026-04-25T08:55:24.006Z</time></trkpt><trkpt lat="40.6790233" lon="14.9988417"><ele>279.0</ele><time>2026-04-25T08:55:25.014Z</time></trkpt><trkpt lat="40.6789767" lon="14.9989483"><ele>279.0</ele><time>2026-04-25T08:55:26.067Z</time></trkpt><trkpt lat="40.678925" lon="14.9990567"><ele>279.0</ele><time>2026-04-25T08:55:27.003Z</time></trkpt><trkpt lat="40.67888" lon="14.999165"><ele>279.0</ele><time>2026-04-25T08:55:28.011Z</time></trkpt><trkpt lat="40.67883" lon="14.9992733"><ele>280.0</ele><time>2026-04-25T08:55:29.011Z</time></trkpt><trkpt lat="40.678775" lon="14.999385"><ele>281.0</ele><time>2026-04-25T08:55:30.007Z</time></trkpt><trkpt lat="40.678715" lon="14.999485"><ele>282.0</ele><time>2026-04-25T08:55:31Z</time></trkpt><trkpt lat="40.67866" lon="14.9995833"><ele>283.0</ele><time>2026-04-25T08:55:32.036Z</time></trkpt><trkpt lat="40.6786033" lon="14.9996867"><ele>284.0</ele><time>2026-04-25T08:55:33.003Z</time></trkpt><trkpt lat="40.6785533" lon="14.9998"><ele>281.8</ele><time>2026-04-25T08:55:34.002Z</time></trkpt><trkpt lat="40.6785083" lon="14.99993"><ele>279.59999999999997</ele><time>2026-04-25T08:55:35.002Z</time></trkpt><trkpt lat="40.678475" lon="15.000065"><ele>277.4</ele><time>2026-04-25T08:55:36.008Z</time></trkpt><trkpt lat="40.6784517" lon="15.0002067"><ele>275.2</ele><time>2026-04-25T08:55:37Z</time></trkpt><trkpt lat="40.6784367" lon="15.0003567"><ele>273.0</ele><time>2026-04-25T08:55:38.043Z</time></trkpt><trkpt lat="40.6784317" lon="15.0005083"><ele>273.0</ele><time>2026-04-25T08:55:39.016Z</time></trkpt><trkpt lat="40.6784233" lon="15.0006617"><ele>273.0</ele><time>2026-04-25T08:55:40.012Z</time></trkpt><trkpt lat="40.6784133" lon="15.0008117"><ele>273.0</ele><time>2026-04-25T08:55:41.012Z</time></trkpt><trkpt lat="40.6784" lon="15.0009567"><ele>273.0</ele><time>2026-04-25T08:55:42.004Z</time></trkpt><trkpt lat="40.6783783" lon="15.001095"><ele>273.0</ele><time>2026-04-25T08:55:43.007Z</time></trkpt><trkpt lat="40.6783433" lon="15.0012167"><ele>273.0</ele><time>2026-04-25T08:55:44.043Z</time></trkpt><trkpt lat="40.6783083" lon="15.00133"><ele>273.0</ele><time>2026-04-25T08:55:45.002Z</time></trkpt><trkpt lat="40.6782867" lon="15.0014483"><ele>273.0</ele><time>2026-04-25T08:55:46.011Z</time></trkpt><trkpt lat="40.67828" lon="15.0015717"><ele>273.0</ele><time>2026-04-25T08:55:47.014Z</time></trkpt><trkpt lat="40.6782817" lon="15.0016817"><ele>273.0</ele><time>2026-04-25T08:55:48.007Z</time></trkpt><trkpt lat="40.6782817" lon="15.0017817"><ele>273.0</ele><time>2026-04-25T08:55:49.008Z</time></trkpt><trkpt lat="40.67827" lon="15.0019433"><ele>273.0</ele><time>2026-04-25T08:55:51.007Z</time></trkpt><trkpt lat="40.678255" lon="15.0020317"><ele>273.0</ele><time>2026-04-25T08:55:52.008Z</time></trkpt><trkpt lat="40.67824" lon="15.0021333"><ele>273.0</ele><time>2026-04-25T08:55:53.011Z</time></trkpt><trkpt lat="40.6782317" lon="15.0022417"><ele>273.0</ele><time>2026-04-25T08:55:54.003Z</time></trkpt><trkpt lat="40.67822" lon="15.0023683"><ele>273.0</ele><time>2026-04-25T08:55:55.005Z</time></trkpt><trkpt lat="40.6782017" lon="15.0025067"><ele>273.0</ele><time>2026-04-25T08:55:56.07Z</time></trkpt><trkpt lat="40.6781867" lon="15.0026283"><ele>273.4</ele><time>2026-04-25T08:55:57.004Z</time></trkpt><trkpt lat="40.6781733" lon="15.0027433"><ele>273.8</ele><time>2026-04-25T08:55:58.01Z</time></trkpt><trkpt lat="40.6781467" lon="15.0028567"><ele>274.2</ele><time>2026-04-25T08:55:59.007Z</time></trkpt><trkpt lat="40.67811" lon="15.00296"><ele>274.6</ele><time>2026-04-25T08:56:00.012Z</time></trkpt><trkpt lat="40.6780617" lon="15.0030767"><ele>275.0</ele><time>2026-04-25T08:56:01Z</time></trkpt><trkpt lat="40.6780033" lon="15.0032017"><ele>275.0</ele><time>2026-04-25T08:56:02.064Z</time></trkpt><trkpt lat="40.677955" lon="15.0033217"><ele>275.0</ele><time>2026-04-25T08:56:03.011Z</time></trkpt><trkpt lat="40.6779117" lon="15.0034267"><ele>275.0</ele><time>2026-04-25T08:56:04.008Z</time></trkpt><trkpt lat="40.6778733" lon="15.0035283"><ele>275.0</ele><time>2026-04-25T08:56:05.011Z</time></trkpt><trkpt lat="40.6778383" lon="15.003635"><ele>275.0</ele><time>2026-04-25T08:56:06.006Z</time></trkpt><trkpt lat="40.6778067" lon="15.0037383"><ele>274.33333333333337</ele><time>2026-04-25T08:56:07.011Z</time></trkpt><trkpt lat="40.67778" lon="15.0038383"><ele>273.6666666666667</ele><time>2026-04-25T08:56:08.041Z</time></trkpt><trkpt lat="40.677765" lon="15.00393"><ele>273.0</ele><time>2026-04-25T08:56:09.005Z</time></trkpt><trkpt lat="40.6778417" lon="15.003995"><ele>272.3333333333333</ele><time>2026-04-25T08:56:11.006Z</time></trkpt><trkpt lat="40.67796" lon="15.0040183"><ele>271.66666666666663</ele><time>2026-04-25T08:56:13.012Z</time></trkpt><trkpt lat="40.6780333" lon="15.0040333"><ele>271.0</ele><time>2026-04-25T08:56:14.04Z</time></trkpt><trkpt lat="40.678115" lon="15.0040583"><ele>272.8</ele><time>2026-04-25T08:56:15.007Z</time></trkpt><trkpt lat="40.6782067" lon="15.0041017"><ele>274.6</ele><time>2026-04-25T08:56:16.011Z</time></trkpt><trkpt lat="40.6783067" lon="15.004155"><ele>276.4</ele><time>2026-04-25T08:56:17.006Z</time></trkpt><trkpt lat="40.6784033" lon="15.0042033"><ele>278.2</ele><time>2026-04-25T08:56:18.011Z</time></trkpt><trkpt lat="40.6784983" lon="15.0042417"><ele>280.0</ele><time>2026-04-25T08:56:19.013Z</time></trkpt><trkpt lat="40.6785867" lon="15.0042767"><ele>283.16666666666663</ele><time>2026-04-25T08:56:20.038Z</time></trkpt><trkpt lat="40.6786767" lon="15.004315"><ele>286.3333333333333</ele><time>2026-04-25T08:56:21.003Z</time></trkpt><trkpt lat="40.6787667" lon="15.00435"><ele>289.5</ele><time>2026-04-25T08:56:22.005Z</time></trkpt><trkpt lat="40.6788467" lon="15.0043683"><ele>292.6666666666667</ele><time>2026-04-25T08:56:23.008Z</time></trkpt><trkpt lat="40.6789233" lon="15.0043733"><ele>295.83333333333337</ele><time>2026-04-25T08:56:24.007Z</time></trkpt><trkpt lat="40.6790033" lon="15.0043717"><ele>299.0</ele><time>2026-04-25T08:56:25.013Z</time></trkpt><trkpt lat="40.6790817" lon="15.00438"><ele>299.0</ele><time>2026-04-25T08:56:26.036Z</time></trkpt><trkpt lat="40.6791517" lon="15.0044"><ele>299.0</ele><time>2026-04-25T08:56:27.006Z</time></trkpt><trkpt lat="40.6792617" lon="15.0044483"><ele>299.0</ele><time>2026-04-25T08:56:29.008Z</time></trkpt><trkpt lat="40.6793717" lon="15.0044983"><ele>299.0</ele><time>2026-04-25T08:56:31.006Z</time></trkpt><trkpt lat="40.6794333" lon="15.0045233"><ele>299.0</ele><time>2026-04-25T08:56:32.037Z</time></trkpt><trkpt lat="40.6795067" lon="15.0045533"><ele>299.0</ele><time>2026-04-25T08:56:33.006Z</time></trkpt><trkpt lat="40.6795883" lon="15.004585"><ele>301.59999999999997</ele><time>2026-04-25T08:56:34.004Z</time></trkpt><trkpt lat="40.6796733" lon="15.0046067"><ele>304.2</ele><time>2026-04-25T08:56:35.009Z</time></trkpt><trkpt lat="40.679765" lon="15.0046367"><ele>306.79999999999995</ele><time>2026-04-25T08:56:36.007Z</time></trkpt><trkpt lat="40.6798583" lon="15.0046667"><ele>309.4</ele><time>2026-04-25T08:56:37.01Z</time></trkpt><trkpt lat="40.67995" lon="15.004695"><ele>312.0</ele><time>2026-04-25T08:56:38.043Z</time></trkpt><trkpt lat="40.68004" lon="15.0047233"><ele>312.0</ele><time>2026-04-25T08:56:39.002Z</time></trkpt><trkpt lat="40.680125" lon="15.00476"><ele>312.0</ele><time>2026-04-25T08:56:40.009Z</time></trkpt><trkpt lat="40.680205" lon="15.0047983"><ele>312.0</ele><time>2026-04-25T08:56:41.013Z</time></trkpt><trkpt lat="40.680285" lon="15.0048383"><ele>312.0</ele><time>2026-04-25T08:56:42.004Z</time></trkpt><trkpt lat="40.6803633" lon="15.004885"><ele>312.0</ele><time>2026-04-25T08:56:43.007Z</time></trkpt><trkpt lat="40.680435" lon="15.0049417"><ele>312.0</ele><time>2026-04-25T08:56:44.044Z</time></trkpt><trkpt lat="40.6805083" lon="15.0050017"><ele>315.0</ele><time>2026-04-25T08:56:45.005Z</time></trkpt><trkpt lat="40.6805767" lon="15.00506"><ele>318.0</ele><time>2026-04-25T08:56:46.01Z</time></trkpt><trkpt lat="40.6806383" lon="15.00511"><ele>321.0</ele><time>2026-04-25T08:56:47.011Z</time></trkpt><trkpt lat="40.680695" lon="15.0051533"><ele>324.0</ele><time>2026-04-25T08:56:48.009Z</time></trkpt><trkpt lat="40.6808083" lon="15.00521"><ele>327.0</ele><time>2026-04-25T08:56:50.04Z</time></trkpt><trkpt lat="40.6808717" lon="15.0052217"><ele>330.0</ele><time>2026-04-25T08:56:51.006Z</time></trkpt><trkpt lat="40.68094" lon="15.0052283"><ele>330.0</ele><time>2026-04-25T08:56:52.011Z</time></trkpt><trkpt lat="40.6810167" lon="15.005225"><ele>330.0</ele><time>2026-04-25T08:56:53.013Z</time></trkpt><trkpt lat="40.6810983" lon="15.0052183"><ele>330.0</ele><time>2026-04-25T08:56:54.001Z</time></trkpt><trkpt lat="40.6811867" lon="15.0052083"><ele>330.0</ele><time>2026-04-25T08:56:55.014Z</time></trkpt><trkpt lat="40.68127" lon="15.0052"><ele>330.0</ele><time>2026-04-25T08:56:56.063Z</time></trkpt><trkpt lat="40.6813583" lon="15.005195"><ele>330.0</ele><time>2026-04-25T08:56:57Z</time></trkpt><trkpt lat="40.6814533" lon="15.0051967"><ele>332.1666666666667</ele><time>2026-04-25T08:56:58.011Z</time></trkpt><trkpt lat="40.68155" lon="15.0051983"><ele>334.3333333333333</ele><time>2026-04-25T08:56:59.008Z</time></trkpt><trkpt lat="40.6816367" lon="15.0051983"><ele>336.5</ele><time>2026-04-25T08:57:00.01Z</time></trkpt><trkpt lat="40.681705" lon="15.005195"><ele>338.66666666666663</ele><time>2026-04-25T08:57:01.01Z</time></trkpt><trkpt lat="40.6816167" lon="15.005195"><ele>340.8333333333333</ele><time>2026-04-25T08:57:16.011Z</time></trkpt><trkpt lat="40.68156" lon="15.0052767"><ele>343.0</ele><time>2026-04-25T08:57:19.009Z</time></trkpt><trkpt lat="40.6814983" lon="15.0054233"><ele>343.0</ele><time>2026-04-25T08:57:21.003Z</time></trkpt><trkpt lat="40.681455" lon="15.0055267"><ele>343.0</ele><time>2026-04-25T08:57:22.006Z</time></trkpt><trkpt lat="40.6813983" lon="15.0056383"><ele>343.0</ele><time>2026-04-25T08:57:23.004Z</time></trkpt><trkpt lat="40.6813517" lon="15.00575"><ele>343.0</ele><time>2026-04-25T08:57:24.01Z</time></trkpt><trkpt lat="40.68131" lon="15.0058633"><ele>343.0</ele><time>2026-04-25T08:57:25.007Z</time></trkpt><trkpt lat="40.6812883" lon="15.0059733"><ele>343.79999999999995</ele><time>2026-04-25T08:57:26.072Z</time></trkpt><trkpt lat="40.6812817" lon="15.0060967"><ele>344.6</ele><time>2026-04-25T08:57:27.001Z</time></trkpt><trkpt lat="40.6812733" lon="15.00622"><ele>345.4</ele><time>2026-04-25T08:57:28.009Z</time></trkpt><trkpt lat="40.681265" lon="15.0063433"><ele>346.20000000000005</ele><time>2026-04-25T08:57:29.002Z</time></trkpt><trkpt lat="40.6812483" lon="15.0064617"><ele>347.0</ele><time>2026-04-25T08:57:30.005Z</time></trkpt><trkpt lat="40.6812167" lon="15.0065767"><ele>347.0</ele><time>2026-04-25T08:57:31.009Z</time></trkpt><trkpt lat="40.6811767" lon="15.0066933"><ele>347.0</ele><time>2026-04-25T08:57:32.067Z</time></trkpt><trkpt lat="40.6811233" lon="15.0068033"><ele>347.0</ele><time>2026-04-25T08:57:33.003Z</time></trkpt><trkpt lat="40.6810817" lon="15.0069133"><ele>347.0</ele><time>2026-04-25T08:57:34.005Z</time></trkpt><trkpt lat="40.6810533" lon="15.0070217"><ele>347.0</ele><time>2026-04-25T08:57:35.01Z</time></trkpt><trkpt lat="40.6810317" lon="15.0071367"><ele>344.5</ele><time>2026-04-25T08:57:36.005Z</time></trkpt><trkpt lat="40.681025" lon="15.00725"><ele>342.0</ele><time>2026-04-25T08:57:37.012Z</time></trkpt><trkpt lat="40.681025" lon="15.0073733"><ele>339.5</ele><time>2026-04-25T08:57:38.042Z</time></trkpt><trkpt lat="40.681045" lon="15.0074917"><ele>337.0</ele><time>2026-04-25T08:57:39.001Z</time></trkpt><trkpt lat="40.6810717" lon="15.00759"><ele>334.5</ele><time>2026-04-25T08:57:40.003Z</time></trkpt><trkpt lat="40.681085" lon="15.0076733"><ele>332.0</ele><time>2026-04-25T08:57:41.002Z</time></trkpt><trkpt lat="40.681085" lon="15.0077583"><ele>332.0</ele><time>2026-04-25T08:57:42.015Z</time></trkpt><trkpt lat="40.6810767" lon="15.00785"><ele>332.0</ele><time>2026-04-25T08:57:43.012Z</time></trkpt><trkpt lat="40.68106" lon="15.0079483"><ele>332.0</ele><time>2026-04-25T08:57:44.04Z</time></trkpt><trkpt lat="40.68104" lon="15.0080467"><ele>332.0</ele><time>2026-04-25T08:57:44.999Z</time></trkpt><trkpt lat="40.6810017" lon="15.0081467"><ele>332.0</ele><time>2026-04-25T08:57:46.002Z</time></trkpt><trkpt lat="40.680945" lon="15.008255"><ele>332.0</ele><time>2026-04-25T08:57:47.008Z</time></trkpt><trkpt lat="40.6808733" lon="15.0083767"><ele>332.40000000000003</ele><time>2026-04-25T08:57:48.008Z</time></trkpt><trkpt lat="40.680795" lon="15.0085017"><ele>332.8</ele><time>2026-04-25T08:57:49.009Z</time></trkpt><trkpt lat="40.680725" lon="15.008625"><ele>333.2</ele><time>2026-04-25T08:57:50.043Z</time></trkpt><trkpt lat="40.68066" lon="15.00874"><ele>333.6</ele><time>2026-04-25T08:57:51.008Z</time></trkpt><trkpt lat="40.6806117" lon="15.0088483"><ele>334.0</ele><time>2026-04-25T08:57:52.006Z</time></trkpt><trkpt lat="40.680585" lon="15.0089517"><ele>334.0</ele><time>2026-04-25T08:57:53.008Z</time></trkpt><trkpt lat="40.6805683" lon="15.009075"><ele>334.0</ele><time>2026-04-25T08:57:54.014Z</time></trkpt><trkpt lat="40.6805517" lon="15.00921"><ele>334.0</ele><time>2026-04-25T08:57:55.015Z</time></trkpt><trkpt lat="40.6805283" lon="15.0093583"><ele>334.0</ele><time>2026-04-25T08:57:56.067Z</time></trkpt><trkpt lat="40.6805067" lon="15.0095033"><ele>334.0</ele><time>2026-04-25T08:57:57.005Z</time></trkpt><trkpt lat="40.6804833" lon="15.0096383"><ele>334.2</ele><time>2026-04-25T08:57:58.003Z</time></trkpt><trkpt lat="40.6804633" lon="15.009765"><ele>334.4</ele><time>2026-04-25T08:57:59.006Z</time></trkpt><trkpt lat="40.680445" lon="15.0098967"><ele>334.6</ele><time>2026-04-25T08:58:00.008Z</time></trkpt><trkpt lat="40.6804267" lon="15.010035"><ele>334.8</ele><time>2026-04-25T08:58:01Z</time></trkpt><trkpt lat="40.68041" lon="15.0101633"><ele>335.0</ele><time>2026-04-25T08:58:02.068Z</time></trkpt><trkpt lat="40.680395" lon="15.0102833"><ele>335.0</ele><time>2026-04-25T08:58:03.008Z</time></trkpt><trkpt lat="40.680385" lon="15.0104033"><ele>335.0</ele><time>2026-04-25T08:58:03.999Z</time></trkpt><trkpt lat="40.68038" lon="15.01052"><ele>335.0</ele><time>2026-04-25T08:58:05.013Z</time></trkpt><trkpt lat="40.680375" lon="15.010635"><ele>335.0</ele><time>2026-04-25T08:58:06.004Z</time></trkpt><trkpt lat="40.68037" lon="15.0107417"><ele>335.0</ele><time>2026-04-25T08:58:07.008Z</time></trkpt><trkpt lat="40.6803717" lon="15.0108467"><ele>335.0</ele><time>2026-04-25T08:58:08.042Z</time></trkpt><trkpt lat="40.6803783" lon="15.0109517"><ele>333.33333333333337</ele><time>2026-04-25T08:58:09.005Z</time></trkpt><trkpt lat="40.680385" lon="15.0110583"><ele>331.6666666666667</ele><time>2026-04-25T08:58:10.008Z</time></trkpt><trkpt lat="40.6803817" lon="15.01116"><ele>330.0</ele><time>2026-04-25T08:58:11.01Z</time></trkpt><trkpt lat="40.680375" lon="15.0112517"><ele>328.3333333333333</ele><time>2026-04-25T08:58:12.016Z</time></trkpt><trkpt lat="40.68037" lon="15.0113983"><ele>326.66666666666663</ele><time>2026-04-25T08:58:14.043Z</time></trkpt><trkpt lat="40.6803733" lon="15.0115033"><ele>325.0</ele><time>2026-04-25T08:58:16.009Z</time></trkpt><trkpt lat="40.680405" lon="15.011605"><ele>325.0</ele><time>2026-04-25T08:58:24.006Z</time></trkpt><trkpt lat="40.68048" lon="15.011645"><ele>325.0</ele><time>2026-04-25T08:58:26.065Z</time></trkpt><trkpt lat="40.680595" lon="15.0117067"><ele>325.0</ele><time>2026-04-25T08:58:28.008Z</time></trkpt><trkpt lat="40.6806617" lon="15.0117917"><ele>325.0</ele><time>2026-04-25T08:58:30.003Z</time></trkpt><trkpt lat="40.68064" lon="15.01188"><ele>325.0</ele><time>2026-04-25T08:58:31.008Z</time></trkpt><trkpt lat="40.6806033" lon="15.0120533"><ele>324.66666666666663</ele><time>2026-04-25T08:58:33Z</time></trkpt><trkpt lat="40.680575" lon="15.0121533"><ele>324.3333333333333</ele><time>2026-04-25T08:58:34.003Z</time></trkpt><trkpt lat="40.680535" lon="15.0122483"><ele>324.0</ele><time>2026-04-25T08:58:35Z</time></trkpt><trkpt lat="40.680495" lon="15.012325"><ele>323.6666666666667</ele><time>2026-04-25T08:58:36Z</time></trkpt><trkpt lat="40.6804667" lon="15.01242"><ele>323.33333333333337</ele><time>2026-04-25T08:58:37.01Z</time></trkpt><trkpt lat="40.68043" lon="15.0125333"><ele>323.0</ele><time>2026-04-25T08:58:38.043Z</time></trkpt><trkpt lat="40.6803867" lon="15.0126717"><ele>321.25</ele><time>2026-04-25T08:58:39.002Z</time></trkpt><trkpt lat="40.6803433" lon="15.0128283"><ele>319.5</ele><time>2026-04-25T08:58:40.008Z</time></trkpt><trkpt lat="40.6802883" lon="15.013"><ele>317.75</ele><time>2026-04-25T08:58:41.007Z</time></trkpt><trkpt lat="40.6802417" lon="15.0131633"><ele>316.0</ele><time>2026-04-25T08:58:42.012Z</time></trkpt><trkpt lat="40.6802" lon="15.0133283"><ele>316.0</ele><time>2026-04-25T08:58:43.011Z</time></trkpt><trkpt lat="40.6801567" lon="15.0134817"><ele>316.0</ele><time>2026-04-25T08:58:44.04Z</time></trkpt><trkpt lat="40.6801183" lon="15.0136233"><ele>316.0</ele><time>2026-04-25T08:58:45.006Z</time></trkpt><trkpt lat="40.6800867" lon="15.013745"><ele>316.0</ele><time>2026-04-25T08:58:46.014Z</time></trkpt><trkpt lat="40.680055" lon="15.0138667"><ele>316.0</ele><time>2026-04-25T08:58:47.013Z</time></trkpt><trkpt lat="40.6800183" lon="15.01398"><ele>316.0</ele><time>2026-04-25T08:58:48.006Z</time></trkpt><trkpt lat="40.6799817" lon="15.0140767"><ele>316.0</ele><time>2026-04-25T08:58:49.009Z</time></trkpt><trkpt lat="40.6799383" lon="15.0141617"><ele>316.0</ele><time>2026-04-25T08:58:50.042Z</time></trkpt><trkpt lat="40.67988" lon="15.0142433"><ele>316.0</ele><time>2026-04-25T08:58:51.006Z</time></trkpt><trkpt lat="40.6798183" lon="15.0143267"><ele>316.0</ele><time>2026-04-25T08:58:52.003Z</time></trkpt><trkpt lat="40.67976" lon="15.014415"><ele>316.0</ele><time>2026-04-25T08:58:53.009Z</time></trkpt><trkpt lat="40.6796983" lon="15.0145067"><ele>317.0</ele><time>2026-04-25T08:58:54.011Z</time></trkpt><trkpt lat="40.6796283" lon="15.0145867"><ele>318.0</ele><time>2026-04-25T08:58:55.012Z</time></trkpt><trkpt lat="40.67956" lon="15.0146583"><ele>319.0</ele><time>2026-04-25T08:58:56.061Z</time></trkpt><trkpt lat="40.6795017" lon="15.0147283"><ele>320.0</ele><time>2026-04-25T08:58:57.007Z</time></trkpt><trkpt lat="40.6794617" lon="15.0148"><ele>321.0</ele><time>2026-04-25T08:58:58.005Z</time></trkpt><trkpt lat="40.6794283" lon="15.0148917"><ele>322.0</ele><time>2026-04-25T08:58:59.003Z</time></trkpt><trkpt lat="40.6794083" lon="15.01501"><ele>317.0</ele><time>2026-04-25T08:59:00.008Z</time></trkpt><trkpt lat="40.67942" lon="15.0151967"><ele>312.0</ele><time>2026-04-25T08:59:01.007Z</time></trkpt><trkpt lat="40.6794133" lon="15.0153517"><ele>307.0</ele><time>2026-04-25T08:59:02.066Z</time></trkpt><trkpt lat="40.6794033" lon="15.0154917"><ele>302.0</ele><time>2026-04-25T08:59:03.003Z</time></trkpt><trkpt lat="40.679405" lon="15.01562"><ele>302.0</ele><time>2026-04-25T08:59:04.008Z</time></trkpt><trkpt lat="40.679425" lon="15.015735"><ele>302.0</ele><time>2026-04-25T08:59:05.005Z</time></trkpt><trkpt lat="40.6794667" lon="15.0158483"><ele>302.0</ele><time>2026-04-25T08:59:06.007Z</time></trkpt><trkpt lat="40.679525" lon="15.01596"><ele>302.0</ele><time>2026-04-25T08:59:07.008Z</time></trkpt><trkpt lat="40.67959" lon="15.0160583"><ele>302.0</ele><time>2026-04-25T08:59:08.04Z</time></trkpt><trkpt lat="40.6796517" lon="15.0161683"><ele>305.0</ele><time>2026-04-25T08:59:09.007Z</time></trkpt><trkpt lat="40.6796967" lon="15.0162867"><ele>308.0</ele><time>2026-04-25T08:59:10.006Z</time></trkpt><trkpt lat="40.67974" lon="15.0164067"><ele>311.0</ele><time>2026-04-25T08:59:11.011Z</time></trkpt><trkpt lat="40.6797867" lon="15.0165217"><ele>314.0</ele><time>2026-04-25T08:59:12.008Z</time></trkpt><trkpt lat="40.679835" lon="15.0166283"><ele>317.0</ele><time>2026-04-25T08:59:13.014Z</time></trkpt><trkpt lat="40.679885" lon="15.0167367"><ele>317.0</ele><time>2026-04-25T08:59:14.042Z</time></trkpt><trkpt lat="40.6799333" lon="15.0168417"><ele>317.0</ele><time>2026-04-25T08:59:15.002Z</time></trkpt><trkpt lat="40.6799817" lon="15.016935"><ele>317.0</ele><time>2026-04-25T08:59:16.006Z</time></trkpt><trkpt lat="40.6800383" lon="15.01701"><ele>317.0</ele><time>2026-04-25T08:59:17.009Z</time></trkpt><trkpt lat="40.680085" lon="15.0170817"><ele>317.0</ele><time>2026-04-25T08:59:18.005Z</time></trkpt><trkpt lat="40.6801283" lon="15.01715"><ele>317.0</ele><time>2026-04-25T08:59:19.013Z</time></trkpt><trkpt lat="40.6801583" lon="15.01723"><ele>317.0</ele><time>2026-04-25T08:59:20.045Z</time></trkpt><trkpt lat="40.680185" lon="15.0173217"><ele>317.0</ele><time>2026-04-25T08:59:21.008Z</time></trkpt><trkpt lat="40.6801767" lon="15.0174633"><ele>317.0</ele><time>2026-04-25T08:59:23.011Z</time></trkpt><trkpt lat="40.6801317" lon="15.0175267"><ele>317.0</ele><time>2026-04-25T08:59:24.014Z</time></trkpt><trkpt lat="40.6800517" lon="15.0175967"><ele>317.0</ele><time>2026-04-25T08:59:25.01Z</time></trkpt><trkpt lat="40.6799067" lon="15.0177017"><ele>316.0</ele><time>2026-04-25T08:59:26.067Z</time></trkpt><trkpt lat="40.6798067" lon="15.0178033"><ele>315.0</ele><time>2026-04-25T08:59:27.004Z</time></trkpt><trkpt lat="40.6797183" lon="15.01791"><ele>314.0</ele><time>2026-04-25T08:59:28.004Z</time></trkpt><trkpt lat="40.679655" lon="15.0180083"><ele>313.0</ele><time>2026-04-25T08:59:29.009Z</time></trkpt><trkpt lat="40.6796267" lon="15.0181017"><ele>312.0</ele><time>2026-04-25T08:59:30.007Z</time></trkpt><trkpt lat="40.6795967" lon="15.0182133"><ele>314.5</ele><time>2026-04-25T08:59:31.008Z</time></trkpt><trkpt lat="40.67961" lon="15.0183417"><ele>317.0</ele><time>2026-04-25T08:59:32.068Z</time></trkpt><trkpt lat="40.67963" lon="15.018505"><ele>319.5</ele><time>2026-04-25T08:59:33.004Z</time></trkpt><trkpt lat="40.67965" lon="15.0186617"><ele>322.0</ele><time>2026-04-25T08:59:34.003Z</time></trkpt><trkpt lat="40.6796733" lon="15.0188017"><ele>322.0</ele><time>2026-04-25T08:59:35.015Z</time></trkpt><trkpt lat="40.6797117" lon="15.0189367"><ele>322.0</ele><time>2026-04-25T08:59:36.008Z</time></trkpt><trkpt lat="40.67976" lon="15.01906"><ele>322.0</ele><time>2026-04-25T08:59:37.01Z</time></trkpt><trkpt lat="40.6798017" lon="15.0191783"><ele>322.0</ele><time>2026-04-25T08:59:38.04Z</time></trkpt><trkpt lat="40.6798233" lon="15.0192883"><ele>322.0</ele><time>2026-04-25T08:59:39.005Z</time></trkpt><trkpt lat="40.6798283" lon="15.0193883"><ele>323.8</ele><time>2026-04-25T08:59:40.003Z</time></trkpt><trkpt lat="40.679815" lon="15.0194783"><ele>325.6</ele><time>2026-04-25T08:59:41.011Z</time></trkpt><trkpt lat="40.6797867" lon="15.0196217"><ele>327.40000000000003</ele><time>2026-04-25T08:59:43.012Z</time></trkpt><trkpt lat="40.6796933" lon="15.0196567"><ele>329.20000000000005</ele><time>2026-04-25T08:59:45Z</time></trkpt><trkpt lat="40.6796183" lon="15.0196633"><ele>331.0</ele><time>2026-04-25T08:59:46.004Z</time></trkpt><trkpt lat="40.679515" lon="15.019675"><ele>330.75</ele><time>2026-04-25T08:59:47.013Z</time></trkpt><trkpt lat="40.6794083" lon="15.0197083"><ele>330.5</ele><time>2026-04-25T08:59:48.001Z</time></trkpt><trkpt lat="40.6792817" lon="15.0197583"><ele>330.25</ele><time>2026-04-25T08:59:49.007Z</time></trkpt><trkpt lat="40.6791467" lon="15.0198283"><ele>330.0</ele><time>2026-04-25T08:59:50.039Z</time></trkpt><trkpt lat="40.6790217" lon="15.0199"><ele>330.0</ele><time>2026-04-25T08:59:51Z</time></trkpt><trkpt lat="40.6789167" lon="15.0199767"><ele>330.0</ele><time>2026-04-25T08:59:52.003Z</time></trkpt><trkpt lat="40.6788267" lon="15.0200733"><ele>330.0</ele><time>2026-04-25T08:59:53.007Z</time></trkpt><trkpt lat="40.678755" lon="15.020225"><ele>330.0</ele><time>2026-04-25T08:59:54.011Z</time></trkpt><trkpt lat="40.6786817" lon="15.02037"><ele>331.0</ele><time>2026-04-25T08:59:55.009Z</time></trkpt><trkpt lat="40.67862" lon="15.0205017"><ele>332.0</ele><time>2026-04-25T08:59:56.081Z</time></trkpt><trkpt lat="40.6785617" lon="15.0206267"><ele>333.0</ele><time>2026-04-25T08:59:57.002Z</time></trkpt><trkpt lat="40.678495" lon="15.0207567"><ele>334.0</ele><time>2026-04-25T08:59:58.006Z</time></trkpt><trkpt lat="40.6784117" lon="15.0208767"><ele>337.0</ele><time>2026-04-25T08:59:59.006Z</time></trkpt><trkpt lat="40.6783217" lon="15.020995"><ele>340.0</ele><time>2026-04-25T09:00:00.011Z</time></trkpt><trkpt lat="40.6782317" lon="15.02113"><ele>343.0</ele><time>2026-04-25T09:00:01.01Z</time></trkpt><trkpt lat="40.6781467" lon="15.0212933"><ele>346.0</ele><time>2026-04-25T09:00:02.065Z</time></trkpt><trkpt lat="40.6780617" lon="15.0214633"><ele>346.0</ele><time>2026-04-25T09:00:03.007Z</time></trkpt><trkpt lat="40.6779817" lon="15.02161"><ele>346.0</ele><time>2026-04-25T09:00:04.011Z</time></trkpt><trkpt lat="40.6779033" lon="15.021735"><ele>346.0</ele><time>2026-04-25T09:00:05.013Z</time></trkpt><trkpt lat="40.6778183" lon="15.021855"><ele>346.0</ele><time>2026-04-25T09:00:06.007Z</time></trkpt><trkpt lat="40.6777333" lon="15.0219867"><ele>347.75</ele><time>2026-04-25T09:00:07.01Z</time></trkpt><trkpt lat="40.6776417" lon="15.022135"><ele>349.5</ele><time>2026-04-25T09:00:08.038Z</time></trkpt><trkpt lat="40.6775567" lon="15.0222883"><ele>351.25</ele><time>2026-04-25T09:00:09.005Z</time></trkpt><trkpt lat="40.6774917" lon="15.0224183"><ele>353.0</ele><time>2026-04-25T09:00:09.999Z</time></trkpt><trkpt lat="40.6774383" lon="15.0225183"><ele>355.4</ele><time>2026-04-25T09:00:11.003Z</time></trkpt><trkpt lat="40.677385" lon="15.0225833"><ele>357.79999999999995</ele><time>2026-04-25T09:00:12.002Z</time></trkpt><trkpt lat="40.6773" lon="15.02258"><ele>360.2</ele><time>2026-04-25T09:00:13.009Z</time></trkpt><trkpt lat="40.6772" lon="15.0225683"><ele>362.6</ele><time>2026-04-25T09:00:14.038Z</time></trkpt><trkpt lat="40.6770883" lon="15.0225467"><ele>365.0</ele><time>2026-04-25T09:00:15.002Z</time></trkpt><trkpt lat="40.6769633" lon="15.022505"><ele>366.0</ele><time>2026-04-25T09:00:16.011Z</time></trkpt><trkpt lat="40.6768417" lon="15.0224617"><ele>367.0</ele><time>2026-04-25T09:00:17.008Z</time></trkpt><trkpt lat="40.67673" lon="15.022425"><ele>368.0</ele><time>2026-04-25T09:00:18.014Z</time></trkpt><trkpt lat="40.676645" lon="15.0224033"><ele>369.0</ele><time>2026-04-25T09:00:19.021Z</time></trkpt><trkpt lat="40.6765983" lon="15.02246"><ele>370.0</ele><time>2026-04-25T09:00:22.006Z</time></trkpt><trkpt lat="40.6765933" lon="15.0225483"><ele>370.0</ele><time>2026-04-25T09:00:23.004Z</time></trkpt><trkpt lat="40.676585" lon="15.0226483"><ele>370.0</ele><time>2026-04-25T09:00:24.002Z</time></trkpt><trkpt lat="40.676575" lon="15.0227583"><ele>370.0</ele><time>2026-04-25T09:00:25.011Z</time></trkpt><trkpt lat="40.676565" lon="15.0228783"><ele>370.0</ele><time>2026-04-25T09:00:26.072Z</time></trkpt><trkpt lat="40.6765683" lon="15.0230117"><ele>370.0</ele><time>2026-04-25T09:00:27.01Z</time></trkpt><trkpt lat="40.676565" lon="15.02314"><ele>370.0</ele><time>2026-04-25T09:00:28.007Z</time></trkpt><trkpt lat="40.6765467" lon="15.023275"><ele>370.0</ele><time>2026-04-25T09:00:29.012Z</time></trkpt><trkpt lat="40.6765067" lon="15.023405"><ele>370.0</ele><time>2026-04-25T09:00:30.002Z</time></trkpt><trkpt lat="40.67645" lon="15.0235283"><ele>370.0</ele><time>2026-04-25T09:00:31.015Z</time></trkpt><trkpt lat="40.676395" lon="15.023645"><ele>370.0</ele><time>2026-04-25T09:00:32.066Z</time></trkpt><trkpt lat="40.6763517" lon="15.0237683"><ele>372.2</ele><time>2026-04-25T09:00:33.001Z</time></trkpt><trkpt lat="40.676315" lon="15.0238917"><ele>374.4</ele><time>2026-04-25T09:00:34.011Z</time></trkpt><trkpt lat="40.6762817" lon="15.024015"><ele>376.6</ele><time>2026-04-25T09:00:35.009Z</time></trkpt><trkpt lat="40.6762417" lon="15.0241083"><ele>378.8</ele><time>2026-04-25T09:00:36.006Z</time></trkpt><trkpt lat="40.6762467" lon="15.0240033"><ele>381.0</ele><time>2026-04-25T09:00:52.999Z</time></trkpt><trkpt lat="40.6761567" lon="15.02399"><ele>381.6</ele><time>2026-04-25T09:00:56.028Z</time></trkpt><trkpt lat="40.6760417" lon="15.0240033"><ele>382.20000000000005</ele><time>2026-04-25T09:00:57.999Z</time></trkpt><trkpt lat="40.6759733" lon="15.0240117"><ele>382.79999999999995</ele><time>2026-04-25T09:00:59.012Z</time></trkpt><trkpt lat="40.6758883" lon="15.024025"><ele>383.4</ele><time>2026-04-25T09:01:00.003Z</time></trkpt><trkpt lat="40.6757933" lon="15.0240533"><ele>384.0</ele><time>2026-04-25T09:01:01.013Z</time></trkpt><trkpt lat="40.6756983" lon="15.0240817"><ele>384.0</ele><time>2026-04-25T09:01:02.059Z</time></trkpt><trkpt lat="40.675615" lon="15.0240933"><ele>384.0</ele><time>2026-04-25T09:01:03.003Z</time></trkpt><trkpt lat="40.6755317" lon="15.024095"><ele>384.0</ele><time>2026-04-25T09:01:04.012Z</time></trkpt><trkpt lat="40.675465" lon="15.0241067"><ele>384.0</ele><time>2026-04-25T09:01:05.005Z</time></trkpt><trkpt lat="40.6754183" lon="15.0241667"><ele>384.0</ele><time>2026-04-25T09:01:07.012Z</time></trkpt><trkpt lat="40.6753633" lon="15.0242167"><ele>384.0</ele><time>2026-04-25T09:01:24.008Z</time></trkpt><trkpt lat="40.67529" lon="15.0243317"><ele>386.0</ele><time>2026-04-25T09:01:27.011Z</time></trkpt><trkpt lat="40.6752333" lon="15.02444"><ele>388.0</ele><time>2026-04-25T09:01:29.01Z</time></trkpt><trkpt lat="40.675195" lon="15.0245117"><ele>390.0</ele><time>2026-04-25T09:01:30.012Z</time></trkpt><trkpt lat="40.6751433" lon="15.024575"><ele>392.0</ele><time>2026-04-25T09:01:31.014Z</time></trkpt><trkpt lat="40.675085" lon="15.0246383"><ele>394.0</ele><time>2026-04-25T09:01:32.068Z</time></trkpt><trkpt lat="40.6750133" lon="15.0246917"><ele>396.0</ele><time>2026-04-25T09:01:33.003Z</time></trkpt><trkpt lat="40.6749133" lon="15.0247433"><ele>396.0</ele><time>2026-04-25T09:01:34.01Z</time></trkpt><trkpt lat="40.67482" lon="15.024775"><ele>396.0</ele><time>2026-04-25T09:01:35.008Z</time></trkpt><trkpt lat="40.6747267" lon="15.0247783"><ele>396.0</ele><time>2026-04-25T09:01:36.009Z</time></trkpt><trkpt lat="40.674645" lon="15.0247517"><ele>396.0</ele><time>2026-04-25T09:01:37.013Z</time></trkpt><trkpt lat="40.674575" lon="15.02472"><ele>396.0</ele><time>2026-04-25T09:01:38.045Z</time></trkpt><trkpt lat="40.6745117" lon="15.0246767"><ele>396.0</ele><time>2026-04-25T09:01:39.012Z</time></trkpt><trkpt lat="40.674455" lon="15.02464"><ele>398.0</ele><time>2026-04-25T09:01:40.007Z</time></trkpt><trkpt lat="40.6743633" lon="15.024645"><ele>400.0</ele><time>2026-04-25T09:01:42.001Z</time></trkpt><trkpt lat="40.6743233" lon="15.0247333"><ele>402.0</ele><time>2026-04-25T09:01:45.008Z</time></trkpt><trkpt lat="40.6743733" lon="15.0249"><ele>404.0</ele><time>2026-04-25T09:01:47.023Z</time></trkpt><trkpt lat="40.67444" lon="15.0250183"><ele>406.0</ele><time>2026-04-25T09:01:48.008Z</time></trkpt><trkpt lat="40.674515" lon="15.02514"><ele>407.20000000000005</ele><time>2026-04-25T09:01:49.003Z</time></trkpt><trkpt lat="40.6745733" lon="15.0252783"><ele>408.40000000000003</ele><time>2026-04-25T09:01:50.047Z</time></trkpt><trkpt lat="40.6746017" lon="15.02541"><ele>409.6</ele><time>2026-04-25T09:01:51.007Z</time></trkpt><trkpt lat="40.674635" lon="15.0255167"><ele>410.8</ele><time>2026-04-25T09:01:52.005Z</time></trkpt><trkpt lat="40.6746767" lon="15.0255983"><ele>412.0</ele><time>2026-04-25T09:01:53.011Z</time></trkpt><trkpt lat="40.674705" lon="15.025675"><ele>412.00000000000006</ele><time>2026-04-25T09:01:54.013Z</time></trkpt><trkpt lat="40.6747533" lon="15.025745"><ele>412.0</ele><time>2026-04-25T09:01:55.016Z</time></trkpt><trkpt lat="40.6746867" lon="15.025755"><ele>412.0</ele><time>2026-04-25T09:01:58.016Z</time></trkpt><trkpt lat="40.6746417" lon="15.02561"><ele>412.0</ele><time>2026-04-25T09:02:00.005Z</time></trkpt><trkpt lat="40.6746133" lon="15.02551"><ele>412.00000000000006</ele><time>2026-04-25T09:02:01.007Z</time></trkpt><trkpt lat="40.6745867" lon="15.0254033"><ele>412.0</ele><time>2026-04-25T09:02:02.069Z</time></trkpt><trkpt lat="40.6745517" lon="15.0252883"><ele>412.0</ele><time>2026-04-25T09:02:03.004Z</time></trkpt><trkpt lat="40.6744733" lon="15.0251933"><ele>412.0</ele><time>2026-04-25T09:02:04.009Z</time></trkpt><trkpt lat="40.674405" lon="15.0251317"><ele>412.0</ele><time>2026-04-25T09:02:05.003Z</time></trkpt><trkpt lat="40.6743333" lon="15.025105"><ele>412.0</ele><time>2026-04-25T09:02:06.01Z</time></trkpt><trkpt lat="40.6742733" lon="15.02525"><ele>412.0</ele><time>2026-04-25T09:02:08.043Z</time></trkpt><trkpt lat="40.6742933" lon="15.0254167"><ele>415.0</ele><time>2026-04-25T09:02:10.003Z</time></trkpt><trkpt lat="40.6743217" lon="15.025515"><ele>418.0</ele><time>2026-04-25T09:02:11.003Z</time></trkpt><trkpt lat="40.67434" lon="15.0256267"><ele>421.00000000000006</ele><time>2026-04-25T09:02:12.002Z</time></trkpt><trkpt lat="40.674355" lon="15.0257567"><ele>424.0</ele><time>2026-04-25T09:02:13.009Z</time></trkpt><trkpt lat="40.6743683" lon="15.0259017"><ele>427.0</ele><time>2026-04-25T09:02:14.038Z</time></trkpt><trkpt lat="40.6743783" lon="15.026055"><ele>432.75</ele><time>2026-04-25T09:02:14.998Z</time></trkpt><trkpt lat="40.67439" lon="15.0262167"><ele>438.5</ele><time>2026-04-25T09:02:16.001Z</time></trkpt><trkpt lat="40.6744" lon="15.0263767"><ele>444.25</ele><time>2026-04-25T09:02:17.005Z</time></trkpt><trkpt lat="40.6744067" lon="15.0265283"><ele>450.0</ele><time>2026-04-25T09:02:18.006Z</time></trkpt><trkpt lat="40.674415" lon="15.026665"><ele>451.4</ele><time>2026-04-25T09:02:19.005Z</time></trkpt><trkpt lat="40.6744417" lon="15.02678"><ele>452.8</ele><time>2026-04-25T09:02:20.041Z</time></trkpt><trkpt lat="40.6744933" lon="15.0268683"><ele>454.20000000000005</ele><time>2026-04-25T09:02:21.007Z</time></trkpt><trkpt lat="40.67457" lon="15.0269567"><ele>455.6</ele><time>2026-04-25T09:02:22.004Z</time></trkpt><trkpt lat="40.6746467" lon="15.0270867"><ele>457.0</ele><time>2026-04-25T09:02:23.008Z</time></trkpt><trkpt lat="40.674755" lon="15.0272017"><ele>457.0</ele><time>2026-04-25T09:02:24.008Z</time></trkpt><trkpt lat="40.6748483" lon="15.027355"><ele>457.0</ele><time>2026-04-25T09:02:25.007Z</time></trkpt><trkpt lat="40.674965" lon="15.027485"><ele>457.0</ele><time>2026-04-25T09:02:26.067Z</time></trkpt><trkpt lat="40.67508" lon="15.0276133"><ele>460.75</ele><time>2026-04-25T09:02:26.999Z</time></trkpt><trkpt lat="40.6751767" lon="15.0277367"><ele>464.5</ele><time>2026-04-25T09:02:28.004Z</time></trkpt><trkpt lat="40.6752733" lon="15.0278633"><ele>468.25</ele><time>2026-04-25T09:02:29.002Z</time></trkpt><trkpt lat="40.675345" lon="15.028005"><ele>472.0</ele><time>2026-04-25T09:02:30.01Z</time></trkpt><trkpt lat="40.675395" lon="15.0281533"><ele>472.6</ele><time>2026-04-25T09:02:31.005Z</time></trkpt><trkpt lat="40.6754283" lon="15.0282833"><ele>473.20000000000005</ele><time>2026-04-25T09:02:32.063Z</time></trkpt><trkpt lat="40.6754383" lon="15.0283817"><ele>473.8</ele><time>2026-04-25T09:02:33.005Z</time></trkpt><trkpt lat="40.6754233" lon="15.0285383"><ele>474.4</ele><time>2026-04-25T09:02:35.006Z</time></trkpt><trkpt lat="40.6753483" lon="15.0286517"><ele>475.0</ele><time>2026-04-25T09:02:37.009Z</time></trkpt><trkpt lat="40.67524" lon="15.0287183"><ele>476.14285714285717</ele><time>2026-04-25T09:02:39.003Z</time></trkpt><trkpt lat="40.6751733" lon="15.02873"><ele>477.28571428571433</ele><time>2026-04-25T09:02:41.01Z</time></trkpt><trkpt lat="40.675205" lon="15.028635"><ele>478.42857142857144</ele><time>2026-04-25T09:17:10.003Z</time></trkpt><trkpt lat="40.6751683" lon="15.0287133"><ele>479.57142857142856</ele><time>2026-04-25T09:17:19.002Z</time></trkpt><trkpt lat="40.6751083" lon="15.0287483"><ele>480.7142857142857</ele><time>2026-04-25T09:17:24.007Z</time></trkpt><trkpt lat="40.6750667" lon="15.0288283"><ele>481.8571428571429</ele><time>2026-04-25T09:17:27.001Z</time></trkpt><trkpt lat="40.675035" lon="15.02892"><ele>483.0</ele><time>2026-04-25T09:17:29.001Z</time></trkpt><trkpt lat="40.6750017" lon="15.0290367"><ele>481.3333333333333</ele><time>2026-04-25T09:17:31.007Z</time></trkpt><trkpt lat="40.67496" lon="15.0291883"><ele>479.66666666666663</ele><time>2026-04-25T09:17:33.002Z</time></trkpt><trkpt lat="40.674935" lon="15.0292683"><ele>478.0</ele><time>2026-04-25T09:17:34.008Z</time></trkpt><trkpt lat="40.6749067" lon="15.0293483"><ele>476.3333333333333</ele><time>2026-04-25T09:17:35.005Z</time></trkpt><trkpt lat="40.674885" lon="15.0294283"><ele>474.66666666666663</ele><time>2026-04-25T09:17:36.005Z</time></trkpt><trkpt lat="40.674845" lon="15.02959"><ele>473.0</ele><time>2026-04-25T09:17:38.05Z</time></trkpt><trkpt lat="40.6748267" lon="15.0296883"><ele>472.99999999999994</ele><time>2026-04-25T09:17:39.002Z</time></trkpt><trkpt lat="40.6748033" lon="15.02979"><ele>473.0</ele><time>2026-04-25T09:17:39.997Z</time></trkpt><trkpt lat="40.674775" lon="15.0298983"><ele>473.0</ele><time>2026-04-25T09:17:40.997Z</time></trkpt><trkpt lat="40.6747483" lon="15.0300083"><ele>473.0</ele><time>2026-04-25T09:17:42.009Z</time></trkpt><trkpt lat="40.6747233" lon="15.0301133"><ele>472.99999999999994</ele><time>2026-04-25T09:17:43Z</time></trkpt><trkpt lat="40.6746833" lon="15.03021"><ele>473.0</ele><time>2026-04-25T09:17:44.059Z</time></trkpt><trkpt lat="40.6746383" lon="15.03031"><ele>471.49999999999994</ele><time>2026-04-25T09:17:45.009Z</time></trkpt><trkpt lat="40.6745867" lon="15.03041"><ele>470.0</ele><time>2026-04-25T09:17:46.004Z</time></trkpt><trkpt lat="40.674545" lon="15.030515"><ele>468.5</ele><time>2026-04-25T09:17:47.006Z</time></trkpt><trkpt lat="40.674505" lon="15.030625"><ele>467.0</ele><time>2026-04-25T09:17:48.006Z</time></trkpt><trkpt lat="40.67447" lon="15.0307317"><ele>465.49999999999994</ele><time>2026-04-25T09:17:49.002Z</time></trkpt><trkpt lat="40.6744367" lon="15.0308367"><ele>464.0</ele><time>2026-04-25T09:17:50.055Z</time></trkpt><trkpt lat="40.67439" lon="15.0309333"><ele>464.0</ele><time>2026-04-25T09:17:51Z</time></trkpt><trkpt lat="40.674335" lon="15.0310233"><ele>464.0</ele><time>2026-04-25T09:17:51.999Z</time></trkpt><trkpt lat="40.6742683" lon="15.0311167"><ele>464.0</ele><time>2026-04-25T09:17:53.004Z</time></trkpt><trkpt lat="40.6741933" lon="15.03122"><ele>464.0</ele><time>2026-04-25T09:17:54.009Z</time></trkpt><trkpt lat="40.67412" lon="15.03132"><ele>464.0</ele><time>2026-04-25T09:17:55.005Z</time></trkpt><trkpt lat="40.67405" lon="15.03142"><ele>464.0</ele><time>2026-04-25T09:17:56.064Z</time></trkpt><trkpt lat="40.673985" lon="15.0315133"><ele>464.0</ele><time>2026-04-25T09:17:57.001Z</time></trkpt><trkpt lat="40.6739167" lon="15.0316017"><ele>464.0</ele><time>2026-04-25T09:17:58.006Z</time></trkpt><trkpt lat="40.673845" lon="15.0316833"><ele>464.0</ele><time>2026-04-25T09:17:59.006Z</time></trkpt><trkpt lat="40.6737533" lon="15.0317367"><ele>464.0</ele><time>2026-04-25T09:18:00.009Z</time></trkpt><trkpt lat="40.6736833" lon="15.0317917"><ele>461.4</ele><time>2026-04-25T09:18:01.007Z</time></trkpt><trkpt lat="40.6736033" lon="15.0318317"><ele>458.79999999999995</ele><time>2026-04-25T09:18:02.062Z</time></trkpt><trkpt lat="40.673505" lon="15.0318483"><ele>456.20000000000005</ele><time>2026-04-25T09:18:03.002Z</time></trkpt><trkpt lat="40.673395" lon="15.0318417"><ele>453.6</ele><time>2026-04-25T09:18:03.999Z</time></trkpt><trkpt lat="40.6732817" lon="15.0318233"><ele>451.0</ele><time>2026-04-25T09:18:05.006Z</time></trkpt><trkpt lat="40.6731767" lon="15.0318067"><ele>451.0</ele><time>2026-04-25T09:18:06.007Z</time></trkpt><trkpt lat="40.6730883" lon="15.031795"><ele>451.0</ele><time>2026-04-25T09:18:07.008Z</time></trkpt><trkpt lat="40.672995" lon="15.0318833"><ele>451.0</ele><time>2026-04-25T09:18:09.002Z</time></trkpt><trkpt lat="40.672965" lon="15.032025"><ele>451.0</ele><time>2026-04-25T09:18:11.004Z</time></trkpt><trkpt lat="40.672935" lon="15.0321033"><ele>451.0</ele><time>2026-04-25T09:18:12.004Z</time></trkpt><trkpt lat="40.6728617" lon="15.03223"><ele>451.00000000000006</ele><time>2026-04-25T09:18:14.058Z</time></trkpt><trkpt lat="40.6728067" lon="15.0322933"><ele>451.0</ele><time>2026-04-25T09:18:15.004Z</time></trkpt><trkpt lat="40.6727417" lon="15.0323483"><ele>451.0</ele><time>2026-04-25T09:18:16.005Z</time></trkpt><trkpt lat="40.6726617" lon="15.0324017"><ele>451.0</ele><time>2026-04-25T09:18:16.997Z</time></trkpt><trkpt lat="40.6725767" lon="15.03245"><ele>451.00000000000006</ele><time>2026-04-25T09:18:18Z</time></trkpt><trkpt lat="40.672475" lon="15.0324817"><ele>451.0</ele><time>2026-04-25T09:18:19.004Z</time></trkpt><trkpt lat="40.6723417" lon="15.0324667"><ele>447.0</ele><time>2026-04-25T09:18:20.062Z</time></trkpt><trkpt lat="40.67224" lon="15.0324733"><ele>443.0</ele><time>2026-04-25T09:18:21.002Z</time></trkpt><trkpt lat="40.67214" lon="15.0324833"><ele>439.0</ele><time>2026-04-25T09:18:22.004Z</time></trkpt><trkpt lat="40.6720583" lon="15.0324967"><ele>435.0</ele><time>2026-04-25T09:18:23.002Z</time></trkpt><trkpt lat="40.6721" lon="15.0325683"><ele>431.0</ele><time>2026-04-25T09:18:26.07Z</time></trkpt><trkpt lat="40.672205" lon="15.0326033"><ele>430.99999999999994</ele><time>2026-04-25T09:18:28.001Z</time></trkpt><trkpt lat="40.672285" lon="15.0326267"><ele>431.0</ele><time>2026-04-25T09:18:28.998Z</time></trkpt><trkpt lat="40.67237" lon="15.0326683"><ele>431.0</ele><time>2026-04-25T09:18:29.999Z</time></trkpt><trkpt lat="40.6724517" lon="15.03273"><ele>431.0</ele><time>2026-04-25T09:18:31.004Z</time></trkpt><trkpt lat="40.672535" lon="15.032785"><ele>430.99999999999994</ele><time>2026-04-25T09:18:32.065Z</time></trkpt><trkpt lat="40.67262" lon="15.03282"><ele>431.0</ele><time>2026-04-25T09:18:33Z</time></trkpt><trkpt lat="40.6727117" lon="15.0328317"><ele>427.8</ele><time>2026-04-25T09:18:33.998Z</time></trkpt><trkpt lat="40.6727967" lon="15.0328233"><ele>424.6</ele><time>2026-04-25T09:18:35.001Z</time></trkpt><trkpt lat="40.672885" lon="15.0327917"><ele>421.4</ele><time>2026-04-25T09:18:36Z</time></trkpt><trkpt lat="40.6729717" lon="15.0327417"><ele>418.2</ele><time>2026-04-25T09:18:37.011Z</time></trkpt><trkpt lat="40.6730583" lon="15.0326567"><ele>415.0</ele><time>2026-04-25T09:18:38.051Z</time></trkpt><trkpt lat="40.6731183" lon="15.0325583"><ele>415.0</ele><time>2026-04-25T09:18:39Z</time></trkpt><trkpt lat="40.6731783" lon="15.032475"><ele>415.0</ele><time>2026-04-25T09:18:40Z</time></trkpt><trkpt lat="40.6732367" lon="15.0324083"><ele>415.0</ele><time>2026-04-25T09:18:41.003Z</time></trkpt><trkpt lat="40.6733233" lon="15.032365"><ele>415.0</ele><time>2026-04-25T09:18:42.002Z</time></trkpt><trkpt lat="40.673395" lon="15.032335"><ele>415.0</ele><time>2026-04-25T09:18:43.005Z</time></trkpt><trkpt lat="40.6735217" lon="15.032375"><ele>415.2</ele><time>2026-04-25T09:18:45.002Z</time></trkpt><trkpt lat="40.673605" lon="15.0324433"><ele>415.4</ele><time>2026-04-25T09:18:46Z</time></trkpt><trkpt lat="40.673695" lon="15.0325133"><ele>415.6</ele><time>2026-04-25T09:18:46.997Z</time></trkpt><trkpt lat="40.6737783" lon="15.0325817"><ele>415.8</ele><time>2026-04-25T09:18:48.008Z</time></trkpt><trkpt lat="40.6738667" lon="15.0325867"><ele>416.0</ele><time>2026-04-25T09:18:49.003Z</time></trkpt><trkpt lat="40.67394" lon="15.0326083"><ele>416.0</ele><time>2026-04-25T09:18:50.055Z</time></trkpt><trkpt lat="40.6740133" lon="15.032605"><ele>416.0</ele><time>2026-04-25T09:18:51.003Z</time></trkpt><trkpt lat="40.6740767" lon="15.0325983"><ele>416.0</ele><time>2026-04-25T09:18:52.007Z</time></trkpt><trkpt lat="40.6741683" lon="15.0326217"><ele>416.0</ele><time>2026-04-25T09:18:54.006Z</time></trkpt><trkpt lat="40.6742067" lon="15.032745"><ele>416.0</ele><time>2026-04-25T09:18:57Z</time></trkpt><trkpt lat="40.67419" lon="15.0329017"><ele>416.0</ele><time>2026-04-25T09:18:58.999Z</time></trkpt><trkpt lat="40.674115" lon="15.0332033"><ele>416.0</ele><time>2026-04-25T09:19:00.004Z</time></trkpt><trkpt lat="40.6741183" lon="15.03332"><ele>416.0</ele><time>2026-04-25T09:19:01.007Z</time></trkpt><trkpt lat="40.67413" lon="15.0334367"><ele>416.0</ele><time>2026-04-25T09:19:02.073Z</time></trkpt><trkpt lat="40.6741567" lon="15.033545"><ele>412.4</ele><time>2026-04-25T09:19:03.001Z</time></trkpt><trkpt lat="40.6741933" lon="15.0336533"><ele>408.8</ele><time>2026-04-25T09:19:04.003Z</time></trkpt><trkpt lat="40.6742333" lon="15.033755"><ele>405.2</ele><time>2026-04-25T09:19:05.004Z</time></trkpt><trkpt lat="40.674275" lon="15.0338467"><ele>401.59999999999997</ele><time>2026-04-25T09:19:06.007Z</time></trkpt><trkpt lat="40.67431" lon="15.0339267"><ele>398.0</ele><time>2026-04-25T09:19:07.005Z</time></trkpt><trkpt lat="40.6743417" lon="15.0340967"><ele>395.66666666666663</ele><time>2026-04-25T09:19:08.998Z</time></trkpt><trkpt lat="40.6743467" lon="15.0341917"><ele>393.3333333333333</ele><time>2026-04-25T09:19:10.012Z</time></trkpt><trkpt lat="40.6743317" lon="15.03431"><ele>391.0</ele><time>2026-04-25T09:19:11.006Z</time></trkpt><trkpt lat="40.67428" lon="15.0344233"><ele>388.66666666666663</ele><time>2026-04-25T09:19:12.001Z</time></trkpt><trkpt lat="40.67423" lon="15.0345183"><ele>386.3333333333333</ele><time>2026-04-25T09:19:13.004Z</time></trkpt><trkpt lat="40.67418" lon="15.0346117"><ele>384.0</ele><time>2026-04-25T09:19:14.058Z</time></trkpt><trkpt lat="40.6741383" lon="15.0347"><ele>384.0</ele><time>2026-04-25T09:19:15.001Z</time></trkpt><trkpt lat="40.67411" lon="15.034785"><ele>384.0</ele><time>2026-04-25T09:19:16.005Z</time></trkpt><trkpt lat="40.6740833" lon="15.0348783"><ele>384.0</ele><time>2026-04-25T09:19:17.003Z</time></trkpt><trkpt lat="40.6741267" lon="15.0349733"><ele>384.0</ele><time>2026-04-25T09:19:18Z</time></trkpt><trkpt lat="40.6741583" lon="15.0350683"><ele>384.0</ele><time>2026-04-25T09:19:19.006Z</time></trkpt><trkpt lat="40.6741883" lon="15.0351633"><ele>384.0</ele><time>2026-04-25T09:19:20.051Z</time></trkpt><trkpt lat="40.6741867" lon="15.0352917"><ele>381.79999999999995</ele><time>2026-04-25T09:19:21Z</time></trkpt><trkpt lat="40.6741983" lon="15.0353733"><ele>379.59999999999997</ele><time>2026-04-25T09:19:22Z</time></trkpt><trkpt lat="40.6742483" lon="15.03551"><ele>377.4</ele><time>2026-04-25T09:19:23.998Z</time></trkpt><trkpt lat="40.6743517" lon="15.03559"><ele>375.2</ele><time>2026-04-25T09:19:26.072Z</time></trkpt><trkpt lat="40.6744283" lon="15.0356333"><ele>373.0</ele><time>2026-04-25T09:19:26.999Z</time></trkpt><trkpt lat="40.67451" lon="15.03568"><ele>377.2</ele><time>2026-04-25T09:19:28.002Z</time></trkpt><trkpt lat="40.6745933" lon="15.0357317"><ele>381.4</ele><time>2026-04-25T09:19:29.009Z</time></trkpt><trkpt lat="40.67466" lon="15.0358183"><ele>385.59999999999997</ele><time>2026-04-25T09:19:30.002Z</time></trkpt><trkpt lat="40.6747267" lon="15.03593"><ele>389.79999999999995</ele><time>2026-04-25T09:19:31.005Z</time></trkpt><trkpt lat="40.6747883" lon="15.0360533"><ele>394.0</ele><time>2026-04-25T09:19:32.065Z</time></trkpt><trkpt lat="40.67484" lon="15.036175"><ele>394.00000000000006</ele><time>2026-04-25T09:19:32.999Z</time></trkpt><trkpt lat="40.6748717" lon="15.036295"><ele>394.0</ele><time>2026-04-25T09:19:34.002Z</time></trkpt><trkpt lat="40.6748817" lon="15.03641"><ele>394.0</ele><time>2026-04-25T09:19:35.007Z</time></trkpt><trkpt lat="40.6748983" lon="15.036515"><ele>394.0</ele><time>2026-04-25T09:19:35.999Z</time></trkpt><trkpt lat="40.6749233" lon="15.0366083"><ele>394.00000000000006</ele><time>2026-04-25T09:19:37.007Z</time></trkpt><trkpt lat="40.674955" lon="15.0367"><ele>394.0</ele><time>2026-04-25T09:19:38.053Z</time></trkpt><trkpt lat="40.6750067" lon="15.0367967"><ele>399.5</ele><time>2026-04-25T09:19:38.998Z</time></trkpt><trkpt lat="40.6750833" lon="15.0368867"><ele>405.0</ele><time>2026-04-25T09:19:40.009Z</time></trkpt><trkpt lat="40.67519" lon="15.0369717"><ele>410.5</ele><time>2026-04-25T09:19:41Z</time></trkpt><trkpt lat="40.675275" lon="15.03707"><ele>416.0</ele><time>2026-04-25T09:19:42.004Z</time></trkpt><trkpt lat="40.6753433" lon="15.037195"><ele>416.0</ele><time>2026-04-25T09:19:43.002Z</time></trkpt><trkpt lat="40.6753933" lon="15.037325"><ele>416.0</ele><time>2026-04-25T09:19:44.06Z</time></trkpt><trkpt lat="40.67543" lon="15.03746"><ele>416.0</ele><time>2026-04-25T09:19:45.001Z</time></trkpt><trkpt lat="40.6754767" lon="15.037575"><ele>416.0</ele><time>2026-04-25T09:19:46.001Z</time></trkpt><trkpt lat="40.67552" lon="15.0376867"><ele>416.0</ele><time>2026-04-25T09:19:47.001Z</time></trkpt><trkpt lat="40.6755867" lon="15.0377817"><ele>409.49999999999994</ele><time>2026-04-25T09:19:48.003Z</time></trkpt><trkpt lat="40.6756567" lon="15.03786"><ele>403.0</ele><time>2026-04-25T09:19:48.995Z</time></trkpt><trkpt lat="40.6757267" lon="15.037935"><ele>396.5</ele><time>2026-04-25T09:19:50.057Z</time></trkpt><trkpt lat="40.675805" lon="15.0379867"><ele>390.0</ele><time>2026-04-25T09:19:50.996Z</time></trkpt><trkpt lat="40.6758867" lon="15.0380217"><ele>383.5</ele><time>2026-04-25T09:19:51.995Z</time></trkpt><trkpt lat="40.6759683" lon="15.0380283"><ele>377.0</ele><time>2026-04-25T09:19:53.002Z</time></trkpt><trkpt lat="40.6760333" lon="15.0380317"><ele>376.99999999999994</ele><time>2026-04-25T09:19:54Z</time></trkpt><trkpt lat="40.6761017" lon="15.038035"><ele>377.0</ele><time>2026-04-25T09:19:55.004Z</time></trkpt><trkpt lat="40.6761683" lon="15.03804"><ele>377.0</ele><time>2026-04-25T09:19:56.068Z</time></trkpt><trkpt lat="40.6762383" lon="15.038075"><ele>377.0</ele><time>2026-04-25T09:19:56.997Z</time></trkpt><trkpt lat="40.6763033" lon="15.03813"><ele>377.0</ele><time>2026-04-25T09:19:57.999Z</time></trkpt><trkpt lat="40.67636" lon="15.0381933"><ele>376.99999999999994</ele><time>2026-04-25T09:19:59.001Z</time></trkpt><trkpt lat="40.6764083" lon="15.0382733"><ele>377.0</ele><time>2026-04-25T09:20:00.005Z</time></trkpt><trkpt lat="40.67645" lon="15.0383917"><ele>379.75</ele><time>2026-04-25T09:20:01.007Z</time></trkpt><trkpt lat="40.6764767" lon="15.0385217"><ele>382.5</ele><time>2026-04-25T09:20:02.066Z</time></trkpt><trkpt lat="40.676485" lon="15.038685"><ele>385.25</ele><time>2026-04-25T09:20:02.994Z</time></trkpt><trkpt lat="40.6765117" lon="15.0388383"><ele>388.0</ele><time>2026-04-25T09:20:04.004Z</time></trkpt><trkpt lat="40.6765283" lon="15.0390167"><ele>384.4</ele><time>2026-04-25T09:20:04.998Z</time></trkpt><trkpt lat="40.6765233" lon="15.0391983"><ele>380.79999999999995</ele><time>2026-04-25T09:20:06.003Z</time></trkpt><trkpt lat="40.6765383" lon="15.0393283"><ele>377.2</ele><time>2026-04-25T09:20:06.999Z</time></trkpt><trkpt lat="40.67654" lon="15.0394467"><ele>373.6</ele><time>2026-04-25T09:20:08.053Z</time></trkpt><trkpt lat="40.676535" lon="15.0395667"><ele>370.0</ele><time>2026-04-25T09:20:08.998Z</time></trkpt><trkpt lat="40.6765467" lon="15.0396633"><ele>370.0</ele><time>2026-04-25T09:20:10Z</time></trkpt><trkpt lat="40.67657" lon="15.0397433"><ele>370.0</ele><time>2026-04-25T09:20:11.004Z</time></trkpt><trkpt lat="40.6766033" lon="15.0398217"><ele>370.0</ele><time>2026-04-25T09:20:11.999Z</time></trkpt><trkpt lat="40.67666" lon="15.0399"><ele>370.0</ele><time>2026-04-25T09:20:12.998Z</time></trkpt><trkpt lat="40.6767217" lon="15.03999"><ele>370.0</ele><time>2026-04-25T09:20:14.059Z</time></trkpt><trkpt lat="40.6768067" lon="15.0400667"><ele>370.0</ele><time>2026-04-25T09:20:14.997Z</time></trkpt><trkpt lat="40.6768817" lon="15.04015"><ele>374.2</ele><time>2026-04-25T09:20:16.003Z</time></trkpt><trkpt lat="40.6769483" lon="15.0402433"><ele>378.4</ele><time>2026-04-25T09:20:16.999Z</time></trkpt><trkpt lat="40.6770133" lon="15.0403583"><ele>382.6</ele><time>2026-04-25T09:20:18.002Z</time></trkpt><trkpt lat="40.6770667" lon="15.0404833"><ele>386.8</ele><time>2026-04-25T09:20:18.999Z</time></trkpt><trkpt lat="40.6771333" lon="15.040625"><ele>391.0</ele><time>2026-04-25T09:20:20.05Z</time></trkpt><trkpt lat="40.6772033" lon="15.04077"><ele>384.6</ele><time>2026-04-25T09:20:21.002Z</time></trkpt><trkpt lat="40.67727" lon="15.0409"><ele>378.20000000000005</ele><time>2026-04-25T09:20:21.997Z</time></trkpt><trkpt lat="40.677335" lon="15.0410217"><ele>371.79999999999995</ele><time>2026-04-25T09:20:23.002Z</time></trkpt><trkpt lat="40.67739" lon="15.0411333"><ele>365.4</ele><time>2026-04-25T09:20:23.996Z</time></trkpt><trkpt lat="40.6774583" lon="15.0412333"><ele>359.0</ele><time>2026-04-25T09:20:25.004Z</time></trkpt><trkpt lat="40.6775333" lon="15.0413183"><ele>359.0</ele><time>2026-04-25T09:20:26.067Z</time></trkpt><trkpt lat="40.6776217" lon="15.0414067"><ele>359.0</ele><time>2026-04-25T09:20:26.997Z</time></trkpt><trkpt lat="40.6777333" lon="15.041455"><ele>359.0</ele><time>2026-04-25T09:20:27.998Z</time></trkpt><trkpt lat="40.6778667" lon="15.0414783"><ele>359.0</ele><time>2026-04-25T09:20:29.008Z</time></trkpt><trkpt lat="40.6780217" lon="15.0414733"><ele>357.25</ele><time>2026-04-25T09:20:29.998Z</time></trkpt><trkpt lat="40.6781633" lon="15.0414933"><ele>355.5</ele><time>2026-04-25T09:20:31.004Z</time></trkpt><trkpt lat="40.6782867" lon="15.0415467"><ele>353.75</ele><time>2026-04-25T09:20:32.062Z</time></trkpt><trkpt lat="40.6784117" lon="15.0415883"><ele>352.0</ele><time>2026-04-25T09:20:33.001Z</time></trkpt><trkpt lat="40.6785367" lon="15.0416417"><ele>354.8</ele><time>2026-04-25T09:20:34Z</time></trkpt><trkpt lat="40.6786383" lon="15.0417133"><ele>357.6</ele><time>2026-04-25T09:20:35.006Z</time></trkpt><trkpt lat="40.67873" lon="15.0417917"><ele>360.40000000000003</ele><time>2026-04-25T09:20:36.002Z</time></trkpt><trkpt lat="40.6788083" lon="15.0418783"><ele>363.20000000000005</ele><time>2026-04-25T09:20:37.004Z</time></trkpt><trkpt lat="40.678885" lon="15.04195"><ele>366.0</ele><time>2026-04-25T09:20:38.054Z</time></trkpt><trkpt lat="40.6789633" lon="15.04203"><ele>366.0</ele><time>2026-04-25T09:20:39Z</time></trkpt><trkpt lat="40.6790417" lon="15.0420567"><ele>366.0</ele><time>2026-04-25T09:20:39.999Z</time></trkpt><trkpt lat="40.679125" lon="15.0420883"><ele>366.0</ele><time>2026-04-25T09:20:41.004Z</time></trkpt><trkpt lat="40.6792" lon="15.0421083"><ele>366.0</ele><time>2026-04-25T09:20:41.996Z</time></trkpt><trkpt lat="40.6792883" lon="15.042125"><ele>366.0</ele><time>2026-04-25T09:20:42.999Z</time></trkpt><trkpt lat="40.6793817" lon="15.042145"><ele>366.0</ele><time>2026-04-25T09:20:44.05Z</time></trkpt><trkpt lat="40.67948" lon="15.0421683"><ele>367.5</ele><time>2026-04-25T09:20:44.995Z</time></trkpt><trkpt lat="40.679565" lon="15.0422317"><ele>369.0</ele><time>2026-04-25T09:20:46.003Z</time></trkpt><trkpt lat="40.6796483" lon="15.042265"><ele>370.5</ele><time>2026-04-25T09:20:47.001Z</time></trkpt><trkpt lat="40.6797283" lon="15.0422917"><ele>372.0</ele><time>2026-04-25T09:20:48Z</time></trkpt><trkpt lat="40.6798083" lon="15.042325"><ele>373.5</ele><time>2026-04-25T09:20:49.003Z</time></trkpt><trkpt lat="40.6799" lon="15.0423617"><ele>375.0</ele><time>2026-04-25T09:20:50.057Z</time></trkpt><trkpt lat="40.6800017" lon="15.0423817"><ele>375.0</ele><time>2026-04-25T09:20:50.998Z</time></trkpt><trkpt lat="40.6801117" lon="15.042415"><ele>375.0</ele><time>2026-04-25T09:20:51.998Z</time></trkpt><trkpt lat="40.6802317" lon="15.042465"><ele>375.0</ele><time>2026-04-25T09:20:52.998Z</time></trkpt><trkpt lat="40.6803667" lon="15.0424883"><ele>375.0</ele><time>2026-04-25T09:20:53.997Z</time></trkpt><trkpt lat="40.680525" lon="15.0425533"><ele>361.5</ele><time>2026-04-25T09:20:55.005Z</time></trkpt><trkpt lat="40.6806733" lon="15.0425467"><ele>348.0</ele><time>2026-04-25T09:20:56.064Z</time></trkpt><trkpt lat="40.68082" lon="15.0425483"><ele>334.5</ele><time>2026-04-25T09:20:56.995Z</time></trkpt><trkpt lat="40.6809717" lon="15.0425333"><ele>321.0</ele><time>2026-04-25T09:20:57.999Z</time></trkpt><trkpt lat="40.6811267" lon="15.0425233"><ele>319.0</ele><time>2026-04-25T09:20:59.002Z</time></trkpt><trkpt lat="40.6812767" lon="15.0425117"><ele>317.0</ele><time>2026-04-25T09:21:00.007Z</time></trkpt><trkpt lat="40.6814033" lon="15.042515"><ele>315.0</ele><time>2026-04-25T09:21:00.999Z</time></trkpt><trkpt lat="40.6815183" lon="15.0425133"><ele>313.0</ele><time>2026-04-25T09:21:02.063Z</time></trkpt><trkpt lat="40.681615" lon="15.04253"><ele>313.0</ele><time>2026-04-25T09:21:02.999Z</time></trkpt><trkpt lat="40.681715" lon="15.04251"><ele>313.0</ele><time>2026-04-25T09:21:05.004Z</time></trkpt><trkpt lat="40.6817317" lon="15.0426133"><ele>313.0</ele><time>2026-04-25T09:21:08.053Z</time></trkpt><trkpt lat="40.6816533" lon="15.0426833"><ele>313.0</ele><time>2026-04-25T09:21:10.003Z</time></trkpt><trkpt lat="40.6815667" lon="15.0427317"><ele>313.0</ele><time>2026-04-25T09:21:11.001Z</time></trkpt><trkpt lat="40.681465" lon="15.0427767"><ele>313.0</ele><time>2026-04-25T09:21:11.998Z</time></trkpt><trkpt lat="40.68137" lon="15.0428167"><ele>313.0</ele><time>2026-04-25T09:21:13.005Z</time></trkpt><trkpt lat="40.681265" lon="15.0428417"><ele>313.0</ele><time>2026-04-25T09:21:14.051Z</time></trkpt><trkpt lat="40.681155" lon="15.042865"><ele>313.0</ele><time>2026-04-25T09:21:14.997Z</time></trkpt><trkpt lat="40.6810433" lon="15.04289"><ele>313.0</ele><time>2026-04-25T09:21:15.996Z</time></trkpt><trkpt lat="40.6809367" lon="15.042915"><ele>314.6</ele><time>2026-04-25T09:21:16.999Z</time></trkpt><trkpt lat="40.6808433" lon="15.0429567"><ele>316.20000000000005</ele><time>2026-04-25T09:21:17.998Z</time></trkpt><trkpt lat="40.680745" lon="15.042995"><ele>317.8</ele><time>2026-04-25T09:21:18.997Z</time></trkpt><trkpt lat="40.6806433" lon="15.04303"><ele>319.40000000000003</ele><time>2026-04-25T09:21:20.055Z</time></trkpt><trkpt lat="40.6805383" lon="15.043065"><ele>321.0</ele><time>2026-04-25T09:21:20.998Z</time></trkpt><trkpt lat="40.6804233" lon="15.04312"><ele>321.0</ele><time>2026-04-25T09:21:22.001Z</time></trkpt><trkpt lat="40.68029" lon="15.043145"><ele>321.0</ele><time>2026-04-25T09:21:23.003Z</time></trkpt><trkpt lat="40.6801633" lon="15.0431867"><ele>321.0</ele><time>2026-04-25T09:21:23.996Z</time></trkpt><trkpt lat="40.6800433" lon="15.0432267"><ele>321.0</ele><time>2026-04-25T09:21:24.995Z</time></trkpt><trkpt lat="40.6799383" lon="15.0432817"><ele>311.5</ele><time>2026-04-25T09:21:26.062Z</time></trkpt><trkpt lat="40.679825" lon="15.0433167"><ele>302.0</ele><time>2026-04-25T09:21:26.995Z</time></trkpt><trkpt lat="40.679715" lon="15.0433367"><ele>292.5</ele><time>2026-04-25T09:21:27.997Z</time></trkpt><trkpt lat="40.6795933" lon="15.04336"><ele>283.0</ele><time>2026-04-25T09:21:28.997Z</time></trkpt><trkpt lat="40.6794767" lon="15.0433783"><ele>281.6</ele><time>2026-04-25T09:21:29.998Z</time></trkpt><trkpt lat="40.6793667" lon="15.0434"><ele>280.20000000000005</ele><time>2026-04-25T09:21:30.999Z</time></trkpt><trkpt lat="40.67926" lon="15.0434067"><ele>278.8</ele><time>2026-04-25T09:21:32.064Z</time></trkpt><trkpt lat="40.6791533" lon="15.04341"><ele>277.40000000000003</ele><time>2026-04-25T09:21:33Z</time></trkpt><trkpt lat="40.6790683" lon="15.0433917"><ele>276.0</ele><time>2026-04-25T09:21:33.998Z</time></trkpt><trkpt lat="40.679" lon="15.0433733"><ele>276.0</ele><time>2026-04-25T09:21:34.995Z</time></trkpt><trkpt lat="40.679035" lon="15.043465"><ele>276.0</ele><time>2026-04-25T09:21:40.997Z</time></trkpt><trkpt lat="40.6791133" lon="15.0434733"><ele>276.0</ele><time>2026-04-25T09:21:41.993Z</time></trkpt><trkpt lat="40.6792067" lon="15.0434933"><ele>276.0</ele><time>2026-04-25T09:21:43Z</time></trkpt><trkpt lat="40.6792867" lon="15.0435267"><ele>276.0</ele><time>2026-04-25T09:21:44.051Z</time></trkpt><trkpt lat="40.6793583" lon="15.043555"><ele>276.0</ele><time>2026-04-25T09:21:44.998Z</time></trkpt><trkpt lat="40.6793983" lon="15.0436233"><ele>276.0</ele><time>2026-04-25T09:21:47.002Z</time></trkpt><trkpt lat="40.6793583" lon="15.0436917"><ele>276.0</ele><time>2026-04-25T09:21:48.993Z</time></trkpt><trkpt lat="40.67929" lon="15.04372"><ele>276.0</ele><time>2026-04-25T09:21:50.056Z</time></trkpt><trkpt lat="40.6792067" lon="15.0437417"><ele>276.0</ele><time>2026-04-25T09:21:50.995Z</time></trkpt><trkpt lat="40.6790767" lon="15.04375"><ele>276.0</ele><time>2026-04-25T09:21:52Z</time></trkpt><trkpt lat="40.678945" lon="15.043745"><ele>276.0</ele><time>2026-04-25T09:21:53.004Z</time></trkpt><trkpt lat="40.67881" lon="15.04373"><ele>276.0</ele><time>2026-04-25T09:21:54.003Z</time></trkpt><trkpt lat="40.67869" lon="15.0437033"><ele>276.0</ele><time>2026-04-25T09:21:55.007Z</time></trkpt><trkpt lat="40.6785767" lon="15.0436433"><ele>276.0</ele><time>2026-04-25T09:21:56.067Z</time></trkpt><trkpt lat="40.6784683" lon="15.0435883"><ele>274.5</ele><time>2026-04-25T09:21:56.995Z</time></trkpt><trkpt lat="40.678375" lon="15.0435583"><ele>273.0</ele><time>2026-04-25T09:21:57.998Z</time></trkpt><trkpt lat="40.67829" lon="15.0435567"><ele>271.5</ele><time>2026-04-25T09:21:58.997Z</time></trkpt><trkpt lat="40.6782183" lon="15.0435583"><ele>270.0</ele><time>2026-04-25T09:22:00.005Z</time></trkpt><trkpt lat="40.6781483" lon="15.0435667"><ele>268.5</ele><time>2026-04-25T09:22:00.997Z</time></trkpt><trkpt lat="40.6780733" lon="15.04359"><ele>267.0</ele><time>2026-04-25T09:22:02.064Z</time></trkpt><trkpt lat="40.6779467" lon="15.043635"><ele>267.0</ele><time>2026-04-25T09:22:03.996Z</time></trkpt><trkpt lat="40.6778633" lon="15.0436567"><ele>267.0</ele><time>2026-04-25T09:22:05.006Z</time></trkpt><trkpt lat="40.677775" lon="15.0436683"><ele>267.0</ele><time>2026-04-25T09:22:06.002Z</time></trkpt><trkpt lat="40.6776917" lon="15.0436917"><ele>267.0</ele><time>2026-04-25T09:22:07.007Z</time></trkpt><trkpt lat="40.6776067" lon="15.0436883"><ele>267.0</ele><time>2026-04-25T09:22:08.053Z</time></trkpt><trkpt lat="40.6775233" lon="15.04367"><ele>267.0</ele><time>2026-04-25T09:22:09Z</time></trkpt><trkpt lat="40.6774333" lon="15.04366"><ele>264.8</ele><time>2026-04-25T09:22:10.003Z</time></trkpt><trkpt lat="40.677325" lon="15.0436583"><ele>262.6</ele><time>2026-04-25T09:22:11.008Z</time></trkpt><trkpt lat="40.6772233" lon="15.043665"><ele>260.40000000000003</ele><time>2026-04-25T09:22:11.994Z</time></trkpt><trkpt lat="40.6771217" lon="15.0436617"><ele>258.2</ele><time>2026-04-25T09:22:13.01Z</time></trkpt><trkpt lat="40.67701" lon="15.0436567"><ele>256.0</ele><time>2026-04-25T09:22:14.052Z</time></trkpt><trkpt lat="40.6768967" lon="15.043645"><ele>256.0</ele><time>2026-04-25T09:22:14.999Z</time></trkpt><trkpt lat="40.676785" lon="15.0436167"><ele>256.0</ele><time>2026-04-25T09:22:16.005Z</time></trkpt><trkpt lat="40.676685" lon="15.0435867"><ele>256.0</ele><time>2026-04-25T09:22:17Z</time></trkpt><trkpt lat="40.6765767" lon="15.04357"><ele>256.0</ele><time>2026-04-25T09:22:17.996Z</time></trkpt><trkpt lat="40.6764867" lon="15.04356"><ele>256.0</ele><time>2026-04-25T09:22:19Z</time></trkpt><trkpt lat="40.6764033" lon="15.0435383"><ele>255.99999999999997</ele><time>2026-04-25T09:22:20.053Z</time></trkpt><trkpt lat="40.6763133" lon="15.0435083"><ele>256.0</ele><time>2026-04-25T09:22:20.995Z</time></trkpt><trkpt lat="40.676235" lon="15.0434683"><ele>256.0</ele><time>2026-04-25T09:22:22.003Z</time></trkpt><trkpt lat="40.676165" lon="15.04342"><ele>256.0</ele><time>2026-04-25T09:22:22.995Z</time></trkpt><trkpt lat="40.676085" lon="15.0433933"><ele>255.99999999999997</ele><time>2026-04-25T09:22:23.997Z</time></trkpt><trkpt lat="40.6760233" lon="15.0433417"><ele>256.0</ele><time>2026-04-25T09:22:25.002Z</time></trkpt><trkpt lat="40.675955" lon="15.0432817"><ele>255.0</ele><time>2026-04-25T09:22:26.06Z</time></trkpt><trkpt lat="40.6758683" lon="15.043245"><ele>254.00000000000003</ele><time>2026-04-25T09:22:26.997Z</time></trkpt><trkpt lat="40.6757833" lon="15.043195"><ele>253.00000000000003</ele><time>2026-04-25T09:22:27.994Z</time></trkpt><trkpt lat="40.6756883" lon="15.043145"><ele>252.0</ele><time>2026-04-25T09:22:29.001Z</time></trkpt><trkpt lat="40.6756017" lon="15.04312"><ele>251.0</ele><time>2026-04-25T09:22:29.993Z</time></trkpt><trkpt lat="40.6755" lon="15.04307"><ele>251.0</ele><time>2026-04-25T09:22:31.005Z</time></trkpt><trkpt lat="40.675425" lon="15.0430183"><ele>251.00000000000003</ele><time>2026-04-25T09:22:32.062Z</time></trkpt><trkpt lat="40.6753317" lon="15.0429733"><ele>251.00000000000003</ele><time>2026-04-25T09:22:32.996Z</time></trkpt><trkpt lat="40.6752467" lon="15.04297"><ele>251.0</ele><time>2026-04-25T09:22:34Z</time></trkpt><trkpt lat="40.6751733" lon="15.042945"><ele>251.0</ele><time>2026-04-25T09:22:35.006Z</time></trkpt><trkpt lat="40.6750617" lon="15.0429383"><ele>248.0</ele><time>2026-04-25T09:22:37.003Z</time></trkpt><trkpt lat="40.6749717" lon="15.0428833"><ele>245.0</ele><time>2026-04-25T09:22:39Z</time></trkpt><trkpt lat="40.6748883" lon="15.0427983"><ele>242.0</ele><time>2026-04-25T09:22:41.008Z</time></trkpt><trkpt lat="40.6748933" lon="15.0426117"><ele>239.0</ele><time>2026-04-25T09:22:43.007Z</time></trkpt><trkpt lat="40.6749217" lon="15.0424583"><ele>239.00000000000003</ele><time>2026-04-25T09:22:44.052Z</time></trkpt><trkpt lat="40.674905" lon="15.0423417"><ele>239.0</ele><time>2026-04-25T09:22:44.999Z</time></trkpt><trkpt lat="40.674855" lon="15.0422483"><ele>239.0</ele><time>2026-04-25T09:22:46Z</time></trkpt><trkpt lat="40.674795" lon="15.0421667"><ele>239.0</ele><time>2026-04-25T09:22:47.003Z</time></trkpt><trkpt lat="40.6747583" lon="15.0420567"><ele>239.00000000000003</ele><time>2026-04-25T09:22:47.999Z</time></trkpt><trkpt lat="40.674685" lon="15.0419883"><ele>239.0</ele><time>2026-04-25T09:22:49.005Z</time></trkpt><trkpt lat="40.6745967" lon="15.0419267"><ele>239.0</ele><time>2026-04-25T09:22:50.053Z</time></trkpt><trkpt lat="40.674505" lon="15.0418733"><ele>238.99999999999997</ele><time>2026-04-25T09:22:50.993Z</time></trkpt><trkpt lat="40.67442" lon="15.0418467"><ele>238.99999999999997</ele><time>2026-04-25T09:22:51.998Z</time></trkpt><trkpt lat="40.6743333" lon="15.0418"><ele>239.0</ele><time>2026-04-25T09:22:53.002Z</time></trkpt><trkpt lat="40.67425" lon="15.041735"><ele>239.0</ele><time>2026-04-25T09:22:54.001Z</time></trkpt><trkpt lat="40.67417" lon="15.041685"><ele>236.50000000000003</ele><time>2026-04-25T09:22:55.002Z</time></trkpt><trkpt lat="40.67411" lon="15.04161"><ele>234.0</ele><time>2026-04-25T09:22:56.062Z</time></trkpt><trkpt lat="40.6740583" lon="15.0415483"><ele>231.5</ele><time>2026-04-25T09:22:56.994Z</time></trkpt><trkpt lat="40.674005" lon="15.0414867"><ele>229.0</ele><time>2026-04-25T09:22:58Z</time></trkpt><trkpt lat="40.6739433" lon="15.0414417"><ele>226.50000000000003</ele><time>2026-04-25T09:22:58.999Z</time></trkpt><trkpt lat="40.67387" lon="15.04141"><ele>224.0</ele><time>2026-04-25T09:23:00Z</time></trkpt><trkpt lat="40.6737983" lon="15.041305"><ele>224.0</ele><time>2026-04-25T09:23:02.062Z</time></trkpt><trkpt lat="40.6738133" lon="15.0411733"><ele>223.99999999999997</ele><time>2026-04-25T09:23:03.997Z</time></trkpt><trkpt lat="40.6738217" lon="15.0410833"><ele>223.99999999999997</ele><time>2026-04-25T09:23:05.001Z</time></trkpt><trkpt lat="40.673785" lon="15.0409417"><ele>224.0</ele><time>2026-04-25T09:23:07.004Z</time></trkpt><trkpt lat="40.6736917" lon="15.04084"><ele>224.0</ele><time>2026-04-25T09:23:08.996Z</time></trkpt><trkpt lat="40.673635" lon="15.040765"><ele>225.5</ele><time>2026-04-25T09:23:09.995Z</time></trkpt><trkpt lat="40.6735667" lon="15.0406517"><ele>227.0</ele><time>2026-04-25T09:23:10.997Z</time></trkpt><trkpt lat="40.6734833" lon="15.0405183"><ele>228.5</ele><time>2026-04-25T09:23:11.999Z</time></trkpt><trkpt lat="40.673415" lon="15.04039"><ele>230.0</ele><time>2026-04-25T09:23:12.997Z</time></trkpt><trkpt lat="40.673335" lon="15.0402817"><ele>230.0</ele><time>2026-04-25T09:23:14.06Z</time></trkpt><trkpt lat="40.6732883" lon="15.040165"><ele>230.0</ele><time>2026-04-25T09:23:14.994Z</time></trkpt><trkpt lat="40.6732033" lon="15.04009"><ele>230.0</ele><time>2026-04-25T09:23:15.993Z</time></trkpt><trkpt lat="40.6731183" lon="15.0400167"><ele>230.0</ele><time>2026-04-25T09:23:17.001Z</time></trkpt><trkpt lat="40.67304" lon="15.0399383"><ele>230.0</ele><time>2026-04-25T09:23:17.998Z</time></trkpt><trkpt lat="40.67297" lon="15.0398483"><ele>229.0</ele><time>2026-04-25T09:23:18.998Z</time></trkpt><trkpt lat="40.6729033" lon="15.0397633"><ele>228.0</ele><time>2026-04-25T09:23:20.051Z</time></trkpt><trkpt lat="40.6728417" lon="15.039665"><ele>227.0</ele><time>2026-04-25T09:23:20.994Z</time></trkpt><trkpt lat="40.67274" lon="15.0396167"><ele>226.0</ele><time>2026-04-25T09:23:22.002Z</time></trkpt><trkpt lat="40.672645" lon="15.0395633"><ele>225.0</ele><time>2026-04-25T09:23:22.992Z</time></trkpt><trkpt lat="40.6725467" lon="15.039505"><ele>225.0</ele><time>2026-04-25T09:23:23.996Z</time></trkpt><trkpt lat="40.67245" lon="15.0394483"><ele>225.0</ele><time>2026-04-25T09:23:25.003Z</time></trkpt><trkpt lat="40.6723583" lon="15.039355"><ele>225.0</ele><time>2026-04-25T09:23:26.065Z</time></trkpt><trkpt lat="40.672245" lon="15.03928"><ele>225.0</ele><time>2026-04-25T09:23:26.999Z</time></trkpt><trkpt lat="40.672145" lon="15.0391983"><ele>225.0</ele><time>2026-04-25T09:23:28.001Z</time></trkpt><trkpt lat="40.67203" lon="15.0391517"><ele>225.0</ele><time>2026-04-25T09:23:28.997Z</time></trkpt><trkpt lat="40.6719183" lon="15.0391217"><ele>225.0</ele><time>2026-04-25T09:23:29.996Z</time></trkpt><trkpt lat="40.6718083" lon="15.0390867"><ele>225.0</ele><time>2026-04-25T09:23:31.003Z</time></trkpt><trkpt lat="40.671705" lon="15.0390333"><ele>221.75</ele><time>2026-04-25T09:23:32.063Z</time></trkpt><trkpt lat="40.6715967" lon="15.0389917"><ele>218.5</ele><time>2026-04-25T09:23:32.999Z</time></trkpt><trkpt lat="40.6714867" lon="15.0389567"><ele>215.25</ele><time>2026-04-25T09:23:33.992Z</time></trkpt><trkpt lat="40.67137" lon="15.0389317"><ele>212.0</ele><time>2026-04-25T09:23:34.998Z</time></trkpt><trkpt lat="40.67126" lon="15.0389317"><ele>212.0</ele><time>2026-04-25T09:23:35.999Z</time></trkpt><trkpt lat="40.6711483" lon="15.038935"><ele>212.0</ele><time>2026-04-25T09:23:36.995Z</time></trkpt><trkpt lat="40.6710333" lon="15.03896"><ele>212.0</ele><time>2026-04-25T09:23:38.056Z</time></trkpt><trkpt lat="40.67094" lon="15.03901"><ele>212.0</ele><time>2026-04-25T09:23:38.998Z</time></trkpt><trkpt lat="40.67085" lon="15.03904"><ele>212.0</ele><time>2026-04-25T09:23:39.997Z</time></trkpt><trkpt lat="40.6707617" lon="15.0390533"><ele>211.66666666666669</ele><time>2026-04-25T09:23:41Z</time></trkpt><trkpt lat="40.6706733" lon="15.0390617"><ele>211.33333333333334</ele><time>2026-04-25T09:23:41.997Z</time></trkpt><trkpt lat="40.6705917" lon="15.0390767"><ele>211.0</ele><time>2026-04-25T09:23:43.003Z</time></trkpt><trkpt lat="40.6705167" lon="15.0390817"><ele>210.66666666666669</ele><time>2026-04-25T09:23:44.055Z</time></trkpt><trkpt lat="40.670445" lon="15.0391017"><ele>210.33333333333334</ele><time>2026-04-25T09:23:44.993Z</time></trkpt><trkpt lat="40.6703817" lon="15.0391283"><ele>210.0</ele><time>2026-04-25T09:23:45.996Z</time></trkpt><trkpt lat="40.6702983" lon="15.0391967"><ele>214.4</ele><time>2026-04-25T09:23:47.997Z</time></trkpt><trkpt lat="40.67022" lon="15.0391083"><ele>218.8</ele><time>2026-04-25T09:23:50.05Z</time></trkpt><trkpt lat="40.6701867" lon="15.039005"><ele>223.2</ele><time>2026-04-25T09:23:50.998Z</time></trkpt><trkpt lat="40.6701617" lon="15.0388717"><ele>227.6</ele><time>2026-04-25T09:23:52Z</time></trkpt><trkpt lat="40.6701683" lon="15.0387383"><ele>232.0</ele><time>2026-04-25T09:23:52.996Z</time></trkpt><trkpt lat="40.6701283" lon="15.03864"><ele>232.0</ele><time>2026-04-25T09:23:54.001Z</time></trkpt><trkpt lat="40.6700917" lon="15.0385383"><ele>232.0</ele><time>2026-04-25T09:23:55.004Z</time></trkpt><trkpt lat="40.670045" lon="15.0384583"><ele>232.0</ele><time>2026-04-25T09:23:56.063Z</time></trkpt><trkpt lat="40.6699683" lon="15.038395"><ele>232.0</ele><time>2026-04-25T09:23:57.001Z</time></trkpt><trkpt lat="40.66987" lon="15.0383533"><ele>232.0</ele><time>2026-04-25T09:23:58.001Z</time></trkpt><trkpt lat="40.66977" lon="15.03832"><ele>227.39999999999998</ele><time>2026-04-25T09:23:59.002Z</time></trkpt><trkpt lat="40.66966" lon="15.0382883"><ele>222.79999999999998</ele><time>2026-04-25T09:24:00.01Z</time></trkpt><trkpt lat="40.6695467" lon="15.0382717"><ele>218.2</ele><time>2026-04-25T09:24:01.002Z</time></trkpt><trkpt lat="40.6694367" lon="15.0382683"><ele>213.6</ele><time>2026-04-25T09:24:02.072Z</time></trkpt><trkpt lat="40.6693383" lon="15.0382967"><ele>209.0</ele><time>2026-04-25T09:24:03.007Z</time></trkpt><trkpt lat="40.6692383" lon="15.0383"><ele>213.33333333333334</ele><time>2026-04-25T09:24:03.992Z</time></trkpt><trkpt lat="40.669155" lon="15.0383083"><ele>217.66666666666669</ele><time>2026-04-25T09:24:05.002Z</time></trkpt><trkpt lat="40.6690733" lon="15.0383233"><ele>222.0</ele><time>2026-04-25T09:24:05.998Z</time></trkpt><trkpt lat="40.6689983" lon="15.0383433"><ele>226.33333333333331</ele><time>2026-04-25T09:24:07.008Z</time></trkpt><trkpt lat="40.6689333" lon="15.0383667"><ele>230.66666666666666</ele><time>2026-04-25T09:24:08.049Z</time></trkpt><trkpt lat="40.6688683" lon="15.0383833"><ele>235.0</ele><time>2026-04-25T09:24:08.999Z</time></trkpt><trkpt lat="40.6687733" lon="15.0383967"><ele>229.6</ele><time>2026-04-25T09:24:11Z</time></trkpt><trkpt lat="40.6687717" lon="15.0382583"><ele>224.2</ele><time>2026-04-25T09:24:11.998Z</time></trkpt><trkpt lat="40.6687567" lon="15.03813"><ele>218.8</ele><time>2026-04-25T09:24:12.996Z</time></trkpt><trkpt lat="40.66871" lon="15.0380333"><ele>213.4</ele><time>2026-04-25T09:24:14.052Z</time></trkpt><trkpt lat="40.6686467" lon="15.0379383"><ele>208.0</ele><time>2026-04-25T09:24:14.995Z</time></trkpt><trkpt lat="40.6685767" lon="15.037865"><ele>207.60000000000002</ele><time>2026-04-25T09:24:15.998Z</time></trkpt><trkpt lat="40.6684833" lon="15.03781"><ele>207.20000000000002</ele><time>2026-04-25T09:24:16.999Z</time></trkpt><trkpt lat="40.6683867" lon="15.037755"><ele>206.8</ele><time>2026-04-25T09:24:18Z</time></trkpt><trkpt lat="40.66828" lon="15.0377233"><ele>206.4</ele><time>2026-04-25T09:24:18.995Z</time></trkpt><trkpt lat="40.66817" lon="15.0377283"><ele>206.0</ele><time>2026-04-25T09:24:20.052Z</time></trkpt><trkpt lat="40.6680567" lon="15.0377417"><ele>206.0</ele><time>2026-04-25T09:24:20.996Z</time></trkpt><trkpt lat="40.6679517" lon="15.0377433"><ele>206.0</ele><time>2026-04-25T09:24:21.992Z</time></trkpt><trkpt lat="40.667855" lon="15.0377167"><ele>206.0</ele><time>2026-04-25T09:24:23.002Z</time></trkpt><trkpt lat="40.66776" lon="15.037685"><ele>206.0</ele><time>2026-04-25T09:24:24.005Z</time></trkpt><trkpt lat="40.66768" lon="15.0376767"><ele>206.0</ele><time>2026-04-25T09:24:25.006Z</time></trkpt><trkpt lat="40.6676017" lon="15.0376833"><ele>205.50000000000003</ele><time>2026-04-25T09:24:26.063Z</time></trkpt><trkpt lat="40.6675383" lon="15.0376867"><ele>205.0</ele><time>2026-04-25T09:24:27.009Z</time></trkpt><trkpt lat="40.6674417" lon="15.0376467"><ele>204.5</ele><time>2026-04-25T09:24:28.999Z</time></trkpt><trkpt lat="40.6673583" lon="15.0375667"><ele>204.0</ele><time>2026-04-25T09:24:31.002Z</time></trkpt><trkpt lat="40.6673017" lon="15.0375033"><ele>203.50000000000003</ele><time>2026-04-25T09:24:32.066Z</time></trkpt><trkpt lat="40.6672333" lon="15.0374533"><ele>203.0</ele><time>2026-04-25T09:24:32.993Z</time></trkpt><trkpt lat="40.6671483" lon="15.03742"><ele>203.0</ele><time>2026-04-25T09:24:34.003Z</time></trkpt><trkpt lat="40.6670533" lon="15.0373917"><ele>203.0</ele><time>2026-04-25T09:24:35.007Z</time></trkpt><trkpt lat="40.666945" lon="15.037395"><ele>203.0</ele><time>2026-04-25T09:24:35.997Z</time></trkpt><trkpt lat="40.66682" lon="15.0374033"><ele>203.0</ele><time>2026-04-25T09:24:37.002Z</time></trkpt><trkpt lat="40.6667133" lon="15.037385"><ele>203.0</ele><time>2026-04-25T09:24:38.051Z</time></trkpt><trkpt lat="40.6665933" lon="15.0374017"><ele>202.16666666666669</ele><time>2026-04-25T09:24:38.994Z</time></trkpt><trkpt lat="40.6664917" lon="15.03743"><ele>201.33333333333334</ele><time>2026-04-25T09:24:40.003Z</time></trkpt><trkpt lat="40.6664217" lon="15.037455"><ele>200.5</ele><time>2026-04-25T09:24:41.003Z</time></trkpt><trkpt lat="40.6663467" lon="15.037465"><ele>199.66666666666669</ele><time>2026-04-25T09:24:41.999Z</time></trkpt><trkpt lat="40.666275" lon="15.0374667"><ele>198.83333333333334</ele><time>2026-04-25T09:24:43.003Z</time></trkpt><trkpt lat="40.6662117" lon="15.0374567"><ele>198.0</ele><time>2026-04-25T09:24:44.049Z</time></trkpt><trkpt lat="40.6661983" lon="15.0373267"><ele>198.0</ele><time>2026-04-25T09:24:44.996Z</time></trkpt><trkpt lat="40.6661783" lon="15.0372217"><ele>198.0</ele><time>2026-04-25T09:24:46Z</time></trkpt><trkpt lat="40.6661617" lon="15.0371367"><ele>198.0</ele><time>2026-04-25T09:24:47.002Z</time></trkpt><trkpt lat="40.6661583" lon="15.0370383"><ele>198.0</ele><time>2026-04-25T09:24:47.998Z</time></trkpt><trkpt lat="40.6661267" lon="15.0369383"><ele>198.0</ele><time>2026-04-25T09:24:50.055Z</time></trkpt><trkpt lat="40.6660467" lon="15.0368817"><ele>198.0</ele><time>2026-04-25T09:24:51.996Z</time></trkpt><trkpt lat="40.6659717" lon="15.0368567"><ele>200.5</ele><time>2026-04-25T09:24:53.001Z</time></trkpt><trkpt lat="40.665915" lon="15.0368133"><ele>203.0</ele><time>2026-04-25T09:24:54.001Z</time></trkpt><trkpt lat="40.6658617" lon="15.036765"><ele>205.5</ele><time>2026-04-25T09:24:55.002Z</time></trkpt><trkpt lat="40.6657983" lon="15.036725"><ele>208.0</ele><time>2026-04-25T09:24:56.071Z</time></trkpt><trkpt lat="40.6657217" lon="15.0366967"><ele>210.5</ele><time>2026-04-25T09:24:57Z</time></trkpt><trkpt lat="40.66565" lon="15.0366717"><ele>213.0</ele><time>2026-04-25T09:24:58.002Z</time></trkpt><trkpt lat="40.6655533" lon="15.0366567"><ele>213.0</ele><time>2026-04-25T09:24:59.003Z</time></trkpt><trkpt lat="40.66543" lon="15.0366367"><ele>213.0</ele><time>2026-04-25T09:25:00.003Z</time></trkpt><trkpt lat="40.665315" lon="15.0365933"><ele>213.0</ele><time>2026-04-25T09:25:00.995Z</time></trkpt><trkpt lat="40.6652083" lon="15.036555"><ele>213.0</ele><time>2026-04-25T09:25:02.065Z</time></trkpt><trkpt lat="40.6651117" lon="15.03653"><ele>211.33333333333334</ele><time>2026-04-25T09:25:02.994Z</time></trkpt><trkpt lat="40.6650317" lon="15.0365"><ele>209.66666666666669</ele><time>2026-04-25T09:25:03.995Z</time></trkpt><trkpt lat="40.6649467" lon="15.0364967"><ele>208.0</ele><time>2026-04-25T09:25:04.998Z</time></trkpt><trkpt lat="40.664865" lon="15.0364767"><ele>206.33333333333334</ele><time>2026-04-25T09:25:06.002Z</time></trkpt><trkpt lat="40.6647917" lon="15.0364417"><ele>204.66666666666669</ele><time>2026-04-25T09:25:07.003Z</time></trkpt><trkpt lat="40.6647283" lon="15.0364383"><ele>203.0</ele><time>2026-04-25T09:25:08.068Z</time></trkpt><trkpt lat="40.664665" lon="15.0364417"><ele>203.0</ele><time>2026-04-25T09:25:08.997Z</time></trkpt><trkpt lat="40.6645533" lon="15.0364633"><ele>203.0</ele><time>2026-04-25T09:25:11.004Z</time></trkpt><trkpt lat="40.6644433" lon="15.03649"><ele>203.0</ele><time>2026-04-25T09:25:12.999Z</time></trkpt><trkpt lat="40.6643383" lon="15.0364883"><ele>203.0</ele><time>2026-04-25T09:25:14.998Z</time></trkpt><trkpt lat="40.66423" lon="15.0364117"><ele>201.5</ele><time>2026-04-25T09:25:16.999Z</time></trkpt><trkpt lat="40.6640983" lon="15.03634"><ele>200.0</ele><time>2026-04-25T09:25:19.005Z</time></trkpt><trkpt lat="40.6639983" lon="15.0362933"><ele>198.5</ele><time>2026-04-25T09:25:20.051Z</time></trkpt><trkpt lat="40.6639033" lon="15.036245"><ele>197.0</ele><time>2026-04-25T09:25:20.995Z</time></trkpt><trkpt lat="40.6638117" lon="15.0361933"><ele>197.00000000000003</ele><time>2026-04-25T09:25:22.002Z</time></trkpt><trkpt lat="40.6637267" lon="15.03614"><ele>197.0</ele><time>2026-04-25T09:25:23Z</time></trkpt><trkpt lat="40.66365" lon="15.03609"><ele>197.0</ele><time>2026-04-25T09:25:23.999Z</time></trkpt><trkpt lat="40.6635817" lon="15.036065"><ele>197.0</ele><time>2026-04-25T09:25:25Z</time></trkpt><trkpt lat="40.6635183" lon="15.03604"><ele>197.00000000000003</ele><time>2026-04-25T09:25:26.063Z</time></trkpt><trkpt lat="40.663455" lon="15.0360567"><ele>197.0</ele><time>2026-04-25T09:25:26.995Z</time></trkpt><trkpt lat="40.66339" lon="15.036095"><ele>196.0</ele><time>2026-04-25T09:25:27.997Z</time></trkpt><trkpt lat="40.6633317" lon="15.0361467"><ele>195.0</ele><time>2026-04-25T09:25:28.998Z</time></trkpt><trkpt lat="40.66329" lon="15.0362167"><ele>194.0</ele><time>2026-04-25T09:25:30.002Z</time></trkpt><trkpt lat="40.6632433" lon="15.036275"><ele>193.0</ele><time>2026-04-25T09:25:31.006Z</time></trkpt><trkpt lat="40.6631783" lon="15.0363317"><ele>192.0</ele><time>2026-04-25T09:25:32.996Z</time></trkpt><trkpt lat="40.6631367" lon="15.0362283"><ele>191.0</ele><time>2026-04-25T09:25:35.992Z</time></trkpt><trkpt lat="40.6631333" lon="15.0361383"><ele>190.0</ele><time>2026-04-25T09:25:37.001Z</time></trkpt><trkpt lat="40.6630867" lon="15.0360117"><ele>190.0</ele><time>2026-04-25T09:25:38.055Z</time></trkpt><trkpt lat="40.6630383" lon="15.0359067"><ele>190.0</ele><time>2026-04-25T09:25:38.992Z</time></trkpt><trkpt lat="40.6629883" lon="15.0358183"><ele>190.0</ele><time>2026-04-25T09:25:39.993Z</time></trkpt><trkpt lat="40.6629333" lon="15.0357517"><ele>190.0</ele><time>2026-04-25T09:25:41Z</time></trkpt><trkpt lat="40.6628683" lon="15.0356867"><ele>190.0</ele><time>2026-04-25T09:25:41.997Z</time></trkpt><trkpt lat="40.6627933" lon="15.0356333"><ele>190.0</ele><time>2026-04-25T09:25:43.011Z</time></trkpt><trkpt lat="40.662705" lon="15.0356"><ele>187.6</ele><time>2026-04-25T09:25:44.06Z</time></trkpt><trkpt lat="40.6626" lon="15.0356033"><ele>185.2</ele><time>2026-04-25T09:25:44.999Z</time></trkpt><trkpt lat="40.6625167" lon="15.035585"><ele>182.8</ele><time>2026-04-25T09:25:46.002Z</time></trkpt><trkpt lat="40.662435" lon="15.0355567"><ele>180.4</ele><time>2026-04-25T09:25:47.008Z</time></trkpt><trkpt lat="40.6623533" lon="15.0355183"><ele>178.0</ele><time>2026-04-25T09:25:47.999Z</time></trkpt><trkpt lat="40.6622617" lon="15.0354683"><ele>178.0</ele><time>2026-04-25T09:25:48.995Z</time></trkpt><trkpt lat="40.6621717" lon="15.0354367"><ele>178.0</ele><time>2026-04-25T09:25:50.057Z</time></trkpt><trkpt lat="40.6620767" lon="15.0354017"><ele>178.0</ele><time>2026-04-25T09:25:50.993Z</time></trkpt><trkpt lat="40.6619633" lon="15.03539"><ele>178.0</ele><time>2026-04-25T09:25:52Z</time></trkpt><trkpt lat="40.6618433" lon="15.0354017"><ele>178.0</ele><time>2026-04-25T09:25:53Z</time></trkpt><trkpt lat="40.6617183" lon="15.0354033"><ele>178.60000000000002</ele><time>2026-04-25T09:25:54.007Z</time></trkpt><trkpt lat="40.6616" lon="15.0353983"><ele>179.20000000000002</ele><time>2026-04-25T09:25:55.002Z</time></trkpt><trkpt lat="40.6614933" lon="15.035385"><ele>179.8</ele><time>2026-04-25T09:25:56.027Z</time></trkpt><trkpt lat="40.661395" lon="15.0353567"><ele>180.4</ele><time>2026-04-25T09:25:56.999Z</time></trkpt><trkpt lat="40.6613083" lon="15.0353117"><ele>181.0</ele><time>2026-04-25T09:25:57.996Z</time></trkpt><trkpt lat="40.661235" lon="15.0352633"><ele>181.0</ele><time>2026-04-25T09:25:59.002Z</time></trkpt><trkpt lat="40.661165" lon="15.0352"><ele>181.0</ele><time>2026-04-25T09:25:59.997Z</time></trkpt><trkpt lat="40.6610917" lon="15.0351283"><ele>181.0</ele><time>2026-04-25T09:26:01Z</time></trkpt><trkpt lat="40.6610267" lon="15.035045"><ele>181.0</ele><time>2026-04-25T09:26:02.063Z</time></trkpt><trkpt lat="40.6609817" lon="15.0349517"><ele>181.0</ele><time>2026-04-25T09:26:02.997Z</time></trkpt><trkpt lat="40.660945" lon="15.0348533"><ele>181.0</ele><time>2026-04-25T09:26:04.004Z</time></trkpt><trkpt lat="40.6609167" lon="15.0347583"><ele>179.20000000000002</ele><time>2026-04-25T09:26:05.004Z</time></trkpt><trkpt lat="40.6608733" lon="15.0346433"><ele>177.4</ele><time>2026-04-25T09:26:07.002Z</time></trkpt><trkpt lat="40.6608067" lon="15.0346267"><ele>175.6</ele><time>2026-04-25T09:26:08.998Z</time></trkpt><trkpt lat="40.660745" lon="15.0346567"><ele>173.8</ele><time>2026-04-25T09:26:10.996Z</time></trkpt><trkpt lat="40.6607517" lon="15.0345283"><ele>172.0</ele><time>2026-04-25T09:26:17.001Z</time></trkpt><trkpt lat="40.66084" lon="15.0343733"><ele>172.0</ele><time>2026-04-25T09:26:18Z</time></trkpt><trkpt lat="40.660865" lon="15.0342817"><ele>172.0</ele><time>2026-04-25T09:26:19.004Z</time></trkpt><trkpt lat="40.6609017" lon="15.0341533"><ele>172.0</ele><time>2026-04-25T09:26:20.053Z</time></trkpt><trkpt lat="40.660825" lon="15.03406"><ele>172.0</ele><time>2026-04-25T09:26:20.993Z</time></trkpt><trkpt lat="40.660765" lon="15.0339833"><ele>172.0</ele><time>2026-04-25T09:26:21.996Z</time></trkpt><trkpt lat="40.660675" lon="15.033905"><ele>171.0</ele><time>2026-04-25T09:26:23Z</time></trkpt><trkpt lat="40.6605667" lon="15.03381"><ele>170.0</ele><time>2026-04-25T09:26:23.995Z</time></trkpt><trkpt lat="40.66047" lon="15.0336817"><ele>169.0</ele><time>2026-04-25T09:26:25.004Z</time></trkpt><trkpt lat="40.660375" lon="15.03357"><ele>168.0</ele><time>2026-04-25T09:26:26.062Z</time></trkpt><trkpt lat="40.6602917" lon="15.0334817"><ele>167.0</ele><time>2026-04-25T09:26:27Z</time></trkpt><trkpt lat="40.6602083" lon="15.0334033"><ele>166.0</ele><time>2026-04-25T09:26:28Z</time></trkpt><trkpt lat="40.6601333" lon="15.0333133"><ele>165.0</ele><time>2026-04-25T09:26:29.001Z</time></trkpt><trkpt lat="40.6600333" lon="15.033205"><ele>164.0</ele><time>2026-04-25T09:26:29.994Z</time></trkpt><trkpt lat="40.6599267" lon="15.0331183"><ele>164.0</ele><time>2026-04-25T09:26:30.999Z</time></trkpt><trkpt lat="40.6598317" lon="15.0330117"><ele>164.0</ele><time>2026-04-25T09:26:32.062Z</time></trkpt><trkpt lat="40.65976" lon="15.032915"><ele>164.0</ele><time>2026-04-25T09:26:32.999Z</time></trkpt><trkpt lat="40.6596833" lon="15.0328167"><ele>164.0</ele><time>2026-04-25T09:26:34.004Z</time></trkpt><trkpt lat="40.6596233" lon="15.0327183"><ele>164.0</ele><time>2026-04-25T09:26:34.999Z</time></trkpt><trkpt lat="40.6595433" lon="15.0326183"><ele>164.0</ele><time>2026-04-25T09:26:35.991Z</time></trkpt><trkpt lat="40.65947" lon="15.0325233"><ele>164.0</ele><time>2026-04-25T09:26:36.999Z</time></trkpt><trkpt lat="40.6593967" lon="15.032445"><ele>164.0</ele><time>2026-04-25T09:26:38.052Z</time></trkpt><trkpt lat="40.6593283" lon="15.0323933"><ele>164.0</ele><time>2026-04-25T09:26:39.002Z</time></trkpt><trkpt lat="40.6592633" lon="15.03235"><ele>164.0</ele><time>2026-04-25T09:26:40Z</time></trkpt><trkpt lat="40.659175" lon="15.0323233"><ele>164.0</ele><time>2026-04-25T09:26:41.003Z</time></trkpt><trkpt lat="40.6590883" lon="15.0322783"><ele>163.5</ele><time>2026-04-25T09:26:41.997Z</time></trkpt><trkpt lat="40.658985" lon="15.0322417"><ele>163.0</ele><time>2026-04-25T09:26:43.003Z</time></trkpt><trkpt lat="40.6588667" lon="15.032185"><ele>162.5</ele><time>2026-04-25T09:26:44.051Z</time></trkpt><trkpt lat="40.6587" lon="15.032055"><ele>162.0</ele><time>2026-04-25T09:26:44.997Z</time></trkpt><trkpt lat="40.65856" lon="15.03194"><ele>163.75</ele><time>2026-04-25T09:26:46.002Z</time></trkpt><trkpt lat="40.6584333" lon="15.0318417"><ele>165.5</ele><time>2026-04-25T09:26:47.004Z</time></trkpt><trkpt lat="40.658325" lon="15.0317167"><ele>167.25</ele><time>2026-04-25T09:26:47.997Z</time></trkpt><trkpt lat="40.6582217" lon="15.0315917"><ele>169.0</ele><time>2026-04-25T09:26:49.002Z</time></trkpt><trkpt lat="40.6581383" lon="15.031465"><ele>169.0</ele><time>2026-04-25T09:26:50.052Z</time></trkpt><trkpt lat="40.6580717" lon="15.0313367"><ele>169.0</ele><time>2026-04-25T09:26:51Z</time></trkpt><trkpt lat="40.65807" lon="15.0311433"><ele>169.0</ele><time>2026-04-25T09:26:52.002Z</time></trkpt><trkpt lat="40.65806" lon="15.0309883"><ele>169.0</ele><time>2026-04-25T09:26:52.997Z</time></trkpt><trkpt lat="40.6580733" lon="15.0308417"><ele>166.79999999999998</ele><time>2026-04-25T09:26:54.004Z</time></trkpt><trkpt lat="40.6581" lon="15.0307"><ele>164.6</ele><time>2026-04-25T09:26:55.002Z</time></trkpt><trkpt lat="40.6580917" lon="15.03057"><ele>162.4</ele><time>2026-04-25T09:26:56.063Z</time></trkpt><trkpt lat="40.658" lon="15.0305267"><ele>160.2</ele><time>2026-04-25T09:26:56.992Z</time></trkpt><trkpt lat="40.6579367" lon="15.0304317"><ele>158.0</ele><time>2026-04-25T09:26:57.994Z</time></trkpt><trkpt lat="40.657855" lon="15.0303367"><ele>157.5</ele><time>2026-04-25T09:26:58.998Z</time></trkpt><trkpt lat="40.6577483" lon="15.030225"><ele>157.0</ele><time>2026-04-25T09:27:00.007Z</time></trkpt><trkpt lat="40.6576467" lon="15.0301067"><ele>156.5</ele><time>2026-04-25T09:27:01.002Z</time></trkpt><trkpt lat="40.6575667" lon="15.0299917"><ele>156.0</ele><time>2026-04-25T09:27:02.064Z</time></trkpt><trkpt lat="40.6574933" lon="15.02988"><ele>156.0</ele><time>2026-04-25T09:27:02.995Z</time></trkpt><trkpt lat="40.6574367" lon="15.0297583"><ele>156.0</ele><time>2026-04-25T09:27:04.001Z</time></trkpt><trkpt lat="40.6574283" lon="15.02963"><ele>156.0</ele><time>2026-04-25T09:27:05.004Z</time></trkpt><trkpt lat="40.65746" lon="15.0295067"><ele>156.0</ele><time>2026-04-25T09:27:06.003Z</time></trkpt><trkpt lat="40.65751" lon="15.0293683"><ele>156.0</ele><time>2026-04-25T09:27:07.002Z</time></trkpt><trkpt lat="40.6575617" lon="15.0292133"><ele>155.4</ele><time>2026-04-25T09:27:08.05Z</time></trkpt><trkpt lat="40.657595" lon="15.0290733"><ele>154.8</ele><time>2026-04-25T09:27:08.998Z</time></trkpt><trkpt lat="40.6576183" lon="15.0289483"><ele>154.20000000000002</ele><time>2026-04-25T09:27:09.995Z</time></trkpt><trkpt lat="40.6576133" lon="15.02883"><ele>153.6</ele><time>2026-04-25T09:27:10.999Z</time></trkpt><trkpt lat="40.6575717" lon="15.0287033"><ele>153.0</ele><time>2026-04-25T09:27:12.002Z</time></trkpt><trkpt lat="40.6574167" lon="15.028565"><ele>153.0</ele><time>2026-04-25T09:27:13.002Z</time></trkpt><trkpt lat="40.65729" lon="15.0284283"><ele>153.0</ele><time>2026-04-25T09:27:14.053Z</time></trkpt><trkpt lat="40.65714" lon="15.0283"><ele>153.0</ele><time>2026-04-25T09:27:14.996Z</time></trkpt><trkpt lat="40.6569867" lon="15.0281933"><ele>152.33333333333334</ele><time>2026-04-25T09:27:15.998Z</time></trkpt><trkpt lat="40.6568317" lon="15.0281017"><ele>151.66666666666669</ele><time>2026-04-25T09:27:17.008Z</time></trkpt><trkpt lat="40.65669" lon="15.0280467"><ele>151.0</ele><time>2026-04-25T09:27:18.005Z</time></trkpt><trkpt lat="40.656555" lon="15.0280083"><ele>151.0</ele><time>2026-04-25T09:27:19.004Z</time></trkpt><trkpt lat="40.6564367" lon="15.0279617"><ele>151.0</ele><time>2026-04-25T09:27:20.052Z</time></trkpt><trkpt lat="40.656345" lon="15.0279233"><ele>151.0</ele><time>2026-04-25T09:27:20.998Z</time></trkpt><trkpt lat="40.6562867" lon="15.0278883"><ele>151.0</ele><time>2026-04-25T09:27:22.001Z</time></trkpt><trkpt lat="40.6562" lon="15.0279917"><ele>151.0</ele><time>2026-04-25T09:27:24.999Z</time></trkpt><trkpt lat="40.6561533" lon="15.0280833"><ele>150.8</ele><time>2026-04-25T09:27:26.074Z</time></trkpt><trkpt lat="40.6560933" lon="15.0281783"><ele>150.6</ele><time>2026-04-25T09:27:26.994Z</time></trkpt><trkpt lat="40.6560267" lon="15.0282817"><ele>150.4</ele><time>2026-04-25T09:27:27.993Z</time></trkpt><trkpt lat="40.6559417" lon="15.0283833"><ele>150.2</ele><time>2026-04-25T09:27:28.996Z</time></trkpt><trkpt lat="40.655845" lon="15.0284883"><ele>150.0</ele><time>2026-04-25T09:27:29.998Z</time></trkpt><trkpt lat="40.6557517" lon="15.0286067"><ele>151.66666666666666</ele><time>2026-04-25T09:27:31.003Z</time></trkpt><trkpt lat="40.65565" lon="15.028745"><ele>153.33333333333331</ele><time>2026-04-25T09:27:32.066Z</time></trkpt><trkpt lat="40.65554" lon="15.02889"><ele>155.0</ele><time>2026-04-25T09:27:32.994Z</time></trkpt><trkpt lat="40.655445" lon="15.0290783"><ele>157.75</ele><time>2026-04-25T09:27:33.991Z</time></trkpt><trkpt lat="40.6553617" lon="15.02925"><ele>160.5</ele><time>2026-04-25T09:27:34.996Z</time></trkpt><trkpt lat="40.6552983" lon="15.0294067"><ele>163.25</ele><time>2026-04-25T09:27:35.992Z</time></trkpt><trkpt lat="40.6552567" lon="15.0295483"><ele>166.0</ele><time>2026-04-25T09:27:36.997Z</time></trkpt><trkpt lat="40.65522" lon="15.0296867"><ele>167.0</ele><time>2026-04-25T09:27:38.051Z</time></trkpt><trkpt lat="40.6552" lon="15.0298033"><ele>168.0</ele><time>2026-04-25T09:27:38.993Z</time></trkpt><trkpt lat="40.65521" lon="15.0299033"><ele>169.0</ele><time>2026-04-25T09:27:39.996Z</time></trkpt><trkpt lat="40.6552333" lon="15.0300017"><ele>170.0</ele><time>2026-04-25T09:27:41Z</time></trkpt><trkpt lat="40.6552533" lon="15.0300933"><ele>171.0</ele><time>2026-04-25T09:27:41.997Z</time></trkpt><trkpt lat="40.65526" lon="15.0302533"><ele>172.0</ele><time>2026-04-25T09:27:44.062Z</time></trkpt><trkpt lat="40.6552367" lon="15.0303417"><ele>175.39999999999998</ele><time>2026-04-25T09:27:45.004Z</time></trkpt><trkpt lat="40.6552017" lon="15.03042"><ele>178.79999999999998</ele><time>2026-04-25T09:27:46.003Z</time></trkpt><trkpt lat="40.6551417" lon="15.0305233"><ele>182.2</ele><time>2026-04-25T09:27:47.002Z</time></trkpt><trkpt lat="40.6550667" lon="15.0306217"><ele>185.6</ele><time>2026-04-25T09:27:48.005Z</time></trkpt><trkpt lat="40.65499" lon="15.0307017"><ele>189.0</ele><time>2026-04-25T09:27:49.001Z</time></trkpt><trkpt lat="40.6549083" lon="15.03075"><ele>189.0</ele><time>2026-04-25T09:27:50.051Z</time></trkpt><trkpt lat="40.6548283" lon="15.0307467"><ele>189.0</ele><time>2026-04-25T09:27:50.997Z</time></trkpt><trkpt lat="40.6547433" lon="15.0307017"><ele>189.0</ele><time>2026-04-25T09:27:51.996Z</time></trkpt><trkpt lat="40.6546633" lon="15.03069"><ele>189.0</ele><time>2026-04-25T09:27:52.998Z</time></trkpt><trkpt lat="40.654595" lon="15.0306983"><ele>189.0</ele><time>2026-04-25T09:27:53.995Z</time></trkpt><trkpt lat="40.6545583" lon="15.0307833"><ele>189.0</ele><time>2026-04-25T09:27:55Z</time></trkpt><trkpt lat="40.6545317" lon="15.0308867"><ele>193.2</ele><time>2026-04-25T09:27:56.061Z</time></trkpt><trkpt lat="40.6545" lon="15.0309783"><ele>197.39999999999998</ele><time>2026-04-25T09:27:56.998Z</time></trkpt><trkpt lat="40.65445" lon="15.0310667"><ele>201.6</ele><time>2026-04-25T09:27:57.991Z</time></trkpt><trkpt lat="40.6543867" lon="15.03115"><ele>205.8</ele><time>2026-04-25T09:27:59.003Z</time></trkpt><trkpt lat="40.6543033" lon="15.0312233"><ele>210.0</ele><time>2026-04-25T09:28:00.001Z</time></trkpt><trkpt lat="40.65421" lon="15.0312867"><ele>212.0</ele><time>2026-04-25T09:28:00.997Z</time></trkpt><trkpt lat="40.6540817" lon="15.0313433"><ele>214.0</ele><time>2026-04-25T09:28:02.064Z</time></trkpt><trkpt lat="40.6539333" lon="15.031395"><ele>216.0</ele><time>2026-04-25T09:28:02.995Z</time></trkpt><trkpt lat="40.6537883" lon="15.0314283"><ele>218.0</ele><time>2026-04-25T09:28:03.998Z</time></trkpt><trkpt lat="40.65368" lon="15.03147"><ele>219.8</ele><time>2026-04-25T09:28:04.998Z</time></trkpt><trkpt lat="40.6535667" lon="15.0315117"><ele>221.60000000000002</ele><time>2026-04-25T09:28:05.997Z</time></trkpt><trkpt lat="40.6534767" lon="15.0315833"><ele>223.39999999999998</ele><time>2026-04-25T09:28:06.994Z</time></trkpt><trkpt lat="40.6533867" lon="15.0316267"><ele>225.2</ele><time>2026-04-25T09:28:08.053Z</time></trkpt><trkpt lat="40.653305" lon="15.0316583"><ele>227.0</ele><time>2026-04-25T09:28:09.001Z</time></trkpt><trkpt lat="40.6532033" lon="15.031655"><ele>231.0</ele><time>2026-04-25T09:28:09.995Z</time></trkpt><trkpt lat="40.6530867" lon="15.0316617"><ele>235.0</ele><time>2026-04-25T09:28:10.997Z</time></trkpt><trkpt lat="40.6529567" lon="15.0316517"><ele>239.0</ele><time>2026-04-25T09:28:11.998Z</time></trkpt><trkpt lat="40.6528383" lon="15.0316633"><ele>243.0</ele><time>2026-04-25T09:28:12.997Z</time></trkpt><trkpt lat="40.65274" lon="15.031715"><ele>243.0</ele><time>2026-04-25T09:28:14.056Z</time></trkpt><trkpt lat="40.6526517" lon="15.03177"><ele>243.0</ele><time>2026-04-25T09:28:15.003Z</time></trkpt><trkpt lat="40.6525767" lon="15.03184"><ele>243.0</ele><time>2026-04-25T09:28:15.996Z</time></trkpt><trkpt lat="40.6525067" lon="15.031895"><ele>243.0</ele><time>2026-04-25T09:28:17.004Z</time></trkpt><trkpt lat="40.6524233" lon="15.0319383"><ele>243.0</ele><time>2026-04-25T09:28:17.998Z</time></trkpt><trkpt lat="40.6523317" lon="15.031975"><ele>243.0</ele><time>2026-04-25T09:28:19Z</time></trkpt><trkpt lat="40.6522233" lon="15.0320067"><ele>243.0</ele><time>2026-04-25T09:28:20.047Z</time></trkpt><trkpt lat="40.6521033" lon="15.032055"><ele>243.0</ele><time>2026-04-25T09:28:20.999Z</time></trkpt><trkpt lat="40.6519733" lon="15.0321017"><ele>243.0</ele><time>2026-04-25T09:28:22.005Z</time></trkpt><trkpt lat="40.6518767" lon="15.0321833"><ele>244.75</ele><time>2026-04-25T09:28:23.001Z</time></trkpt><trkpt lat="40.6517917" lon="15.03227"><ele>246.5</ele><time>2026-04-25T09:28:23.999Z</time></trkpt><trkpt lat="40.65173" lon="15.0324083"><ele>248.25</ele><time>2026-04-25T09:28:24.993Z</time></trkpt><trkpt lat="40.6516733" lon="15.0325683"><ele>250.0</ele><time>2026-04-25T09:28:26.032Z</time></trkpt><trkpt lat="40.6516167" lon="15.03273"><ele>252.0</ele><time>2026-04-25T09:28:26.991Z</time></trkpt><trkpt lat="40.6515583" lon="15.0328783"><ele>254.0</ele><time>2026-04-25T09:28:28.007Z</time></trkpt><trkpt lat="40.6514933" lon="15.03301"><ele>256.0</ele><time>2026-04-25T09:28:28.997Z</time></trkpt><trkpt lat="40.6514283" lon="15.0331383"><ele>258.0</ele><time>2026-04-25T09:28:29.993Z</time></trkpt><trkpt lat="40.6513917" lon="15.0332767"><ele>260.5</ele><time>2026-04-25T09:28:31.002Z</time></trkpt><trkpt lat="40.6513633" lon="15.03342"><ele>263.0</ele><time>2026-04-25T09:28:32.06Z</time></trkpt><trkpt lat="40.6513417" lon="15.0335767"><ele>265.5</ele><time>2026-04-25T09:28:32.996Z</time></trkpt><trkpt lat="40.65133" lon="15.0337533"><ele>268.0</ele><time>2026-04-25T09:28:34Z</time></trkpt><trkpt lat="40.6513233" lon="15.03395"><ele>271.25</ele><time>2026-04-25T09:28:35.001Z</time></trkpt><trkpt lat="40.6513283" lon="15.0341417"><ele>274.5</ele><time>2026-04-25T09:28:35.995Z</time></trkpt><trkpt lat="40.65134" lon="15.0343367"><ele>277.75</ele><time>2026-04-25T09:28:36.998Z</time></trkpt><trkpt lat="40.6513667" lon="15.034515"><ele>281.0</ele><time>2026-04-25T09:28:38.056Z</time></trkpt><trkpt lat="40.6513983" lon="15.03467"><ele>281.0</ele><time>2026-04-25T09:28:39.002Z</time></trkpt><trkpt lat="40.6514317" lon="15.0348267"><ele>281.0</ele><time>2026-04-25T09:28:40.006Z</time></trkpt><trkpt lat="40.651465" lon="15.034985"><ele>281.0</ele><time>2026-04-25T09:28:41.006Z</time></trkpt><trkpt lat="40.651495" lon="15.03515"><ele>281.0</ele><time>2026-04-25T09:28:42Z</time></trkpt><trkpt lat="40.651525" lon="15.0353117"><ele>284.25</ele><time>2026-04-25T09:28:43.004Z</time></trkpt><trkpt lat="40.6515517" lon="15.0354617"><ele>287.5</ele><time>2026-04-25T09:28:44.051Z</time></trkpt><trkpt lat="40.6515667" lon="15.03562"><ele>290.75</ele><time>2026-04-25T09:28:44.994Z</time></trkpt><trkpt lat="40.6515817" lon="15.0357783"><ele>294.0</ele><time>2026-04-25T09:28:46.001Z</time></trkpt><trkpt lat="40.6516" lon="15.0359333"><ele>296.25</ele><time>2026-04-25T09:28:47.003Z</time></trkpt><trkpt lat="40.65163" lon="15.036075"><ele>298.5</ele><time>2026-04-25T09:28:48Z</time></trkpt><trkpt lat="40.6516783" lon="15.0362033"><ele>300.75</ele><time>2026-04-25T09:28:49.003Z</time></trkpt><trkpt lat="40.6517583" lon="15.0363133"><ele>303.0</ele><time>2026-04-25T09:28:50.057Z</time></trkpt><trkpt lat="40.65185" lon="15.0364233"><ele>303.0</ele><time>2026-04-25T09:28:50.996Z</time></trkpt><trkpt lat="40.65194" lon="15.0365283"><ele>303.0</ele><time>2026-04-25T09:28:51.995Z</time></trkpt><trkpt lat="40.6520267" lon="15.0366183"><ele>303.0</ele><time>2026-04-25T09:28:53.007Z</time></trkpt><trkpt lat="40.65213" lon="15.0366717"><ele>303.0</ele><time>2026-04-25T09:28:54.004Z</time></trkpt><trkpt lat="40.65224" lon="15.0367233"><ele>306.8</ele><time>2026-04-25T09:28:55.004Z</time></trkpt><trkpt lat="40.6523517" lon="15.0367917"><ele>310.6</ele><time>2026-04-25T09:28:56.064Z</time></trkpt><trkpt lat="40.652445" lon="15.036875"><ele>314.40000000000003</ele><time>2026-04-25T09:28:56.997Z</time></trkpt><trkpt lat="40.6525217" lon="15.0369783"><ele>318.20000000000005</ele><time>2026-04-25T09:28:58.002Z</time></trkpt><trkpt lat="40.6525833" lon="15.0370883"><ele>322.0</ele><time>2026-04-25T09:28:58.997Z</time></trkpt><trkpt lat="40.6526217" lon="15.0372117"><ele>322.0</ele><time>2026-04-25T09:28:59.996Z</time></trkpt><trkpt lat="40.652615" lon="15.037395"><ele>322.0</ele><time>2026-04-25T09:29:01.01Z</time></trkpt><trkpt lat="40.65263" lon="15.0375683"><ele>322.0</ele><time>2026-04-25T09:29:02.062Z</time></trkpt><trkpt lat="40.6526367" lon="15.0377417"><ele>322.0</ele><time>2026-04-25T09:29:02.997Z</time></trkpt><trkpt lat="40.6526367" lon="15.037895"><ele>322.0</ele><time>2026-04-25T09:29:04.001Z</time></trkpt><trkpt lat="40.6526283" lon="15.03803"><ele>322.0</ele><time>2026-04-25T09:29:04.995Z</time></trkpt><trkpt lat="40.652595" lon="15.03815"><ele>322.0</ele><time>2026-04-25T09:29:05.995Z</time></trkpt><trkpt lat="40.6525367" lon="15.038255"><ele>322.0</ele><time>2026-04-25T09:29:07.001Z</time></trkpt><trkpt lat="40.6524467" lon="15.0383617"><ele>322.0</ele><time>2026-04-25T09:29:08.054Z</time></trkpt><trkpt lat="40.652345" lon="15.03849"><ele>323.0</ele><time>2026-04-25T09:29:09.002Z</time></trkpt><trkpt lat="40.6522533" lon="15.0386217"><ele>324.0</ele><time>2026-04-25T09:29:10.003Z</time></trkpt><trkpt lat="40.652165" lon="15.0387467"><ele>325.0</ele><time>2026-04-25T09:29:10.995Z</time></trkpt><trkpt lat="40.6520833" lon="15.0388417"><ele>326.0</ele><time>2026-04-25T09:29:11.993Z</time></trkpt><trkpt lat="40.6520217" lon="15.038865"><ele>327.0</ele><time>2026-04-25T09:29:13.002Z</time></trkpt><trkpt lat="40.6519483" lon="15.0388767"><ele>327.0</ele><time>2026-04-25T09:29:14.993Z</time></trkpt><trkpt lat="40.6518217" lon="15.0389167"><ele>327.0</ele><time>2026-04-25T09:29:20.048Z</time></trkpt><trkpt lat="40.6517233" lon="15.0389617"><ele>327.0</ele><time>2026-04-25T09:29:20.992Z</time></trkpt><trkpt lat="40.65162" lon="15.03901"><ele>327.0</ele><time>2026-04-25T09:29:21.995Z</time></trkpt><trkpt lat="40.6515183" lon="15.0390667"><ele>327.0</ele><time>2026-04-25T09:29:23.001Z</time></trkpt><trkpt lat="40.6514233" lon="15.039125"><ele>327.0</ele><time>2026-04-25T09:29:23.995Z</time></trkpt><trkpt lat="40.6513417" lon="15.0391983"><ele>327.0</ele><time>2026-04-25T09:29:24.999Z</time></trkpt><trkpt lat="40.6512683" lon="15.039285"><ele>327.0</ele><time>2026-04-25T09:29:26.057Z</time></trkpt><trkpt lat="40.6512017" lon="15.039395"><ele>327.0</ele><time>2026-04-25T09:29:26.992Z</time></trkpt><trkpt lat="40.65114" lon="15.0395183"><ele>329.5</ele><time>2026-04-25T09:29:28Z</time></trkpt><trkpt lat="40.6510917" lon="15.0396683"><ele>332.0</ele><time>2026-04-25T09:29:29Z</time></trkpt><trkpt lat="40.6510567" lon="15.0398483"><ele>334.5</ele><time>2026-04-25T09:29:30Z</time></trkpt><trkpt lat="40.6510217" lon="15.0400083"><ele>337.0</ele><time>2026-04-25T09:29:31Z</time></trkpt><trkpt lat="40.650985" lon="15.0401417"><ele>339.6</ele><time>2026-04-25T09:29:32.063Z</time></trkpt><trkpt lat="40.6509483" lon="15.0402633"><ele>342.20000000000005</ele><time>2026-04-25T09:29:32.995Z</time></trkpt><trkpt lat="40.6508933" lon="15.0403667"><ele>344.8</ele><time>2026-04-25T09:29:34.004Z</time></trkpt><trkpt lat="40.6508233" lon="15.040455"><ele>347.4</ele><time>2026-04-25T09:29:34.999Z</time></trkpt><trkpt lat="40.650735" lon="15.040515"><ele>350.0</ele><time>2026-04-25T09:29:35.994Z</time></trkpt><trkpt lat="40.65065" lon="15.0405533"><ele>350.0</ele><time>2026-04-25T09:29:37.004Z</time></trkpt><trkpt lat="40.6505767" lon="15.040605"><ele>350.0</ele><time>2026-04-25T09:29:38.048Z</time></trkpt><trkpt lat="40.6505067" lon="15.040655"><ele>350.0</ele><time>2026-04-25T09:29:38.999Z</time></trkpt><trkpt lat="40.65045" lon="15.040695"><ele>350.0</ele><time>2026-04-25T09:29:39.999Z</time></trkpt><trkpt lat="40.650475" lon="15.04083"><ele>350.0</ele><time>2026-04-25T09:29:41.995Z</time></trkpt><trkpt lat="40.6504717" lon="15.0409183"><ele>350.0</ele><time>2026-04-25T09:29:43Z</time></trkpt><trkpt lat="40.650475" lon="15.041035"><ele>352.4</ele><time>2026-04-25T09:29:44.049Z</time></trkpt><trkpt lat="40.6504733" lon="15.041175"><ele>354.8</ele><time>2026-04-25T09:29:44.993Z</time></trkpt><trkpt lat="40.6504617" lon="15.041315"><ele>357.20000000000005</ele><time>2026-04-25T09:29:45.994Z</time></trkpt><trkpt lat="40.6504467" lon="15.0414417"><ele>359.6</ele><time>2026-04-25T09:29:47.002Z</time></trkpt><trkpt lat="40.6503983" lon="15.0415033"><ele>362.0</ele><time>2026-04-25T09:29:47.991Z</time></trkpt><trkpt lat="40.6503067" lon="15.0415683"><ele>365.0</ele><time>2026-04-25T09:29:50.047Z</time></trkpt><trkpt lat="40.6502067" lon="15.0415167"><ele>368.0</ele><time>2026-04-25T09:29:50.995Z</time></trkpt><trkpt lat="40.6501233" lon="15.04146"><ele>371.0</ele><time>2026-04-25T09:29:51.993Z</time></trkpt><trkpt lat="40.6500433" lon="15.04138"><ele>374.0</ele><time>2026-04-25T09:29:53Z</time></trkpt><trkpt lat="40.6499667" lon="15.0412717"><ele>377.0</ele><time>2026-04-25T09:29:53.998Z</time></trkpt><trkpt lat="40.6498817" lon="15.0411317"><ele>377.0</ele><time>2026-04-25T09:29:54.998Z</time></trkpt><trkpt lat="40.6497967" lon="15.0409833"><ele>377.0</ele><time>2026-04-25T09:29:56.057Z</time></trkpt><trkpt lat="40.6497133" lon="15.04085"><ele>377.0</ele><time>2026-04-25T09:29:56.994Z</time></trkpt><trkpt lat="40.6496383" lon="15.0407367"><ele>377.0</ele><time>2026-04-25T09:29:57.996Z</time></trkpt><trkpt lat="40.6495783" lon="15.0406783"><ele>377.5</ele><time>2026-04-25T09:29:58.998Z</time></trkpt><trkpt lat="40.64951" lon="15.0406383"><ele>378.0</ele><time>2026-04-25T09:29:59.995Z</time></trkpt><trkpt lat="40.649455" lon="15.0406833"><ele>378.5</ele><time>2026-04-25T09:30:00.993Z</time></trkpt><trkpt lat="40.6493917" lon="15.040745"><ele>379.0</ele><time>2026-04-25T09:30:02.059Z</time></trkpt><trkpt lat="40.6493217" lon="15.0408317"><ele>379.5</ele><time>2026-04-25T09:30:02.994Z</time></trkpt><trkpt lat="40.6492217" lon="15.0409517"><ele>380.0</ele><time>2026-04-25T09:30:03.993Z</time></trkpt><trkpt lat="40.6491283" lon="15.0410583"><ele>380.0</ele><time>2026-04-25T09:30:05.002Z</time></trkpt><trkpt lat="40.649035" lon="15.041175"><ele>380.0</ele><time>2026-04-25T09:30:05.999Z</time></trkpt><trkpt lat="40.6489517" lon="15.0413033"><ele>380.0</ele><time>2026-04-25T09:30:06.997Z</time></trkpt><trkpt lat="40.6488767" lon="15.0414433"><ele>380.0</ele><time>2026-04-25T09:30:08.047Z</time></trkpt><trkpt lat="40.6488067" lon="15.04157"><ele>383.2</ele><time>2026-04-25T09:30:08.995Z</time></trkpt><trkpt lat="40.648725" lon="15.0416683"><ele>386.4</ele><time>2026-04-25T09:30:10.003Z</time></trkpt><trkpt lat="40.6486467" lon="15.041755"><ele>389.6</ele><time>2026-04-25T09:30:10.994Z</time></trkpt><trkpt lat="40.6485767" lon="15.0418383"><ele>392.8</ele><time>2026-04-25T09:30:12.006Z</time></trkpt><trkpt lat="40.6485233" lon="15.0419367"><ele>396.0</ele><time>2026-04-25T09:30:12.998Z</time></trkpt><trkpt lat="40.6485383" lon="15.0420567"><ele>396.1666666666667</ele><time>2026-04-25T09:30:14.053Z</time></trkpt><trkpt lat="40.6485433" lon="15.0421717"><ele>396.33333333333337</ele><time>2026-04-25T09:30:14.992Z</time></trkpt><trkpt lat="40.64854" lon="15.0422783"><ele>396.5</ele><time>2026-04-25T09:30:15.994Z</time></trkpt><trkpt lat="40.6485317" lon="15.0423633"><ele>396.6666666666667</ele><time>2026-04-25T09:30:16.998Z</time></trkpt><trkpt lat="40.648425" lon="15.0423017"><ele>396.83333333333337</ele><time>2026-04-25T09:30:20.049Z</time></trkpt><trkpt lat="40.6483683" lon="15.04225"><ele>397.0</ele><time>2026-04-25T09:30:20.994Z</time></trkpt><trkpt lat="40.6482883" lon="15.042225"><ele>397.00000000000006</ele><time>2026-04-25T09:30:23.005Z</time></trkpt><trkpt lat="40.648275" lon="15.0423433"><ele>397.0</ele><time>2026-04-25T09:30:24.994Z</time></trkpt><trkpt lat="40.6482783" lon="15.0424483"><ele>397.0</ele><time>2026-04-25T09:30:26.061Z</time></trkpt><trkpt lat="40.6482833" lon="15.0425617"><ele>397.0</ele><time>2026-04-25T09:30:26.995Z</time></trkpt><trkpt lat="40.6482767" lon="15.04267"><ele>397.00000000000006</ele><time>2026-04-25T09:30:27.998Z</time></trkpt><trkpt lat="40.6482483" lon="15.0427517"><ele>397.0</ele><time>2026-04-25T09:30:29.001Z</time></trkpt><trkpt lat="40.6481917" lon="15.0428233"><ele>399.1428571428571</ele><time>2026-04-25T09:30:29.995Z</time></trkpt><trkpt lat="40.6481367" lon="15.0429117"><ele>401.2857142857143</ele><time>2026-04-25T09:30:30.996Z</time></trkpt><trkpt lat="40.6480817" lon="15.0429933"><ele>403.42857142857144</ele><time>2026-04-25T09:30:32.055Z</time></trkpt><trkpt lat="40.6480317" lon="15.0430717"><ele>405.57142857142856</ele><time>2026-04-25T09:30:32.994Z</time></trkpt><trkpt lat="40.6480033" lon="15.0431483"><ele>407.7142857142857</ele><time>2026-04-25T09:30:33.995Z</time></trkpt><trkpt lat="40.64799" lon="15.0432317"><ele>409.85714285714283</ele><time>2026-04-25T09:30:35Z</time></trkpt><trkpt lat="40.64796" lon="15.0433117"><ele>412.0</ele><time>2026-04-25T09:30:35.995Z</time></trkpt><trkpt lat="40.647905" lon="15.0434383"><ele>413.40000000000003</ele><time>2026-04-25T09:30:38.055Z</time></trkpt><trkpt lat="40.6477983" lon="15.043505"><ele>414.8</ele><time>2026-04-25T09:30:39.993Z</time></trkpt><trkpt lat="40.6477167" lon="15.043515"><ele>416.2</ele><time>2026-04-25T09:30:40.998Z</time></trkpt><trkpt lat="40.647625" lon="15.0435067"><ele>417.6</ele><time>2026-04-25T09:30:41.999Z</time></trkpt><trkpt lat="40.6475283" lon="15.04349"><ele>419.0</ele><time>2026-04-25T09:30:42.998Z</time></trkpt><trkpt lat="40.6474367" lon="15.043485"><ele>419.0</ele><time>2026-04-25T09:30:44.052Z</time></trkpt><trkpt lat="40.6473467" lon="15.04349"><ele>419.0</ele><time>2026-04-25T09:30:44.991Z</time></trkpt><trkpt lat="40.6472683" lon="15.0435183"><ele>419.0</ele><time>2026-04-25T09:30:46.005Z</time></trkpt><trkpt lat="40.647205" lon="15.043535"><ele>419.0</ele><time>2026-04-25T09:30:46.997Z</time></trkpt><trkpt lat="40.6471" lon="15.0435317"><ele>419.0</ele><time>2026-04-25T09:30:49.004Z</time></trkpt><trkpt lat="40.6470183" lon="15.0434267"><ele>417.5</ele><time>2026-04-25T09:30:50.991Z</time></trkpt><trkpt lat="40.6470233" lon="15.043195"><ele>416.0</ele><time>2026-04-25T09:30:51.997Z</time></trkpt><trkpt lat="40.6469767" lon="15.0430783"><ele>414.5</ele><time>2026-04-25T09:30:52.995Z</time></trkpt><trkpt lat="40.6469267" lon="15.0429583"><ele>413.0</ele><time>2026-04-25T09:30:53.995Z</time></trkpt><trkpt lat="40.646865" lon="15.04284"><ele>414.5</ele><time>2026-04-25T09:30:55Z</time></trkpt><trkpt lat="40.6467967" lon="15.0427267"><ele>416.0</ele><time>2026-04-25T09:30:56.059Z</time></trkpt><trkpt lat="40.6467133" lon="15.0426283"><ele>417.5</ele><time>2026-04-25T09:30:56.992Z</time></trkpt><trkpt lat="40.6466117" lon="15.0425333"><ele>419.0</ele><time>2026-04-25T09:30:57.993Z</time></trkpt><trkpt lat="40.646505" lon="15.0424417"><ele>419.0</ele><time>2026-04-25T09:30:58.995Z</time></trkpt><trkpt lat="40.6463783" lon="15.04235"><ele>419.0</ele><time>2026-04-25T09:30:59.999Z</time></trkpt><trkpt lat="40.6462483" lon="15.0422667"><ele>419.0</ele><time>2026-04-25T09:31:01.003Z</time></trkpt><trkpt lat="40.6461233" lon="15.0421883"><ele>419.0</ele><time>2026-04-25T09:31:02.061Z</time></trkpt><trkpt lat="40.646" lon="15.0421333"><ele>420.25</ele><time>2026-04-25T09:31:02.995Z</time></trkpt><trkpt lat="40.6458717" lon="15.042095"><ele>421.5</ele><time>2026-04-25T09:31:03.996Z</time></trkpt><trkpt lat="40.6457483" lon="15.0420617"><ele>422.75</ele><time>2026-04-25T09:31:04.997Z</time></trkpt><trkpt lat="40.6456317" lon="15.042025"><ele>424.0</ele><time>2026-04-25T09:31:05.997Z</time></trkpt><trkpt lat="40.6455067" lon="15.041995"><ele>424.0</ele><time>2026-04-25T09:31:06.989Z</time></trkpt><trkpt lat="40.6453867" lon="15.041975"><ele>424.0</ele><time>2026-04-25T09:31:08.045Z</time></trkpt><trkpt lat="40.6452633" lon="15.041975"><ele>424.0</ele><time>2026-04-25T09:31:08.997Z</time></trkpt><trkpt lat="40.6451567" lon="15.04201"><ele>424.0</ele><time>2026-04-25T09:31:09.998Z</time></trkpt><trkpt lat="40.6450583" lon="15.042085"><ele>427.6666666666667</ele><time>2026-04-25T09:31:11.001Z</time></trkpt><trkpt lat="40.6449517" lon="15.0421833"><ele>431.33333333333337</ele><time>2026-04-25T09:31:11.995Z</time></trkpt><trkpt lat="40.64484" lon="15.0423267"><ele>435.0</ele><time>2026-04-25T09:31:12.999Z</time></trkpt><trkpt lat="40.644705" lon="15.0424883"><ele>441.33333333333337</ele><time>2026-04-25T09:31:14.049Z</time></trkpt><trkpt lat="40.6445717" lon="15.042645"><ele>447.6666666666667</ele><time>2026-04-25T09:31:14.996Z</time></trkpt><trkpt lat="40.6444433" lon="15.04278"><ele>454.0</ele><time>2026-04-25T09:31:16.002Z</time></trkpt><trkpt lat="40.64432" lon="15.0429067"><ele>457.75</ele><time>2026-04-25T09:31:16.997Z</time></trkpt><trkpt lat="40.6441983" lon="15.0430233"><ele>461.5</ele><time>2026-04-25T09:31:17.996Z</time></trkpt><trkpt lat="40.6441017" lon="15.0431167"><ele>465.25</ele><time>2026-04-25T09:31:19.001Z</time></trkpt><trkpt lat="40.6440167" lon="15.0431983"><ele>469.0</ele><time>2026-04-25T09:31:20.053Z</time></trkpt><trkpt lat="40.64394" lon="15.04327"><ele>469.50000000000006</ele><time>2026-04-25T09:31:20.996Z</time></trkpt><trkpt lat="40.6438667" lon="15.0433267"><ele>470.0</ele><time>2026-04-25T09:31:21.997Z</time></trkpt><trkpt lat="40.643795" lon="15.043365"><ele>470.5</ele><time>2026-04-25T09:31:22.998Z</time></trkpt><trkpt lat="40.64374" lon="15.0434067"><ele>471.0</ele><time>2026-04-25T09:31:23.993Z</time></trkpt><trkpt lat="40.6436717" lon="15.0434583"><ele>471.50000000000006</ele><time>2026-04-25T09:31:25.003Z</time></trkpt><trkpt lat="40.6435933" lon="15.04352"><ele>472.0</ele><time>2026-04-25T09:31:26.063Z</time></trkpt><trkpt lat="40.6435233" lon="15.0435867"><ele>469.33333333333337</ele><time>2026-04-25T09:31:26.997Z</time></trkpt><trkpt lat="40.643445" lon="15.0436517"><ele>466.6666666666667</ele><time>2026-04-25T09:31:27.992Z</time></trkpt><trkpt lat="40.643375" lon="15.0437333"><ele>464.0</ele><time>2026-04-25T09:31:28.994Z</time></trkpt><trkpt lat="40.6433217" lon="15.043835"><ele>461.33333333333337</ele><time>2026-04-25T09:31:29.994Z</time></trkpt><trkpt lat="40.643275" lon="15.0439083"><ele>458.6666666666667</ele><time>2026-04-25T09:31:30.999Z</time></trkpt><trkpt lat="40.64327" lon="15.044005"><ele>456.0</ele><time>2026-04-25T09:31:32.066Z</time></trkpt><trkpt lat="40.6432517" lon="15.0441167"><ele>456.20000000000005</ele><time>2026-04-25T09:31:32.997Z</time></trkpt><trkpt lat="40.64324" lon="15.04423"><ele>456.40000000000003</ele><time>2026-04-25T09:31:33.997Z</time></trkpt><trkpt lat="40.6432183" lon="15.0443433"><ele>456.6</ele><time>2026-04-25T09:31:34.999Z</time></trkpt><trkpt lat="40.6431833" lon="15.0444533"><ele>456.8</ele><time>2026-04-25T09:31:35.998Z</time></trkpt><trkpt lat="40.643135" lon="15.04456"><ele>457.0</ele><time>2026-04-25T09:31:37.002Z</time></trkpt><trkpt lat="40.643085" lon="15.04467"><ele>457.00000000000006</ele><time>2026-04-25T09:31:38.044Z</time></trkpt><trkpt lat="40.6430417" lon="15.0447717"><ele>457.0</ele><time>2026-04-25T09:31:38.997Z</time></trkpt><trkpt lat="40.6430183" lon="15.0448717"><ele>457.0</ele><time>2026-04-25T09:31:40Z</time></trkpt><trkpt lat="40.6429983" lon="15.044985"><ele>457.0</ele><time>2026-04-25T09:31:40.991Z</time></trkpt><trkpt lat="40.642985" lon="15.0451"><ele>457.00000000000006</ele><time>2026-04-25T09:31:41.994Z</time></trkpt><trkpt lat="40.642965" lon="15.0452217"><ele>457.0</ele><time>2026-04-25T09:31:42.995Z</time></trkpt><trkpt lat="40.64294" lon="15.0453533"><ele>457.40000000000003</ele><time>2026-04-25T09:31:44.05Z</time></trkpt><trkpt lat="40.6429" lon="15.0454883"><ele>457.80000000000007</ele><time>2026-04-25T09:31:44.993Z</time></trkpt><trkpt lat="40.642855" lon="15.04562"><ele>458.2</ele><time>2026-04-25T09:31:45.996Z</time></trkpt><trkpt lat="40.6428067" lon="15.0457433"><ele>458.6</ele><time>2026-04-25T09:31:46.998Z</time></trkpt><trkpt lat="40.6427583" lon="15.0458683"><ele>459.0</ele><time>2026-04-25T09:31:47.999Z</time></trkpt><trkpt lat="40.6427217" lon="15.0459967"><ele>454.0</ele><time>2026-04-25T09:31:48.999Z</time></trkpt><trkpt lat="40.6426917" lon="15.0461283"><ele>449.0</ele><time>2026-04-25T09:31:50.047Z</time></trkpt><trkpt lat="40.6426667" lon="15.0462533"><ele>444.0</ele><time>2026-04-25T09:31:50.991Z</time></trkpt><trkpt lat="40.642645" lon="15.0463767"><ele>439.0</ele><time>2026-04-25T09:31:51.994Z</time></trkpt><trkpt lat="40.6426267" lon="15.04651"><ele>434.0</ele><time>2026-04-25T09:31:53Z</time></trkpt><trkpt lat="40.6426867" lon="15.0466867"><ele>434.0</ele><time>2026-04-25T09:31:54.001Z</time></trkpt><trkpt lat="40.6427167" lon="15.0468633"><ele>434.0</ele><time>2026-04-25T09:31:55.004Z</time></trkpt><trkpt lat="40.6427783" lon="15.047065"><ele>434.0</ele><time>2026-04-25T09:31:56.063Z</time></trkpt><trkpt lat="40.642825" lon="15.047235"><ele>434.0</ele><time>2026-04-25T09:31:57.001Z</time></trkpt><trkpt lat="40.6428433" lon="15.047405"><ele>433.79999999999995</ele><time>2026-04-25T09:31:58.004Z</time></trkpt><trkpt lat="40.6428817" lon="15.0475667"><ele>433.59999999999997</ele><time>2026-04-25T09:31:58.998Z</time></trkpt><trkpt lat="40.6429033" lon="15.0476833"><ele>433.4</ele><time>2026-04-25T09:31:59.994Z</time></trkpt><trkpt lat="40.6429017" lon="15.0477767"><ele>433.2</ele><time>2026-04-25T09:32:01Z</time></trkpt><trkpt lat="40.6427817" lon="15.0477217"><ele>433.0</ele><time>2026-04-25T09:32:02.058Z</time></trkpt><trkpt lat="40.6426933" lon="15.047735"><ele>433.0</ele><time>2026-04-25T09:32:02.994Z</time></trkpt><trkpt lat="40.6425933" lon="15.047775"><ele>433.0</ele><time>2026-04-25T09:32:03.997Z</time></trkpt><trkpt lat="40.6424867" lon="15.047835"><ele>433.0</ele><time>2026-04-25T09:32:04.998Z</time></trkpt><trkpt lat="40.64237" lon="15.0479083"><ele>433.0</ele><time>2026-04-25T09:32:05.998Z</time></trkpt><trkpt lat="40.642255" lon="15.048005"><ele>433.0</ele><time>2026-04-25T09:32:07.003Z</time></trkpt><trkpt lat="40.6421333" lon="15.0481117"><ele>433.0</ele><time>2026-04-25T09:32:08.055Z</time></trkpt><trkpt lat="40.6420117" lon="15.04821"><ele>433.0</ele><time>2026-04-25T09:32:08.994Z</time></trkpt><trkpt lat="40.6418867" lon="15.0483117"><ele>433.0</ele><time>2026-04-25T09:32:09.998Z</time></trkpt><trkpt lat="40.6417483" lon="15.0484217"><ele>431.33333333333337</ele><time>2026-04-25T09:32:11.006Z</time></trkpt><trkpt lat="40.6416067" lon="15.0485233"><ele>429.66666666666663</ele><time>2026-04-25T09:32:11.994Z</time></trkpt><trkpt lat="40.641455" lon="15.0486033"><ele>428.0</ele><time>2026-04-25T09:32:13Z</time></trkpt><trkpt lat="40.6413217" lon="15.04867"><ele>428.0</ele><time>2026-04-25T09:32:14.057Z</time></trkpt><trkpt lat="40.6412" lon="15.04872"><ele>427.99999999999994</ele><time>2026-04-25T09:32:14.995Z</time></trkpt><trkpt lat="40.6411183" lon="15.048725"><ele>427.99999999999994</ele><time>2026-04-25T09:32:16.006Z</time></trkpt><trkpt lat="40.6410467" lon="15.0486983"><ele>428.0</ele><time>2026-04-25T09:32:16.993Z</time></trkpt><trkpt lat="40.640965" lon="15.0486433"><ele>428.0</ele><time>2026-04-25T09:32:17.998Z</time></trkpt><trkpt lat="40.640845" lon="15.0485067"><ele>426.0</ele><time>2026-04-25T09:32:18.997Z</time></trkpt><trkpt lat="40.6406917" lon="15.04834"><ele>424.0</ele><time>2026-04-25T09:32:20.052Z</time></trkpt><trkpt lat="40.64052" lon="15.048155"><ele>422.0</ele><time>2026-04-25T09:32:20.994Z</time></trkpt><trkpt lat="40.6403367" lon="15.0479483"><ele>420.0</ele><time>2026-04-25T09:32:21.997Z</time></trkpt><trkpt lat="40.6401517" lon="15.0477467"><ele>418.0</ele><time>2026-04-25T09:32:22.999Z</time></trkpt><trkpt lat="40.6399967" lon="15.0475767"><ele>416.0</ele><time>2026-04-25T09:32:24.004Z</time></trkpt><trkpt lat="40.6398717" lon="15.04744"><ele>416.4</ele><time>2026-04-25T09:32:25Z</time></trkpt><trkpt lat="40.6397783" lon="15.0473867"><ele>416.8</ele><time>2026-04-25T09:32:26.063Z</time></trkpt><trkpt lat="40.6396967" lon="15.0473817"><ele>417.2</ele><time>2026-04-25T09:32:27Z</time></trkpt><trkpt lat="40.639605" lon="15.0473967"><ele>417.59999999999997</ele><time>2026-04-25T09:32:27.994Z</time></trkpt><trkpt lat="40.6394933" lon="15.0474283"><ele>418.0</ele><time>2026-04-25T09:32:29Z</time></trkpt><trkpt lat="40.639325" lon="15.0474917"><ele>418.0</ele><time>2026-04-25T09:32:30.004Z</time></trkpt><trkpt lat="40.6391667" lon="15.047545"><ele>418.0</ele><time>2026-04-25T09:32:30.998Z</time></trkpt><trkpt lat="40.6390183" lon="15.047605"><ele>418.0</ele><time>2026-04-25T09:32:32.063Z</time></trkpt><trkpt lat="40.638885" lon="15.0476533"><ele>418.0</ele><time>2026-04-25T09:32:32.996Z</time></trkpt><trkpt lat="40.6387467" lon="15.0476867"><ele>418.0</ele><time>2026-04-25T09:32:33.999Z</time></trkpt><trkpt lat="40.6385883" lon="15.047705"><ele>418.0</ele><time>2026-04-25T09:32:35Z</time></trkpt><trkpt lat="40.6384217" lon="15.0477017"><ele>416.6666666666667</ele><time>2026-04-25T09:32:35.996Z</time></trkpt><trkpt lat="40.6382583" lon="15.0477"><ele>415.33333333333337</ele><time>2026-04-25T09:32:36.999Z</time></trkpt><trkpt lat="40.638105" lon="15.0476933"><ele>414.0</ele><time>2026-04-25T09:32:38.053Z</time></trkpt><trkpt lat="40.63796" lon="15.04767"><ele>414.0</ele><time>2026-04-25T09:32:38.991Z</time></trkpt><trkpt lat="40.6378183" lon="15.0476183"><ele>414.0</ele><time>2026-04-25T09:32:39.992Z</time></trkpt><trkpt lat="40.6376867" lon="15.0475433"><ele>414.0</ele><time>2026-04-25T09:32:40.996Z</time></trkpt><trkpt lat="40.637565" lon="15.0474567"><ele>414.0</ele><time>2026-04-25T09:32:42.006Z</time></trkpt><trkpt lat="40.6374717" lon="15.0473733"><ele>412.1666666666667</ele><time>2026-04-25T09:32:43.002Z</time></trkpt><trkpt lat="40.6374267" lon="15.0473067"><ele>410.33333333333337</ele><time>2026-04-25T09:32:44.049Z</time></trkpt><trkpt lat="40.6373533" lon="15.0472933"><ele>408.5</ele><time>2026-04-25T09:32:47Z</time></trkpt><trkpt lat="40.63725" lon="15.047325"><ele>406.6666666666667</ele><time>2026-04-25T09:32:48.999Z</time></trkpt><trkpt lat="40.6371817" lon="15.0473433"><ele>404.83333333333337</ele><time>2026-04-25T09:32:50.048Z</time></trkpt><trkpt lat="40.637115" lon="15.047355"><ele>403.0</ele><time>2026-04-25T09:32:50.993Z</time></trkpt><trkpt lat="40.63699" lon="15.0473233"><ele>401.4</ele><time>2026-04-25T09:32:53Z</time></trkpt><trkpt lat="40.636925" lon="15.04728"><ele>399.79999999999995</ele><time>2026-04-25T09:32:53.989Z</time></trkpt><trkpt lat="40.6368367" lon="15.04721"><ele>398.2</ele><time>2026-04-25T09:32:55.002Z</time></trkpt><trkpt lat="40.63674" lon="15.0471417"><ele>396.6</ele><time>2026-04-25T09:32:56.058Z</time></trkpt><trkpt lat="40.6366283" lon="15.04709"><ele>395.0</ele><time>2026-04-25T09:32:56.996Z</time></trkpt><trkpt lat="40.6365317" lon="15.04702"><ele>395.0</ele><time>2026-04-25T09:32:57.993Z</time></trkpt><trkpt lat="40.636445" lon="15.0469533"><ele>395.0</ele><time>2026-04-25T09:32:58.992Z</time></trkpt><trkpt lat="40.6363583" lon="15.046855"><ele>395.0</ele><time>2026-04-25T09:32:59.997Z</time></trkpt><trkpt lat="40.6362633" lon="15.04673"><ele>395.0</ele><time>2026-04-25T09:33:01.009Z</time></trkpt><trkpt lat="40.63616" lon="15.0466"><ele>391.75</ele><time>2026-04-25T09:33:02.065Z</time></trkpt><trkpt lat="40.6360583" lon="15.0464633"><ele>388.5</ele><time>2026-04-25T09:33:02.991Z</time></trkpt><trkpt lat="40.635955" lon="15.0463333"><ele>385.25</ele><time>2026-04-25T09:33:03.992Z</time></trkpt><trkpt lat="40.6358517" lon="15.0462167"><ele>382.0</ele><time>2026-04-25T09:33:04.992Z</time></trkpt><trkpt lat="40.63576" lon="15.0461183"><ele>382.0</ele><time>2026-04-25T09:33:05.997Z</time></trkpt><trkpt lat="40.6356817" lon="15.0460467"><ele>382.0</ele><time>2026-04-25T09:33:07.009Z</time></trkpt><trkpt lat="40.635615" lon="15.0459883"><ele>382.0</ele><time>2026-04-25T09:33:08.054Z</time></trkpt><trkpt lat="40.63555" lon="15.04595"><ele>382.0</ele><time>2026-04-25T09:33:08.995Z</time></trkpt><trkpt lat="40.6354883" lon="15.0459183"><ele>382.0</ele><time>2026-04-25T09:33:09.996Z</time></trkpt><trkpt lat="40.6354267" lon="15.0458983"><ele>382.0</ele><time>2026-04-25T09:33:11.005Z</time></trkpt><trkpt lat="40.6353633" lon="15.04589"><ele>382.0</ele><time>2026-04-25T09:33:11.993Z</time></trkpt><trkpt lat="40.63524" lon="15.0459567"><ele>381.6</ele><time>2026-04-25T09:33:14.049Z</time></trkpt><trkpt lat="40.6351683" lon="15.04604"><ele>381.20000000000005</ele><time>2026-04-25T09:33:14.996Z</time></trkpt><trkpt lat="40.6350967" lon="15.0461517"><ele>380.8</ele><time>2026-04-25T09:33:15.996Z</time></trkpt><trkpt lat="40.6350317" lon="15.0462617"><ele>380.4</ele><time>2026-04-25T09:33:16.999Z</time></trkpt><trkpt lat="40.63499" lon="15.046355"><ele>380.0</ele><time>2026-04-25T09:33:17.997Z</time></trkpt><trkpt lat="40.63495" lon="15.04647"><ele>380.0</ele><time>2026-04-25T09:33:20.046Z</time></trkpt><trkpt lat="40.6349183" lon="15.0466217"><ele>380.0</ele><time>2026-04-25T09:33:50.048Z</time></trkpt><trkpt lat="40.63487" lon="15.04668"><ele>380.0</ele><time>2026-04-25T09:33:55.005Z</time></trkpt><trkpt lat="40.6348083" lon="15.046755"><ele>380.0</ele><time>2026-04-25T09:33:59.996Z</time></trkpt><trkpt lat="40.63476" lon="15.0468183"><ele>380.0</ele><time>2026-04-25T09:34:02.994Z</time></trkpt><trkpt lat="40.634715" lon="15.0468833"><ele>380.0</ele><time>2026-04-25T09:34:07.001Z</time></trkpt><trkpt lat="40.6346517" lon="15.0469467"><ele>380.83333333333337</ele><time>2026-04-25T09:34:10.999Z</time></trkpt><trkpt lat="40.6345867" lon="15.04699"><ele>381.6666666666667</ele><time>2026-04-25T09:34:14.992Z</time></trkpt><trkpt lat="40.6345117" lon="15.0470183"><ele>382.5</ele><time>2026-04-25T09:34:17.995Z</time></trkpt><trkpt lat="40.6344383" lon="15.0470467"><ele>383.33333333333337</ele><time>2026-04-25T09:34:20.047Z</time></trkpt><trkpt lat="40.6343133" lon="15.0470967"><ele>384.1666666666667</ele><time>2026-04-25T09:34:21.994Z</time></trkpt><trkpt lat="40.634235" lon="15.0471367"><ele>385.0</ele><time>2026-04-25T09:34:23Z</time></trkpt><trkpt lat="40.6341517" lon="15.04719"><ele>382.0</ele><time>2026-04-25T09:34:23.994Z</time></trkpt><trkpt lat="40.63407" lon="15.0472483"><ele>379.0</ele><time>2026-04-25T09:34:25.001Z</time></trkpt><trkpt lat="40.6339883" lon="15.0473117"><ele>376.0</ele><time>2026-04-25T09:34:26.057Z</time></trkpt><trkpt lat="40.6339067" lon="15.047385"><ele>373.0</ele><time>2026-04-25T09:34:26.999Z</time></trkpt><trkpt lat="40.6338267" lon="15.04746"><ele>370.0</ele><time>2026-04-25T09:34:27.996Z</time></trkpt><trkpt lat="40.6337517" lon="15.0475383"><ele>370.0</ele><time>2026-04-25T09:34:28.997Z</time></trkpt><trkpt lat="40.6336833" lon="15.04762"><ele>370.0</ele><time>2026-04-25T09:34:29.993Z</time></trkpt><trkpt lat="40.6336283" lon="15.0477033"><ele>370.0</ele><time>2026-04-25T09:34:31.002Z</time></trkpt><trkpt lat="40.63359" lon="15.0477867"><ele>370.0</ele><time>2026-04-25T09:34:32.07Z</time></trkpt><trkpt lat="40.6335683" lon="15.0478717"><ele>370.0</ele><time>2026-04-25T09:34:32.996Z</time></trkpt><trkpt lat="40.6336233" lon="15.0480517"><ele>370.0</ele><time>2026-04-25T09:34:35Z</time></trkpt><trkpt lat="40.6336833" lon="15.0481633"><ele>370.0</ele><time>2026-04-25T09:34:36.001Z</time></trkpt><trkpt lat="40.63374" lon="15.048275"><ele>370.0</ele><time>2026-04-25T09:34:37.001Z</time></trkpt><trkpt lat="40.633775" lon="15.0484067"><ele>370.0</ele><time>2026-04-25T09:34:38.051Z</time></trkpt><trkpt lat="40.633785" lon="15.0485383"><ele>370.0</ele><time>2026-04-25T09:34:39.997Z</time></trkpt><trkpt lat="40.6336617" lon="15.0486667"><ele>363.3333333333333</ele><time>2026-04-25T09:34:41.991Z</time></trkpt><trkpt lat="40.63355" lon="15.048755"><ele>356.6666666666667</ele><time>2026-04-25T09:34:42.997Z</time></trkpt><trkpt lat="40.6334183" lon="15.048865"><ele>350.0</ele><time>2026-04-25T09:34:44.043Z</time></trkpt><trkpt lat="40.6332767" lon="15.0489783"><ele>350.0</ele><time>2026-04-25T09:34:44.994Z</time></trkpt><trkpt lat="40.6331367" lon="15.049075"><ele>350.0</ele><time>2026-04-25T09:34:45.989Z</time></trkpt><trkpt lat="40.633015" lon="15.0491683"><ele>350.0</ele><time>2026-04-25T09:34:46.994Z</time></trkpt><trkpt lat="40.6329017" lon="15.0492533"><ele>350.0</ele><time>2026-04-25T09:34:47.991Z</time></trkpt><trkpt lat="40.632795" lon="15.049345"><ele>348.25</ele><time>2026-04-25T09:34:48.998Z</time></trkpt><trkpt lat="40.6327017" lon="15.0494383"><ele>346.5</ele><time>2026-04-25T09:34:50.049Z</time></trkpt><trkpt lat="40.6326117" lon="15.0495283"><ele>344.75</ele><time>2026-04-25T09:34:50.995Z</time></trkpt><trkpt lat="40.6325183" lon="15.0496167"><ele>343.0</ele><time>2026-04-25T09:34:51.994Z</time></trkpt><trkpt lat="40.6324317" lon="15.049705"><ele>343.0</ele><time>2026-04-25T09:34:53.001Z</time></trkpt><trkpt lat="40.6323517" lon="15.0497933"><ele>343.0</ele><time>2026-04-25T09:34:53.998Z</time></trkpt><trkpt lat="40.6322783" lon="15.0498933"><ele>343.0</ele><time>2026-04-25T09:34:54.996Z</time></trkpt><trkpt lat="40.63221" lon="15.05002"><ele>343.0</ele><time>2026-04-25T09:34:56.057Z</time></trkpt><trkpt lat="40.6321517" lon="15.0501583"><ele>343.0</ele><time>2026-04-25T09:34:56.991Z</time></trkpt><trkpt lat="40.6320983" lon="15.0502783"><ele>341.5</ele><time>2026-04-25T09:34:57.992Z</time></trkpt><trkpt lat="40.6320317" lon="15.0504067"><ele>340.0</ele><time>2026-04-25T09:34:59.001Z</time></trkpt><trkpt lat="40.6319517" lon="15.0505433"><ele>338.5</ele><time>2026-04-25T09:34:59.995Z</time></trkpt><trkpt lat="40.631855" lon="15.0507"><ele>337.0</ele><time>2026-04-25T09:35:00.997Z</time></trkpt><trkpt lat="40.6317617" lon="15.0508617"><ele>337.0</ele><time>2026-04-25T09:35:02.055Z</time></trkpt><trkpt lat="40.63168" lon="15.0510217"><ele>337.0</ele><time>2026-04-25T09:35:03.001Z</time></trkpt><trkpt lat="40.631605" lon="15.05116"><ele>337.0</ele><time>2026-04-25T09:35:04Z</time></trkpt><trkpt lat="40.6315333" lon="15.05128"><ele>337.0</ele><time>2026-04-25T09:35:04.999Z</time></trkpt><trkpt lat="40.6314567" lon="15.051375"><ele>337.0</ele><time>2026-04-25T09:35:05.998Z</time></trkpt><trkpt lat="40.6313633" lon="15.0514517"><ele>337.0</ele><time>2026-04-25T09:35:07.002Z</time></trkpt><trkpt lat="40.6312233" lon="15.0514967"><ele>337.0</ele><time>2026-04-25T09:35:08.046Z</time></trkpt><trkpt lat="40.6310683" lon="15.05154"><ele>337.0</ele><time>2026-04-25T09:35:08.995Z</time></trkpt><trkpt lat="40.6309033" lon="15.051585"><ele>333.0</ele><time>2026-04-25T09:35:10Z</time></trkpt><trkpt lat="40.6307267" lon="15.0516333"><ele>329.0</ele><time>2026-04-25T09:35:11.003Z</time></trkpt><trkpt lat="40.6305367" lon="15.051695"><ele>325.0</ele><time>2026-04-25T09:35:11.997Z</time></trkpt><trkpt lat="40.630325" lon="15.0517633"><ele>321.0</ele><time>2026-04-25T09:35:12.998Z</time></trkpt><trkpt lat="40.63013" lon="15.0518283"><ele>317.0</ele><time>2026-04-25T09:35:14.051Z</time></trkpt><trkpt lat="40.629945" lon="15.0518867"><ele>313.0</ele><time>2026-04-25T09:35:15.001Z</time></trkpt><trkpt lat="40.6297767" lon="15.0519267"><ele>313.0</ele><time>2026-04-25T09:35:16Z</time></trkpt><trkpt lat="40.6296183" lon="15.05195"><ele>313.0</ele><time>2026-04-25T09:35:16.988Z</time></trkpt><trkpt lat="40.62947" lon="15.05195"><ele>313.0</ele><time>2026-04-25T09:35:17.995Z</time></trkpt><trkpt lat="40.62934" lon="15.0519417"><ele>313.0</ele><time>2026-04-25T09:35:19.001Z</time></trkpt><trkpt lat="40.62922" lon="15.051925"><ele>310.75</ele><time>2026-04-25T09:35:20.048Z</time></trkpt><trkpt lat="40.629105" lon="15.0518917"><ele>308.5</ele><time>2026-04-25T09:35:20.992Z</time></trkpt><trkpt lat="40.629" lon="15.0518417"><ele>306.25</ele><time>2026-04-25T09:35:21.997Z</time></trkpt><trkpt lat="40.62892" lon="15.0517383"><ele>304.0</ele><time>2026-04-25T09:35:23.002Z</time></trkpt><trkpt lat="40.6288517" lon="15.0516117"><ele>303.2</ele><time>2026-04-25T09:35:24.01Z</time></trkpt><trkpt lat="40.6287817" lon="15.0514767"><ele>302.4</ele><time>2026-04-25T09:35:24.996Z</time></trkpt><trkpt lat="40.6287233" lon="15.0513367"><ele>301.6</ele><time>2026-04-25T09:35:26.063Z</time></trkpt><trkpt lat="40.6286783" lon="15.05121"><ele>300.8</ele><time>2026-04-25T09:35:26.996Z</time></trkpt><trkpt lat="40.628635" lon="15.0511067"><ele>300.0</ele><time>2026-04-25T09:35:27.988Z</time></trkpt><trkpt lat="40.6286" lon="15.0510183"><ele>297.5</ele><time>2026-04-25T09:35:28.997Z</time></trkpt><trkpt lat="40.628535" lon="15.0509767"><ele>295.0</ele><time>2026-04-25T09:35:30.998Z</time></trkpt><trkpt lat="40.62851" lon="15.051075"><ele>292.5</ele><time>2026-04-25T09:35:32.994Z</time></trkpt><trkpt lat="40.6285317" lon="15.05117"><ele>290.0</ele><time>2026-04-25T09:35:34Z</time></trkpt><trkpt lat="40.6285533" lon="15.0513283"><ele>287.5</ele><time>2026-04-25T09:35:35.996Z</time></trkpt><trkpt lat="40.6284817" lon="15.0513133"><ele>285.0</ele><time>2026-04-25T09:35:38.047Z</time></trkpt><trkpt lat="40.62842" lon="15.0512467"><ele>285.0</ele><time>2026-04-25T09:35:38.995Z</time></trkpt><trkpt lat="40.6283433" lon="15.0511583"><ele>285.0</ele><time>2026-04-25T09:35:39.999Z</time></trkpt><trkpt lat="40.6282483" lon="15.0510083"><ele>285.0</ele><time>2026-04-25T09:35:40.991Z</time></trkpt><trkpt lat="40.6281583" lon="15.0508567"><ele>285.0</ele><time>2026-04-25T09:35:41.994Z</time></trkpt><trkpt lat="40.6280767" lon="15.050705"><ele>284.75</ele><time>2026-04-25T09:35:42.997Z</time></trkpt><trkpt lat="40.6280017" lon="15.0505517"><ele>284.5</ele><time>2026-04-25T09:35:44.048Z</time></trkpt><trkpt lat="40.6279333" lon="15.0504033"><ele>284.25</ele><time>2026-04-25T09:35:44.997Z</time></trkpt><trkpt lat="40.6278733" lon="15.050305"><ele>284.0</ele><time>2026-04-25T09:35:45.989Z</time></trkpt><trkpt lat="40.6278583" lon="15.0504567"><ele>284.0</ele><time>2026-04-25T09:35:49.003Z</time></trkpt><trkpt lat="40.627885" lon="15.0505717"><ele>284.0</ele><time>2026-04-25T09:35:50.05Z</time></trkpt><trkpt lat="40.627935" lon="15.050805"><ele>284.0</ele><time>2026-04-25T09:35:51Z</time></trkpt><trkpt lat="40.6279833" lon="15.0510233"><ele>284.0</ele><time>2026-04-25T09:35:51.997Z</time></trkpt><trkpt lat="40.6280333" lon="15.0512283"><ele>284.25</ele><time>2026-04-25T09:35:52.999Z</time></trkpt><trkpt lat="40.6280733" lon="15.05141"><ele>284.5</ele><time>2026-04-25T09:35:53.996Z</time></trkpt><trkpt lat="40.6281083" lon="15.0515817"><ele>284.75</ele><time>2026-04-25T09:35:55Z</time></trkpt><trkpt lat="40.6281333" lon="15.0517283"><ele>285.0</ele><time>2026-04-25T09:35:56.059Z</time></trkpt><trkpt lat="40.6281417" lon="15.0518283"><ele>283.4</ele><time>2026-04-25T09:35:56.991Z</time></trkpt><trkpt lat="40.628055" lon="15.0519283"><ele>281.8</ele><time>2026-04-25T09:35:58.996Z</time></trkpt><trkpt lat="40.6279933" lon="15.0519733"><ele>280.2</ele><time>2026-04-25T09:35:59.995Z</time></trkpt><trkpt lat="40.6279" lon="15.051935"><ele>278.6</ele><time>2026-04-25T09:36:00.995Z</time></trkpt><trkpt lat="40.62781" lon="15.051885"><ele>277.0</ele><time>2026-04-25T09:36:02.051Z</time></trkpt><trkpt lat="40.6277" lon="15.051785"><ele>266.66666666666663</ele><time>2026-04-25T09:36:02.991Z</time></trkpt><trkpt lat="40.6275567" lon="15.0516233"><ele>256.3333333333333</ele><time>2026-04-25T09:36:04Z</time></trkpt><trkpt lat="40.6274183" lon="15.0514633"><ele>246.0</ele><time>2026-04-25T09:36:04.998Z</time></trkpt><trkpt lat="40.62706" lon="15.0512583"><ele>237.5</ele><time>2026-04-25T09:36:05.996Z</time></trkpt><trkpt lat="40.6269333" lon="15.05124"><ele>229.0</ele><time>2026-04-25T09:36:07.007Z</time></trkpt><trkpt lat="40.6267917" lon="15.051245"><ele>220.5</ele><time>2026-04-25T09:36:08.053Z</time></trkpt><trkpt lat="40.62666" lon="15.05127"><ele>212.0</ele><time>2026-04-25T09:36:08.994Z</time></trkpt><trkpt lat="40.6265317" lon="15.0512733"><ele>212.0</ele><time>2026-04-25T09:36:09.996Z</time></trkpt><trkpt lat="40.626405" lon="15.0512567"><ele>212.0</ele><time>2026-04-25T09:36:10.993Z</time></trkpt><trkpt lat="40.6262833" lon="15.0512317"><ele>212.0</ele><time>2026-04-25T09:36:11.998Z</time></trkpt><trkpt lat="40.6261667" lon="15.051205"><ele>212.0</ele><time>2026-04-25T09:36:12.992Z</time></trkpt><trkpt lat="40.6260567" lon="15.0512133"><ele>207.5</ele><time>2026-04-25T09:36:14.044Z</time></trkpt><trkpt lat="40.62594" lon="15.051265"><ele>203.0</ele><time>2026-04-25T09:36:15.001Z</time></trkpt><trkpt lat="40.6258217" lon="15.0513433"><ele>198.5</ele><time>2026-04-25T09:36:15.995Z</time></trkpt><trkpt lat="40.6257083" lon="15.051445"><ele>194.0</ele><time>2026-04-25T09:36:16.999Z</time></trkpt><trkpt lat="40.6256" lon="15.0515667"><ele>191.0</ele><time>2026-04-25T09:36:17.995Z</time></trkpt><trkpt lat="40.6254967" lon="15.0516917"><ele>188.0</ele><time>2026-04-25T09:36:19Z</time></trkpt><trkpt lat="40.6254017" lon="15.0518467"><ele>185.0</ele><time>2026-04-25T09:36:20.048Z</time></trkpt><trkpt lat="40.6252983" lon="15.0520067"><ele>185.0</ele><time>2026-04-25T09:36:20.991Z</time></trkpt><trkpt lat="40.625175" lon="15.0521633"><ele>185.0</ele><time>2026-04-25T09:36:21.996Z</time></trkpt><trkpt lat="40.6250367" lon="15.052315"><ele>185.0</ele><time>2026-04-25T09:36:23.004Z</time></trkpt><trkpt lat="40.6248933" lon="15.052455"><ele>191.0</ele><time>2026-04-25T09:36:24Z</time></trkpt><trkpt lat="40.6247567" lon="15.0525817"><ele>197.0</ele><time>2026-04-25T09:36:25Z</time></trkpt><trkpt lat="40.6246333" lon="15.0526967"><ele>203.0</ele><time>2026-04-25T09:36:26.062Z</time></trkpt><trkpt lat="40.6245233" lon="15.05282"><ele>197.25</ele><time>2026-04-25T09:36:26.993Z</time></trkpt><trkpt lat="40.6244217" lon="15.0529483"><ele>191.5</ele><time>2026-04-25T09:36:27.992Z</time></trkpt><trkpt lat="40.6243283" lon="15.0530633"><ele>185.75</ele><time>2026-04-25T09:36:29.005Z</time></trkpt><trkpt lat="40.6242383" lon="15.0531683"><ele>180.0</ele><time>2026-04-25T09:36:29.994Z</time></trkpt><trkpt lat="40.62417" lon="15.0532783"><ele>180.8</ele><time>2026-04-25T09:36:31.001Z</time></trkpt><trkpt lat="40.6241117" lon="15.053395"><ele>181.6</ele><time>2026-04-25T09:36:32.053Z</time></trkpt><trkpt lat="40.6240433" lon="15.0535"><ele>182.39999999999998</ele><time>2026-04-25T09:36:32.993Z</time></trkpt><trkpt lat="40.62397" lon="15.0535983"><ele>183.2</ele><time>2026-04-25T09:36:33.992Z</time></trkpt><trkpt lat="40.6238917" lon="15.0536933"><ele>184.0</ele><time>2026-04-25T09:36:34.99Z</time></trkpt><trkpt lat="40.6238133" lon="15.0537817"><ele>184.0</ele><time>2026-04-25T09:36:35.993Z</time></trkpt><trkpt lat="40.6237483" lon="15.053855"><ele>184.0</ele><time>2026-04-25T09:36:36.998Z</time></trkpt><trkpt lat="40.62364" lon="15.0539133"><ele>184.0</ele><time>2026-04-25T09:36:38.993Z</time></trkpt><trkpt lat="40.623515" lon="15.0539317"><ele>184.0</ele><time>2026-04-25T09:36:40.989Z</time></trkpt><trkpt lat="40.6234333" lon="15.0539117"><ele>184.0</ele><time>2026-04-25T09:36:41.994Z</time></trkpt><trkpt lat="40.6233317" lon="15.0538833"><ele>182.0</ele><time>2026-04-25T09:36:42.999Z</time></trkpt><trkpt lat="40.623215" lon="15.0538617"><ele>180.0</ele><time>2026-04-25T09:36:44.054Z</time></trkpt><trkpt lat="40.6230917" lon="15.0538467"><ele>178.0</ele><time>2026-04-25T09:36:45Z</time></trkpt><trkpt lat="40.622965" lon="15.0538333"><ele>176.0</ele><time>2026-04-25T09:36:45.994Z</time></trkpt><trkpt lat="40.62284" lon="15.0538283"><ele>172.0</ele><time>2026-04-25T09:36:46.998Z</time></trkpt><trkpt lat="40.6227167" lon="15.0538317"><ele>168.0</ele><time>2026-04-25T09:36:47.998Z</time></trkpt><trkpt lat="40.622595" lon="15.053835"><ele>164.0</ele><time>2026-04-25T09:36:48.999Z</time></trkpt><trkpt lat="40.622475" lon="15.0538483"><ele>160.0</ele><time>2026-04-25T09:36:50.045Z</time></trkpt><trkpt lat="40.6223583" lon="15.0538617"><ele>160.0</ele><time>2026-04-25T09:36:50.995Z</time></trkpt><trkpt lat="40.6222467" lon="15.053865"><ele>160.0</ele><time>2026-04-25T09:36:51.995Z</time></trkpt><trkpt lat="40.6221317" lon="15.05387"><ele>160.0</ele><time>2026-04-25T09:36:52.992Z</time></trkpt><trkpt lat="40.622025" lon="15.0538683"><ele>160.0</ele><time>2026-04-25T09:36:53.998Z</time></trkpt><trkpt lat="40.6219317" lon="15.05387"><ele>160.0</ele><time>2026-04-25T09:36:54.999Z</time></trkpt><trkpt lat="40.6218583" lon="15.0538683"><ele>160.0</ele><time>2026-04-25T09:36:56.052Z</time></trkpt><trkpt lat="40.621745" lon="15.0538717"><ele>160.0</ele><time>2026-04-25T09:36:57.999Z</time></trkpt><trkpt lat="40.6216617" lon="15.053895"><ele>160.0</ele><time>2026-04-25T09:36:59.997Z</time></trkpt><trkpt lat="40.6216133" lon="15.05402"><ele>160.0</ele><time>2026-04-25T09:37:02.058Z</time></trkpt><trkpt lat="40.6215883" lon="15.05412"><ele>160.0</ele><time>2026-04-25T09:37:02.989Z</time></trkpt><trkpt lat="40.6215617" lon="15.0542183"><ele>160.0</ele><time>2026-04-25T09:37:03.997Z</time></trkpt><trkpt lat="40.6215267" lon="15.0543183"><ele>160.0</ele><time>2026-04-25T09:37:04.995Z</time></trkpt><trkpt lat="40.6214917" lon="15.0544233"><ele>160.0</ele><time>2026-04-25T09:37:05.998Z</time></trkpt><trkpt lat="40.62146" lon="15.05452"><ele>160.0</ele><time>2026-04-25T09:37:06.998Z</time></trkpt><trkpt lat="40.6214333" lon="15.0546133"><ele>160.0</ele><time>2026-04-25T09:37:08.054Z</time></trkpt><trkpt lat="40.6214033" lon="15.0547067"><ele>160.0</ele><time>2026-04-25T09:37:08.99Z</time></trkpt><trkpt lat="40.62137" lon="15.0547967"><ele>160.0</ele><time>2026-04-25T09:37:09.992Z</time></trkpt><trkpt lat="40.6213317" lon="15.0548883"><ele>160.0</ele><time>2026-04-25T09:37:11.01Z</time></trkpt><trkpt lat="40.62129" lon="15.0549783"><ele>160.0</ele><time>2026-04-25T09:37:11.993Z</time></trkpt><trkpt lat="40.6212533" lon="15.0550667"><ele>160.0</ele><time>2026-04-25T09:37:13Z</time></trkpt><trkpt lat="40.6212133" lon="15.05515"><ele>160.0</ele><time>2026-04-25T09:37:14.05Z</time></trkpt><trkpt lat="40.6211633" lon="15.05523"><ele>160.0</ele><time>2026-04-25T09:37:14.994Z</time></trkpt><trkpt lat="40.62111" lon="15.0553017"><ele>160.57142857142856</ele><time>2026-04-25T09:37:15.993Z</time></trkpt><trkpt lat="40.6210517" lon="15.0553683"><ele>161.14285714285714</ele><time>2026-04-25T09:37:17.003Z</time></trkpt><trkpt lat="40.6209883" lon="15.0554217"><ele>161.71428571428572</ele><time>2026-04-25T09:37:17.997Z</time></trkpt><trkpt lat="40.620925" lon="15.055465"><ele>162.28571428571428</ele><time>2026-04-25T09:37:18.991Z</time></trkpt><trkpt lat="40.62086" lon="15.0555133"><ele>162.85714285714286</ele><time>2026-04-25T09:37:20.053Z</time></trkpt><trkpt lat="40.620785" lon="15.0555233"><ele>163.42857142857142</ele><time>2026-04-25T09:37:20.996Z</time></trkpt><trkpt lat="40.620715" lon="15.055545"><ele>164.0</ele><time>2026-04-25T09:37:21.988Z</time></trkpt><trkpt lat="40.6206367" lon="15.0555583"><ele>164.0</ele><time>2026-04-25T09:37:23.001Z</time></trkpt><trkpt lat="40.62056" lon="15.055605"><ele>164.0</ele><time>2026-04-25T09:37:23.999Z</time></trkpt><trkpt lat="40.6204867" lon="15.055675"><ele>164.0</ele><time>2026-04-25T09:37:24.999Z</time></trkpt><trkpt lat="40.6204167" lon="15.0557017"><ele>164.0</ele><time>2026-04-25T09:37:26.06Z</time></trkpt><trkpt lat="40.6203467" lon="15.0556933"><ele>164.0</ele><time>2026-04-25T09:37:26.994Z</time></trkpt><trkpt lat="40.6202483" lon="15.05571"><ele>164.0</ele><time>2026-04-25T09:37:28.999Z</time></trkpt><trkpt lat="40.620155" lon="15.055735"><ele>161.79999999999998</ele><time>2026-04-25T09:37:31.001Z</time></trkpt><trkpt lat="40.620045" lon="15.0557583"><ele>159.6</ele><time>2026-04-25T09:37:33.001Z</time></trkpt><trkpt lat="40.6199517" lon="15.0557867"><ele>157.4</ele><time>2026-04-25T09:37:33.999Z</time></trkpt><trkpt lat="40.61986" lon="15.0558283"><ele>155.2</ele><time>2026-04-25T09:37:34.995Z</time></trkpt><trkpt lat="40.6197883" lon="15.0558717"><ele>153.0</ele><time>2026-04-25T09:37:35.993Z</time></trkpt><trkpt lat="40.6197217" lon="15.0559233"><ele>151.0</ele><time>2026-04-25T09:37:37.001Z</time></trkpt><trkpt lat="40.6196617" lon="15.05597"><ele>149.0</ele><time>2026-04-25T09:37:38.047Z</time></trkpt><trkpt lat="40.6195483" lon="15.0560617"><ele>147.0</ele><time>2026-04-25T09:37:39.996Z</time></trkpt><trkpt lat="40.619465" lon="15.0561633"><ele>145.0</ele><time>2026-04-25T09:37:41.997Z</time></trkpt><trkpt lat="40.61942" lon="15.0563633"><ele>144.4</ele><time>2026-04-25T09:37:44.054Z</time></trkpt><trkpt lat="40.61941" lon="15.0564667"><ele>143.8</ele><time>2026-04-25T09:37:44.997Z</time></trkpt><trkpt lat="40.619465" lon="15.0566167"><ele>143.2</ele><time>2026-04-25T09:37:45.993Z</time></trkpt><trkpt lat="40.6195533" lon="15.0567117"><ele>142.6</ele><time>2026-04-25T09:37:47.006Z</time></trkpt><trkpt lat="40.6196033" lon="15.0567917"><ele>142.0</ele><time>2026-04-25T09:37:47.998Z</time></trkpt><trkpt lat="40.619625" lon="15.0568833"><ele>141.83333333333334</ele><time>2026-04-25T09:37:49.004Z</time></trkpt><trkpt lat="40.6196533" lon="15.05696"><ele>141.66666666666669</ele><time>2026-04-25T09:37:50.053Z</time></trkpt><trkpt lat="40.619585" lon="15.0570683"><ele>141.5</ele><time>2026-04-25T09:37:51.996Z</time></trkpt><trkpt lat="40.619545" lon="15.05716"><ele>141.33333333333334</ele><time>2026-04-25T09:37:53.001Z</time></trkpt><trkpt lat="40.619515" lon="15.0572333"><ele>141.16666666666666</ele><time>2026-04-25T09:37:54Z</time></trkpt><trkpt lat="40.6194733" lon="15.0573133"><ele>141.0</ele><time>2026-04-25T09:37:54.997Z</time></trkpt><trkpt lat="40.6194267" lon="15.057415"><ele>139.33333333333334</ele><time>2026-04-25T09:37:56.058Z</time></trkpt><trkpt lat="40.6193767" lon="15.0575033"><ele>137.66666666666666</ele><time>2026-04-25T09:37:56.992Z</time></trkpt><trkpt lat="40.619335" lon="15.0576"><ele>136.0</ele><time>2026-04-25T09:37:57.995Z</time></trkpt><trkpt lat="40.61927" lon="15.057635"><ele>134.33333333333331</ele><time>2026-04-25T09:37:58.998Z</time></trkpt><trkpt lat="40.61916" lon="15.057715"><ele>132.66666666666666</ele><time>2026-04-25T09:37:59.99Z</time></trkpt><trkpt lat="40.6190833" lon="15.0577417"><ele>131.0</ele><time>2026-04-25T09:38:00.998Z</time></trkpt><trkpt lat="40.619005" lon="15.0577783"><ele>131.0</ele><time>2026-04-25T09:38:02.055Z</time></trkpt><trkpt lat="40.6189283" lon="15.0578283"><ele>131.0</ele><time>2026-04-25T09:38:02.994Z</time></trkpt><trkpt lat="40.6188483" lon="15.057915"><ele>131.0</ele><time>2026-04-25T09:38:03.996Z</time></trkpt><trkpt lat="40.6187833" lon="15.057945"><ele>131.0</ele><time>2026-04-25T09:38:04.996Z</time></trkpt><trkpt lat="40.6187183" lon="15.0579633"><ele>131.0</ele><time>2026-04-25T09:38:06.001Z</time></trkpt><trkpt lat="40.618565" lon="15.057965"><ele>130.0</ele><time>2026-04-25T09:38:08.048Z</time></trkpt><trkpt lat="40.6184933" lon="15.0579817"><ele>129.0</ele><time>2026-04-25T09:38:09Z</time></trkpt><trkpt lat="40.6183933" lon="15.0578767"><ele>128.0</ele><time>2026-04-25T09:38:12.002Z</time></trkpt><trkpt lat="40.6183633" lon="15.057765"><ele>127.0</ele><time>2026-04-25T09:38:12.999Z</time></trkpt><trkpt lat="40.618345" lon="15.0576217"><ele>126.0</ele><time>2026-04-25T09:38:14.99Z</time></trkpt><trkpt lat="40.61831" lon="15.0575183"><ele>127.25</ele><time>2026-04-25T09:38:18.004Z</time></trkpt><trkpt lat="40.618265" lon="15.0574467"><ele>128.5</ele><time>2026-04-25T09:38:18.998Z</time></trkpt><trkpt lat="40.61805" lon="15.0574133"><ele>129.75</ele><time>2026-04-25T09:38:20.998Z</time></trkpt><trkpt lat="40.6179483" lon="15.0573833"><ele>131.0</ele><time>2026-04-25T09:38:23.001Z</time></trkpt><trkpt lat="40.6178767" lon="15.057335"><ele>128.2</ele><time>2026-04-25T09:38:25.004Z</time></trkpt><trkpt lat="40.6178117" lon="15.0573483"><ele>125.39999999999999</ele><time>2026-04-25T09:38:26.992Z</time></trkpt><trkpt lat="40.6177367" lon="15.05744"><ele>122.6</ele><time>2026-04-25T09:38:29.003Z</time></trkpt><trkpt lat="40.6176567" lon="15.0575367"><ele>119.8</ele><time>2026-04-25T09:38:30.999Z</time></trkpt><trkpt lat="40.6175283" lon="15.05761"><ele>117.0</ele><time>2026-04-25T09:38:32.994Z</time></trkpt><trkpt lat="40.6174483" lon="15.057645"><ele>117.0</ele><time>2026-04-25T09:38:33.994Z</time></trkpt><trkpt lat="40.6173583" lon="15.05768"><ele>116.99999999999999</ele><time>2026-04-25T09:38:34.992Z</time></trkpt><trkpt lat="40.6172583" lon="15.0577033"><ele>116.99999999999999</ele><time>2026-04-25T09:38:35.991Z</time></trkpt><trkpt lat="40.6171583" lon="15.0577283"><ele>117.0</ele><time>2026-04-25T09:38:36.99Z</time></trkpt><trkpt lat="40.61707" lon="15.0577567"><ele>117.0</ele><time>2026-04-25T09:38:38.047Z</time></trkpt><trkpt lat="40.6169883" lon="15.0577783"><ele>116.0</ele><time>2026-04-25T09:38:38.989Z</time></trkpt><trkpt lat="40.6169167" lon="15.0578"><ele>115.0</ele><time>2026-04-25T09:38:39.992Z</time></trkpt><trkpt lat="40.61685" lon="15.0578283"><ele>114.0</ele><time>2026-04-25T09:38:40.993Z</time></trkpt><trkpt lat="40.616785" lon="15.057855"><ele>113.0</ele><time>2026-04-25T09:38:41.994Z</time></trkpt><trkpt lat="40.6167267" lon="15.0578883"><ele>112.0</ele><time>2026-04-25T09:38:42.997Z</time></trkpt><trkpt lat="40.61662" lon="15.057955"><ele>111.0</ele><time>2026-04-25T09:38:44.998Z</time></trkpt><trkpt lat="40.6165617" lon="15.0579867"><ele>111.0</ele><time>2026-04-25T09:38:45.998Z</time></trkpt><trkpt lat="40.6164967" lon="15.0580117"><ele>111.0</ele><time>2026-04-25T09:38:46.999Z</time></trkpt><trkpt lat="40.6164233" lon="15.0580333"><ele>111.0</ele><time>2026-04-25T09:38:47.996Z</time></trkpt><trkpt lat="40.6163483" lon="15.058055"><ele>111.0</ele><time>2026-04-25T09:38:49.001Z</time></trkpt><trkpt lat="40.6162717" lon="15.0581117"><ele>111.0</ele><time>2026-04-25T09:38:50.05Z</time></trkpt><trkpt lat="40.6161967" lon="15.0581633"><ele>111.0</ele><time>2026-04-25T09:38:50.99Z</time></trkpt><trkpt lat="40.6161283" lon="15.0582133"><ele>110.8</ele><time>2026-04-25T09:38:51.992Z</time></trkpt><trkpt lat="40.6160567" lon="15.05824"><ele>110.6</ele><time>2026-04-25T09:38:52.998Z</time></trkpt><trkpt lat="40.6159867" lon="15.0582483"><ele>110.4</ele><time>2026-04-25T09:38:53.997Z</time></trkpt><trkpt lat="40.6158717" lon="15.05828"><ele>110.2</ele><time>2026-04-25T09:38:56.063Z</time></trkpt><trkpt lat="40.6157717" lon="15.0583167"><ele>110.0</ele><time>2026-04-25T09:38:57.992Z</time></trkpt><trkpt lat="40.6156783" lon="15.0582917"><ele>110.0</ele><time>2026-04-25T09:38:59.997Z</time></trkpt><trkpt lat="40.615595" lon="15.0582583"><ele>110.0</ele><time>2026-04-25T09:39:02.058Z</time></trkpt><trkpt lat="40.6155033" lon="15.0582417"><ele>110.0</ele><time>2026-04-25T09:39:03.997Z</time></trkpt><trkpt lat="40.6154133" lon="15.0582633"><ele>110.0</ele><time>2026-04-25T09:39:05.998Z</time></trkpt><trkpt lat="40.6152967" lon="15.0582683"><ele>110.0</ele><time>2026-04-25T09:39:08.044Z</time></trkpt><trkpt lat="40.6152333" lon="15.058245"><ele>109.42857142857142</ele><time>2026-04-25T09:39:08.996Z</time></trkpt><trkpt lat="40.6151633" lon="15.05822"><ele>108.85714285714286</ele><time>2026-04-25T09:39:09.992Z</time></trkpt><trkpt lat="40.6150867" lon="15.0581783"><ele>108.28571428571428</ele><time>2026-04-25T09:39:11.005Z</time></trkpt><trkpt lat="40.6150283" lon="15.058125"><ele>107.71428571428571</ele><time>2026-04-25T09:39:11.996Z</time></trkpt><trkpt lat="40.6149733" lon="15.05807"><ele>107.14285714285714</ele><time>2026-04-25T09:39:12.999Z</time></trkpt><trkpt lat="40.6149217" lon="15.0580017"><ele>106.57142857142857</ele><time>2026-04-25T09:39:14.051Z</time></trkpt><trkpt lat="40.6148767" lon="15.0579283"><ele>106.0</ele><time>2026-04-25T09:39:14.993Z</time></trkpt><trkpt lat="40.61485" lon="15.0578517"><ele>106.00000000000001</ele><time>2026-04-25T09:39:16Z</time></trkpt><trkpt lat="40.614805" lon="15.0577817"><ele>106.0</ele><time>2026-04-25T09:39:17.01Z</time></trkpt><trkpt lat="40.6147683" lon="15.05769"><ele>106.0</ele><time>2026-04-25T09:39:17.991Z</time></trkpt><trkpt lat="40.6147217" lon="15.05762"><ele>106.0</ele><time>2026-04-25T09:39:19Z</time></trkpt><trkpt lat="40.61467" lon="15.0574967"><ele>106.00000000000001</ele><time>2026-04-25T09:39:20.996Z</time></trkpt><trkpt lat="40.6146233" lon="15.057355"><ele>106.0</ele><time>2026-04-25T09:39:23.01Z</time></trkpt><trkpt lat="40.6146067" lon="15.0572683"><ele>105.8</ele><time>2026-04-25T09:39:23.993Z</time></trkpt><trkpt lat="40.6145883" lon="15.05718"><ele>105.6</ele><time>2026-04-25T09:39:24.999Z</time></trkpt><trkpt lat="40.61456" lon="15.0570767"><ele>105.4</ele><time>2026-04-25T09:39:26.063Z</time></trkpt><trkpt lat="40.614535" lon="15.056955"><ele>105.2</ele><time>2026-04-25T09:39:26.995Z</time></trkpt><trkpt lat="40.6145033" lon="15.05682"><ele>105.0</ele><time>2026-04-25T09:39:27.999Z</time></trkpt><trkpt lat="40.6144617" lon="15.0566667"><ele>103.75</ele><time>2026-04-25T09:39:28.994Z</time></trkpt><trkpt lat="40.6144167" lon="15.0565217"><ele>102.5</ele><time>2026-04-25T09:39:29.998Z</time></trkpt><trkpt lat="40.6143833" lon="15.0563783"><ele>101.25</ele><time>2026-04-25T09:39:30.999Z</time></trkpt><trkpt lat="40.6143583" lon="15.056235"><ele>100.0</ele><time>2026-04-25T09:39:32.064Z</time></trkpt><trkpt lat="40.6143317" lon="15.05609"><ele>100.0</ele><time>2026-04-25T09:39:32.994Z</time></trkpt><trkpt lat="40.6143" lon="15.05594"><ele>100.0</ele><time>2026-04-25T09:39:33.999Z</time></trkpt><trkpt lat="40.614255" lon="15.0557833"><ele>100.0</ele><time>2026-04-25T09:39:35Z</time></trkpt><trkpt lat="40.6142" lon="15.0556283"><ele>100.0</ele><time>2026-04-25T09:39:35.999Z</time></trkpt><trkpt lat="40.6141367" lon="15.0554717"><ele>100.0</ele><time>2026-04-25T09:39:37.004Z</time></trkpt><trkpt lat="40.6140867" lon="15.055335"><ele>100.0</ele><time>2026-04-25T09:39:38.054Z</time></trkpt><trkpt lat="40.6140333" lon="15.055215"><ele>100.0</ele><time>2026-04-25T09:39:38.999Z</time></trkpt><trkpt lat="40.6139767" lon="15.0551"><ele>100.0</ele><time>2026-04-25T09:39:39.993Z</time></trkpt><trkpt lat="40.6139217" lon="15.0549933"><ele>100.0</ele><time>2026-04-25T09:39:40.994Z</time></trkpt><trkpt lat="40.6138683" lon="15.054875"><ele>100.0</ele><time>2026-04-25T09:39:42.005Z</time></trkpt><trkpt lat="40.6138167" lon="15.0547483"><ele>100.0</ele><time>2026-04-25T09:39:42.997Z</time></trkpt><trkpt lat="40.6137617" lon="15.0546233"><ele>100.0</ele><time>2026-04-25T09:39:44.048Z</time></trkpt><trkpt lat="40.6137083" lon="15.0545017"><ele>100.0</ele><time>2026-04-25T09:39:45Z</time></trkpt><trkpt lat="40.61366" lon="15.0543817"><ele>100.0</ele><time>2026-04-25T09:39:46.003Z</time></trkpt><trkpt lat="40.6136233" lon="15.0542783"><ele>100.00000000000001</ele><time>2026-04-25T09:39:46.999Z</time></trkpt><trkpt lat="40.6135883" lon="15.0541867"><ele>100.0</ele><time>2026-04-25T09:39:47.996Z</time></trkpt><trkpt lat="40.613555" lon="15.0541083"><ele>100.0</ele><time>2026-04-25T09:39:49.002Z</time></trkpt><trkpt lat="40.6135233" lon="15.0540317"><ele>100.0</ele><time>2026-04-25T09:39:50.051Z</time></trkpt><trkpt lat="40.6134933" lon="15.0539583"><ele>100.0</ele><time>2026-04-25T09:39:50.992Z</time></trkpt><trkpt lat="40.6134583" lon="15.0538667"><ele>100.00000000000001</ele><time>2026-04-25T09:39:51.993Z</time></trkpt><trkpt lat="40.61342" lon="15.0537567"><ele>100.0</ele><time>2026-04-25T09:39:52.993Z</time></trkpt><trkpt lat="40.6133917" lon="15.0536283"><ele>100.0</ele><time>2026-04-25T09:39:53.996Z</time></trkpt><trkpt lat="40.6133567" lon="15.0534833"><ele>100.0</ele><time>2026-04-25T09:39:54.994Z</time></trkpt><trkpt lat="40.6133167" lon="15.0533367"><ele>100.0</ele><time>2026-04-25T09:39:56.058Z</time></trkpt><trkpt lat="40.6132833" lon="15.0531967"><ele>100.0</ele><time>2026-04-25T09:39:56.994Z</time></trkpt><trkpt lat="40.613255" lon="15.0530583"><ele>100.00000000000001</ele><time>2026-04-25T09:39:57.998Z</time></trkpt><trkpt lat="40.6132467" lon="15.0529283"><ele>100.0</ele><time>2026-04-25T09:39:59.001Z</time></trkpt><trkpt lat="40.6132533" lon="15.0528117"><ele>100.0</ele><time>2026-04-25T09:39:59.99Z</time></trkpt><trkpt lat="40.6132617" lon="15.0527067"><ele>100.0</ele><time>2026-04-25T09:40:00.997Z</time></trkpt><trkpt lat="40.6132717" lon="15.0526117"><ele>100.00000000000001</ele><time>2026-04-25T09:40:02.056Z</time></trkpt><trkpt lat="40.6132867" lon="15.05253"><ele>100.0</ele><time>2026-04-25T09:40:02.999Z</time></trkpt><trkpt lat="40.6133117" lon="15.0523833"><ele>99.6</ele><time>2026-04-25T09:40:04.998Z</time></trkpt><trkpt lat="40.6133317" lon="15.0522333"><ele>99.2</ele><time>2026-04-25T09:40:06.992Z</time></trkpt><trkpt lat="40.6133467" lon="15.05208"><ele>98.80000000000001</ele><time>2026-04-25T09:40:08.999Z</time></trkpt><trkpt lat="40.6133733" lon="15.0519283"><ele>98.4</ele><time>2026-04-25T09:40:11Z</time></trkpt><trkpt lat="40.61338" lon="15.05184"><ele>98.0</ele><time>2026-04-25T09:40:11.996Z</time></trkpt><trkpt lat="40.6133817" lon="15.0517567"><ele>97.99999999999999</ele><time>2026-04-25T09:40:13.004Z</time></trkpt><trkpt lat="40.61338" lon="15.0516733"><ele>98.0</ele><time>2026-04-25T09:40:14.057Z</time></trkpt><trkpt lat="40.6133983" lon="15.0515483"><ele>98.0</ele><time>2026-04-25T09:40:15.996Z</time></trkpt><trkpt lat="40.61347" lon="15.0514417"><ele>98.0</ele><time>2026-04-25T09:40:17.998Z</time></trkpt><trkpt lat="40.6135067" lon="15.0513433"><ele>97.99999999999999</ele><time>2026-04-25T09:40:20.049Z</time></trkpt><trkpt lat="40.6134833" lon="15.0512617"><ele>98.0</ele><time>2026-04-25T09:40:23.993Z</time></trkpt><trkpt lat="40.6134183" lon="15.0512"><ele>97.83333333333333</ele><time>2026-04-25T09:40:26.058Z</time></trkpt><trkpt lat="40.6133317" lon="15.0510933"><ele>97.66666666666666</ele><time>2026-04-25T09:40:27.989Z</time></trkpt><trkpt lat="40.6132817" lon="15.051025"><ele>97.5</ele><time>2026-04-25T09:40:29.006Z</time></trkpt><trkpt lat="40.6132233" lon="15.050945"><ele>97.33333333333334</ele><time>2026-04-25T09:40:29.994Z</time></trkpt><trkpt lat="40.613165" lon="15.0508717"><ele>97.16666666666667</ele><time>2026-04-25T09:40:30.999Z</time></trkpt><trkpt lat="40.6131" lon="15.0507967"><ele>97.0</ele><time>2026-04-25T09:40:32.054Z</time></trkpt><trkpt lat="40.6130333" lon="15.050725"><ele>96.8</ele><time>2026-04-25T09:40:32.992Z</time></trkpt><trkpt lat="40.6129583" lon="15.050645"><ele>96.6</ele><time>2026-04-25T09:40:33.993Z</time></trkpt><trkpt lat="40.6128817" lon="15.05057"><ele>96.39999999999999</ele><time>2026-04-25T09:40:34.998Z</time></trkpt><trkpt lat="40.6128117" lon="15.0504683"><ele>96.19999999999999</ele><time>2026-04-25T09:40:35.994Z</time></trkpt><trkpt lat="40.6127367" lon="15.05038"><ele>96.0</ele><time>2026-04-25T09:40:36.998Z</time></trkpt><trkpt lat="40.612665" lon="15.0503"><ele>95.66666666666667</ele><time>2026-04-25T09:40:38.053Z</time></trkpt><trkpt lat="40.61261" lon="15.050215"><ele>95.33333333333333</ele><time>2026-04-25T09:40:38.993Z</time></trkpt><trkpt lat="40.612555" lon="15.0501367"><ele>95.0</ele><time>2026-04-25T09:40:39.995Z</time></trkpt><trkpt lat="40.612505" lon="15.0500683"><ele>94.66666666666666</ele><time>2026-04-25T09:40:40.996Z</time></trkpt><trkpt lat="40.6124517" lon="15.050005"><ele>94.33333333333333</ele><time>2026-04-25T09:40:41.997Z</time></trkpt><trkpt lat="40.6124083" lon="15.049905"><ele>94.0</ele><time>2026-04-25T09:40:42.993Z</time></trkpt><trkpt lat="40.61236" lon="15.0498267"><ele>93.66666666666666</ele><time>2026-04-25T09:40:44.051Z</time></trkpt><trkpt lat="40.61231" lon="15.0497483"><ele>93.33333333333333</ele><time>2026-04-25T09:40:44.992Z</time></trkpt><trkpt lat="40.6122483" lon="15.04969"><ele>93.0</ele><time>2026-04-25T09:40:45.989Z</time></trkpt><trkpt lat="40.61219" lon="15.049615"><ele>92.66666666666667</ele><time>2026-04-25T09:40:46.994Z</time></trkpt><trkpt lat="40.61213" lon="15.049535"><ele>92.33333333333334</ele><time>2026-04-25T09:40:47.998Z</time></trkpt><trkpt lat="40.61207" lon="15.04945"><ele>92.0</ele><time>2026-04-25T09:40:49Z</time></trkpt><trkpt lat="40.6120083" lon="15.049365"><ele>91.6</ele><time>2026-04-25T09:40:50.055Z</time></trkpt><trkpt lat="40.611945" lon="15.0492917"><ele>91.19999999999999</ele><time>2026-04-25T09:40:50.993Z</time></trkpt><trkpt lat="40.6118867" lon="15.0492083"><ele>90.8</ele><time>2026-04-25T09:40:51.989Z</time></trkpt><trkpt lat="40.6118333" lon="15.04913"><ele>90.4</ele><time>2026-04-25T09:40:52.991Z</time></trkpt><trkpt lat="40.6117883" lon="15.0490567"><ele>90.0</ele><time>2026-04-25T09:40:53.999Z</time></trkpt><trkpt lat="40.6117633" lon="15.0488867"><ele>89.2</ele><time>2026-04-25T09:40:56.021Z</time></trkpt><trkpt lat="40.611765" lon="15.0487933"><ele>88.4</ele><time>2026-04-25T09:40:56.988Z</time></trkpt><trkpt lat="40.6117767" lon="15.0487017"><ele>87.6</ele><time>2026-04-25T09:40:58Z</time></trkpt><trkpt lat="40.6117633" lon="15.04855"><ele>86.8</ele><time>2026-04-25T09:40:59.998Z</time></trkpt><trkpt lat="40.6117133" lon="15.0484383"><ele>86.0</ele><time>2026-04-25T09:41:02.05Z</time></trkpt><trkpt lat="40.611615" lon="15.0484033"><ele>86.0</ele><time>2026-04-25T09:41:03.998Z</time></trkpt><trkpt lat="40.6115017" lon="15.048455"><ele>86.0</ele><time>2026-04-25T09:41:05.997Z</time></trkpt><trkpt lat="40.6114217" lon="15.0485683"><ele>86.0</ele><time>2026-04-25T09:41:08.054Z</time></trkpt><trkpt lat="40.611385" lon="15.0487133"><ele>86.0</ele><time>2026-04-25T09:41:09.996Z</time></trkpt><trkpt lat="40.611325" lon="15.0488467"><ele>86.0</ele><time>2026-04-25T09:41:11.999Z</time></trkpt><trkpt lat="40.611275" lon="15.0489017"><ele>86.0</ele><time>2026-04-25T09:41:13.002Z</time></trkpt><trkpt lat="40.611215" lon="15.0489567"><ele>86.0</ele><time>2026-04-25T09:41:14.054Z</time></trkpt><trkpt lat="40.6111517" lon="15.049015"><ele>86.0</ele><time>2026-04-25T09:41:14.988Z</time></trkpt><trkpt lat="40.6110883" lon="15.04908"><ele>86.0</ele><time>2026-04-25T09:41:15.99Z</time></trkpt><trkpt lat="40.6110283" lon="15.0491483"><ele>86.0</ele><time>2026-04-25T09:41:16.999Z</time></trkpt><trkpt lat="40.610975" lon="15.0492167"><ele>86.4</ele><time>2026-04-25T09:41:17.995Z</time></trkpt><trkpt lat="40.6109167" lon="15.0492783"><ele>86.8</ele><time>2026-04-25T09:41:18.995Z</time></trkpt><trkpt lat="40.6108333" lon="15.0493583"><ele>87.2</ele><time>2026-04-25T09:41:20.999Z</time></trkpt><trkpt lat="40.6107483" lon="15.0493833"><ele>87.60000000000001</ele><time>2026-04-25T09:41:23.001Z</time></trkpt><trkpt lat="40.6106583" lon="15.0493183"><ele>88.0</ele><time>2026-04-25T09:41:24.999Z</time></trkpt><trkpt lat="40.6105867" lon="15.0491817"><ele>87.66666666666666</ele><time>2026-04-25T09:41:26.991Z</time></trkpt><trkpt lat="40.610555" lon="15.04909"><ele>87.33333333333333</ele><time>2026-04-25T09:41:27.991Z</time></trkpt><trkpt lat="40.6105283" lon="15.048985"><ele>87.0</ele><time>2026-04-25T09:41:28.998Z</time></trkpt><trkpt lat="40.6105033" lon="15.0488667"><ele>86.66666666666667</ele><time>2026-04-25T09:41:29.991Z</time></trkpt><trkpt lat="40.61049" lon="15.048745"><ele>86.33333333333334</ele><time>2026-04-25T09:41:30.994Z</time></trkpt><trkpt lat="40.6104867" lon="15.0486233"><ele>86.0</ele><time>2026-04-25T09:41:32.051Z</time></trkpt><trkpt lat="40.6104967" lon="15.0485017"><ele>86.0</ele><time>2026-04-25T09:41:32.99Z</time></trkpt><trkpt lat="40.6105133" lon="15.0483867"><ele>86.0</ele><time>2026-04-25T09:41:33.986Z</time></trkpt><trkpt lat="40.6105317" lon="15.048285"><ele>86.0</ele><time>2026-04-25T09:41:34.995Z</time></trkpt><trkpt lat="40.610545" lon="15.0481967"><ele>86.0</ele><time>2026-04-25T09:41:35.993Z</time></trkpt><trkpt lat="40.6105467" lon="15.0481133"><ele>86.0</ele><time>2026-04-25T09:41:36.998Z</time></trkpt><trkpt lat="40.6105017" lon="15.0479667"><ele>86.0</ele><time>2026-04-25T09:41:38.989Z</time></trkpt><trkpt lat="40.6104483" lon="15.0479067"><ele>85.75</ele><time>2026-04-25T09:41:39.996Z</time></trkpt><trkpt lat="40.6103683" lon="15.0478533"><ele>85.5</ele><time>2026-04-25T09:41:40.995Z</time></trkpt><trkpt lat="40.6102583" lon="15.0477883"><ele>85.25</ele><time>2026-04-25T09:41:41.993Z</time></trkpt><trkpt lat="40.6101083" lon="15.0476933"><ele>85.0</ele><time>2026-04-25T09:41:43Z</time></trkpt><trkpt lat="40.6099717" lon="15.0476017"><ele>84.75</ele><time>2026-04-25T09:41:44.06Z</time></trkpt><trkpt lat="40.6098183" lon="15.04753"><ele>84.5</ele><time>2026-04-25T09:41:44.991Z</time></trkpt><trkpt lat="40.6096717" lon="15.0474917"><ele>84.25</ele><time>2026-04-25T09:41:45.997Z</time></trkpt><trkpt lat="40.6095383" lon="15.04746"><ele>84.0</ele><time>2026-04-25T09:41:46.999Z</time></trkpt><trkpt lat="40.609415" lon="15.0474283"><ele>84.0</ele><time>2026-04-25T09:41:47.998Z</time></trkpt><trkpt lat="40.6093217" lon="15.04742"><ele>84.0</ele><time>2026-04-25T09:41:48.998Z</time></trkpt><trkpt lat="40.6092067" lon="15.0474583"><ele>84.0</ele><time>2026-04-25T09:41:50.993Z</time></trkpt><trkpt lat="40.6091417" lon="15.0474933"><ele>84.0</ele><time>2026-04-25T09:41:51.988Z</time></trkpt><trkpt lat="40.6090583" lon="15.0475217"><ele>84.0</ele><time>2026-04-25T09:41:52.99Z</time></trkpt><trkpt lat="40.608955" lon="15.0475533"><ele>83.75</ele><time>2026-04-25T09:41:53.993Z</time></trkpt><trkpt lat="40.6088433" lon="15.0475833"><ele>83.5</ele><time>2026-04-25T09:41:54.998Z</time></trkpt><trkpt lat="40.608725" lon="15.0476117"><ele>83.25</ele><time>2026-04-25T09:41:56.054Z</time></trkpt><trkpt lat="40.6086033" lon="15.0476433"><ele>83.0</ele><time>2026-04-25T09:41:56.992Z</time></trkpt><trkpt lat="40.6084817" lon="15.0476733"><ele>81.80000000000001</ele><time>2026-04-25T09:41:58Z</time></trkpt><trkpt lat="40.6083617" lon="15.0477017"><ele>80.60000000000001</ele><time>2026-04-25T09:41:58.999Z</time></trkpt><trkpt lat="40.6082483" lon="15.0477283"><ele>79.4</ele><time>2026-04-25T09:41:59.994Z</time></trkpt><trkpt lat="40.608145" lon="15.047755"><ele>78.2</ele><time>2026-04-25T09:42:00.998Z</time></trkpt><trkpt lat="40.6080517" lon="15.0477783"><ele>77.0</ele><time>2026-04-25T09:42:02.057Z</time></trkpt><trkpt lat="40.607965" lon="15.0478"><ele>77.0</ele><time>2026-04-25T09:42:02.997Z</time></trkpt><trkpt lat="40.607885" lon="15.0478183"><ele>77.0</ele><time>2026-04-25T09:42:03.998Z</time></trkpt><trkpt lat="40.6078083" lon="15.0478383"><ele>77.0</ele><time>2026-04-25T09:42:04.998Z</time></trkpt><trkpt lat="40.6077317" lon="15.0478533"><ele>77.0</ele><time>2026-04-25T09:42:05.994Z</time></trkpt><trkpt lat="40.6076517" lon="15.0478617"><ele>77.0</ele><time>2026-04-25T09:42:06.99Z</time></trkpt><trkpt lat="40.6075683" lon="15.04787"><ele>77.0</ele><time>2026-04-25T09:42:08.052Z</time></trkpt><trkpt lat="40.6074733" lon="15.0478767"><ele>77.0</ele><time>2026-04-25T09:42:08.994Z</time></trkpt><trkpt lat="40.60737" lon="15.0478883"><ele>77.0</ele><time>2026-04-25T09:42:09.987Z</time></trkpt><trkpt lat="40.6072717" lon="15.04792"><ele>77.0</ele><time>2026-04-25T09:42:10.991Z</time></trkpt><trkpt lat="40.6071517" lon="15.04794"><ele>77.0</ele><time>2026-04-25T09:42:11.996Z</time></trkpt><trkpt lat="40.607045" lon="15.04796"><ele>77.0</ele><time>2026-04-25T09:42:12.995Z</time></trkpt><trkpt lat="40.606945" lon="15.0479667"><ele>76.5</ele><time>2026-04-25T09:42:14.052Z</time></trkpt><trkpt lat="40.6068617" lon="15.0479817"><ele>76.0</ele><time>2026-04-25T09:42:14.991Z</time></trkpt><trkpt lat="40.6067867" lon="15.0479967"><ele>75.5</ele><time>2026-04-25T09:42:15.989Z</time></trkpt><trkpt lat="40.6067117" lon="15.04801"><ele>75.0</ele><time>2026-04-25T09:42:16.995Z</time></trkpt><trkpt lat="40.6066283" lon="15.0480167"><ele>74.5</ele><time>2026-04-25T09:42:17.996Z</time></trkpt><trkpt lat="40.60654" lon="15.0480283"><ele>74.0</ele><time>2026-04-25T09:42:18.991Z</time></trkpt><trkpt lat="40.6064467" lon="15.0480433"><ele>74.0</ele><time>2026-04-25T09:42:20.052Z</time></trkpt><trkpt lat="40.606355" lon="15.0480567"><ele>74.0</ele><time>2026-04-25T09:42:20.992Z</time></trkpt><trkpt lat="40.6062633" lon="15.0480717"><ele>74.0</ele><time>2026-04-25T09:42:21.996Z</time></trkpt><trkpt lat="40.6061783" lon="15.048085"><ele>74.0</ele><time>2026-04-25T09:42:22.997Z</time></trkpt><trkpt lat="40.6061083" lon="15.0480983"><ele>74.0</ele><time>2026-04-25T09:42:23.992Z</time></trkpt><trkpt lat="40.60599" lon="15.0481233"><ele>73.8</ele><time>2026-04-25T09:42:26.057Z</time></trkpt><trkpt lat="40.60587" lon="15.0481367"><ele>73.60000000000001</ele><time>2026-04-25T09:42:27.992Z</time></trkpt><trkpt lat="40.6058067" lon="15.0481533"><ele>73.4</ele><time>2026-04-25T09:42:28.994Z</time></trkpt><trkpt lat="40.6057383" lon="15.04817"><ele>73.2</ele><time>2026-04-25T09:42:29.999Z</time></trkpt><trkpt lat="40.6056167" lon="15.0482"><ele>73.0</ele><time>2026-04-25T09:42:32.05Z</time></trkpt><trkpt lat="40.6055017" lon="15.0482217"><ele>73.0</ele><time>2026-04-25T09:42:33.994Z</time></trkpt><trkpt lat="40.6054083" lon="15.048245"><ele>73.0</ele><time>2026-04-25T09:42:36.001Z</time></trkpt><trkpt lat="40.6053083" lon="15.0482483"><ele>73.0</ele><time>2026-04-25T09:42:44.061Z</time></trkpt><trkpt lat="40.605245" lon="15.0482633"><ele>73.0</ele><time>2026-04-25T09:42:44.991Z</time></trkpt><trkpt lat="40.6051817" lon="15.04828"><ele>73.0</ele><time>2026-04-25T09:42:45.988Z</time></trkpt><trkpt lat="40.60511" lon="15.048295"><ele>73.0</ele><time>2026-04-25T09:42:46.993Z</time></trkpt><trkpt lat="40.6050367" lon="15.048305"><ele>72.85714285714286</ele><time>2026-04-25T09:42:47.991Z</time></trkpt><trkpt lat="40.6049667" lon="15.0483133"><ele>72.71428571428572</ele><time>2026-04-25T09:42:48.987Z</time></trkpt><trkpt lat="40.6048917" lon="15.0483217"><ele>72.57142857142858</ele><time>2026-04-25T09:42:50.055Z</time></trkpt><trkpt lat="40.6048133" lon="15.0483333"><ele>72.42857142857143</ele><time>2026-04-25T09:42:50.997Z</time></trkpt><trkpt lat="40.604745" lon="15.04835"><ele>72.28571428571429</ele><time>2026-04-25T09:42:51.992Z</time></trkpt><trkpt lat="40.6046683" lon="15.0483617"><ele>72.14285714285715</ele><time>2026-04-25T09:42:52.999Z</time></trkpt><trkpt lat="40.604595" lon="15.048375"><ele>72.0</ele><time>2026-04-25T09:42:53.996Z</time></trkpt><trkpt lat="40.6045183" lon="15.0483833"><ele>72.0</ele><time>2026-04-25T09:42:54.995Z</time></trkpt><trkpt lat="40.6044417" lon="15.0483933"><ele>72.0</ele><time>2026-04-25T09:42:56.058Z</time></trkpt><trkpt lat="40.60437" lon="15.0484133"><ele>72.0</ele><time>2026-04-25T09:42:56.991Z</time></trkpt><trkpt lat="40.6043017" lon="15.04843"><ele>72.0</ele><time>2026-04-25T09:42:57.996Z</time></trkpt><trkpt lat="40.6042283" lon="15.04845"><ele>72.0</ele><time>2026-04-25T09:42:58.992Z</time></trkpt><trkpt lat="40.604145" lon="15.048475"><ele>72.0</ele><time>2026-04-25T09:43:00.005Z</time></trkpt><trkpt lat="40.6040533" lon="15.0484917"><ele>72.0</ele><time>2026-04-25T09:43:00.998Z</time></trkpt><trkpt lat="40.6039567" lon="15.0485083"><ele>72.0</ele><time>2026-04-25T09:43:02.055Z</time></trkpt><trkpt lat="40.6038467" lon="15.04852"><ele>72.0</ele><time>2026-04-25T09:43:02.997Z</time></trkpt><trkpt lat="40.6037183" lon="15.0485283"><ele>72.0</ele><time>2026-04-25T09:43:03.993Z</time></trkpt><trkpt lat="40.6035867" lon="15.048535"><ele>71.75</ele><time>2026-04-25T09:43:04.991Z</time></trkpt><trkpt lat="40.6034633" lon="15.048545"><ele>71.5</ele><time>2026-04-25T09:43:05.997Z</time></trkpt><trkpt lat="40.60335" lon="15.0485633"><ele>71.25</ele><time>2026-04-25T09:43:06.994Z</time></trkpt><trkpt lat="40.6032383" lon="15.0485817"><ele>71.0</ele><time>2026-04-25T09:43:08.056Z</time></trkpt><trkpt lat="40.6031333" lon="15.0486"><ele>71.0</ele><time>2026-04-25T09:43:08.993Z</time></trkpt><trkpt lat="40.6030267" lon="15.0486217"><ele>71.0</ele><time>2026-04-25T09:43:09.997Z</time></trkpt><trkpt lat="40.602915" lon="15.0486433"><ele>71.0</ele><time>2026-04-25T09:43:11.003Z</time></trkpt><trkpt lat="40.602805" lon="15.048655"><ele>71.0</ele><time>2026-04-25T09:43:11.993Z</time></trkpt><trkpt lat="40.60269" lon="15.0486633"><ele>71.0</ele><time>2026-04-25T09:43:12.995Z</time></trkpt><trkpt lat="40.6025717" lon="15.04867"><ele>70.0</ele><time>2026-04-25T09:43:14.063Z</time></trkpt><trkpt lat="40.6024367" lon="15.0486767"><ele>69.0</ele><time>2026-04-25T09:43:14.989Z</time></trkpt><trkpt lat="40.6023067" lon="15.0486717"><ele>68.0</ele><time>2026-04-25T09:43:15.998Z</time></trkpt><trkpt lat="40.60217" lon="15.04866"><ele>67.0</ele><time>2026-04-25T09:43:16.996Z</time></trkpt><trkpt lat="40.6020167" lon="15.0486467"><ele>66.66666666666666</ele><time>2026-04-25T09:43:17.999Z</time></trkpt><trkpt lat="40.60185" lon="15.0486383"><ele>66.33333333333333</ele><time>2026-04-25T09:43:18.998Z</time></trkpt><trkpt lat="40.60168" lon="15.048625"><ele>66.0</ele><time>2026-04-25T09:43:20.052Z</time></trkpt><trkpt lat="40.601505" lon="15.0486083"><ele>66.0</ele><time>2026-04-25T09:43:20.991Z</time></trkpt><trkpt lat="40.60133" lon="15.0486033"><ele>66.0</ele><time>2026-04-25T09:43:22.001Z</time></trkpt><trkpt lat="40.6011517" lon="15.0486033"><ele>66.0</ele><time>2026-04-25T09:43:23Z</time></trkpt><trkpt lat="40.6009617" lon="15.04861"><ele>66.0</ele><time>2026-04-25T09:43:23.994Z</time></trkpt><trkpt lat="40.60077" lon="15.0486183"><ele>66.0</ele><time>2026-04-25T09:43:24.997Z</time></trkpt><trkpt lat="40.6005733" lon="15.048635"><ele>66.0</ele><time>2026-04-25T09:43:26.057Z</time></trkpt><trkpt lat="40.6003683" lon="15.04865"><ele>65.33333333333333</ele><time>2026-04-25T09:43:26.993Z</time></trkpt><trkpt lat="40.600155" lon="15.0486683"><ele>64.66666666666666</ele><time>2026-04-25T09:43:27.992Z</time></trkpt><trkpt lat="40.5999517" lon="15.048685"><ele>64.0</ele><time>2026-04-25T09:43:28.998Z</time></trkpt><trkpt lat="40.5997583" lon="15.0487"><ele>64.0</ele><time>2026-04-25T09:43:30Z</time></trkpt><trkpt lat="40.59957" lon="15.048715"><ele>64.0</ele><time>2026-04-25T09:43:31.002Z</time></trkpt><trkpt lat="40.5993833" lon="15.0487333"><ele>64.0</ele><time>2026-04-25T09:43:32.055Z</time></trkpt><trkpt lat="40.5991883" lon="15.0487517"><ele>63.0</ele><time>2026-04-25T09:43:32.993Z</time></trkpt><trkpt lat="40.5989867" lon="15.0487633"><ele>62.0</ele><time>2026-04-25T09:43:33.989Z</time></trkpt><trkpt lat="40.5987783" lon="15.0487767"><ele>61.0</ele><time>2026-04-25T09:43:34.992Z</time></trkpt><trkpt lat="40.5985717" lon="15.048785"><ele>60.33333333333333</ele><time>2026-04-25T09:43:35.988Z</time></trkpt><trkpt lat="40.598375" lon="15.0487967"><ele>59.66666666666667</ele><time>2026-04-25T09:43:36.997Z</time></trkpt><trkpt lat="40.598185" lon="15.04882"><ele>59.0</ele><time>2026-04-25T09:43:38.057Z</time></trkpt><trkpt lat="40.5980133" lon="15.0488517"><ele>59.0</ele><time>2026-04-25T09:43:38.994Z</time></trkpt><trkpt lat="40.5978417" lon="15.048895"><ele>59.0</ele><time>2026-04-25T09:43:39.997Z</time></trkpt><trkpt lat="40.597675" lon="15.04895"><ele>59.0</ele><time>2026-04-25T09:43:40.991Z</time></trkpt><trkpt lat="40.5975133" lon="15.049005"><ele>58.66666666666667</ele><time>2026-04-25T09:43:41.995Z</time></trkpt><trkpt lat="40.597355" lon="15.0490533"><ele>58.33333333333333</ele><time>2026-04-25T09:43:42.994Z</time></trkpt><trkpt lat="40.5971883" lon="15.049095"><ele>58.0</ele><time>2026-04-25T09:43:44.049Z</time></trkpt><trkpt lat="40.5970167" lon="15.0491383"><ele>57.33333333333333</ele><time>2026-04-25T09:43:44.992Z</time></trkpt><trkpt lat="40.596845" lon="15.0491867"><ele>56.66666666666667</ele><time>2026-04-25T09:43:45.992Z</time></trkpt><trkpt lat="40.596675" lon="15.0492383"><ele>56.0</ele><time>2026-04-25T09:43:46.988Z</time></trkpt><trkpt lat="40.5965017" lon="15.0492983"><ele>56.0</ele><time>2026-04-25T09:43:47.99Z</time></trkpt><trkpt lat="40.5963283" lon="15.0493683"><ele>56.0</ele><time>2026-04-25T09:43:48.996Z</time></trkpt><trkpt lat="40.596155" lon="15.0494367"><ele>56.0</ele><time>2026-04-25T09:43:50.054Z</time></trkpt><trkpt lat="40.5959867" lon="15.0495117"><ele>55.66666666666667</ele><time>2026-04-25T09:43:50.989Z</time></trkpt><trkpt lat="40.59582" lon="15.0495933"><ele>55.33333333333333</ele><time>2026-04-25T09:43:51.99Z</time></trkpt><trkpt lat="40.59565" lon="15.0496783"><ele>55.0</ele><time>2026-04-25T09:43:52.99Z</time></trkpt><trkpt lat="40.59548" lon="15.0497567"><ele>54.33333333333333</ele><time>2026-04-25T09:43:53.988Z</time></trkpt><trkpt lat="40.59531" lon="15.049835"><ele>53.66666666666667</ele><time>2026-04-25T09:43:54.987Z</time></trkpt><trkpt lat="40.59514" lon="15.0499017"><ele>53.0</ele><time>2026-04-25T09:43:56.059Z</time></trkpt><trkpt lat="40.5949633" lon="15.04996"><ele>53.0</ele><time>2026-04-25T09:43:56.995Z</time></trkpt><trkpt lat="40.5947817" lon="15.0500017"><ele>53.0</ele><time>2026-04-25T09:43:57.993Z</time></trkpt><trkpt lat="40.5945983" lon="15.0500233"><ele>53.0</ele><time>2026-04-25T09:43:58.992Z</time></trkpt><trkpt lat="40.594415" lon="15.05003"><ele>52.66666666666667</ele><time>2026-04-25T09:43:59.991Z</time></trkpt><trkpt lat="40.594225" lon="15.05002"><ele>52.33333333333333</ele><time>2026-04-25T09:44:01.004Z</time></trkpt><trkpt lat="40.5940333" lon="15.049995"><ele>52.0</ele><time>2026-04-25T09:44:02.059Z</time></trkpt><trkpt lat="40.5938467" lon="15.0499633"><ele>51.666666666666664</ele><time>2026-04-25T09:44:02.994Z</time></trkpt><trkpt lat="40.5936617" lon="15.0499183"><ele>51.33333333333333</ele><time>2026-04-25T09:44:03.991Z</time></trkpt><trkpt lat="40.593485" lon="15.0498617"><ele>51.0</ele><time>2026-04-25T09:44:05Z</time></trkpt><trkpt lat="40.59331" lon="15.0497867"><ele>51.0</ele><time>2026-04-25T09:44:05.996Z</time></trkpt><trkpt lat="40.5931417" lon="15.049685"><ele>51.0</ele><time>2026-04-25T09:44:07.004Z</time></trkpt><trkpt lat="40.592975" lon="15.0495717"><ele>51.0</ele><time>2026-04-25T09:44:08.053Z</time></trkpt><trkpt lat="40.5928083" lon="15.0494517"><ele>50.66666666666667</ele><time>2026-04-25T09:44:08.993Z</time></trkpt><trkpt lat="40.5926317" lon="15.04933"><ele>50.333333333333336</ele><time>2026-04-25T09:44:09.992Z</time></trkpt><trkpt lat="40.5924417" lon="15.0492167"><ele>50.0</ele><time>2026-04-25T09:44:10.988Z</time></trkpt><trkpt lat="40.5922417" lon="15.0491083"><ele>50.0</ele><time>2026-04-25T09:44:11.991Z</time></trkpt><trkpt lat="40.5920367" lon="15.0490233"><ele>50.0</ele><time>2026-04-25T09:44:12.998Z</time></trkpt><trkpt lat="40.591835" lon="15.04896"><ele>50.0</ele><time>2026-04-25T09:44:14.056Z</time></trkpt><trkpt lat="40.5916283" lon="15.0489133"><ele>49.66666666666667</ele><time>2026-04-25T09:44:14.995Z</time></trkpt><trkpt lat="40.5914183" lon="15.0488733"><ele>49.33333333333333</ele><time>2026-04-25T09:44:16Z</time></trkpt><trkpt lat="40.5912183" lon="15.048835"><ele>49.0</ele><time>2026-04-25T09:44:16.993Z</time></trkpt><trkpt lat="40.5910267" lon="15.0487967"><ele>48.666666666666664</ele><time>2026-04-25T09:44:17.989Z</time></trkpt><trkpt lat="40.5908417" lon="15.0487567"><ele>48.33333333333333</ele><time>2026-04-25T09:44:18.997Z</time></trkpt><trkpt lat="40.5906583" lon="15.048715"><ele>48.0</ele><time>2026-04-25T09:44:20.05Z</time></trkpt><trkpt lat="40.5904683" lon="15.04867"><ele>47.333333333333336</ele><time>2026-04-25T09:44:20.99Z</time></trkpt><trkpt lat="40.5902767" lon="15.0486283"><ele>46.66666666666667</ele><time>2026-04-25T09:44:21.992Z</time></trkpt><trkpt lat="40.590085" lon="15.048585"><ele>46.0</ele><time>2026-04-25T09:44:22.991Z</time></trkpt><trkpt lat="40.5898917" lon="15.04853"><ele>46.0</ele><time>2026-04-25T09:44:23.992Z</time></trkpt><trkpt lat="40.589695" lon="15.0484717"><ele>46.0</ele><time>2026-04-25T09:44:24.997Z</time></trkpt><trkpt lat="40.5894983" lon="15.048415"><ele>46.0</ele><time>2026-04-25T09:44:26.06Z</time></trkpt><trkpt lat="40.5893" lon="15.0483633"><ele>45.66666666666667</ele><time>2026-04-25T09:44:26.991Z</time></trkpt><trkpt lat="40.589105" lon="15.0483117"><ele>45.333333333333336</ele><time>2026-04-25T09:44:27.989Z</time></trkpt><trkpt lat="40.5889117" lon="15.0482617"><ele>45.0</ele><time>2026-04-25T09:44:28.992Z</time></trkpt><trkpt lat="40.5887267" lon="15.0482117"><ele>44.333333333333336</ele><time>2026-04-25T09:44:29.988Z</time></trkpt><trkpt lat="40.5885533" lon="15.0481617"><ele>43.66666666666667</ele><time>2026-04-25T09:44:30.992Z</time></trkpt><trkpt lat="40.5883883" lon="15.04811"><ele>43.0</ele><time>2026-04-25T09:44:32.06Z</time></trkpt><trkpt lat="40.5882333" lon="15.0480617"><ele>43.0</ele><time>2026-04-25T09:44:32.986Z</time></trkpt><trkpt lat="40.58808" lon="15.04802"><ele>43.0</ele><time>2026-04-25T09:44:33.996Z</time></trkpt><trkpt lat="40.5879283" lon="15.0479833"><ele>43.0</ele><time>2026-04-25T09:44:34.995Z</time></trkpt><trkpt lat="40.5877717" lon="15.0479483"><ele>43.333333333333336</ele><time>2026-04-25T09:44:35.994Z</time></trkpt><trkpt lat="40.58761" lon="15.0479033"><ele>43.666666666666664</ele><time>2026-04-25T09:44:36.999Z</time></trkpt><trkpt lat="40.5874483" lon="15.0478517"><ele>44.0</ele><time>2026-04-25T09:44:38.052Z</time></trkpt><trkpt lat="40.5872867" lon="15.047795"><ele>44.0</ele><time>2026-04-25T09:44:38.989Z</time></trkpt><trkpt lat="40.5871183" lon="15.04773"><ele>44.0</ele><time>2026-04-25T09:44:39.993Z</time></trkpt><trkpt lat="40.5869467" lon="15.0476683"><ele>44.0</ele><time>2026-04-25T09:44:40.997Z</time></trkpt><trkpt lat="40.5867717" lon="15.047615"><ele>43.666666666666664</ele><time>2026-04-25T09:44:41.99Z</time></trkpt><trkpt lat="40.5866" lon="15.0475683"><ele>43.333333333333336</ele><time>2026-04-25T09:44:42.996Z</time></trkpt><trkpt lat="40.5864283" lon="15.0475433"><ele>43.0</ele><time>2026-04-25T09:44:44.051Z</time></trkpt><trkpt lat="40.5862517" lon="15.0475467"><ele>43.0</ele><time>2026-04-25T09:44:44.992Z</time></trkpt><trkpt lat="40.5860717" lon="15.0475733"><ele>43.0</ele><time>2026-04-25T09:44:45.994Z</time></trkpt><trkpt lat="40.58588" lon="15.0476233"><ele>43.0</ele><time>2026-04-25T09:44:46.994Z</time></trkpt><trkpt lat="40.58567" lon="15.0476833"><ele>43.0</ele><time>2026-04-25T09:44:47.998Z</time></trkpt><trkpt lat="40.58546" lon="15.047745"><ele>43.0</ele><time>2026-04-25T09:44:48.998Z</time></trkpt><trkpt lat="40.5852633" lon="15.0478067"><ele>43.0</ele><time>2026-04-25T09:44:50.048Z</time></trkpt><trkpt lat="40.585075" lon="15.0478667"><ele>42.66666666666667</ele><time>2026-04-25T09:44:50.988Z</time></trkpt><trkpt lat="40.5848883" lon="15.047925"><ele>42.333333333333336</ele><time>2026-04-25T09:44:51.993Z</time></trkpt><trkpt lat="40.5846983" lon="15.047995"><ele>42.0</ele><time>2026-04-25T09:44:52.993Z</time></trkpt><trkpt lat="40.5845067" lon="15.0480717"><ele>42.0</ele><time>2026-04-25T09:44:53.99Z</time></trkpt><trkpt lat="40.5843183" lon="15.048155"><ele>42.0</ele><time>2026-04-25T09:44:54.997Z</time></trkpt><trkpt lat="40.5841333" lon="15.0482367"><ele>42.0</ele><time>2026-04-25T09:44:56.056Z</time></trkpt><trkpt lat="40.58395" lon="15.0483183"><ele>41.333333333333336</ele><time>2026-04-25T09:44:56.997Z</time></trkpt><trkpt lat="40.5837683" lon="15.048395"><ele>40.66666666666667</ele><time>2026-04-25T09:44:57.987Z</time></trkpt><trkpt lat="40.583585" lon="15.0484733"><ele>40.0</ele><time>2026-04-25T09:44:58.995Z</time></trkpt><trkpt lat="40.583405" lon="15.0485483"><ele>40.0</ele><time>2026-04-25T09:44:59.991Z</time></trkpt><trkpt lat="40.583225" lon="15.048625"><ele>40.0</ele><time>2026-04-25T09:45:01Z</time></trkpt><trkpt lat="40.5830467" lon="15.0487017"><ele>40.0</ele><time>2026-04-25T09:45:02.049Z</time></trkpt><trkpt lat="40.5828733" lon="15.048775"><ele>39.66666666666667</ele><time>2026-04-25T09:45:02.99Z</time></trkpt><trkpt lat="40.582705" lon="15.0488417"><ele>39.333333333333336</ele><time>2026-04-25T09:45:03.991Z</time></trkpt><trkpt lat="40.5825383" lon="15.04891"><ele>39.0</ele><time>2026-04-25T09:45:04.997Z</time></trkpt><trkpt lat="40.5823767" lon="15.0489733"><ele>39.0</ele><time>2026-04-25T09:45:05.988Z</time></trkpt><trkpt lat="40.58222" lon="15.0490317"><ele>39.0</ele><time>2026-04-25T09:45:06.99Z</time></trkpt><trkpt lat="40.582075" lon="15.0490883"><ele>39.0</ele><time>2026-04-25T09:45:08.055Z</time></trkpt><trkpt lat="40.5819367" lon="15.0491383"><ele>38.5</ele><time>2026-04-25T09:45:08.989Z</time></trkpt><trkpt lat="40.5818017" lon="15.049175"><ele>38.0</ele><time>2026-04-25T09:45:09.997Z</time></trkpt><trkpt lat="40.5816717" lon="15.0492017"><ele>37.5</ele><time>2026-04-25T09:45:11Z</time></trkpt><trkpt lat="40.5815467" lon="15.0492167"><ele>37.0</ele><time>2026-04-25T09:45:11.992Z</time></trkpt><trkpt lat="40.58142" lon="15.0492267"><ele>37.0</ele><time>2026-04-25T09:45:13.002Z</time></trkpt><trkpt lat="40.5812867" lon="15.049235"><ele>37.0</ele><time>2026-04-25T09:45:14.053Z</time></trkpt><trkpt lat="40.58114" lon="15.0492517"><ele>37.0</ele><time>2026-04-25T09:45:14.994Z</time></trkpt><trkpt lat="40.58099" lon="15.0492717"><ele>37.0</ele><time>2026-04-25T09:45:15.989Z</time></trkpt><trkpt lat="40.58084" lon="15.04929"><ele>37.5</ele><time>2026-04-25T09:45:16.994Z</time></trkpt><trkpt lat="40.58069" lon="15.0492933"><ele>38.0</ele><time>2026-04-25T09:45:18.004Z</time></trkpt><trkpt lat="40.5805417" lon="15.0492917"><ele>38.5</ele><time>2026-04-25T09:45:18.998Z</time></trkpt><trkpt lat="40.5803967" lon="15.049285"><ele>39.0</ele><time>2026-04-25T09:45:20.056Z</time></trkpt><trkpt lat="40.5802433" lon="15.0492733"><ele>39.25</ele><time>2026-04-25T09:45:20.991Z</time></trkpt><trkpt lat="40.5800867" lon="15.0492583"><ele>39.5</ele><time>2026-04-25T09:45:21.994Z</time></trkpt><trkpt lat="40.5799367" lon="15.0492367"><ele>39.75</ele><time>2026-04-25T09:45:23.001Z</time></trkpt><trkpt lat="40.5798017" lon="15.0492033"><ele>40.0</ele><time>2026-04-25T09:45:23.997Z</time></trkpt><trkpt lat="40.5796767" lon="15.04916"><ele>40.25</ele><time>2026-04-25T09:45:24.993Z</time></trkpt><trkpt lat="40.579555" lon="15.0491067"><ele>40.5</ele><time>2026-04-25T09:45:26.049Z</time></trkpt><trkpt lat="40.5794333" lon="15.0490383"><ele>40.75</ele><time>2026-04-25T09:45:26.99Z</time></trkpt><trkpt lat="40.57932" lon="15.0489567"><ele>41.0</ele><time>2026-04-25T09:45:27.988Z</time></trkpt><trkpt lat="40.5792117" lon="15.0488583"><ele>41.75</ele><time>2026-04-25T09:45:28.995Z</time></trkpt><trkpt lat="40.5791133" lon="15.048755"><ele>42.5</ele><time>2026-04-25T09:45:29.997Z</time></trkpt><trkpt lat="40.5790167" lon="15.04865"><ele>43.25</ele><time>2026-04-25T09:45:30.999Z</time></trkpt><trkpt lat="40.578925" lon="15.04854"><ele>44.0</ele><time>2026-04-25T09:45:32.051Z</time></trkpt><trkpt lat="40.5788333" lon="15.04843"><ele>44.0</ele><time>2026-04-25T09:45:32.986Z</time></trkpt><trkpt lat="40.57874" lon="15.04832"><ele>44.0</ele><time>2026-04-25T09:45:33.995Z</time></trkpt><trkpt lat="40.5786467" lon="15.0482117"><ele>44.0</ele><time>2026-04-25T09:45:35Z</time></trkpt><trkpt lat="40.578555" lon="15.0481"><ele>44.0</ele><time>2026-04-25T09:45:35.993Z</time></trkpt><trkpt lat="40.5784683" lon="15.0479867"><ele>44.0</ele><time>2026-04-25T09:45:36.993Z</time></trkpt><trkpt lat="40.5783833" lon="15.047875"><ele>44.0</ele><time>2026-04-25T09:45:38.051Z</time></trkpt><trkpt lat="40.5782983" lon="15.0477633"><ele>44.0</ele><time>2026-04-25T09:45:38.994Z</time></trkpt><trkpt lat="40.5782133" lon="15.0476467"><ele>44.0</ele><time>2026-04-25T09:45:39.996Z</time></trkpt><trkpt lat="40.5781217" lon="15.0475433"><ele>44.0</ele><time>2026-04-25T09:45:40.994Z</time></trkpt><trkpt lat="40.5780283" lon="15.0474533"><ele>44.0</ele><time>2026-04-25T09:45:41.994Z</time></trkpt><trkpt lat="40.57793" lon="15.0473783"><ele>44.0</ele><time>2026-04-25T09:45:42.99Z</time></trkpt><trkpt lat="40.5778183" lon="15.0473117"><ele>44.0</ele><time>2026-04-25T09:45:44.052Z</time></trkpt><trkpt lat="40.5776933" lon="15.0472583"><ele>44.0</ele><time>2026-04-25T09:45:44.992Z</time></trkpt><trkpt lat="40.5775633" lon="15.04721"><ele>44.0</ele><time>2026-04-25T09:45:45.988Z</time></trkpt><trkpt lat="40.5774283" lon="15.0471617"><ele>44.0</ele><time>2026-04-25T09:45:46.998Z</time></trkpt><trkpt lat="40.5772983" lon="15.0471117"><ele>44.0</ele><time>2026-04-25T09:45:47.992Z</time></trkpt><trkpt lat="40.5771733" lon="15.0470617"><ele>44.0</ele><time>2026-04-25T09:45:49Z</time></trkpt><trkpt lat="40.57705" lon="15.0470133"><ele>44.0</ele><time>2026-04-25T09:45:50.049Z</time></trkpt><trkpt lat="40.5769283" lon="15.04697"><ele>44.0</ele><time>2026-04-25T09:45:50.987Z</time></trkpt><trkpt lat="40.57681" lon="15.0469283"><ele>44.0</ele><time>2026-04-25T09:45:51.991Z</time></trkpt><trkpt lat="40.5767" lon="15.046895"><ele>44.0</ele><time>2026-04-25T09:45:52.996Z</time></trkpt><trkpt lat="40.5765917" lon="15.04686"><ele>44.0</ele><time>2026-04-25T09:45:53.989Z</time></trkpt><trkpt lat="40.57648" lon="15.046825"><ele>44.0</ele><time>2026-04-25T09:45:55Z</time></trkpt><trkpt lat="40.5763583" lon="15.04679"><ele>44.0</ele><time>2026-04-25T09:45:56.052Z</time></trkpt><trkpt lat="40.5762283" lon="15.0467483"><ele>43.75</ele><time>2026-04-25T09:45:56.988Z</time></trkpt><trkpt lat="40.5761017" lon="15.0467083"><ele>43.5</ele><time>2026-04-25T09:45:57.992Z</time></trkpt><trkpt lat="40.575975" lon="15.0466617"><ele>43.25</ele><time>2026-04-25T09:45:58.992Z</time></trkpt><trkpt lat="40.575845" lon="15.0466"><ele>43.0</ele><time>2026-04-25T09:45:59.988Z</time></trkpt><trkpt lat="40.575715" lon="15.0465133"><ele>43.0</ele><time>2026-04-25T09:46:00.991Z</time></trkpt><trkpt lat="40.5755833" lon="15.0464133"><ele>43.0</ele><time>2026-04-25T09:46:02.052Z</time></trkpt><trkpt lat="40.575445" lon="15.04631"><ele>43.0</ele><time>2026-04-25T09:46:02.99Z</time></trkpt><trkpt lat="40.5753133" lon="15.04621"><ele>43.333333333333336</ele><time>2026-04-25T09:46:03.994Z</time></trkpt><trkpt lat="40.5751817" lon="15.0461283"><ele>43.666666666666664</ele><time>2026-04-25T09:46:04.996Z</time></trkpt><trkpt lat="40.57504" lon="15.0460533"><ele>44.0</ele><time>2026-04-25T09:46:06.003Z</time></trkpt><trkpt lat="40.5748833" lon="15.0459917"><ele>44.0</ele><time>2026-04-25T09:46:07Z</time></trkpt><trkpt lat="40.5747167" lon="15.04593"><ele>44.0</ele><time>2026-04-25T09:46:08.054Z</time></trkpt><trkpt lat="40.574545" lon="15.0458667"><ele>44.0</ele><time>2026-04-25T09:46:08.987Z</time></trkpt><trkpt lat="40.574365" lon="15.045805"><ele>44.0</ele><time>2026-04-25T09:46:09.993Z</time></trkpt><trkpt lat="40.5741833" lon="15.0457467"><ele>44.0</ele><time>2026-04-25T09:46:10.992Z</time></trkpt><trkpt lat="40.57399" lon="15.0456883"><ele>44.0</ele><time>2026-04-25T09:46:11.993Z</time></trkpt><trkpt lat="40.57379" lon="15.0456267"><ele>43.666666666666664</ele><time>2026-04-25T09:46:13Z</time></trkpt><trkpt lat="40.5735917" lon="15.045565"><ele>43.333333333333336</ele><time>2026-04-25T09:46:14.051Z</time></trkpt><trkpt lat="40.5733983" lon="15.045505"><ele>43.0</ele><time>2026-04-25T09:46:14.994Z</time></trkpt><trkpt lat="40.5732083" lon="15.0454433"><ele>43.0</ele><time>2026-04-25T09:46:15.998Z</time></trkpt><trkpt lat="40.5730167" lon="15.0453817"><ele>43.0</ele><time>2026-04-25T09:46:17.001Z</time></trkpt><trkpt lat="40.5728233" lon="15.04532"><ele>43.0</ele><time>2026-04-25T09:46:17.996Z</time></trkpt><trkpt lat="40.572625" lon="15.0452567"><ele>43.0</ele><time>2026-04-25T09:46:18.996Z</time></trkpt><trkpt lat="40.5724233" lon="15.045195"><ele>43.0</ele><time>2026-04-25T09:46:20.051Z</time></trkpt><trkpt lat="40.5722233" lon="15.0451383"><ele>43.0</ele><time>2026-04-25T09:46:20.999Z</time></trkpt><trkpt lat="40.5720183" lon="15.0450867"><ele>43.0</ele><time>2026-04-25T09:46:22.004Z</time></trkpt><trkpt lat="40.5718117" lon="15.04504"><ele>43.0</ele><time>2026-04-25T09:46:22.996Z</time></trkpt><trkpt lat="40.5715917" lon="15.0449983"><ele>43.0</ele><time>2026-04-25T09:46:23.994Z</time></trkpt><trkpt lat="40.57136" lon="15.0449683"><ele>42.0</ele><time>2026-04-25T09:46:24.991Z</time></trkpt><trkpt lat="40.571115" lon="15.0449367"><ele>41.0</ele><time>2026-04-25T09:46:26.059Z</time></trkpt><trkpt lat="40.5708517" lon="15.0449017"><ele>41.0</ele><time>2026-04-25T09:46:26.993Z</time></trkpt><trkpt lat="40.5705817" lon="15.0448617"><ele>41.0</ele><time>2026-04-25T09:46:27.995Z</time></trkpt><trkpt lat="40.5703233" lon="15.0448167"><ele>41.5</ele><time>2026-04-25T09:46:29.002Z</time></trkpt><trkpt lat="40.570085" lon="15.044775"><ele>42.0</ele><time>2026-04-25T09:46:29.999Z</time></trkpt><trkpt lat="40.5698633" lon="15.0447317"><ele>42.0</ele><time>2026-04-25T09:46:31.002Z</time></trkpt><trkpt lat="40.5696467" lon="15.044695"><ele>42.0</ele><time>2026-04-25T09:46:32.055Z</time></trkpt><trkpt lat="40.5694317" lon="15.0446633"><ele>42.0</ele><time>2026-04-25T09:46:32.994Z</time></trkpt><trkpt lat="40.5692233" lon="15.0446383"><ele>42.333333333333336</ele><time>2026-04-25T09:46:33.995Z</time></trkpt><trkpt lat="40.569015" lon="15.0446167"><ele>42.66666666666667</ele><time>2026-04-25T09:46:34.987Z</time></trkpt><trkpt lat="40.5688033" lon="15.0446033"><ele>43.0</ele><time>2026-04-25T09:46:36.011Z</time></trkpt><trkpt lat="40.56859" lon="15.0445933"><ele>43.333333333333336</ele><time>2026-04-25T09:46:36.998Z</time></trkpt><trkpt lat="40.5683767" lon="15.0445883"><ele>43.666666666666664</ele><time>2026-04-25T09:46:38.058Z</time></trkpt><trkpt lat="40.56816" lon="15.0445883"><ele>44.0</ele><time>2026-04-25T09:46:38.99Z</time></trkpt><trkpt lat="40.5679417" lon="15.0445833"><ele>43.666666666666664</ele><time>2026-04-25T09:46:39.99Z</time></trkpt><trkpt lat="40.5677233" lon="15.0445767"><ele>43.333333333333336</ele><time>2026-04-25T09:46:41.002Z</time></trkpt><trkpt lat="40.5675117" lon="15.0445633"><ele>43.0</ele><time>2026-04-25T09:46:41.993Z</time></trkpt><trkpt lat="40.5673" lon="15.044555"><ele>43.0</ele><time>2026-04-25T09:46:43.001Z</time></trkpt><trkpt lat="40.5670933" lon="15.0445483"><ele>43.0</ele><time>2026-04-25T09:46:44.059Z</time></trkpt><trkpt lat="40.5668883" lon="15.0445417"><ele>43.0</ele><time>2026-04-25T09:46:44.994Z</time></trkpt><trkpt lat="40.566685" lon="15.044535"><ele>43.0</ele><time>2026-04-25T09:46:45.996Z</time></trkpt><trkpt lat="40.5664833" lon="15.0445267"><ele>43.0</ele><time>2026-04-25T09:46:47Z</time></trkpt><trkpt lat="40.5662783" lon="15.0445183"><ele>43.0</ele><time>2026-04-25T09:46:47.995Z</time></trkpt><trkpt lat="40.56607" lon="15.0445133"><ele>43.0</ele><time>2026-04-25T09:46:49.002Z</time></trkpt><trkpt lat="40.56586" lon="15.0445117"><ele>43.0</ele><time>2026-04-25T09:46:50.052Z</time></trkpt><trkpt lat="40.5656483" lon="15.04452"><ele>43.0</ele><time>2026-04-25T09:46:50.988Z</time></trkpt><trkpt lat="40.5654367" lon="15.0445333"><ele>42.333333333333336</ele><time>2026-04-25T09:46:51.993Z</time></trkpt><trkpt lat="40.5652233" lon="15.044555"><ele>41.666666666666664</ele><time>2026-04-25T09:46:52.997Z</time></trkpt><trkpt lat="40.565015" lon="15.0445733"><ele>41.0</ele><time>2026-04-25T09:46:53.991Z</time></trkpt><trkpt lat="40.5648167" lon="15.0445917"><ele>41.0</ele><time>2026-04-25T09:46:54.996Z</time></trkpt><trkpt lat="40.56462" lon="15.0446083"><ele>41.0</ele><time>2026-04-25T09:46:56.051Z</time></trkpt><trkpt lat="40.5644183" lon="15.0446283"><ele>41.0</ele><time>2026-04-25T09:46:56.989Z</time></trkpt><trkpt lat="40.564205" lon="15.0446517"><ele>41.5</ele><time>2026-04-25T09:46:57.995Z</time></trkpt><trkpt lat="40.5639817" lon="15.0446733"><ele>42.0</ele><time>2026-04-25T09:46:58.995Z</time></trkpt><trkpt lat="40.5637433" lon="15.044695"><ele>42.5</ele><time>2026-04-25T09:46:59.996Z</time></trkpt><trkpt lat="40.563505" lon="15.0447167"><ele>43.0</ele><time>2026-04-25T09:47:00.999Z</time></trkpt><trkpt lat="40.563285" lon="15.0447283"><ele>43.0</ele><time>2026-04-25T09:47:02.057Z</time></trkpt><trkpt lat="40.563085" lon="15.044735"><ele>43.0</ele><time>2026-04-25T09:47:02.99Z</time></trkpt><trkpt lat="40.5629017" lon="15.0447167"><ele>43.0</ele><time>2026-04-25T09:47:03.995Z</time></trkpt><trkpt lat="40.56272" lon="15.044685"><ele>42.66666666666667</ele><time>2026-04-25T09:47:04.999Z</time></trkpt><trkpt lat="40.5625417" lon="15.04463"><ele>42.333333333333336</ele><time>2026-04-25T09:47:05.987Z</time></trkpt><trkpt lat="40.5623617" lon="15.0445683"><ele>42.0</ele><time>2026-04-25T09:47:07.001Z</time></trkpt><trkpt lat="40.562175" lon="15.0444983"><ele>42.0</ele><time>2026-04-25T09:47:08.047Z</time></trkpt><trkpt lat="40.5619817" lon="15.0444267"><ele>42.0</ele><time>2026-04-25T09:47:08.991Z</time></trkpt><trkpt lat="40.5617883" lon="15.0443567"><ele>42.0</ele><time>2026-04-25T09:47:09.985Z</time></trkpt><trkpt lat="40.5616033" lon="15.0442833"><ele>42.0</ele><time>2026-04-25T09:47:10.995Z</time></trkpt><trkpt lat="40.5614267" lon="15.04421"><ele>42.0</ele><time>2026-04-25T09:47:11.993Z</time></trkpt><trkpt lat="40.5612633" lon="15.044135"><ele>42.0</ele><time>2026-04-25T09:47:12.997Z</time></trkpt><trkpt lat="40.5611033" lon="15.0440667"><ele>41.0</ele><time>2026-04-25T09:47:14.049Z</time></trkpt><trkpt lat="40.5609483" lon="15.044"><ele>40.0</ele><time>2026-04-25T09:47:14.991Z</time></trkpt><trkpt lat="40.5607967" lon="15.043925"><ele>39.0</ele><time>2026-04-25T09:47:15.996Z</time></trkpt><trkpt lat="40.56065" lon="15.0438383"><ele>39.0</ele><time>2026-04-25T09:47:17.001Z</time></trkpt><trkpt lat="40.5605017" lon="15.0437533"><ele>39.0</ele><time>2026-04-25T09:47:17.999Z</time></trkpt><trkpt lat="40.56035" lon="15.04366"><ele>39.0</ele><time>2026-04-25T09:47:18.999Z</time></trkpt><trkpt lat="40.5602" lon="15.0435617"><ele>38.333333333333336</ele><time>2026-04-25T09:47:20.053Z</time></trkpt><trkpt lat="40.5600517" lon="15.04345"><ele>37.66666666666667</ele><time>2026-04-25T09:47:20.991Z</time></trkpt><trkpt lat="40.5599033" lon="15.0433233"><ele>37.0</ele><time>2026-04-25T09:47:21.992Z</time></trkpt><trkpt lat="40.5597517" lon="15.0431833"><ele>36.333333333333336</ele><time>2026-04-25T09:47:22.994Z</time></trkpt><trkpt lat="40.5595933" lon="15.0430367"><ele>35.666666666666664</ele><time>2026-04-25T09:47:23.988Z</time></trkpt><trkpt lat="40.5594233" lon="15.0428917"><ele>35.0</ele><time>2026-04-25T09:47:24.998Z</time></trkpt><trkpt lat="40.5592483" lon="15.0427533"><ele>35.666666666666664</ele><time>2026-04-25T09:47:26.06Z</time></trkpt><trkpt lat="40.5590683" lon="15.042625"><ele>36.333333333333336</ele><time>2026-04-25T09:47:26.988Z</time></trkpt><trkpt lat="40.5588917" lon="15.042505"><ele>37.0</ele><time>2026-04-25T09:47:27.994Z</time></trkpt><trkpt lat="40.558715" lon="15.04239"><ele>35.333333333333336</ele><time>2026-04-25T09:47:28.996Z</time></trkpt><trkpt lat="40.5585383" lon="15.04227"><ele>33.666666666666664</ele><time>2026-04-25T09:47:29.998Z</time></trkpt><trkpt lat="40.5583633" lon="15.0421467"><ele>32.0</ele><time>2026-04-25T09:47:30.994Z</time></trkpt><trkpt lat="40.5581933" lon="15.0420133"><ele>32.0</ele><time>2026-04-25T09:47:32.048Z</time></trkpt><trkpt lat="40.558025" lon="15.0418833"><ele>32.0</ele><time>2026-04-25T09:47:32.989Z</time></trkpt><trkpt lat="40.55786" lon="15.0417467"><ele>32.0</ele><time>2026-04-25T09:47:33.994Z</time></trkpt><trkpt lat="40.5576967" lon="15.0416083"><ele>31.0</ele><time>2026-04-25T09:47:34.992Z</time></trkpt><trkpt lat="40.5575483" lon="15.041455"><ele>30.0</ele><time>2026-04-25T09:47:35.986Z</time></trkpt><trkpt lat="40.5574117" lon="15.0412933"><ele>29.0</ele><time>2026-04-25T09:47:36.998Z</time></trkpt><trkpt lat="40.5572833" lon="15.0411283"><ele>29.0</ele><time>2026-04-25T09:47:38.052Z</time></trkpt><trkpt lat="40.55716" lon="15.0409567"><ele>29.0</ele><time>2026-04-25T09:47:38.994Z</time></trkpt><trkpt lat="40.55704" lon="15.0407733"><ele>29.0</ele><time>2026-04-25T09:47:39.989Z</time></trkpt><trkpt lat="40.5569183" lon="15.04059"><ele>28.0</ele><time>2026-04-25T09:47:40.999Z</time></trkpt><trkpt lat="40.556795" lon="15.0404167"><ele>27.0</ele><time>2026-04-25T09:47:41.994Z</time></trkpt><trkpt lat="40.5566717" lon="15.0402633"><ele>26.0</ele><time>2026-04-25T09:47:42.995Z</time></trkpt><trkpt lat="40.556555" lon="15.0401083"><ele>28.0</ele><time>2026-04-25T09:47:44.052Z</time></trkpt><trkpt lat="40.5564433" lon="15.0399433"><ele>30.0</ele><time>2026-04-25T09:47:44.992Z</time></trkpt><trkpt lat="40.556335" lon="15.0397733"><ele>32.0</ele><time>2026-04-25T09:47:45.995Z</time></trkpt><trkpt lat="40.556235" lon="15.03959"><ele>29.333333333333332</ele><time>2026-04-25T09:47:46.997Z</time></trkpt><trkpt lat="40.556135" lon="15.0393983"><ele>26.666666666666664</ele><time>2026-04-25T09:47:47.993Z</time></trkpt><trkpt lat="40.556045" lon="15.0391967"><ele>24.0</ele><time>2026-04-25T09:47:48.994Z</time></trkpt><trkpt lat="40.5559633" lon="15.03899"><ele>24.0</ele><time>2026-04-25T09:47:50.049Z</time></trkpt><trkpt lat="40.555895" lon="15.0387783"><ele>24.0</ele><time>2026-04-25T09:47:50.996Z</time></trkpt><trkpt lat="40.5558367" lon="15.0385583"><ele>24.0</ele><time>2026-04-25T09:47:51.993Z</time></trkpt><trkpt lat="40.5557867" lon="15.0383433"><ele>23.666666666666668</ele><time>2026-04-25T09:47:52.992Z</time></trkpt><trkpt lat="40.5557433" lon="15.038135"><ele>23.333333333333336</ele><time>2026-04-25T09:47:53.991Z</time></trkpt><trkpt lat="40.5557033" lon="15.0379317"><ele>23.0</ele><time>2026-04-25T09:47:54.986Z</time></trkpt><trkpt lat="40.5556683" lon="15.0377283"><ele>23.0</ele><time>2026-04-25T09:47:56.049Z</time></trkpt><trkpt lat="40.5556317" lon="15.0375433"><ele>23.0</ele><time>2026-04-25T09:47:56.989Z</time></trkpt><trkpt lat="40.5555783" lon="15.03738"><ele>23.0</ele><time>2026-04-25T09:47:57.996Z</time></trkpt><trkpt lat="40.55552" lon="15.037235"><ele>23.0</ele><time>2026-04-25T09:47:58.994Z</time></trkpt><trkpt lat="40.55545" lon="15.0371083"><ele>23.5</ele><time>2026-04-25T09:47:59.994Z</time></trkpt><trkpt lat="40.5553683" lon="15.0370183"><ele>24.0</ele><time>2026-04-25T09:48:00.996Z</time></trkpt><trkpt lat="40.5552817" lon="15.03695"><ele>24.5</ele><time>2026-04-25T09:48:02.053Z</time></trkpt><trkpt lat="40.5551733" lon="15.0369133"><ele>25.0</ele><time>2026-04-25T09:48:02.986Z</time></trkpt><trkpt lat="40.555025" lon="15.0369167"><ele>25.0</ele><time>2026-04-25T09:48:03.989Z</time></trkpt><trkpt lat="40.5548433" lon="15.0369667"><ele>25.0</ele><time>2026-04-25T09:48:04.995Z</time></trkpt><trkpt lat="40.55467" lon="15.0370233"><ele>25.0</ele><time>2026-04-25T09:48:05.994Z</time></trkpt><trkpt lat="40.5545117" lon="15.0370633"><ele>28.0</ele><time>2026-04-25T09:48:06.994Z</time></trkpt><trkpt lat="40.5543533" lon="15.03711"><ele>31.0</ele><time>2026-04-25T09:48:08.052Z</time></trkpt><trkpt lat="40.5541833" lon="15.03716"><ele>34.0</ele><time>2026-04-25T09:48:08.992Z</time></trkpt><trkpt lat="40.5539967" lon="15.0372"><ele>34.0</ele><time>2026-04-25T09:48:09.993Z</time></trkpt><trkpt lat="40.5537933" lon="15.037245"><ele>34.0</ele><time>2026-04-25T09:48:10.997Z</time></trkpt><trkpt lat="40.553595" lon="15.0372917"><ele>34.0</ele><time>2026-04-25T09:48:11.996Z</time></trkpt><trkpt lat="40.5534117" lon="15.03733"><ele>34.5</ele><time>2026-04-25T09:48:12.999Z</time></trkpt><trkpt lat="40.5532417" lon="15.03737"><ele>35.0</ele><time>2026-04-25T09:48:14.052Z</time></trkpt><trkpt lat="40.5531067" lon="15.0373733"><ele>35.5</ele><time>2026-04-25T09:48:14.991Z</time></trkpt><trkpt lat="40.5529717" lon="15.0373633"><ele>36.0</ele><time>2026-04-25T09:48:15.994Z</time></trkpt><trkpt lat="40.5528683" lon="15.0372817"><ele>35.5</ele><time>2026-04-25T09:48:16.989Z</time></trkpt><trkpt lat="40.552775" lon="15.0371717"><ele>35.0</ele><time>2026-04-25T09:48:17.985Z</time></trkpt><trkpt lat="40.5526817" lon="15.0370267"><ele>34.5</ele><time>2026-04-25T09:48:18.993Z</time></trkpt><trkpt lat="40.55258" lon="15.0368333"><ele>34.0</ele><time>2026-04-25T09:48:20.05Z</time></trkpt><trkpt lat="40.5524717" lon="15.0366217"><ele>34.0</ele><time>2026-04-25T09:48:20.992Z</time></trkpt><trkpt lat="40.55235" lon="15.0363917"><ele>34.0</ele><time>2026-04-25T09:48:21.992Z</time></trkpt><trkpt lat="40.5521933" lon="15.0361917"><ele>34.0</ele><time>2026-04-25T09:48:22.987Z</time></trkpt><trkpt lat="40.5520117" lon="15.035995"><ele>33.5</ele><time>2026-04-25T09:48:23.994Z</time></trkpt><trkpt lat="40.5518117" lon="15.0357983"><ele>33.0</ele><time>2026-04-25T09:48:24.994Z</time></trkpt><trkpt lat="40.5515983" lon="15.0356017"><ele>33.0</ele><time>2026-04-25T09:48:26.05Z</time></trkpt><trkpt lat="40.5513717" lon="15.0353883"><ele>33.0</ele><time>2026-04-25T09:48:26.985Z</time></trkpt><trkpt lat="40.551145" lon="15.03517"><ele>34.0</ele><time>2026-04-25T09:48:27.998Z</time></trkpt><trkpt lat="40.5509317" lon="15.0349617"><ele>35.0</ele><time>2026-04-25T09:48:28.985Z</time></trkpt><trkpt lat="40.550735" lon="15.0347717"><ele>35.0</ele><time>2026-04-25T09:48:29.991Z</time></trkpt><trkpt lat="40.550555" lon="15.034595"><ele>35.0</ele><time>2026-04-25T09:48:30.99Z</time></trkpt><trkpt lat="40.55039" lon="15.0344333"><ele>35.0</ele><time>2026-04-25T09:48:32.061Z</time></trkpt><trkpt lat="40.55024" lon="15.03429"><ele>34.666666666666664</ele><time>2026-04-25T09:48:32.989Z</time></trkpt><trkpt lat="40.5500983" lon="15.0341567"><ele>34.333333333333336</ele><time>2026-04-25T09:48:33.993Z</time></trkpt><trkpt lat="40.549955" lon="15.03404"><ele>34.0</ele><time>2026-04-25T09:48:34.99Z</time></trkpt><trkpt lat="40.5497967" lon="15.0338933"><ele>34.0</ele><time>2026-04-25T09:48:35.989Z</time></trkpt><trkpt lat="40.5496317" lon="15.033735"><ele>34.0</ele><time>2026-04-25T09:48:36.988Z</time></trkpt><trkpt lat="40.549465" lon="15.0335717"><ele>34.0</ele><time>2026-04-25T09:48:38.056Z</time></trkpt><trkpt lat="40.549285" lon="15.0333883"><ele>33.5</ele><time>2026-04-25T09:48:38.993Z</time></trkpt><trkpt lat="40.5490917" lon="15.033195"><ele>33.0</ele><time>2026-04-25T09:48:39.989Z</time></trkpt><trkpt lat="40.5488917" lon="15.0330033"><ele>34.0</ele><time>2026-04-25T09:48:40.991Z</time></trkpt><trkpt lat="40.5486867" lon="15.0328133"><ele>35.0</ele><time>2026-04-25T09:48:41.991Z</time></trkpt><trkpt lat="40.5484817" lon="15.0326233"><ele>35.5</ele><time>2026-04-25T09:48:43.001Z</time></trkpt><trkpt lat="40.5482817" lon="15.032435"><ele>36.0</ele><time>2026-04-25T09:48:44.05Z</time></trkpt><trkpt lat="40.5480867" lon="15.0322533"><ele>36.0</ele><time>2026-04-25T09:48:44.992Z</time></trkpt><trkpt lat="40.547895" lon="15.03207"><ele>36.0</ele><time>2026-04-25T09:48:45.996Z</time></trkpt><trkpt lat="40.5477033" lon="15.0318867"><ele>35.5</ele><time>2026-04-25T09:48:46.991Z</time></trkpt><trkpt lat="40.5475117" lon="15.03171"><ele>35.0</ele><time>2026-04-25T09:48:47.996Z</time></trkpt><trkpt lat="40.5473233" lon="15.03154"><ele>35.0</ele><time>2026-04-25T09:48:48.993Z</time></trkpt><trkpt lat="40.5471417" lon="15.031365"><ele>35.0</ele><time>2026-04-25T09:48:50.047Z</time></trkpt><trkpt lat="40.5469617" lon="15.031195"><ele>35.0</ele><time>2026-04-25T09:48:50.991Z</time></trkpt><trkpt lat="40.546785" lon="15.0310233"><ele>35.0</ele><time>2026-04-25T09:48:51.991Z</time></trkpt><trkpt lat="40.5466083" lon="15.030855"><ele>35.0</ele><time>2026-04-25T09:48:52.992Z</time></trkpt><trkpt lat="40.5464333" lon="15.0306883"><ele>35.0</ele><time>2026-04-25T09:48:53.988Z</time></trkpt><trkpt lat="40.5462617" lon="15.03053"><ele>34.666666666666664</ele><time>2026-04-25T09:48:54.988Z</time></trkpt><trkpt lat="40.5460983" lon="15.0303767"><ele>34.333333333333336</ele><time>2026-04-25T09:48:56.052Z</time></trkpt><trkpt lat="40.54594" lon="15.0302283"><ele>34.0</ele><time>2026-04-25T09:48:57.009Z</time></trkpt><trkpt lat="40.5457883" lon="15.0300883"><ele>34.5</ele><time>2026-04-25T09:48:57.994Z</time></trkpt><trkpt lat="40.5456483" lon="15.0299533"><ele>35.0</ele><time>2026-04-25T09:48:58.995Z</time></trkpt><trkpt lat="40.54556" lon="15.0298567"><ele>35.5</ele><time>2026-04-25T09:48:59.996Z</time></trkpt><trkpt lat="40.5454883" lon="15.02977"><ele>36.0</ele><time>2026-04-25T09:49:00.991Z</time></trkpt><trkpt lat="40.545435" lon="15.029695"><ele>36.0</ele><time>2026-04-25T09:49:02.047Z</time></trkpt><trkpt lat="40.5453983" lon="15.029605"><ele>36.0</ele><time>2026-04-25T09:49:03.992Z</time></trkpt><trkpt lat="40.5453433" lon="15.0295333"><ele>36.0</ele><time>2026-04-25T09:49:05.993Z</time></trkpt><trkpt lat="40.5452317" lon="15.029455"><ele>36.0</ele><time>2026-04-25T09:49:08.057Z</time></trkpt><trkpt lat="40.5451617" lon="15.0294133"><ele>36.0</ele><time>2026-04-25T09:49:08.988Z</time></trkpt><trkpt lat="40.5450883" lon="15.0293683"><ele>36.0</ele><time>2026-04-25T09:49:09.995Z</time></trkpt><trkpt lat="40.5450117" lon="15.0293083"><ele>35.75</ele><time>2026-04-25T09:49:10.987Z</time></trkpt><trkpt lat="40.5449217" lon="15.029235"><ele>35.5</ele><time>2026-04-25T09:49:11.994Z</time></trkpt><trkpt lat="40.5448217" lon="15.0291467"><ele>35.25</ele><time>2026-04-25T09:49:13Z</time></trkpt><trkpt lat="40.5447083" lon="15.029045"><ele>35.0</ele><time>2026-04-25T09:49:14.055Z</time></trkpt><trkpt lat="40.5445817" lon="15.0289217"><ele>34.0</ele><time>2026-04-25T09:49:14.991Z</time></trkpt><trkpt lat="40.5444467" lon="15.0287883"><ele>33.0</ele><time>2026-04-25T09:49:15.997Z</time></trkpt><trkpt lat="40.5442967" lon="15.028635"><ele>32.0</ele><time>2026-04-25T09:49:16.992Z</time></trkpt><trkpt lat="40.5441317" lon="15.0284733"><ele>31.5</ele><time>2026-04-25T09:49:18.008Z</time></trkpt><trkpt lat="40.543955" lon="15.0282967"><ele>31.0</ele><time>2026-04-25T09:49:18.999Z</time></trkpt><trkpt lat="40.5437617" lon="15.0281"><ele>29.0</ele><time>2026-04-25T09:49:20.053Z</time></trkpt><trkpt lat="40.5435633" lon="15.0279017"><ele>27.0</ele><time>2026-04-25T09:49:20.987Z</time></trkpt><trkpt lat="40.5433633" lon="15.0277133"><ele>27.0</ele><time>2026-04-25T09:49:21.992Z</time></trkpt><trkpt lat="40.5431633" lon="15.0275167"><ele>27.0</ele><time>2026-04-25T09:49:22.999Z</time></trkpt><trkpt lat="40.542965" lon="15.0273217"><ele>26.0</ele><time>2026-04-25T09:49:23.99Z</time></trkpt><trkpt lat="40.5427667" lon="15.0271217"><ele>25.0</ele><time>2026-04-25T09:49:24.995Z</time></trkpt><trkpt lat="40.5425683" lon="15.0269233"><ele>25.0</ele><time>2026-04-25T09:49:26.047Z</time></trkpt><trkpt lat="40.5423733" lon="15.0267217"><ele>25.0</ele><time>2026-04-25T09:49:26.986Z</time></trkpt><trkpt lat="40.5421817" lon="15.0265183"><ele>25.0</ele><time>2026-04-25T09:49:27.996Z</time></trkpt><trkpt lat="40.5419917" lon="15.0263217"><ele>25.0</ele><time>2026-04-25T09:49:28.989Z</time></trkpt><trkpt lat="40.54181" lon="15.0261317"><ele>25.0</ele><time>2026-04-25T09:49:29.989Z</time></trkpt><trkpt lat="40.5416417" lon="15.02596"><ele>25.0</ele><time>2026-04-25T09:49:30.994Z</time></trkpt><trkpt lat="40.5414883" lon="15.0258083"><ele>25.0</ele><time>2026-04-25T09:49:32.054Z</time></trkpt><trkpt lat="40.5413467" lon="15.0256633"><ele>24.333333333333336</ele><time>2026-04-25T09:49:32.988Z</time></trkpt><trkpt lat="40.5412083" lon="15.0255167"><ele>23.666666666666668</ele><time>2026-04-25T09:49:33.99Z</time></trkpt><trkpt lat="40.5410633" lon="15.025365"><ele>23.0</ele><time>2026-04-25T09:49:34.989Z</time></trkpt><trkpt lat="40.540915" lon="15.0252033"><ele>23.0</ele><time>2026-04-25T09:49:35.988Z</time></trkpt><trkpt lat="40.5407567" lon="15.025035"><ele>23.0</ele><time>2026-04-25T09:49:36.998Z</time></trkpt><trkpt lat="40.54059" lon="15.0248483"><ele>23.0</ele><time>2026-04-25T09:49:38.048Z</time></trkpt><trkpt lat="40.540415" lon="15.0246683"><ele>24.0</ele><time>2026-04-25T09:49:38.989Z</time></trkpt><trkpt lat="40.5402367" lon="15.0244867"><ele>25.0</ele><time>2026-04-25T09:49:39.987Z</time></trkpt><trkpt lat="40.5400617" lon="15.0242983"><ele>25.333333333333336</ele><time>2026-04-25T09:49:40.996Z</time></trkpt><trkpt lat="40.539885" lon="15.0241183"><ele>25.666666666666664</ele><time>2026-04-25T09:49:41.994Z</time></trkpt><trkpt lat="40.53971" lon="15.0239333"><ele>26.0</ele><time>2026-04-25T09:49:42.99Z</time></trkpt><trkpt lat="40.5395383" lon="15.02376"><ele>26.0</ele><time>2026-04-25T09:49:44.05Z</time></trkpt><trkpt lat="40.5393733" lon="15.0235867"><ele>26.0</ele><time>2026-04-25T09:49:44.989Z</time></trkpt><trkpt lat="40.5392133" lon="15.0234183"><ele>26.0</ele><time>2026-04-25T09:49:45.992Z</time></trkpt><trkpt lat="40.539055" lon="15.0232533"><ele>25.666666666666664</ele><time>2026-04-25T09:49:46.992Z</time></trkpt><trkpt lat="40.5389" lon="15.02307"><ele>25.333333333333336</ele><time>2026-04-25T09:49:47.99Z</time></trkpt><trkpt lat="40.5387483" lon="15.0228783"><ele>25.0</ele><time>2026-04-25T09:49:48.998Z</time></trkpt><trkpt lat="40.5385933" lon="15.0226733"><ele>24.0</ele><time>2026-04-25T09:49:50.051Z</time></trkpt><trkpt lat="40.5384367" lon="15.0224567"><ele>23.0</ele><time>2026-04-25T09:49:50.989Z</time></trkpt><trkpt lat="40.5382733" lon="15.0222233"><ele>23.0</ele><time>2026-04-25T09:49:51.993Z</time></trkpt><trkpt lat="40.5381017" lon="15.0219867"><ele>23.0</ele><time>2026-04-25T09:49:52.994Z</time></trkpt><trkpt lat="40.5379267" lon="15.021755"><ele>23.5</ele><time>2026-04-25T09:49:53.995Z</time></trkpt><trkpt lat="40.53775" lon="15.02152"><ele>24.0</ele><time>2026-04-25T09:49:54.993Z</time></trkpt><trkpt lat="40.5375783" lon="15.0212833"><ele>24.0</ele><time>2026-04-25T09:49:56.057Z</time></trkpt><trkpt lat="40.537415" lon="15.0210567"><ele>24.0</ele><time>2026-04-25T09:49:56.989Z</time></trkpt><trkpt lat="40.5372633" lon="15.020835"><ele>24.333333333333336</ele><time>2026-04-25T09:49:58.004Z</time></trkpt><trkpt lat="40.5371167" lon="15.0206217"><ele>24.666666666666668</ele><time>2026-04-25T09:49:58.993Z</time></trkpt><trkpt lat="40.5369717" lon="15.020425"><ele>25.0</ele><time>2026-04-25T09:49:59.989Z</time></trkpt><trkpt lat="40.53683" lon="15.0202333"><ele>24.666666666666668</ele><time>2026-04-25T09:50:00.997Z</time></trkpt><trkpt lat="40.5366933" lon="15.020035"><ele>24.333333333333336</ele><time>2026-04-25T09:50:02.055Z</time></trkpt><trkpt lat="40.536555" lon="15.0198367"><ele>24.0</ele><time>2026-04-25T09:50:02.99Z</time></trkpt><trkpt lat="40.53641" lon="15.0196283"><ele>24.0</ele><time>2026-04-25T09:50:03.994Z</time></trkpt><trkpt lat="40.5362633" lon="15.0194133"><ele>24.0</ele><time>2026-04-25T09:50:04.99Z</time></trkpt><trkpt lat="40.53611" lon="15.0192017"><ele>24.0</ele><time>2026-04-25T09:50:05.988Z</time></trkpt><trkpt lat="40.535955" lon="15.0189833"><ele>22.5</ele><time>2026-04-25T09:50:06.988Z</time></trkpt><trkpt lat="40.5357983" lon="15.018765"><ele>21.0</ele><time>2026-04-25T09:50:08.048Z</time></trkpt><trkpt lat="40.5356433" lon="15.0185467"><ele>21.0</ele><time>2026-04-25T09:50:08.988Z</time></trkpt><trkpt lat="40.5354933" lon="15.0183317"><ele>21.0</ele><time>2026-04-25T09:50:09.991Z</time></trkpt><trkpt lat="40.5353433" lon="15.0181167"><ele>21.0</ele><time>2026-04-25T09:50:10.997Z</time></trkpt><trkpt lat="40.535195" lon="15.0179083"><ele>21.333333333333332</ele><time>2026-04-25T09:50:11.991Z</time></trkpt><trkpt lat="40.53505" lon="15.0176967"><ele>21.666666666666664</ele><time>2026-04-25T09:50:12.998Z</time></trkpt><trkpt lat="40.534905" lon="15.01749"><ele>22.0</ele><time>2026-04-25T09:50:14.051Z</time></trkpt><trkpt lat="40.53476" lon="15.0172783"><ele>22.0</ele><time>2026-04-25T09:50:14.985Z</time></trkpt><trkpt lat="40.5346133" lon="15.01707"><ele>22.0</ele><time>2026-04-25T09:50:15.996Z</time></trkpt><trkpt lat="40.5344667" lon="15.0168567"><ele>22.0</ele><time>2026-04-25T09:50:16.994Z</time></trkpt><trkpt lat="40.53432" lon="15.0166417"><ele>21.333333333333332</ele><time>2026-04-25T09:50:17.996Z</time></trkpt><trkpt lat="40.5341717" lon="15.01643"><ele>20.666666666666668</ele><time>2026-04-25T09:50:18.995Z</time></trkpt><trkpt lat="40.53402" lon="15.01622"><ele>20.0</ele><time>2026-04-25T09:50:20.048Z</time></trkpt><trkpt lat="40.53387" lon="15.0160117"><ele>19.666666666666668</ele><time>2026-04-25T09:50:20.992Z</time></trkpt><trkpt lat="40.53372" lon="15.015815"><ele>19.333333333333332</ele><time>2026-04-25T09:50:21.992Z</time></trkpt><trkpt lat="40.5335733" lon="15.0156183"><ele>19.0</ele><time>2026-04-25T09:50:22.994Z</time></trkpt><trkpt lat="40.5334283" lon="15.0154217"><ele>19.0</ele><time>2026-04-25T09:50:23.988Z</time></trkpt><trkpt lat="40.533285" lon="15.0152233"><ele>19.0</ele><time>2026-04-25T09:50:24.991Z</time></trkpt><trkpt lat="40.5331367" lon="15.015025"><ele>19.0</ele><time>2026-04-25T09:50:26.053Z</time></trkpt><trkpt lat="40.5329867" lon="15.0148217"><ele>19.0</ele><time>2026-04-25T09:50:26.99Z</time></trkpt><trkpt lat="40.5328367" lon="15.0146133"><ele>19.0</ele><time>2026-04-25T09:50:27.996Z</time></trkpt><trkpt lat="40.5326867" lon="15.0144117"><ele>19.0</ele><time>2026-04-25T09:50:28.989Z</time></trkpt><trkpt lat="40.532535" lon="15.0142017"><ele>18.0</ele><time>2026-04-25T09:50:29.995Z</time></trkpt><trkpt lat="40.5323833" lon="15.013985"><ele>17.0</ele><time>2026-04-25T09:50:30.991Z</time></trkpt><trkpt lat="40.53223" lon="15.013765"><ele>17.0</ele><time>2026-04-25T09:50:32.056Z</time></trkpt><trkpt lat="40.5320733" lon="15.013535"><ele>17.0</ele><time>2026-04-25T09:50:32.993Z</time></trkpt><trkpt lat="40.53191" lon="15.0133033"><ele>18.0</ele><time>2026-04-25T09:50:33.992Z</time></trkpt><trkpt lat="40.531745" lon="15.0130633"><ele>19.0</ele><time>2026-04-25T09:50:34.998Z</time></trkpt><trkpt lat="40.53158" lon="15.0128333"><ele>19.0</ele><time>2026-04-25T09:50:36.003Z</time></trkpt><trkpt lat="40.5314183" lon="15.0125983"><ele>19.0</ele><time>2026-04-25T09:50:36.997Z</time></trkpt><trkpt lat="40.5312583" lon="15.01237"><ele>18.5</ele><time>2026-04-25T09:50:38.052Z</time></trkpt><trkpt lat="40.5311017" lon="15.01214"><ele>18.0</ele><time>2026-04-25T09:50:38.992Z</time></trkpt><trkpt lat="40.5309467" lon="15.011915"><ele>18.0</ele><time>2026-04-25T09:50:39.997Z</time></trkpt><trkpt lat="40.5307883" lon="15.0116967"><ele>18.0</ele><time>2026-04-25T09:50:40.995Z</time></trkpt><trkpt lat="40.53063" lon="15.01147"><ele>18.0</ele><time>2026-04-25T09:50:41.987Z</time></trkpt><trkpt lat="40.53047" lon="15.01124"><ele>18.0</ele><time>2026-04-25T09:50:42.999Z</time></trkpt><trkpt lat="40.5303133" lon="15.011015"><ele>17.0</ele><time>2026-04-25T09:50:44.051Z</time></trkpt><trkpt lat="40.5301533" lon="15.0107867"><ele>16.0</ele><time>2026-04-25T09:50:44.988Z</time></trkpt><trkpt lat="40.5299983" lon="15.0105633"><ele>16.0</ele><time>2026-04-25T09:50:45.998Z</time></trkpt><trkpt lat="40.529845" lon="15.0103417"><ele>16.0</ele><time>2026-04-25T09:50:46.996Z</time></trkpt><trkpt lat="40.529695" lon="15.0101267"><ele>16.333333333333332</ele><time>2026-04-25T09:50:47.991Z</time></trkpt><trkpt lat="40.529555" lon="15.0099233"><ele>16.666666666666668</ele><time>2026-04-25T09:50:48.997Z</time></trkpt><trkpt lat="40.5294183" lon="15.0097283"><ele>17.0</ele><time>2026-04-25T09:50:50.05Z</time></trkpt><trkpt lat="40.5292817" lon="15.0095383"><ele>17.0</ele><time>2026-04-25T09:50:50.988Z</time></trkpt><trkpt lat="40.529145" lon="15.0093483"><ele>17.0</ele><time>2026-04-25T09:50:51.987Z</time></trkpt><trkpt lat="40.5290083" lon="15.0091583"><ele>17.0</ele><time>2026-04-25T09:50:52.993Z</time></trkpt><trkpt lat="40.52887" lon="15.0089667"><ele>16.666666666666668</ele><time>2026-04-25T09:50:53.996Z</time></trkpt><trkpt lat="40.5287283" lon="15.0087733"><ele>16.333333333333332</ele><time>2026-04-25T09:50:55Z</time></trkpt><trkpt lat="40.5285867" lon="15.0085767"><ele>16.0</ele><time>2026-04-25T09:50:56.017Z</time></trkpt><trkpt lat="40.5284433" lon="15.0083783"><ele>16.333333333333332</ele><time>2026-04-25T09:50:56.994Z</time></trkpt><trkpt lat="40.5282983" lon="15.008175"><ele>16.666666666666668</ele><time>2026-04-25T09:50:57.994Z</time></trkpt><trkpt lat="40.528155" lon="15.0079667"><ele>17.0</ele><time>2026-04-25T09:50:58.994Z</time></trkpt><trkpt lat="40.5280083" lon="15.0077517"><ele>17.0</ele><time>2026-04-25T09:50:59.996Z</time></trkpt><trkpt lat="40.52786" lon="15.0075333"><ele>17.0</ele><time>2026-04-25T09:51:00.994Z</time></trkpt><trkpt lat="40.5277133" lon="15.0073033"><ele>16.0</ele><time>2026-04-25T09:51:02.052Z</time></trkpt><trkpt lat="40.5275683" lon="15.0070633"><ele>15.0</ele><time>2026-04-25T09:51:02.995Z</time></trkpt><trkpt lat="40.5274233" lon="15.0068183"><ele>14.0</ele><time>2026-04-25T09:51:03.983Z</time></trkpt><trkpt lat="40.52728" lon="15.0065617"><ele>13.0</ele><time>2026-04-25T09:51:04.999Z</time></trkpt><trkpt lat="40.527135" lon="15.0063033"><ele>14.5</ele><time>2026-04-25T09:51:05.989Z</time></trkpt><trkpt lat="40.52699" lon="15.0060417"><ele>16.0</ele><time>2026-04-25T09:51:06.999Z</time></trkpt><trkpt lat="40.5268483" lon="15.00579"><ele>16.333333333333332</ele><time>2026-04-25T09:51:08.047Z</time></trkpt><trkpt lat="40.5267133" lon="15.00555"><ele>16.666666666666668</ele><time>2026-04-25T09:51:08.989Z</time></trkpt><trkpt lat="40.5265767" lon="15.00532"><ele>17.0</ele><time>2026-04-25T09:51:09.992Z</time></trkpt><trkpt lat="40.5264333" lon="15.0051067"><ele>16.666666666666668</ele><time>2026-04-25T09:51:10.998Z</time></trkpt><trkpt lat="40.5262933" lon="15.0049"><ele>16.333333333333332</ele><time>2026-04-25T09:51:11.994Z</time></trkpt><trkpt lat="40.52616" lon="15.004715"><ele>16.0</ele><time>2026-04-25T09:51:12.998Z</time></trkpt><trkpt lat="40.52603" lon="15.004555"><ele>16.0</ele><time>2026-04-25T09:51:14.051Z</time></trkpt><trkpt lat="40.5259033" lon="15.0044033"><ele>16.0</ele><time>2026-04-25T09:51:14.986Z</time></trkpt><trkpt lat="40.5257767" lon="15.004265"><ele>16.0</ele><time>2026-04-25T09:51:15.987Z</time></trkpt><trkpt lat="40.5256483" lon="15.0041317"><ele>16.0</ele><time>2026-04-25T09:51:16.994Z</time></trkpt><trkpt lat="40.52552" lon="15.0040133"><ele>16.0</ele><time>2026-04-25T09:51:17.988Z</time></trkpt><trkpt lat="40.52539" lon="15.0039017"><ele>16.0</ele><time>2026-04-25T09:51:18.997Z</time></trkpt><trkpt lat="40.5252683" lon="15.00379"><ele>16.0</ele><time>2026-04-25T09:51:20.048Z</time></trkpt><trkpt lat="40.5251517" lon="15.003685"><ele>16.0</ele><time>2026-04-25T09:51:20.993Z</time></trkpt><trkpt lat="40.525045" lon="15.0035767"><ele>16.0</ele><time>2026-04-25T09:51:21.987Z</time></trkpt><trkpt lat="40.524945" lon="15.0034667"><ele>16.0</ele><time>2026-04-25T09:51:22.996Z</time></trkpt><trkpt lat="40.5248517" lon="15.00336"><ele>16.0</ele><time>2026-04-25T09:51:23.992Z</time></trkpt><trkpt lat="40.5247733" lon="15.0032383"><ele>16.0</ele><time>2026-04-25T09:51:24.999Z</time></trkpt><trkpt lat="40.5246983" lon="15.0031233"><ele>16.0</ele><time>2026-04-25T09:51:26.055Z</time></trkpt><trkpt lat="40.52463" lon="15.0030067"><ele>16.0</ele><time>2026-04-25T09:51:26.989Z</time></trkpt><trkpt lat="40.5245583" lon="15.0028933"><ele>16.2</ele><time>2026-04-25T09:51:27.992Z</time></trkpt><trkpt lat="40.5244867" lon="15.002785"><ele>16.400000000000002</ele><time>2026-04-25T09:51:28.986Z</time></trkpt><trkpt lat="40.5244233" lon="15.0026783"><ele>16.6</ele><time>2026-04-25T09:51:29.991Z</time></trkpt><trkpt lat="40.52436" lon="15.0025783"><ele>16.8</ele><time>2026-04-25T09:51:31.001Z</time></trkpt><trkpt lat="40.524295" lon="15.0024933"><ele>17.0</ele><time>2026-04-25T09:51:32.048Z</time></trkpt><trkpt lat="40.5242383" lon="15.0024117"><ele>17.0</ele><time>2026-04-25T09:51:32.992Z</time></trkpt><trkpt lat="40.524185" lon="15.0023367"><ele>17.0</ele><time>2026-04-25T09:51:34.005Z</time></trkpt><trkpt lat="40.5241467" lon="15.0022683"><ele>17.0</ele><time>2026-04-25T09:51:34.996Z</time></trkpt><trkpt lat="40.5240817" lon="15.0021517"><ele>17.0</ele><time>2026-04-25T09:51:36.992Z</time></trkpt><trkpt lat="40.5240617" lon="15.00203"><ele>17.0</ele><time>2026-04-25T09:51:38.985Z</time></trkpt><trkpt lat="40.524075" lon="15.0018967"><ele>17.0</ele><time>2026-04-25T09:51:40.995Z</time></trkpt><trkpt lat="40.5240867" lon="15.0017367"><ele>17.2</ele><time>2026-04-25T09:51:42.991Z</time></trkpt><trkpt lat="40.524075" lon="15.0016533"><ele>17.4</ele><time>2026-04-25T09:51:44.047Z</time></trkpt><trkpt lat="40.524025" lon="15.0015083"><ele>17.6</ele><time>2026-04-25T09:51:45.99Z</time></trkpt><trkpt lat="40.523945" lon="15.0014167"><ele>17.8</ele><time>2026-04-25T09:51:47.99Z</time></trkpt><trkpt lat="40.523865" lon="15.001385"><ele>18.0</ele><time>2026-04-25T09:51:50.05Z</time></trkpt><trkpt lat="40.5237633" lon="15.001405"><ele>18.2</ele><time>2026-04-25T09:51:51.995Z</time></trkpt><trkpt lat="40.5236667" lon="15.0014817"><ele>18.4</ele><time>2026-04-25T09:51:53.989Z</time></trkpt><trkpt lat="40.52361" lon="15.00162"><ele>18.599999999999998</ele><time>2026-04-25T09:51:56.058Z</time></trkpt><trkpt lat="40.5236017" lon="15.0017133"><ele>18.8</ele><time>2026-04-25T09:51:56.997Z</time></trkpt><trkpt lat="40.5235983" lon="15.0018167"><ele>19.0</ele><time>2026-04-25T09:51:57.993Z</time></trkpt><trkpt lat="40.5235833" lon="15.0019333"><ele>18.599999999999998</ele><time>2026-04-25T09:51:58.999Z</time></trkpt><trkpt lat="40.52355" lon="15.0020583"><ele>18.2</ele><time>2026-04-25T09:51:59.995Z</time></trkpt><trkpt lat="40.5234983" lon="15.00218"><ele>17.799999999999997</ele><time>2026-04-25T09:52:00.993Z</time></trkpt><trkpt lat="40.5234317" lon="15.0022933"><ele>17.4</ele><time>2026-04-25T09:52:02.057Z</time></trkpt><trkpt lat="40.5233483" lon="15.0023933"><ele>17.0</ele><time>2026-04-25T09:52:02.992Z</time></trkpt><trkpt lat="40.5232533" lon="15.0024867"><ele>17.0</ele><time>2026-04-25T09:52:03.988Z</time></trkpt><trkpt lat="40.523155" lon="15.0025767"><ele>17.0</ele><time>2026-04-25T09:52:04.995Z</time></trkpt><trkpt lat="40.5230633" lon="15.00266"><ele>17.0</ele><time>2026-04-25T09:52:05.994Z</time></trkpt><trkpt lat="40.5229733" lon="15.0027317"><ele>17.0</ele><time>2026-04-25T09:52:06.993Z</time></trkpt><trkpt lat="40.5228833" lon="15.0028017"><ele>17.0</ele><time>2026-04-25T09:52:08.055Z</time></trkpt><trkpt lat="40.5227967" lon="15.002875"><ele>17.0</ele><time>2026-04-25T09:52:08.988Z</time></trkpt><trkpt lat="40.5226983" lon="15.0029583"><ele>17.0</ele><time>2026-04-25T09:52:09.993Z</time></trkpt><trkpt lat="40.5225967" lon="15.00304"><ele>17.0</ele><time>2026-04-25T09:52:10.988Z</time></trkpt><trkpt lat="40.5224983" lon="15.0031233"><ele>17.0</ele><time>2026-04-25T09:52:11.991Z</time></trkpt><trkpt lat="40.5223983" lon="15.003205"><ele>17.0</ele><time>2026-04-25T09:52:12.993Z</time></trkpt><trkpt lat="40.5223033" lon="15.0032817"><ele>17.0</ele><time>2026-04-25T09:52:14.054Z</time></trkpt><trkpt lat="40.5222067" lon="15.0033667"><ele>17.0</ele><time>2026-04-25T09:52:14.988Z</time></trkpt><trkpt lat="40.5221067" lon="15.0034617"><ele>17.0</ele><time>2026-04-25T09:52:15.995Z</time></trkpt><trkpt lat="40.5220117" lon="15.00355"><ele>17.0</ele><time>2026-04-25T09:52:16.991Z</time></trkpt><trkpt lat="40.5219283" lon="15.003625"><ele>17.0</ele><time>2026-04-25T09:52:17.989Z</time></trkpt><trkpt lat="40.52186" lon="15.00369"><ele>17.0</ele><time>2026-04-25T09:52:18.992Z</time></trkpt><trkpt lat="40.5217933" lon="15.0037533"><ele>17.0</ele><time>2026-04-25T09:52:20.048Z</time></trkpt><trkpt lat="40.52172" lon="15.0038217"><ele>17.0</ele><time>2026-04-25T09:52:20.99Z</time></trkpt><trkpt lat="40.521625" lon="15.003905"><ele>17.0</ele><time>2026-04-25T09:52:21.992Z</time></trkpt><trkpt lat="40.5214817" lon="15.0040333"><ele>17.0</ele><time>2026-04-25T09:52:22.992Z</time></trkpt><trkpt lat="40.5213333" lon="15.004165"><ele>17.0</ele><time>2026-04-25T09:52:23.991Z</time></trkpt><trkpt lat="40.5211417" lon="15.0043267"><ele>17.5</ele><time>2026-04-25T09:52:24.989Z</time></trkpt><trkpt lat="40.52094" lon="15.004495"><ele>18.0</ele><time>2026-04-25T09:52:26.054Z</time></trkpt><trkpt lat="40.52073" lon="15.0046783"><ele>18.0</ele><time>2026-04-25T09:52:26.991Z</time></trkpt><trkpt lat="40.5205217" lon="15.00486"><ele>18.0</ele><time>2026-04-25T09:52:27.993Z</time></trkpt><trkpt lat="40.5203217" lon="15.005035"><ele>16.666666666666668</ele><time>2026-04-25T09:52:28.998Z</time></trkpt><trkpt lat="40.520135" lon="15.005205"><ele>15.333333333333334</ele><time>2026-04-25T09:52:29.994Z</time></trkpt><trkpt lat="40.5199683" lon="15.0053633"><ele>14.0</ele><time>2026-04-25T09:52:30.999Z</time></trkpt><trkpt lat="40.5198183" lon="15.0055167"><ele>14.0</ele><time>2026-04-25T09:52:32.046Z</time></trkpt><trkpt lat="40.5196933" lon="15.0056767"><ele>14.0</ele><time>2026-04-25T09:52:32.987Z</time></trkpt><trkpt lat="40.51958" lon="15.0058417"><ele>14.0</ele><time>2026-04-25T09:52:33.996Z</time></trkpt><trkpt lat="40.5194867" lon="15.0060117"><ele>13.666666666666668</ele><time>2026-04-25T09:52:34.995Z</time></trkpt><trkpt lat="40.5193967" lon="15.0061783"><ele>13.333333333333332</ele><time>2026-04-25T09:52:35.989Z</time></trkpt><trkpt lat="40.51931" lon="15.0063433"><ele>13.0</ele><time>2026-04-25T09:52:36.993Z</time></trkpt><trkpt lat="40.5192233" lon="15.006505"><ele>13.666666666666666</ele><time>2026-04-25T09:52:38.046Z</time></trkpt><trkpt lat="40.5191267" lon="15.0066767"><ele>14.333333333333332</ele><time>2026-04-25T09:52:38.986Z</time></trkpt><trkpt lat="40.5190267" lon="15.006835"><ele>15.0</ele><time>2026-04-25T09:52:39.993Z</time></trkpt><trkpt lat="40.5189267" lon="15.0069883"><ele>15.0</ele><time>2026-04-25T09:52:40.988Z</time></trkpt><trkpt lat="40.5188283" lon="15.0071233"><ele>15.0</ele><time>2026-04-25T09:52:41.993Z</time></trkpt><trkpt lat="40.5187317" lon="15.00725"><ele>15.0</ele><time>2026-04-25T09:52:42.993Z</time></trkpt><trkpt lat="40.5186317" lon="15.00737"><ele>15.0</ele><time>2026-04-25T09:52:44.049Z</time></trkpt><trkpt lat="40.5185317" lon="15.00749"><ele>14.75</ele><time>2026-04-25T09:52:44.985Z</time></trkpt><trkpt lat="40.5184283" lon="15.007605"><ele>14.5</ele><time>2026-04-25T09:52:45.99Z</time></trkpt><trkpt lat="40.5183183" lon="15.00772"><ele>14.25</ele><time>2026-04-25T09:52:46.988Z</time></trkpt><trkpt lat="40.518205" lon="15.0078217"><ele>14.0</ele><time>2026-04-25T09:52:47.988Z</time></trkpt><trkpt lat="40.5180867" lon="15.0079217"><ele>14.0</ele><time>2026-04-25T09:52:48.999Z</time></trkpt><trkpt lat="40.517965" lon="15.0080233"><ele>14.0</ele><time>2026-04-25T09:52:50.043Z</time></trkpt><trkpt lat="40.517845" lon="15.0081183"><ele>14.0</ele><time>2026-04-25T09:52:50.985Z</time></trkpt><trkpt lat="40.51772" lon="15.0082167"><ele>14.0</ele><time>2026-04-25T09:52:51.995Z</time></trkpt><trkpt lat="40.51759" lon="15.0083117"><ele>13.0</ele><time>2026-04-25T09:52:53.005Z</time></trkpt><trkpt lat="40.5174517" lon="15.0084033"><ele>12.0</ele><time>2026-04-25T09:52:53.992Z</time></trkpt><trkpt lat="40.5173067" lon="15.0084933"><ele>11.0</ele><time>2026-04-25T09:52:54.994Z</time></trkpt><trkpt lat="40.5171583" lon="15.00856"><ele>10.333333333333332</ele><time>2026-04-25T09:52:56.053Z</time></trkpt><trkpt lat="40.517005" lon="15.0086217"><ele>9.666666666666666</ele><time>2026-04-25T09:52:56.99Z</time></trkpt><trkpt lat="40.5168467" lon="15.0086783"><ele>9.0</ele><time>2026-04-25T09:52:57.985Z</time></trkpt><trkpt lat="40.5166933" lon="15.0087267"><ele>9.0</ele><time>2026-04-25T09:52:58.992Z</time></trkpt><trkpt lat="40.5165383" lon="15.0087783"><ele>9.0</ele><time>2026-04-25T09:52:59.993Z</time></trkpt><trkpt lat="40.5163867" lon="15.0088317"><ele>9.0</ele><time>2026-04-25T09:53:00.999Z</time></trkpt><trkpt lat="40.5162367" lon="15.008885"><ele>8.75</ele><time>2026-04-25T09:53:02.045Z</time></trkpt><trkpt lat="40.5160967" lon="15.0089333"><ele>8.5</ele><time>2026-04-25T09:53:02.995Z</time></trkpt><trkpt lat="40.51596" lon="15.0089817"><ele>8.25</ele><time>2026-04-25T09:53:03.987Z</time></trkpt><trkpt lat="40.515825" lon="15.0090283"><ele>8.0</ele><time>2026-04-25T09:53:04.987Z</time></trkpt><trkpt lat="40.5156833" lon="15.0090767"><ele>8.0</ele><time>2026-04-25T09:53:05.991Z</time></trkpt><trkpt lat="40.51553" lon="15.0091283"><ele>8.0</ele><time>2026-04-25T09:53:06.995Z</time></trkpt><trkpt lat="40.5153717" lon="15.0091817"><ele>8.0</ele><time>2026-04-25T09:53:08.058Z</time></trkpt><trkpt lat="40.515205" lon="15.0092417"><ele>7.666666666666666</ele><time>2026-04-25T09:53:08.99Z</time></trkpt><trkpt lat="40.515035" lon="15.009305"><ele>7.333333333333334</ele><time>2026-04-25T09:53:09.988Z</time></trkpt><trkpt lat="40.5148567" lon="15.009365"><ele>7.0</ele><time>2026-04-25T09:53:10.986Z</time></trkpt><trkpt lat="40.514675" lon="15.00943"><ele>7.0</ele><time>2026-04-25T09:53:11.992Z</time></trkpt><trkpt lat="40.5144983" lon="15.0094983"><ele>7.0</ele><time>2026-04-25T09:53:12.991Z</time></trkpt><trkpt lat="40.5143367" lon="15.0095617"><ele>7.0</ele><time>2026-04-25T09:53:14.045Z</time></trkpt><trkpt lat="40.51418" lon="15.009615"><ele>7.0</ele><time>2026-04-25T09:53:14.985Z</time></trkpt><trkpt lat="40.5140267" lon="15.00967"><ele>7.0</ele><time>2026-04-25T09:53:15.99Z</time></trkpt><trkpt lat="40.51388" lon="15.0097217"><ele>7.0</ele><time>2026-04-25T09:53:16.996Z</time></trkpt><trkpt lat="40.5137433" lon="15.0097733"><ele>7.25</ele><time>2026-04-25T09:53:17.992Z</time></trkpt><trkpt lat="40.5136133" lon="15.0098283"><ele>7.5</ele><time>2026-04-25T09:53:18.995Z</time></trkpt><trkpt lat="40.513485" lon="15.0098817"><ele>7.75</ele><time>2026-04-25T09:53:20.047Z</time></trkpt><trkpt lat="40.51336" lon="15.0099333"><ele>8.0</ele><time>2026-04-25T09:53:20.986Z</time></trkpt><trkpt lat="40.5132417" lon="15.0099733"><ele>7.75</ele><time>2026-04-25T09:53:21.994Z</time></trkpt><trkpt lat="40.5131333" lon="15.0100117"><ele>7.5</ele><time>2026-04-25T09:53:22.994Z</time></trkpt><trkpt lat="40.5130267" lon="15.01005"><ele>7.25</ele><time>2026-04-25T09:53:23.99Z</time></trkpt><trkpt lat="40.5129183" lon="15.0100917"><ele>7.0</ele><time>2026-04-25T09:53:24.985Z</time></trkpt><trkpt lat="40.512805" lon="15.0101233"><ele>7.5</ele><time>2026-04-25T09:53:26.008Z</time></trkpt><trkpt lat="40.5126883" lon="15.0101633"><ele>8.0</ele><time>2026-04-25T09:53:26.99Z</time></trkpt><trkpt lat="40.5125667" lon="15.0102067"><ele>8.5</ele><time>2026-04-25T09:53:27.986Z</time></trkpt><trkpt lat="40.51243" lon="15.010255"><ele>9.0</ele><time>2026-04-25T09:53:28.99Z</time></trkpt><trkpt lat="40.5122883" lon="15.0103033"><ele>9.0</ele><time>2026-04-25T09:53:29.998Z</time></trkpt><trkpt lat="40.5121417" lon="15.0103617"><ele>9.0</ele><time>2026-04-25T09:53:30.992Z</time></trkpt><trkpt lat="40.51199" lon="15.01042"><ele>9.0</ele><time>2026-04-25T09:53:32.043Z</time></trkpt><trkpt lat="40.5118383" lon="15.0104783"><ele>9.0</ele><time>2026-04-25T09:53:32.993Z</time></trkpt><trkpt lat="40.5116883" lon="15.0105333"><ele>9.0</ele><time>2026-04-25T09:53:33.99Z</time></trkpt><trkpt lat="40.5115367" lon="15.0105917"><ele>9.0</ele><time>2026-04-25T09:53:34.996Z</time></trkpt><trkpt lat="40.5113833" lon="15.0106467"><ele>8.0</ele><time>2026-04-25T09:53:35.99Z</time></trkpt><trkpt lat="40.5112267" lon="15.0106983"><ele>7.0</ele><time>2026-04-25T09:53:36.995Z</time></trkpt><trkpt lat="40.511065" lon="15.0107517"><ele>6.0</ele><time>2026-04-25T09:53:38.044Z</time></trkpt><trkpt lat="40.5109" lon="15.0108083"><ele>6.0</ele><time>2026-04-25T09:53:38.988Z</time></trkpt><trkpt lat="40.5107317" lon="15.0108733"><ele>6.0</ele><time>2026-04-25T09:53:39.994Z</time></trkpt><trkpt lat="40.5105617" lon="15.0109433"><ele>6.0</ele><time>2026-04-25T09:53:40.996Z</time></trkpt><trkpt lat="40.5103933" lon="15.0110033"><ele>6.0</ele><time>2026-04-25T09:53:41.986Z</time></trkpt><trkpt lat="40.5102267" lon="15.011065"><ele>6.0</ele><time>2026-04-25T09:53:42.99Z</time></trkpt><trkpt lat="40.51006" lon="15.0111267"><ele>6.0</ele><time>2026-04-25T09:53:44.05Z</time></trkpt><trkpt lat="40.5099" lon="15.0111867"><ele>6.0</ele><time>2026-04-25T09:53:44.989Z</time></trkpt><trkpt lat="40.509745" lon="15.01125"><ele>6.0</ele><time>2026-04-25T09:53:45.99Z</time></trkpt><trkpt lat="40.509595" lon="15.01131"><ele>6.0</ele><time>2026-04-25T09:53:46.995Z</time></trkpt><trkpt lat="40.5094567" lon="15.01136"><ele>5.75</ele><time>2026-04-25T09:53:47.993Z</time></trkpt><trkpt lat="40.509325" lon="15.0114117"><ele>5.5</ele><time>2026-04-25T09:53:49Z</time></trkpt><trkpt lat="40.5092017" lon="15.01146"><ele>5.25</ele><time>2026-04-25T09:53:50.048Z</time></trkpt><trkpt lat="40.5090833" lon="15.0115"><ele>5.0</ele><time>2026-04-25T09:53:50.986Z</time></trkpt><trkpt lat="40.50897" lon="15.0115417"><ele>5.0</ele><time>2026-04-25T09:53:51.993Z</time></trkpt><trkpt lat="40.5088583" lon="15.01158"><ele>5.0</ele><time>2026-04-25T09:53:52.994Z</time></trkpt><trkpt lat="40.5087433" lon="15.0116183"><ele>5.0</ele><time>2026-04-25T09:53:53.991Z</time></trkpt><trkpt lat="40.508625" lon="15.01166"><ele>5.0</ele><time>2026-04-25T09:53:54.991Z</time></trkpt><trkpt lat="40.5085067" lon="15.0117033"><ele>5.5</ele><time>2026-04-25T09:53:56.055Z</time></trkpt><trkpt lat="40.5083883" lon="15.01175"><ele>6.0</ele><time>2026-04-25T09:53:56.986Z</time></trkpt><trkpt lat="40.5082733" lon="15.0117933"><ele>6.5</ele><time>2026-04-25T09:53:57.991Z</time></trkpt><trkpt lat="40.5081567" lon="15.011835"><ele>7.0</ele><time>2026-04-25T09:53:58.995Z</time></trkpt><trkpt lat="40.50804" lon="15.0118733"><ele>7.0</ele><time>2026-04-25T09:53:59.991Z</time></trkpt><trkpt lat="40.5079217" lon="15.0119133"><ele>7.0</ele><time>2026-04-25T09:54:00.998Z</time></trkpt><trkpt lat="40.5078033" lon="15.01195"><ele>7.0</ele><time>2026-04-25T09:54:02.042Z</time></trkpt><trkpt lat="40.5076833" lon="15.0119933"><ele>7.0</ele><time>2026-04-25T09:54:02.992Z</time></trkpt><trkpt lat="40.5075667" lon="15.0120333"><ele>6.75</ele><time>2026-04-25T09:54:03.993Z</time></trkpt><trkpt lat="40.5074517" lon="15.0120717"><ele>6.5</ele><time>2026-04-25T09:54:04.99Z</time></trkpt><trkpt lat="40.5073367" lon="15.0121033"><ele>6.25</ele><time>2026-04-25T09:54:05.991Z</time></trkpt><trkpt lat="40.5072233" lon="15.0121267"><ele>6.0</ele><time>2026-04-25T09:54:06.993Z</time></trkpt><trkpt lat="40.5071117" lon="15.01215"><ele>6.199999999999999</ele><time>2026-04-25T09:54:08.052Z</time></trkpt><trkpt lat="40.507" lon="15.01216"><ele>6.3999999999999995</ele><time>2026-04-25T09:54:08.987Z</time></trkpt><trkpt lat="40.50689" lon="15.0121717"><ele>6.6</ele><time>2026-04-25T09:54:09.985Z</time></trkpt><trkpt lat="40.50678" lon="15.0121767"><ele>6.8</ele><time>2026-04-25T09:54:10.991Z</time></trkpt><trkpt lat="40.5066717" lon="15.0121767"><ele>7.0</ele><time>2026-04-25T09:54:11.989Z</time></trkpt><trkpt lat="40.50657" lon="15.01217"><ele>7.0</ele><time>2026-04-25T09:54:12.997Z</time></trkpt><trkpt lat="40.506475" lon="15.0121567"><ele>6.999999999999999</ele><time>2026-04-25T09:54:14.045Z</time></trkpt><trkpt lat="40.506385" lon="15.0121383"><ele>6.999999999999999</ele><time>2026-04-25T09:54:14.986Z</time></trkpt><trkpt lat="40.506295" lon="15.0121183"><ele>7.0</ele><time>2026-04-25T09:54:15.984Z</time></trkpt><trkpt lat="40.5062" lon="15.01209"><ele>7.0</ele><time>2026-04-25T09:54:16.997Z</time></trkpt><trkpt lat="40.5061017" lon="15.0120633"><ele>7.0</ele><time>2026-04-25T09:54:17.989Z</time></trkpt><trkpt lat="40.5059983" lon="15.0120367"><ele>6.999999999999999</ele><time>2026-04-25T09:54:18.999Z</time></trkpt><trkpt lat="40.5058917" lon="15.01201"><ele>6.999999999999999</ele><time>2026-04-25T09:54:20.044Z</time></trkpt><trkpt lat="40.5057833" lon="15.0119833"><ele>7.0</ele><time>2026-04-25T09:54:20.987Z</time></trkpt><trkpt lat="40.5056667" lon="15.0119533"><ele>7.0</ele><time>2026-04-25T09:54:21.992Z</time></trkpt><trkpt lat="40.5055483" lon="15.011925"><ele>7.0</ele><time>2026-04-25T09:54:22.985Z</time></trkpt><trkpt lat="40.505425" lon="15.0118933"><ele>7.0</ele><time>2026-04-25T09:54:23.987Z</time></trkpt><trkpt lat="40.5053017" lon="15.0118633"><ele>7.0</ele><time>2026-04-25T09:54:24.993Z</time></trkpt><trkpt lat="40.505175" lon="15.0118317"><ele>7.0</ele><time>2026-04-25T09:54:26.058Z</time></trkpt><trkpt lat="40.5050467" lon="15.011795"><ele>6.75</ele><time>2026-04-25T09:54:26.985Z</time></trkpt><trkpt lat="40.5049183" lon="15.0117617"><ele>6.5</ele><time>2026-04-25T09:54:27.991Z</time></trkpt><trkpt lat="40.5047917" lon="15.0117283"><ele>6.25</ele><time>2026-04-25T09:54:28.985Z</time></trkpt><trkpt lat="40.5046617" lon="15.0116967"><ele>6.0</ele><time>2026-04-25T09:54:29.986Z</time></trkpt><trkpt lat="40.5045317" lon="15.0116617"><ele>6.0</ele><time>2026-04-25T09:54:30.992Z</time></trkpt><trkpt lat="40.5044" lon="15.0116283"><ele>6.0</ele><time>2026-04-25T09:54:32.046Z</time></trkpt><trkpt lat="40.5042633" lon="15.011595"><ele>6.0</ele><time>2026-04-25T09:54:32.991Z</time></trkpt><trkpt lat="40.5041283" lon="15.0115667"><ele>6.0</ele><time>2026-04-25T09:54:33.986Z</time></trkpt><trkpt lat="40.5039917" lon="15.0115367"><ele>6.0</ele><time>2026-04-25T09:54:34.994Z</time></trkpt><trkpt lat="40.5038533" lon="15.0115067"><ele>6.0</ele><time>2026-04-25T09:54:35.991Z</time></trkpt><trkpt lat="40.5037117" lon="15.0114733"><ele>6.0</ele><time>2026-04-25T09:54:36.998Z</time></trkpt><trkpt lat="40.5035667" lon="15.0114317"><ele>6.0</ele><time>2026-04-25T09:54:38.046Z</time></trkpt><trkpt lat="40.5034183" lon="15.0113933"><ele>5.666666666666667</ele><time>2026-04-25T09:54:38.994Z</time></trkpt><trkpt lat="40.5032667" lon="15.0113567"><ele>5.333333333333334</ele><time>2026-04-25T09:54:39.989Z</time></trkpt><trkpt lat="40.5031133" lon="15.01132"><ele>5.0</ele><time>2026-04-25T09:54:40.999Z</time></trkpt><trkpt lat="40.502965" lon="15.0112833"><ele>5.25</ele><time>2026-04-25T09:54:41.992Z</time></trkpt><trkpt lat="40.50282" lon="15.01125"><ele>5.5</ele><time>2026-04-25T09:54:42.996Z</time></trkpt><trkpt lat="40.5026783" lon="15.0112267"><ele>5.75</ele><time>2026-04-25T09:54:44.041Z</time></trkpt><trkpt lat="40.5025417" lon="15.0112217"><ele>6.0</ele><time>2026-04-25T09:54:44.987Z</time></trkpt><trkpt lat="40.5024083" lon="15.0112283"><ele>6.0</ele><time>2026-04-25T09:54:45.997Z</time></trkpt><trkpt lat="40.5022733" lon="15.011255"><ele>6.0</ele><time>2026-04-25T09:54:46.987Z</time></trkpt><trkpt lat="40.5021417" lon="15.0112933"><ele>6.0</ele><time>2026-04-25T09:54:47.992Z</time></trkpt><trkpt lat="40.5020117" lon="15.0113383"><ele>6.0</ele><time>2026-04-25T09:54:48.992Z</time></trkpt><trkpt lat="40.501885" lon="15.011395"><ele>6.0</ele><time>2026-04-25T09:54:50.048Z</time></trkpt><trkpt lat="40.5017583" lon="15.011455"><ele>6.0</ele><time>2026-04-25T09:54:50.991Z</time></trkpt><trkpt lat="40.5016367" lon="15.01152"><ele>6.0</ele><time>2026-04-25T09:54:51.991Z</time></trkpt><trkpt lat="40.501515" lon="15.0115883"><ele>6.0</ele><time>2026-04-25T09:54:52.995Z</time></trkpt><trkpt lat="40.5013967" lon="15.0116583"><ele>5.75</ele><time>2026-04-25T09:54:53.994Z</time></trkpt><trkpt lat="40.5012767" lon="15.01173"><ele>5.5</ele><time>2026-04-25T09:54:54.999Z</time></trkpt><trkpt lat="40.5011533" lon="15.0118017"><ele>5.25</ele><time>2026-04-25T09:54:56.055Z</time></trkpt><trkpt lat="40.5010267" lon="15.0118783"><ele>5.0</ele><time>2026-04-25T09:54:56.99Z</time></trkpt><trkpt lat="40.5008983" lon="15.0119567"><ele>5.0</ele><time>2026-04-25T09:54:57.991Z</time></trkpt><trkpt lat="40.5007683" lon="15.0120367"><ele>5.0</ele><time>2026-04-25T09:54:58.993Z</time></trkpt><trkpt lat="40.50064" lon="15.0121133"><ele>5.0</ele><time>2026-04-25T09:54:59.99Z</time></trkpt><trkpt lat="40.50052" lon="15.0121833"><ele>5.0</ele><time>2026-04-25T09:55:00.994Z</time></trkpt><trkpt lat="40.5004033" lon="15.0122517"><ele>5.0</ele><time>2026-04-25T09:55:02.047Z</time></trkpt><trkpt lat="40.50029" lon="15.0123183"><ele>5.0</ele><time>2026-04-25T09:55:02.983Z</time></trkpt><trkpt lat="40.5001783" lon="15.0123833"><ele>5.0</ele><time>2026-04-25T09:55:03.994Z</time></trkpt><trkpt lat="40.500065" lon="15.012445"><ele>5.0</ele><time>2026-04-25T09:55:04.995Z</time></trkpt><trkpt lat="40.49995" lon="15.01251"><ele>5.25</ele><time>2026-04-25T09:55:05.994Z</time></trkpt><trkpt lat="40.4998333" lon="15.01258"><ele>5.5</ele><time>2026-04-25T09:55:07Z</time></trkpt><trkpt lat="40.4997117" lon="15.0126533"><ele>5.75</ele><time>2026-04-25T09:55:08.043Z</time></trkpt><trkpt lat="40.4995867" lon="15.0127283"><ele>6.0</ele><time>2026-04-25T09:55:08.989Z</time></trkpt><trkpt lat="40.4994583" lon="15.0128017"><ele>5.5</ele><time>2026-04-25T09:55:09.99Z</time></trkpt><trkpt lat="40.499325" lon="15.012885"><ele>5.0</ele><time>2026-04-25T09:55:10.987Z</time></trkpt><trkpt lat="40.4991883" lon="15.0129667"><ele>4.5</ele><time>2026-04-25T09:55:11.994Z</time></trkpt><trkpt lat="40.4990517" lon="15.01305"><ele>4.0</ele><time>2026-04-25T09:55:12.99Z</time></trkpt><trkpt lat="40.4989233" lon="15.0131267"><ele>4.0</ele><time>2026-04-25T09:55:14.042Z</time></trkpt><trkpt lat="40.4987917" lon="15.0132067"><ele>4.0</ele><time>2026-04-25T09:55:14.987Z</time></trkpt><trkpt lat="40.4986567" lon="15.0132867"><ele>4.0</ele><time>2026-04-25T09:55:15.989Z</time></trkpt><trkpt lat="40.4985167" lon="15.01337"><ele>4.0</ele><time>2026-04-25T09:55:16.998Z</time></trkpt><trkpt lat="40.498375" lon="15.0134533"><ele>4.75</ele><time>2026-04-25T09:55:18.001Z</time></trkpt><trkpt lat="40.4982383" lon="15.01353"><ele>5.5</ele><time>2026-04-25T09:55:18.992Z</time></trkpt><trkpt lat="40.4981067" lon="15.0136117"><ele>6.25</ele><time>2026-04-25T09:55:20.05Z</time></trkpt><trkpt lat="40.4979683" lon="15.013695"><ele>7.0</ele><time>2026-04-25T09:55:20.99Z</time></trkpt><trkpt lat="40.4978267" lon="15.01378"><ele>7.0</ele><time>2026-04-25T09:55:21.99Z</time></trkpt><trkpt lat="40.49768" lon="15.0138667"><ele>7.0</ele><time>2026-04-25T09:55:23Z</time></trkpt><trkpt lat="40.497535" lon="15.0139483"><ele>7.0</ele><time>2026-04-25T09:55:23.993Z</time></trkpt><trkpt lat="40.4973933" lon="15.0140333"><ele>7.0</ele><time>2026-04-25T09:55:25.001Z</time></trkpt><trkpt lat="40.4972533" lon="15.01411"><ele>7.0</ele><time>2026-04-25T09:55:26.055Z</time></trkpt><trkpt lat="40.49711" lon="15.0141833"><ele>7.0</ele><time>2026-04-25T09:55:26.994Z</time></trkpt><trkpt lat="40.4969667" lon="15.0142583"><ele>6.666666666666667</ele><time>2026-04-25T09:55:27.994Z</time></trkpt><trkpt lat="40.49682" lon="15.0143383"><ele>6.333333333333334</ele><time>2026-04-25T09:55:28.991Z</time></trkpt><trkpt lat="40.4966767" lon="15.0144233"><ele>6.0</ele><time>2026-04-25T09:55:29.991Z</time></trkpt><trkpt lat="40.4965317" lon="15.0145117"><ele>6.0</ele><time>2026-04-25T09:55:30.994Z</time></trkpt><trkpt lat="40.4963867" lon="15.0146"><ele>6.0</ele><time>2026-04-25T09:55:32.042Z</time></trkpt><trkpt lat="40.4962483" lon="15.0146883"><ele>6.0</ele><time>2026-04-25T09:55:32.988Z</time></trkpt><trkpt lat="40.49611" lon="15.0147717"><ele>7.0</ele><time>2026-04-25T09:55:33.987Z</time></trkpt><trkpt lat="40.4959733" lon="15.0148533"><ele>8.0</ele><time>2026-04-25T09:55:34.991Z</time></trkpt><trkpt lat="40.4958433" lon="15.01493"><ele>9.0</ele><time>2026-04-25T09:55:35.992Z</time></trkpt><trkpt lat="40.4957167" lon="15.0149983"><ele>10.0</ele><time>2026-04-25T09:55:36.993Z</time></trkpt><trkpt lat="40.49559" lon="15.01506"><ele>10.5</ele><time>2026-04-25T09:55:38.055Z</time></trkpt><trkpt lat="40.495465" lon="15.0151233"><ele>11.0</ele><time>2026-04-25T09:55:38.987Z</time></trkpt><trkpt lat="40.4953383" lon="15.0151867"><ele>11.5</ele><time>2026-04-25T09:55:39.99Z</time></trkpt><trkpt lat="40.4952117" lon="15.015255"><ele>12.0</ele><time>2026-04-25T09:55:40.992Z</time></trkpt><trkpt lat="40.4950867" lon="15.0153183"><ele>12.75</ele><time>2026-04-25T09:55:41.991Z</time></trkpt><trkpt lat="40.4949617" lon="15.015385"><ele>13.5</ele><time>2026-04-25T09:55:42.994Z</time></trkpt><trkpt lat="40.4948383" lon="15.0154517"><ele>14.25</ele><time>2026-04-25T09:55:44.041Z</time></trkpt><trkpt lat="40.4947183" lon="15.015515"><ele>15.0</ele><time>2026-04-25T09:55:44.994Z</time></trkpt><trkpt lat="40.4946167" lon="15.0155667"><ele>15.2</ele><time>2026-04-25T09:55:45.991Z</time></trkpt><trkpt lat="40.4945333" lon="15.0156033"><ele>15.4</ele><time>2026-04-25T09:55:47Z</time></trkpt><trkpt lat="40.494465" lon="15.01564"><ele>15.600000000000001</ele><time>2026-04-25T09:55:47.99Z</time></trkpt><trkpt lat="40.4944" lon="15.0156817"><ele>15.8</ele><time>2026-04-25T09:55:49.005Z</time></trkpt><trkpt lat="40.4943067" lon="15.0157667"><ele>16.0</ele><time>2026-04-25T09:55:50.987Z</time></trkpt><trkpt lat="40.4942083" lon="15.01584"><ele>16.0</ele><time>2026-04-25T09:55:52.988Z</time></trkpt><trkpt lat="40.4941283" lon="15.0158833"><ele>16.0</ele><time>2026-04-25T09:55:53.992Z</time></trkpt><trkpt lat="40.4940333" lon="15.0159233"><ele>16.0</ele><time>2026-04-25T09:55:55Z</time></trkpt><trkpt lat="40.4939267" lon="15.0159633"><ele>16.0</ele><time>2026-04-25T09:55:56.054Z</time></trkpt><trkpt lat="40.4938183" lon="15.0160067"><ele>16.0</ele><time>2026-04-25T09:55:56.986Z</time></trkpt><trkpt lat="40.4937117" lon="15.0160417"><ele>16.0</ele><time>2026-04-25T09:55:57.993Z</time></trkpt><trkpt lat="40.4936033" lon="15.016085"><ele>16.0</ele><time>2026-04-25T09:55:58.996Z</time></trkpt><trkpt lat="40.493495" lon="15.0161283"><ele>16.0</ele><time>2026-04-25T09:55:59.99Z</time></trkpt><trkpt lat="40.4933883" lon="15.01617"><ele>16.0</ele><time>2026-04-25T09:56:00.993Z</time></trkpt><trkpt lat="40.493285" lon="15.016205"><ele>16.0</ele><time>2026-04-25T09:56:02.039Z</time></trkpt><trkpt lat="40.4931817" lon="15.01623"><ele>16.0</ele><time>2026-04-25T09:56:02.984Z</time></trkpt><trkpt lat="40.4930767" lon="15.0162467"><ele>16.0</ele><time>2026-04-25T09:56:03.993Z</time></trkpt><trkpt lat="40.49297" lon="15.016255"><ele>16.0</ele><time>2026-04-25T09:56:04.992Z</time></trkpt><trkpt lat="40.4928633" lon="15.0162583"><ele>16.0</ele><time>2026-04-25T09:56:05.991Z</time></trkpt><trkpt lat="40.4927533" lon="15.0162617"><ele>16.0</ele><time>2026-04-25T09:56:06.994Z</time></trkpt><trkpt lat="40.4926383" lon="15.0162567"><ele>16.25</ele><time>2026-04-25T09:56:08.046Z</time></trkpt><trkpt lat="40.4925233" lon="15.0162517"><ele>16.5</ele><time>2026-04-25T09:56:08.985Z</time></trkpt><trkpt lat="40.4924083" lon="15.016245"><ele>16.75</ele><time>2026-04-25T09:56:09.989Z</time></trkpt><trkpt lat="40.4922917" lon="15.0162333"><ele>17.0</ele><time>2026-04-25T09:56:10.992Z</time></trkpt><trkpt lat="40.492175" lon="15.0162183"><ele>17.25</ele><time>2026-04-25T09:56:11.985Z</time></trkpt><trkpt lat="40.4920567" lon="15.0161967"><ele>17.5</ele><time>2026-04-25T09:56:12.999Z</time></trkpt><trkpt lat="40.4919417" lon="15.01618"><ele>17.75</ele><time>2026-04-25T09:56:14.045Z</time></trkpt><trkpt lat="40.4918267" lon="15.01616"><ele>18.0</ele><time>2026-04-25T09:56:14.991Z</time></trkpt><trkpt lat="40.49171" lon="15.0161417"><ele>18.0</ele><time>2026-04-25T09:56:15.985Z</time></trkpt><trkpt lat="40.4915933" lon="15.0161217"><ele>18.0</ele><time>2026-04-25T09:56:16.992Z</time></trkpt><trkpt lat="40.4914817" lon="15.0161033"><ele>18.0</ele><time>2026-04-25T09:56:17.986Z</time></trkpt><trkpt lat="40.4913717" lon="15.0160883"><ele>18.0</ele><time>2026-04-25T09:56:18.998Z</time></trkpt><trkpt lat="40.4912667" lon="15.0160717"><ele>18.0</ele><time>2026-04-25T09:56:20.044Z</time></trkpt><trkpt lat="40.4911633" lon="15.0160583"><ele>17.75</ele><time>2026-04-25T09:56:20.992Z</time></trkpt><trkpt lat="40.4910533" lon="15.016045"><ele>17.5</ele><time>2026-04-25T09:56:21.991Z</time></trkpt><trkpt lat="40.4909417" lon="15.01603"><ele>17.25</ele><time>2026-04-25T09:56:22.994Z</time></trkpt><trkpt lat="40.4908217" lon="15.0160133"><ele>17.0</ele><time>2026-04-25T09:56:23.986Z</time></trkpt><trkpt lat="40.490695" lon="15.0159983"><ele>17.0</ele><time>2026-04-25T09:56:24.992Z</time></trkpt><trkpt lat="40.4905667" lon="15.0159817"><ele>17.0</ele><time>2026-04-25T09:56:26.052Z</time></trkpt><trkpt lat="40.490435" lon="15.0159667"><ele>17.0</ele><time>2026-04-25T09:56:26.989Z</time></trkpt><trkpt lat="40.4903017" lon="15.0159533"><ele>17.0</ele><time>2026-04-25T09:56:27.989Z</time></trkpt><trkpt lat="40.4901683" lon="15.01594"><ele>16.75</ele><time>2026-04-25T09:56:28.993Z</time></trkpt><trkpt lat="40.4900283" lon="15.0159283"><ele>16.5</ele><time>2026-04-25T09:56:29.991Z</time></trkpt><trkpt lat="40.4898817" lon="15.01592"><ele>16.25</ele><time>2026-04-25T09:56:30.992Z</time></trkpt><trkpt lat="40.4897317" lon="15.0159067"><ele>16.0</ele><time>2026-04-25T09:56:32.042Z</time></trkpt><trkpt lat="40.4895767" lon="15.0158967"><ele>16.666666666666664</ele><time>2026-04-25T09:56:32.99Z</time></trkpt><trkpt lat="40.4894233" lon="15.0158783"><ele>17.333333333333332</ele><time>2026-04-25T09:56:33.985Z</time></trkpt><trkpt lat="40.48927" lon="15.0158583"><ele>18.0</ele><time>2026-04-25T09:56:34.992Z</time></trkpt><trkpt lat="40.4891117" lon="15.01584"><ele>18.0</ele><time>2026-04-25T09:56:35.989Z</time></trkpt><trkpt lat="40.4889467" lon="15.015825"><ele>18.0</ele><time>2026-04-25T09:56:36.992Z</time></trkpt><trkpt lat="40.4887783" lon="15.0158067"><ele>18.0</ele><time>2026-04-25T09:56:38.046Z</time></trkpt><trkpt lat="40.48861" lon="15.0157917"><ele>17.0</ele><time>2026-04-25T09:56:38.984Z</time></trkpt><trkpt lat="40.4884417" lon="15.0157717"><ele>16.0</ele><time>2026-04-25T09:56:39.989Z</time></trkpt><trkpt lat="40.4882767" lon="15.015755"><ele>15.0</ele><time>2026-04-25T09:56:40.996Z</time></trkpt><trkpt lat="40.4881167" lon="15.015735"><ele>15.0</ele><time>2026-04-25T09:56:41.988Z</time></trkpt><trkpt lat="40.4879583" lon="15.0157167"><ele>15.0</ele><time>2026-04-25T09:56:42.997Z</time></trkpt><trkpt lat="40.4877983" lon="15.0156933"><ele>15.0</ele><time>2026-04-25T09:56:44.042Z</time></trkpt><trkpt lat="40.48764" lon="15.01567"><ele>13.666666666666666</ele><time>2026-04-25T09:56:44.988Z</time></trkpt><trkpt lat="40.48748" lon="15.01565"><ele>12.333333333333332</ele><time>2026-04-25T09:56:45.996Z</time></trkpt><trkpt lat="40.4873217" lon="15.0156333"><ele>11.0</ele><time>2026-04-25T09:56:46.99Z</time></trkpt><trkpt lat="40.487165" lon="15.015615"><ele>10.333333333333332</ele><time>2026-04-25T09:56:47.995Z</time></trkpt><trkpt lat="40.4870117" lon="15.015595"><ele>9.666666666666666</ele><time>2026-04-25T09:56:48.986Z</time></trkpt><trkpt lat="40.4868633" lon="15.0155783"><ele>9.0</ele><time>2026-04-25T09:56:50.043Z</time></trkpt><trkpt lat="40.4867133" lon="15.0155583"><ele>9.0</ele><time>2026-04-25T09:56:50.987Z</time></trkpt><trkpt lat="40.486565" lon="15.01554"><ele>9.0</ele><time>2026-04-25T09:56:51.984Z</time></trkpt><trkpt lat="40.4864183" lon="15.015525"><ele>9.0</ele><time>2026-04-25T09:56:52.994Z</time></trkpt><trkpt lat="40.48628" lon="15.0155067"><ele>9.0</ele><time>2026-04-25T09:56:53.99Z</time></trkpt><trkpt lat="40.4861483" lon="15.0154883"><ele>9.5</ele><time>2026-04-25T09:56:54.994Z</time></trkpt><trkpt lat="40.48602" lon="15.0154667"><ele>10.0</ele><time>2026-04-25T09:56:56.059Z</time></trkpt><trkpt lat="40.4858867" lon="15.0154483"><ele>10.5</ele><time>2026-04-25T09:56:56.991Z</time></trkpt><trkpt lat="40.4857517" lon="15.0154317"><ele>11.0</ele><time>2026-04-25T09:56:57.987Z</time></trkpt><trkpt lat="40.48561" lon="15.015415"><ele>11.0</ele><time>2026-04-25T09:56:58.987Z</time></trkpt><trkpt lat="40.4854717" lon="15.0153983"><ele>11.0</ele><time>2026-04-25T09:56:59.99Z</time></trkpt><trkpt lat="40.4853367" lon="15.015385"><ele>11.0</ele><time>2026-04-25T09:57:00.996Z</time></trkpt><trkpt lat="40.4852083" lon="15.0153683"><ele>11.0</ele><time>2026-04-25T09:57:02.052Z</time></trkpt><trkpt lat="40.4850883" lon="15.01535"><ele>11.200000000000001</ele><time>2026-04-25T09:57:02.993Z</time></trkpt><trkpt lat="40.484975" lon="15.0153367"><ele>11.4</ele><time>2026-04-25T09:57:03.992Z</time></trkpt><trkpt lat="40.4848733" lon="15.0153267"><ele>11.6</ele><time>2026-04-25T09:57:04.99Z</time></trkpt><trkpt lat="40.4847833" lon="15.015315"><ele>11.8</ele><time>2026-04-25T09:57:05.994Z</time></trkpt><trkpt lat="40.4846917" lon="15.0153017"><ele>12.0</ele><time>2026-04-25T09:57:06.994Z</time></trkpt><trkpt lat="40.484595" lon="15.0152867"><ele>12.2</ele><time>2026-04-25T09:57:08.043Z</time></trkpt><trkpt lat="40.4844933" lon="15.0152783"><ele>12.399999999999999</ele><time>2026-04-25T09:57:08.99Z</time></trkpt><trkpt lat="40.484385" lon="15.0152667"><ele>12.600000000000001</ele><time>2026-04-25T09:57:09.991Z</time></trkpt><trkpt lat="40.4842717" lon="15.0152567"><ele>12.8</ele><time>2026-04-25T09:57:10.993Z</time></trkpt><trkpt lat="40.4841533" lon="15.015245"><ele>13.0</ele><time>2026-04-25T09:57:11.992Z</time></trkpt><trkpt lat="40.48403" lon="15.0152317"><ele>13.0</ele><time>2026-04-25T09:57:12.992Z</time></trkpt><trkpt lat="40.4839033" lon="15.0152133"><ele>13.0</ele><time>2026-04-25T09:57:14.051Z</time></trkpt><trkpt lat="40.4837683" lon="15.015195"><ele>13.0</ele><time>2026-04-25T09:57:14.988Z</time></trkpt><trkpt lat="40.48363" lon="15.0151767"><ele>13.0</ele><time>2026-04-25T09:57:15.986Z</time></trkpt><trkpt lat="40.4834817" lon="15.01516"><ele>12.75</ele><time>2026-04-25T09:57:16.99Z</time></trkpt><trkpt lat="40.483335" lon="15.0151383"><ele>12.5</ele><time>2026-04-25T09:57:17.988Z</time></trkpt><trkpt lat="40.483185" lon="15.0151217"><ele>12.25</ele><time>2026-04-25T09:57:18.993Z</time></trkpt><trkpt lat="40.4830383" lon="15.015105"><ele>12.0</ele><time>2026-04-25T09:57:20.047Z</time></trkpt><trkpt lat="40.482905" lon="15.0150883"><ele>12.0</ele><time>2026-04-25T09:57:20.989Z</time></trkpt><trkpt lat="40.48279" lon="15.0150733"><ele>12.0</ele><time>2026-04-25T09:57:21.999Z</time></trkpt><trkpt lat="40.4826833" lon="15.0150633"><ele>12.0</ele><time>2026-04-25T09:57:22.994Z</time></trkpt><trkpt lat="40.4825717" lon="15.015055"><ele>12.0</ele><time>2026-04-25T09:57:23.992Z</time></trkpt><trkpt lat="40.48245" lon="15.0150433"><ele>12.0</ele><time>2026-04-25T09:57:24.99Z</time></trkpt><trkpt lat="40.4823233" lon="15.0150317"><ele>12.0</ele><time>2026-04-25T09:57:26.056Z</time></trkpt><trkpt lat="40.48219" lon="15.0150133"><ele>12.0</ele><time>2026-04-25T09:57:26.986Z</time></trkpt><trkpt lat="40.482055" lon="15.01499"><ele>12.0</ele><time>2026-04-25T09:57:27.982Z</time></trkpt><trkpt lat="40.4819167" lon="15.0149717"><ele>12.75</ele><time>2026-04-25T09:57:28.991Z</time></trkpt><trkpt lat="40.481775" lon="15.014955"><ele>13.5</ele><time>2026-04-25T09:57:29.988Z</time></trkpt><trkpt lat="40.481635" lon="15.0149333"><ele>14.25</ele><time>2026-04-25T09:57:30.993Z</time></trkpt><trkpt lat="40.4814983" lon="15.0149133"><ele>15.0</ele><time>2026-04-25T09:57:32.053Z</time></trkpt><trkpt lat="40.4813683" lon="15.0148933"><ele>15.25</ele><time>2026-04-25T09:57:32.991Z</time></trkpt><trkpt lat="40.4812433" lon="15.014875"><ele>15.5</ele><time>2026-04-25T09:57:33.993Z</time></trkpt><trkpt lat="40.4811267" lon="15.014855"><ele>15.75</ele><time>2026-04-25T09:57:34.995Z</time></trkpt><trkpt lat="40.48101" lon="15.0148367"><ele>16.0</ele><time>2026-04-25T09:57:35.991Z</time></trkpt><trkpt lat="40.48089" lon="15.01482"><ele>16.0</ele><time>2026-04-25T09:57:37Z</time></trkpt><trkpt lat="40.480765" lon="15.0148067"><ele>16.0</ele><time>2026-04-25T09:57:38.043Z</time></trkpt><trkpt lat="40.4806367" lon="15.0147917"><ele>16.0</ele><time>2026-04-25T09:57:38.99Z</time></trkpt><trkpt lat="40.4805067" lon="15.0147717"><ele>16.0</ele><time>2026-04-25T09:57:39.991Z</time></trkpt><trkpt lat="40.4803783" lon="15.014755"><ele>16.2</ele><time>2026-04-25T09:57:40.998Z</time></trkpt><trkpt lat="40.4802567" lon="15.0147417"><ele>16.400000000000002</ele><time>2026-04-25T09:57:41.993Z</time></trkpt><trkpt lat="40.4801467" lon="15.0147333"><ele>16.6</ele><time>2026-04-25T09:57:42.998Z</time></trkpt><trkpt lat="40.4800433" lon="15.01473"><ele>16.8</ele><time>2026-04-25T09:57:44.045Z</time></trkpt><trkpt lat="40.479945" lon="15.0147267"><ele>17.0</ele><time>2026-04-25T09:57:44.988Z</time></trkpt><trkpt lat="40.4798483" lon="15.014715"><ele>17.0</ele><time>2026-04-25T09:57:45.99Z</time></trkpt><trkpt lat="40.47975" lon="15.0147083"><ele>17.0</ele><time>2026-04-25T09:57:46.992Z</time></trkpt><trkpt lat="40.4796417" lon="15.0147017"><ele>17.0</ele><time>2026-04-25T09:57:47.998Z</time></trkpt><trkpt lat="40.4795267" lon="15.014695"><ele>17.0</ele><time>2026-04-25T09:57:48.996Z</time></trkpt><trkpt lat="40.4794017" lon="15.014685"><ele>17.0</ele><time>2026-04-25T09:57:50.047Z</time></trkpt><trkpt lat="40.4792633" lon="15.0146767"><ele>17.333333333333336</ele><time>2026-04-25T09:57:50.991Z</time></trkpt><trkpt lat="40.4791133" lon="15.0146633"><ele>17.666666666666668</ele><time>2026-04-25T09:57:51.99Z</time></trkpt><trkpt lat="40.4789533" lon="15.014645"><ele>18.0</ele><time>2026-04-25T09:57:52.994Z</time></trkpt><trkpt lat="40.4787933" lon="15.0146233"><ele>18.333333333333332</ele><time>2026-04-25T09:57:53.99Z</time></trkpt><trkpt lat="40.478635" lon="15.014605"><ele>18.666666666666664</ele><time>2026-04-25T09:57:54.995Z</time></trkpt><trkpt lat="40.4784717" lon="15.0145883"><ele>19.0</ele><time>2026-04-25T09:57:56.043Z</time></trkpt><trkpt lat="40.4783067" lon="15.0145667"><ele>19.0</ele><time>2026-04-25T09:57:56.988Z</time></trkpt><trkpt lat="40.4781417" lon="15.01455"><ele>19.0</ele><time>2026-04-25T09:57:57.996Z</time></trkpt><trkpt lat="40.477985" lon="15.0145333"><ele>19.0</ele><time>2026-04-25T09:57:58.987Z</time></trkpt><trkpt lat="40.4778317" lon="15.0145183"><ele>19.0</ele><time>2026-04-25T09:57:59.989Z</time></trkpt><trkpt lat="40.4776783" lon="15.0145033"><ele>19.0</ele><time>2026-04-25T09:58:00.992Z</time></trkpt><trkpt lat="40.4775283" lon="15.014485"><ele>19.0</ele><time>2026-04-25T09:58:02.045Z</time></trkpt><trkpt lat="40.47738" lon="15.0144717"><ele>19.0</ele><time>2026-04-25T09:58:02.983Z</time></trkpt><trkpt lat="40.4772433" lon="15.014455"><ele>19.0</ele><time>2026-04-25T09:58:03.989Z</time></trkpt><trkpt lat="40.4771167" lon="15.014435"><ele>19.0</ele><time>2026-04-25T09:58:04.988Z</time></trkpt><trkpt lat="40.4769933" lon="15.014415"><ele>19.0</ele><time>2026-04-25T09:58:05.994Z</time></trkpt><trkpt lat="40.476865" lon="15.0144017"><ele>19.25</ele><time>2026-04-25T09:58:06.99Z</time></trkpt><trkpt lat="40.476735" lon="15.0143883"><ele>19.5</ele><time>2026-04-25T09:58:08.047Z</time></trkpt><trkpt lat="40.4766" lon="15.0143733"><ele>19.75</ele><time>2026-04-25T09:58:08.993Z</time></trkpt><trkpt lat="40.476465" lon="15.01435"><ele>20.0</ele><time>2026-04-25T09:58:09.989Z</time></trkpt><trkpt lat="40.4763333" lon="15.0143283"><ele>20.5</ele><time>2026-04-25T09:58:10.986Z</time></trkpt><trkpt lat="40.4762033" lon="15.01431"><ele>21.0</ele><time>2026-04-25T09:58:11.987Z</time></trkpt><trkpt lat="40.4760783" lon="15.01429"><ele>21.5</ele><time>2026-04-25T09:58:12.991Z</time></trkpt><trkpt lat="40.47595" lon="15.0142767"><ele>22.0</ele><time>2026-04-25T09:58:14.042Z</time></trkpt><trkpt lat="40.4758267" lon="15.0142583"><ele>22.0</ele><time>2026-04-25T09:58:14.986Z</time></trkpt><trkpt lat="40.4757017" lon="15.014245"><ele>22.0</ele><time>2026-04-25T09:58:15.992Z</time></trkpt><trkpt lat="40.475575" lon="15.0142317"><ele>22.0</ele><time>2026-04-25T09:58:16.987Z</time></trkpt><trkpt lat="40.4754483" lon="15.0142217"><ele>22.0</ele><time>2026-04-25T09:58:17.992Z</time></trkpt><trkpt lat="40.475185" lon="15.0141817"><ele>21.75</ele><time>2026-04-25T09:58:20.047Z</time></trkpt><trkpt lat="40.4750617" lon="15.0141433"><ele>21.5</ele><time>2026-04-25T09:58:20.988Z</time></trkpt><trkpt lat="40.47495" lon="15.0140983"><ele>21.25</ele><time>2026-04-25T09:58:21.995Z</time></trkpt><trkpt lat="40.474845" lon="15.014045"><ele>21.0</ele><time>2026-04-25T09:58:22.989Z</time></trkpt><trkpt lat="40.4747517" lon="15.01398"><ele>21.0</ele><time>2026-04-25T09:58:23.991Z</time></trkpt><trkpt lat="40.47467" lon="15.013915"><ele>21.0</ele><time>2026-04-25T09:58:24.994Z</time></trkpt><trkpt lat="40.4745583" lon="15.0138783"><ele>21.0</ele><time>2026-04-25T09:58:26.99Z</time></trkpt><trkpt lat="40.474525" lon="15.0139683"><ele>21.0</ele><time>2026-04-25T09:58:28.993Z</time></trkpt><trkpt lat="40.4745017" lon="15.0140583"><ele>21.0</ele><time>2026-04-25T09:58:32.049Z</time></trkpt><trkpt lat="40.4744333" lon="15.014105"><ele>21.0</ele><time>2026-04-25T09:58:35.99Z</time></trkpt><trkpt lat="40.4745433" lon="15.0141567"><ele>20.75</ele><time>2026-04-25T09:58:39.989Z</time></trkpt><trkpt lat="40.4746333" lon="15.0141717"><ele>20.5</ele><time>2026-04-25T09:58:40.99Z</time></trkpt><trkpt lat="40.4747533" lon="15.0141883"><ele>20.25</ele><time>2026-04-25T09:58:41.995Z</time></trkpt><trkpt lat="40.474905" lon="15.014215"><ele>20.0</ele><time>2026-04-25T09:58:42.993Z</time></trkpt><trkpt lat="40.4750783" lon="15.014235"><ele>20.0</ele><time>2026-04-25T09:58:44.047Z</time></trkpt><trkpt lat="40.4752617" lon="15.01426"><ele>20.0</ele><time>2026-04-25T09:58:44.989Z</time></trkpt><trkpt lat="40.4754633" lon="15.014285"><ele>20.0</ele><time>2026-04-25T09:58:45.988Z</time></trkpt><trkpt lat="40.4756683" lon="15.0143067"><ele>20.666666666666668</ele><time>2026-04-25T09:58:46.99Z</time></trkpt><trkpt lat="40.4758617" lon="15.0143267"><ele>21.333333333333332</ele><time>2026-04-25T09:58:47.996Z</time></trkpt><trkpt lat="40.4760483" lon="15.0143517"><ele>22.0</ele><time>2026-04-25T09:58:48.993Z</time></trkpt><trkpt lat="40.4762283" lon="15.0143767"><ele>21.333333333333332</ele><time>2026-04-25T09:58:50.046Z</time></trkpt><trkpt lat="40.4763967" lon="15.0144033"><ele>20.666666666666668</ele><time>2026-04-25T09:58:50.996Z</time></trkpt><trkpt lat="40.4765517" lon="15.01442"><ele>20.0</ele><time>2026-04-25T09:58:51.989Z</time></trkpt><trkpt lat="40.4766867" lon="15.0144433"><ele>20.0</ele><time>2026-04-25T09:58:52.986Z</time></trkpt><trkpt lat="40.476795" lon="15.0144533"><ele>20.0</ele><time>2026-04-25T09:58:53.985Z</time></trkpt><trkpt lat="40.476885" lon="15.0144633"><ele>20.0</ele><time>2026-04-25T09:58:54.993Z</time></trkpt><trkpt lat="40.47696" lon="15.0144767"><ele>20.0</ele><time>2026-04-25T09:58:56.045Z</time></trkpt><trkpt lat="40.47704" lon="15.0144933"><ele>20.0</ele><time>2026-04-25T09:58:57.984Z</time></trkpt><trkpt lat="40.4771467" lon="15.0145367"><ele>20.0</ele><time>2026-04-25T09:59:00.992Z</time></trkpt><trkpt lat="40.4772167" lon="15.0145233"><ele>20.0</ele><time>2026-04-25T09:59:03.993Z</time></trkpt><trkpt lat="40.4771583" lon="15.01448"><ele>20.0</ele><time>2026-04-25T09:59:08.986Z</time></trkpt><trkpt lat="40.4770733" lon="15.0144767"><ele>20.0</ele><time>2026-04-25T09:59:09.987Z</time></trkpt><trkpt lat="40.476975" lon="15.014475"><ele>20.0</ele><time>2026-04-25T09:59:10.988Z</time></trkpt><trkpt lat="40.476855" lon="15.0144717"><ele>20.0</ele><time>2026-04-25T09:59:11.998Z</time></trkpt><trkpt lat="40.476725" lon="15.0144667"><ele>20.0</ele><time>2026-04-25T09:59:12.987Z</time></trkpt><trkpt lat="40.4766017" lon="15.0144483"><ele>20.0</ele><time>2026-04-25T09:59:14.046Z</time></trkpt><trkpt lat="40.4764883" lon="15.01443"><ele>20.0</ele><time>2026-04-25T09:59:14.992Z</time></trkpt><trkpt lat="40.47638" lon="15.0144183"><ele>20.0</ele><time>2026-04-25T09:59:15.99Z</time></trkpt><trkpt lat="40.4762767" lon="15.0144033"><ele>20.333333333333336</ele><time>2026-04-25T09:59:16.997Z</time></trkpt><trkpt lat="40.476185" lon="15.0143983"><ele>20.666666666666668</ele><time>2026-04-25T09:59:17.996Z</time></trkpt><trkpt lat="40.47611" lon="15.01441"><ele>21.0</ele><time>2026-04-25T09:59:18.994Z</time></trkpt><trkpt lat="40.4760467" lon="15.0144317"><ele>21.333333333333332</ele><time>2026-04-25T09:59:20.044Z</time></trkpt><trkpt lat="40.4759533" lon="15.01449"><ele>21.666666666666664</ele><time>2026-04-25T09:59:21.99Z</time></trkpt><trkpt lat="40.475885" lon="15.0145167"><ele>22.0</ele><time>2026-04-25T09:59:23.988Z</time></trkpt><trkpt lat="40.475975" lon="15.0145033"><ele>22.0</ele><time>2026-04-25T10:43:05.979Z</time></trkpt><trkpt lat="40.47609" lon="15.0144567"><ele>22.0</ele><time>2026-04-25T10:43:08.04Z</time></trkpt><trkpt lat="40.4761617" lon="15.0144333"><ele>22.0</ele><time>2026-04-25T10:43:08.98Z</time></trkpt><trkpt lat="40.47624" lon="15.014425"><ele>22.0</ele><time>2026-04-25T10:43:09.987Z</time></trkpt><trkpt lat="40.4763367" lon="15.0144267"><ele>22.0</ele><time>2026-04-25T10:43:10.988Z</time></trkpt><trkpt lat="40.476495" lon="15.0144333"><ele>21.5</ele><time>2026-04-25T10:43:11.983Z</time></trkpt><trkpt lat="40.47661" lon="15.0144417"><ele>21.0</ele><time>2026-04-25T10:43:12.989Z</time></trkpt><trkpt lat="40.4767383" lon="15.0144533"><ele>20.5</ele><time>2026-04-25T10:43:14.037Z</time></trkpt><trkpt lat="40.4768767" lon="15.0144667"><ele>20.0</ele><time>2026-04-25T10:43:14.977Z</time></trkpt><trkpt lat="40.477015" lon="15.0144833"><ele>19.75</ele><time>2026-04-25T10:43:15.978Z</time></trkpt><trkpt lat="40.4771483" lon="15.0144983"><ele>19.5</ele><time>2026-04-25T10:43:16.986Z</time></trkpt><trkpt lat="40.4772617" lon="15.0145117"><ele>19.25</ele><time>2026-04-25T10:43:17.99Z</time></trkpt><trkpt lat="40.4773433" lon="15.0145283"><ele>19.0</ele><time>2026-04-25T10:43:18.988Z</time></trkpt><trkpt lat="40.4774933" lon="15.014605"><ele>19.0</ele><time>2026-04-25T10:43:21.986Z</time></trkpt><trkpt lat="40.477545" lon="15.0147033"><ele>19.0</ele><time>2026-04-25T10:43:23.972Z</time></trkpt><trkpt lat="40.477555" lon="15.01481"><ele>19.0</ele><time>2026-04-25T10:43:26.022Z</time></trkpt><trkpt lat="40.4776" lon="15.0148983"><ele>19.0</ele><time>2026-04-25T10:43:28.979Z</time></trkpt><trkpt lat="40.47767" lon="15.0149017"><ele>19.0</ele><time>2026-04-25T10:46:02.042Z</time></trkpt><trkpt lat="40.477745" lon="15.014905"><ele>19.0</ele><time>2026-04-25T10:47:14.977Z</time></trkpt><trkpt lat="40.4776917" lon="15.0148567"><ele>19.0</ele><time>2026-04-25T10:47:21.977Z</time></trkpt><trkpt lat="40.4776367" lon="15.01481"><ele>19.0</ele><time>2026-04-25T10:50:41.982Z</time></trkpt><trkpt lat="40.47758" lon="15.0147667"><ele>19.0</ele><time>2026-04-25T10:50:44.04Z</time></trkpt><trkpt lat="40.477525" lon="15.0146867"><ele>19.0</ele><time>2026-04-25T10:50:46.986Z</time></trkpt><trkpt lat="40.4774583" lon="15.0146033"><ele>19.0</ele><time>2026-04-25T10:50:56.042Z</time></trkpt><trkpt lat="40.4773683" lon="15.014585"><ele>19.0</ele><time>2026-04-25T10:50:57.974Z</time></trkpt><trkpt lat="40.4772467" lon="15.01458"><ele>19.0</ele><time>2026-04-25T10:50:59.981Z</time></trkpt><trkpt lat="40.4771217" lon="15.01457"><ele>19.0</ele><time>2026-04-25T10:51:02.039Z</time></trkpt><trkpt lat="40.4770533" lon="15.0145633"><ele>19.0</ele><time>2026-04-25T10:51:02.975Z</time></trkpt><trkpt lat="40.4769833" lon="15.014555"><ele>19.0</ele><time>2026-04-25T10:51:03.976Z</time></trkpt><trkpt lat="40.4769117" lon="15.0145483"><ele>19.0</ele><time>2026-04-25T10:51:04.984Z</time></trkpt><trkpt lat="40.476835" lon="15.01454"><ele>19.0</ele><time>2026-04-25T10:51:05.978Z</time></trkpt><trkpt lat="40.47676" lon="15.0145283"><ele>19.166666666666664</ele><time>2026-04-25T10:51:06.985Z</time></trkpt><trkpt lat="40.4766833" lon="15.0145183"><ele>19.333333333333332</ele><time>2026-04-25T10:51:08.04Z</time></trkpt><trkpt lat="40.4766183" lon="15.0145117"><ele>19.5</ele><time>2026-04-25T10:51:08.981Z</time></trkpt><trkpt lat="40.4765383" lon="15.0145117"><ele>19.666666666666668</ele><time>2026-04-25T10:51:10.98Z</time></trkpt><trkpt lat="40.4765267" lon="15.0146233"><ele>19.833333333333336</ele><time>2026-04-25T10:51:15.979Z</time></trkpt><trkpt lat="40.4765267" lon="15.01471"><ele>20.0</ele><time>2026-04-25T10:51:17.982Z</time></trkpt><trkpt lat="40.476515" lon="15.0148233"><ele>20.0</ele><time>2026-04-25T10:51:20.041Z</time></trkpt><trkpt lat="40.4765067" lon="15.0149417"><ele>20.0</ele><time>2026-04-25T10:51:21.983Z</time></trkpt><trkpt lat="40.4765117" lon="15.0150383"><ele>20.0</ele><time>2026-04-25T10:51:23.98Z</time></trkpt><trkpt lat="40.4765083" lon="15.0151383"><ele>20.0</ele><time>2026-04-25T10:51:26.043Z</time></trkpt><trkpt lat="40.4764933" lon="15.015275"><ele>20.0</ele><time>2026-04-25T10:51:27.982Z</time></trkpt><trkpt lat="40.4764933" lon="15.01537"><ele>20.0</ele><time>2026-04-25T10:51:28.985Z</time></trkpt><trkpt lat="40.4764933" lon="15.0154767"><ele>20.0</ele><time>2026-04-25T10:51:29.982Z</time></trkpt><trkpt lat="40.4764933" lon="15.0155933"><ele>20.0</ele><time>2026-04-25T10:51:30.98Z</time></trkpt><trkpt lat="40.4764917" lon="15.01572"><ele>20.0</ele><time>2026-04-25T10:51:32.043Z</time></trkpt><trkpt lat="40.4764867" lon="15.0158617"><ele>20.0</ele><time>2026-04-25T10:51:32.981Z</time></trkpt><trkpt lat="40.4764883" lon="15.016015"><ele>20.0</ele><time>2026-04-25T10:51:33.982Z</time></trkpt><trkpt lat="40.4764883" lon="15.0161783"><ele>20.0</ele><time>2026-04-25T10:51:34.983Z</time></trkpt><trkpt lat="40.4764867" lon="15.0163433"><ele>20.0</ele><time>2026-04-25T10:51:35.979Z</time></trkpt><trkpt lat="40.4764817" lon="15.0164983"><ele>20.0</ele><time>2026-04-25T10:51:36.987Z</time></trkpt><trkpt lat="40.4764767" lon="15.0166417"><ele>20.0</ele><time>2026-04-25T10:51:38.036Z</time></trkpt><trkpt lat="40.47647" lon="15.0167783"><ele>20.2</ele><time>2026-04-25T10:51:38.976Z</time></trkpt><trkpt lat="40.47646" lon="15.0169017"><ele>20.4</ele><time>2026-04-25T10:51:39.977Z</time></trkpt><trkpt lat="40.4764433" lon="15.017015"><ele>20.6</ele><time>2026-04-25T10:51:40.98Z</time></trkpt><trkpt lat="40.47642" lon="15.0171083"><ele>20.8</ele><time>2026-04-25T10:51:41.986Z</time></trkpt><trkpt lat="40.4763883" lon="15.0171833"><ele>21.0</ele><time>2026-04-25T10:51:42.982Z</time></trkpt><trkpt lat="40.4762933" lon="15.017295"><ele>21.0</ele><time>2026-04-25T10:51:44.982Z</time></trkpt><trkpt lat="40.4762067" lon="15.01731"><ele>21.0</ele><time>2026-04-25T10:51:45.977Z</time></trkpt><trkpt lat="40.47611" lon="15.0173117"><ele>21.0</ele><time>2026-04-25T10:51:46.987Z</time></trkpt><trkpt lat="40.4760017" lon="15.0173017"><ele>21.0</ele><time>2026-04-25T10:51:47.983Z</time></trkpt><trkpt lat="40.475885" lon="15.0172867"><ele>21.0</ele><time>2026-04-25T10:51:48.981Z</time></trkpt><trkpt lat="40.4757583" lon="15.01727"><ele>21.0</ele><time>2026-04-25T10:51:50.038Z</time></trkpt><trkpt lat="40.475625" lon="15.0172483"><ele>21.0</ele><time>2026-04-25T10:51:50.977Z</time></trkpt><trkpt lat="40.4754883" lon="15.01723"><ele>21.0</ele><time>2026-04-25T10:51:51.978Z</time></trkpt><trkpt lat="40.4753533" lon="15.01721"><ele>21.0</ele><time>2026-04-25T10:51:52.983Z</time></trkpt><trkpt lat="40.475225" lon="15.01719"><ele>21.25</ele><time>2026-04-25T10:51:53.984Z</time></trkpt><trkpt lat="40.4751083" lon="15.0171733"><ele>21.5</ele><time>2026-04-25T10:51:54.981Z</time></trkpt><trkpt lat="40.4749967" lon="15.0171633"><ele>21.75</ele><time>2026-04-25T10:51:56.04Z</time></trkpt><trkpt lat="40.474885" lon="15.0171533"><ele>22.0</ele><time>2026-04-25T10:51:56.984Z</time></trkpt><trkpt lat="40.4747683" lon="15.0171417"><ele>22.0</ele><time>2026-04-25T10:51:57.977Z</time></trkpt><trkpt lat="40.4746517" lon="15.01713"><ele>22.0</ele><time>2026-04-25T10:51:58.986Z</time></trkpt><trkpt lat="40.474535" lon="15.01712"><ele>22.0</ele><time>2026-04-25T10:51:59.981Z</time></trkpt><trkpt lat="40.474415" lon="15.017105"><ele>22.0</ele><time>2026-04-25T10:52:00.983Z</time></trkpt><trkpt lat="40.4742933" lon="15.0170883"><ele>21.5</ele><time>2026-04-25T10:52:02.029Z</time></trkpt><trkpt lat="40.4741717" lon="15.0170733"><ele>21.0</ele><time>2026-04-25T10:52:02.972Z</time></trkpt><trkpt lat="40.474055" lon="15.017065"><ele>20.5</ele><time>2026-04-25T10:52:03.979Z</time></trkpt><trkpt lat="40.4739417" lon="15.0170667"><ele>20.0</ele><time>2026-04-25T10:52:04.978Z</time></trkpt><trkpt lat="40.473835" lon="15.017075"><ele>20.2</ele><time>2026-04-25T10:52:05.978Z</time></trkpt><trkpt lat="40.4737283" lon="15.017085"><ele>20.4</ele><time>2026-04-25T10:52:06.991Z</time></trkpt><trkpt lat="40.473625" lon="15.0171017"><ele>20.6</ele><time>2026-04-25T10:52:08.035Z</time></trkpt><trkpt lat="40.47352" lon="15.0171217"><ele>20.8</ele><time>2026-04-25T10:52:08.974Z</time></trkpt><trkpt lat="40.4734133" lon="15.0171433"><ele>21.0</ele><time>2026-04-25T10:52:09.971Z</time></trkpt><trkpt lat="40.473305" lon="15.01717"><ele>21.0</ele><time>2026-04-25T10:52:10.978Z</time></trkpt><trkpt lat="40.473195" lon="15.0172"><ele>21.0</ele><time>2026-04-25T10:52:11.979Z</time></trkpt><trkpt lat="40.473085" lon="15.0172383"><ele>21.0</ele><time>2026-04-25T10:52:12.981Z</time></trkpt><trkpt lat="40.4729717" lon="15.0172817"><ele>21.0</ele><time>2026-04-25T10:52:14.04Z</time></trkpt><trkpt lat="40.4728533" lon="15.0173283"><ele>21.5</ele><time>2026-04-25T10:52:14.978Z</time></trkpt><trkpt lat="40.4727333" lon="15.0173767"><ele>22.0</ele><time>2026-04-25T10:52:15.976Z</time></trkpt><trkpt lat="40.472615" lon="15.017425"><ele>22.5</ele><time>2026-04-25T10:52:16.982Z</time></trkpt><trkpt lat="40.4724917" lon="15.0174733"><ele>23.0</ele><time>2026-04-25T10:52:17.975Z</time></trkpt><trkpt lat="40.472365" lon="15.0175233"><ele>23.0</ele><time>2026-04-25T10:52:18.985Z</time></trkpt><trkpt lat="40.47224" lon="15.0175733"><ele>23.0</ele><time>2026-04-25T10:52:20.04Z</time></trkpt><trkpt lat="40.47211" lon="15.0176217"><ele>23.0</ele><time>2026-04-25T10:52:20.974Z</time></trkpt><trkpt lat="40.4719733" lon="15.01767"><ele>23.0</ele><time>2026-04-25T10:52:21.972Z</time></trkpt><trkpt lat="40.47184" lon="15.017715"><ele>22.75</ele><time>2026-04-25T10:52:22.981Z</time></trkpt><trkpt lat="40.4716967" lon="15.0177767"><ele>22.5</ele><time>2026-04-25T10:52:23.972Z</time></trkpt><trkpt lat="40.4715583" lon="15.0178383"><ele>22.25</ele><time>2026-04-25T10:52:24.983Z</time></trkpt><trkpt lat="40.4714217" lon="15.017895"><ele>22.0</ele><time>2026-04-25T10:52:26.041Z</time></trkpt><trkpt lat="40.4712967" lon="15.0179467"><ele>22.333333333333332</ele><time>2026-04-25T10:52:26.977Z</time></trkpt><trkpt lat="40.4711817" lon="15.01799"><ele>22.666666666666664</ele><time>2026-04-25T10:52:27.976Z</time></trkpt><trkpt lat="40.47108" lon="15.0180267"><ele>23.0</ele><time>2026-04-25T10:52:28.982Z</time></trkpt><trkpt lat="40.470995" lon="15.018055"><ele>23.333333333333332</ele><time>2026-04-25T10:52:29.982Z</time></trkpt><trkpt lat="40.47093" lon="15.018075"><ele>23.666666666666668</ele><time>2026-04-25T10:52:30.986Z</time></trkpt><trkpt lat="40.4708683" lon="15.018105"><ele>24.0</ele><time>2026-04-25T10:52:32.978Z</time></trkpt><trkpt lat="40.4708633" lon="15.0182133"><ele>24.25</ele><time>2026-04-25T10:52:39.978Z</time></trkpt><trkpt lat="40.47092" lon="15.018385"><ele>24.5</ele><time>2026-04-25T10:52:41.981Z</time></trkpt><trkpt lat="40.4709633" lon="15.0185033"><ele>24.75</ele><time>2026-04-25T10:52:42.987Z</time></trkpt><trkpt lat="40.4710183" lon="15.0186367"><ele>25.0</ele><time>2026-04-25T10:52:44.037Z</time></trkpt><trkpt lat="40.47107" lon="15.0187733"><ele>25.0</ele><time>2026-04-25T10:52:44.982Z</time></trkpt><trkpt lat="40.4711283" lon="15.018915"><ele>25.0</ele><time>2026-04-25T10:52:45.978Z</time></trkpt><trkpt lat="40.47119" lon="15.019065"><ele>25.0</ele><time>2026-04-25T10:52:46.982Z</time></trkpt><trkpt lat="40.4712533" lon="15.0192167"><ele>25.0</ele><time>2026-04-25T10:52:47.974Z</time></trkpt><trkpt lat="40.471315" lon="15.0193683"><ele>25.0</ele><time>2026-04-25T10:52:48.983Z</time></trkpt><trkpt lat="40.4713767" lon="15.0195233"><ele>25.0</ele><time>2026-04-25T10:52:50.039Z</time></trkpt><trkpt lat="40.47144" lon="15.0196817"><ele>25.0</ele><time>2026-04-25T10:52:50.976Z</time></trkpt><trkpt lat="40.4715033" lon="15.0198433"><ele>25.0</ele><time>2026-04-25T10:52:51.975Z</time></trkpt><trkpt lat="40.4715683" lon="15.0200083"><ele>24.75</ele><time>2026-04-25T10:52:52.982Z</time></trkpt><trkpt lat="40.4716367" lon="15.020175"><ele>24.5</ele><time>2026-04-25T10:52:53.976Z</time></trkpt><trkpt lat="40.4717033" lon="15.020345"><ele>24.25</ele><time>2026-04-25T10:52:54.981Z</time></trkpt><trkpt lat="40.4717717" lon="15.020515"><ele>24.0</ele><time>2026-04-25T10:52:56.044Z</time></trkpt><trkpt lat="40.4718367" lon="15.020685"><ele>24.25</ele><time>2026-04-25T10:52:56.978Z</time></trkpt><trkpt lat="40.4718983" lon="15.0208417"><ele>24.5</ele><time>2026-04-25T10:52:57.974Z</time></trkpt><trkpt lat="40.471955" lon="15.0209883"><ele>24.75</ele><time>2026-04-25T10:52:58.981Z</time></trkpt><trkpt lat="40.4720067" lon="15.0211233"><ele>25.0</ele><time>2026-04-25T10:52:59.98Z</time></trkpt><trkpt lat="40.472055" lon="15.0212367"><ele>25.000000000000004</ele><time>2026-04-25T10:53:00.981Z</time></trkpt><trkpt lat="40.472095" lon="15.0213383"><ele>25.0</ele><time>2026-04-25T10:53:02.037Z</time></trkpt><trkpt lat="40.47213" lon="15.02143"><ele>25.0</ele><time>2026-04-25T10:53:02.979Z</time></trkpt><trkpt lat="40.4721517" lon="15.02151"><ele>25.0</ele><time>2026-04-25T10:53:03.981Z</time></trkpt><trkpt lat="40.4721417" lon="15.02163"><ele>25.000000000000004</ele><time>2026-04-25T10:53:05.978Z</time></trkpt><trkpt lat="40.47204" lon="15.0217083"><ele>25.0</ele><time>2026-04-25T10:53:08.031Z</time></trkpt><trkpt lat="40.471965" lon="15.02176"><ele>25.0</ele><time>2026-04-25T10:53:08.975Z</time></trkpt><trkpt lat="40.4718717" lon="15.0218233"><ele>25.0</ele><time>2026-04-25T10:53:09.974Z</time></trkpt><trkpt lat="40.471775" lon="15.0218983"><ele>25.0</ele><time>2026-04-25T10:53:10.981Z</time></trkpt><trkpt lat="40.47167" lon="15.0219767"><ele>25.0</ele><time>2026-04-25T10:53:11.975Z</time></trkpt><trkpt lat="40.47156" lon="15.0220567"><ele>25.0</ele><time>2026-04-25T10:53:12.981Z</time></trkpt><trkpt lat="40.4714433" lon="15.02214"><ele>25.0</ele><time>2026-04-25T10:53:14.036Z</time></trkpt><trkpt lat="40.4713267" lon="15.0222233"><ele>25.0</ele><time>2026-04-25T10:53:14.978Z</time></trkpt><trkpt lat="40.4712117" lon="15.0223067"><ele>25.0</ele><time>2026-04-25T10:53:15.976Z</time></trkpt><trkpt lat="40.4711" lon="15.0223833"><ele>25.0</ele><time>2026-04-25T10:53:16.982Z</time></trkpt><trkpt lat="40.4709917" lon="15.02246"><ele>25.0</ele><time>2026-04-25T10:53:17.982Z</time></trkpt><trkpt lat="40.470885" lon="15.02253"><ele>25.0</ele><time>2026-04-25T10:53:18.978Z</time></trkpt><trkpt lat="40.47078" lon="15.0225983"><ele>25.0</ele><time>2026-04-25T10:53:20.041Z</time></trkpt><trkpt lat="40.4706783" lon="15.0226683"><ele>25.0</ele><time>2026-04-25T10:53:20.98Z</time></trkpt><trkpt lat="40.470575" lon="15.0227367"><ele>25.0</ele><time>2026-04-25T10:53:21.976Z</time></trkpt><trkpt lat="40.4704717" lon="15.022805"><ele>25.0</ele><time>2026-04-25T10:53:22.985Z</time></trkpt><trkpt lat="40.470365" lon="15.022875"><ele>25.0</ele><time>2026-04-25T10:53:23.978Z</time></trkpt><trkpt lat="40.4702567" lon="15.0229517"><ele>24.75</ele><time>2026-04-25T10:53:24.981Z</time></trkpt><trkpt lat="40.470145" lon="15.02303"><ele>24.5</ele><time>2026-04-25T10:53:26.019Z</time></trkpt><trkpt lat="40.4700317" lon="15.0231117"><ele>24.25</ele><time>2026-04-25T10:53:26.974Z</time></trkpt><trkpt lat="40.469915" lon="15.0231917"><ele>24.0</ele><time>2026-04-25T10:53:27.983Z</time></trkpt><trkpt lat="40.469795" lon="15.0232717"><ele>24.0</ele><time>2026-04-25T10:53:28.981Z</time></trkpt><trkpt lat="40.46967" lon="15.023355"><ele>24.0</ele><time>2026-04-25T10:53:29.982Z</time></trkpt><trkpt lat="40.4695433" lon="15.0234367"><ele>24.0</ele><time>2026-04-25T10:53:30.971Z</time></trkpt><trkpt lat="40.4694217" lon="15.02352"><ele>24.0</ele><time>2026-04-25T10:53:32.042Z</time></trkpt><trkpt lat="40.4693" lon="15.0236033"><ele>24.0</ele><time>2026-04-25T10:53:32.977Z</time></trkpt><trkpt lat="40.4691783" lon="15.0236833"><ele>24.0</ele><time>2026-04-25T10:53:33.974Z</time></trkpt><trkpt lat="40.469055" lon="15.0237567"><ele>24.0</ele><time>2026-04-25T10:53:34.985Z</time></trkpt><trkpt lat="40.4689283" lon="15.0238183"><ele>24.0</ele><time>2026-04-25T10:53:35.977Z</time></trkpt><trkpt lat="40.4688" lon="15.0238717"><ele>24.5</ele><time>2026-04-25T10:53:36.979Z</time></trkpt><trkpt lat="40.46867" lon="15.02392"><ele>25.0</ele><time>2026-04-25T10:53:38.038Z</time></trkpt><trkpt lat="40.46854" lon="15.0239667"><ele>25.5</ele><time>2026-04-25T10:53:38.975Z</time></trkpt><trkpt lat="40.4684083" lon="15.0240117"><ele>26.0</ele><time>2026-04-25T10:53:39.984Z</time></trkpt><trkpt lat="40.468275" lon="15.0240583"><ele>26.0</ele><time>2026-04-25T10:53:40.984Z</time></trkpt><trkpt lat="40.4681367" lon="15.024105"><ele>26.0</ele><time>2026-04-25T10:53:41.976Z</time></trkpt><trkpt lat="40.467995" lon="15.0241483"><ele>26.0</ele><time>2026-04-25T10:53:42.981Z</time></trkpt><trkpt lat="40.467855" lon="15.0241933"><ele>26.0</ele><time>2026-04-25T10:53:44.034Z</time></trkpt><trkpt lat="40.4677133" lon="15.024245"><ele>25.5</ele><time>2026-04-25T10:53:44.974Z</time></trkpt><trkpt lat="40.467575" lon="15.0242967"><ele>25.0</ele><time>2026-04-25T10:53:45.979Z</time></trkpt><trkpt lat="40.4674367" lon="15.0243483"><ele>24.5</ele><time>2026-04-25T10:53:46.981Z</time></trkpt><trkpt lat="40.4673" lon="15.024395"><ele>24.0</ele><time>2026-04-25T10:53:47.977Z</time></trkpt><trkpt lat="40.4671617" lon="15.0244433"><ele>24.25</ele><time>2026-04-25T10:53:48.981Z</time></trkpt><trkpt lat="40.46702" lon="15.02449"><ele>24.5</ele><time>2026-04-25T10:53:50.034Z</time></trkpt><trkpt lat="40.4668783" lon="15.0245367"><ele>24.75</ele><time>2026-04-25T10:53:50.979Z</time></trkpt><trkpt lat="40.466735" lon="15.0245833"><ele>25.0</ele><time>2026-04-25T10:53:51.976Z</time></trkpt><trkpt lat="40.466595" lon="15.0246317"><ele>25.0</ele><time>2026-04-25T10:53:52.979Z</time></trkpt><trkpt lat="40.4664517" lon="15.0246833"><ele>25.0</ele><time>2026-04-25T10:53:53.977Z</time></trkpt><trkpt lat="40.4663083" lon="15.024735"><ele>25.0</ele><time>2026-04-25T10:53:54.983Z</time></trkpt><trkpt lat="40.4661683" lon="15.0247883"><ele>25.0</ele><time>2026-04-25T10:53:56.043Z</time></trkpt><trkpt lat="40.4660267" lon="15.02484"><ele>25.25</ele><time>2026-04-25T10:53:56.974Z</time></trkpt><trkpt lat="40.465885" lon="15.0248917"><ele>25.5</ele><time>2026-04-25T10:53:57.974Z</time></trkpt><trkpt lat="40.4657417" lon="15.02494"><ele>25.75</ele><time>2026-04-25T10:53:58.978Z</time></trkpt><trkpt lat="40.4655967" lon="15.0249883"><ele>26.0</ele><time>2026-04-25T10:53:59.98Z</time></trkpt><trkpt lat="40.4654517" lon="15.0250433"><ele>26.25</ele><time>2026-04-25T10:54:00.981Z</time></trkpt><trkpt lat="40.46531" lon="15.0250967"><ele>26.5</ele><time>2026-04-25T10:54:02.04Z</time></trkpt><trkpt lat="40.465175" lon="15.0251483"><ele>26.75</ele><time>2026-04-25T10:54:02.976Z</time></trkpt><trkpt lat="40.4650483" lon="15.025195"><ele>27.0</ele><time>2026-04-25T10:54:03.975Z</time></trkpt><trkpt lat="40.4649283" lon="15.0252383"><ele>27.0</ele><time>2026-04-25T10:54:04.983Z</time></trkpt><trkpt lat="40.46481" lon="15.025275"><ele>27.0</ele><time>2026-04-25T10:54:05.984Z</time></trkpt><trkpt lat="40.464695" lon="15.0252983"><ele>27.0</ele><time>2026-04-25T10:54:06.985Z</time></trkpt><trkpt lat="40.4645833" lon="15.0253117"><ele>27.0</ele><time>2026-04-25T10:54:08.045Z</time></trkpt><trkpt lat="40.4644683" lon="15.0253117"><ele>27.25</ele><time>2026-04-25T10:54:08.979Z</time></trkpt><trkpt lat="40.4643483" lon="15.0253067"><ele>27.5</ele><time>2026-04-25T10:54:09.982Z</time></trkpt><trkpt lat="40.46422" lon="15.0252983"><ele>27.75</ele><time>2026-04-25T10:54:10.983Z</time></trkpt><trkpt lat="40.464085" lon="15.0252867"><ele>28.0</ele><time>2026-04-25T10:54:11.98Z</time></trkpt><trkpt lat="40.463945" lon="15.025275"><ele>28.0</ele><time>2026-04-25T10:54:12.989Z</time></trkpt><trkpt lat="40.4638" lon="15.02526"><ele>28.0</ele><time>2026-04-25T10:54:14.037Z</time></trkpt><trkpt lat="40.4636517" lon="15.0252483"><ele>28.0</ele><time>2026-04-25T10:54:14.979Z</time></trkpt><trkpt lat="40.4635" lon="15.02524"><ele>28.0</ele><time>2026-04-25T10:54:15.981Z</time></trkpt><trkpt lat="40.4633467" lon="15.0252267"><ele>28.0</ele><time>2026-04-25T10:54:16.982Z</time></trkpt><trkpt lat="40.4631933" lon="15.025215"><ele>28.0</ele><time>2026-04-25T10:54:17.981Z</time></trkpt><trkpt lat="40.4630467" lon="15.0251967"><ele>28.0</ele><time>2026-04-25T10:54:18.98Z</time></trkpt><trkpt lat="40.46291" lon="15.0251783"><ele>28.0</ele><time>2026-04-25T10:54:20.04Z</time></trkpt><trkpt lat="40.46278" lon="15.0251617"><ele>28.5</ele><time>2026-04-25T10:54:20.978Z</time></trkpt><trkpt lat="40.462655" lon="15.025145"><ele>29.0</ele><time>2026-04-25T10:54:21.982Z</time></trkpt><trkpt lat="40.4625283" lon="15.02513"><ele>29.5</ele><time>2026-04-25T10:54:22.982Z</time></trkpt><trkpt lat="40.4624067" lon="15.025115"><ele>30.0</ele><time>2026-04-25T10:54:23.978Z</time></trkpt><trkpt lat="40.4622867" lon="15.0251"><ele>30.0</ele><time>2026-04-25T10:54:24.983Z</time></trkpt><trkpt lat="40.4621667" lon="15.025085"><ele>30.0</ele><time>2026-04-25T10:54:26.045Z</time></trkpt><trkpt lat="40.4620567" lon="15.0250733"><ele>30.0</ele><time>2026-04-25T10:54:26.972Z</time></trkpt><trkpt lat="40.4619617" lon="15.025065"><ele>30.0</ele><time>2026-04-25T10:54:27.973Z</time></trkpt><trkpt lat="40.4618883" lon="15.0250617"><ele>30.0</ele><time>2026-04-25T10:54:28.986Z</time></trkpt><trkpt lat="40.4618083" lon="15.0250533"><ele>30.2</ele><time>2026-04-25T10:54:30.982Z</time></trkpt><trkpt lat="40.4617083" lon="15.0250433"><ele>30.4</ele><time>2026-04-25T10:54:32.975Z</time></trkpt><trkpt lat="40.4616367" lon="15.0250367"><ele>30.6</ele><time>2026-04-25T10:54:33.98Z</time></trkpt><trkpt lat="40.461545" lon="15.02503"><ele>30.8</ele><time>2026-04-25T10:54:34.98Z</time></trkpt><trkpt lat="40.4614483" lon="15.0250217"><ele>31.0</ele><time>2026-04-25T10:54:35.974Z</time></trkpt><trkpt lat="40.461335" lon="15.0250133"><ele>30.8</ele><time>2026-04-25T10:54:36.982Z</time></trkpt><trkpt lat="40.4612217" lon="15.025005"><ele>30.6</ele><time>2026-04-25T10:54:38.043Z</time></trkpt><trkpt lat="40.46111" lon="15.0249983"><ele>30.4</ele><time>2026-04-25T10:54:38.978Z</time></trkpt><trkpt lat="40.461005" lon="15.0249967"><ele>30.2</ele><time>2026-04-25T10:54:39.98Z</time></trkpt><trkpt lat="40.4608967" lon="15.0250033"><ele>30.0</ele><time>2026-04-25T10:54:40.98Z</time></trkpt><trkpt lat="40.4607883" lon="15.0250183"><ele>30.0</ele><time>2026-04-25T10:54:41.975Z</time></trkpt><trkpt lat="40.4606883" lon="15.02504"><ele>30.0</ele><time>2026-04-25T10:54:42.98Z</time></trkpt><trkpt lat="40.46059" lon="15.0250667"><ele>30.0</ele><time>2026-04-25T10:54:44.038Z</time></trkpt><trkpt lat="40.4604933" lon="15.0251"><ele>30.0</ele><time>2026-04-25T10:54:44.973Z</time></trkpt><trkpt lat="40.460395" lon="15.0251383"><ele>30.0</ele><time>2026-04-25T10:54:45.981Z</time></trkpt><trkpt lat="40.4602967" lon="15.0251817"><ele>29.8</ele><time>2026-04-25T10:54:46.978Z</time></trkpt><trkpt lat="40.460195" lon="15.0252267"><ele>29.6</ele><time>2026-04-25T10:54:47.986Z</time></trkpt><trkpt lat="40.46009" lon="15.0252733"><ele>29.4</ele><time>2026-04-25T10:54:48.969Z</time></trkpt><trkpt lat="40.4599833" lon="15.0253183"><ele>29.2</ele><time>2026-04-25T10:54:50.034Z</time></trkpt><trkpt lat="40.45988" lon="15.0253567"><ele>29.0</ele><time>2026-04-25T10:54:50.97Z</time></trkpt><trkpt lat="40.459785" lon="15.0253933"><ele>29.0</ele><time>2026-04-25T10:54:51.972Z</time></trkpt><trkpt lat="40.4597033" lon="15.0254317"><ele>29.0</ele><time>2026-04-25T10:54:52.975Z</time></trkpt><trkpt lat="40.459625" lon="15.02547"><ele>29.0</ele><time>2026-04-25T10:54:53.976Z</time></trkpt><trkpt lat="40.45954" lon="15.0255217"><ele>29.0</ele><time>2026-04-25T10:54:54.979Z</time></trkpt><trkpt lat="40.45945" lon="15.0255767"><ele>29.0</ele><time>2026-04-25T10:54:56.046Z</time></trkpt><trkpt lat="40.4593517" lon="15.0256367"><ele>29.0</ele><time>2026-04-25T10:54:56.976Z</time></trkpt><trkpt lat="40.45925" lon="15.0257"><ele>29.0</ele><time>2026-04-25T10:54:57.973Z</time></trkpt><trkpt lat="40.4591467" lon="15.0257617"><ele>29.0</ele><time>2026-04-25T10:54:58.979Z</time></trkpt><trkpt lat="40.459035" lon="15.02583"><ele>29.0</ele><time>2026-04-25T10:54:59.978Z</time></trkpt><trkpt lat="40.4589217" lon="15.025905"><ele>29.0</ele><time>2026-04-25T10:55:00.986Z</time></trkpt><trkpt lat="40.458805" lon="15.0259817"><ele>29.0</ele><time>2026-04-25T10:55:02.034Z</time></trkpt><trkpt lat="40.4586783" lon="15.02606"><ele>29.0</ele><time>2026-04-25T10:55:02.975Z</time></trkpt><trkpt lat="40.4585483" lon="15.0261333"><ele>29.0</ele><time>2026-04-25T10:55:03.976Z</time></trkpt><trkpt lat="40.458415" lon="15.0262033"><ele>29.0</ele><time>2026-04-25T10:55:04.978Z</time></trkpt><trkpt lat="40.4582817" lon="15.0262667"><ele>29.0</ele><time>2026-04-25T10:55:05.978Z</time></trkpt><trkpt lat="40.4581467" lon="15.0263317"><ele>29.0</ele><time>2026-04-25T10:55:06.977Z</time></trkpt><trkpt lat="40.45801" lon="15.0264017"><ele>29.0</ele><time>2026-04-25T10:55:08.036Z</time></trkpt><trkpt lat="40.4578717" lon="15.026475"><ele>29.333333333333332</ele><time>2026-04-25T10:55:08.976Z</time></trkpt><trkpt lat="40.4577317" lon="15.026555"><ele>29.666666666666664</ele><time>2026-04-25T10:55:09.978Z</time></trkpt><trkpt lat="40.4575933" lon="15.026645"><ele>30.0</ele><time>2026-04-25T10:55:10.976Z</time></trkpt><trkpt lat="40.457455" lon="15.02674"><ele>30.666666666666664</ele><time>2026-04-25T10:55:11.975Z</time></trkpt><trkpt lat="40.45732" lon="15.0268367"><ele>31.333333333333332</ele><time>2026-04-25T10:55:12.982Z</time></trkpt><trkpt lat="40.457185" lon="15.02693"><ele>32.0</ele><time>2026-04-25T10:55:14.034Z</time></trkpt><trkpt lat="40.45705" lon="15.0270233"><ele>32.0</ele><time>2026-04-25T10:55:14.974Z</time></trkpt><trkpt lat="40.4569167" lon="15.027115"><ele>32.0</ele><time>2026-04-25T10:55:15.976Z</time></trkpt><trkpt lat="40.4567833" lon="15.0272083"><ele>32.0</ele><time>2026-04-25T10:55:16.98Z</time></trkpt><trkpt lat="40.4566583" lon="15.027305"><ele>32.0</ele><time>2026-04-25T10:55:17.98Z</time></trkpt><trkpt lat="40.4565333" lon="15.0274033"><ele>32.0</ele><time>2026-04-25T10:55:18.984Z</time></trkpt><trkpt lat="40.456415" lon="15.0274983"><ele>32.0</ele><time>2026-04-25T10:55:20.036Z</time></trkpt><trkpt lat="40.4562967" lon="15.0275867"><ele>32.0</ele><time>2026-04-25T10:55:20.978Z</time></trkpt><trkpt lat="40.45618" lon="15.027675"><ele>32.0</ele><time>2026-04-25T10:55:21.98Z</time></trkpt><trkpt lat="40.45606" lon="15.027765"><ele>31.75</ele><time>2026-04-25T10:55:22.979Z</time></trkpt><trkpt lat="40.4559483" lon="15.0278617"><ele>31.5</ele><time>2026-04-25T10:55:23.98Z</time></trkpt><trkpt lat="40.4558367" lon="15.0279667"><ele>31.25</ele><time>2026-04-25T10:55:24.985Z</time></trkpt><trkpt lat="40.4557233" lon="15.0280833"><ele>31.0</ele><time>2026-04-25T10:55:26.041Z</time></trkpt><trkpt lat="40.4556133" lon="15.02821"><ele>31.333333333333336</ele><time>2026-04-25T10:55:26.976Z</time></trkpt><trkpt lat="40.455505" lon="15.028345"><ele>31.666666666666664</ele><time>2026-04-25T10:55:27.972Z</time></trkpt><trkpt lat="40.4553983" lon="15.028485"><ele>32.0</ele><time>2026-04-25T10:55:28.978Z</time></trkpt><trkpt lat="40.4552867" lon="15.0286267"><ele>32.0</ele><time>2026-04-25T10:55:29.978Z</time></trkpt><trkpt lat="40.455175" lon="15.0287683"><ele>32.0</ele><time>2026-04-25T10:55:30.983Z</time></trkpt><trkpt lat="40.45506" lon="15.0289067"><ele>32.0</ele><time>2026-04-25T10:55:32.032Z</time></trkpt><trkpt lat="40.4549433" lon="15.0290417"><ele>32.0</ele><time>2026-04-25T10:55:32.973Z</time></trkpt><trkpt lat="40.4548183" lon="15.02917"><ele>32.0</ele><time>2026-04-25T10:55:33.973Z</time></trkpt><trkpt lat="40.4546983" lon="15.0292917"><ele>32.0</ele><time>2026-04-25T10:55:34.977Z</time></trkpt><trkpt lat="40.45458" lon="15.0294133"><ele>32.0</ele><time>2026-04-25T10:55:35.976Z</time></trkpt><trkpt lat="40.45447" lon="15.0295283"><ele>32.0</ele><time>2026-04-25T10:55:36.981Z</time></trkpt><trkpt lat="40.45437" lon="15.0296367"><ele>32.0</ele><time>2026-04-25T10:55:38.04Z</time></trkpt><trkpt lat="40.45429" lon="15.0297317"><ele>32.0</ele><time>2026-04-25T10:55:38.976Z</time></trkpt><trkpt lat="40.4542317" lon="15.0298117"><ele>31.999999999999996</ele><time>2026-04-25T10:55:39.973Z</time></trkpt><trkpt lat="40.4541933" lon="15.02989"><ele>32.0</ele><time>2026-04-25T10:55:40.981Z</time></trkpt><trkpt lat="40.4541733" lon="15.02997"><ele>32.0</ele><time>2026-04-25T10:55:41.976Z</time></trkpt><trkpt lat="40.4541617" lon="15.0301417"><ele>32.0</ele><time>2026-04-25T10:55:44.036Z</time></trkpt><trkpt lat="40.4541583" lon="15.0302367"><ele>31.999999999999996</ele><time>2026-04-25T10:55:44.978Z</time></trkpt><trkpt lat="40.4541483" lon="15.0303233"><ele>32.0</ele><time>2026-04-25T10:55:45.974Z</time></trkpt><trkpt lat="40.454135" lon="15.0304067"><ele>32.166666666666664</ele><time>2026-04-25T10:55:46.981Z</time></trkpt><trkpt lat="40.45412" lon="15.0304917"><ele>32.33333333333333</ele><time>2026-04-25T10:55:47.977Z</time></trkpt><trkpt lat="40.4540967" lon="15.0305883"><ele>32.5</ele><time>2026-04-25T10:55:48.98Z</time></trkpt><trkpt lat="40.4540733" lon="15.0306767"><ele>32.666666666666664</ele><time>2026-04-25T10:55:50.036Z</time></trkpt><trkpt lat="40.4540383" lon="15.030805"><ele>32.833333333333336</ele><time>2026-04-25T10:55:51.977Z</time></trkpt><trkpt lat="40.454015" lon="15.0309033"><ele>33.0</ele><time>2026-04-25T10:55:54.984Z</time></trkpt><trkpt lat="40.4539767" lon="15.03106"><ele>33.0</ele><time>2026-04-25T10:56:04.977Z</time></trkpt><trkpt lat="40.4539833" lon="15.03118"><ele>33.0</ele><time>2026-04-25T10:56:05.977Z</time></trkpt><trkpt lat="40.4539933" lon="15.031315"><ele>33.0</ele><time>2026-04-25T10:56:06.981Z</time></trkpt><trkpt lat="40.45401" lon="15.0314483"><ele>33.0</ele><time>2026-04-25T10:56:08.038Z</time></trkpt><trkpt lat="40.454035" lon="15.0315967"><ele>33.0</ele><time>2026-04-25T10:56:08.977Z</time></trkpt><trkpt lat="40.4540783" lon="15.0317533"><ele>33.0</ele><time>2026-04-25T10:56:09.979Z</time></trkpt><trkpt lat="40.4541417" lon="15.031925"><ele>33.0</ele><time>2026-04-25T10:56:10.984Z</time></trkpt><trkpt lat="40.45422" lon="15.0321183"><ele>33.0</ele><time>2026-04-25T10:56:11.979Z</time></trkpt><trkpt lat="40.4543033" lon="15.0323267"><ele>33.0</ele><time>2026-04-25T10:56:12.974Z</time></trkpt><trkpt lat="40.4543967" lon="15.032555"><ele>33.0</ele><time>2026-04-25T10:56:14.035Z</time></trkpt><trkpt lat="40.4544883" lon="15.032795"><ele>33.0</ele><time>2026-04-25T10:56:14.981Z</time></trkpt><trkpt lat="40.45458" lon="15.0330317"><ele>33.0</ele><time>2026-04-25T10:56:15.977Z</time></trkpt><trkpt lat="40.454665" lon="15.0332533"><ele>33.0</ele><time>2026-04-25T10:56:16.989Z</time></trkpt><trkpt lat="40.45474" lon="15.0334583"><ele>33.0</ele><time>2026-04-25T10:56:17.978Z</time></trkpt><trkpt lat="40.454805" lon="15.0336467"><ele>33.5</ele><time>2026-04-25T10:56:18.983Z</time></trkpt><trkpt lat="40.4548633" lon="15.0338217"><ele>34.0</ele><time>2026-04-25T10:56:20.059Z</time></trkpt><trkpt lat="40.4549233" lon="15.03398"><ele>34.5</ele><time>2026-04-25T10:56:20.977Z</time></trkpt><trkpt lat="40.454985" lon="15.034125"><ele>35.0</ele><time>2026-04-25T10:56:21.977Z</time></trkpt><trkpt lat="40.4550417" lon="15.0342583"><ele>35.6</ele><time>2026-04-25T10:56:22.982Z</time></trkpt><trkpt lat="40.4550933" lon="15.0343833"><ele>36.2</ele><time>2026-04-25T10:56:23.98Z</time></trkpt><trkpt lat="40.45514" lon="15.0344917"><ele>36.8</ele><time>2026-04-25T10:56:24.978Z</time></trkpt><trkpt lat="40.45518" lon="15.0345817"><ele>37.4</ele><time>2026-04-25T10:56:26.042Z</time></trkpt><trkpt lat="40.4551983" lon="15.0346683"><ele>38.0</ele><time>2026-04-25T10:56:28.979Z</time></trkpt><trkpt lat="40.45512" lon="15.0347583"><ele>38.0</ele><time>2026-04-25T10:56:32.039Z</time></trkpt><trkpt lat="40.4550517" lon="15.0347983"><ele>38.0</ele><time>2026-04-25T10:56:32.974Z</time></trkpt><trkpt lat="40.454965" lon="15.0348483"><ele>38.0</ele><time>2026-04-25T10:56:33.976Z</time></trkpt><trkpt lat="40.4548733" lon="15.0349033"><ele>38.0</ele><time>2026-04-25T10:56:34.985Z</time></trkpt><trkpt lat="40.45477" lon="15.034955"><ele>38.0</ele><time>2026-04-25T10:56:35.976Z</time></trkpt><trkpt lat="40.4546583" lon="15.0350033"><ele>37.25</ele><time>2026-04-25T10:56:36.982Z</time></trkpt><trkpt lat="40.4545383" lon="15.0350483"><ele>36.5</ele><time>2026-04-25T10:56:38.04Z</time></trkpt><trkpt lat="40.4544083" lon="15.0350967"><ele>35.75</ele><time>2026-04-25T10:56:38.971Z</time></trkpt><trkpt lat="40.454265" lon="15.0351517"><ele>35.0</ele><time>2026-04-25T10:56:39.981Z</time></trkpt><trkpt lat="40.4541133" lon="15.0352067"><ele>35.0</ele><time>2026-04-25T10:56:40.982Z</time></trkpt><trkpt lat="40.4539567" lon="15.0352617"><ele>35.0</ele><time>2026-04-25T10:56:41.974Z</time></trkpt><trkpt lat="40.45379" lon="15.0353183"><ele>35.0</ele><time>2026-04-25T10:56:42.982Z</time></trkpt><trkpt lat="40.4536183" lon="15.0353783"><ele>35.33333333333333</ele><time>2026-04-25T10:56:44.035Z</time></trkpt><trkpt lat="40.4534467" lon="15.03544"><ele>35.666666666666664</ele><time>2026-04-25T10:56:44.976Z</time></trkpt><trkpt lat="40.4532733" lon="15.0355"><ele>36.0</ele><time>2026-04-25T10:56:45.972Z</time></trkpt><trkpt lat="40.4531033" lon="15.03556"><ele>35.333333333333336</ele><time>2026-04-25T10:56:46.984Z</time></trkpt><trkpt lat="40.45294" lon="15.0356167"><ele>34.66666666666667</ele><time>2026-04-25T10:56:47.973Z</time></trkpt><trkpt lat="40.4527867" lon="15.0356683"><ele>34.0</ele><time>2026-04-25T10:56:48.978Z</time></trkpt><trkpt lat="40.452645" lon="15.035715"><ele>34.0</ele><time>2026-04-25T10:56:50.039Z</time></trkpt><trkpt lat="40.45251" lon="15.0357583"><ele>34.0</ele><time>2026-04-25T10:56:50.977Z</time></trkpt><trkpt lat="40.4523817" lon="15.0357983"><ele>34.0</ele><time>2026-04-25T10:56:51.981Z</time></trkpt><trkpt lat="40.452265" lon="15.035835"><ele>34.0</ele><time>2026-04-25T10:56:52.978Z</time></trkpt><trkpt lat="40.45216" lon="15.0358667"><ele>34.0</ele><time>2026-04-25T10:56:53.981Z</time></trkpt><trkpt lat="40.4520683" lon="15.035895"><ele>34.0</ele><time>2026-04-25T10:56:54.979Z</time></trkpt><trkpt lat="40.4519883" lon="15.03592"><ele>34.0</ele><time>2026-04-25T10:56:56.039Z</time></trkpt><trkpt lat="40.4519217" lon="15.0359517"><ele>34.0</ele><time>2026-04-25T10:56:56.974Z</time></trkpt><trkpt lat="40.4518333" lon="15.0360317"><ele>34.0</ele><time>2026-04-25T10:56:58.986Z</time></trkpt><trkpt lat="40.45179" lon="15.0361017"><ele>34.0</ele><time>2026-04-25T10:57:00.984Z</time></trkpt><trkpt lat="40.4517183" lon="15.0361933"><ele>34.0</ele><time>2026-04-25T10:57:02.972Z</time></trkpt><trkpt lat="40.451655" lon="15.0362617"><ele>34.0</ele><time>2026-04-25T10:57:03.978Z</time></trkpt><trkpt lat="40.451585" lon="15.0363467"><ele>34.0</ele><time>2026-04-25T10:57:04.98Z</time></trkpt><trkpt lat="40.45151" lon="15.036455"><ele>34.0</ele><time>2026-04-25T10:57:05.973Z</time></trkpt><trkpt lat="40.4514383" lon="15.0365983"><ele>34.0</ele><time>2026-04-25T10:57:06.982Z</time></trkpt><trkpt lat="40.451375" lon="15.03677"><ele>34.0</ele><time>2026-04-25T10:57:08.041Z</time></trkpt><trkpt lat="40.4513117" lon="15.036975"><ele>34.0</ele><time>2026-04-25T10:57:08.974Z</time></trkpt><trkpt lat="40.45124" lon="15.03719"><ele>34.0</ele><time>2026-04-25T10:57:09.981Z</time></trkpt><trkpt lat="40.45116" lon="15.0374133"><ele>34.0</ele><time>2026-04-25T10:57:10.983Z</time></trkpt><trkpt lat="40.451075" lon="15.0376367"><ele>34.0</ele><time>2026-04-25T10:57:11.979Z</time></trkpt><trkpt lat="40.4509917" lon="15.0378517"><ele>34.0</ele><time>2026-04-25T10:57:12.971Z</time></trkpt><trkpt lat="40.4509067" lon="15.0380533"><ele>34.0</ele><time>2026-04-25T10:57:14.034Z</time></trkpt><trkpt lat="40.4508233" lon="15.03825"><ele>34.0</ele><time>2026-04-25T10:57:14.974Z</time></trkpt><trkpt lat="40.450745" lon="15.0384367"><ele>34.0</ele><time>2026-04-25T10:57:15.972Z</time></trkpt><trkpt lat="40.45067" lon="15.0386133"><ele>34.0</ele><time>2026-04-25T10:57:16.981Z</time></trkpt><trkpt lat="40.4506033" lon="15.0387717"><ele>34.0</ele><time>2026-04-25T10:57:17.979Z</time></trkpt><trkpt lat="40.450545" lon="15.0389067"><ele>34.0</ele><time>2026-04-25T10:57:18.981Z</time></trkpt><trkpt lat="40.4504933" lon="15.039015"><ele>34.0</ele><time>2026-04-25T10:57:20.034Z</time></trkpt><trkpt lat="40.4504483" lon="15.0391"><ele>34.0</ele><time>2026-04-25T10:57:20.975Z</time></trkpt><trkpt lat="40.4503917" lon="15.0391517"><ele>34.0</ele><time>2026-04-25T10:57:23.974Z</time></trkpt><trkpt lat="40.4503383" lon="15.0392517"><ele>34.0</ele><time>2026-04-25T10:57:26.046Z</time></trkpt><trkpt lat="40.4503117" lon="15.0393467"><ele>34.0</ele><time>2026-04-25T10:57:26.971Z</time></trkpt><trkpt lat="40.4502833" lon="15.03947"><ele>34.0</ele><time>2026-04-25T10:57:27.974Z</time></trkpt><trkpt lat="40.4502483" lon="15.0396217"><ele>34.0</ele><time>2026-04-25T10:57:28.974Z</time></trkpt><trkpt lat="40.4502167" lon="15.039785"><ele>34.0</ele><time>2026-04-25T10:57:29.975Z</time></trkpt><trkpt lat="40.4501983" lon="15.0399517"><ele>34.0</ele><time>2026-04-25T10:57:30.979Z</time></trkpt><trkpt lat="40.4501883" lon="15.04013"><ele>34.0</ele><time>2026-04-25T10:57:32.034Z</time></trkpt><trkpt lat="40.4501917" lon="15.04031"><ele>34.0</ele><time>2026-04-25T10:57:32.971Z</time></trkpt><trkpt lat="40.4502083" lon="15.04049"><ele>34.0</ele><time>2026-04-25T10:57:33.978Z</time></trkpt><trkpt lat="40.450235" lon="15.040665"><ele>34.0</ele><time>2026-04-25T10:57:34.984Z</time></trkpt><trkpt lat="40.4502717" lon="15.0408283"><ele>34.0</ele><time>2026-04-25T10:57:35.976Z</time></trkpt><trkpt lat="40.4503067" lon="15.0409767"><ele>34.0</ele><time>2026-04-25T10:57:36.98Z</time></trkpt><trkpt lat="40.4503317" lon="15.0411033"><ele>34.0</ele><time>2026-04-25T10:57:38.038Z</time></trkpt><trkpt lat="40.4503383" lon="15.0412183"><ele>34.0</ele><time>2026-04-25T10:57:38.974Z</time></trkpt><trkpt lat="40.45033" lon="15.0413283"><ele>34.0</ele><time>2026-04-25T10:57:39.976Z</time></trkpt><trkpt lat="40.4503033" lon="15.0414367"><ele>34.0</ele><time>2026-04-25T10:57:40.978Z</time></trkpt><trkpt lat="40.45026" lon="15.0415417"><ele>34.0</ele><time>2026-04-25T10:57:41.975Z</time></trkpt><trkpt lat="40.4502117" lon="15.0416517"><ele>34.0</ele><time>2026-04-25T10:57:42.984Z</time></trkpt><trkpt lat="40.4501617" lon="15.0417667"><ele>34.0</ele><time>2026-04-25T10:57:44.041Z</time></trkpt><trkpt lat="40.450105" lon="15.0418967"><ele>34.0</ele><time>2026-04-25T10:57:44.977Z</time></trkpt><trkpt lat="40.4500433" lon="15.0420433"><ele>34.0</ele><time>2026-04-25T10:57:45.97Z</time></trkpt><trkpt lat="40.4499717" lon="15.0422083"><ele>34.0</ele><time>2026-04-25T10:57:46.977Z</time></trkpt><trkpt lat="40.4498933" lon="15.0423883"><ele>33.66666666666667</ele><time>2026-04-25T10:57:47.972Z</time></trkpt><trkpt lat="40.449805" lon="15.0425833"><ele>33.333333333333336</ele><time>2026-04-25T10:57:48.98Z</time></trkpt><trkpt lat="40.4497133" lon="15.0427867"><ele>33.0</ele><time>2026-04-25T10:57:50.035Z</time></trkpt><trkpt lat="40.44962" lon="15.0429883"><ele>33.0</ele><time>2026-04-25T10:57:50.976Z</time></trkpt><trkpt lat="40.4495267" lon="15.0431883"><ele>33.0</ele><time>2026-04-25T10:57:51.979Z</time></trkpt><trkpt lat="40.4494383" lon="15.0433833"><ele>33.0</ele><time>2026-04-25T10:57:52.982Z</time></trkpt><trkpt lat="40.44935" lon="15.043575"><ele>33.0</ele><time>2026-04-25T10:57:53.98Z</time></trkpt><trkpt lat="40.4492617" lon="15.0437583"><ele>33.0</ele><time>2026-04-25T10:57:54.983Z</time></trkpt><trkpt lat="40.44917" lon="15.0439383"><ele>33.0</ele><time>2026-04-25T10:57:56.037Z</time></trkpt><trkpt lat="40.4490767" lon="15.0441083"><ele>33.0</ele><time>2026-04-25T10:57:56.976Z</time></trkpt><trkpt lat="40.4489883" lon="15.0442667"><ele>33.0</ele><time>2026-04-25T10:57:57.977Z</time></trkpt><trkpt lat="40.4489017" lon="15.04441"><ele>33.0</ele><time>2026-04-25T10:57:58.98Z</time></trkpt><trkpt lat="40.4488133" lon="15.044545"><ele>33.0</ele><time>2026-04-25T10:57:59.979Z</time></trkpt><trkpt lat="40.448715" lon="15.0446633"><ele>33.0</ele><time>2026-04-25T10:58:00.98Z</time></trkpt><trkpt lat="40.448605" lon="15.0447717"><ele>33.0</ele><time>2026-04-25T10:58:02.036Z</time></trkpt><trkpt lat="40.4484833" lon="15.044865"><ele>33.0</ele><time>2026-04-25T10:58:02.975Z</time></trkpt><trkpt lat="40.44835" lon="15.0449467"><ele>33.0</ele><time>2026-04-25T10:58:03.978Z</time></trkpt><trkpt lat="40.4482083" lon="15.0450183"><ele>33.0</ele><time>2026-04-25T10:58:04.978Z</time></trkpt><trkpt lat="40.4480667" lon="15.0450883"><ele>33.0</ele><time>2026-04-25T10:58:05.978Z</time></trkpt><trkpt lat="40.44792" lon="15.045165"><ele>33.0</ele><time>2026-04-25T10:58:06.981Z</time></trkpt><trkpt lat="40.4477733" lon="15.0452417"><ele>32.333333333333336</ele><time>2026-04-25T10:58:08.035Z</time></trkpt><trkpt lat="40.4476183" lon="15.0453217"><ele>31.666666666666668</ele><time>2026-04-25T10:58:08.968Z</time></trkpt><trkpt lat="40.4474567" lon="15.0454033"><ele>31.0</ele><time>2026-04-25T10:58:09.985Z</time></trkpt><trkpt lat="40.447295" lon="15.045485"><ele>31.0</ele><time>2026-04-25T10:58:10.977Z</time></trkpt><trkpt lat="40.4471333" lon="15.0455683"><ele>31.0</ele><time>2026-04-25T10:58:11.973Z</time></trkpt><trkpt lat="40.44697" lon="15.045655"><ele>31.0</ele><time>2026-04-25T10:58:12.978Z</time></trkpt><trkpt lat="40.4468017" lon="15.0457417"><ele>31.0</ele><time>2026-04-25T10:58:14.041Z</time></trkpt><trkpt lat="40.4466317" lon="15.0458283"><ele>31.0</ele><time>2026-04-25T10:58:14.982Z</time></trkpt><trkpt lat="40.4464617" lon="15.04591"><ele>31.0</ele><time>2026-04-25T10:58:15.979Z</time></trkpt><trkpt lat="40.4462817" lon="15.0459867"><ele>31.333333333333336</ele><time>2026-04-25T10:58:16.981Z</time></trkpt><trkpt lat="40.4461" lon="15.046055"><ele>31.666666666666664</ele><time>2026-04-25T10:58:17.972Z</time></trkpt><trkpt lat="40.4459217" lon="15.0461083"><ele>32.0</ele><time>2026-04-25T10:58:18.98Z</time></trkpt><trkpt lat="40.445755" lon="15.0461583"><ele>32.0</ele><time>2026-04-25T10:58:20.044Z</time></trkpt><trkpt lat="40.445595" lon="15.0462067"><ele>32.0</ele><time>2026-04-25T10:58:20.977Z</time></trkpt><trkpt lat="40.4454433" lon="15.0462517"><ele>32.0</ele><time>2026-04-25T10:58:21.975Z</time></trkpt><trkpt lat="40.4453" lon="15.0462867"><ele>32.25</ele><time>2026-04-25T10:58:22.974Z</time></trkpt><trkpt lat="40.44517" lon="15.04631"><ele>32.5</ele><time>2026-04-25T10:58:23.978Z</time></trkpt><trkpt lat="40.4450417" lon="15.0463233"><ele>32.75</ele><time>2026-04-25T10:58:24.981Z</time></trkpt><trkpt lat="40.4449167" lon="15.0463233"><ele>33.0</ele><time>2026-04-25T10:58:26.041Z</time></trkpt><trkpt lat="40.444805" lon="15.04631"><ele>33.0</ele><time>2026-04-25T10:58:26.979Z</time></trkpt><trkpt lat="40.4447183" lon="15.0462983"><ele>33.0</ele><time>2026-04-25T10:58:27.981Z</time></trkpt><trkpt lat="40.44465" lon="15.0462933"><ele>33.0</ele><time>2026-04-25T10:58:28.98Z</time></trkpt><trkpt lat="40.4445817" lon="15.0463117"><ele>33.0</ele><time>2026-04-25T10:58:30.978Z</time></trkpt><trkpt lat="40.4444767" lon="15.0463533"><ele>33.0</ele><time>2026-04-25T10:58:40.98Z</time></trkpt><trkpt lat="40.4444017" lon="15.0463517"><ele>33.0</ele><time>2026-04-25T10:58:41.985Z</time></trkpt><trkpt lat="40.4443133" lon="15.0463583"><ele>33.6</ele><time>2026-04-25T10:58:42.988Z</time></trkpt><trkpt lat="40.44422" lon="15.0463717"><ele>34.199999999999996</ele><time>2026-04-25T10:58:44.037Z</time></trkpt><trkpt lat="40.4441167" lon="15.0463883"><ele>34.8</ele><time>2026-04-25T10:58:44.976Z</time></trkpt><trkpt lat="40.4440067" lon="15.0464083"><ele>35.4</ele><time>2026-04-25T10:58:45.976Z</time></trkpt><trkpt lat="40.4439017" lon="15.0464267"><ele>36.0</ele><time>2026-04-25T10:58:46.976Z</time></trkpt><trkpt lat="40.4438083" lon="15.0464433"><ele>36.666666666666664</ele><time>2026-04-25T10:58:47.979Z</time></trkpt><trkpt lat="40.443725" lon="15.046475"><ele>37.333333333333336</ele><time>2026-04-25T10:58:48.977Z</time></trkpt><trkpt lat="40.4436467" lon="15.046525"><ele>38.0</ele><time>2026-04-25T10:58:50.036Z</time></trkpt><trkpt lat="40.4435783" lon="15.0465867"><ele>38.66666666666667</ele><time>2026-04-25T10:58:50.981Z</time></trkpt><trkpt lat="40.4435233" lon="15.0466683"><ele>39.333333333333336</ele><time>2026-04-25T10:58:51.977Z</time></trkpt><trkpt lat="40.4434733" lon="15.046755"><ele>40.0</ele><time>2026-04-25T10:58:52.98Z</time></trkpt><trkpt lat="40.4434233" lon="15.0468333"><ele>41.0</ele><time>2026-04-25T10:58:53.989Z</time></trkpt><trkpt lat="40.44338" lon="15.0469083"><ele>42.0</ele><time>2026-04-25T10:58:54.983Z</time></trkpt><trkpt lat="40.4433483" lon="15.0469883"><ele>43.0</ele><time>2026-04-25T10:58:56.045Z</time></trkpt><trkpt lat="40.4433167" lon="15.0470733"><ele>44.0</ele><time>2026-04-25T10:58:56.978Z</time></trkpt><trkpt lat="40.4433" lon="15.0471717"><ele>45.0</ele><time>2026-04-25T10:58:57.979Z</time></trkpt><trkpt lat="40.4432933" lon="15.0472767"><ele>46.0</ele><time>2026-04-25T10:58:58.981Z</time></trkpt><trkpt lat="40.44329" lon="15.0473867"><ele>47.0</ele><time>2026-04-25T10:58:59.976Z</time></trkpt><trkpt lat="40.443285" lon="15.0475017"><ele>48.0</ele><time>2026-04-25T10:59:00.983Z</time></trkpt><trkpt lat="40.443275" lon="15.0476267"><ele>49.0</ele><time>2026-04-25T10:59:02.038Z</time></trkpt><trkpt lat="40.4432583" lon="15.047755"><ele>50.0</ele><time>2026-04-25T10:59:02.982Z</time></trkpt><trkpt lat="40.44324" lon="15.0478883"><ele>51.0</ele><time>2026-04-25T10:59:03.976Z</time></trkpt><trkpt lat="40.4432217" lon="15.0480217"><ele>51.0</ele><time>2026-04-25T10:59:04.978Z</time></trkpt><trkpt lat="40.443205" lon="15.0481467"><ele>51.0</ele><time>2026-04-25T10:59:05.976Z</time></trkpt><trkpt lat="40.4431883" lon="15.04826"><ele>51.0</ele><time>2026-04-25T10:59:06.982Z</time></trkpt><trkpt lat="40.4431783" lon="15.0483533"><ele>51.0</ele><time>2026-04-25T10:59:08.034Z</time></trkpt><trkpt lat="40.4431717" lon="15.0484383"><ele>51.0</ele><time>2026-04-25T10:59:08.976Z</time></trkpt><trkpt lat="40.4431817" lon="15.0486033"><ele>51.0</ele><time>2026-04-25T10:59:10.982Z</time></trkpt><trkpt lat="40.4432017" lon="15.048695"><ele>52.333333333333336</ele><time>2026-04-25T10:59:11.977Z</time></trkpt><trkpt lat="40.443235" lon="15.0487917"><ele>53.66666666666667</ele><time>2026-04-25T10:59:12.985Z</time></trkpt><trkpt lat="40.4432867" lon="15.0488967"><ele>55.0</ele><time>2026-04-25T10:59:14.036Z</time></trkpt><trkpt lat="40.443345" lon="15.0489967"><ele>56.333333333333336</ele><time>2026-04-25T10:59:14.976Z</time></trkpt><trkpt lat="40.443395" lon="15.04909"><ele>57.66666666666667</ele><time>2026-04-25T10:59:15.982Z</time></trkpt><trkpt lat="40.4434367" lon="15.0491717"><ele>59.0</ele><time>2026-04-25T10:59:16.973Z</time></trkpt><trkpt lat="40.4434717" lon="15.049245"><ele>60.800000000000004</ele><time>2026-04-25T10:59:17.98Z</time></trkpt><trkpt lat="40.4435433" lon="15.0493333"><ele>62.60000000000001</ele><time>2026-04-25T10:59:20.032Z</time></trkpt><trkpt lat="40.4436567" lon="15.0493867"><ele>64.4</ele><time>2026-04-25T10:59:21.981Z</time></trkpt><trkpt lat="40.44372" lon="15.0494067"><ele>66.2</ele><time>2026-04-25T10:59:22.978Z</time></trkpt><trkpt lat="40.4438067" lon="15.0494667"><ele>68.0</ele><time>2026-04-25T10:59:24.985Z</time></trkpt><trkpt lat="40.4438583" lon="15.0495383"><ele>68.2</ele><time>2026-04-25T10:59:26.975Z</time></trkpt><trkpt lat="40.4437533" lon="15.0496267"><ele>68.4</ele><time>2026-04-25T10:59:29.973Z</time></trkpt><trkpt lat="40.443675" lon="15.0496517"><ele>68.60000000000001</ele><time>2026-04-25T10:59:30.973Z</time></trkpt><trkpt lat="40.4435917" lon="15.0496733"><ele>68.8</ele><time>2026-04-25T10:59:32.038Z</time></trkpt><trkpt lat="40.4435" lon="15.0496867"><ele>69.0</ele><time>2026-04-25T10:59:32.975Z</time></trkpt><trkpt lat="40.4434133" lon="15.0496917"><ele>69.0</ele><time>2026-04-25T10:59:33.97Z</time></trkpt><trkpt lat="40.4433233" lon="15.049695"><ele>69.0</ele><time>2026-04-25T10:59:34.976Z</time></trkpt><trkpt lat="40.4432367" lon="15.049695"><ele>69.0</ele><time>2026-04-25T10:59:35.972Z</time></trkpt><trkpt lat="40.4431583" lon="15.0497033"><ele>69.0</ele><time>2026-04-25T10:59:36.979Z</time></trkpt><trkpt lat="40.4430817" lon="15.0497167"><ele>69.0</ele><time>2026-04-25T10:59:38.033Z</time></trkpt><trkpt lat="40.4430133" lon="15.0497367"><ele>69.0</ele><time>2026-04-25T10:59:38.975Z</time></trkpt><trkpt lat="40.4429033" lon="15.04978"><ele>69.0</ele><time>2026-04-25T10:59:40.979Z</time></trkpt><trkpt lat="40.4428483" lon="15.0498383"><ele>69.0</ele><time>2026-04-25T10:59:42.98Z</time></trkpt><trkpt lat="40.44295" lon="15.0498817"><ele>69.0</ele><time>2026-04-25T10:59:46.982Z</time></trkpt><trkpt lat="40.4430383" lon="15.049935"><ele>69.0</ele><time>2026-04-25T10:59:48.982Z</time></trkpt><trkpt lat="40.4430617" lon="15.05004"><ele>69.0</ele><time>2026-04-25T10:59:51.978Z</time></trkpt><trkpt lat="40.4430017" lon="15.0501117"><ele>69.0</ele><time>2026-04-25T10:59:53.973Z</time></trkpt><trkpt lat="40.4429517" lon="15.0501633"><ele>71.42857142857143</ele><time>2026-04-25T10:59:54.98Z</time></trkpt><trkpt lat="40.4428967" lon="15.0502217"><ele>73.85714285714286</ele><time>2026-04-25T10:59:56.032Z</time></trkpt><trkpt lat="40.4428317" lon="15.0502883"><ele>76.28571428571429</ele><time>2026-04-25T10:59:56.971Z</time></trkpt><trkpt lat="40.4427683" lon="15.0503617"><ele>78.71428571428572</ele><time>2026-04-25T10:59:57.976Z</time></trkpt><trkpt lat="40.44272" lon="15.0504217"><ele>81.14285714285714</ele><time>2026-04-25T10:59:58.974Z</time></trkpt><trkpt lat="40.44267" lon="15.0504833"><ele>83.57142857142858</ele><time>2026-04-25T10:59:59.978Z</time></trkpt><trkpt lat="40.442615" lon="15.0505433"><ele>86.0</ele><time>2026-04-25T11:00:00.976Z</time></trkpt><trkpt lat="40.44256" lon="15.0506117"><ele>86.0</ele><time>2026-04-25T11:00:02.039Z</time></trkpt><trkpt lat="40.4425067" lon="15.05068"><ele>86.0</ele><time>2026-04-25T11:00:02.975Z</time></trkpt><trkpt lat="40.442455" lon="15.050745"><ele>86.0</ele><time>2026-04-25T11:00:03.978Z</time></trkpt><trkpt lat="40.4424067" lon="15.0508083"><ele>86.0</ele><time>2026-04-25T11:00:04.978Z</time></trkpt><trkpt lat="40.4423633" lon="15.050875"><ele>86.0</ele><time>2026-04-25T11:00:05.975Z</time></trkpt><trkpt lat="40.4422733" lon="15.0510083"><ele>86.0</ele><time>2026-04-25T11:00:08.031Z</time></trkpt><trkpt lat="40.44218" lon="15.0511133"><ele>88.16666666666667</ele><time>2026-04-25T11:00:09.974Z</time></trkpt><trkpt lat="40.44213" lon="15.0511733"><ele>90.33333333333334</ele><time>2026-04-25T11:00:10.977Z</time></trkpt><trkpt lat="40.4420683" lon="15.0512333"><ele>92.5</ele><time>2026-04-25T11:00:11.974Z</time></trkpt><trkpt lat="40.44201" lon="15.05129"><ele>94.66666666666667</ele><time>2026-04-25T11:00:12.968Z</time></trkpt><trkpt lat="40.441935" lon="15.0513367"><ele>96.83333333333333</ele><time>2026-04-25T11:00:14.034Z</time></trkpt><trkpt lat="40.441855" lon="15.05138"><ele>99.0</ele><time>2026-04-25T11:00:14.973Z</time></trkpt><trkpt lat="40.441765" lon="15.0514267"><ele>99.0</ele><time>2026-04-25T11:00:15.976Z</time></trkpt><trkpt lat="40.441675" lon="15.0514683"><ele>99.0</ele><time>2026-04-25T11:00:16.977Z</time></trkpt><trkpt lat="40.4415767" lon="15.0514983"><ele>99.0</ele><time>2026-04-25T11:00:17.98Z</time></trkpt><trkpt lat="40.441475" lon="15.0515133"><ele>99.0</ele><time>2026-04-25T11:00:18.978Z</time></trkpt><trkpt lat="40.4413683" lon="15.05153"><ele>99.0</ele><time>2026-04-25T11:00:20.03Z</time></trkpt><trkpt lat="40.4412667" lon="15.0515383"><ele>99.80000000000001</ele><time>2026-04-25T11:00:20.97Z</time></trkpt><trkpt lat="40.4411717" lon="15.0515483"><ele>100.60000000000001</ele><time>2026-04-25T11:00:21.975Z</time></trkpt><trkpt lat="40.4410783" lon="15.0515583"><ele>101.4</ele><time>2026-04-25T11:00:22.975Z</time></trkpt><trkpt lat="40.4409833" lon="15.051575"><ele>102.2</ele><time>2026-04-25T11:00:23.982Z</time></trkpt><trkpt lat="40.44088" lon="15.0516083"><ele>103.0</ele><time>2026-04-25T11:00:24.983Z</time></trkpt><trkpt lat="40.4407767" lon="15.0516517"><ele>106.25</ele><time>2026-04-25T11:00:26.037Z</time></trkpt><trkpt lat="40.44067" lon="15.0517017"><ele>109.5</ele><time>2026-04-25T11:00:26.971Z</time></trkpt><trkpt lat="40.44056" lon="15.0517417"><ele>112.75</ele><time>2026-04-25T11:00:27.977Z</time></trkpt><trkpt lat="40.4404433" lon="15.0517717"><ele>116.0</ele><time>2026-04-25T11:00:28.975Z</time></trkpt><trkpt lat="40.4403183" lon="15.0517867"><ele>117.0</ele><time>2026-04-25T11:00:29.971Z</time></trkpt><trkpt lat="40.4401833" lon="15.051785"><ele>118.0</ele><time>2026-04-25T11:00:30.977Z</time></trkpt><trkpt lat="40.44005" lon="15.05177"><ele>119.0</ele><time>2026-04-25T11:00:32.04Z</time></trkpt><trkpt lat="40.4399267" lon="15.0517417"><ele>120.0</ele><time>2026-04-25T11:00:32.97Z</time></trkpt><trkpt lat="40.4398117" lon="15.0517117"><ele>120.0</ele><time>2026-04-25T11:00:33.978Z</time></trkpt><trkpt lat="40.4397067" lon="15.0516917"><ele>120.0</ele><time>2026-04-25T11:00:34.976Z</time></trkpt><trkpt lat="40.439615" lon="15.0516767"><ele>120.0</ele><time>2026-04-25T11:00:35.978Z</time></trkpt><trkpt lat="40.4395317" lon="15.0516767"><ele>120.0</ele><time>2026-04-25T11:00:38.037Z</time></trkpt><trkpt lat="40.439435" lon="15.0516717"><ele>120.0</ele><time>2026-04-25T11:00:42.981Z</time></trkpt><trkpt lat="40.43937" lon="15.0516483"><ele>120.0</ele><time>2026-04-25T11:00:44.038Z</time></trkpt><trkpt lat="40.4392567" lon="15.0516117"><ele>119.83333333333333</ele><time>2026-04-25T11:00:44.971Z</time></trkpt><trkpt lat="40.43917" lon="15.0515833"><ele>119.66666666666666</ele><time>2026-04-25T11:00:45.973Z</time></trkpt><trkpt lat="40.439095" lon="15.05156"><ele>119.5</ele><time>2026-04-25T11:00:46.979Z</time></trkpt><trkpt lat="40.4390233" lon="15.0515733"><ele>119.33333333333333</ele><time>2026-04-25T11:00:48.977Z</time></trkpt><trkpt lat="40.43896" lon="15.05165"><ele>119.16666666666666</ele><time>2026-04-25T11:00:51.973Z</time></trkpt><trkpt lat="40.438905" lon="15.05173"><ele>119.0</ele><time>2026-04-25T11:00:53.982Z</time></trkpt><trkpt lat="40.4388717" lon="15.051845"><ele>121.4</ele><time>2026-04-25T11:00:56.035Z</time></trkpt><trkpt lat="40.43888" lon="15.05198"><ele>123.80000000000001</ele><time>2026-04-25T11:00:57.979Z</time></trkpt><trkpt lat="40.43895" lon="15.05212"><ele>126.19999999999999</ele><time>2026-04-25T11:00:59.971Z</time></trkpt><trkpt lat="40.4389983" lon="15.052175"><ele>128.6</ele><time>2026-04-25T11:01:00.976Z</time></trkpt><trkpt lat="40.4390683" lon="15.0522433"><ele>131.0</ele><time>2026-04-25T11:01:02.974Z</time></trkpt><trkpt lat="40.4389983" lon="15.0522333"><ele>131.0</ele><time>2026-04-25T11:01:21.975Z</time></trkpt><trkpt lat="40.4389433" lon="15.052175"><ele>131.0</ele><time>2026-04-25T11:01:23.981Z</time></trkpt><trkpt lat="40.43888" lon="15.05209"><ele>131.0</ele><time>2026-04-25T11:01:26.041Z</time></trkpt><trkpt lat="40.4388483" lon="15.05199"><ele>131.0</ele><time>2026-04-25T11:01:27.977Z</time></trkpt><trkpt lat="40.4388467" lon="15.0518917"><ele>131.0</ele><time>2026-04-25T11:01:32.033Z</time></trkpt><trkpt lat="40.4387517" lon="15.0519817"><ele>131.0</ele><time>2026-04-25T11:01:39.975Z</time></trkpt><trkpt lat="40.4387017" lon="15.052065"><ele>130.2</ele><time>2026-04-25T11:01:40.98Z</time></trkpt><trkpt lat="40.438645" lon="15.05214"><ele>129.39999999999998</ele><time>2026-04-25T11:01:41.975Z</time></trkpt><trkpt lat="40.4385817" lon="15.0522267"><ele>128.6</ele><time>2026-04-25T11:01:42.982Z</time></trkpt><trkpt lat="40.4385267" lon="15.0523183"><ele>127.8</ele><time>2026-04-25T11:01:44.039Z</time></trkpt><trkpt lat="40.4384567" lon="15.0524233"><ele>127.0</ele><time>2026-04-25T11:01:44.972Z</time></trkpt><trkpt lat="40.4383867" lon="15.052535"><ele>128.0</ele><time>2026-04-25T11:01:45.968Z</time></trkpt><trkpt lat="40.438295" lon="15.0526517"><ele>129.0</ele><time>2026-04-25T11:01:46.978Z</time></trkpt><trkpt lat="40.4382033" lon="15.0527633"><ele>130.0</ele><time>2026-04-25T11:01:47.975Z</time></trkpt><trkpt lat="40.4380833" lon="15.0528933"><ele>131.0</ele><time>2026-04-25T11:01:48.98Z</time></trkpt><trkpt lat="40.4379433" lon="15.053015"><ele>131.0</ele><time>2026-04-25T11:01:50.036Z</time></trkpt><trkpt lat="40.4378117" lon="15.0531283"><ele>131.0</ele><time>2026-04-25T11:01:50.97Z</time></trkpt><trkpt lat="40.4376767" lon="15.053235"><ele>131.0</ele><time>2026-04-25T11:01:51.975Z</time></trkpt><trkpt lat="40.4375483" lon="15.05332"><ele>135.25</ele><time>2026-04-25T11:01:52.978Z</time></trkpt><trkpt lat="40.4374283" lon="15.05339"><ele>139.5</ele><time>2026-04-25T11:01:53.973Z</time></trkpt><trkpt lat="40.4373267" lon="15.0534017"><ele>143.75</ele><time>2026-04-25T11:01:54.982Z</time></trkpt><trkpt lat="40.437205" lon="15.0534317"><ele>148.0</ele><time>2026-04-25T11:01:56.033Z</time></trkpt><trkpt lat="40.4370883" lon="15.0534417"><ele>148.0</ele><time>2026-04-25T11:01:56.977Z</time></trkpt><trkpt lat="40.4369667" lon="15.0534217"><ele>148.0</ele><time>2026-04-25T11:01:57.977Z</time></trkpt><trkpt lat="40.436845" lon="15.0533933"><ele>148.0</ele><time>2026-04-25T11:01:58.982Z</time></trkpt><trkpt lat="40.4367167" lon="15.0533617"><ele>148.0</ele><time>2026-04-25T11:01:59.974Z</time></trkpt><trkpt lat="40.4365933" lon="15.053335"><ele>148.0</ele><time>2026-04-25T11:02:00.986Z</time></trkpt><trkpt lat="40.4364767" lon="15.053305"><ele>148.0</ele><time>2026-04-25T11:02:02.037Z</time></trkpt><trkpt lat="40.43641" lon="15.0533383"><ele>148.0</ele><time>2026-04-25T11:02:02.974Z</time></trkpt><trkpt lat="40.4363733" lon="15.0534183"><ele>148.0</ele><time>2026-04-25T11:02:03.977Z</time></trkpt><trkpt lat="40.4363533" lon="15.0535133"><ele>148.0</ele><time>2026-04-25T11:02:04.976Z</time></trkpt><trkpt lat="40.436385" lon="15.053625"><ele>148.0</ele><time>2026-04-25T11:02:05.98Z</time></trkpt><trkpt lat="40.4364333" lon="15.05373"><ele>148.0</ele><time>2026-04-25T11:02:06.983Z</time></trkpt><trkpt lat="40.4365117" lon="15.0538"><ele>148.0</ele><time>2026-04-25T11:02:08.035Z</time></trkpt><trkpt lat="40.4366" lon="15.05385"><ele>148.0</ele><time>2026-04-25T11:02:08.972Z</time></trkpt><trkpt lat="40.4366917" lon="15.0538967"><ele>148.0</ele><time>2026-04-25T11:02:09.976Z</time></trkpt><trkpt lat="40.4368067" lon="15.0539383"><ele>148.0</ele><time>2026-04-25T11:02:10.98Z</time></trkpt><trkpt lat="40.4369333" lon="15.0539817"><ele>148.0</ele><time>2026-04-25T11:02:11.976Z</time></trkpt><trkpt lat="40.437075" lon="15.0540317"><ele>148.0</ele><time>2026-04-25T11:02:12.978Z</time></trkpt><trkpt lat="40.43723" lon="15.0540817"><ele>148.0</ele><time>2026-04-25T11:02:14.037Z</time></trkpt><trkpt lat="40.437375" lon="15.0541317"><ele>150.75</ele><time>2026-04-25T11:02:14.972Z</time></trkpt><trkpt lat="40.43751" lon="15.0541783"><ele>153.5</ele><time>2026-04-25T11:02:15.974Z</time></trkpt><trkpt lat="40.4376383" lon="15.0542317"><ele>156.25</ele><time>2026-04-25T11:02:16.982Z</time></trkpt><trkpt lat="40.4377667" lon="15.0543017"><ele>159.0</ele><time>2026-04-25T11:02:17.979Z</time></trkpt><trkpt lat="40.437895" lon="15.0543917"><ele>159.66666666666666</ele><time>2026-04-25T11:02:18.981Z</time></trkpt><trkpt lat="40.4380233" lon="15.0544917"><ele>160.33333333333331</ele><time>2026-04-25T11:02:20.032Z</time></trkpt><trkpt lat="40.4381583" lon="15.054605"><ele>161.0</ele><time>2026-04-25T11:02:20.98Z</time></trkpt><trkpt lat="40.4382833" lon="15.054705"><ele>161.0</ele><time>2026-04-25T11:02:21.974Z</time></trkpt><trkpt lat="40.4384017" lon="15.0547867"><ele>161.0</ele><time>2026-04-25T11:02:22.981Z</time></trkpt><trkpt lat="40.438525" lon="15.054835"><ele>161.0</ele><time>2026-04-25T11:02:23.973Z</time></trkpt><trkpt lat="40.4386533" lon="15.0548567"><ele>161.0</ele><time>2026-04-25T11:02:24.98Z</time></trkpt><trkpt lat="40.4387867" lon="15.0548383"><ele>161.75</ele><time>2026-04-25T11:02:26.038Z</time></trkpt><trkpt lat="40.4389267" lon="15.0547867"><ele>162.5</ele><time>2026-04-25T11:02:26.971Z</time></trkpt><trkpt lat="40.4390717" lon="15.05471"><ele>163.25</ele><time>2026-04-25T11:02:27.973Z</time></trkpt><trkpt lat="40.4392033" lon="15.0546517"><ele>164.0</ele><time>2026-04-25T11:02:28.976Z</time></trkpt><trkpt lat="40.4393367" lon="15.0546"><ele>164.0</ele><time>2026-04-25T11:02:29.976Z</time></trkpt><trkpt lat="40.4394767" lon="15.0545633"><ele>164.0</ele><time>2026-04-25T11:02:30.984Z</time></trkpt><trkpt lat="40.4396183" lon="15.054545"><ele>164.0</ele><time>2026-04-25T11:02:32.035Z</time></trkpt><trkpt lat="40.43978" lon="15.0545467"><ele>164.0</ele><time>2026-04-25T11:02:32.975Z</time></trkpt><trkpt lat="40.43995" lon="15.0545467"><ele>165.0</ele><time>2026-04-25T11:02:33.976Z</time></trkpt><trkpt lat="40.44013" lon="15.0545583"><ele>166.0</ele><time>2026-04-25T11:02:34.984Z</time></trkpt><trkpt lat="40.4403183" lon="15.054565"><ele>167.0</ele><time>2026-04-25T11:02:35.981Z</time></trkpt><trkpt lat="40.4405067" lon="15.054575"><ele>167.33333333333331</ele><time>2026-04-25T11:02:36.981Z</time></trkpt><trkpt lat="40.4406983" lon="15.0545867"><ele>167.66666666666666</ele><time>2026-04-25T11:02:38.038Z</time></trkpt><trkpt lat="40.4408933" lon="15.054595"><ele>168.0</ele><time>2026-04-25T11:02:38.973Z</time></trkpt><trkpt lat="40.4410883" lon="15.054605"><ele>168.0</ele><time>2026-04-25T11:02:39.974Z</time></trkpt><trkpt lat="40.441275" lon="15.0546167"><ele>168.0</ele><time>2026-04-25T11:02:40.974Z</time></trkpt><trkpt lat="40.4414483" lon="15.0546217"><ele>168.0</ele><time>2026-04-25T11:02:41.972Z</time></trkpt><trkpt lat="40.4416017" lon="15.05463"><ele>169.0</ele><time>2026-04-25T11:02:42.976Z</time></trkpt><trkpt lat="40.44174" lon="15.05464"><ele>170.0</ele><time>2026-04-25T11:02:44.035Z</time></trkpt><trkpt lat="40.4418533" lon="15.0546633"><ele>171.0</ele><time>2026-04-25T11:02:44.983Z</time></trkpt><trkpt lat="40.44187" lon="15.0547933"><ele>172.0</ele><time>2026-04-25T11:02:46.982Z</time></trkpt><trkpt lat="40.44175" lon="15.0548767"><ele>172.0</ele><time>2026-04-25T11:02:48.985Z</time></trkpt><trkpt lat="40.4416667" lon="15.0548917"><ele>172.0</ele><time>2026-04-25T11:02:50.035Z</time></trkpt><trkpt lat="40.4415583" lon="15.0548983"><ele>172.0</ele><time>2026-04-25T11:02:50.977Z</time></trkpt><trkpt lat="40.4414117" lon="15.0549083"><ele>172.0</ele><time>2026-04-25T11:02:51.978Z</time></trkpt><trkpt lat="40.4412583" lon="15.0549317"><ele>177.33333333333334</ele><time>2026-04-25T11:02:52.981Z</time></trkpt><trkpt lat="40.4411033" lon="15.0549667"><ele>182.66666666666666</ele><time>2026-04-25T11:02:53.98Z</time></trkpt><trkpt lat="40.44095" lon="15.055015"><ele>188.0</ele><time>2026-04-25T11:02:54.981Z</time></trkpt><trkpt lat="40.4407883" lon="15.0550783"><ele>188.0</ele><time>2026-04-25T11:02:56.038Z</time></trkpt><trkpt lat="40.4406317" lon="15.0551883"><ele>188.0</ele><time>2026-04-25T11:02:56.973Z</time></trkpt><trkpt lat="40.4404817" lon="15.0553167"><ele>188.0</ele><time>2026-04-25T11:02:57.972Z</time></trkpt><trkpt lat="40.440335" lon="15.0554583"><ele>186.0</ele><time>2026-04-25T11:02:58.981Z</time></trkpt><trkpt lat="40.4401833" lon="15.0556033"><ele>184.0</ele><time>2026-04-25T11:02:59.979Z</time></trkpt><trkpt lat="40.440025" lon="15.0557417"><ele>182.0</ele><time>2026-04-25T11:03:00.979Z</time></trkpt><trkpt lat="40.4398633" lon="15.055875"><ele>184.66666666666666</ele><time>2026-04-25T11:03:02.045Z</time></trkpt><trkpt lat="40.4396933" lon="15.0559983"><ele>187.33333333333334</ele><time>2026-04-25T11:03:02.977Z</time></trkpt><trkpt lat="40.4395167" lon="15.0561067"><ele>190.0</ele><time>2026-04-25T11:03:03.976Z</time></trkpt><trkpt lat="40.4393417" lon="15.05622"><ele>190.0</ele><time>2026-04-25T11:03:04.971Z</time></trkpt><trkpt lat="40.4391717" lon="15.0563317"><ele>190.0</ele><time>2026-04-25T11:03:05.987Z</time></trkpt><trkpt lat="40.439" lon="15.0564383"><ele>190.0</ele><time>2026-04-25T11:03:06.98Z</time></trkpt><trkpt lat="40.438825" lon="15.0565283"><ele>188.0</ele><time>2026-04-25T11:03:08.039Z</time></trkpt><trkpt lat="40.4386533" lon="15.056605"><ele>186.0</ele><time>2026-04-25T11:03:08.974Z</time></trkpt><trkpt lat="40.4384767" lon="15.0566417"><ele>184.0</ele><time>2026-04-25T11:03:09.975Z</time></trkpt><trkpt lat="40.438305" lon="15.0566567"><ele>190.66666666666669</ele><time>2026-04-25T11:03:10.98Z</time></trkpt><trkpt lat="40.4381417" lon="15.0566867"><ele>197.33333333333334</ele><time>2026-04-25T11:03:11.976Z</time></trkpt><trkpt lat="40.437995" lon="15.0567467"><ele>204.0</ele><time>2026-04-25T11:03:12.987Z</time></trkpt><trkpt lat="40.4378567" lon="15.0568017"><ele>204.0</ele><time>2026-04-25T11:03:14.041Z</time></trkpt><trkpt lat="40.4377167" lon="15.05683"><ele>204.0</ele><time>2026-04-25T11:03:14.977Z</time></trkpt><trkpt lat="40.43758" lon="15.05683"><ele>204.0</ele><time>2026-04-25T11:03:15.982Z</time></trkpt><trkpt lat="40.4374483" lon="15.0568067"><ele>204.0</ele><time>2026-04-25T11:03:16.983Z</time></trkpt><trkpt lat="40.4373217" lon="15.0567883"><ele>204.0</ele><time>2026-04-25T11:03:17.979Z</time></trkpt><trkpt lat="40.4372067" lon="15.0567917"><ele>204.0</ele><time>2026-04-25T11:03:18.981Z</time></trkpt><trkpt lat="40.43713" lon="15.056855"><ele>204.0</ele><time>2026-04-25T11:03:20.033Z</time></trkpt><trkpt lat="40.4370717" lon="15.05693"><ele>204.0</ele><time>2026-04-25T11:03:20.98Z</time></trkpt><trkpt lat="40.4370467" lon="15.0570433"><ele>204.0</ele><time>2026-04-25T11:03:22.977Z</time></trkpt><trkpt lat="40.4370717" lon="15.057135"><ele>203.83333333333334</ele><time>2026-04-25T11:03:24.98Z</time></trkpt><trkpt lat="40.4370883" lon="15.057285"><ele>203.66666666666669</ele><time>2026-04-25T11:03:26.975Z</time></trkpt><trkpt lat="40.4370983" lon="15.0573767"><ele>203.5</ele><time>2026-04-25T11:03:27.976Z</time></trkpt><trkpt lat="40.4371133" lon="15.05747"><ele>203.33333333333334</ele><time>2026-04-25T11:03:28.977Z</time></trkpt><trkpt lat="40.43713" lon="15.057575"><ele>203.16666666666669</ele><time>2026-04-25T11:03:29.977Z</time></trkpt><trkpt lat="40.437145" lon="15.057685"><ele>203.0</ele><time>2026-04-25T11:03:30.982Z</time></trkpt><trkpt lat="40.437145" lon="15.0577967"><ele>205.2</ele><time>2026-04-25T11:03:32.037Z</time></trkpt><trkpt lat="40.4371383" lon="15.057905"><ele>207.4</ele><time>2026-04-25T11:03:32.973Z</time></trkpt><trkpt lat="40.4371183" lon="15.0579967"><ele>209.59999999999997</ele><time>2026-04-25T11:03:33.972Z</time></trkpt><trkpt lat="40.4370417" lon="15.058065"><ele>211.79999999999998</ele><time>2026-04-25T11:03:34.984Z</time></trkpt><trkpt lat="40.436965" lon="15.0581383"><ele>214.0</ele><time>2026-04-25T11:03:35.98Z</time></trkpt><trkpt lat="40.4368717" lon="15.0582133"><ele>216.2</ele><time>2026-04-25T11:03:36.98Z</time></trkpt><trkpt lat="40.4367717" lon="15.058285"><ele>218.39999999999998</ele><time>2026-04-25T11:03:38.032Z</time></trkpt><trkpt lat="40.4366717" lon="15.0583583"><ele>220.6</ele><time>2026-04-25T11:03:38.974Z</time></trkpt><trkpt lat="40.43659" lon="15.0584283"><ele>222.8</ele><time>2026-04-25T11:03:39.975Z</time></trkpt><trkpt lat="40.436515" lon="15.05849"><ele>225.0</ele><time>2026-04-25T11:03:40.973Z</time></trkpt><trkpt lat="40.4364383" lon="15.0585667"><ele>225.0</ele><time>2026-04-25T11:03:41.973Z</time></trkpt><trkpt lat="40.4363633" lon="15.0586483"><ele>225.0</ele><time>2026-04-25T11:03:42.981Z</time></trkpt><trkpt lat="40.4362983" lon="15.0587433"><ele>225.0</ele><time>2026-04-25T11:03:44.029Z</time></trkpt><trkpt lat="40.4362433" lon="15.05884"><ele>225.0</ele><time>2026-04-25T11:03:44.974Z</time></trkpt><trkpt lat="40.4362133" lon="15.0589383"><ele>225.0</ele><time>2026-04-25T11:03:45.973Z</time></trkpt><trkpt lat="40.4361833" lon="15.0590333"><ele>225.0</ele><time>2026-04-25T11:03:46.979Z</time></trkpt><trkpt lat="40.436155" lon="15.0591383"><ele>226.8</ele><time>2026-04-25T11:03:47.976Z</time></trkpt><trkpt lat="40.4361167" lon="15.0592467"><ele>228.6</ele><time>2026-04-25T11:03:48.975Z</time></trkpt><trkpt lat="40.4360717" lon="15.05935"><ele>230.39999999999998</ele><time>2026-04-25T11:03:50.034Z</time></trkpt><trkpt lat="40.4360133" lon="15.0594517"><ele>232.2</ele><time>2026-04-25T11:03:50.972Z</time></trkpt><trkpt lat="40.4359567" lon="15.0595583"><ele>234.0</ele><time>2026-04-25T11:03:51.972Z</time></trkpt><trkpt lat="40.435895" lon="15.0596583"><ele>234.0</ele><time>2026-04-25T11:03:52.973Z</time></trkpt><trkpt lat="40.435835" lon="15.0597567"><ele>234.0</ele><time>2026-04-25T11:03:53.971Z</time></trkpt><trkpt lat="40.4357767" lon="15.0598483"><ele>234.0</ele><time>2026-04-25T11:03:54.981Z</time></trkpt><trkpt lat="40.4357217" lon="15.0599367"><ele>234.0</ele><time>2026-04-25T11:03:56.034Z</time></trkpt><trkpt lat="40.4356683" lon="15.0600183"><ele>234.0</ele><time>2026-04-25T11:03:56.974Z</time></trkpt><trkpt lat="40.4356067" lon="15.060095"><ele>234.0</ele><time>2026-04-25T11:03:57.973Z</time></trkpt><trkpt lat="40.435535" lon="15.060165"><ele>236.5</ele><time>2026-04-25T11:03:58.982Z</time></trkpt><trkpt lat="40.435465" lon="15.0602183"><ele>239.0</ele><time>2026-04-25T11:03:59.978Z</time></trkpt><trkpt lat="40.4354" lon="15.0602533"><ele>241.5</ele><time>2026-04-25T11:04:00.979Z</time></trkpt><trkpt lat="40.4353333" lon="15.0602817"><ele>244.0</ele><time>2026-04-25T11:04:02.034Z</time></trkpt><trkpt lat="40.4352517" lon="15.0602933"><ele>246.5</ele><time>2026-04-25T11:04:02.974Z</time></trkpt><trkpt lat="40.435175" lon="15.0603"><ele>249.0</ele><time>2026-04-25T11:04:03.974Z</time></trkpt><trkpt lat="40.4350833" lon="15.0603033"><ele>249.0</ele><time>2026-04-25T11:04:04.99Z</time></trkpt><trkpt lat="40.4349883" lon="15.0603017"><ele>248.99999999999997</ele><time>2026-04-25T11:04:05.98Z</time></trkpt><trkpt lat="40.4348967" lon="15.0603"><ele>248.99999999999997</ele><time>2026-04-25T11:04:06.979Z</time></trkpt><trkpt lat="40.43481" lon="15.0603117"><ele>249.0</ele><time>2026-04-25T11:04:08.032Z</time></trkpt><trkpt lat="40.4347183" lon="15.0603333"><ele>249.0</ele><time>2026-04-25T11:04:08.97Z</time></trkpt><trkpt lat="40.4346317" lon="15.060385"><ele>249.0</ele><time>2026-04-25T11:04:09.972Z</time></trkpt><trkpt lat="40.434555" lon="15.0604433"><ele>249.0</ele><time>2026-04-25T11:04:10.977Z</time></trkpt><trkpt lat="40.434485" lon="15.06051"><ele>249.0</ele><time>2026-04-25T11:04:11.976Z</time></trkpt><trkpt lat="40.4344233" lon="15.0605683"><ele>249.0</ele><time>2026-04-25T11:04:12.984Z</time></trkpt><trkpt lat="40.4343767" lon="15.060635"><ele>249.0</ele><time>2026-04-25T11:04:14.033Z</time></trkpt><trkpt lat="40.43434" lon="15.0607933"><ele>249.0</ele><time>2026-04-25T11:04:15.971Z</time></trkpt><trkpt lat="40.4342983" lon="15.06095"><ele>251.16666666666666</ele><time>2026-04-25T11:04:17.973Z</time></trkpt><trkpt lat="40.4342583" lon="15.0610283"><ele>253.33333333333331</ele><time>2026-04-25T11:04:18.981Z</time></trkpt><trkpt lat="40.43421" lon="15.0611167"><ele>255.5</ele><time>2026-04-25T11:04:20.037Z</time></trkpt><trkpt lat="40.4341417" lon="15.0612067"><ele>257.66666666666663</ele><time>2026-04-25T11:04:20.975Z</time></trkpt><trkpt lat="40.4340683" lon="15.0612883"><ele>259.8333333333333</ele><time>2026-04-25T11:04:21.973Z</time></trkpt><trkpt lat="40.4339983" lon="15.06136"><ele>262.0</ele><time>2026-04-25T11:04:22.983Z</time></trkpt><trkpt lat="40.4339333" lon="15.0614233"><ele>262.0</ele><time>2026-04-25T11:04:23.974Z</time></trkpt><trkpt lat="40.4338867" lon="15.0615017"><ele>262.0</ele><time>2026-04-25T11:04:24.977Z</time></trkpt><trkpt lat="40.4338367" lon="15.0615833"><ele>262.0</ele><time>2026-04-25T11:04:26.033Z</time></trkpt><trkpt lat="40.4337717" lon="15.0616717"><ele>262.0</ele><time>2026-04-25T11:04:26.972Z</time></trkpt><trkpt lat="40.4336933" lon="15.0617567"><ele>262.0</ele><time>2026-04-25T11:04:27.97Z</time></trkpt><trkpt lat="40.4336067" lon="15.0618483"><ele>263.8</ele><time>2026-04-25T11:04:28.985Z</time></trkpt><trkpt lat="40.4335183" lon="15.061945"><ele>265.6</ele><time>2026-04-25T11:04:29.974Z</time></trkpt><trkpt lat="40.4334333" lon="15.0620383"><ele>267.40000000000003</ele><time>2026-04-25T11:04:30.979Z</time></trkpt><trkpt lat="40.4333583" lon="15.0621283"><ele>269.2</ele><time>2026-04-25T11:04:32.037Z</time></trkpt><trkpt lat="40.4332917" lon="15.0622067"><ele>271.0</ele><time>2026-04-25T11:04:32.973Z</time></trkpt><trkpt lat="40.4332233" lon="15.0622733"><ele>271.0</ele><time>2026-04-25T11:04:33.973Z</time></trkpt><trkpt lat="40.43315" lon="15.0623283"><ele>271.0</ele><time>2026-04-25T11:04:34.976Z</time></trkpt><trkpt lat="40.4330783" lon="15.0623683"><ele>271.0</ele><time>2026-04-25T11:04:35.976Z</time></trkpt><trkpt lat="40.433015" lon="15.0624067"><ele>271.0</ele><time>2026-04-25T11:04:36.979Z</time></trkpt><trkpt lat="40.4329083" lon="15.0625067"><ele>271.0</ele><time>2026-04-25T11:04:38.97Z</time></trkpt><trkpt lat="40.43284" lon="15.0625767"><ele>272.3333333333333</ele><time>2026-04-25T11:04:39.973Z</time></trkpt><trkpt lat="40.4327683" lon="15.062645"><ele>273.66666666666663</ele><time>2026-04-25T11:04:40.978Z</time></trkpt><trkpt lat="40.4326883" lon="15.0627133"><ele>275.0</ele><time>2026-04-25T11:04:41.971Z</time></trkpt><trkpt lat="40.4326083" lon="15.0627617"><ele>276.3333333333333</ele><time>2026-04-25T11:04:42.977Z</time></trkpt><trkpt lat="40.432535" lon="15.0628083"><ele>277.6666666666667</ele><time>2026-04-25T11:04:44.032Z</time></trkpt><trkpt lat="40.4324733" lon="15.0628567"><ele>279.0</ele><time>2026-04-25T11:04:44.973Z</time></trkpt><trkpt lat="40.432425" lon="15.0629533"><ele>279.0</ele><time>2026-04-25T11:04:46.978Z</time></trkpt><trkpt lat="40.43243" lon="15.0631"><ele>279.0</ele><time>2026-04-25T11:04:48.978Z</time></trkpt><trkpt lat="40.432425" lon="15.0632017"><ele>279.0</ele><time>2026-04-25T11:04:50.038Z</time></trkpt><trkpt lat="40.4324183" lon="15.0633083"><ele>279.0</ele><time>2026-04-25T11:04:50.974Z</time></trkpt><trkpt lat="40.4324083" lon="15.0634233"><ele>279.0</ele><time>2026-04-25T11:04:51.978Z</time></trkpt><trkpt lat="40.4324017" lon="15.0635383"><ele>279.0</ele><time>2026-04-25T11:04:52.981Z</time></trkpt><trkpt lat="40.4323917" lon="15.063655"><ele>283.0</ele><time>2026-04-25T11:04:53.977Z</time></trkpt><trkpt lat="40.4323817" lon="15.0637683"><ele>287.0</ele><time>2026-04-25T11:04:54.98Z</time></trkpt><trkpt lat="40.4323717" lon="15.063885"><ele>291.0</ele><time>2026-04-25T11:04:56.036Z</time></trkpt><trkpt lat="40.4323617" lon="15.06401"><ele>295.0</ele><time>2026-04-25T11:04:56.975Z</time></trkpt><trkpt lat="40.4323467" lon="15.0641333"><ele>299.0</ele><time>2026-04-25T11:04:57.977Z</time></trkpt><trkpt lat="40.4323217" lon="15.0642467"><ele>299.8</ele><time>2026-04-25T11:04:58.979Z</time></trkpt><trkpt lat="40.4322833" lon="15.0643517"><ele>300.59999999999997</ele><time>2026-04-25T11:04:59.974Z</time></trkpt><trkpt lat="40.4322417" lon="15.06446"><ele>301.4</ele><time>2026-04-25T11:05:00.975Z</time></trkpt><trkpt lat="40.4321867" lon="15.0645667"><ele>302.2</ele><time>2026-04-25T11:05:02.032Z</time></trkpt><trkpt lat="40.432135" lon="15.06467"><ele>303.0</ele><time>2026-04-25T11:05:02.972Z</time></trkpt><trkpt lat="40.43209" lon="15.06476"><ele>303.0</ele><time>2026-04-25T11:05:03.982Z</time></trkpt><trkpt lat="40.4320483" lon="15.0648467"><ele>303.0</ele><time>2026-04-25T11:05:04.983Z</time></trkpt><trkpt lat="40.432025" lon="15.0649383"><ele>303.0</ele><time>2026-04-25T11:05:05.972Z</time></trkpt><trkpt lat="40.4320017" lon="15.0650317"><ele>303.0</ele><time>2026-04-25T11:05:06.979Z</time></trkpt><trkpt lat="40.43198" lon="15.06513"><ele>303.0</ele><time>2026-04-25T11:05:08.038Z</time></trkpt><trkpt lat="40.4319567" lon="15.065245"><ele>303.0</ele><time>2026-04-25T11:05:08.973Z</time></trkpt><trkpt lat="40.4319333" lon="15.065375"><ele>304.6</ele><time>2026-04-25T11:05:09.973Z</time></trkpt><trkpt lat="40.4319083" lon="15.0655083"><ele>306.20000000000005</ele><time>2026-04-25T11:05:10.978Z</time></trkpt><trkpt lat="40.431885" lon="15.0656383"><ele>307.8</ele><time>2026-04-25T11:05:11.975Z</time></trkpt><trkpt lat="40.4318617" lon="15.0657583"><ele>309.40000000000003</ele><time>2026-04-25T11:05:12.979Z</time></trkpt><trkpt lat="40.4318433" lon="15.0658717"><ele>311.0</ele><time>2026-04-25T11:05:14.031Z</time></trkpt><trkpt lat="40.4318233" lon="15.0659783"><ele>312.1666666666667</ele><time>2026-04-25T11:05:14.971Z</time></trkpt><trkpt lat="40.4318117" lon="15.06608"><ele>313.33333333333337</ele><time>2026-04-25T11:05:15.972Z</time></trkpt><trkpt lat="40.4318083" lon="15.0661817"><ele>314.5</ele><time>2026-04-25T11:05:16.976Z</time></trkpt><trkpt lat="40.4318133" lon="15.0662983"><ele>315.6666666666667</ele><time>2026-04-25T11:05:17.979Z</time></trkpt><trkpt lat="40.4318217" lon="15.0664267"><ele>316.8333333333333</ele><time>2026-04-25T11:05:18.981Z</time></trkpt><trkpt lat="40.43182" lon="15.066545"><ele>318.0</ele><time>2026-04-25T11:05:20.032Z</time></trkpt><trkpt lat="40.4318217" lon="15.0666567"><ele>321.2</ele><time>2026-04-25T11:05:20.973Z</time></trkpt><trkpt lat="40.4318167" lon="15.0667733"><ele>324.4</ele><time>2026-04-25T11:05:21.975Z</time></trkpt><trkpt lat="40.4318033" lon="15.0668767"><ele>327.59999999999997</ele><time>2026-04-25T11:05:22.976Z</time></trkpt><trkpt lat="40.4317833" lon="15.0669733"><ele>330.8</ele><time>2026-04-25T11:05:23.98Z</time></trkpt><trkpt lat="40.43177" lon="15.0671067"><ele>334.0</ele><time>2026-04-25T11:05:24.971Z</time></trkpt><trkpt lat="40.4317583" lon="15.06725"><ele>334.0</ele><time>2026-04-25T11:05:26.034Z</time></trkpt><trkpt lat="40.4317433" lon="15.0673867"><ele>334.0</ele><time>2026-04-25T11:05:26.975Z</time></trkpt><trkpt lat="40.4317267" lon="15.06752"><ele>334.0</ele><time>2026-04-25T11:05:27.969Z</time></trkpt><trkpt lat="40.4317133" lon="15.0676317"><ele>334.0</ele><time>2026-04-25T11:05:28.982Z</time></trkpt><trkpt lat="40.43169" lon="15.067745"><ele>334.0</ele><time>2026-04-25T11:05:29.978Z</time></trkpt><trkpt lat="40.4316583" lon="15.06786"><ele>337.2</ele><time>2026-04-25T11:05:30.98Z</time></trkpt><trkpt lat="40.4316267" lon="15.0679583"><ele>340.4</ele><time>2026-04-25T11:05:32.035Z</time></trkpt><trkpt lat="40.4315933" lon="15.0680367"><ele>343.6</ele><time>2026-04-25T11:05:32.978Z</time></trkpt><trkpt lat="40.4315283" lon="15.06817"><ele>346.8</ele><time>2026-04-25T11:05:34.982Z</time></trkpt><trkpt lat="40.43146" lon="15.0683067"><ele>350.0</ele><time>2026-04-25T11:05:36.98Z</time></trkpt><trkpt lat="40.4314383" lon="15.068385"><ele>348.33333333333337</ele><time>2026-04-25T11:05:38.034Z</time></trkpt><trkpt lat="40.4314217" lon="15.0684667"><ele>346.6666666666667</ele><time>2026-04-25T11:05:38.967Z</time></trkpt><trkpt lat="40.4314" lon="15.068625"><ele>345.0</ele><time>2026-04-25T11:05:40.978Z</time></trkpt><trkpt lat="40.43138" lon="15.068725"><ele>343.3333333333333</ele><time>2026-04-25T11:05:41.972Z</time></trkpt><trkpt lat="40.4313567" lon="15.068835"><ele>341.66666666666663</ele><time>2026-04-25T11:05:42.981Z</time></trkpt><trkpt lat="40.43133" lon="15.0689533"><ele>340.0</ele><time>2026-04-25T11:05:44.032Z</time></trkpt><trkpt lat="40.4313033" lon="15.0690717"><ele>342.6</ele><time>2026-04-25T11:05:44.976Z</time></trkpt><trkpt lat="40.4312817" lon="15.0691933"><ele>345.2</ele><time>2026-04-25T11:05:45.969Z</time></trkpt><trkpt lat="40.43126" lon="15.0693117"><ele>347.79999999999995</ele><time>2026-04-25T11:05:46.973Z</time></trkpt><trkpt lat="40.43124" lon="15.069425"><ele>350.4</ele><time>2026-04-25T11:05:47.969Z</time></trkpt><trkpt lat="40.431225" lon="15.0695433"><ele>353.0</ele><time>2026-04-25T11:05:48.979Z</time></trkpt><trkpt lat="40.4312117" lon="15.0696617"><ele>353.0</ele><time>2026-04-25T11:05:50.034Z</time></trkpt><trkpt lat="40.4311933" lon="15.0697667"><ele>353.0</ele><time>2026-04-25T11:05:50.971Z</time></trkpt><trkpt lat="40.4311683" lon="15.0698567"><ele>353.0</ele><time>2026-04-25T11:05:51.97Z</time></trkpt><trkpt lat="40.4311367" lon="15.0699567"><ele>353.0</ele><time>2026-04-25T11:05:52.977Z</time></trkpt><trkpt lat="40.4310983" lon="15.0700617"><ele>353.0</ele><time>2026-04-25T11:05:53.973Z</time></trkpt><trkpt lat="40.4310583" lon="15.07016"><ele>353.0</ele><time>2026-04-25T11:05:54.978Z</time></trkpt><trkpt lat="40.4310133" lon="15.0702567"><ele>355.4</ele><time>2026-04-25T11:05:56.029Z</time></trkpt><trkpt lat="40.4309683" lon="15.0703433"><ele>357.79999999999995</ele><time>2026-04-25T11:05:56.971Z</time></trkpt><trkpt lat="40.4309183" lon="15.0704317"><ele>360.2</ele><time>2026-04-25T11:05:57.968Z</time></trkpt><trkpt lat="40.43086" lon="15.07052"><ele>362.6</ele><time>2026-04-25T11:05:58.974Z</time></trkpt><trkpt lat="40.4307917" lon="15.0706183"><ele>365.0</ele><time>2026-04-25T11:05:59.968Z</time></trkpt><trkpt lat="40.43072" lon="15.0707317"><ele>366.0</ele><time>2026-04-25T11:06:00.978Z</time></trkpt><trkpt lat="40.4306517" lon="15.0708483"><ele>367.0</ele><time>2026-04-25T11:06:02.033Z</time></trkpt><trkpt lat="40.430585" lon="15.0709667"><ele>368.0</ele><time>2026-04-25T11:06:02.978Z</time></trkpt><trkpt lat="40.430535" lon="15.071075"><ele>369.0</ele><time>2026-04-25T11:06:03.978Z</time></trkpt><trkpt lat="40.4304883" lon="15.0711717"><ele>370.0</ele><time>2026-04-25T11:06:04.981Z</time></trkpt><trkpt lat="40.43044" lon="15.0712517"><ele>370.0</ele><time>2026-04-25T11:06:05.969Z</time></trkpt><trkpt lat="40.43039" lon="15.071305"><ele>370.0</ele><time>2026-04-25T11:06:06.978Z</time></trkpt><trkpt lat="40.4303217" lon="15.0713633"><ele>370.0</ele><time>2026-04-25T11:06:08.041Z</time></trkpt><trkpt lat="40.4302417" lon="15.07142"><ele>370.0</ele><time>2026-04-25T11:06:08.972Z</time></trkpt><trkpt lat="40.4301633" lon="15.0714733"><ele>370.0</ele><time>2026-04-25T11:06:09.971Z</time></trkpt><trkpt lat="40.430095" lon="15.07153"><ele>370.0</ele><time>2026-04-25T11:06:10.977Z</time></trkpt><trkpt lat="40.4300367" lon="15.0716017"><ele>372.75</ele><time>2026-04-25T11:06:11.98Z</time></trkpt><trkpt lat="40.42998" lon="15.071695"><ele>375.5</ele><time>2026-04-25T11:06:12.973Z</time></trkpt><trkpt lat="40.4299267" lon="15.0718133"><ele>378.25</ele><time>2026-04-25T11:06:14.032Z</time></trkpt><trkpt lat="40.42987" lon="15.071955"><ele>381.0</ele><time>2026-04-25T11:06:14.971Z</time></trkpt><trkpt lat="40.4298117" lon="15.0721233"><ele>381.0</ele><time>2026-04-25T11:06:15.975Z</time></trkpt><trkpt lat="40.4297567" lon="15.072285"><ele>381.0</ele><time>2026-04-25T11:06:16.976Z</time></trkpt><trkpt lat="40.4296967" lon="15.072445"><ele>381.0</ele><time>2026-04-25T11:06:17.975Z</time></trkpt><trkpt lat="40.4296383" lon="15.0726133"><ele>381.0</ele><time>2026-04-25T11:06:18.981Z</time></trkpt><trkpt lat="40.4295833" lon="15.0727767"><ele>380.20000000000005</ele><time>2026-04-25T11:06:20.03Z</time></trkpt><trkpt lat="40.4295333" lon="15.07292"><ele>379.40000000000003</ele><time>2026-04-25T11:06:20.973Z</time></trkpt><trkpt lat="40.42949" lon="15.07304"><ele>378.6</ele><time>2026-04-25T11:06:21.977Z</time></trkpt><trkpt lat="40.4294317" lon="15.07313"><ele>377.8</ele><time>2026-04-25T11:06:23.976Z</time></trkpt><trkpt lat="40.429345" lon="15.07312"><ele>377.0</ele><time>2026-04-25T11:06:26.035Z</time></trkpt><trkpt lat="40.42928" lon="15.0730667"><ele>377.0</ele><time>2026-04-25T11:06:26.971Z</time></trkpt><trkpt lat="40.4291867" lon="15.072985"><ele>377.0</ele><time>2026-04-25T11:06:27.975Z</time></trkpt><trkpt lat="40.4290683" lon="15.07289"><ele>377.0</ele><time>2026-04-25T11:06:28.977Z</time></trkpt><trkpt lat="40.4289383" lon="15.0728083"><ele>377.0</ele><time>2026-04-25T11:06:29.975Z</time></trkpt><trkpt lat="40.42881" lon="15.0727417"><ele>374.25</ele><time>2026-04-25T11:06:30.979Z</time></trkpt><trkpt lat="40.4286783" lon="15.0727033"><ele>371.5</ele><time>2026-04-25T11:06:32.034Z</time></trkpt><trkpt lat="40.42855" lon="15.0726917"><ele>368.75</ele><time>2026-04-25T11:06:32.976Z</time></trkpt><trkpt lat="40.4284267" lon="15.0727033"><ele>366.0</ele><time>2026-04-25T11:06:33.976Z</time></trkpt><trkpt lat="40.4283017" lon="15.0727433"><ele>366.0</ele><time>2026-04-25T11:06:34.979Z</time></trkpt><trkpt lat="40.4281817" lon="15.0728"><ele>366.0</ele><time>2026-04-25T11:06:35.969Z</time></trkpt><trkpt lat="40.42807" lon="15.0728567"><ele>366.0</ele><time>2026-04-25T11:06:36.971Z</time></trkpt><trkpt lat="40.4279683" lon="15.0729117"><ele>366.0</ele><time>2026-04-25T11:06:38.036Z</time></trkpt><trkpt lat="40.4278783" lon="15.0729567"><ele>365.6666666666667</ele><time>2026-04-25T11:06:38.974Z</time></trkpt><trkpt lat="40.4278167" lon="15.072975"><ele>365.3333333333333</ele><time>2026-04-25T11:06:40.978Z</time></trkpt><trkpt lat="40.4277533" lon="15.0730317"><ele>365.0</ele><time>2026-04-25T11:06:44.032Z</time></trkpt><trkpt lat="40.4277433" lon="15.0731483"><ele>364.66666666666663</ele><time>2026-04-25T11:06:45.974Z</time></trkpt><trkpt lat="40.4277333" lon="15.0732383"><ele>364.3333333333333</ele><time>2026-04-25T11:06:46.969Z</time></trkpt><trkpt lat="40.4277217" lon="15.0733783"><ele>364.0</ele><time>2026-04-25T11:06:47.973Z</time></trkpt><trkpt lat="40.4276933" lon="15.0735317"><ele>364.0</ele><time>2026-04-25T11:06:48.978Z</time></trkpt><trkpt lat="40.4276483" lon="15.073695"><ele>364.0</ele><time>2026-04-25T11:06:50.032Z</time></trkpt><trkpt lat="40.4275817" lon="15.0738617"><ele>364.0</ele><time>2026-04-25T11:06:50.972Z</time></trkpt><trkpt lat="40.4275" lon="15.0740217"><ele>364.0</ele><time>2026-04-25T11:06:51.967Z</time></trkpt><trkpt lat="40.427395" lon="15.0741767"><ele>365.0</ele><time>2026-04-25T11:06:52.975Z</time></trkpt><trkpt lat="40.42726" lon="15.07431"><ele>366.0</ele><time>2026-04-25T11:06:53.975Z</time></trkpt><trkpt lat="40.4271117" lon="15.0744317"><ele>367.0</ele><time>2026-04-25T11:06:54.984Z</time></trkpt><trkpt lat="40.4269767" lon="15.074545"><ele>367.0</ele><time>2026-04-25T11:06:56.037Z</time></trkpt><trkpt lat="40.426855" lon="15.0746583"><ele>367.0</ele><time>2026-04-25T11:06:56.976Z</time></trkpt><trkpt lat="40.4267567" lon="15.0747867"><ele>367.0</ele><time>2026-04-25T11:06:57.973Z</time></trkpt><trkpt lat="40.4267" lon="15.0749617"><ele>367.0</ele><time>2026-04-25T11:06:58.976Z</time></trkpt><trkpt lat="40.42666" lon="15.075165"><ele>369.66666666666663</ele><time>2026-04-25T11:06:59.975Z</time></trkpt><trkpt lat="40.426615" lon="15.075375"><ele>372.3333333333333</ele><time>2026-04-25T11:07:00.981Z</time></trkpt><trkpt lat="40.4265667" lon="15.075585"><ele>375.0</ele><time>2026-04-25T11:07:02.035Z</time></trkpt><trkpt lat="40.426515" lon="15.075785"><ele>375.25</ele><time>2026-04-25T11:07:02.971Z</time></trkpt><trkpt lat="40.4264567" lon="15.0759617"><ele>375.5</ele><time>2026-04-25T11:07:03.975Z</time></trkpt><trkpt lat="40.4263883" lon="15.0761033"><ele>375.75</ele><time>2026-04-25T11:07:04.981Z</time></trkpt><trkpt lat="40.4263083" lon="15.0761933"><ele>376.0</ele><time>2026-04-25T11:07:05.978Z</time></trkpt><trkpt lat="40.426215" lon="15.0762783"><ele>376.0</ele><time>2026-04-25T11:07:06.979Z</time></trkpt><trkpt lat="40.426105" lon="15.07636"><ele>376.0</ele><time>2026-04-25T11:07:08.033Z</time></trkpt><trkpt lat="40.425985" lon="15.076445"><ele>376.0</ele><time>2026-04-25T11:07:08.975Z</time></trkpt><trkpt lat="40.42585" lon="15.0765283"><ele>376.0</ele><time>2026-04-25T11:07:09.979Z</time></trkpt><trkpt lat="40.4257" lon="15.0766233"><ele>377.0</ele><time>2026-04-25T11:07:10.98Z</time></trkpt><trkpt lat="40.425545" lon="15.0767283"><ele>378.0</ele><time>2026-04-25T11:07:11.974Z</time></trkpt><trkpt lat="40.4253867" lon="15.0768267"><ele>379.0</ele><time>2026-04-25T11:07:12.979Z</time></trkpt><trkpt lat="40.4252383" lon="15.07693"><ele>379.0</ele><time>2026-04-25T11:07:14.035Z</time></trkpt><trkpt lat="40.425105" lon="15.07703"><ele>379.0</ele><time>2026-04-25T11:07:14.974Z</time></trkpt><trkpt lat="40.4249817" lon="15.0771283"><ele>379.0</ele><time>2026-04-25T11:07:15.975Z</time></trkpt><trkpt lat="40.42486" lon="15.077225"><ele>379.0</ele><time>2026-04-25T11:07:16.981Z</time></trkpt><trkpt lat="40.424755" lon="15.077325"><ele>379.0</ele><time>2026-04-25T11:07:17.973Z</time></trkpt><trkpt lat="40.42466" lon="15.0774233"><ele>379.0</ele><time>2026-04-25T11:07:18.982Z</time></trkpt><trkpt lat="40.4245883" lon="15.0775233"><ele>379.0</ele><time>2026-04-25T11:07:20.035Z</time></trkpt><trkpt lat="40.4245583" lon="15.0776383"><ele>379.0</ele><time>2026-04-25T11:07:20.974Z</time></trkpt><trkpt lat="40.4245283" lon="15.07774"><ele>379.0</ele><time>2026-04-25T11:07:21.976Z</time></trkpt><trkpt lat="40.4244867" lon="15.07784"><ele>378.75</ele><time>2026-04-25T11:07:22.985Z</time></trkpt><trkpt lat="40.4244133" lon="15.077925"><ele>378.5</ele><time>2026-04-25T11:07:23.975Z</time></trkpt><trkpt lat="40.42432" lon="15.0779917"><ele>378.25</ele><time>2026-04-25T11:07:24.977Z</time></trkpt><trkpt lat="40.4241583" lon="15.078045"><ele>378.0</ele><time>2026-04-25T11:07:26.029Z</time></trkpt><trkpt lat="40.42401" lon="15.0781183"><ele>378.0</ele><time>2026-04-25T11:07:26.971Z</time></trkpt><trkpt lat="40.423865" lon="15.0781867"><ele>378.0</ele><time>2026-04-25T11:07:27.972Z</time></trkpt><trkpt lat="40.4237267" lon="15.0782567"><ele>378.0</ele><time>2026-04-25T11:07:28.979Z</time></trkpt><trkpt lat="40.4236017" lon="15.0783183"><ele>378.0</ele><time>2026-04-25T11:07:29.975Z</time></trkpt><trkpt lat="40.423485" lon="15.0783717"><ele>377.6666666666667</ele><time>2026-04-25T11:07:30.98Z</time></trkpt><trkpt lat="40.4233867" lon="15.0783983"><ele>377.3333333333333</ele><time>2026-04-25T11:07:32.035Z</time></trkpt><trkpt lat="40.4233067" lon="15.0784067"><ele>377.0</ele><time>2026-04-25T11:07:32.973Z</time></trkpt><trkpt lat="40.4232433" lon="15.078375"><ele>376.66666666666663</ele><time>2026-04-25T11:07:33.971Z</time></trkpt><trkpt lat="40.4231767" lon="15.0783183"><ele>376.3333333333333</ele><time>2026-04-25T11:07:34.978Z</time></trkpt><trkpt lat="40.4231283" lon="15.07818"><ele>376.0</ele><time>2026-04-25T11:07:35.98Z</time></trkpt><trkpt lat="40.42308" lon="15.07802"><ele>374.25</ele><time>2026-04-25T11:07:36.977Z</time></trkpt><trkpt lat="40.423035" lon="15.0778417"><ele>372.5</ele><time>2026-04-25T11:07:38.036Z</time></trkpt><trkpt lat="40.4229917" lon="15.0776617"><ele>370.75</ele><time>2026-04-25T11:07:38.974Z</time></trkpt><trkpt lat="40.4229483" lon="15.0774833"><ele>369.0</ele><time>2026-04-25T11:07:39.977Z</time></trkpt><trkpt lat="40.4228967" lon="15.0773183"><ele>365.79999999999995</ele><time>2026-04-25T11:07:40.985Z</time></trkpt><trkpt lat="40.4228367" lon="15.0771667"><ele>362.59999999999997</ele><time>2026-04-25T11:07:41.974Z</time></trkpt><trkpt lat="40.4227733" lon="15.0770333"><ele>359.4</ele><time>2026-04-25T11:07:42.979Z</time></trkpt><trkpt lat="40.42271" lon="15.0769633"><ele>356.2</ele><time>2026-04-25T11:07:44.037Z</time></trkpt><trkpt lat="40.4226317" lon="15.0768733"><ele>353.0</ele><time>2026-04-25T11:07:44.981Z</time></trkpt><trkpt lat="40.4225617" lon="15.0768"><ele>353.0</ele><time>2026-04-25T11:07:45.968Z</time></trkpt><trkpt lat="40.422505" lon="15.0767433"><ele>353.0</ele><time>2026-04-25T11:07:46.983Z</time></trkpt><trkpt lat="40.4224217" lon="15.0766167"><ele>353.0</ele><time>2026-04-25T11:07:48.98Z</time></trkpt><trkpt lat="40.422385" lon="15.0765167"><ele>353.0</ele><time>2026-04-25T11:07:50.032Z</time></trkpt><trkpt lat="40.42234" lon="15.0763883"><ele>353.0</ele><time>2026-04-25T11:07:50.973Z</time></trkpt><trkpt lat="40.42228" lon="15.0761917"><ele>350.0</ele><time>2026-04-25T11:07:51.973Z</time></trkpt><trkpt lat="40.42222" lon="15.0759867"><ele>347.0</ele><time>2026-04-25T11:07:52.969Z</time></trkpt><trkpt lat="40.422155" lon="15.075765"><ele>344.0</ele><time>2026-04-25T11:07:53.969Z</time></trkpt><trkpt lat="40.4220983" lon="15.0755283"><ele>338.0</ele><time>2026-04-25T11:07:54.978Z</time></trkpt><trkpt lat="40.4220417" lon="15.0752917"><ele>332.0</ele><time>2026-04-25T11:07:56.037Z</time></trkpt><trkpt lat="40.4219867" lon="15.0750733"><ele>326.0</ele><time>2026-04-25T11:07:56.975Z</time></trkpt><trkpt lat="40.42193" lon="15.0748917"><ele>324.5</ele><time>2026-04-25T11:07:57.971Z</time></trkpt><trkpt lat="40.4218717" lon="15.0747667"><ele>323.0</ele><time>2026-04-25T11:07:58.975Z</time></trkpt><trkpt lat="40.4218033" lon="15.0746567"><ele>321.5</ele><time>2026-04-25T11:07:59.967Z</time></trkpt><trkpt lat="40.4217233" lon="15.0745517"><ele>320.0</ele><time>2026-04-25T11:08:00.98Z</time></trkpt><trkpt lat="40.4216167" lon="15.0744383"><ele>320.0</ele><time>2026-04-25T11:08:02.028Z</time></trkpt><trkpt lat="40.4214833" lon="15.0743183"><ele>320.0</ele><time>2026-04-25T11:08:02.971Z</time></trkpt><trkpt lat="40.4213383" lon="15.0741867"><ele>320.0</ele><time>2026-04-25T11:08:03.969Z</time></trkpt><trkpt lat="40.4211867" lon="15.07406"><ele>315.0</ele><time>2026-04-25T11:08:04.967Z</time></trkpt><trkpt lat="40.4210483" lon="15.0739333"><ele>310.0</ele><time>2026-04-25T11:08:05.977Z</time></trkpt><trkpt lat="40.42094" lon="15.0737917"><ele>305.0</ele><time>2026-04-25T11:08:06.973Z</time></trkpt><trkpt lat="40.420845" lon="15.0736317"><ele>305.0</ele><time>2026-04-25T11:08:08.034Z</time></trkpt><trkpt lat="40.420755" lon="15.07344"><ele>305.0</ele><time>2026-04-25T11:08:08.973Z</time></trkpt><trkpt lat="40.4206667" lon="15.0732183"><ele>305.0</ele><time>2026-04-25T11:08:09.97Z</time></trkpt><trkpt lat="40.4205683" lon="15.0729917"><ele>300.33333333333337</ele><time>2026-04-25T11:08:10.976Z</time></trkpt><trkpt lat="40.4204767" lon="15.0727717"><ele>295.6666666666667</ele><time>2026-04-25T11:08:11.975Z</time></trkpt><trkpt lat="40.4203933" lon="15.0725833"><ele>291.0</ele><time>2026-04-25T11:08:12.982Z</time></trkpt><trkpt lat="40.4203367" lon="15.0724483"><ele>289.8</ele><time>2026-04-25T11:08:14.035Z</time></trkpt><trkpt lat="40.4202833" lon="15.0723433"><ele>288.6</ele><time>2026-04-25T11:08:14.973Z</time></trkpt><trkpt lat="40.4202233" lon="15.0723067"><ele>287.4</ele><time>2026-04-25T11:08:15.977Z</time></trkpt><trkpt lat="40.4201433" lon="15.0722967"><ele>286.2</ele><time>2026-04-25T11:08:16.98Z</time></trkpt><trkpt lat="40.4200283" lon="15.0723333"><ele>285.0</ele><time>2026-04-25T11:08:17.969Z</time></trkpt><trkpt lat="40.4199067" lon="15.072385"><ele>285.0</ele><time>2026-04-25T11:08:18.976Z</time></trkpt><trkpt lat="40.41978" lon="15.0724383"><ele>285.0</ele><time>2026-04-25T11:08:20.034Z</time></trkpt><trkpt lat="40.4196667" lon="15.0724767"><ele>285.0</ele><time>2026-04-25T11:08:20.97Z</time></trkpt><trkpt lat="40.4195633" lon="15.0724933"><ele>285.0</ele><time>2026-04-25T11:08:21.974Z</time></trkpt><trkpt lat="40.4194717" lon="15.0724783"><ele>285.0</ele><time>2026-04-25T11:08:22.975Z</time></trkpt><trkpt lat="40.4194183" lon="15.0723917"><ele>281.0</ele><time>2026-04-25T11:08:23.974Z</time></trkpt><trkpt lat="40.4193633" lon="15.07229"><ele>277.0</ele><time>2026-04-25T11:08:24.977Z</time></trkpt><trkpt lat="40.419325" lon="15.072115"><ele>273.0</ele><time>2026-04-25T11:08:26.009Z</time></trkpt><trkpt lat="40.4192883" lon="15.0719317"><ele>269.0</ele><time>2026-04-25T11:08:26.969Z</time></trkpt><trkpt lat="40.4192617" lon="15.0716983"><ele>267.0</ele><time>2026-04-25T11:08:27.973Z</time></trkpt><trkpt lat="40.4192283" lon="15.0714583"><ele>265.0</ele><time>2026-04-25T11:08:28.975Z</time></trkpt><trkpt lat="40.4191967" lon="15.0712117"><ele>263.0</ele><time>2026-04-25T11:08:29.974Z</time></trkpt><trkpt lat="40.4191733" lon="15.07097"><ele>261.33333333333337</ele><time>2026-04-25T11:08:30.974Z</time></trkpt><trkpt lat="40.419155" lon="15.0707333"><ele>259.6666666666667</ele><time>2026-04-25T11:08:32.031Z</time></trkpt><trkpt lat="40.41915" lon="15.070495"><ele>258.0</ele><time>2026-04-25T11:08:32.974Z</time></trkpt><trkpt lat="40.4191433" lon="15.07026"><ele>258.0</ele><time>2026-04-25T11:08:33.97Z</time></trkpt><trkpt lat="40.4191383" lon="15.07003"><ele>258.0</ele><time>2026-04-25T11:08:34.973Z</time></trkpt><trkpt lat="40.4191283" lon="15.06981"><ele>258.0</ele><time>2026-04-25T11:08:35.983Z</time></trkpt><trkpt lat="40.41911" lon="15.0696017"><ele>256.75</ele><time>2026-04-25T11:08:36.97Z</time></trkpt><trkpt lat="40.4190867" lon="15.06941"><ele>255.5</ele><time>2026-04-25T11:08:38.036Z</time></trkpt><trkpt lat="40.4190617" lon="15.069235"><ele>254.25</ele><time>2026-04-25T11:08:38.969Z</time></trkpt><trkpt lat="40.4190433" lon="15.069065"><ele>253.0</ele><time>2026-04-25T11:08:39.971Z</time></trkpt><trkpt lat="40.4190317" lon="15.0688983"><ele>251.75</ele><time>2026-04-25T11:08:40.976Z</time></trkpt><trkpt lat="40.4190267" lon="15.06873"><ele>250.5</ele><time>2026-04-25T11:08:41.975Z</time></trkpt><trkpt lat="40.4190267" lon="15.068565"><ele>249.25</ele><time>2026-04-25T11:08:42.977Z</time></trkpt><trkpt lat="40.419025" lon="15.0684"><ele>248.0</ele><time>2026-04-25T11:08:44.041Z</time></trkpt><trkpt lat="40.419015" lon="15.068235"><ele>246.5</ele><time>2026-04-25T11:08:44.97Z</time></trkpt><trkpt lat="40.4189917" lon="15.0680633"><ele>245.0</ele><time>2026-04-25T11:08:45.973Z</time></trkpt><trkpt lat="40.4189583" lon="15.0678833"><ele>243.5</ele><time>2026-04-25T11:08:46.972Z</time></trkpt><trkpt lat="40.418925" lon="15.0676967"><ele>242.0</ele><time>2026-04-25T11:08:47.983Z</time></trkpt><trkpt lat="40.4188917" lon="15.067525"><ele>240.25</ele><time>2026-04-25T11:08:48.985Z</time></trkpt><trkpt lat="40.4188633" lon="15.0673667"><ele>238.5</ele><time>2026-04-25T11:08:50.026Z</time></trkpt><trkpt lat="40.418835" lon="15.0672183"><ele>236.75</ele><time>2026-04-25T11:08:50.969Z</time></trkpt><trkpt lat="40.418815" lon="15.06708"><ele>235.0</ele><time>2026-04-25T11:08:51.976Z</time></trkpt><trkpt lat="40.418805" lon="15.0669417"><ele>233.75</ele><time>2026-04-25T11:08:52.976Z</time></trkpt><trkpt lat="40.4187933" lon="15.0667917"><ele>232.5</ele><time>2026-04-25T11:08:53.982Z</time></trkpt><trkpt lat="40.418775" lon="15.06663"><ele>231.25</ele><time>2026-04-25T11:08:54.977Z</time></trkpt><trkpt lat="40.4187583" lon="15.0664433"><ele>230.0</ele><time>2026-04-25T11:08:56.032Z</time></trkpt><trkpt lat="40.4187417" lon="15.06623"><ele>227.66666666666669</ele><time>2026-04-25T11:08:56.971Z</time></trkpt><trkpt lat="40.41873" lon="15.0659983"><ele>225.33333333333331</ele><time>2026-04-25T11:08:57.976Z</time></trkpt><trkpt lat="40.4187283" lon="15.0657467"><ele>223.0</ele><time>2026-04-25T11:08:58.973Z</time></trkpt><trkpt lat="40.4187233" lon="15.0655033"><ele>220.0</ele><time>2026-04-25T11:08:59.969Z</time></trkpt><trkpt lat="40.4187167" lon="15.065275"><ele>217.0</ele><time>2026-04-25T11:09:00.978Z</time></trkpt><trkpt lat="40.4187" lon="15.0650683"><ele>214.0</ele><time>2026-04-25T11:09:02.035Z</time></trkpt><trkpt lat="40.41867" lon="15.0648717"><ele>211.33333333333331</ele><time>2026-04-25T11:09:02.973Z</time></trkpt><trkpt lat="40.4186317" lon="15.0646767"><ele>208.66666666666669</ele><time>2026-04-25T11:09:03.968Z</time></trkpt><trkpt lat="40.4185617" lon="15.0644883"><ele>206.0</ele><time>2026-04-25T11:09:04.979Z</time></trkpt><trkpt lat="40.41847" lon="15.0643"><ele>203.0</ele><time>2026-04-25T11:09:05.968Z</time></trkpt><trkpt lat="40.4183683" lon="15.06411"><ele>200.0</ele><time>2026-04-25T11:09:06.977Z</time></trkpt><trkpt lat="40.4182633" lon="15.0639233"><ele>197.0</ele><time>2026-04-25T11:09:08.031Z</time></trkpt><trkpt lat="40.4181567" lon="15.0637467"><ele>197.0</ele><time>2026-04-25T11:09:08.973Z</time></trkpt><trkpt lat="40.4180567" lon="15.063585"><ele>197.0</ele><time>2026-04-25T11:09:09.973Z</time></trkpt><trkpt lat="40.4179483" lon="15.0634417"><ele>197.0</ele><time>2026-04-25T11:09:10.979Z</time></trkpt><trkpt lat="40.4178267" lon="15.0633167"><ele>195.66666666666669</ele><time>2026-04-25T11:09:11.969Z</time></trkpt><trkpt lat="40.4176833" lon="15.0632167"><ele>194.33333333333331</ele><time>2026-04-25T11:09:12.98Z</time></trkpt><trkpt lat="40.4175217" lon="15.06312"><ele>193.0</ele><time>2026-04-25T11:09:14.039Z</time></trkpt><trkpt lat="40.4173383" lon="15.0630183"><ele>191.0</ele><time>2026-04-25T11:09:14.971Z</time></trkpt><trkpt lat="40.417145" lon="15.0629067"><ele>189.0</ele><time>2026-04-25T11:09:15.987Z</time></trkpt><trkpt lat="40.4169433" lon="15.0627967"><ele>187.0</ele><time>2026-04-25T11:09:16.978Z</time></trkpt><trkpt lat="40.4167417" lon="15.0626783"><ele>187.0</ele><time>2026-04-25T11:09:17.976Z</time></trkpt><trkpt lat="40.4165417" lon="15.0625633"><ele>187.0</ele><time>2026-04-25T11:09:18.978Z</time></trkpt><trkpt lat="40.416345" lon="15.0624517"><ele>187.0</ele><time>2026-04-25T11:09:20.038Z</time></trkpt><trkpt lat="40.4161583" lon="15.062335"><ele>185.0</ele><time>2026-04-25T11:09:20.977Z</time></trkpt><trkpt lat="40.4159683" lon="15.06222"><ele>183.0</ele><time>2026-04-25T11:09:21.974Z</time></trkpt><trkpt lat="40.41578" lon="15.0621067"><ele>181.0</ele><time>2026-04-25T11:09:22.974Z</time></trkpt><trkpt lat="40.415595" lon="15.0619983"><ele>179.33333333333334</ele><time>2026-04-25T11:09:23.975Z</time></trkpt><trkpt lat="40.4154233" lon="15.0618933"><ele>177.66666666666666</ele><time>2026-04-25T11:09:24.976Z</time></trkpt><trkpt lat="40.4152583" lon="15.0617917"><ele>176.0</ele><time>2026-04-25T11:09:26.034Z</time></trkpt><trkpt lat="40.4150967" lon="15.0616917"><ele>175.0</ele><time>2026-04-25T11:09:26.974Z</time></trkpt><trkpt lat="40.41494" lon="15.0615917"><ele>174.0</ele><time>2026-04-25T11:09:27.972Z</time></trkpt><trkpt lat="40.4147883" lon="15.0614933"><ele>173.0</ele><time>2026-04-25T11:09:28.976Z</time></trkpt><trkpt lat="40.4146467" lon="15.06139"><ele>171.75</ele><time>2026-04-25T11:09:29.975Z</time></trkpt><trkpt lat="40.4145167" lon="15.061285"><ele>170.5</ele><time>2026-04-25T11:09:30.976Z</time></trkpt><trkpt lat="40.4144017" lon="15.06117"><ele>169.25</ele><time>2026-04-25T11:09:32.038Z</time></trkpt><trkpt lat="40.4143017" lon="15.0610333"><ele>168.0</ele><time>2026-04-25T11:09:32.972Z</time></trkpt><trkpt lat="40.4142167" lon="15.06087"><ele>166.33333333333334</ele><time>2026-04-25T11:09:33.97Z</time></trkpt><trkpt lat="40.41414" lon="15.06068"><ele>164.66666666666669</ele><time>2026-04-25T11:09:34.977Z</time></trkpt><trkpt lat="40.4140717" lon="15.0604683"><ele>163.0</ele><time>2026-04-25T11:09:35.973Z</time></trkpt><trkpt lat="40.41401" lon="15.0602267"><ele>163.0</ele><time>2026-04-25T11:09:36.975Z</time></trkpt><trkpt lat="40.4139483" lon="15.05998"><ele>163.0</ele><time>2026-04-25T11:09:38.031Z</time></trkpt><trkpt lat="40.4138933" lon="15.0597433"><ele>163.0</ele><time>2026-04-25T11:09:38.977Z</time></trkpt><trkpt lat="40.4138433" lon="15.0595317"><ele>161.6</ele><time>2026-04-25T11:09:39.972Z</time></trkpt><trkpt lat="40.4137983" lon="15.0593433"><ele>160.20000000000002</ele><time>2026-04-25T11:09:40.975Z</time></trkpt><trkpt lat="40.41376" lon="15.059185"><ele>158.8</ele><time>2026-04-25T11:09:41.978Z</time></trkpt><trkpt lat="40.41374" lon="15.059075"><ele>157.4</ele><time>2026-04-25T11:09:42.978Z</time></trkpt><trkpt lat="40.4137267" lon="15.0589883"><ele>156.0</ele><time>2026-04-25T11:09:44.04Z</time></trkpt><trkpt lat="40.41372" lon="15.0588767"><ele>155.4</ele><time>2026-04-25T11:09:45.971Z</time></trkpt><trkpt lat="40.4136683" lon="15.0587983"><ele>154.8</ele><time>2026-04-25T11:09:48.979Z</time></trkpt><trkpt lat="40.4135917" lon="15.0586967"><ele>154.20000000000002</ele><time>2026-04-25T11:09:50.972Z</time></trkpt><trkpt lat="40.41354" lon="15.0586133"><ele>153.6</ele><time>2026-04-25T11:09:51.971Z</time></trkpt><trkpt lat="40.4134817" lon="15.0585167"><ele>153.0</ele><time>2026-04-25T11:09:52.979Z</time></trkpt><trkpt lat="40.4134217" lon="15.058415"><ele>153.0</ele><time>2026-04-25T11:09:53.972Z</time></trkpt><trkpt lat="40.4133617" lon="15.05832"><ele>153.0</ele><time>2026-04-25T11:09:54.975Z</time></trkpt><trkpt lat="40.413305" lon="15.058225"><ele>153.0</ele><time>2026-04-25T11:09:56.034Z</time></trkpt><trkpt lat="40.4132467" lon="15.058135"><ele>153.0</ele><time>2026-04-25T11:09:56.97Z</time></trkpt><trkpt lat="40.4131917" lon="15.0580433"><ele>153.0</ele><time>2026-04-25T11:09:57.972Z</time></trkpt><trkpt lat="40.4131383" lon="15.0579533"><ele>151.20000000000002</ele><time>2026-04-25T11:09:58.969Z</time></trkpt><trkpt lat="40.4130867" lon="15.0578633"><ele>149.4</ele><time>2026-04-25T11:09:59.968Z</time></trkpt><trkpt lat="40.4130317" lon="15.0577617"><ele>147.60000000000002</ele><time>2026-04-25T11:10:00.974Z</time></trkpt><trkpt lat="40.4129683" lon="15.0576533"><ele>145.8</ele><time>2026-04-25T11:10:02.038Z</time></trkpt><trkpt lat="40.4129" lon="15.0575567"><ele>144.0</ele><time>2026-04-25T11:10:02.969Z</time></trkpt><trkpt lat="40.4128283" lon="15.0574717"><ele>143.0</ele><time>2026-04-25T11:10:03.97Z</time></trkpt><trkpt lat="40.41275" lon="15.0573933"><ele>142.0</ele><time>2026-04-25T11:10:04.97Z</time></trkpt><trkpt lat="40.4126667" lon="15.0573183"><ele>141.0</ele><time>2026-04-25T11:10:05.976Z</time></trkpt><trkpt lat="40.41259" lon="15.05725"><ele>140.0</ele><time>2026-04-25T11:10:06.976Z</time></trkpt><trkpt lat="40.41252" lon="15.05719"><ele>139.0</ele><time>2026-04-25T11:10:08.036Z</time></trkpt><trkpt lat="40.4124533" lon="15.0571467"><ele>139.0</ele><time>2026-04-25T11:10:08.974Z</time></trkpt><trkpt lat="40.41239" lon="15.0571117"><ele>139.0</ele><time>2026-04-25T11:10:09.974Z</time></trkpt><trkpt lat="40.4122617" lon="15.0571817"><ele>139.0</ele><time>2026-04-25T11:10:11.975Z</time></trkpt><trkpt lat="40.4122" lon="15.0572533"><ele>139.0</ele><time>2026-04-25T11:10:12.975Z</time></trkpt><trkpt lat="40.4121433" lon="15.0573383"><ele>139.0</ele><time>2026-04-25T11:10:14.038Z</time></trkpt><trkpt lat="40.412085" lon="15.0574317"><ele>139.4</ele><time>2026-04-25T11:10:14.973Z</time></trkpt><trkpt lat="40.41203" lon="15.057515"><ele>139.8</ele><time>2026-04-25T11:10:15.978Z</time></trkpt><trkpt lat="40.4119767" lon="15.0575833"><ele>140.2</ele><time>2026-04-25T11:10:16.978Z</time></trkpt><trkpt lat="40.41188" lon="15.057655"><ele>140.6</ele><time>2026-04-25T11:10:18.979Z</time></trkpt><trkpt lat="40.4117633" lon="15.0576333"><ele>141.0</ele><time>2026-04-25T11:10:20.969Z</time></trkpt><trkpt lat="40.41167" lon="15.0576033"><ele>141.0</ele><time>2026-04-25T11:10:21.972Z</time></trkpt><trkpt lat="40.41151" lon="15.0575433"><ele>141.0</ele><time>2026-04-25T11:10:22.974Z</time></trkpt><trkpt lat="40.4113567" lon="15.0575"><ele>141.0</ele><time>2026-04-25T11:10:23.975Z</time></trkpt><trkpt lat="40.4111933" lon="15.0574717"><ele>146.0</ele><time>2026-04-25T11:10:24.974Z</time></trkpt><trkpt lat="40.411025" lon="15.0574483"><ele>151.0</ele><time>2026-04-25T11:10:26.038Z</time></trkpt><trkpt lat="40.4108633" lon="15.0574233"><ele>156.0</ele><time>2026-04-25T11:10:26.969Z</time></trkpt><trkpt lat="40.4106933" lon="15.0573967"><ele>156.0</ele><time>2026-04-25T11:10:27.976Z</time></trkpt><trkpt lat="40.4105217" lon="15.0573683"><ele>156.0</ele><time>2026-04-25T11:10:28.978Z</time></trkpt><trkpt lat="40.41037" lon="15.05735"><ele>156.0</ele><time>2026-04-25T11:10:29.991Z</time></trkpt><trkpt lat="40.4102317" lon="15.057335"><ele>156.25</ele><time>2026-04-25T11:10:30.976Z</time></trkpt><trkpt lat="40.4101017" lon="15.05731"><ele>156.5</ele><time>2026-04-25T11:10:32.031Z</time></trkpt><trkpt lat="40.4099733" lon="15.0572717"><ele>156.75</ele><time>2026-04-25T11:10:32.972Z</time></trkpt><trkpt lat="40.4098417" lon="15.0572133"><ele>157.0</ele><time>2026-04-25T11:10:33.978Z</time></trkpt><trkpt lat="40.4097017" lon="15.05714"><ele>155.33333333333334</ele><time>2026-04-25T11:10:34.979Z</time></trkpt><trkpt lat="40.409565" lon="15.057065"><ele>153.66666666666666</ele><time>2026-04-25T11:10:35.979Z</time></trkpt><trkpt lat="40.409425" lon="15.057"><ele>152.0</ele><time>2026-04-25T11:10:36.979Z</time></trkpt><trkpt lat="40.409275" lon="15.0569383"><ele>152.0</ele><time>2026-04-25T11:10:38.035Z</time></trkpt><trkpt lat="40.40911" lon="15.0568817"><ele>152.0</ele><time>2026-04-25T11:10:38.984Z</time></trkpt><trkpt lat="40.4089333" lon="15.0568217"><ele>152.0</ele><time>2026-04-25T11:10:39.967Z</time></trkpt><trkpt lat="40.4087517" lon="15.05676"><ele>151.66666666666666</ele><time>2026-04-25T11:10:40.973Z</time></trkpt><trkpt lat="40.40859" lon="15.0567"><ele>151.33333333333334</ele><time>2026-04-25T11:10:41.977Z</time></trkpt><trkpt lat="40.408445" lon="15.0566533"><ele>151.0</ele><time>2026-04-25T11:10:42.977Z</time></trkpt><trkpt lat="40.4083133" lon="15.0566183"><ele>150.83333333333334</ele><time>2026-04-25T11:10:44.036Z</time></trkpt><trkpt lat="40.4082017" lon="15.0565917"><ele>150.66666666666669</ele><time>2026-04-25T11:10:44.966Z</time></trkpt><trkpt lat="40.408115" lon="15.0565733"><ele>150.5</ele><time>2026-04-25T11:10:45.977Z</time></trkpt><trkpt lat="40.4080467" lon="15.056565"><ele>150.33333333333334</ele><time>2026-04-25T11:10:46.981Z</time></trkpt><trkpt lat="40.4081117" lon="15.0565867"><ele>150.16666666666666</ele><time>2026-04-25T11:11:00.975Z</time></trkpt><trkpt lat="40.40815" lon="15.0564833"><ele>150.0</ele><time>2026-04-25T11:11:20.029Z</time></trkpt><trkpt lat="40.408165" lon="15.0563917"><ele>150.0</ele><time>2026-04-25T11:11:21.978Z</time></trkpt><trkpt lat="40.4081933" lon="15.0562517"><ele>150.0</ele><time>2026-04-25T11:11:23.972Z</time></trkpt><trkpt lat="40.4081933" lon="15.0561483"><ele>150.0</ele><time>2026-04-25T11:11:26.03Z</time></trkpt><trkpt lat="40.40816" lon="15.05606"><ele>150.0</ele><time>2026-04-25T11:11:27.97Z</time></trkpt><trkpt lat="40.40811" lon="15.0559633"><ele>150.0</ele><time>2026-04-25T11:11:29.974Z</time></trkpt><trkpt lat="40.4080617" lon="15.0558683"><ele>150.0</ele><time>2026-04-25T11:11:32.035Z</time></trkpt><trkpt lat="40.4080117" lon="15.055765"><ele>146.0</ele><time>2026-04-25T11:11:33.973Z</time></trkpt><trkpt lat="40.4079667" lon="15.0556617"><ele>142.0</ele><time>2026-04-25T11:11:35.978Z</time></trkpt><trkpt lat="40.4079133" lon="15.0555683"><ele>138.0</ele><time>2026-04-25T11:11:38.029Z</time></trkpt><trkpt lat="40.407855" lon="15.0554767"><ele>134.0</ele><time>2026-04-25T11:11:39.973Z</time></trkpt><trkpt lat="40.4077917" lon="15.0553717"><ele>130.0</ele><time>2026-04-25T11:11:41.975Z</time></trkpt><trkpt lat="40.4077167" lon="15.0552583"><ele>130.0</ele><time>2026-04-25T11:11:44.029Z</time></trkpt><trkpt lat="40.4076583" lon="15.0551433"><ele>130.0</ele><time>2026-04-25T11:11:45.978Z</time></trkpt><trkpt lat="40.40765" lon="15.0550317"><ele>130.0</ele><time>2026-04-25T11:11:47.97Z</time></trkpt><trkpt lat="40.4076817" lon="15.0549217"><ele>130.0</ele><time>2026-04-25T11:11:50.032Z</time></trkpt><trkpt lat="40.4077283" lon="15.0548133"><ele>130.0</ele><time>2026-04-25T11:11:51.977Z</time></trkpt><trkpt lat="40.4077933" lon="15.0547367"><ele>127.66666666666667</ele><time>2026-04-25T11:11:53.976Z</time></trkpt><trkpt lat="40.40786" lon="15.054655"><ele>125.33333333333334</ele><time>2026-04-25T11:11:56.031Z</time></trkpt><trkpt lat="40.407865" lon="15.0545483"><ele>123.0</ele><time>2026-04-25T11:11:58.977Z</time></trkpt><trkpt lat="40.407805" lon="15.0544867"><ele>120.66666666666666</ele><time>2026-04-25T11:12:02.974Z</time></trkpt><trkpt lat="40.4077533" lon="15.054435"><ele>118.33333333333333</ele><time>2026-04-25T11:12:05.971Z</time></trkpt><trkpt lat="40.4077" lon="15.054385"><ele>116.0</ele><time>2026-04-25T11:12:09.978Z</time></trkpt><trkpt lat="40.4076483" lon="15.054315"><ele>115.99999999999999</ele><time>2026-04-25T11:12:14.971Z</time></trkpt><trkpt lat="40.4075867" lon="15.05426"><ele>116.0</ele><time>2026-04-25T11:12:18.979Z</time></trkpt><trkpt lat="40.40752" lon="15.0542167"><ele>116.0</ele><time>2026-04-25T11:12:20.978Z</time></trkpt><trkpt lat="40.4074433" lon="15.0541467"><ele>116.0</ele><time>2026-04-25T11:12:22.982Z</time></trkpt><trkpt lat="40.4073733" lon="15.05407"><ele>115.99999999999999</ele><time>2026-04-25T11:12:24.976Z</time></trkpt><trkpt lat="40.4073267" lon="15.0539733"><ele>116.0</ele><time>2026-04-25T11:12:26.972Z</time></trkpt><trkpt lat="40.4073217" lon="15.0538583"><ele>112.6</ele><time>2026-04-25T11:12:28.979Z</time></trkpt><trkpt lat="40.4073217" lon="15.0537233"><ele>109.19999999999999</ele><time>2026-04-25T11:12:30.976Z</time></trkpt><trkpt lat="40.4072783" lon="15.05359"><ele>105.80000000000001</ele><time>2026-04-25T11:12:32.971Z</time></trkpt><trkpt lat="40.4072033" lon="15.0534667"><ele>102.4</ele><time>2026-04-25T11:12:34.976Z</time></trkpt><trkpt lat="40.4071567" lon="15.0534083"><ele>99.0</ele><time>2026-04-25T11:12:35.971Z</time></trkpt><trkpt lat="40.4070717" lon="15.0532967"><ele>96.80000000000001</ele><time>2026-04-25T11:12:38.035Z</time></trkpt><trkpt lat="40.4070167" lon="15.05317"><ele>94.60000000000001</ele><time>2026-04-25T11:12:39.971Z</time></trkpt><trkpt lat="40.40696" lon="15.0530233"><ele>92.4</ele><time>2026-04-25T11:12:41.975Z</time></trkpt><trkpt lat="40.4069167" lon="15.0529517"><ele>90.2</ele><time>2026-04-25T11:12:42.977Z</time></trkpt><trkpt lat="40.406855" lon="15.052875"><ele>88.0</ele><time>2026-04-25T11:12:44.039Z</time></trkpt><trkpt lat="40.4067767" lon="15.05279"><ele>88.0</ele><time>2026-04-25T11:12:44.968Z</time></trkpt><trkpt lat="40.406695" lon="15.0527133"><ele>88.0</ele><time>2026-04-25T11:12:45.973Z</time></trkpt><trkpt lat="40.406615" lon="15.0526433"><ele>88.0</ele><time>2026-04-25T11:12:46.979Z</time></trkpt><trkpt lat="40.4065333" lon="15.0525733"><ele>88.0</ele><time>2026-04-25T11:12:47.981Z</time></trkpt><trkpt lat="40.4064567" lon="15.052505"><ele>88.0</ele><time>2026-04-25T11:12:48.979Z</time></trkpt><trkpt lat="40.4063817" lon="15.0524333"><ele>85.0</ele><time>2026-04-25T11:12:50.034Z</time></trkpt><trkpt lat="40.4063117" lon="15.052365"><ele>82.0</ele><time>2026-04-25T11:12:50.974Z</time></trkpt><trkpt lat="40.4062517" lon="15.052285"><ele>79.0</ele><time>2026-04-25T11:12:51.975Z</time></trkpt><trkpt lat="40.4061933" lon="15.0521917"><ele>76.0</ele><time>2026-04-25T11:12:52.977Z</time></trkpt><trkpt lat="40.406135" lon="15.0520833"><ele>73.0</ele><time>2026-04-25T11:12:53.975Z</time></trkpt><trkpt lat="40.4060767" lon="15.05197"><ele>73.0</ele><time>2026-04-25T11:12:54.979Z</time></trkpt><trkpt lat="40.406035" lon="15.05185"><ele>73.0</ele><time>2026-04-25T11:12:56.033Z</time></trkpt><trkpt lat="40.4060067" lon="15.0517367"><ele>73.0</ele><time>2026-04-25T11:12:56.971Z</time></trkpt><trkpt lat="40.4059783" lon="15.0516367"><ele>73.0</ele><time>2026-04-25T11:12:57.97Z</time></trkpt><trkpt lat="40.4059433" lon="15.0515567"><ele>73.0</ele><time>2026-04-25T11:12:58.979Z</time></trkpt><trkpt lat="40.4058967" lon="15.0515"><ele>73.0</ele><time>2026-04-25T11:12:59.975Z</time></trkpt><trkpt lat="40.40583" lon="15.0514683"><ele>70.6</ele><time>2026-04-25T11:13:00.977Z</time></trkpt><trkpt lat="40.4057533" lon="15.0514483"><ele>68.19999999999999</ele><time>2026-04-25T11:13:02.039Z</time></trkpt><trkpt lat="40.405645" lon="15.05144"><ele>65.8</ele><time>2026-04-25T11:13:02.977Z</time></trkpt><trkpt lat="40.4055183" lon="15.05143"><ele>63.4</ele><time>2026-04-25T11:13:03.972Z</time></trkpt><trkpt lat="40.4053983" lon="15.0514117"><ele>61.0</ele><time>2026-04-25T11:13:04.981Z</time></trkpt><trkpt lat="40.4052717" lon="15.0513783"><ele>58.5</ele><time>2026-04-25T11:13:05.973Z</time></trkpt><trkpt lat="40.4051483" lon="15.05133"><ele>56.0</ele><time>2026-04-25T11:13:06.979Z</time></trkpt><trkpt lat="40.4050267" lon="15.0512667"><ele>53.5</ele><time>2026-04-25T11:13:08.031Z</time></trkpt><trkpt lat="40.4049083" lon="15.0511833"><ele>51.0</ele><time>2026-04-25T11:13:08.973Z</time></trkpt><trkpt lat="40.4047933" lon="15.0510733"><ele>51.0</ele><time>2026-04-25T11:13:09.981Z</time></trkpt><trkpt lat="40.4046767" lon="15.0509383"><ele>51.0</ele><time>2026-04-25T11:13:10.968Z</time></trkpt><trkpt lat="40.4045667" lon="15.0507867"><ele>51.0</ele><time>2026-04-25T11:13:11.977Z</time></trkpt><trkpt lat="40.4044567" lon="15.050635"><ele>48.0</ele><time>2026-04-25T11:13:12.977Z</time></trkpt><trkpt lat="40.40435" lon="15.0504917"><ele>45.0</ele><time>2026-04-25T11:13:14.041Z</time></trkpt><trkpt lat="40.40425" lon="15.0503667"><ele>42.0</ele><time>2026-04-25T11:13:14.973Z</time></trkpt><trkpt lat="40.40416" lon="15.05026"><ele>39.0</ele><time>2026-04-25T11:13:15.97Z</time></trkpt><trkpt lat="40.4040767" lon="15.05017"><ele>39.0</ele><time>2026-04-25T11:13:16.979Z</time></trkpt><trkpt lat="40.4040083" lon="15.0500917"><ele>39.0</ele><time>2026-04-25T11:13:17.973Z</time></trkpt><trkpt lat="40.4039567" lon="15.0500117"><ele>39.0</ele><time>2026-04-25T11:13:18.976Z</time></trkpt><trkpt lat="40.4039167" lon="15.0499333"><ele>39.0</ele><time>2026-04-25T11:13:20.031Z</time></trkpt><trkpt lat="40.403885" lon="15.049855"><ele>39.0</ele><time>2026-04-25T11:13:20.972Z</time></trkpt><trkpt lat="40.4038517" lon="15.0497833"><ele>39.0</ele><time>2026-04-25T11:13:21.975Z</time></trkpt><trkpt lat="40.403805" lon="15.049715"><ele>39.0</ele><time>2026-04-25T11:13:22.982Z</time></trkpt><trkpt lat="40.4037533" lon="15.0496483"><ele>36.25</ele><time>2026-04-25T11:13:23.971Z</time></trkpt><trkpt lat="40.403695" lon="15.0495767"><ele>33.5</ele><time>2026-04-25T11:13:24.979Z</time></trkpt><trkpt lat="40.4036183" lon="15.04949"><ele>30.75</ele><time>2026-04-25T11:13:26.03Z</time></trkpt><trkpt lat="40.4034983" lon="15.0493617"><ele>28.0</ele><time>2026-04-25T11:13:26.971Z</time></trkpt><trkpt lat="40.403375" lon="15.049215"><ele>26.333333333333336</ele><time>2026-04-25T11:13:27.976Z</time></trkpt><trkpt lat="40.403245" lon="15.04906"><ele>24.666666666666668</ele><time>2026-04-25T11:13:28.976Z</time></trkpt><trkpt lat="40.4031267" lon="15.04891"><ele>23.0</ele><time>2026-04-25T11:13:29.972Z</time></trkpt><trkpt lat="40.4030267" lon="15.0487833"><ele>23.0</ele><time>2026-04-25T11:13:30.976Z</time></trkpt><trkpt lat="40.4029583" lon="15.0487067"><ele>23.0</ele><time>2026-04-25T11:13:32.031Z</time></trkpt><trkpt lat="40.402875" lon="15.048655"><ele>23.0</ele><time>2026-04-25T11:13:33.971Z</time></trkpt><trkpt lat="40.4028117" lon="15.0486483"><ele>23.0</ele><time>2026-04-25T11:13:34.977Z</time></trkpt><trkpt lat="40.4027267" lon="15.04864"><ele>23.0</ele><time>2026-04-25T11:13:35.971Z</time></trkpt><trkpt lat="40.4026" lon="15.0486383"><ele>23.0</ele><time>2026-04-25T11:13:36.97Z</time></trkpt><trkpt lat="40.402465" lon="15.048635"><ele>23.0</ele><time>2026-04-25T11:13:38.033Z</time></trkpt><trkpt lat="40.4023133" lon="15.04863"><ele>23.0</ele><time>2026-04-25T11:13:38.972Z</time></trkpt><trkpt lat="40.40216" lon="15.0486267"><ele>23.0</ele><time>2026-04-25T11:13:39.975Z</time></trkpt><trkpt lat="40.4020167" lon="15.0486233"><ele>22.75</ele><time>2026-04-25T11:13:40.974Z</time></trkpt><trkpt lat="40.40188" lon="15.048625"><ele>22.5</ele><time>2026-04-25T11:13:41.976Z</time></trkpt><trkpt lat="40.4017533" lon="15.048645"><ele>22.25</ele><time>2026-04-25T11:13:42.979Z</time></trkpt><trkpt lat="40.4016417" lon="15.048675"><ele>22.0</ele><time>2026-04-25T11:13:44.035Z</time></trkpt><trkpt lat="40.4015483" lon="15.0487083"><ele>22.0</ele><time>2026-04-25T11:13:44.971Z</time></trkpt><trkpt lat="40.4014817" lon="15.0486733"><ele>22.0</ele><time>2026-04-25T11:13:46.979Z</time></trkpt><trkpt lat="40.401465" lon="15.0485917"><ele>22.0</ele><time>2026-04-25T11:13:47.974Z</time></trkpt><trkpt lat="40.401445" lon="15.04847"><ele>22.0</ele><time>2026-04-25T11:13:48.982Z</time></trkpt><trkpt lat="40.4014183" lon="15.0483217"><ele>22.0</ele><time>2026-04-25T11:13:50.031Z</time></trkpt><trkpt lat="40.4013883" lon="15.0481483"><ele>22.0</ele><time>2026-04-25T11:13:50.972Z</time></trkpt><trkpt lat="40.4013567" lon="15.047945"><ele>22.0</ele><time>2026-04-25T11:13:51.975Z</time></trkpt><trkpt lat="40.4013183" lon="15.0477183"><ele>22.0</ele><time>2026-04-25T11:13:52.977Z</time></trkpt><trkpt lat="40.401275" lon="15.047465"><ele>21.333333333333332</ele><time>2026-04-25T11:13:53.973Z</time></trkpt><trkpt lat="40.4012267" lon="15.0472117"><ele>20.666666666666668</ele><time>2026-04-25T11:13:54.977Z</time></trkpt><trkpt lat="40.4011817" lon="15.0469733"><ele>20.0</ele><time>2026-04-25T11:13:56.03Z</time></trkpt><trkpt lat="40.4011433" lon="15.0467667"><ele>20.0</ele><time>2026-04-25T11:13:56.972Z</time></trkpt><trkpt lat="40.4011117" lon="15.0465933"><ele>20.0</ele><time>2026-04-25T11:13:57.976Z</time></trkpt><trkpt lat="40.4010883" lon="15.04645"><ele>20.0</ele><time>2026-04-25T11:13:58.98Z</time></trkpt><trkpt lat="40.401075" lon="15.0463383"><ele>20.0</ele><time>2026-04-25T11:13:59.974Z</time></trkpt><trkpt lat="40.4010483" lon="15.0462483"><ele>20.0</ele><time>2026-04-25T11:14:02.03Z</time></trkpt><trkpt lat="40.4009633" lon="15.0461833"><ele>20.0</ele><time>2026-04-25T11:14:03.976Z</time></trkpt><trkpt lat="40.4008783" lon="15.04616"><ele>20.0</ele><time>2026-04-25T11:14:04.974Z</time></trkpt><trkpt lat="40.4007733" lon="15.0461367"><ele>20.0</ele><time>2026-04-25T11:14:05.973Z</time></trkpt><trkpt lat="40.4006483" lon="15.0461033"><ele>20.0</ele><time>2026-04-25T11:14:06.976Z</time></trkpt><trkpt lat="40.400505" lon="15.046055"><ele>20.333333333333336</ele><time>2026-04-25T11:14:08.032Z</time></trkpt><trkpt lat="40.4003517" lon="15.045995"><ele>20.666666666666668</ele><time>2026-04-25T11:14:08.973Z</time></trkpt><trkpt lat="40.40018" lon="15.04592"><ele>21.0</ele><time>2026-04-25T11:14:09.97Z</time></trkpt><trkpt lat="40.3999917" lon="15.0458367"><ele>20.666666666666668</ele><time>2026-04-25T11:14:10.969Z</time></trkpt><trkpt lat="40.3998" lon="15.0457533"><ele>20.333333333333336</ele><time>2026-04-25T11:14:11.977Z</time></trkpt><trkpt lat="40.3996017" lon="15.0456667"><ele>20.0</ele><time>2026-04-25T11:14:12.974Z</time></trkpt><trkpt lat="40.3993983" lon="15.0455783"><ele>19.5</ele><time>2026-04-25T11:14:14.034Z</time></trkpt><trkpt lat="40.3991883" lon="15.0454817"><ele>19.0</ele><time>2026-04-25T11:14:14.968Z</time></trkpt><trkpt lat="40.3989717" lon="15.0453883"><ele>19.0</ele><time>2026-04-25T11:14:15.97Z</time></trkpt><trkpt lat="40.3987517" lon="15.0452883"><ele>19.0</ele><time>2026-04-25T11:14:16.971Z</time></trkpt><trkpt lat="40.3985283" lon="15.0451883"><ele>19.0</ele><time>2026-04-25T11:14:17.972Z</time></trkpt><trkpt lat="40.3983067" lon="15.0450917"><ele>19.0</ele><time>2026-04-25T11:14:18.982Z</time></trkpt><trkpt lat="40.398095" lon="15.045"><ele>19.0</ele><time>2026-04-25T11:14:20.036Z</time></trkpt><trkpt lat="40.3978967" lon="15.04491"><ele>19.0</ele><time>2026-04-25T11:14:20.971Z</time></trkpt><trkpt lat="40.3977017" lon="15.044825"><ele>19.0</ele><time>2026-04-25T11:14:21.972Z</time></trkpt><trkpt lat="40.39751" lon="15.04474"><ele>19.0</ele><time>2026-04-25T11:14:22.981Z</time></trkpt><trkpt lat="40.3973233" lon="15.044655"><ele>19.0</ele><time>2026-04-25T11:14:23.975Z</time></trkpt><trkpt lat="40.397135" lon="15.0445717"><ele>19.0</ele><time>2026-04-25T11:14:24.982Z</time></trkpt><trkpt lat="40.3969483" lon="15.04449"><ele>18.666666666666664</ele><time>2026-04-25T11:14:26.036Z</time></trkpt><trkpt lat="40.39676" lon="15.04441"><ele>18.333333333333332</ele><time>2026-04-25T11:14:26.971Z</time></trkpt><trkpt lat="40.3965667" lon="15.04433"><ele>18.0</ele><time>2026-04-25T11:14:27.976Z</time></trkpt><trkpt lat="40.3963783" lon="15.0442533"><ele>18.0</ele><time>2026-04-25T11:14:28.987Z</time></trkpt><trkpt lat="40.3961883" lon="15.0441783"><ele>18.0</ele><time>2026-04-25T11:14:29.972Z</time></trkpt><trkpt lat="40.39599" lon="15.044095"><ele>18.0</ele><time>2026-04-25T11:14:30.987Z</time></trkpt><trkpt lat="40.3957833" lon="15.044"><ele>18.0</ele><time>2026-04-25T11:14:32.034Z</time></trkpt><trkpt lat="40.3955783" lon="15.0439"><ele>18.0</ele><time>2026-04-25T11:14:32.97Z</time></trkpt><trkpt lat="40.3953767" lon="15.0438017"><ele>18.0</ele><time>2026-04-25T11:14:33.978Z</time></trkpt><trkpt lat="40.3951783" lon="15.04371"><ele>18.333333333333332</ele><time>2026-04-25T11:14:34.985Z</time></trkpt><trkpt lat="40.3949833" lon="15.0436233"><ele>18.666666666666664</ele><time>2026-04-25T11:14:35.978Z</time></trkpt><trkpt lat="40.3947933" lon="15.0435433"><ele>19.0</ele><time>2026-04-25T11:14:36.978Z</time></trkpt><trkpt lat="40.3946083" lon="15.04347"><ele>19.333333333333332</ele><time>2026-04-25T11:14:38.038Z</time></trkpt><trkpt lat="40.3944217" lon="15.043405"><ele>19.666666666666668</ele><time>2026-04-25T11:14:38.969Z</time></trkpt><trkpt lat="40.3942383" lon="15.0433533"><ele>20.0</ele><time>2026-04-25T11:14:39.981Z</time></trkpt><trkpt lat="40.3940483" lon="15.043325"><ele>20.0</ele><time>2026-04-25T11:14:40.978Z</time></trkpt><trkpt lat="40.3938483" lon="15.043315"><ele>20.0</ele><time>2026-04-25T11:14:41.97Z</time></trkpt><trkpt lat="40.39364" lon="15.04332"><ele>20.0</ele><time>2026-04-25T11:14:42.977Z</time></trkpt><trkpt lat="40.393425" lon="15.0433367"><ele>19.666666666666668</ele><time>2026-04-25T11:14:44.028Z</time></trkpt><trkpt lat="40.3932033" lon="15.0433483"><ele>19.333333333333332</ele><time>2026-04-25T11:14:44.973Z</time></trkpt><trkpt lat="40.3929817" lon="15.04336"><ele>19.0</ele><time>2026-04-25T11:14:45.97Z</time></trkpt><trkpt lat="40.392765" lon="15.0433717"><ele>18.666666666666664</ele><time>2026-04-25T11:14:46.975Z</time></trkpt><trkpt lat="40.392555" lon="15.0433867"><ele>18.333333333333332</ele><time>2026-04-25T11:14:47.975Z</time></trkpt><trkpt lat="40.39235" lon="15.0434017"><ele>18.0</ele><time>2026-04-25T11:14:48.985Z</time></trkpt><trkpt lat="40.3921483" lon="15.043415"><ele>18.666666666666668</ele><time>2026-04-25T11:14:50.035Z</time></trkpt><trkpt lat="40.391955" lon="15.04343"><ele>19.333333333333336</ele><time>2026-04-25T11:14:50.976Z</time></trkpt><trkpt lat="40.39177" lon="15.0434417"><ele>20.0</ele><time>2026-04-25T11:14:51.978Z</time></trkpt><trkpt lat="40.3915917" lon="15.0434467"><ele>20.0</ele><time>2026-04-25T11:14:52.983Z</time></trkpt><trkpt lat="40.3914167" lon="15.0434567"><ele>20.0</ele><time>2026-04-25T11:14:53.976Z</time></trkpt><trkpt lat="40.3912433" lon="15.04347"><ele>20.0</ele><time>2026-04-25T11:14:54.976Z</time></trkpt><trkpt lat="40.391075" lon="15.0434883"><ele>20.0</ele><time>2026-04-25T11:14:56.038Z</time></trkpt><trkpt lat="40.390905" lon="15.0435067"><ele>20.0</ele><time>2026-04-25T11:14:56.969Z</time></trkpt><trkpt lat="40.3907367" lon="15.043525"><ele>20.0</ele><time>2026-04-25T11:14:57.972Z</time></trkpt><trkpt lat="40.390565" lon="15.0435383"><ele>19.666666666666668</ele><time>2026-04-25T11:14:58.979Z</time></trkpt><trkpt lat="40.3903883" lon="15.0435483"><ele>19.333333333333332</ele><time>2026-04-25T11:14:59.98Z</time></trkpt><trkpt lat="40.3902133" lon="15.043555"><ele>19.0</ele><time>2026-04-25T11:15:00.969Z</time></trkpt><trkpt lat="40.390045" lon="15.0435667"><ele>19.0</ele><time>2026-04-25T11:15:02.031Z</time></trkpt><trkpt lat="40.3898783" lon="15.043585"><ele>19.0</ele><time>2026-04-25T11:15:02.976Z</time></trkpt><trkpt lat="40.38971" lon="15.0436167"><ele>19.0</ele><time>2026-04-25T11:15:03.973Z</time></trkpt><trkpt lat="40.3895333" lon="15.0436617"><ele>19.0</ele><time>2026-04-25T11:15:04.973Z</time></trkpt><trkpt lat="40.3893533" lon="15.0437183"><ele>19.0</ele><time>2026-04-25T11:15:05.974Z</time></trkpt><trkpt lat="40.3891683" lon="15.043785"><ele>19.0</ele><time>2026-04-25T11:15:06.98Z</time></trkpt><trkpt lat="40.3889917" lon="15.0438517"><ele>19.333333333333332</ele><time>2026-04-25T11:15:08.033Z</time></trkpt><trkpt lat="40.3888267" lon="15.0439183"><ele>19.666666666666668</ele><time>2026-04-25T11:15:08.972Z</time></trkpt><trkpt lat="40.3886733" lon="15.043975"><ele>20.0</ele><time>2026-04-25T11:15:09.974Z</time></trkpt><trkpt lat="40.3885267" lon="15.0440233"><ele>20.0</ele><time>2026-04-25T11:15:10.977Z</time></trkpt><trkpt lat="40.3883833" lon="15.0440617"><ele>20.0</ele><time>2026-04-25T11:15:11.973Z</time></trkpt><trkpt lat="40.3882483" lon="15.0440783"><ele>20.0</ele><time>2026-04-25T11:15:12.978Z</time></trkpt><trkpt lat="40.388125" lon="15.044085"><ele>20.0</ele><time>2026-04-25T11:15:14.031Z</time></trkpt><trkpt lat="40.38803" lon="15.044075"><ele>20.0</ele><time>2026-04-25T11:15:14.976Z</time></trkpt><trkpt lat="40.3879883" lon="15.0439617"><ele>20.0</ele><time>2026-04-25T11:15:16.975Z</time></trkpt><trkpt lat="40.3879867" lon="15.04377"><ele>20.0</ele><time>2026-04-25T11:15:18.967Z</time></trkpt><trkpt lat="40.3880033" lon="15.0436267"><ele>20.0</ele><time>2026-04-25T11:15:20.03Z</time></trkpt><trkpt lat="40.3880267" lon="15.04345"><ele>19.333333333333336</ele><time>2026-04-25T11:15:20.969Z</time></trkpt><trkpt lat="40.388055" lon="15.0432517"><ele>18.666666666666668</ele><time>2026-04-25T11:15:21.971Z</time></trkpt><trkpt lat="40.3880817" lon="15.0430417"><ele>18.0</ele><time>2026-04-25T11:15:22.982Z</time></trkpt><trkpt lat="40.3881067" lon="15.04282"><ele>18.0</ele><time>2026-04-25T11:15:23.973Z</time></trkpt><trkpt lat="40.3881317" lon="15.0425917"><ele>18.0</ele><time>2026-04-25T11:15:24.977Z</time></trkpt><trkpt lat="40.388155" lon="15.0423517"><ele>18.0</ele><time>2026-04-25T11:15:26.032Z</time></trkpt><trkpt lat="40.3881783" lon="15.0421017"><ele>18.333333333333332</ele><time>2026-04-25T11:15:26.972Z</time></trkpt><trkpt lat="40.3882033" lon="15.0418417"><ele>18.666666666666664</ele><time>2026-04-25T11:15:27.974Z</time></trkpt><trkpt lat="40.3882283" lon="15.0415817"><ele>19.0</ele><time>2026-04-25T11:15:28.975Z</time></trkpt><trkpt lat="40.3882517" lon="15.0413283"><ele>19.0</ele><time>2026-04-25T11:15:29.98Z</time></trkpt><trkpt lat="40.3882733" lon="15.0410833"><ele>19.0</ele><time>2026-04-25T11:15:30.967Z</time></trkpt><trkpt lat="40.3882967" lon="15.04085"><ele>19.0</ele><time>2026-04-25T11:15:32.035Z</time></trkpt><trkpt lat="40.3883217" lon="15.0406283"><ele>19.333333333333332</ele><time>2026-04-25T11:15:32.97Z</time></trkpt><trkpt lat="40.388345" lon="15.040415"><ele>19.666666666666668</ele><time>2026-04-25T11:15:33.968Z</time></trkpt><trkpt lat="40.3883683" lon="15.04021"><ele>20.0</ele><time>2026-04-25T11:15:34.977Z</time></trkpt><trkpt lat="40.388385" lon="15.040005"><ele>19.333333333333336</ele><time>2026-04-25T11:15:35.976Z</time></trkpt><trkpt lat="40.3884" lon="15.039805"><ele>18.666666666666668</ele><time>2026-04-25T11:15:36.977Z</time></trkpt><trkpt lat="40.3884133" lon="15.0395983"><ele>18.0</ele><time>2026-04-25T11:15:38.033Z</time></trkpt><trkpt lat="40.3884367" lon="15.03938"><ele>18.0</ele><time>2026-04-25T11:15:38.969Z</time></trkpt><trkpt lat="40.3884633" lon="15.0391533"><ele>18.0</ele><time>2026-04-25T11:15:39.973Z</time></trkpt><trkpt lat="40.388495" lon="15.03892"><ele>18.0</ele><time>2026-04-25T11:15:40.976Z</time></trkpt><trkpt lat="40.38852" lon="15.03869"><ele>18.0</ele><time>2026-04-25T11:15:41.967Z</time></trkpt><trkpt lat="40.388545" lon="15.0384617"><ele>18.0</ele><time>2026-04-25T11:15:42.973Z</time></trkpt><trkpt lat="40.3885667" lon="15.0382433"><ele>18.0</ele><time>2026-04-25T11:15:44.031Z</time></trkpt><trkpt lat="40.388585" lon="15.0380317"><ele>18.0</ele><time>2026-04-25T11:15:44.97Z</time></trkpt><trkpt lat="40.3886067" lon="15.037825"><ele>18.0</ele><time>2026-04-25T11:15:45.976Z</time></trkpt><trkpt lat="40.3886267" lon="15.0376217"><ele>18.0</ele><time>2026-04-25T11:15:46.976Z</time></trkpt><trkpt lat="40.3886467" lon="15.0374233"><ele>18.0</ele><time>2026-04-25T11:15:47.971Z</time></trkpt><trkpt lat="40.388665" lon="15.03723"><ele>18.0</ele><time>2026-04-25T11:15:48.979Z</time></trkpt><trkpt lat="40.388685" lon="15.037035"><ele>18.0</ele><time>2026-04-25T11:15:50.032Z</time></trkpt><trkpt lat="40.3887017" lon="15.0368433"><ele>18.0</ele><time>2026-04-25T11:15:50.97Z</time></trkpt><trkpt lat="40.3887167" lon="15.03665"><ele>18.0</ele><time>2026-04-25T11:15:51.975Z</time></trkpt><trkpt lat="40.3887367" lon="15.0364583"><ele>18.0</ele><time>2026-04-25T11:15:52.979Z</time></trkpt><trkpt lat="40.3887617" lon="15.036265"><ele>18.0</ele><time>2026-04-25T11:15:53.975Z</time></trkpt><trkpt lat="40.3887867" lon="15.03607"><ele>18.0</ele><time>2026-04-25T11:15:54.969Z</time></trkpt><trkpt lat="40.3888133" lon="15.035875"><ele>17.5</ele><time>2026-04-25T11:15:56.037Z</time></trkpt><trkpt lat="40.3888367" lon="15.0356867"><ele>17.0</ele><time>2026-04-25T11:15:56.977Z</time></trkpt><trkpt lat="40.3888567" lon="15.0355"><ele>16.5</ele><time>2026-04-25T11:15:57.97Z</time></trkpt><trkpt lat="40.3888767" lon="15.0352967"><ele>16.0</ele><time>2026-04-25T11:15:58.973Z</time></trkpt><trkpt lat="40.388895" lon="15.0350883"><ele>16.0</ele><time>2026-04-25T11:15:59.97Z</time></trkpt><trkpt lat="40.388915" lon="15.03488"><ele>16.0</ele><time>2026-04-25T11:16:00.98Z</time></trkpt><trkpt lat="40.388935" lon="15.0346717"><ele>16.0</ele><time>2026-04-25T11:16:02.035Z</time></trkpt><trkpt lat="40.3889483" lon="15.03447"><ele>16.0</ele><time>2026-04-25T11:16:02.973Z</time></trkpt><trkpt lat="40.3889617" lon="15.0342717"><ele>16.0</ele><time>2026-04-25T11:16:03.974Z</time></trkpt><trkpt lat="40.3889733" lon="15.0340767"><ele>16.0</ele><time>2026-04-25T11:16:04.972Z</time></trkpt><trkpt lat="40.3889883" lon="15.0338733"><ele>15.333333333333332</ele><time>2026-04-25T11:16:05.981Z</time></trkpt><trkpt lat="40.3890067" lon="15.0336583"><ele>14.666666666666668</ele><time>2026-04-25T11:16:06.977Z</time></trkpt><trkpt lat="40.3890317" lon="15.0334267"><ele>14.0</ele><time>2026-04-25T11:16:08.043Z</time></trkpt><trkpt lat="40.38906" lon="15.0331833"><ele>13.666666666666668</ele><time>2026-04-25T11:16:08.977Z</time></trkpt><trkpt lat="40.3890917" lon="15.0329217"><ele>13.333333333333332</ele><time>2026-04-25T11:16:09.975Z</time></trkpt><trkpt lat="40.3891217" lon="15.03266"><ele>13.0</ele><time>2026-04-25T11:16:10.975Z</time></trkpt><trkpt lat="40.3891533" lon="15.0323883"><ele>13.0</ele><time>2026-04-25T11:16:11.971Z</time></trkpt><trkpt lat="40.3891833" lon="15.0321083"><ele>13.0</ele><time>2026-04-25T11:16:12.976Z</time></trkpt><trkpt lat="40.3892117" lon="15.0318167"><ele>13.0</ele><time>2026-04-25T11:16:14.035Z</time></trkpt><trkpt lat="40.38924" lon="15.03153"><ele>13.0</ele><time>2026-04-25T11:16:14.969Z</time></trkpt><trkpt lat="40.3892667" lon="15.0312467"><ele>13.0</ele><time>2026-04-25T11:16:15.972Z</time></trkpt><trkpt lat="40.3892917" lon="15.0309683"><ele>13.0</ele><time>2026-04-25T11:16:16.979Z</time></trkpt><trkpt lat="40.3893167" lon="15.0306917"><ele>13.0</ele><time>2026-04-25T11:16:17.974Z</time></trkpt><trkpt lat="40.38934" lon="15.0304233"><ele>13.0</ele><time>2026-04-25T11:16:18.971Z</time></trkpt><trkpt lat="40.3893633" lon="15.03016"><ele>13.0</ele><time>2026-04-25T11:16:20.036Z</time></trkpt><trkpt lat="40.3893833" lon="15.0299067"><ele>12.333333333333332</ele><time>2026-04-25T11:16:20.97Z</time></trkpt><trkpt lat="40.3894067" lon="15.0296583"><ele>11.666666666666666</ele><time>2026-04-25T11:16:21.973Z</time></trkpt><trkpt lat="40.38943" lon="15.02941"><ele>11.0</ele><time>2026-04-25T11:16:22.97Z</time></trkpt><trkpt lat="40.3894533" lon="15.029165"><ele>11.333333333333332</ele><time>2026-04-25T11:16:23.975Z</time></trkpt><trkpt lat="40.3894783" lon="15.0289183"><ele>11.666666666666666</ele><time>2026-04-25T11:16:24.97Z</time></trkpt><trkpt lat="40.3895017" lon="15.028675"><ele>12.0</ele><time>2026-04-25T11:16:26.03Z</time></trkpt><trkpt lat="40.3895283" lon="15.0284317"><ele>13.0</ele><time>2026-04-25T11:16:26.973Z</time></trkpt><trkpt lat="40.3895533" lon="15.02819"><ele>14.0</ele><time>2026-04-25T11:16:27.969Z</time></trkpt><trkpt lat="40.3895767" lon="15.0279433"><ele>15.0</ele><time>2026-04-25T11:16:28.974Z</time></trkpt><trkpt lat="40.3896017" lon="15.0276883"><ele>14.333333333333332</ele><time>2026-04-25T11:16:29.972Z</time></trkpt><trkpt lat="40.38963" lon="15.027425"><ele>13.666666666666666</ele><time>2026-04-25T11:16:30.979Z</time></trkpt><trkpt lat="40.389655" lon="15.0271717"><ele>13.0</ele><time>2026-04-25T11:16:32.035Z</time></trkpt><trkpt lat="40.38968" lon="15.02694"><ele>12.75</ele><time>2026-04-25T11:16:32.971Z</time></trkpt><trkpt lat="40.3896983" lon="15.0267383"><ele>12.5</ele><time>2026-04-25T11:16:33.968Z</time></trkpt><trkpt lat="40.3897167" lon="15.0265617"><ele>12.25</ele><time>2026-04-25T11:16:34.976Z</time></trkpt><trkpt lat="40.3897367" lon="15.0264183"><ele>12.0</ele><time>2026-04-25T11:16:35.974Z</time></trkpt><trkpt lat="40.3897517" lon="15.02631"><ele>12.0</ele><time>2026-04-25T11:16:36.975Z</time></trkpt><trkpt lat="40.3897617" lon="15.0262133"><ele>12.0</ele><time>2026-04-25T11:16:38.969Z</time></trkpt><trkpt lat="40.3896917" lon="15.0261617"><ele>12.0</ele><time>2026-04-25T11:16:41.982Z</time></trkpt><trkpt lat="40.3895983" lon="15.0261983"><ele>12.0</ele><time>2026-04-25T11:16:44.038Z</time></trkpt><trkpt lat="40.389535" lon="15.0262467"><ele>12.0</ele><time>2026-04-25T11:16:44.969Z</time></trkpt><trkpt lat="40.3894583" lon="15.0263083"><ele>12.0</ele><time>2026-04-25T11:16:45.974Z</time></trkpt><trkpt lat="40.38936" lon="15.0263867"><ele>12.333333333333332</ele><time>2026-04-25T11:16:46.979Z</time></trkpt><trkpt lat="40.3892483" lon="15.026475"><ele>12.666666666666666</ele><time>2026-04-25T11:16:47.975Z</time></trkpt><trkpt lat="40.3891117" lon="15.0265717"><ele>13.0</ele><time>2026-04-25T11:16:48.979Z</time></trkpt><trkpt lat="40.3889583" lon="15.02667"><ele>13.333333333333332</ele><time>2026-04-25T11:16:50.029Z</time></trkpt><trkpt lat="40.3887967" lon="15.026765"><ele>13.666666666666668</ele><time>2026-04-25T11:16:50.967Z</time></trkpt><trkpt lat="40.3886333" lon="15.0268433"><ele>14.0</ele><time>2026-04-25T11:16:51.969Z</time></trkpt><trkpt lat="40.3884683" lon="15.0269"><ele>14.0</ele><time>2026-04-25T11:16:52.976Z</time></trkpt><trkpt lat="40.38829" lon="15.0269417"><ele>14.0</ele><time>2026-04-25T11:16:53.967Z</time></trkpt><trkpt lat="40.38811" lon="15.0269683"><ele>14.0</ele><time>2026-04-25T11:16:54.967Z</time></trkpt><trkpt lat="40.3879267" lon="15.0269917"><ele>14.0</ele><time>2026-04-25T11:16:56.03Z</time></trkpt><trkpt lat="40.3877417" lon="15.0270117"><ele>14.0</ele><time>2026-04-25T11:16:56.977Z</time></trkpt><trkpt lat="40.3875517" lon="15.027035"><ele>14.0</ele><time>2026-04-25T11:16:57.976Z</time></trkpt><trkpt lat="40.38736" lon="15.0270567"><ele>13.666666666666668</ele><time>2026-04-25T11:16:58.979Z</time></trkpt><trkpt lat="40.3871717" lon="15.0270767"><ele>13.333333333333332</ele><time>2026-04-25T11:16:59.973Z</time></trkpt><trkpt lat="40.3869933" lon="15.0270983"><ele>13.0</ele><time>2026-04-25T11:17:00.977Z</time></trkpt><trkpt lat="40.38682" lon="15.0271183"><ele>13.0</ele><time>2026-04-25T11:17:02.027Z</time></trkpt><trkpt lat="40.3866533" lon="15.027135"><ele>13.0</ele><time>2026-04-25T11:17:02.97Z</time></trkpt><trkpt lat="40.3864867" lon="15.0271533"><ele>13.0</ele><time>2026-04-25T11:17:03.966Z</time></trkpt><trkpt lat="40.3863183" lon="15.0271717"><ele>13.0</ele><time>2026-04-25T11:17:04.972Z</time></trkpt><trkpt lat="40.3861483" lon="15.0271867"><ele>13.0</ele><time>2026-04-25T11:17:05.975Z</time></trkpt><trkpt lat="40.38598" lon="15.0272"><ele>13.0</ele><time>2026-04-25T11:17:06.979Z</time></trkpt><trkpt lat="40.3858167" lon="15.027215"><ele>13.0</ele><time>2026-04-25T11:17:08.036Z</time></trkpt><trkpt lat="40.385665" lon="15.0272267"><ele>13.0</ele><time>2026-04-25T11:17:08.976Z</time></trkpt><trkpt lat="40.385525" lon="15.02723"><ele>13.0</ele><time>2026-04-25T11:17:09.974Z</time></trkpt><trkpt lat="40.385395" lon="15.027225"><ele>13.0</ele><time>2026-04-25T11:17:10.977Z</time></trkpt><trkpt lat="40.3852783" lon="15.0272"><ele>13.333333333333332</ele><time>2026-04-25T11:17:11.978Z</time></trkpt><trkpt lat="40.3851767" lon="15.0271483"><ele>13.666666666666666</ele><time>2026-04-25T11:17:12.976Z</time></trkpt><trkpt lat="40.38509" lon="15.027085"><ele>14.0</ele><time>2026-04-25T11:17:14.032Z</time></trkpt><trkpt lat="40.3850117" lon="15.0270367"><ele>14.333333333333332</ele><time>2026-04-25T11:17:14.968Z</time></trkpt><trkpt lat="40.384935" lon="15.02703"><ele>14.666666666666666</ele><time>2026-04-25T11:17:15.967Z</time></trkpt><trkpt lat="40.38487" lon="15.0270517"><ele>15.0</ele><time>2026-04-25T11:17:16.968Z</time></trkpt><trkpt lat="40.3847533" lon="15.0271483"><ele>15.0</ele><time>2026-04-25T11:17:18.97Z</time></trkpt><trkpt lat="40.3846833" lon="15.027225"><ele>15.0</ele><time>2026-04-25T11:17:20.034Z</time></trkpt><trkpt lat="40.38459" lon="15.0273"><ele>15.0</ele><time>2026-04-25T11:17:20.975Z</time></trkpt><trkpt lat="40.3844733" lon="15.0273583"><ele>15.0</ele><time>2026-04-25T11:17:21.974Z</time></trkpt><trkpt lat="40.3843583" lon="15.0273967"><ele>15.0</ele><time>2026-04-25T11:17:22.982Z</time></trkpt><trkpt lat="40.3842467" lon="15.02742"><ele>15.5</ele><time>2026-04-25T11:17:23.97Z</time></trkpt><trkpt lat="40.3841367" lon="15.0274383"><ele>16.0</ele><time>2026-04-25T11:17:24.976Z</time></trkpt><trkpt lat="40.38402" lon="15.0274583"><ele>16.5</ele><time>2026-04-25T11:17:26.036Z</time></trkpt><trkpt lat="40.3838983" lon="15.0274767"><ele>17.0</ele><time>2026-04-25T11:17:26.975Z</time></trkpt><trkpt lat="40.3837667" lon="15.0274933"><ele>17.333333333333336</ele><time>2026-04-25T11:17:27.973Z</time></trkpt><trkpt lat="40.383625" lon="15.0275067"><ele>17.666666666666668</ele><time>2026-04-25T11:17:28.985Z</time></trkpt><trkpt lat="40.3834667" lon="15.02752"><ele>18.0</ele><time>2026-04-25T11:17:29.97Z</time></trkpt><trkpt lat="40.3832967" lon="15.0275333"><ele>18.0</ele><time>2026-04-25T11:17:30.977Z</time></trkpt><trkpt lat="40.3831183" lon="15.027555"><ele>18.0</ele><time>2026-04-25T11:17:32.033Z</time></trkpt><trkpt lat="40.3829333" lon="15.027585"><ele>18.0</ele><time>2026-04-25T11:17:32.968Z</time></trkpt><trkpt lat="40.3827433" lon="15.0276183"><ele>19.0</ele><time>2026-04-25T11:17:33.965Z</time></trkpt><trkpt lat="40.3825483" lon="15.02765"><ele>20.0</ele><time>2026-04-25T11:17:34.972Z</time></trkpt><trkpt lat="40.382345" lon="15.0276767"><ele>21.0</ele><time>2026-04-25T11:17:35.972Z</time></trkpt><trkpt lat="40.382135" lon="15.0277033"><ele>21.333333333333332</ele><time>2026-04-25T11:17:36.975Z</time></trkpt><trkpt lat="40.3819267" lon="15.0277283"><ele>21.666666666666664</ele><time>2026-04-25T11:17:38.028Z</time></trkpt><trkpt lat="40.381725" lon="15.0277533"><ele>22.0</ele><time>2026-04-25T11:17:38.967Z</time></trkpt><trkpt lat="40.3815267" lon="15.02778"><ele>23.333333333333332</ele><time>2026-04-25T11:17:39.972Z</time></trkpt><trkpt lat="40.38133" lon="15.0278083"><ele>24.666666666666664</ele><time>2026-04-25T11:17:40.973Z</time></trkpt><trkpt lat="40.3811333" lon="15.0278367"><ele>26.0</ele><time>2026-04-25T11:17:41.968Z</time></trkpt><trkpt lat="40.3809383" lon="15.0278633"><ele>26.0</ele><time>2026-04-25T11:17:42.968Z</time></trkpt><trkpt lat="40.3807417" lon="15.02789"><ele>26.0</ele><time>2026-04-25T11:17:44.028Z</time></trkpt><trkpt lat="40.3805483" lon="15.0279133"><ele>26.0</ele><time>2026-04-25T11:17:44.972Z</time></trkpt><trkpt lat="40.3803533" lon="15.0279267"><ele>27.0</ele><time>2026-04-25T11:17:45.97Z</time></trkpt><trkpt lat="40.38016" lon="15.02793"><ele>28.0</ele><time>2026-04-25T11:17:46.978Z</time></trkpt><trkpt lat="40.3799617" lon="15.0279167"><ele>29.0</ele><time>2026-04-25T11:17:47.971Z</time></trkpt><trkpt lat="40.37976" lon="15.0278883"><ele>30.666666666666664</ele><time>2026-04-25T11:17:48.974Z</time></trkpt><trkpt lat="40.3795617" lon="15.0278383"><ele>32.333333333333336</ele><time>2026-04-25T11:17:50.028Z</time></trkpt><trkpt lat="40.379365" lon="15.02777"><ele>34.0</ele><time>2026-04-25T11:17:50.972Z</time></trkpt><trkpt lat="40.3791717" lon="15.0276883"><ele>34.0</ele><time>2026-04-25T11:17:51.978Z</time></trkpt><trkpt lat="40.3789833" lon="15.027585"><ele>34.0</ele><time>2026-04-25T11:17:52.973Z</time></trkpt><trkpt lat="40.3788" lon="15.0274667"><ele>34.0</ele><time>2026-04-25T11:17:53.972Z</time></trkpt><trkpt lat="40.378625" lon="15.0273267"><ele>34.66666666666667</ele><time>2026-04-25T11:17:54.975Z</time></trkpt><trkpt lat="40.37846" lon="15.0271717"><ele>35.333333333333336</ele><time>2026-04-25T11:17:56.039Z</time></trkpt><trkpt lat="40.3783017" lon="15.0270167"><ele>36.0</ele><time>2026-04-25T11:17:56.969Z</time></trkpt><trkpt lat="40.3781567" lon="15.026875"><ele>36.0</ele><time>2026-04-25T11:17:57.966Z</time></trkpt><trkpt lat="40.3780283" lon="15.0267767"><ele>36.0</ele><time>2026-04-25T11:17:58.975Z</time></trkpt><trkpt lat="40.3779083" lon="15.026705"><ele>36.0</ele><time>2026-04-25T11:17:59.974Z</time></trkpt><trkpt lat="40.3778067" lon="15.026695"><ele>36.0</ele><time>2026-04-25T11:18:00.98Z</time></trkpt><trkpt lat="40.37772" lon="15.026705"><ele>37.6</ele><time>2026-04-25T11:18:02.028Z</time></trkpt><trkpt lat="40.3776517" lon="15.02673"><ele>39.2</ele><time>2026-04-25T11:18:02.973Z</time></trkpt><trkpt lat="40.3775383" lon="15.0267283"><ele>40.800000000000004</ele><time>2026-04-25T11:18:04.976Z</time></trkpt><trkpt lat="40.3774183" lon="15.0265933"><ele>42.400000000000006</ele><time>2026-04-25T11:18:06.974Z</time></trkpt><trkpt lat="40.3773483" lon="15.0264883"><ele>44.0</ele><time>2026-04-25T11:18:08.031Z</time></trkpt><trkpt lat="40.377305" lon="15.0264033"><ele>44.0</ele><time>2026-04-25T11:18:08.971Z</time></trkpt><trkpt lat="40.37728" lon="15.026265"><ele>44.0</ele><time>2026-04-25T11:18:10.975Z</time></trkpt><trkpt lat="40.377295" lon="15.0261833"><ele>44.0</ele><time>2026-04-25T11:18:11.974Z</time></trkpt><trkpt lat="40.3773233" lon="15.02609"><ele>44.0</ele><time>2026-04-25T11:18:12.978Z</time></trkpt><trkpt lat="40.3773633" lon="15.0259867"><ele>44.0</ele><time>2026-04-25T11:18:14.029Z</time></trkpt><trkpt lat="40.3774017" lon="15.02586"><ele>44.0</ele><time>2026-04-25T11:18:14.968Z</time></trkpt><trkpt lat="40.377435" lon="15.0257267"><ele>43.666666666666664</ele><time>2026-04-25T11:18:15.971Z</time></trkpt><trkpt lat="40.3774667" lon="15.025595"><ele>43.33333333333333</ele><time>2026-04-25T11:18:16.973Z</time></trkpt><trkpt lat="40.3774933" lon="15.0254633"><ele>43.0</ele><time>2026-04-25T11:18:17.972Z</time></trkpt><trkpt lat="40.3775217" lon="15.0253483"><ele>42.666666666666664</ele><time>2026-04-25T11:18:18.978Z</time></trkpt><trkpt lat="40.3775567" lon="15.0252733"><ele>42.333333333333336</ele><time>2026-04-25T11:18:20.033Z</time></trkpt><trkpt lat="40.377605" lon="15.0252067"><ele>42.0</ele><time>2026-04-25T11:18:20.967Z</time></trkpt><trkpt lat="40.377665" lon="15.025145"><ele>42.0</ele><time>2026-04-25T11:18:21.975Z</time></trkpt><trkpt lat="40.3777367" lon="15.0250867"><ele>42.0</ele><time>2026-04-25T11:18:22.978Z</time></trkpt><trkpt lat="40.37782" lon="15.0250217"><ele>42.0</ele><time>2026-04-25T11:18:23.973Z</time></trkpt><trkpt lat="40.3779083" lon="15.0249533"><ele>42.0</ele><time>2026-04-25T11:18:24.983Z</time></trkpt><trkpt lat="40.3780117" lon="15.0248783"><ele>42.0</ele><time>2026-04-25T11:18:26.023Z</time></trkpt><trkpt lat="40.378105" lon="15.0248017"><ele>41.2</ele><time>2026-04-25T11:18:26.97Z</time></trkpt><trkpt lat="40.3782017" lon="15.0247233"><ele>40.400000000000006</ele><time>2026-04-25T11:18:27.973Z</time></trkpt><trkpt lat="40.37829" lon="15.0246367"><ele>39.599999999999994</ele><time>2026-04-25T11:18:28.964Z</time></trkpt><trkpt lat="40.3783383" lon="15.02456"><ele>38.8</ele><time>2026-04-25T11:18:29.97Z</time></trkpt><trkpt lat="40.3783933" lon="15.024465"><ele>38.0</ele><time>2026-04-25T11:18:30.977Z</time></trkpt><trkpt lat="40.3784383" lon="15.0243567"><ele>38.0</ele><time>2026-04-25T11:18:32.03Z</time></trkpt><trkpt lat="40.3784933" lon="15.02425"><ele>38.0</ele><time>2026-04-25T11:18:32.971Z</time></trkpt><trkpt lat="40.378545" lon="15.0241417"><ele>38.0</ele><time>2026-04-25T11:18:33.97Z</time></trkpt><trkpt lat="40.378605" lon="15.02403"><ele>38.0</ele><time>2026-04-25T11:18:34.976Z</time></trkpt><trkpt lat="40.3786717" lon="15.02392"><ele>38.0</ele><time>2026-04-25T11:18:35.972Z</time></trkpt><trkpt lat="40.37874" lon="15.02381"><ele>38.199999999999996</ele><time>2026-04-25T11:18:36.974Z</time></trkpt><trkpt lat="40.37881" lon="15.0236867"><ele>38.4</ele><time>2026-04-25T11:18:38.03Z</time></trkpt><trkpt lat="40.3788817" lon="15.0235717"><ele>38.599999999999994</ele><time>2026-04-25T11:18:38.971Z</time></trkpt><trkpt lat="40.378945" lon="15.02347"><ele>38.8</ele><time>2026-04-25T11:18:39.977Z</time></trkpt><trkpt lat="40.3790033" lon="15.0233767"><ele>39.0</ele><time>2026-04-25T11:18:40.978Z</time></trkpt><trkpt lat="40.3790467" lon="15.0232967"><ele>38.666666666666664</ele><time>2026-04-25T11:18:41.973Z</time></trkpt><trkpt lat="40.37908" lon="15.0232217"><ele>38.333333333333336</ele><time>2026-04-25T11:18:44.032Z</time></trkpt><trkpt lat="40.3790183" lon="15.02327"><ele>38.0</ele><time>2026-04-25T11:19:11.973Z</time></trkpt><trkpt lat="40.3789217" lon="15.0232783"><ele>37.66666666666667</ele><time>2026-04-25T11:19:14.974Z</time></trkpt><trkpt lat="40.3788017" lon="15.0232333"><ele>37.333333333333336</ele><time>2026-04-25T11:19:16.981Z</time></trkpt><trkpt lat="40.37873" lon="15.0232083"><ele>37.0</ele><time>2026-04-25T11:19:17.973Z</time></trkpt><trkpt lat="40.3786567" lon="15.02319"><ele>37.8</ele><time>2026-04-25T11:19:18.978Z</time></trkpt><trkpt lat="40.3785933" lon="15.0231733"><ele>38.6</ele><time>2026-04-25T11:19:20.028Z</time></trkpt><trkpt lat="40.3784817" lon="15.023135"><ele>39.4</ele><time>2026-04-25T11:19:21.973Z</time></trkpt><trkpt lat="40.3783983" lon="15.0230767"><ele>40.199999999999996</ele><time>2026-04-25T11:19:23.976Z</time></trkpt><trkpt lat="40.3783317" lon="15.0230067"><ele>41.0</ele><time>2026-04-25T11:19:26.037Z</time></trkpt><trkpt lat="40.378255" lon="15.0229433"><ele>41.0</ele><time>2026-04-25T11:19:27.972Z</time></trkpt><trkpt lat="40.3781717" lon="15.022875"><ele>41.0</ele><time>2026-04-25T11:19:29.976Z</time></trkpt><trkpt lat="40.3780767" lon="15.022815"><ele>41.0</ele><time>2026-04-25T11:19:32.031Z</time></trkpt><trkpt lat="40.3779717" lon="15.0227133"><ele>41.0</ele><time>2026-04-25T11:19:33.97Z</time></trkpt><trkpt lat="40.3778983" lon="15.0226483"><ele>41.0</ele><time>2026-04-25T11:19:34.969Z</time></trkpt><trkpt lat="40.37782" lon="15.022575"><ele>41.8</ele><time>2026-04-25T11:19:35.975Z</time></trkpt><trkpt lat="40.377725" lon="15.022505"><ele>42.599999999999994</ele><time>2026-04-25T11:19:36.975Z</time></trkpt><trkpt lat="40.3776317" lon="15.0224433"><ele>43.4</ele><time>2026-04-25T11:19:38.029Z</time></trkpt><trkpt lat="40.3775483" lon="15.0223917"><ele>44.2</ele><time>2026-04-25T11:19:38.969Z</time></trkpt><trkpt lat="40.3774583" lon="15.0223567"><ele>45.0</ele><time>2026-04-25T11:19:39.967Z</time></trkpt><trkpt lat="40.3773717" lon="15.02233"><ele>45.666666666666664</ele><time>2026-04-25T11:19:40.973Z</time></trkpt><trkpt lat="40.37729" lon="15.02231"><ele>46.33333333333333</ele><time>2026-04-25T11:19:41.971Z</time></trkpt><trkpt lat="40.377215" lon="15.022295"><ele>47.0</ele><time>2026-04-25T11:19:42.978Z</time></trkpt><trkpt lat="40.3771467" lon="15.02228"><ele>47.666666666666664</ele><time>2026-04-25T11:19:44.036Z</time></trkpt><trkpt lat="40.377035" lon="15.0222367"><ele>48.33333333333333</ele><time>2026-04-25T11:19:45.975Z</time></trkpt><trkpt lat="40.3769567" lon="15.0221883"><ele>49.0</ele><time>2026-04-25T11:19:47.972Z</time></trkpt><trkpt lat="40.37688" lon="15.0221417"><ele>50.800000000000004</ele><time>2026-04-25T11:19:50.974Z</time></trkpt><trkpt lat="40.3768083" lon="15.0221117"><ele>52.6</ele><time>2026-04-25T11:19:53.974Z</time></trkpt><trkpt lat="40.376715" lon="15.0220767"><ele>54.4</ele><time>2026-04-25T11:19:56.975Z</time></trkpt><trkpt lat="40.37662" lon="15.0220767"><ele>56.2</ele><time>2026-04-25T11:19:58.981Z</time></trkpt><trkpt lat="40.3765017" lon="15.02203"><ele>58.0</ele><time>2026-04-25T11:20:00.982Z</time></trkpt><trkpt lat="40.3764183" lon="15.0220233"><ele>60.0</ele><time>2026-04-25T11:20:02.032Z</time></trkpt><trkpt lat="40.3763217" lon="15.022025"><ele>62.0</ele><time>2026-04-25T11:20:02.969Z</time></trkpt><trkpt lat="40.3761883" lon="15.0220483"><ele>64.0</ele><time>2026-04-25T11:20:03.971Z</time></trkpt><trkpt lat="40.3760633" lon="15.0220667"><ele>66.0</ele><time>2026-04-25T11:20:04.975Z</time></trkpt><trkpt lat="40.3759517" lon="15.0220817"><ele>66.0</ele><time>2026-04-25T11:20:05.973Z</time></trkpt><trkpt lat="40.37584" lon="15.0220933"><ele>66.0</ele><time>2026-04-25T11:20:06.978Z</time></trkpt><trkpt lat="40.3757383" lon="15.0220933"><ele>66.0</ele><time>2026-04-25T11:20:08.036Z</time></trkpt><trkpt lat="40.3756533" lon="15.0221067"><ele>66.0</ele><time>2026-04-25T11:20:08.969Z</time></trkpt><trkpt lat="40.37557" lon="15.0221067"><ele>66.0</ele><time>2026-04-25T11:20:09.971Z</time></trkpt><trkpt lat="40.3754917" lon="15.0221033"><ele>67.33333333333333</ele><time>2026-04-25T11:20:10.977Z</time></trkpt><trkpt lat="40.3754117" lon="15.022105"><ele>68.66666666666667</ele><time>2026-04-25T11:20:11.972Z</time></trkpt><trkpt lat="40.3753483" lon="15.02211"><ele>70.0</ele><time>2026-04-25T11:20:12.977Z</time></trkpt><trkpt lat="40.3752467" lon="15.0221633"><ele>71.33333333333334</ele><time>2026-04-25T11:20:14.968Z</time></trkpt><trkpt lat="40.375155" lon="15.0222467"><ele>72.66666666666667</ele><time>2026-04-25T11:20:16.973Z</time></trkpt><trkpt lat="40.3750967" lon="15.0222867"><ele>74.0</ele><time>2026-04-25T11:20:17.98Z</time></trkpt><trkpt lat="40.375035" lon="15.022325"><ele>74.0</ele><time>2026-04-25T11:20:18.979Z</time></trkpt><trkpt lat="40.3749317" lon="15.02239"><ele>74.0</ele><time>2026-04-25T11:20:20.969Z</time></trkpt><trkpt lat="40.37487" lon="15.022425"><ele>74.0</ele><time>2026-04-25T11:20:22.969Z</time></trkpt><trkpt lat="40.37481" lon="15.0224733"><ele>74.0</ele><time>2026-04-25T11:20:26.038Z</time></trkpt><trkpt lat="40.3747267" lon="15.0225183"><ele>74.0</ele><time>2026-04-25T11:20:27.967Z</time></trkpt><trkpt lat="40.3746683" lon="15.02255"><ele>74.0</ele><time>2026-04-25T11:20:28.975Z</time></trkpt><trkpt lat="40.3745717" lon="15.0226133"><ele>76.16666666666667</ele><time>2026-04-25T11:20:30.974Z</time></trkpt><trkpt lat="40.3744883" lon="15.022605"><ele>78.33333333333334</ele><time>2026-04-25T11:20:34.975Z</time></trkpt><trkpt lat="40.374415" lon="15.022595"><ele>80.5</ele><time>2026-04-25T11:20:36.979Z</time></trkpt><trkpt lat="40.374345" lon="15.0226317"><ele>82.66666666666667</ele><time>2026-04-25T11:20:38.964Z</time></trkpt><trkpt lat="40.3742983" lon="15.0227067"><ele>84.83333333333333</ele><time>2026-04-25T11:20:41.973Z</time></trkpt><trkpt lat="40.3742067" lon="15.02269"><ele>87.0</ele><time>2026-04-25T11:20:52.975Z</time></trkpt><trkpt lat="40.3741383" lon="15.02272"><ele>87.0</ele><time>2026-04-25T11:20:54.968Z</time></trkpt><trkpt lat="40.3740267" lon="15.0227733"><ele>87.0</ele><time>2026-04-25T11:21:02.971Z</time></trkpt><trkpt lat="40.3739667" lon="15.0227367"><ele>87.0</ele><time>2026-04-25T11:21:06.977Z</time></trkpt><trkpt lat="40.3739733" lon="15.0226483"><ele>87.0</ele><time>2026-04-25T11:21:09.974Z</time></trkpt><trkpt lat="40.37394" lon="15.0225583"><ele>87.0</ele><time>2026-04-25T11:21:12.974Z</time></trkpt><trkpt lat="40.3738733" lon="15.022535"><ele>87.0</ele><time>2026-04-25T11:21:14.968Z</time></trkpt><trkpt lat="40.3737867" lon="15.0225733"><ele>91.6</ele><time>2026-04-25T11:21:16.978Z</time></trkpt><trkpt lat="40.3737083" lon="15.0226183"><ele>96.19999999999999</ele><time>2026-04-25T11:21:18.976Z</time></trkpt><trkpt lat="40.3736317" lon="15.0226467"><ele>100.8</ele><time>2026-04-25T11:21:20.972Z</time></trkpt><trkpt lat="40.373555" lon="15.0225617"><ele>105.4</ele><time>2026-04-25T11:21:23.974Z</time></trkpt><trkpt lat="40.3735267" lon="15.02242"><ele>110.0</ele><time>2026-04-25T11:21:26.033Z</time></trkpt><trkpt lat="40.3734717" lon="15.0223317"><ele>109.99999999999999</ele><time>2026-04-25T11:21:27.971Z</time></trkpt><trkpt lat="40.373395" lon="15.0223033"><ele>110.0</ele><time>2026-04-25T11:21:29.973Z</time></trkpt><trkpt lat="40.3733133" lon="15.02234"><ele>110.0</ele><time>2026-04-25T11:21:32.032Z</time></trkpt><trkpt lat="40.3732317" lon="15.0223983"><ele>110.0</ele><time>2026-04-25T11:21:33.972Z</time></trkpt><trkpt lat="40.3731633" lon="15.0225"><ele>109.99999999999999</ele><time>2026-04-25T11:21:35.976Z</time></trkpt><trkpt lat="40.3731217" lon="15.0226"><ele>110.0</ele><time>2026-04-25T11:21:38.029Z</time></trkpt><trkpt lat="40.3730983" lon="15.02271"><ele>109.99999999999999</ele><time>2026-04-25T11:21:39.971Z</time></trkpt><trkpt lat="40.37306" lon="15.022865"><ele>110.0</ele><time>2026-04-25T11:21:41.974Z</time></trkpt><trkpt lat="40.3730333" lon="15.0229517"><ele>110.0</ele><time>2026-04-25T11:21:42.979Z</time></trkpt><trkpt lat="40.3729933" lon="15.0230333"><ele>110.0</ele><time>2026-04-25T11:21:44.032Z</time></trkpt><trkpt lat="40.3729533" lon="15.0231033"><ele>109.99999999999999</ele><time>2026-04-25T11:21:44.971Z</time></trkpt><trkpt lat="40.3728983" lon="15.023165"><ele>110.0</ele><time>2026-04-25T11:21:45.97Z</time></trkpt><trkpt lat="40.3728167" lon="15.0232483"><ele>114.6</ele><time>2026-04-25T11:21:47.973Z</time></trkpt><trkpt lat="40.37274" lon="15.0232817"><ele>119.2</ele><time>2026-04-25T11:21:50.033Z</time></trkpt><trkpt lat="40.37263" lon="15.0232433"><ele>123.80000000000001</ele><time>2026-04-25T11:21:51.967Z</time></trkpt><trkpt lat="40.3725633" lon="15.0231967"><ele>128.4</ele><time>2026-04-25T11:21:52.975Z</time></trkpt><trkpt lat="40.3724567" lon="15.0231667"><ele>133.0</ele><time>2026-04-25T11:21:54.978Z</time></trkpt><trkpt lat="40.3723583" lon="15.0231933"><ele>133.0</ele><time>2026-04-25T11:21:56.968Z</time></trkpt><trkpt lat="40.3722967" lon="15.0232617"><ele>133.0</ele><time>2026-04-25T11:21:58.975Z</time></trkpt><trkpt lat="40.37225" lon="15.0234267"><ele>133.0</ele><time>2026-04-25T11:22:00.979Z</time></trkpt><trkpt lat="40.3722333" lon="15.023575"><ele>133.0</ele><time>2026-04-25T11:22:02.029Z</time></trkpt><trkpt lat="40.37222" lon="15.023705"><ele>133.0</ele><time>2026-04-25T11:22:02.972Z</time></trkpt><trkpt lat="40.3722133" lon="15.02382"><ele>134.0</ele><time>2026-04-25T11:22:03.969Z</time></trkpt><trkpt lat="40.37221" lon="15.0239217"><ele>135.0</ele><time>2026-04-25T11:22:04.978Z</time></trkpt><trkpt lat="40.3721983" lon="15.0240117"><ele>136.0</ele><time>2026-04-25T11:22:05.976Z</time></trkpt><trkpt lat="40.3721733" lon="15.0240983"><ele>137.0</ele><time>2026-04-25T11:22:06.974Z</time></trkpt><trkpt lat="40.372125" lon="15.0241783"><ele>138.0</ele><time>2026-04-25T11:22:08.039Z</time></trkpt><trkpt lat="40.372055" lon="15.024235"><ele>139.0</ele><time>2026-04-25T11:22:08.97Z</time></trkpt><trkpt lat="40.371975" lon="15.02429"><ele>139.0</ele><time>2026-04-25T11:22:09.97Z</time></trkpt><trkpt lat="40.3718933" lon="15.0243483"><ele>139.0</ele><time>2026-04-25T11:22:10.977Z</time></trkpt><trkpt lat="40.3718083" lon="15.0244133"><ele>139.0</ele><time>2026-04-25T11:22:11.971Z</time></trkpt><trkpt lat="40.3716983" lon="15.0244817"><ele>139.0</ele><time>2026-04-25T11:22:12.975Z</time></trkpt><trkpt lat="40.37159" lon="15.02455"><ele>139.0</ele><time>2026-04-25T11:22:14.037Z</time></trkpt><trkpt lat="40.37149" lon="15.0246167"><ele>139.0</ele><time>2026-04-25T11:22:14.97Z</time></trkpt><trkpt lat="40.3713883" lon="15.0246917"><ele>139.0</ele><time>2026-04-25T11:22:15.968Z</time></trkpt><trkpt lat="40.3712967" lon="15.0247467"><ele>139.0</ele><time>2026-04-25T11:22:16.975Z</time></trkpt><trkpt lat="40.3712083" lon="15.0247817"><ele>139.0</ele><time>2026-04-25T11:22:17.976Z</time></trkpt><trkpt lat="40.371115" lon="15.0247"><ele>139.0</ele><time>2026-04-25T11:22:20.033Z</time></trkpt><trkpt lat="40.3711283" lon="15.0244467"><ele>147.5</ele><time>2026-04-25T11:22:20.969Z</time></trkpt><trkpt lat="40.3711283" lon="15.0242583"><ele>156.0</ele><time>2026-04-25T11:22:21.969Z</time></trkpt><trkpt lat="40.3711683" lon="15.0240783"><ele>164.5</ele><time>2026-04-25T11:22:22.971Z</time></trkpt><trkpt lat="40.371185" lon="15.0239067"><ele>173.0</ele><time>2026-04-25T11:22:23.974Z</time></trkpt><trkpt lat="40.3711933" lon="15.0237483"><ele>173.0</ele><time>2026-04-25T11:22:24.974Z</time></trkpt><trkpt lat="40.3712017" lon="15.0236017"><ele>173.0</ele><time>2026-04-25T11:22:26.041Z</time></trkpt><trkpt lat="40.3711617" lon="15.0235117"><ele>173.0</ele><time>2026-04-25T11:22:26.968Z</time></trkpt><trkpt lat="40.3711317" lon="15.0234283"><ele>173.0</ele><time>2026-04-25T11:22:27.975Z</time></trkpt><trkpt lat="40.3710667" lon="15.02342"><ele>173.0</ele><time>2026-04-25T11:22:30.975Z</time></trkpt><trkpt lat="40.37107" lon="15.023535"><ele>173.0</ele><time>2026-04-25T11:22:32.033Z</time></trkpt><trkpt lat="40.3710567" lon="15.0236467"><ele>173.0</ele><time>2026-04-25T11:22:32.967Z</time></trkpt><trkpt lat="40.37104" lon="15.0237617"><ele>173.0</ele><time>2026-04-25T11:22:33.978Z</time></trkpt><trkpt lat="40.3709983" lon="15.02389"><ele>173.0</ele><time>2026-04-25T11:22:34.974Z</time></trkpt><trkpt lat="40.37096" lon="15.024"><ele>173.0</ele><time>2026-04-25T11:22:35.97Z</time></trkpt><trkpt lat="40.3709033" lon="15.0241"><ele>173.0</ele><time>2026-04-25T11:22:36.982Z</time></trkpt><trkpt lat="40.370835" lon="15.0241883"><ele>173.2</ele><time>2026-04-25T11:22:38.026Z</time></trkpt><trkpt lat="40.3707383" lon="15.0242717"><ele>173.4</ele><time>2026-04-25T11:22:38.967Z</time></trkpt><trkpt lat="40.3706483" lon="15.024355"><ele>173.6</ele><time>2026-04-25T11:22:39.971Z</time></trkpt><trkpt lat="40.3705533" lon="15.02443"><ele>173.79999999999998</ele><time>2026-04-25T11:22:40.975Z</time></trkpt><trkpt lat="40.370485" lon="15.0245217"><ele>174.0</ele><time>2026-04-25T11:22:41.972Z</time></trkpt><trkpt lat="40.3704217" lon="15.0246067"><ele>180.2</ele><time>2026-04-25T11:22:42.974Z</time></trkpt><trkpt lat="40.3703783" lon="15.0246883"><ele>186.39999999999998</ele><time>2026-04-25T11:22:44.025Z</time></trkpt><trkpt lat="40.3703067" lon="15.0248217"><ele>192.6</ele><time>2026-04-25T11:22:45.97Z</time></trkpt><trkpt lat="40.37025" lon="15.0248983"><ele>198.8</ele><time>2026-04-25T11:22:47.969Z</time></trkpt><trkpt lat="40.37021" lon="15.024795"><ele>205.0</ele><time>2026-04-25T11:22:51.971Z</time></trkpt><trkpt lat="40.3702333" lon="15.02469"><ele>205.0</ele><time>2026-04-25T11:22:52.975Z</time></trkpt><trkpt lat="40.37026" lon="15.0245733"><ele>205.0</ele><time>2026-04-25T11:22:53.972Z</time></trkpt><trkpt lat="40.3702867" lon="15.0244283"><ele>205.0</ele><time>2026-04-25T11:22:54.974Z</time></trkpt><trkpt lat="40.3703167" lon="15.024325"><ele>205.0</ele><time>2026-04-25T11:22:56.038Z</time></trkpt><trkpt lat="40.37035" lon="15.0242267"><ele>205.0</ele><time>2026-04-25T11:22:56.969Z</time></trkpt><trkpt lat="40.3703783" lon="15.0240933"><ele>204.99999999999997</ele><time>2026-04-25T11:22:58.975Z</time></trkpt><trkpt lat="40.3703883" lon="15.0240083"><ele>205.0</ele><time>2026-04-25T11:23:00.973Z</time></trkpt><trkpt lat="40.3703317" lon="15.0240783"><ele>205.0</ele><time>2026-04-25T11:23:02.969Z</time></trkpt><trkpt lat="40.3702683" lon="15.0241833"><ele>205.0</ele><time>2026-04-25T11:23:03.974Z</time></trkpt><trkpt lat="40.3702167" lon="15.0242533"><ele>204.99999999999997</ele><time>2026-04-25T11:23:04.98Z</time></trkpt><trkpt lat="40.3701483" lon="15.0243583"><ele>205.0</ele><time>2026-04-25T11:23:05.968Z</time></trkpt><trkpt lat="40.3700717" lon="15.0244517"><ele>205.0</ele><time>2026-04-25T11:23:06.969Z</time></trkpt><trkpt lat="40.3700117" lon="15.02453"><ele>205.0</ele><time>2026-04-25T11:23:08.034Z</time></trkpt><trkpt lat="40.36996" lon="15.0245917"><ele>205.0</ele><time>2026-04-25T11:23:08.969Z</time></trkpt><trkpt lat="40.369895" lon="15.0246517"><ele>205.0</ele><time>2026-04-25T11:23:09.971Z</time></trkpt><trkpt lat="40.36983" lon="15.0247"><ele>205.0</ele><time>2026-04-25T11:23:10.975Z</time></trkpt><trkpt lat="40.3697617" lon="15.024725"><ele>205.0</ele><time>2026-04-25T11:23:11.971Z</time></trkpt><trkpt lat="40.3696983" lon="15.0247317"><ele>205.0</ele><time>2026-04-25T11:23:12.979Z</time></trkpt><trkpt lat="40.369585" lon="15.0247183"><ele>209.6</ele><time>2026-04-25T11:23:14.966Z</time></trkpt><trkpt lat="40.369525" lon="15.02464"><ele>214.2</ele><time>2026-04-25T11:23:16.977Z</time></trkpt><trkpt lat="40.3695317" lon="15.02447"><ele>218.8</ele><time>2026-04-25T11:23:18.971Z</time></trkpt><trkpt lat="40.36956" lon="15.0243783"><ele>223.4</ele><time>2026-04-25T11:23:20.027Z</time></trkpt><trkpt lat="40.3696217" lon="15.024275"><ele>228.0</ele><time>2026-04-25T11:23:20.974Z</time></trkpt><trkpt lat="40.3696833" lon="15.0241783"><ele>226.60000000000002</ele><time>2026-04-25T11:23:21.971Z</time></trkpt><trkpt lat="40.369735" lon="15.024085"><ele>225.20000000000002</ele><time>2026-04-25T11:23:22.993Z</time></trkpt><trkpt lat="40.3697517" lon="15.024"><ele>223.8</ele><time>2026-04-25T11:23:23.968Z</time></trkpt><trkpt lat="40.369725" lon="15.02391"><ele>222.4</ele><time>2026-04-25T11:23:24.976Z</time></trkpt><trkpt lat="40.3696533" lon="15.0237583"><ele>221.0</ele><time>2026-04-25T11:23:26.037Z</time></trkpt><trkpt lat="40.3695883" lon="15.02362"><ele>221.0</ele><time>2026-04-25T11:23:26.971Z</time></trkpt><trkpt lat="40.3695383" lon="15.0234817"><ele>221.00000000000003</ele><time>2026-04-25T11:23:27.973Z</time></trkpt><trkpt lat="40.3694917" lon="15.0233517"><ele>221.00000000000003</ele><time>2026-04-25T11:23:28.975Z</time></trkpt><trkpt lat="40.36945" lon="15.0232267"><ele>221.0</ele><time>2026-04-25T11:23:29.978Z</time></trkpt><trkpt lat="40.36941" lon="15.0231017"><ele>221.0</ele><time>2026-04-25T11:23:30.972Z</time></trkpt><trkpt lat="40.3693717" lon="15.0229833"><ele>221.20000000000002</ele><time>2026-04-25T11:23:32.033Z</time></trkpt><trkpt lat="40.3693267" lon="15.0228517"><ele>221.40000000000003</ele><time>2026-04-25T11:23:32.971Z</time></trkpt><trkpt lat="40.36928" lon="15.0227283"><ele>221.6</ele><time>2026-04-25T11:23:33.968Z</time></trkpt><trkpt lat="40.3692233" lon="15.02261"><ele>221.8</ele><time>2026-04-25T11:23:34.972Z</time></trkpt><trkpt lat="40.369185" lon="15.0224983"><ele>222.0</ele><time>2026-04-25T11:23:35.973Z</time></trkpt><trkpt lat="40.3691483" lon="15.0223883"><ele>222.0</ele><time>2026-04-25T11:23:36.969Z</time></trkpt><trkpt lat="40.369115" lon="15.022275"><ele>222.0</ele><time>2026-04-25T11:23:38.029Z</time></trkpt><trkpt lat="40.3690883" lon="15.02215"><ele>222.0</ele><time>2026-04-25T11:23:38.97Z</time></trkpt><trkpt lat="40.369065" lon="15.0220317"><ele>222.0</ele><time>2026-04-25T11:23:39.972Z</time></trkpt><trkpt lat="40.3690617" lon="15.0219033"><ele>222.0</ele><time>2026-04-25T11:23:40.977Z</time></trkpt><trkpt lat="40.36908" lon="15.0217567"><ele>223.0</ele><time>2026-04-25T11:23:41.966Z</time></trkpt><trkpt lat="40.3691317" lon="15.0216117"><ele>224.0</ele><time>2026-04-25T11:23:42.974Z</time></trkpt><trkpt lat="40.3691733" lon="15.02149"><ele>225.0</ele><time>2026-04-25T11:23:44.032Z</time></trkpt><trkpt lat="40.3692283" lon="15.0213783"><ele>226.0</ele><time>2026-04-25T11:23:44.973Z</time></trkpt><trkpt lat="40.3692833" lon="15.021305"><ele>227.0</ele><time>2026-04-25T11:23:45.97Z</time></trkpt><trkpt lat="40.3693533" lon="15.0212483"><ele>227.0</ele><time>2026-04-25T11:23:46.97Z</time></trkpt><trkpt lat="40.36942" lon="15.0211567"><ele>227.0</ele><time>2026-04-25T11:23:50.972Z</time></trkpt><trkpt lat="40.36942" lon="15.0210667"><ele>227.0</ele><time>2026-04-25T11:23:53.973Z</time></trkpt><trkpt lat="40.3693567" lon="15.021075"><ele>227.0</ele><time>2026-04-25T11:23:57.97Z</time></trkpt><trkpt lat="40.3692367" lon="15.0211833"><ele>227.0</ele><time>2026-04-25T11:23:59.971Z</time></trkpt><trkpt lat="40.3691483" lon="15.0212733"><ele>227.0</ele><time>2026-04-25T11:24:00.974Z</time></trkpt><trkpt lat="40.3690767" lon="15.0213783"><ele>227.0</ele><time>2026-04-25T11:24:02.036Z</time></trkpt><trkpt lat="40.36901" lon="15.0214833"><ele>227.0</ele><time>2026-04-25T11:24:02.97Z</time></trkpt><trkpt lat="40.3689483" lon="15.02159"><ele>227.0</ele><time>2026-04-25T11:24:03.969Z</time></trkpt><trkpt lat="40.3688817" lon="15.0217117"><ele>227.0</ele><time>2026-04-25T11:24:04.981Z</time></trkpt><trkpt lat="40.3688217" lon="15.0218183"><ele>233.39999999999998</ele><time>2026-04-25T11:24:05.977Z</time></trkpt><trkpt lat="40.368775" lon="15.0219333"><ele>239.79999999999998</ele><time>2026-04-25T11:24:06.985Z</time></trkpt><trkpt lat="40.3687167" lon="15.0220667"><ele>246.2</ele><time>2026-04-25T11:24:08.033Z</time></trkpt><trkpt lat="40.3686733" lon="15.022195"><ele>252.6</ele><time>2026-04-25T11:24:08.971Z</time></trkpt><trkpt lat="40.368635" lon="15.0223133"><ele>259.0</ele><time>2026-04-25T11:24:09.971Z</time></trkpt><trkpt lat="40.3685917" lon="15.0224233"><ele>257.0</ele><time>2026-04-25T11:24:10.969Z</time></trkpt><trkpt lat="40.3685417" lon="15.022525"><ele>254.99999999999997</ele><time>2026-04-25T11:24:11.971Z</time></trkpt><trkpt lat="40.3684783" lon="15.0226233"><ele>252.99999999999997</ele><time>2026-04-25T11:24:12.969Z</time></trkpt><trkpt lat="40.3684017" lon="15.0227267"><ele>251.0</ele><time>2026-04-25T11:24:14.035Z</time></trkpt><trkpt lat="40.3683233" lon="15.0228317"><ele>249.0</ele><time>2026-04-25T11:24:14.968Z</time></trkpt><trkpt lat="40.3682667" lon="15.0229383"><ele>249.0</ele><time>2026-04-25T11:24:15.97Z</time></trkpt><trkpt lat="40.3682017" lon="15.0230633"><ele>248.99999999999997</ele><time>2026-04-25T11:24:16.971Z</time></trkpt><trkpt lat="40.368135" lon="15.0231767"><ele>248.99999999999997</ele><time>2026-04-25T11:24:17.973Z</time></trkpt><trkpt lat="40.3680783" lon="15.0232767"><ele>249.0</ele><time>2026-04-25T11:24:18.972Z</time></trkpt><trkpt lat="40.36802" lon="15.0233667"><ele>249.0</ele><time>2026-04-25T11:24:20.036Z</time></trkpt><trkpt lat="40.36795" lon="15.0233267"><ele>250.5</ele><time>2026-04-25T11:24:24.974Z</time></trkpt><trkpt lat="40.36794" lon="15.0231867"><ele>252.0</ele><time>2026-04-25T11:24:26.04Z</time></trkpt><trkpt lat="40.3679217" lon="15.0230483"><ele>253.5</ele><time>2026-04-25T11:24:26.97Z</time></trkpt><trkpt lat="40.3679067" lon="15.0228933"><ele>255.0</ele><time>2026-04-25T11:24:27.97Z</time></trkpt><trkpt lat="40.3679033" lon="15.0227167"><ele>255.0</ele><time>2026-04-25T11:24:28.969Z</time></trkpt><trkpt lat="40.3679217" lon="15.0225083"><ele>255.0</ele><time>2026-04-25T11:24:29.974Z</time></trkpt><trkpt lat="40.3679867" lon="15.0222667"><ele>255.0</ele><time>2026-04-25T11:24:30.978Z</time></trkpt><trkpt lat="40.368045" lon="15.0220383"><ele>256.0</ele><time>2026-04-25T11:24:32.035Z</time></trkpt><trkpt lat="40.3681033" lon="15.0218317"><ele>257.0</ele><time>2026-04-25T11:24:32.966Z</time></trkpt><trkpt lat="40.3681783" lon="15.0216667"><ele>258.0</ele><time>2026-04-25T11:24:33.968Z</time></trkpt><trkpt lat="40.3682483" lon="15.0215183"><ele>259.0</ele><time>2026-04-25T11:24:34.973Z</time></trkpt><trkpt lat="40.3683083" lon="15.0213933"><ele>259.2</ele><time>2026-04-25T11:24:35.974Z</time></trkpt><trkpt lat="40.3683483" lon="15.021285"><ele>259.4</ele><time>2026-04-25T11:24:36.978Z</time></trkpt><trkpt lat="40.3683417" lon="15.0211583"><ele>259.6</ele><time>2026-04-25T11:24:38.028Z</time></trkpt><trkpt lat="40.3683267" lon="15.0210133"><ele>259.8</ele><time>2026-04-25T11:24:38.965Z</time></trkpt><trkpt lat="40.36831" lon="15.02085"><ele>260.0</ele><time>2026-04-25T11:24:39.97Z</time></trkpt><trkpt lat="40.3682933" lon="15.02069"><ele>261.0</ele><time>2026-04-25T11:24:40.972Z</time></trkpt><trkpt lat="40.3682783" lon="15.0205317"><ele>262.0</ele><time>2026-04-25T11:24:41.971Z</time></trkpt><trkpt lat="40.3682567" lon="15.02038"><ele>263.0</ele><time>2026-04-25T11:24:42.971Z</time></trkpt><trkpt lat="40.3681967" lon="15.0202417"><ele>264.0</ele><time>2026-04-25T11:24:44.028Z</time></trkpt><trkpt lat="40.3681233" lon="15.020095"><ele>264.3333333333333</ele><time>2026-04-25T11:24:44.966Z</time></trkpt><trkpt lat="40.3680033" lon="15.019935"><ele>264.66666666666663</ele><time>2026-04-25T11:24:45.969Z</time></trkpt><trkpt lat="40.3678783" lon="15.0197733"><ele>265.0</ele><time>2026-04-25T11:24:46.976Z</time></trkpt><trkpt lat="40.367745" lon="15.0196267"><ele>265.0</ele><time>2026-04-25T11:24:47.97Z</time></trkpt><trkpt lat="40.36762" lon="15.0194817"><ele>265.0</ele><time>2026-04-25T11:24:48.975Z</time></trkpt><trkpt lat="40.3675083" lon="15.0193333"><ele>265.0</ele><time>2026-04-25T11:24:50.029Z</time></trkpt><trkpt lat="40.367405" lon="15.0191733"><ele>268.66666666666663</ele><time>2026-04-25T11:24:50.967Z</time></trkpt><trkpt lat="40.3673067" lon="15.0189983"><ele>272.3333333333333</ele><time>2026-04-25T11:24:51.97Z</time></trkpt><trkpt lat="40.3672117" lon="15.0188167"><ele>276.0</ele><time>2026-04-25T11:24:52.975Z</time></trkpt><trkpt lat="40.3671283" lon="15.01864"><ele>264.6666666666667</ele><time>2026-04-25T11:24:53.969Z</time></trkpt><trkpt lat="40.367055" lon="15.0184567"><ele>253.33333333333334</ele><time>2026-04-25T11:24:54.975Z</time></trkpt><trkpt lat="40.3669883" lon="15.01826"><ele>242.0</ele><time>2026-04-25T11:24:56.037Z</time></trkpt><trkpt lat="40.3669217" lon="15.01805"><ele>242.0</ele><time>2026-04-25T11:24:56.971Z</time></trkpt><trkpt lat="40.3668667" lon="15.017815"><ele>242.0</ele><time>2026-04-25T11:24:57.974Z</time></trkpt><trkpt lat="40.36682" lon="15.0175683"><ele>242.0</ele><time>2026-04-25T11:24:58.977Z</time></trkpt><trkpt lat="40.366775" lon="15.01733"><ele>243.0</ele><time>2026-04-25T11:24:59.971Z</time></trkpt><trkpt lat="40.3667383" lon="15.0171233"><ele>244.0</ele><time>2026-04-25T11:25:00.975Z</time></trkpt><trkpt lat="40.3666967" lon="15.0169383"><ele>245.0</ele><time>2026-04-25T11:25:02.033Z</time></trkpt><trkpt lat="40.3666483" lon="15.0167783"><ele>246.0</ele><time>2026-04-25T11:25:02.969Z</time></trkpt><trkpt lat="40.36659" lon="15.0166467"><ele>241.75</ele><time>2026-04-25T11:25:03.969Z</time></trkpt><trkpt lat="40.36651" lon="15.0165367"><ele>237.5</ele><time>2026-04-25T11:25:04.976Z</time></trkpt><trkpt lat="40.3664083" lon="15.0164733"><ele>233.25</ele><time>2026-04-25T11:25:05.973Z</time></trkpt><trkpt lat="40.3662683" lon="15.0164817"><ele>229.0</ele><time>2026-04-25T11:25:06.973Z</time></trkpt><trkpt lat="40.3661317" lon="15.016485"><ele>227.33333333333331</ele><time>2026-04-25T11:25:08.03Z</time></trkpt><trkpt lat="40.3659717" lon="15.0165183"><ele>225.66666666666669</ele><time>2026-04-25T11:25:08.963Z</time></trkpt><trkpt lat="40.365815" lon="15.01654"><ele>224.0</ele><time>2026-04-25T11:25:09.968Z</time></trkpt><trkpt lat="40.365655" lon="15.0165417"><ele>221.66666666666669</ele><time>2026-04-25T11:25:10.977Z</time></trkpt><trkpt lat="40.3654933" lon="15.01651"><ele>219.33333333333331</ele><time>2026-04-25T11:25:11.969Z</time></trkpt><trkpt lat="40.365325" lon="15.0164633"><ele>217.0</ele><time>2026-04-25T11:25:12.973Z</time></trkpt><trkpt lat="40.3651517" lon="15.0163933"><ele>217.0</ele><time>2026-04-25T11:25:14.034Z</time></trkpt><trkpt lat="40.3649817" lon="15.016325"><ele>217.0</ele><time>2026-04-25T11:25:14.973Z</time></trkpt><trkpt lat="40.3648167" lon="15.01626"><ele>217.0</ele><time>2026-04-25T11:25:15.974Z</time></trkpt><trkpt lat="40.364655" lon="15.0162"><ele>216.33333333333331</ele><time>2026-04-25T11:25:16.972Z</time></trkpt><trkpt lat="40.3644917" lon="15.01615"><ele>215.66666666666669</ele><time>2026-04-25T11:25:17.964Z</time></trkpt><trkpt lat="40.364335" lon="15.0161083"><ele>215.0</ele><time>2026-04-25T11:25:18.973Z</time></trkpt><trkpt lat="40.364185" lon="15.0160733"><ele>215.0</ele><time>2026-04-25T11:25:20.032Z</time></trkpt><trkpt lat="40.36405" lon="15.0160367"><ele>215.0</ele><time>2026-04-25T11:25:20.966Z</time></trkpt><trkpt lat="40.363925" lon="15.0159883"><ele>215.0</ele><time>2026-04-25T11:25:21.972Z</time></trkpt><trkpt lat="40.36383" lon="15.0158983"><ele>215.0</ele><time>2026-04-25T11:25:22.975Z</time></trkpt><trkpt lat="40.3637433" lon="15.01579"><ele>211.25</ele><time>2026-04-25T11:25:23.977Z</time></trkpt><trkpt lat="40.36365" lon="15.015695"><ele>207.5</ele><time>2026-04-25T11:25:24.976Z</time></trkpt><trkpt lat="40.36355" lon="15.0156167"><ele>203.75</ele><time>2026-04-25T11:25:26.028Z</time></trkpt><trkpt lat="40.3634467" lon="15.01555"><ele>200.0</ele><time>2026-04-25T11:25:26.969Z</time></trkpt><trkpt lat="40.3633133" lon="15.015505"><ele>200.0</ele><time>2026-04-25T11:25:27.975Z</time></trkpt><trkpt lat="40.363165" lon="15.0154733"><ele>200.0</ele><time>2026-04-25T11:25:28.969Z</time></trkpt><trkpt lat="40.363" lon="15.01544"><ele>200.0</ele><time>2026-04-25T11:25:29.972Z</time></trkpt><trkpt lat="40.3628333" lon="15.0154033"><ele>203.66666666666669</ele><time>2026-04-25T11:25:30.972Z</time></trkpt><trkpt lat="40.3626517" lon="15.015365"><ele>207.33333333333331</ele><time>2026-04-25T11:25:32.033Z</time></trkpt><trkpt lat="40.3624767" lon="15.0153267"><ele>211.0</ele><time>2026-04-25T11:25:32.968Z</time></trkpt><trkpt lat="40.362315" lon="15.015295"><ele>212.25</ele><time>2026-04-25T11:25:33.966Z</time></trkpt><trkpt lat="40.3621733" lon="15.0152467"><ele>213.5</ele><time>2026-04-25T11:25:34.971Z</time></trkpt><trkpt lat="40.3620467" lon="15.0151817"><ele>214.75</ele><time>2026-04-25T11:25:35.976Z</time></trkpt><trkpt lat="40.3619333" lon="15.015095"><ele>216.0</ele><time>2026-04-25T11:25:36.975Z</time></trkpt><trkpt lat="40.3618417" lon="15.01499"><ele>213.75</ele><time>2026-04-25T11:25:38.034Z</time></trkpt><trkpt lat="40.36177" lon="15.014865"><ele>211.5</ele><time>2026-04-25T11:25:38.971Z</time></trkpt><trkpt lat="40.3617067" lon="15.0147233"><ele>209.25</ele><time>2026-04-25T11:25:39.971Z</time></trkpt><trkpt lat="40.3616367" lon="15.0145633"><ele>207.0</ele><time>2026-04-25T11:25:40.975Z</time></trkpt><trkpt lat="40.3615467" lon="15.0144033"><ele>207.0</ele><time>2026-04-25T11:25:41.976Z</time></trkpt><trkpt lat="40.36144" lon="15.0142433"><ele>207.0</ele><time>2026-04-25T11:25:42.973Z</time></trkpt><trkpt lat="40.36133" lon="15.0140883"><ele>207.0</ele><time>2026-04-25T11:25:44.029Z</time></trkpt><trkpt lat="40.3612117" lon="15.013935"><ele>204.33333333333331</ele><time>2026-04-25T11:25:44.97Z</time></trkpt><trkpt lat="40.3610867" lon="15.013775"><ele>201.66666666666666</ele><time>2026-04-25T11:25:45.972Z</time></trkpt><trkpt lat="40.3609483" lon="15.013615"><ele>199.0</ele><time>2026-04-25T11:25:46.97Z</time></trkpt><trkpt lat="40.3608083" lon="15.01346"><ele>197.33333333333331</ele><time>2026-04-25T11:25:47.971Z</time></trkpt><trkpt lat="40.3606717" lon="15.0133217"><ele>195.66666666666669</ele><time>2026-04-25T11:25:48.973Z</time></trkpt><trkpt lat="40.360535" lon="15.01321"><ele>194.0</ele><time>2026-04-25T11:25:50.036Z</time></trkpt><trkpt lat="40.3604" lon="15.013115"><ele>194.0</ele><time>2026-04-25T11:25:50.969Z</time></trkpt><trkpt lat="40.360255" lon="15.0130283"><ele>194.0</ele><time>2026-04-25T11:25:51.972Z</time></trkpt><trkpt lat="40.36011" lon="15.0129333"><ele>194.0</ele><time>2026-04-25T11:25:52.972Z</time></trkpt><trkpt lat="40.3599617" lon="15.01283"><ele>194.0</ele><time>2026-04-25T11:25:53.966Z</time></trkpt><trkpt lat="40.3598217" lon="15.0127117"><ele>194.0</ele><time>2026-04-25T11:25:54.976Z</time></trkpt><trkpt lat="40.359675" lon="15.0125883"><ele>194.0</ele><time>2026-04-25T11:25:56.028Z</time></trkpt><trkpt lat="40.35953" lon="15.0124867"><ele>193.5</ele><time>2026-04-25T11:25:56.968Z</time></trkpt><trkpt lat="40.35939" lon="15.0124117"><ele>193.0</ele><time>2026-04-25T11:25:57.972Z</time></trkpt><trkpt lat="40.3592567" lon="15.0123583"><ele>192.5</ele><time>2026-04-25T11:25:58.975Z</time></trkpt><trkpt lat="40.3591133" lon="15.01231"><ele>192.0</ele><time>2026-04-25T11:25:59.971Z</time></trkpt><trkpt lat="40.35896" lon="15.0122667"><ele>190.0</ele><time>2026-04-25T11:26:00.979Z</time></trkpt><trkpt lat="40.3588017" lon="15.012215"><ele>188.0</ele><time>2026-04-25T11:26:02.033Z</time></trkpt><trkpt lat="40.3586383" lon="15.0121433"><ele>186.0</ele><time>2026-04-25T11:26:02.972Z</time></trkpt><trkpt lat="40.358475" lon="15.0120733"><ele>186.0</ele><time>2026-04-25T11:26:03.98Z</time></trkpt><trkpt lat="40.3583033" lon="15.0120133"><ele>186.0</ele><time>2026-04-25T11:26:04.973Z</time></trkpt><trkpt lat="40.3581267" lon="15.0119683"><ele>186.0</ele><time>2026-04-25T11:26:05.978Z</time></trkpt><trkpt lat="40.3579467" lon="15.0119333"><ele>183.33333333333334</ele><time>2026-04-25T11:26:06.967Z</time></trkpt><trkpt lat="40.3577667" lon="15.0119083"><ele>180.66666666666669</ele><time>2026-04-25T11:26:08.031Z</time></trkpt><trkpt lat="40.3575933" lon="15.0118917"><ele>178.0</ele><time>2026-04-25T11:26:08.968Z</time></trkpt><trkpt lat="40.3574283" lon="15.0118717"><ele>178.0</ele><time>2026-04-25T11:26:09.965Z</time></trkpt><trkpt lat="40.3572717" lon="15.01184"><ele>178.0</ele><time>2026-04-25T11:26:10.98Z</time></trkpt><trkpt lat="40.3571183" lon="15.0117817"><ele>178.0</ele><time>2026-04-25T11:26:11.97Z</time></trkpt><trkpt lat="40.3569717" lon="15.0116983"><ele>172.5</ele><time>2026-04-25T11:26:12.98Z</time></trkpt><trkpt lat="40.3568333" lon="15.0116"><ele>167.0</ele><time>2026-04-25T11:26:14.034Z</time></trkpt><trkpt lat="40.3567033" lon="15.0115083"><ele>161.5</ele><time>2026-04-25T11:26:14.967Z</time></trkpt><trkpt lat="40.3565767" lon="15.01144"><ele>156.0</ele><time>2026-04-25T11:26:15.973Z</time></trkpt><trkpt lat="40.3564633" lon="15.01139"><ele>154.8</ele><time>2026-04-25T11:26:16.976Z</time></trkpt><trkpt lat="40.3563517" lon="15.0113567"><ele>153.6</ele><time>2026-04-25T11:26:17.969Z</time></trkpt><trkpt lat="40.3562517" lon="15.0113117"><ele>152.4</ele><time>2026-04-25T11:26:18.976Z</time></trkpt><trkpt lat="40.3561583" lon="15.0112417"><ele>151.2</ele><time>2026-04-25T11:26:20.03Z</time></trkpt><trkpt lat="40.356065" lon="15.0111433"><ele>150.0</ele><time>2026-04-25T11:26:20.964Z</time></trkpt><trkpt lat="40.3559667" lon="15.0110267"><ele>150.0</ele><time>2026-04-25T11:26:21.97Z</time></trkpt><trkpt lat="40.355855" lon="15.0108867"><ele>150.0</ele><time>2026-04-25T11:26:22.976Z</time></trkpt><trkpt lat="40.3557" lon="15.01072"><ele>150.0</ele><time>2026-04-25T11:26:23.971Z</time></trkpt><trkpt lat="40.3555467" lon="15.0105767"><ele>145.66666666666666</ele><time>2026-04-25T11:26:24.974Z</time></trkpt><trkpt lat="40.355385" lon="15.0104433"><ele>141.33333333333331</ele><time>2026-04-25T11:26:26.033Z</time></trkpt><trkpt lat="40.3552333" lon="15.0103183"><ele>137.0</ele><time>2026-04-25T11:26:26.968Z</time></trkpt><trkpt lat="40.3550967" lon="15.0102017"><ele>137.0</ele><time>2026-04-25T11:26:27.97Z</time></trkpt><trkpt lat="40.35496" lon="15.0101"><ele>137.0</ele><time>2026-04-25T11:26:28.97Z</time></trkpt><trkpt lat="40.3548183" lon="15.0100217"><ele>137.0</ele><time>2026-04-25T11:26:29.97Z</time></trkpt><trkpt lat="40.35466" lon="15.0099533"><ele>133.66666666666666</ele><time>2026-04-25T11:26:30.973Z</time></trkpt><trkpt lat="40.3544967" lon="15.0098967"><ele>130.33333333333334</ele><time>2026-04-25T11:26:32.028Z</time></trkpt><trkpt lat="40.35433" lon="15.0098433"><ele>127.0</ele><time>2026-04-25T11:26:32.965Z</time></trkpt><trkpt lat="40.3541733" lon="15.0097817"><ele>127.0</ele><time>2026-04-25T11:26:33.965Z</time></trkpt><trkpt lat="40.35403" lon="15.0097017"><ele>127.0</ele><time>2026-04-25T11:26:34.964Z</time></trkpt><trkpt lat="40.3538983" lon="15.0096033"><ele>127.0</ele><time>2026-04-25T11:26:35.971Z</time></trkpt><trkpt lat="40.3537783" lon="15.00948"><ele>127.19999999999999</ele><time>2026-04-25T11:26:36.973Z</time></trkpt><trkpt lat="40.3536783" lon="15.0093517"><ele>127.39999999999999</ele><time>2026-04-25T11:26:38.024Z</time></trkpt><trkpt lat="40.3535917" lon="15.009235"><ele>127.60000000000001</ele><time>2026-04-25T11:26:38.966Z</time></trkpt><trkpt lat="40.3535383" lon="15.0091667"><ele>127.80000000000001</ele><time>2026-04-25T11:26:39.966Z</time></trkpt><trkpt lat="40.3534467" lon="15.009155"><ele>128.0</ele><time>2026-04-25T11:26:41.97Z</time></trkpt><trkpt lat="40.35334" lon="15.00922"><ele>128.0</ele><time>2026-04-25T11:26:44.033Z</time></trkpt><trkpt lat="40.35328" lon="15.0092733"><ele>128.0</ele><time>2026-04-25T11:26:44.971Z</time></trkpt><trkpt lat="40.35322" lon="15.009305"><ele>128.0</ele><time>2026-04-25T11:26:45.969Z</time></trkpt><trkpt lat="40.353115" lon="15.00922"><ele>128.0</ele><time>2026-04-25T11:26:47.973Z</time></trkpt><trkpt lat="40.3530467" lon="15.0091417"><ele>128.0</ele><time>2026-04-25T11:26:48.975Z</time></trkpt><trkpt lat="40.3529667" lon="15.009055"><ele>127.75</ele><time>2026-04-25T11:26:50.033Z</time></trkpt><trkpt lat="40.3528667" lon="15.0089633"><ele>127.5</ele><time>2026-04-25T11:26:50.969Z</time></trkpt><trkpt lat="40.3527483" lon="15.0088633"><ele>127.25</ele><time>2026-04-25T11:26:51.973Z</time></trkpt><trkpt lat="40.3525967" lon="15.0087617"><ele>127.0</ele><time>2026-04-25T11:26:52.971Z</time></trkpt><trkpt lat="40.352445" lon="15.0086517"><ele>127.0</ele><time>2026-04-25T11:26:53.973Z</time></trkpt><trkpt lat="40.352295" lon="15.0085417"><ele>127.0</ele><time>2026-04-25T11:26:54.972Z</time></trkpt><trkpt lat="40.3521583" lon="15.008435"><ele>127.0</ele><time>2026-04-25T11:26:56.033Z</time></trkpt><trkpt lat="40.3520433" lon="15.00833"><ele>121.75</ele><time>2026-04-25T11:26:56.968Z</time></trkpt><trkpt lat="40.3519483" lon="15.0082333"><ele>116.5</ele><time>2026-04-25T11:26:57.971Z</time></trkpt><trkpt lat="40.3518733" lon="15.0081217"><ele>111.25</ele><time>2026-04-25T11:26:58.972Z</time></trkpt><trkpt lat="40.3518083" lon="15.007995"><ele>106.0</ele><time>2026-04-25T11:26:59.966Z</time></trkpt><trkpt lat="40.35175" lon="15.0078483"><ele>106.0</ele><time>2026-04-25T11:27:00.979Z</time></trkpt><trkpt lat="40.3516933" lon="15.00768"><ele>106.0</ele><time>2026-04-25T11:27:02.034Z</time></trkpt><trkpt lat="40.3516383" lon="15.0075017"><ele>106.0</ele><time>2026-04-25T11:27:02.975Z</time></trkpt><trkpt lat="40.3515933" lon="15.0073183"><ele>106.0</ele><time>2026-04-25T11:27:03.967Z</time></trkpt><trkpt lat="40.3515383" lon="15.0071633"><ele>103.0</ele><time>2026-04-25T11:27:04.969Z</time></trkpt><trkpt lat="40.3514917" lon="15.00701"><ele>100.0</ele><time>2026-04-25T11:27:05.967Z</time></trkpt><trkpt lat="40.351435" lon="15.0068833"><ele>97.0</ele><time>2026-04-25T11:27:06.97Z</time></trkpt><trkpt lat="40.3513633" lon="15.0067583"><ele>94.0</ele><time>2026-04-25T11:27:08.03Z</time></trkpt><trkpt lat="40.351225" lon="15.0066867"><ele>87.66666666666666</ele><time>2026-04-25T11:27:08.967Z</time></trkpt><trkpt lat="40.35108" lon="15.0065933"><ele>81.33333333333333</ele><time>2026-04-25T11:27:09.972Z</time></trkpt><trkpt lat="40.35093" lon="15.0064883"><ele>75.0</ele><time>2026-04-25T11:27:10.97Z</time></trkpt><trkpt lat="40.3507633" lon="15.0063833"><ele>75.0</ele><time>2026-04-25T11:27:11.966Z</time></trkpt><trkpt lat="40.3506" lon="15.006285"><ele>75.0</ele><time>2026-04-25T11:27:12.973Z</time></trkpt><trkpt lat="40.3504517" lon="15.006225"><ele>75.0</ele><time>2026-04-25T11:27:14.028Z</time></trkpt><trkpt lat="40.3503117" lon="15.0062033"><ele>76.75</ele><time>2026-04-25T11:27:14.964Z</time></trkpt><trkpt lat="40.3501767" lon="15.0062117"><ele>78.5</ele><time>2026-04-25T11:27:15.967Z</time></trkpt><trkpt lat="40.3500383" lon="15.00624"><ele>80.25</ele><time>2026-04-25T11:27:16.974Z</time></trkpt><trkpt lat="40.349885" lon="15.006285"><ele>82.0</ele><time>2026-04-25T11:27:17.967Z</time></trkpt><trkpt lat="40.34972" lon="15.0063433"><ele>85.33333333333333</ele><time>2026-04-25T11:27:18.979Z</time></trkpt><trkpt lat="40.3495533" lon="15.00641"><ele>88.66666666666667</ele><time>2026-04-25T11:27:20.028Z</time></trkpt><trkpt lat="40.3493933" lon="15.006475"><ele>92.0</ele><time>2026-04-25T11:27:20.967Z</time></trkpt><trkpt lat="40.3492367" lon="15.00653"><ele>92.0</ele><time>2026-04-25T11:27:21.964Z</time></trkpt><trkpt lat="40.3490867" lon="15.00657"><ele>92.0</ele><time>2026-04-25T11:27:22.972Z</time></trkpt><trkpt lat="40.3489417" lon="15.0065933"><ele>92.0</ele><time>2026-04-25T11:27:23.971Z</time></trkpt><trkpt lat="40.3488017" lon="15.0066033"><ele>92.0</ele><time>2026-04-25T11:27:24.966Z</time></trkpt><trkpt lat="40.3486717" lon="15.0065967"><ele>88.0</ele><time>2026-04-25T11:27:26.032Z</time></trkpt><trkpt lat="40.34857" lon="15.006565"><ele>84.0</ele><time>2026-04-25T11:27:26.967Z</time></trkpt><trkpt lat="40.3484883" lon="15.0065183"><ele>80.0</ele><time>2026-04-25T11:27:27.97Z</time></trkpt><trkpt lat="40.34841" lon="15.00646"><ele>76.0</ele><time>2026-04-25T11:27:28.964Z</time></trkpt><trkpt lat="40.348345" lon="15.0063717"><ele>72.0</ele><time>2026-04-25T11:27:29.965Z</time></trkpt><trkpt lat="40.3483133" lon="15.0062383"><ele>72.0</ele><time>2026-04-25T11:27:30.971Z</time></trkpt><trkpt lat="40.348295" lon="15.0060933"><ele>72.0</ele><time>2026-04-25T11:27:32.031Z</time></trkpt><trkpt lat="40.348255" lon="15.0059767"><ele>72.0</ele><time>2026-04-25T11:27:32.965Z</time></trkpt><trkpt lat="40.3482083" lon="15.005875"><ele>72.0</ele><time>2026-04-25T11:27:33.968Z</time></trkpt><trkpt lat="40.348155" lon="15.0057767"><ele>72.0</ele><time>2026-04-25T11:27:34.965Z</time></trkpt><trkpt lat="40.34808" lon="15.0057017"><ele>69.75</ele><time>2026-04-25T11:27:35.97Z</time></trkpt><trkpt lat="40.3479767" lon="15.0056417"><ele>67.5</ele><time>2026-04-25T11:27:36.967Z</time></trkpt><trkpt lat="40.347845" lon="15.0055983"><ele>65.25</ele><time>2026-04-25T11:27:38.026Z</time></trkpt><trkpt lat="40.3476983" lon="15.0055667"><ele>63.0</ele><time>2026-04-25T11:27:38.966Z</time></trkpt><trkpt lat="40.3475333" lon="15.0055267"><ele>63.0</ele><time>2026-04-25T11:27:39.969Z</time></trkpt><trkpt lat="40.3473817" lon="15.0054567"><ele>63.0</ele><time>2026-04-25T11:27:40.973Z</time></trkpt><trkpt lat="40.3472433" lon="15.00537"><ele>63.0</ele><time>2026-04-25T11:27:41.966Z</time></trkpt><trkpt lat="40.3471183" lon="15.00526"><ele>58.0</ele><time>2026-04-25T11:27:42.983Z</time></trkpt><trkpt lat="40.3469967" lon="15.0051267"><ele>53.0</ele><time>2026-04-25T11:27:44.031Z</time></trkpt><trkpt lat="40.346885" lon="15.0049667"><ele>48.0</ele><time>2026-04-25T11:27:44.971Z</time></trkpt><trkpt lat="40.346785" lon="15.00481"><ele>48.0</ele><time>2026-04-25T11:27:45.966Z</time></trkpt><trkpt lat="40.3466967" lon="15.0046633"><ele>48.0</ele><time>2026-04-25T11:27:46.975Z</time></trkpt><trkpt lat="40.3466167" lon="15.0045333"><ele>48.0</ele><time>2026-04-25T11:27:47.966Z</time></trkpt><trkpt lat="40.3465283" lon="15.0044233"><ele>48.0</ele><time>2026-04-25T11:27:48.967Z</time></trkpt><trkpt lat="40.3464183" lon="15.0043233"><ele>43.666666666666664</ele><time>2026-04-25T11:27:50.029Z</time></trkpt><trkpt lat="40.34628" lon="15.004225"><ele>39.33333333333333</ele><time>2026-04-25T11:27:50.967Z</time></trkpt><trkpt lat="40.34612" lon="15.0041233"><ele>35.0</ele><time>2026-04-25T11:27:51.967Z</time></trkpt><trkpt lat="40.3459467" lon="15.004025"><ele>35.0</ele><time>2026-04-25T11:27:52.979Z</time></trkpt><trkpt lat="40.3457917" lon="15.0039317"><ele>35.0</ele><time>2026-04-25T11:27:53.973Z</time></trkpt><trkpt lat="40.3456617" lon="15.0038433"><ele>35.0</ele><time>2026-04-25T11:27:54.971Z</time></trkpt><trkpt lat="40.3455517" lon="15.00376"><ele>35.0</ele><time>2026-04-25T11:27:56.036Z</time></trkpt><trkpt lat="40.34543" lon="15.0037433"><ele>32.166666666666664</ele><time>2026-04-25T11:27:57.972Z</time></trkpt><trkpt lat="40.34534" lon="15.00379"><ele>29.333333333333332</ele><time>2026-04-25T11:27:58.978Z</time></trkpt><trkpt lat="40.3452633" lon="15.0038383"><ele>26.5</ele><time>2026-04-25T11:27:59.971Z</time></trkpt><trkpt lat="40.3452" lon="15.0038833"><ele>23.666666666666664</ele><time>2026-04-25T11:28:00.976Z</time></trkpt><trkpt lat="40.345115" lon="15.0039167"><ele>20.833333333333332</ele><time>2026-04-25T11:28:02.966Z</time></trkpt><trkpt lat="40.345105" lon="15.0038283"><ele>18.0</ele><time>2026-04-25T11:28:05.976Z</time></trkpt><trkpt lat="40.3451383" lon="15.00375"><ele>18.0</ele><time>2026-04-25T11:28:08.031Z</time></trkpt><trkpt lat="40.3451367" lon="15.0039117"><ele>18.0</ele><time>2026-04-25T11:28:12.976Z</time></trkpt><trkpt lat="40.3451317" lon="15.0040183"><ele>18.0</ele><time>2026-04-25T11:28:14.03Z</time></trkpt><trkpt lat="40.34512" lon="15.004115"><ele>18.0</ele><time>2026-04-25T11:28:14.97Z</time></trkpt><trkpt lat="40.345065" lon="15.004185"><ele>18.0</ele><time>2026-04-25T11:28:16.974Z</time></trkpt><trkpt lat="40.3449817" lon="15.0040667"><ele>18.0</ele><time>2026-04-25T11:28:18.975Z</time></trkpt><trkpt lat="40.3449283" lon="15.0039333"><ele>18.0</ele><time>2026-04-25T11:28:20.027Z</time></trkpt><trkpt lat="40.3448717" lon="15.0037817"><ele>18.0</ele><time>2026-04-25T11:28:20.969Z</time></trkpt><trkpt lat="40.3448117" lon="15.00361"><ele>18.0</ele><time>2026-04-25T11:28:21.963Z</time></trkpt><trkpt lat="40.3447433" lon="15.003415"><ele>16.5</ele><time>2026-04-25T11:28:22.971Z</time></trkpt><trkpt lat="40.3446767" lon="15.00323"><ele>15.0</ele><time>2026-04-25T11:28:23.969Z</time></trkpt><trkpt lat="40.3446167" lon="15.0030583"><ele>13.5</ele><time>2026-04-25T11:28:24.971Z</time></trkpt><trkpt lat="40.3445767" lon="15.0028733"><ele>12.0</ele><time>2026-04-25T11:28:26.028Z</time></trkpt><trkpt lat="40.3445267" lon="15.0026783"><ele>11.75</ele><time>2026-04-25T11:28:26.969Z</time></trkpt><trkpt lat="40.34447" lon="15.0024833"><ele>11.5</ele><time>2026-04-25T11:28:27.971Z</time></trkpt><trkpt lat="40.34441" lon="15.002305"><ele>11.25</ele><time>2026-04-25T11:28:28.977Z</time></trkpt><trkpt lat="40.3444333" lon="15.0021433"><ele>11.0</ele><time>2026-04-25T11:28:29.968Z</time></trkpt><trkpt lat="40.3444583" lon="15.002"><ele>11.0</ele><time>2026-04-25T11:28:32.023Z</time></trkpt><trkpt lat="40.3445183" lon="15.0018883"><ele>11.0</ele><time>2026-04-25T11:28:32.968Z</time></trkpt><trkpt lat="40.3445717" lon="15.00178"><ele>11.0</ele><time>2026-04-25T11:28:33.968Z</time></trkpt><trkpt lat="40.3446183" lon="15.00168"><ele>11.0</ele><time>2026-04-25T11:28:34.975Z</time></trkpt><trkpt lat="40.34466" lon="15.0015667"><ele>11.0</ele><time>2026-04-25T11:28:35.971Z</time></trkpt><trkpt lat="40.3446867" lon="15.00145"><ele>10.5</ele><time>2026-04-25T11:28:36.97Z</time></trkpt><trkpt lat="40.3446933" lon="15.00132"><ele>10.0</ele><time>2026-04-25T11:28:38.032Z</time></trkpt><trkpt lat="40.3446833" lon="15.0011933"><ele>9.5</ele><time>2026-04-25T11:28:38.965Z</time></trkpt><trkpt lat="40.3446667" lon="15.00104"><ele>9.0</ele><time>2026-04-25T11:28:39.976Z</time></trkpt><trkpt lat="40.34465" lon="15.0008617"><ele>8.666666666666666</ele><time>2026-04-25T11:28:40.971Z</time></trkpt><trkpt lat="40.34461" lon="15.0006567"><ele>8.333333333333332</ele><time>2026-04-25T11:28:41.97Z</time></trkpt><trkpt lat="40.3445433" lon="15.0004183"><ele>8.0</ele><time>2026-04-25T11:28:42.975Z</time></trkpt><trkpt lat="40.34447" lon="15.0001683"><ele>8.0</ele><time>2026-04-25T11:28:44.028Z</time></trkpt><trkpt lat="40.3443733" lon="14.9999"><ele>8.0</ele><time>2026-04-25T11:28:44.965Z</time></trkpt><trkpt lat="40.3442933" lon="14.9996567"><ele>8.0</ele><time>2026-04-25T11:28:45.968Z</time></trkpt><trkpt lat="40.34422" lon="14.999435"><ele>8.0</ele><time>2026-04-25T11:28:46.969Z</time></trkpt><trkpt lat="40.34416" lon="14.999235"><ele>8.0</ele><time>2026-04-25T11:28:47.975Z</time></trkpt><trkpt lat="40.3441083" lon="14.9990517"><ele>8.0</ele><time>2026-04-25T11:28:48.971Z</time></trkpt><trkpt lat="40.344065" lon="14.998885"><ele>8.0</ele><time>2026-04-25T11:28:50.033Z</time></trkpt><trkpt lat="40.3440217" lon="14.99873"><ele>8.0</ele><time>2026-04-25T11:28:50.971Z</time></trkpt><trkpt lat="40.3439867" lon="14.9985867"><ele>8.0</ele><time>2026-04-25T11:28:51.972Z</time></trkpt><trkpt lat="40.3439617" lon="14.998465"><ele>8.0</ele><time>2026-04-25T11:28:52.973Z</time></trkpt><trkpt lat="40.3439667" lon="14.9983817"><ele>8.0</ele><time>2026-04-25T11:28:53.978Z</time></trkpt><trkpt lat="40.3440733" lon="14.9983283"><ele>8.0</ele><time>2026-04-25T11:28:56.034Z</time></trkpt><trkpt lat="40.344175" lon="14.998355"><ele>8.0</ele><time>2026-04-25T11:28:56.97Z</time></trkpt><trkpt lat="40.3443167" lon="14.99843"><ele>8.0</ele><time>2026-04-25T11:28:57.97Z</time></trkpt><trkpt lat="40.3444667" lon="14.9985183"><ele>8.0</ele><time>2026-04-25T11:28:58.973Z</time></trkpt><trkpt lat="40.3446333" lon="14.9986183"><ele>8.333333333333332</ele><time>2026-04-25T11:28:59.975Z</time></trkpt><trkpt lat="40.34479" lon="14.9986967"><ele>8.666666666666666</ele><time>2026-04-25T11:29:00.974Z</time></trkpt><trkpt lat="40.3449333" lon="14.99876"><ele>9.0</ele><time>2026-04-25T11:29:02.031Z</time></trkpt><trkpt lat="40.3450717" lon="14.9988133"><ele>9.0</ele><time>2026-04-25T11:29:02.966Z</time></trkpt><trkpt lat="40.3452183" lon="14.9988633"><ele>9.0</ele><time>2026-04-25T11:29:03.967Z</time></trkpt><trkpt lat="40.3453617" lon="14.9989"><ele>9.0</ele><time>2026-04-25T11:29:04.971Z</time></trkpt><trkpt lat="40.34551" lon="14.9989217"><ele>9.0</ele><time>2026-04-25T11:29:05.971Z</time></trkpt><trkpt lat="40.3456583" lon="14.9989367"><ele>8.75</ele><time>2026-04-25T11:29:06.975Z</time></trkpt><trkpt lat="40.3458" lon="14.9989533"><ele>8.5</ele><time>2026-04-25T11:29:08.026Z</time></trkpt><trkpt lat="40.3459333" lon="14.99897"><ele>8.25</ele><time>2026-04-25T11:29:08.962Z</time></trkpt><trkpt lat="40.346055" lon="14.998985"><ele>8.0</ele><time>2026-04-25T11:29:09.973Z</time></trkpt><trkpt lat="40.3461783" lon="14.9989883"><ele>8.0</ele><time>2026-04-25T11:29:10.975Z</time></trkpt><trkpt lat="40.3462917" lon="14.998975"><ele>8.0</ele><time>2026-04-25T11:29:11.97Z</time></trkpt><trkpt lat="40.3463867" lon="14.9989167"><ele>8.0</ele><time>2026-04-25T11:29:12.972Z</time></trkpt><trkpt lat="40.34648" lon="14.9988367"><ele>8.0</ele><time>2026-04-25T11:29:14.034Z</time></trkpt><trkpt lat="40.34658" lon="14.9987183"><ele>8.25</ele><time>2026-04-25T11:29:14.965Z</time></trkpt><trkpt lat="40.3466717" lon="14.998585"><ele>8.5</ele><time>2026-04-25T11:29:15.968Z</time></trkpt><trkpt lat="40.3467417" lon="14.9984433"><ele>8.75</ele><time>2026-04-25T11:29:16.971Z</time></trkpt><trkpt lat="40.346805" lon="14.9983033"><ele>9.0</ele><time>2026-04-25T11:29:17.965Z</time></trkpt><trkpt lat="40.3468567" lon="14.9981883"><ele>9.0</ele><time>2026-04-25T11:29:18.976Z</time></trkpt><trkpt lat="40.3469" lon="14.9980983"><ele>9.0</ele><time>2026-04-25T11:29:20.027Z</time></trkpt><trkpt lat="40.3469367" lon="14.9980233"><ele>9.0</ele><time>2026-04-25T11:29:20.963Z</time></trkpt><trkpt lat="40.3469283" lon="14.9979133"><ele>9.0</ele><time>2026-04-25T11:29:32.968Z</time></trkpt><trkpt lat="40.3468717" lon="14.99782"><ele>9.0</ele><time>2026-04-25T11:29:34.975Z</time></trkpt><trkpt lat="40.3467883" lon="14.997775"><ele>9.0</ele><time>2026-04-25T11:29:35.973Z</time></trkpt><trkpt lat="40.34669" lon="14.99773"><ele>9.0</ele><time>2026-04-25T11:29:36.97Z</time></trkpt><trkpt lat="40.346575" lon="14.9976833"><ele>9.0</ele><time>2026-04-25T11:29:38.033Z</time></trkpt><trkpt lat="40.3464467" lon="14.9976283"><ele>9.0</ele><time>2026-04-25T11:29:38.965Z</time></trkpt><trkpt lat="40.34632" lon="14.997575"><ele>9.0</ele><time>2026-04-25T11:29:39.962Z</time></trkpt><trkpt lat="40.3462067" lon="14.9975217"><ele>9.4</ele><time>2026-04-25T11:29:40.973Z</time></trkpt><trkpt lat="40.3461067" lon="14.9974667"><ele>9.8</ele><time>2026-04-25T11:29:41.974Z</time></trkpt><trkpt lat="40.34601" lon="14.9974233"><ele>10.200000000000001</ele><time>2026-04-25T11:29:42.975Z</time></trkpt><trkpt lat="40.3459117" lon="14.9973717"><ele>10.600000000000001</ele><time>2026-04-25T11:29:44.032Z</time></trkpt><trkpt lat="40.3458183" lon="14.9973083"><ele>11.0</ele><time>2026-04-25T11:29:44.964Z</time></trkpt><trkpt lat="40.3457117" lon="14.9972467"><ele>11.0</ele><time>2026-04-25T11:29:45.97Z</time></trkpt><trkpt lat="40.3456033" lon="14.99718"><ele>11.0</ele><time>2026-04-25T11:29:46.969Z</time></trkpt><trkpt lat="40.3454917" lon="14.9971317"><ele>11.0</ele><time>2026-04-25T11:29:47.963Z</time></trkpt><trkpt lat="40.3453883" lon="14.9970767"><ele>11.0</ele><time>2026-04-25T11:29:48.972Z</time></trkpt><trkpt lat="40.34528" lon="14.997025"><ele>11.0</ele><time>2026-04-25T11:29:50.032Z</time></trkpt><trkpt lat="40.3451683" lon="14.99698"><ele>11.0</ele><time>2026-04-25T11:29:50.965Z</time></trkpt><trkpt lat="40.3450483" lon="14.99693"><ele>11.0</ele><time>2026-04-25T11:29:51.968Z</time></trkpt><trkpt lat="40.3449233" lon="14.99689"><ele>11.0</ele><time>2026-04-25T11:29:52.972Z</time></trkpt><trkpt lat="40.344795" lon="14.9968517"><ele>11.25</ele><time>2026-04-25T11:29:53.969Z</time></trkpt><trkpt lat="40.34466" lon="14.9968083"><ele>11.5</ele><time>2026-04-25T11:29:54.971Z</time></trkpt><trkpt lat="40.3445117" lon="14.9967783"><ele>11.75</ele><time>2026-04-25T11:29:56.032Z</time></trkpt><trkpt lat="40.3443617" lon="14.9967417"><ele>12.0</ele><time>2026-04-25T11:29:56.967Z</time></trkpt><trkpt lat="40.34421" lon="14.9967033"><ele>11.75</ele><time>2026-04-25T11:29:57.963Z</time></trkpt><trkpt lat="40.3440667" lon="14.99666"><ele>11.5</ele><time>2026-04-25T11:29:58.981Z</time></trkpt><trkpt lat="40.34394" lon="14.996595"><ele>11.25</ele><time>2026-04-25T11:29:59.964Z</time></trkpt><trkpt lat="40.343865" lon="14.9964767"><ele>11.0</ele><time>2026-04-25T11:30:00.964Z</time></trkpt><trkpt lat="40.34379" lon="14.9963633"><ele>11.0</ele><time>2026-04-25T11:30:02.025Z</time></trkpt><trkpt lat="40.3437283" lon="14.9962583"><ele>11.0</ele><time>2026-04-25T11:30:02.968Z</time></trkpt><trkpt lat="40.343685" lon="14.9961617"><ele>11.0</ele><time>2026-04-25T11:30:03.969Z</time></trkpt><trkpt lat="40.3436617" lon="14.996075"><ele>11.0</ele><time>2026-04-25T11:30:04.979Z</time></trkpt><trkpt lat="40.3435933" lon="14.9959933"><ele>11.0</ele><time>2026-04-25T11:30:06.977Z</time></trkpt><trkpt lat="40.3435283" lon="14.9960267"><ele>11.0</ele><time>2026-04-25T11:30:08.026Z</time></trkpt><trkpt lat="40.3434517" lon="14.9960733"><ele>11.0</ele><time>2026-04-25T11:30:08.971Z</time></trkpt><trkpt lat="40.3433667" lon="14.9961383"><ele>11.0</ele><time>2026-04-25T11:30:09.969Z</time></trkpt><trkpt lat="40.3432417" lon="14.9962683"><ele>11.0</ele><time>2026-04-25T11:30:10.972Z</time></trkpt><trkpt lat="40.3431117" lon="14.9963883"><ele>11.0</ele><time>2026-04-25T11:30:11.967Z</time></trkpt><trkpt lat="40.3429733" lon="14.99651"><ele>11.333333333333332</ele><time>2026-04-25T11:30:12.971Z</time></trkpt><trkpt lat="40.3428333" lon="14.9966383"><ele>11.666666666666666</ele><time>2026-04-25T11:30:14.03Z</time></trkpt><trkpt lat="40.34268" lon="14.9967683"><ele>12.0</ele><time>2026-04-25T11:30:14.968Z</time></trkpt><trkpt lat="40.3425083" lon="14.9969033"><ele>12.0</ele><time>2026-04-25T11:30:15.969Z</time></trkpt><trkpt lat="40.3423233" lon="14.9970417"><ele>12.0</ele><time>2026-04-25T11:30:16.968Z</time></trkpt><trkpt lat="40.3421483" lon="14.9971717"><ele>12.0</ele><time>2026-04-25T11:30:17.973Z</time></trkpt><trkpt lat="40.3419767" lon="14.9972967"><ele>12.0</ele><time>2026-04-25T11:30:18.975Z</time></trkpt><trkpt lat="40.34182" lon="14.99742"><ele>12.0</ele><time>2026-04-25T11:30:20.04Z</time></trkpt><trkpt lat="40.3416717" lon="14.9975383"><ele>12.0</ele><time>2026-04-25T11:30:20.967Z</time></trkpt><trkpt lat="40.34153" lon="14.99765"><ele>12.0</ele><time>2026-04-25T11:30:21.971Z</time></trkpt><trkpt lat="40.341395" lon="14.9977583"><ele>12.0</ele><time>2026-04-25T11:30:22.972Z</time></trkpt><trkpt lat="40.3412683" lon="14.9978567"><ele>12.0</ele><time>2026-04-25T11:30:23.971Z</time></trkpt><trkpt lat="40.3411533" lon="14.99795"><ele>12.0</ele><time>2026-04-25T11:30:24.981Z</time></trkpt><trkpt lat="40.341055" lon="14.9980283"><ele>12.833333333333334</ele><time>2026-04-25T11:30:26.029Z</time></trkpt><trkpt lat="40.3409767" lon="14.9980917"><ele>13.666666666666668</ele><time>2026-04-25T11:30:26.965Z</time></trkpt><trkpt lat="40.3409133" lon="14.9981333"><ele>14.5</ele><time>2026-04-25T11:30:27.968Z</time></trkpt><trkpt lat="40.3408467" lon="14.9981667"><ele>15.333333333333334</ele><time>2026-04-25T11:30:28.971Z</time></trkpt><trkpt lat="40.3407817" lon="14.9981817"><ele>16.166666666666668</ele><time>2026-04-25T11:30:29.968Z</time></trkpt><trkpt lat="40.340675" lon="14.9982183"><ele>17.0</ele><time>2026-04-25T11:30:32.033Z</time></trkpt><trkpt lat="40.3405883" lon="14.9983133"><ele>17.0</ele><time>2026-04-25T11:30:33.963Z</time></trkpt><trkpt lat="40.3405617" lon="14.9984"><ele>17.0</ele><time>2026-04-25T11:30:34.965Z</time></trkpt><trkpt lat="40.340525" lon="14.9985"><ele>17.0</ele><time>2026-04-25T11:30:35.967Z</time></trkpt><trkpt lat="40.3404783" lon="14.99861"><ele>17.0</ele><time>2026-04-25T11:30:36.972Z</time></trkpt><trkpt lat="40.340415" lon="14.9987167"><ele>17.0</ele><time>2026-04-25T11:30:38.027Z</time></trkpt><trkpt lat="40.3403367" lon="14.9988133"><ele>17.0</ele><time>2026-04-25T11:30:38.967Z</time></trkpt><trkpt lat="40.3402617" lon="14.9988967"><ele>17.0</ele><time>2026-04-25T11:30:39.968Z</time></trkpt><trkpt lat="40.3401783" lon="14.998965"><ele>17.0</ele><time>2026-04-25T11:30:40.971Z</time></trkpt><trkpt lat="40.3400967" lon="14.99904"><ele>17.0</ele><time>2026-04-25T11:30:41.968Z</time></trkpt><trkpt lat="40.340015" lon="14.9991217"><ele>17.0</ele><time>2026-04-25T11:30:42.971Z</time></trkpt><trkpt lat="40.3399367" lon="14.999225"><ele>17.0</ele><time>2026-04-25T11:30:44.032Z</time></trkpt><trkpt lat="40.3398533" lon="14.9993283"><ele>17.0</ele><time>2026-04-25T11:30:44.969Z</time></trkpt><trkpt lat="40.339755" lon="14.99941"><ele>17.0</ele><time>2026-04-25T11:30:45.973Z</time></trkpt><trkpt lat="40.33966" lon="14.999475"><ele>17.0</ele><time>2026-04-25T11:30:46.974Z</time></trkpt><trkpt lat="40.33957" lon="14.99952"><ele>17.0</ele><time>2026-04-25T11:30:47.975Z</time></trkpt><trkpt lat="40.3394833" lon="14.9995517"><ele>21.799999999999997</ele><time>2026-04-25T11:30:48.977Z</time></trkpt><trkpt lat="40.3394067" lon="14.9995383"><ele>26.599999999999998</ele><time>2026-04-25T11:30:50.035Z</time></trkpt><trkpt lat="40.33931" lon="14.9995083"><ele>31.4</ele><time>2026-04-25T11:30:50.97Z</time></trkpt><trkpt lat="40.33921" lon="14.9994433"><ele>36.199999999999996</ele><time>2026-04-25T11:30:51.968Z</time></trkpt><trkpt lat="40.3391133" lon="14.99934"><ele>41.0</ele><time>2026-04-25T11:30:52.976Z</time></trkpt><trkpt lat="40.339" lon="14.9992067"><ele>40.0</ele><time>2026-04-25T11:30:53.97Z</time></trkpt><trkpt lat="40.3388883" lon="14.99909"><ele>39.0</ele><time>2026-04-25T11:30:54.972Z</time></trkpt><trkpt lat="40.3387817" lon="14.9989817"><ele>38.0</ele><time>2026-04-25T11:30:56.025Z</time></trkpt><trkpt lat="40.338685" lon="14.9988733"><ele>37.0</ele><time>2026-04-25T11:30:56.97Z</time></trkpt><trkpt lat="40.3386067" lon="14.99877"><ele>38.0</ele><time>2026-04-25T11:30:57.971Z</time></trkpt><trkpt lat="40.338545" lon="14.9986667"><ele>39.0</ele><time>2026-04-25T11:30:58.976Z</time></trkpt><trkpt lat="40.3384917" lon="14.998565"><ele>40.0</ele><time>2026-04-25T11:30:59.977Z</time></trkpt><trkpt lat="40.3384383" lon="14.9984633"><ele>41.0</ele><time>2026-04-25T11:31:00.975Z</time></trkpt><trkpt lat="40.33837" lon="14.9983667"><ele>42.0</ele><time>2026-04-25T11:31:02.029Z</time></trkpt><trkpt lat="40.3383017" lon="14.9982733"><ele>42.0</ele><time>2026-04-25T11:31:02.971Z</time></trkpt><trkpt lat="40.3382333" lon="14.998175"><ele>42.0</ele><time>2026-04-25T11:31:03.97Z</time></trkpt><trkpt lat="40.338175" lon="14.99807"><ele>42.0</ele><time>2026-04-25T11:31:04.975Z</time></trkpt><trkpt lat="40.3381317" lon="14.9979667"><ele>42.0</ele><time>2026-04-25T11:31:05.963Z</time></trkpt><trkpt lat="40.3381083" lon="14.997855"><ele>42.0</ele><time>2026-04-25T11:31:06.97Z</time></trkpt><trkpt lat="40.3381083" lon="14.9977333"><ele>42.0</ele><time>2026-04-25T11:31:08.03Z</time></trkpt><trkpt lat="40.3381333" lon="14.9976117"><ele>42.0</ele><time>2026-04-25T11:31:08.971Z</time></trkpt><trkpt lat="40.338155" lon="14.9975083"><ele>42.0</ele><time>2026-04-25T11:31:09.972Z</time></trkpt><trkpt lat="40.3381717" lon="14.997415"><ele>42.0</ele><time>2026-04-25T11:31:10.972Z</time></trkpt><trkpt lat="40.338165" lon="14.9973317"><ele>42.0</ele><time>2026-04-25T11:31:11.964Z</time></trkpt><trkpt lat="40.3380783" lon="14.9972833"><ele>42.0</ele><time>2026-04-25T11:31:12.97Z</time></trkpt><trkpt lat="40.3379983" lon="14.99722"><ele>45.0</ele><time>2026-04-25T11:31:14.034Z</time></trkpt><trkpt lat="40.33791" lon="14.9971617"><ele>48.0</ele><time>2026-04-25T11:31:14.968Z</time></trkpt><trkpt lat="40.3378267" lon="14.9971233"><ele>51.0</ele><time>2026-04-25T11:31:15.966Z</time></trkpt><trkpt lat="40.33775" lon="14.9971017"><ele>54.0</ele><time>2026-04-25T11:31:16.974Z</time></trkpt><trkpt lat="40.3377433" lon="14.997215"><ele>57.0</ele><time>2026-04-25T11:31:18.976Z</time></trkpt><trkpt lat="40.3377967" lon="14.9973567"><ele>57.0</ele><time>2026-04-25T11:31:20.971Z</time></trkpt><trkpt lat="40.3378333" lon="14.9974433"><ele>57.0</ele><time>2026-04-25T11:31:21.969Z</time></trkpt><trkpt lat="40.3378467" lon="14.9975383"><ele>57.0</ele><time>2026-04-25T11:31:22.974Z</time></trkpt><trkpt lat="40.337845" lon="14.99763"><ele>57.0</ele><time>2026-04-25T11:31:23.975Z</time></trkpt><trkpt lat="40.33782" lon="14.997725"><ele>57.0</ele><time>2026-04-25T11:31:24.974Z</time></trkpt><trkpt lat="40.33778" lon="14.9978267"><ele>57.0</ele><time>2026-04-25T11:31:26.038Z</time></trkpt><trkpt lat="40.337745" lon="14.9979333"><ele>58.400000000000006</ele><time>2026-04-25T11:31:26.969Z</time></trkpt><trkpt lat="40.3377217" lon="14.9980383"><ele>59.800000000000004</ele><time>2026-04-25T11:31:27.974Z</time></trkpt><trkpt lat="40.337705" lon="14.998145"><ele>61.2</ele><time>2026-04-25T11:31:28.976Z</time></trkpt><trkpt lat="40.337705" lon="14.9982683"><ele>62.6</ele><time>2026-04-25T11:31:29.973Z</time></trkpt><trkpt lat="40.337775" lon="14.99842"><ele>64.0</ele><time>2026-04-25T11:31:30.974Z</time></trkpt><trkpt lat="40.3378333" lon="14.998575"><ele>64.60000000000001</ele><time>2026-04-25T11:31:32.037Z</time></trkpt><trkpt lat="40.3378867" lon="14.9987217"><ele>65.2</ele><time>2026-04-25T11:31:32.966Z</time></trkpt><trkpt lat="40.3379183" lon="14.9988617"><ele>65.80000000000001</ele><time>2026-04-25T11:31:33.97Z</time></trkpt><trkpt lat="40.3379333" lon="14.9989833"><ele>66.4</ele><time>2026-04-25T11:31:34.975Z</time></trkpt><trkpt lat="40.3379367" lon="14.9990967"><ele>67.0</ele><time>2026-04-25T11:31:35.976Z</time></trkpt><trkpt lat="40.33789" lon="14.9991717"><ele>65.8</ele><time>2026-04-25T11:31:36.974Z</time></trkpt><trkpt lat="40.3378433" lon="14.999255"><ele>64.6</ele><time>2026-04-25T11:31:38.028Z</time></trkpt><trkpt lat="40.33777" lon="14.9993333"><ele>63.39999999999999</ele><time>2026-04-25T11:31:38.971Z</time></trkpt><trkpt lat="40.33768" lon="14.999405"><ele>62.199999999999996</ele><time>2026-04-25T11:31:39.963Z</time></trkpt><trkpt lat="40.3375517" lon="14.9994533"><ele>61.0</ele><time>2026-04-25T11:31:40.974Z</time></trkpt><trkpt lat="40.3374233" lon="14.9994817"><ele>61.0</ele><time>2026-04-25T11:31:41.964Z</time></trkpt><trkpt lat="40.3372733" lon="14.9994717"><ele>61.0</ele><time>2026-04-25T11:31:42.972Z</time></trkpt><trkpt lat="40.3371317" lon="14.99946"><ele>61.0</ele><time>2026-04-25T11:31:44.029Z</time></trkpt><trkpt lat="40.3370083" lon="14.9994367"><ele>61.0</ele><time>2026-04-25T11:31:44.969Z</time></trkpt><trkpt lat="40.336895" lon="14.999415"><ele>62.8</ele><time>2026-04-25T11:31:45.968Z</time></trkpt><trkpt lat="40.3368383" lon="14.9993633"><ele>64.6</ele><time>2026-04-25T11:31:46.976Z</time></trkpt><trkpt lat="40.3368133" lon="14.9992467"><ele>66.4</ele><time>2026-04-25T11:31:48.978Z</time></trkpt><trkpt lat="40.33688" lon="14.9991517"><ele>68.2</ele><time>2026-04-25T11:31:50.968Z</time></trkpt><trkpt lat="40.3369517" lon="14.9990483"><ele>70.0</ele><time>2026-04-25T11:31:52.972Z</time></trkpt><trkpt lat="40.3369767" lon="14.9989367"><ele>72.2</ele><time>2026-04-25T11:31:54.978Z</time></trkpt><trkpt lat="40.3368683" lon="14.9989383"><ele>74.4</ele><time>2026-04-25T11:31:57.97Z</time></trkpt><trkpt lat="40.3368" lon="14.9989833"><ele>76.6</ele><time>2026-04-25T11:31:58.975Z</time></trkpt><trkpt lat="40.3367117" lon="14.9990383"><ele>78.8</ele><time>2026-04-25T11:31:59.97Z</time></trkpt><trkpt lat="40.3366067" lon="14.9990967"><ele>81.0</ele><time>2026-04-25T11:32:00.972Z</time></trkpt><trkpt lat="40.3364917" lon="14.9991517"><ele>80.75</ele><time>2026-04-25T11:32:02.031Z</time></trkpt><trkpt lat="40.3363633" lon="14.99921"><ele>80.5</ele><time>2026-04-25T11:32:02.966Z</time></trkpt><trkpt lat="40.3362383" lon="14.9992633"><ele>80.25</ele><time>2026-04-25T11:32:03.969Z</time></trkpt><trkpt lat="40.3361283" lon="14.999305"><ele>80.0</ele><time>2026-04-25T11:32:04.971Z</time></trkpt><trkpt lat="40.3360267" lon="14.9993317"><ele>80.0</ele><time>2026-04-25T11:32:05.97Z</time></trkpt><trkpt lat="40.3359317" lon="14.9993433"><ele>80.0</ele><time>2026-04-25T11:32:06.972Z</time></trkpt><trkpt lat="40.3358417" lon="14.999335"><ele>80.0</ele><time>2026-04-25T11:32:08.027Z</time></trkpt><trkpt lat="40.335755" lon="14.9992833"><ele>80.0</ele><time>2026-04-25T11:32:08.967Z</time></trkpt><trkpt lat="40.33566" lon="14.999215"><ele>80.0</ele><time>2026-04-25T11:32:09.97Z</time></trkpt><trkpt lat="40.335565" lon="14.999165"><ele>82.83333333333334</ele><time>2026-04-25T11:32:10.972Z</time></trkpt><trkpt lat="40.3354833" lon="14.9991117"><ele>85.66666666666667</ele><time>2026-04-25T11:32:11.965Z</time></trkpt><trkpt lat="40.33546" lon="14.99899"><ele>88.5</ele><time>2026-04-25T11:32:14.027Z</time></trkpt><trkpt lat="40.3354883" lon="14.9989133"><ele>91.33333333333334</ele><time>2026-04-25T11:32:15.967Z</time></trkpt><trkpt lat="40.3355233" lon="14.9988383"><ele>94.16666666666667</ele><time>2026-04-25T11:32:41.967Z</time></trkpt><trkpt lat="40.3356417" lon="14.9988033"><ele>97.0</ele><time>2026-04-25T11:32:44.964Z</time></trkpt><trkpt lat="40.3357117" lon="14.998785"><ele>97.00000000000001</ele><time>2026-04-25T11:32:45.968Z</time></trkpt><trkpt lat="40.3357833" lon="14.9987583"><ele>97.0</ele><time>2026-04-25T11:32:46.974Z</time></trkpt><trkpt lat="40.3358533" lon="14.9987217"><ele>97.0</ele><time>2026-04-25T11:32:47.969Z</time></trkpt><trkpt lat="40.335915" lon="14.9986567"><ele>97.0</ele><time>2026-04-25T11:32:48.974Z</time></trkpt><trkpt lat="40.3359717" lon="14.9985667"><ele>97.00000000000001</ele><time>2026-04-25T11:32:50.04Z</time></trkpt><trkpt lat="40.3360117" lon="14.9984633"><ele>97.0</ele><time>2026-04-25T11:32:50.968Z</time></trkpt><trkpt lat="40.3360317" lon="14.99836"><ele>98.83333333333334</ele><time>2026-04-25T11:32:51.97Z</time></trkpt><trkpt lat="40.3360367" lon="14.9982567"><ele>100.66666666666667</ele><time>2026-04-25T11:32:52.973Z</time></trkpt><trkpt lat="40.33603" lon="14.99816"><ele>102.5</ele><time>2026-04-25T11:32:53.971Z</time></trkpt><trkpt lat="40.3360117" lon="14.99808"><ele>104.33333333333334</ele><time>2026-04-25T11:32:54.967Z</time></trkpt><trkpt lat="40.33594" lon="14.9979733"><ele>106.16666666666667</ele><time>2026-04-25T11:32:56.969Z</time></trkpt><trkpt lat="40.335845" lon="14.99792"><ele>108.0</ele><time>2026-04-25T11:32:58.973Z</time></trkpt><trkpt lat="40.33572" lon="14.9979433"><ele>108.0</ele><time>2026-04-25T11:33:00.975Z</time></trkpt><trkpt lat="40.33564" lon="14.9979817"><ele>108.0</ele><time>2026-04-25T11:33:02.033Z</time></trkpt><trkpt lat="40.3355617" lon="14.9980217"><ele>108.0</ele><time>2026-04-25T11:33:02.969Z</time></trkpt><trkpt lat="40.3354883" lon="14.9980533"><ele>108.0</ele><time>2026-04-25T11:33:03.97Z</time></trkpt><trkpt lat="40.335415" lon="14.99807"><ele>108.0</ele><time>2026-04-25T11:33:04.975Z</time></trkpt><trkpt lat="40.3353333" lon="14.9980717"><ele>108.0</ele><time>2026-04-25T11:33:05.964Z</time></trkpt><trkpt lat="40.3352483" lon="14.998055"><ele>111.16666666666667</ele><time>2026-04-25T11:33:06.981Z</time></trkpt><trkpt lat="40.335165" lon="14.998035"><ele>114.33333333333334</ele><time>2026-04-25T11:33:08.031Z</time></trkpt><trkpt lat="40.33509" lon="14.99802"><ele>117.5</ele><time>2026-04-25T11:33:08.971Z</time></trkpt><trkpt lat="40.3350167" lon="14.9979967"><ele>120.66666666666667</ele><time>2026-04-25T11:33:09.961Z</time></trkpt><trkpt lat="40.3349483" lon="14.9979817"><ele>123.83333333333334</ele><time>2026-04-25T11:33:10.97Z</time></trkpt><trkpt lat="40.334835" lon="14.9979917"><ele>127.0</ele><time>2026-04-25T11:33:12.973Z</time></trkpt><trkpt lat="40.334755" lon="14.9980883"><ele>129.0</ele><time>2026-04-25T11:33:14.968Z</time></trkpt><trkpt lat="40.334715" lon="14.9981683"><ele>131.0</ele><time>2026-04-25T11:33:15.97Z</time></trkpt><trkpt lat="40.33467" lon="14.998255"><ele>133.0</ele><time>2026-04-25T11:33:16.976Z</time></trkpt><trkpt lat="40.33462" lon="14.9983433"><ele>135.0</ele><time>2026-04-25T11:33:17.969Z</time></trkpt><trkpt lat="40.3345783" lon="14.9984367"><ele>137.0</ele><time>2026-04-25T11:33:18.973Z</time></trkpt><trkpt lat="40.3345317" lon="14.9985267"><ele>139.0</ele><time>2026-04-25T11:33:20.032Z</time></trkpt><trkpt lat="40.33448" lon="14.99861"><ele>139.0</ele><time>2026-04-25T11:33:20.966Z</time></trkpt><trkpt lat="40.3344183" lon="14.9986817"><ele>139.0</ele><time>2026-04-25T11:33:21.965Z</time></trkpt><trkpt lat="40.3343467" lon="14.9987533"><ele>139.0</ele><time>2026-04-25T11:33:22.976Z</time></trkpt><trkpt lat="40.3342733" lon="14.9988133"><ele>139.0</ele><time>2026-04-25T11:33:23.972Z</time></trkpt><trkpt lat="40.3341867" lon="14.9988533"><ele>139.0</ele><time>2026-04-25T11:33:24.972Z</time></trkpt><trkpt lat="40.334105" lon="14.9988817"><ele>139.0</ele><time>2026-04-25T11:33:26.012Z</time></trkpt><trkpt lat="40.3340217" lon="14.9988833"><ele>139.0</ele><time>2026-04-25T11:33:26.968Z</time></trkpt><trkpt lat="40.333915" lon="14.9988483"><ele>139.0</ele><time>2026-04-25T11:33:27.966Z</time></trkpt><trkpt lat="40.33381" lon="14.9988033"><ele>139.0</ele><time>2026-04-25T11:33:28.973Z</time></trkpt><trkpt lat="40.333715" lon="14.9987583"><ele>139.0</ele><time>2026-04-25T11:33:29.968Z</time></trkpt><trkpt lat="40.33362" lon="14.9987317"><ele>139.0</ele><time>2026-04-25T11:33:30.969Z</time></trkpt><trkpt lat="40.33353" lon="14.9987233"><ele>140.8</ele><time>2026-04-25T11:33:32.028Z</time></trkpt><trkpt lat="40.3334333" lon="14.9987233"><ele>142.60000000000002</ele><time>2026-04-25T11:33:32.966Z</time></trkpt><trkpt lat="40.3333283" lon="14.9987433"><ele>144.4</ele><time>2026-04-25T11:33:33.967Z</time></trkpt><trkpt lat="40.3332117" lon="14.9987933"><ele>146.20000000000002</ele><time>2026-04-25T11:33:34.97Z</time></trkpt><trkpt lat="40.3331067" lon="14.99885"><ele>148.0</ele><time>2026-04-25T11:33:35.97Z</time></trkpt><trkpt lat="40.3329917" lon="14.9989233"><ele>147.75</ele><time>2026-04-25T11:33:36.97Z</time></trkpt><trkpt lat="40.3328833" lon="14.9990117"><ele>147.5</ele><time>2026-04-25T11:33:38.029Z</time></trkpt><trkpt lat="40.3327733" lon="14.9991083"><ele>147.25</ele><time>2026-04-25T11:33:38.97Z</time></trkpt><trkpt lat="40.332665" lon="14.9992"><ele>147.0</ele><time>2026-04-25T11:33:39.969Z</time></trkpt><trkpt lat="40.332565" lon="14.9992733"><ele>147.0</ele><time>2026-04-25T11:33:40.97Z</time></trkpt><trkpt lat="40.3324667" lon="14.9993267"><ele>147.0</ele><time>2026-04-25T11:33:41.97Z</time></trkpt><trkpt lat="40.3323667" lon="14.99936"><ele>147.0</ele><time>2026-04-25T11:33:42.974Z</time></trkpt><trkpt lat="40.33226" lon="14.999355"><ele>147.0</ele><time>2026-04-25T11:33:44.031Z</time></trkpt><trkpt lat="40.3321383" lon="14.99933"><ele>147.0</ele><time>2026-04-25T11:33:44.965Z</time></trkpt><trkpt lat="40.33202" lon="14.9993"><ele>148.0</ele><time>2026-04-25T11:33:45.98Z</time></trkpt><trkpt lat="40.3319233" lon="14.9992717"><ele>149.0</ele><time>2026-04-25T11:33:46.97Z</time></trkpt><trkpt lat="40.3318333" lon="14.9992467"><ele>150.0</ele><time>2026-04-25T11:33:47.966Z</time></trkpt><trkpt lat="40.3317367" lon="14.999225"><ele>151.0</ele><time>2026-04-25T11:33:48.973Z</time></trkpt><trkpt lat="40.3316317" lon="14.9992033"><ele>152.0</ele><time>2026-04-25T11:33:50.032Z</time></trkpt><trkpt lat="40.33152" lon="14.9991817"><ele>156.39999999999998</ele><time>2026-04-25T11:33:50.968Z</time></trkpt><trkpt lat="40.3314167" lon="14.9991583"><ele>160.79999999999998</ele><time>2026-04-25T11:33:51.971Z</time></trkpt><trkpt lat="40.3313217" lon="14.99913"><ele>165.2</ele><time>2026-04-25T11:33:52.975Z</time></trkpt><trkpt lat="40.3312383" lon="14.9991033"><ele>169.6</ele><time>2026-04-25T11:33:53.973Z</time></trkpt><trkpt lat="40.3311567" lon="14.999085"><ele>174.0</ele><time>2026-04-25T11:33:54.975Z</time></trkpt><trkpt lat="40.33107" lon="14.999065"><ele>178.0</ele><time>2026-04-25T11:33:56.033Z</time></trkpt><trkpt lat="40.330975" lon="14.9990417"><ele>182.0</ele><time>2026-04-25T11:33:56.964Z</time></trkpt><trkpt lat="40.3308733" lon="14.9990233"><ele>186.0</ele><time>2026-04-25T11:33:57.972Z</time></trkpt><trkpt lat="40.3307933" lon="14.99901"><ele>190.0</ele><time>2026-04-25T11:33:58.967Z</time></trkpt><trkpt lat="40.33073" lon="14.999005"><ele>194.0</ele><time>2026-04-25T11:33:59.962Z</time></trkpt><trkpt lat="40.330625" lon="14.999045"><ele>195.2</ele><time>2026-04-25T11:34:02.032Z</time></trkpt><trkpt lat="40.3305533" lon="14.9991583"><ele>196.39999999999998</ele><time>2026-04-25T11:34:03.963Z</time></trkpt><trkpt lat="40.3304667" lon="14.9992767"><ele>197.6</ele><time>2026-04-25T11:34:05.973Z</time></trkpt><trkpt lat="40.3304133" lon="14.99934"><ele>198.8</ele><time>2026-04-25T11:34:06.978Z</time></trkpt><trkpt lat="40.3303567" lon="14.9994"><ele>200.0</ele><time>2026-04-25T11:34:08.029Z</time></trkpt><trkpt lat="40.3303033" lon="14.999455"><ele>202.0</ele><time>2026-04-25T11:34:08.974Z</time></trkpt><trkpt lat="40.3302167" lon="14.99957"><ele>204.0</ele><time>2026-04-25T11:34:10.97Z</time></trkpt><trkpt lat="40.330165" lon="14.999655"><ele>206.0</ele><time>2026-04-25T11:34:11.969Z</time></trkpt><trkpt lat="40.3301067" lon="14.9997533"><ele>208.0</ele><time>2026-04-25T11:34:12.977Z</time></trkpt><trkpt lat="40.3300467" lon="14.9998583"><ele>210.0</ele><time>2026-04-25T11:34:14.023Z</time></trkpt><trkpt lat="40.32998" lon="14.999965"><ele>210.0</ele><time>2026-04-25T11:34:14.965Z</time></trkpt><trkpt lat="40.3299133" lon="15.00007"><ele>210.0</ele><time>2026-04-25T11:34:15.964Z</time></trkpt><trkpt lat="40.3298433" lon="15.0001633"><ele>210.0</ele><time>2026-04-25T11:34:16.971Z</time></trkpt><trkpt lat="40.3297667" lon="15.0002567"><ele>210.0</ele><time>2026-04-25T11:34:17.971Z</time></trkpt><trkpt lat="40.329695" lon="15.0003417"><ele>210.0</ele><time>2026-04-25T11:34:18.966Z</time></trkpt><trkpt lat="40.3296333" lon="15.0004083"><ele>210.33333333333334</ele><time>2026-04-25T11:34:20.026Z</time></trkpt><trkpt lat="40.32958" lon="15.000465"><ele>210.66666666666669</ele><time>2026-04-25T11:34:20.963Z</time></trkpt><trkpt lat="40.3295283" lon="15.0005133"><ele>211.0</ele><time>2026-04-25T11:34:21.964Z</time></trkpt><trkpt lat="40.329475" lon="15.000565"><ele>211.33333333333334</ele><time>2026-04-25T11:34:22.968Z</time></trkpt><trkpt lat="40.3294133" lon="15.0006267"><ele>211.66666666666669</ele><time>2026-04-25T11:34:23.971Z</time></trkpt><trkpt lat="40.3293467" lon="15.0006983"><ele>212.0</ele><time>2026-04-25T11:34:24.976Z</time></trkpt><trkpt lat="40.329265" lon="15.000785"><ele>212.0</ele><time>2026-04-25T11:34:26.036Z</time></trkpt><trkpt lat="40.3291833" lon="15.0008733"><ele>212.0</ele><time>2026-04-25T11:34:26.966Z</time></trkpt><trkpt lat="40.3291083" lon="15.0009517"><ele>212.0</ele><time>2026-04-25T11:34:27.967Z</time></trkpt><trkpt lat="40.32902" lon="15.0009883"><ele>212.0</ele><time>2026-04-25T11:34:29.963Z</time></trkpt><trkpt lat="40.3290183" lon="15.000855"><ele>212.0</ele><time>2026-04-25T11:34:32.963Z</time></trkpt><trkpt lat="40.329055" lon="15.0007583"><ele>212.0</ele><time>2026-04-25T11:34:33.962Z</time></trkpt><trkpt lat="40.3291067" lon="15.00064"><ele>212.0</ele><time>2026-04-25T11:34:34.974Z</time></trkpt><trkpt lat="40.3291533" lon="15.0005233"><ele>212.0</ele><time>2026-04-25T11:34:35.968Z</time></trkpt><trkpt lat="40.3292017" lon="15.0004117"><ele>212.0</ele><time>2026-04-25T11:34:36.978Z</time></trkpt><trkpt lat="40.3292367" lon="15.0003133"><ele>212.0</ele><time>2026-04-25T11:34:38.028Z</time></trkpt><trkpt lat="40.3292517" lon="15.0002133"><ele>212.00000000000003</ele><time>2026-04-25T11:34:38.966Z</time></trkpt><trkpt lat="40.3292383" lon="15.00012"><ele>212.0</ele><time>2026-04-25T11:34:39.965Z</time></trkpt><trkpt lat="40.3291933" lon="15.0000317"><ele>212.0</ele><time>2026-04-25T11:34:40.974Z</time></trkpt><trkpt lat="40.3291417" lon="14.9999533"><ele>212.0</ele><time>2026-04-25T11:34:41.97Z</time></trkpt><trkpt lat="40.3290667" lon="14.9998933"><ele>212.00000000000003</ele><time>2026-04-25T11:34:42.975Z</time></trkpt><trkpt lat="40.3289833" lon="14.99985"><ele>212.0</ele><time>2026-04-25T11:34:44.03Z</time></trkpt><trkpt lat="40.3289033" lon="14.999835"><ele>213.2</ele><time>2026-04-25T11:34:44.971Z</time></trkpt><trkpt lat="40.3288167" lon="14.9998433"><ele>214.39999999999998</ele><time>2026-04-25T11:34:45.97Z</time></trkpt><trkpt lat="40.3287167" lon="14.999875"><ele>215.60000000000002</ele><time>2026-04-25T11:34:46.975Z</time></trkpt><trkpt lat="40.328595" lon="14.9999233"><ele>216.8</ele><time>2026-04-25T11:34:47.964Z</time></trkpt><trkpt lat="40.3284733" lon="14.9999583"><ele>218.0</ele><time>2026-04-25T11:34:48.975Z</time></trkpt><trkpt lat="40.3283617" lon="14.9999783"><ele>218.0</ele><time>2026-04-25T11:34:50.026Z</time></trkpt><trkpt lat="40.3282517" lon="14.99998"><ele>218.0</ele><time>2026-04-25T11:34:50.966Z</time></trkpt><trkpt lat="40.3281433" lon="14.9999783"><ele>218.0</ele><time>2026-04-25T11:34:51.972Z</time></trkpt><trkpt lat="40.32805" lon="14.999945"><ele>218.0</ele><time>2026-04-25T11:34:52.975Z</time></trkpt><trkpt lat="40.3279833" lon="14.9998933"><ele>218.0</ele><time>2026-04-25T11:34:53.973Z</time></trkpt><trkpt lat="40.3278817" lon="14.9998017"><ele>219.4</ele><time>2026-04-25T11:34:56.036Z</time></trkpt><trkpt lat="40.3277583" lon="14.9997817"><ele>220.8</ele><time>2026-04-25T11:34:57.979Z</time></trkpt><trkpt lat="40.327675" lon="14.9998183"><ele>222.2</ele><time>2026-04-25T11:34:58.974Z</time></trkpt><trkpt lat="40.3275767" lon="14.99987"><ele>223.6</ele><time>2026-04-25T11:34:59.963Z</time></trkpt><trkpt lat="40.3274683" lon="14.999925"><ele>225.0</ele><time>2026-04-25T11:35:00.977Z</time></trkpt><trkpt lat="40.3273517" lon="14.9999733"><ele>225.0</ele><time>2026-04-25T11:35:02.029Z</time></trkpt><trkpt lat="40.327235" lon="15.00002"><ele>225.0</ele><time>2026-04-25T11:35:02.968Z</time></trkpt><trkpt lat="40.3271133" lon="15.000075"><ele>225.0</ele><time>2026-04-25T11:35:03.962Z</time></trkpt><trkpt lat="40.32699" lon="15.00014"><ele>225.0</ele><time>2026-04-25T11:35:04.965Z</time></trkpt><trkpt lat="40.3268667" lon="15.0002133"><ele>222.0</ele><time>2026-04-25T11:35:05.968Z</time></trkpt><trkpt lat="40.3267467" lon="15.0002883"><ele>219.0</ele><time>2026-04-25T11:35:06.969Z</time></trkpt><trkpt lat="40.3266283" lon="15.0003567"><ele>216.0</ele><time>2026-04-25T11:35:08.03Z</time></trkpt><trkpt lat="40.326515" lon="15.0004217"><ele>213.0</ele><time>2026-04-25T11:35:08.97Z</time></trkpt><trkpt lat="40.3263983" lon="15.0004783"><ele>211.25</ele><time>2026-04-25T11:35:09.967Z</time></trkpt><trkpt lat="40.32628" lon="15.000525"><ele>209.5</ele><time>2026-04-25T11:35:10.968Z</time></trkpt><trkpt lat="40.3261633" lon="15.0005533"><ele>207.75</ele><time>2026-04-25T11:35:11.972Z</time></trkpt><trkpt lat="40.326045" lon="15.0005633"><ele>206.0</ele><time>2026-04-25T11:35:12.969Z</time></trkpt><trkpt lat="40.3259267" lon="15.0005583"><ele>206.0</ele><time>2026-04-25T11:35:14.034Z</time></trkpt><trkpt lat="40.3258217" lon="15.00053"><ele>206.0</ele><time>2026-04-25T11:35:14.967Z</time></trkpt><trkpt lat="40.32572" lon="15.000505"><ele>206.0</ele><time>2026-04-25T11:35:15.974Z</time></trkpt><trkpt lat="40.3256183" lon="15.0004883"><ele>206.0</ele><time>2026-04-25T11:35:16.974Z</time></trkpt><trkpt lat="40.3255133" lon="15.0004883"><ele>206.0</ele><time>2026-04-25T11:35:17.97Z</time></trkpt><trkpt lat="40.3253933" lon="15.000505"><ele>204.5</ele><time>2026-04-25T11:35:18.971Z</time></trkpt><trkpt lat="40.3252667" lon="15.0005133"><ele>203.0</ele><time>2026-04-25T11:35:20.029Z</time></trkpt><trkpt lat="40.325145" lon="15.000505"><ele>201.5</ele><time>2026-04-25T11:35:20.966Z</time></trkpt><trkpt lat="40.3250267" lon="15.0004767"><ele>200.0</ele><time>2026-04-25T11:35:21.965Z</time></trkpt><trkpt lat="40.3249133" lon="15.000425"><ele>200.0</ele><time>2026-04-25T11:35:22.975Z</time></trkpt><trkpt lat="40.3248033" lon="15.00036"><ele>200.0</ele><time>2026-04-25T11:35:23.972Z</time></trkpt><trkpt lat="40.3247" lon="15.0002867"><ele>200.0</ele><time>2026-04-25T11:35:24.974Z</time></trkpt><trkpt lat="40.3245983" lon="15.000195"><ele>200.0</ele><time>2026-04-25T11:35:26.035Z</time></trkpt><trkpt lat="40.3244983" lon="15.0000933"><ele>200.5</ele><time>2026-04-25T11:35:26.97Z</time></trkpt><trkpt lat="40.3244033" lon="14.9999767"><ele>201.0</ele><time>2026-04-25T11:35:27.973Z</time></trkpt><trkpt lat="40.32432" lon="14.9998467"><ele>201.5</ele><time>2026-04-25T11:35:28.975Z</time></trkpt><trkpt lat="40.3242517" lon="14.99972"><ele>202.0</ele><time>2026-04-25T11:35:29.968Z</time></trkpt><trkpt lat="40.3241917" lon="14.9995983"><ele>201.99999999999997</ele><time>2026-04-25T11:35:30.971Z</time></trkpt><trkpt lat="40.3241433" lon="14.9994967"><ele>202.0</ele><time>2026-04-25T11:35:32.032Z</time></trkpt><trkpt lat="40.3241083" lon="14.9994133"><ele>202.0</ele><time>2026-04-25T11:35:32.966Z</time></trkpt><trkpt lat="40.3240417" lon="14.9993967"><ele>202.0</ele><time>2026-04-25T11:35:36.976Z</time></trkpt><trkpt lat="40.3239717" lon="14.9994883"><ele>201.99999999999997</ele><time>2026-04-25T11:35:38.972Z</time></trkpt><trkpt lat="40.323925" lon="14.9995467"><ele>202.0</ele><time>2026-04-25T11:35:39.976Z</time></trkpt><trkpt lat="40.3238833" lon="14.9996167"><ele>203.33333333333331</ele><time>2026-04-25T11:35:40.97Z</time></trkpt><trkpt lat="40.32383" lon="14.9996983"><ele>204.66666666666666</ele><time>2026-04-25T11:35:41.97Z</time></trkpt><trkpt lat="40.3237817" lon="14.9997783"><ele>206.0</ele><time>2026-04-25T11:35:42.974Z</time></trkpt><trkpt lat="40.3237367" lon="14.9998717"><ele>207.33333333333331</ele><time>2026-04-25T11:35:44.031Z</time></trkpt><trkpt lat="40.3236967" lon="14.999975"><ele>208.66666666666666</ele><time>2026-04-25T11:35:44.97Z</time></trkpt><trkpt lat="40.3236617" lon="15.000085"><ele>210.0</ele><time>2026-04-25T11:35:45.97Z</time></trkpt><trkpt lat="40.3236333" lon="15.0001983"><ele>210.0</ele><time>2026-04-25T11:35:46.978Z</time></trkpt><trkpt lat="40.3236117" lon="15.0003083"><ele>210.0</ele><time>2026-04-25T11:35:47.974Z</time></trkpt><trkpt lat="40.3235967" lon="15.0004"><ele>210.0</ele><time>2026-04-25T11:35:48.981Z</time></trkpt><trkpt lat="40.3235767" lon="15.00052"><ele>210.0</ele><time>2026-04-25T11:35:50.971Z</time></trkpt><trkpt lat="40.3234967" lon="15.0004733"><ele>210.0</ele><time>2026-04-25T11:36:04.973Z</time></trkpt><trkpt lat="40.3234367" lon="15.0003583"><ele>210.0</ele><time>2026-04-25T11:36:06.972Z</time></trkpt><trkpt lat="40.3233833" lon="15.0002683"><ele>210.0</ele><time>2026-04-25T11:36:08.031Z</time></trkpt><trkpt lat="40.323335" lon="15.0001733"><ele>210.0</ele><time>2026-04-25T11:36:08.969Z</time></trkpt><trkpt lat="40.3232867" lon="15.0000667"><ele>210.0</ele><time>2026-04-25T11:36:09.97Z</time></trkpt><trkpt lat="40.323235" lon="14.999955"><ele>210.0</ele><time>2026-04-25T11:36:10.968Z</time></trkpt><trkpt lat="40.323175" lon="14.9998417"><ele>210.0</ele><time>2026-04-25T11:36:11.97Z</time></trkpt><trkpt lat="40.32311" lon="14.9997333"><ele>207.8</ele><time>2026-04-25T11:36:12.968Z</time></trkpt><trkpt lat="40.3230383" lon="14.999635"><ele>205.6</ele><time>2026-04-25T11:36:14.03Z</time></trkpt><trkpt lat="40.3229617" lon="14.9995333"><ele>203.39999999999998</ele><time>2026-04-25T11:36:14.969Z</time></trkpt><trkpt lat="40.3228867" lon="14.9994267"><ele>201.2</ele><time>2026-04-25T11:36:15.97Z</time></trkpt><trkpt lat="40.32282" lon="14.9993133"><ele>199.0</ele><time>2026-04-25T11:36:16.973Z</time></trkpt><trkpt lat="40.3227617" lon="14.9992033"><ele>202.6</ele><time>2026-04-25T11:36:17.968Z</time></trkpt><trkpt lat="40.3227183" lon="14.999095"><ele>206.2</ele><time>2026-04-25T11:36:18.972Z</time></trkpt><trkpt lat="40.322685" lon="14.99898"><ele>209.79999999999998</ele><time>2026-04-25T11:36:20.027Z</time></trkpt><trkpt lat="40.3226667" lon="14.9988517"><ele>213.39999999999998</ele><time>2026-04-25T11:36:20.966Z</time></trkpt><trkpt lat="40.3226633" lon="14.998705"><ele>217.0</ele><time>2026-04-25T11:36:21.974Z</time></trkpt><trkpt lat="40.3226517" lon="14.9985383"><ele>217.0</ele><time>2026-04-25T11:36:22.973Z</time></trkpt><trkpt lat="40.3226383" lon="14.9983583"><ele>217.0</ele><time>2026-04-25T11:36:23.97Z</time></trkpt><trkpt lat="40.3226333" lon="14.9981833"><ele>217.0</ele><time>2026-04-25T11:36:24.977Z</time></trkpt><trkpt lat="40.32262" lon="14.9980233"><ele>217.0</ele><time>2026-04-25T11:36:26.029Z</time></trkpt><trkpt lat="40.3226067" lon="14.9978667"><ele>217.0</ele><time>2026-04-25T11:36:26.962Z</time></trkpt><trkpt lat="40.32259" lon="14.997715"><ele>217.0</ele><time>2026-04-25T11:36:27.965Z</time></trkpt><trkpt lat="40.322565" lon="14.9975717"><ele>217.0</ele><time>2026-04-25T11:36:28.973Z</time></trkpt><trkpt lat="40.3225283" lon="14.997445"><ele>217.0</ele><time>2026-04-25T11:36:29.968Z</time></trkpt><trkpt lat="40.3224867" lon="14.997325"><ele>217.0</ele><time>2026-04-25T11:36:30.97Z</time></trkpt><trkpt lat="40.3224333" lon="14.9972217"><ele>216.39999999999998</ele><time>2026-04-25T11:36:32.036Z</time></trkpt><trkpt lat="40.322365" lon="14.9971333"><ele>215.79999999999998</ele><time>2026-04-25T11:36:32.967Z</time></trkpt><trkpt lat="40.3222783" lon="14.9970483"><ele>215.2</ele><time>2026-04-25T11:36:33.965Z</time></trkpt><trkpt lat="40.3222" lon="14.9969533"><ele>214.6</ele><time>2026-04-25T11:36:34.973Z</time></trkpt><trkpt lat="40.322125" lon="14.9968567"><ele>214.0</ele><time>2026-04-25T11:36:35.972Z</time></trkpt><trkpt lat="40.3220533" lon="14.9967667"><ele>214.0</ele><time>2026-04-25T11:36:36.969Z</time></trkpt><trkpt lat="40.3219817" lon="14.99668"><ele>213.99999999999997</ele><time>2026-04-25T11:36:38.025Z</time></trkpt><trkpt lat="40.3219083" lon="14.9966"><ele>213.99999999999997</ele><time>2026-04-25T11:36:38.967Z</time></trkpt><trkpt lat="40.3218417" lon="14.996515"><ele>214.0</ele><time>2026-04-25T11:36:39.968Z</time></trkpt><trkpt lat="40.32177" lon="14.9964233"><ele>214.0</ele><time>2026-04-25T11:36:40.969Z</time></trkpt><trkpt lat="40.3216917" lon="14.99633"><ele>214.0</ele><time>2026-04-25T11:36:41.962Z</time></trkpt><trkpt lat="40.3216217" lon="14.9962417"><ele>213.99999999999997</ele><time>2026-04-25T11:36:42.972Z</time></trkpt><trkpt lat="40.3215617" lon="14.9961467"><ele>213.99999999999997</ele><time>2026-04-25T11:36:44.026Z</time></trkpt><trkpt lat="40.32151" lon="14.9960383"><ele>214.0</ele><time>2026-04-25T11:36:44.967Z</time></trkpt><trkpt lat="40.3214633" lon="14.9959217"><ele>214.0</ele><time>2026-04-25T11:36:45.964Z</time></trkpt><trkpt lat="40.3214133" lon="14.99581"><ele>213.2</ele><time>2026-04-25T11:36:46.973Z</time></trkpt><trkpt lat="40.321355" lon="14.9956983"><ele>212.39999999999998</ele><time>2026-04-25T11:36:47.969Z</time></trkpt><trkpt lat="40.3212883" lon="14.9955917"><ele>211.6</ele><time>2026-04-25T11:36:48.975Z</time></trkpt><trkpt lat="40.3212283" lon="14.99549"><ele>210.8</ele><time>2026-04-25T11:36:50.032Z</time></trkpt><trkpt lat="40.3211717" lon="14.9953917"><ele>210.0</ele><time>2026-04-25T11:36:50.967Z</time></trkpt><trkpt lat="40.3211183" lon="14.9952983"><ele>210.0</ele><time>2026-04-25T11:36:51.964Z</time></trkpt><trkpt lat="40.321065" lon="14.9952033"><ele>210.0</ele><time>2026-04-25T11:36:52.973Z</time></trkpt><trkpt lat="40.3210133" lon="14.9951017"><ele>210.0</ele><time>2026-04-25T11:36:53.974Z</time></trkpt><trkpt lat="40.3209633" lon="14.9949883"><ele>210.0</ele><time>2026-04-25T11:36:54.971Z</time></trkpt><trkpt lat="40.320915" lon="14.9948633"><ele>210.0</ele><time>2026-04-25T11:36:56.032Z</time></trkpt><trkpt lat="40.3208683" lon="14.9947317"><ele>212.4</ele><time>2026-04-25T11:36:56.967Z</time></trkpt><trkpt lat="40.320825" lon="14.9945983"><ele>214.8</ele><time>2026-04-25T11:36:57.967Z</time></trkpt><trkpt lat="40.320785" lon="14.9944733"><ele>217.2</ele><time>2026-04-25T11:36:58.98Z</time></trkpt><trkpt lat="40.3207483" lon="14.9943667"><ele>219.6</ele><time>2026-04-25T11:36:59.967Z</time></trkpt><trkpt lat="40.32071" lon="14.9942817"><ele>222.0</ele><time>2026-04-25T11:37:00.976Z</time></trkpt><trkpt lat="40.3206667" lon="14.9942067"><ele>221.83333333333334</ele><time>2026-04-25T11:37:02.031Z</time></trkpt><trkpt lat="40.3206183" lon="14.9941367"><ele>221.66666666666669</ele><time>2026-04-25T11:37:02.969Z</time></trkpt><trkpt lat="40.3205667" lon="14.9940583"><ele>221.5</ele><time>2026-04-25T11:37:03.969Z</time></trkpt><trkpt lat="40.3205133" lon="14.9939667"><ele>221.33333333333334</ele><time>2026-04-25T11:37:04.969Z</time></trkpt><trkpt lat="40.3204633" lon="14.9938783"><ele>221.16666666666669</ele><time>2026-04-25T11:37:05.972Z</time></trkpt><trkpt lat="40.3204167" lon="14.9938017"><ele>221.0</ele><time>2026-04-25T11:37:06.976Z</time></trkpt><trkpt lat="40.32038" lon="14.99373"><ele>220.66666666666669</ele><time>2026-04-25T11:37:08.024Z</time></trkpt><trkpt lat="40.3203417" lon="14.9936483"><ele>220.33333333333334</ele><time>2026-04-25T11:37:08.964Z</time></trkpt><trkpt lat="40.3202917" lon="14.9935617"><ele>220.0</ele><time>2026-04-25T11:37:09.966Z</time></trkpt><trkpt lat="40.320235" lon="14.993475"><ele>219.66666666666669</ele><time>2026-04-25T11:37:10.976Z</time></trkpt><trkpt lat="40.320175" lon="14.9933817"><ele>219.33333333333334</ele><time>2026-04-25T11:37:11.968Z</time></trkpt><trkpt lat="40.320115" lon="14.9932833"><ele>219.0</ele><time>2026-04-25T11:37:12.974Z</time></trkpt><trkpt lat="40.3200533" lon="14.9931833"><ele>219.0</ele><time>2026-04-25T11:37:14.028Z</time></trkpt><trkpt lat="40.3199967" lon="14.9930817"><ele>218.99999999999997</ele><time>2026-04-25T11:37:14.966Z</time></trkpt><trkpt lat="40.3199417" lon="14.9929717"><ele>218.99999999999997</ele><time>2026-04-25T11:37:15.971Z</time></trkpt><trkpt lat="40.31989" lon="14.9928433"><ele>219.0</ele><time>2026-04-25T11:37:16.973Z</time></trkpt><trkpt lat="40.3198383" lon="14.99271"><ele>219.0</ele><time>2026-04-25T11:37:17.972Z</time></trkpt><trkpt lat="40.3197917" lon="14.9925817"><ele>219.0</ele><time>2026-04-25T11:37:18.971Z</time></trkpt><trkpt lat="40.3197517" lon="14.9924667"><ele>218.99999999999997</ele><time>2026-04-25T11:37:20.027Z</time></trkpt><trkpt lat="40.3197217" lon="14.99235"><ele>218.99999999999997</ele><time>2026-04-25T11:37:20.975Z</time></trkpt><trkpt lat="40.3196817" lon="14.99223"><ele>219.0</ele><time>2026-04-25T11:37:21.97Z</time></trkpt><trkpt lat="40.3196433" lon="14.9921083"><ele>219.0</ele><time>2026-04-25T11:37:22.973Z</time></trkpt><trkpt lat="40.3196" lon="14.9919833"><ele>218.0</ele><time>2026-04-25T11:37:23.966Z</time></trkpt><trkpt lat="40.319555" lon="14.9918683"><ele>217.0</ele><time>2026-04-25T11:37:24.972Z</time></trkpt><trkpt lat="40.3195167" lon="14.99177"><ele>216.0</ele><time>2026-04-25T11:37:26.03Z</time></trkpt><trkpt lat="40.3194917" lon="14.9916817"><ele>215.0</ele><time>2026-04-25T11:37:26.97Z</time></trkpt><trkpt lat="40.3194633" lon="14.991585"><ele>214.0</ele><time>2026-04-25T11:37:27.969Z</time></trkpt><trkpt lat="40.3194317" lon="14.9914867"><ele>213.0</ele><time>2026-04-25T11:37:28.969Z</time></trkpt><trkpt lat="40.319395" lon="14.9913933"><ele>212.99999999999997</ele><time>2026-04-25T11:37:29.966Z</time></trkpt><trkpt lat="40.31935" lon="14.9913067"><ele>213.0</ele><time>2026-04-25T11:37:30.97Z</time></trkpt><trkpt lat="40.319305" lon="14.9912217"><ele>213.0</ele><time>2026-04-25T11:37:32.032Z</time></trkpt><trkpt lat="40.319265" lon="14.9911383"><ele>213.0</ele><time>2026-04-25T11:37:32.964Z</time></trkpt><trkpt lat="40.3192333" lon="14.9910533"><ele>213.0</ele><time>2026-04-25T11:37:33.964Z</time></trkpt><trkpt lat="40.3192033" lon="14.9909667"><ele>212.99999999999997</ele><time>2026-04-25T11:37:34.972Z</time></trkpt><trkpt lat="40.3191833" lon="14.9908867"><ele>213.0</ele><time>2026-04-25T11:37:35.968Z</time></trkpt><trkpt lat="40.319155" lon="14.9908033"><ele>212.0</ele><time>2026-04-25T11:37:36.973Z</time></trkpt><trkpt lat="40.319125" lon="14.9907167"><ele>211.0</ele><time>2026-04-25T11:37:38.025Z</time></trkpt><trkpt lat="40.31909" lon="14.9906183"><ele>210.0</ele><time>2026-04-25T11:37:38.963Z</time></trkpt><trkpt lat="40.3190533" lon="14.990515"><ele>209.0</ele><time>2026-04-25T11:37:39.966Z</time></trkpt><trkpt lat="40.3190217" lon="14.990405"><ele>208.0</ele><time>2026-04-25T11:37:40.965Z</time></trkpt><trkpt lat="40.31899" lon="14.9902883"><ele>207.0</ele><time>2026-04-25T11:37:41.971Z</time></trkpt><trkpt lat="40.3189533" lon="14.9901583"><ele>207.0</ele><time>2026-04-25T11:37:42.972Z</time></trkpt><trkpt lat="40.3189217" lon="14.9900217"><ele>207.0</ele><time>2026-04-25T11:37:44.025Z</time></trkpt><trkpt lat="40.3188817" lon="14.9898733"><ele>207.0</ele><time>2026-04-25T11:37:44.967Z</time></trkpt><trkpt lat="40.3188367" lon="14.9897217"><ele>207.0</ele><time>2026-04-25T11:37:45.97Z</time></trkpt><trkpt lat="40.318785" lon="14.9895733"><ele>204.39999999999998</ele><time>2026-04-25T11:37:46.97Z</time></trkpt><trkpt lat="40.3187267" lon="14.9894317"><ele>201.79999999999998</ele><time>2026-04-25T11:37:47.962Z</time></trkpt><trkpt lat="40.3186717" lon="14.9893"><ele>199.2</ele><time>2026-04-25T11:37:48.988Z</time></trkpt><trkpt lat="40.3186233" lon="14.98918"><ele>196.6</ele><time>2026-04-25T11:37:50.026Z</time></trkpt><trkpt lat="40.3185783" lon="14.989065"><ele>194.0</ele><time>2026-04-25T11:37:50.965Z</time></trkpt><trkpt lat="40.3185433" lon="14.988945"><ele>194.0</ele><time>2026-04-25T11:37:51.964Z</time></trkpt><trkpt lat="40.3185033" lon="14.9888067"><ele>194.0</ele><time>2026-04-25T11:37:52.964Z</time></trkpt><trkpt lat="40.3184583" lon="14.98866"><ele>194.0</ele><time>2026-04-25T11:37:53.966Z</time></trkpt><trkpt lat="40.318405" lon="14.9885017"><ele>194.0</ele><time>2026-04-25T11:37:54.975Z</time></trkpt><trkpt lat="40.31834" lon="14.9883217"><ele>197.0</ele><time>2026-04-25T11:37:56.039Z</time></trkpt><trkpt lat="40.31827" lon="14.988125"><ele>200.0</ele><time>2026-04-25T11:37:56.97Z</time></trkpt><trkpt lat="40.3182" lon="14.9879267"><ele>203.0</ele><time>2026-04-25T11:37:57.964Z</time></trkpt><trkpt lat="40.3181317" lon="14.987735"><ele>204.75</ele><time>2026-04-25T11:37:58.972Z</time></trkpt><trkpt lat="40.3180667" lon="14.98756"><ele>206.5</ele><time>2026-04-25T11:37:59.97Z</time></trkpt><trkpt lat="40.3180033" lon="14.9874017"><ele>208.25</ele><time>2026-04-25T11:38:00.973Z</time></trkpt><trkpt lat="40.3179417" lon="14.9872633"><ele>210.0</ele><time>2026-04-25T11:38:02.031Z</time></trkpt><trkpt lat="40.3178683" lon="14.9871417"><ele>210.0</ele><time>2026-04-25T11:38:02.965Z</time></trkpt><trkpt lat="40.3177783" lon="14.9870233"><ele>210.0</ele><time>2026-04-25T11:38:03.966Z</time></trkpt><trkpt lat="40.317685" lon="14.9868967"><ele>210.0</ele><time>2026-04-25T11:38:04.968Z</time></trkpt><trkpt lat="40.3175917" lon="14.98676"><ele>210.0</ele><time>2026-04-25T11:38:05.97Z</time></trkpt><trkpt lat="40.31752" lon="14.9866183"><ele>211.0</ele><time>2026-04-25T11:38:06.977Z</time></trkpt><trkpt lat="40.317465" lon="14.98648"><ele>212.0</ele><time>2026-04-25T11:38:08.029Z</time></trkpt><trkpt lat="40.3174533" lon="14.986345"><ele>213.0</ele><time>2026-04-25T11:38:08.971Z</time></trkpt><trkpt lat="40.31743" lon="14.9862283"><ele>214.0</ele><time>2026-04-25T11:38:09.971Z</time></trkpt><trkpt lat="40.3174017" lon="14.9861233"><ele>215.0</ele><time>2026-04-25T11:38:10.974Z</time></trkpt><trkpt lat="40.31735" lon="14.9860317"><ele>215.0</ele><time>2026-04-25T11:38:11.971Z</time></trkpt><trkpt lat="40.3172767" lon="14.9859533"><ele>215.0</ele><time>2026-04-25T11:38:12.976Z</time></trkpt><trkpt lat="40.3172067" lon="14.9858783"><ele>215.0</ele><time>2026-04-25T11:38:14.025Z</time></trkpt><trkpt lat="40.317075" lon="14.9858533"><ele>215.0</ele><time>2026-04-25T11:38:14.97Z</time></trkpt><trkpt lat="40.31696" lon="14.9858267"><ele>215.0</ele><time>2026-04-25T11:38:15.967Z</time></trkpt><trkpt lat="40.3168533" lon="14.9858"><ele>216.83333333333334</ele><time>2026-04-25T11:38:16.975Z</time></trkpt><trkpt lat="40.3167483" lon="14.9857833"><ele>218.66666666666669</ele><time>2026-04-25T11:38:17.97Z</time></trkpt><trkpt lat="40.3166633" lon="14.98576"><ele>220.5</ele><time>2026-04-25T11:38:18.972Z</time></trkpt><trkpt lat="40.31659" lon="14.9857317"><ele>222.33333333333331</ele><time>2026-04-25T11:38:20.03Z</time></trkpt><trkpt lat="40.3165233" lon="14.98569"><ele>224.16666666666666</ele><time>2026-04-25T11:38:20.967Z</time></trkpt><trkpt lat="40.31648" lon="14.9856083"><ele>226.0</ele><time>2026-04-25T11:38:21.967Z</time></trkpt><trkpt lat="40.3164417" lon="14.9855033"><ele>229.0</ele><time>2026-04-25T11:38:22.971Z</time></trkpt><trkpt lat="40.3164017" lon="14.98538"><ele>232.0</ele><time>2026-04-25T11:38:23.962Z</time></trkpt><trkpt lat="40.3163533" lon="14.9852417"><ele>235.0</ele><time>2026-04-25T11:38:24.973Z</time></trkpt><trkpt lat="40.3162983" lon="14.985095"><ele>238.0</ele><time>2026-04-25T11:38:26.036Z</time></trkpt><trkpt lat="40.3162283" lon="14.9849567"><ele>238.0</ele><time>2026-04-25T11:38:26.969Z</time></trkpt><trkpt lat="40.31616" lon="14.9848333"><ele>238.0</ele><time>2026-04-25T11:38:27.965Z</time></trkpt><trkpt lat="40.316105" lon="14.9847283"><ele>238.0</ele><time>2026-04-25T11:38:28.973Z</time></trkpt><trkpt lat="40.316065" lon="14.984635"><ele>238.0</ele><time>2026-04-25T11:38:29.965Z</time></trkpt><trkpt lat="40.3160483" lon="14.984535"><ele>238.0</ele><time>2026-04-25T11:38:30.977Z</time></trkpt><trkpt lat="40.3160417" lon="14.9844183"><ele>238.0</ele><time>2026-04-25T11:38:32.028Z</time></trkpt><trkpt lat="40.3160517" lon="14.9842767"><ele>238.0</ele><time>2026-04-25T11:38:32.968Z</time></trkpt><trkpt lat="40.3160583" lon="14.9841217"><ele>238.0</ele><time>2026-04-25T11:38:33.964Z</time></trkpt><trkpt lat="40.3160583" lon="14.9839667"><ele>238.0</ele><time>2026-04-25T11:38:34.968Z</time></trkpt><trkpt lat="40.316065" lon="14.9838217"><ele>238.0</ele><time>2026-04-25T11:38:35.966Z</time></trkpt><trkpt lat="40.31608" lon="14.983685"><ele>238.0</ele><time>2026-04-25T11:38:36.978Z</time></trkpt><trkpt lat="40.3161067" lon="14.9835567"><ele>238.0</ele><time>2026-04-25T11:38:38.026Z</time></trkpt><trkpt lat="40.316145" lon="14.9834317"><ele>238.0</ele><time>2026-04-25T11:38:38.966Z</time></trkpt><trkpt lat="40.3161783" lon="14.983305"><ele>238.0</ele><time>2026-04-25T11:38:39.967Z</time></trkpt><trkpt lat="40.3162183" lon="14.9831733"><ele>238.4</ele><time>2026-04-25T11:38:40.972Z</time></trkpt><trkpt lat="40.3162483" lon="14.983045"><ele>238.8</ele><time>2026-04-25T11:38:41.968Z</time></trkpt><trkpt lat="40.316275" lon="14.9829133"><ele>239.2</ele><time>2026-04-25T11:38:42.978Z</time></trkpt><trkpt lat="40.3162967" lon="14.9827767"><ele>239.6</ele><time>2026-04-25T11:38:44.029Z</time></trkpt><trkpt lat="40.31632" lon="14.98263"><ele>240.0</ele><time>2026-04-25T11:38:44.967Z</time></trkpt><trkpt lat="40.316345" lon="14.9824767"><ele>240.0</ele><time>2026-04-25T11:38:45.968Z</time></trkpt><trkpt lat="40.316375" lon="14.9823167"><ele>240.0</ele><time>2026-04-25T11:38:46.969Z</time></trkpt><trkpt lat="40.3164083" lon="14.982165"><ele>240.0</ele><time>2026-04-25T11:38:47.966Z</time></trkpt><trkpt lat="40.31644" lon="14.9820267"><ele>240.0</ele><time>2026-04-25T11:38:48.972Z</time></trkpt><trkpt lat="40.316465" lon="14.9819033"><ele>239.0</ele><time>2026-04-25T11:38:50.027Z</time></trkpt><trkpt lat="40.3164783" lon="14.9817783"><ele>238.0</ele><time>2026-04-25T11:38:50.97Z</time></trkpt><trkpt lat="40.316465" lon="14.9816483"><ele>237.0</ele><time>2026-04-25T11:38:51.971Z</time></trkpt><trkpt lat="40.3164233" lon="14.98151"><ele>236.0</ele><time>2026-04-25T11:38:52.973Z</time></trkpt><trkpt lat="40.3163633" lon="14.9813717"><ele>235.0</ele><time>2026-04-25T11:38:53.964Z</time></trkpt><trkpt lat="40.3162917" lon="14.9812383"><ele>235.0</ele><time>2026-04-25T11:38:54.967Z</time></trkpt><trkpt lat="40.3162283" lon="14.9811133"><ele>235.0</ele><time>2026-04-25T11:38:56.034Z</time></trkpt><trkpt lat="40.31616" lon="14.98099"><ele>235.0</ele><time>2026-04-25T11:38:56.968Z</time></trkpt><trkpt lat="40.3160867" lon="14.9808617"><ele>235.0</ele><time>2026-04-25T11:38:57.971Z</time></trkpt><trkpt lat="40.3160033" lon="14.9807317"><ele>233.0</ele><time>2026-04-25T11:38:58.968Z</time></trkpt><trkpt lat="40.3159" lon="14.980605"><ele>231.0</ele><time>2026-04-25T11:38:59.97Z</time></trkpt><trkpt lat="40.3157967" lon="14.9804883"><ele>229.0</ele><time>2026-04-25T11:39:00.976Z</time></trkpt><trkpt lat="40.3156933" lon="14.9803783"><ele>227.0</ele><time>2026-04-25T11:39:02.032Z</time></trkpt><trkpt lat="40.315605" lon="14.98027"><ele>224.8</ele><time>2026-04-25T11:39:02.966Z</time></trkpt><trkpt lat="40.31553" lon="14.980165"><ele>222.6</ele><time>2026-04-25T11:39:03.965Z</time></trkpt><trkpt lat="40.3154717" lon="14.9800467"><ele>220.40000000000003</ele><time>2026-04-25T11:39:04.97Z</time></trkpt><trkpt lat="40.3154217" lon="14.9799133"><ele>218.20000000000002</ele><time>2026-04-25T11:39:05.971Z</time></trkpt><trkpt lat="40.3153867" lon="14.9797667"><ele>216.0</ele><time>2026-04-25T11:39:06.975Z</time></trkpt><trkpt lat="40.3153683" lon="14.979615"><ele>215.60000000000002</ele><time>2026-04-25T11:39:08.029Z</time></trkpt><trkpt lat="40.3153417" lon="14.9794783"><ele>215.20000000000002</ele><time>2026-04-25T11:39:08.97Z</time></trkpt><trkpt lat="40.3153167" lon="14.9793533"><ele>214.79999999999998</ele><time>2026-04-25T11:39:09.966Z</time></trkpt><trkpt lat="40.3152883" lon="14.97923"><ele>214.39999999999998</ele><time>2026-04-25T11:39:10.97Z</time></trkpt><trkpt lat="40.3152667" lon="14.9791033"><ele>214.0</ele><time>2026-04-25T11:39:11.971Z</time></trkpt><trkpt lat="40.315245" lon="14.9789633"><ele>214.0</ele><time>2026-04-25T11:39:12.974Z</time></trkpt><trkpt lat="40.315225" lon="14.9788183"><ele>213.99999999999997</ele><time>2026-04-25T11:39:14.023Z</time></trkpt><trkpt lat="40.31521" lon="14.9786783"><ele>213.99999999999997</ele><time>2026-04-25T11:39:14.963Z</time></trkpt><trkpt lat="40.3152067" lon="14.9785483"><ele>214.0</ele><time>2026-04-25T11:39:15.968Z</time></trkpt><trkpt lat="40.3152167" lon="14.9784167"><ele>214.0</ele><time>2026-04-25T11:39:16.973Z</time></trkpt><trkpt lat="40.3152367" lon="14.9782817"><ele>214.75</ele><time>2026-04-25T11:39:17.965Z</time></trkpt><trkpt lat="40.315265" lon="14.9781283"><ele>215.5</ele><time>2026-04-25T11:39:18.967Z</time></trkpt><trkpt lat="40.315295" lon="14.9779583"><ele>216.25</ele><time>2026-04-25T11:39:20.028Z</time></trkpt><trkpt lat="40.3153233" lon="14.97779"><ele>217.0</ele><time>2026-04-25T11:39:20.967Z</time></trkpt><trkpt lat="40.31534" lon="14.977625"><ele>215.25</ele><time>2026-04-25T11:39:21.967Z</time></trkpt><trkpt lat="40.3153433" lon="14.9774583"><ele>213.5</ele><time>2026-04-25T11:39:22.966Z</time></trkpt><trkpt lat="40.3153333" lon="14.977295"><ele>211.75</ele><time>2026-04-25T11:39:23.968Z</time></trkpt><trkpt lat="40.31531" lon="14.977145"><ele>210.0</ele><time>2026-04-25T11:39:24.972Z</time></trkpt><trkpt lat="40.31527" lon="14.9770167"><ele>210.0</ele><time>2026-04-25T11:39:26.037Z</time></trkpt><trkpt lat="40.3151917" lon="14.9769117"><ele>210.0</ele><time>2026-04-25T11:39:26.966Z</time></trkpt><trkpt lat="40.3150967" lon="14.9768117"><ele>210.0</ele><time>2026-04-25T11:39:27.968Z</time></trkpt><trkpt lat="40.3150167" lon="14.97671"><ele>210.0</ele><time>2026-04-25T11:39:28.982Z</time></trkpt><trkpt lat="40.3149517" lon="14.9766083"><ele>210.0</ele><time>2026-04-25T11:39:29.966Z</time></trkpt><trkpt lat="40.3149017" lon="14.9764983"><ele>211.16666666666666</ele><time>2026-04-25T11:39:30.97Z</time></trkpt><trkpt lat="40.3149067" lon="14.9763933"><ele>212.33333333333331</ele><time>2026-04-25T11:39:32.028Z</time></trkpt><trkpt lat="40.3149283" lon="14.976295"><ele>213.5</ele><time>2026-04-25T11:39:32.966Z</time></trkpt><trkpt lat="40.3149617" lon="14.9761983"><ele>214.66666666666666</ele><time>2026-04-25T11:39:33.963Z</time></trkpt><trkpt lat="40.3150217" lon="14.9760917"><ele>215.83333333333331</ele><time>2026-04-25T11:39:34.972Z</time></trkpt><trkpt lat="40.3150967" lon="14.9759883"><ele>217.0</ele><time>2026-04-25T11:39:35.971Z</time></trkpt><trkpt lat="40.315195" lon="14.975875"><ele>215.5</ele><time>2026-04-25T11:39:36.971Z</time></trkpt><trkpt lat="40.315295" lon="14.9757717"><ele>214.0</ele><time>2026-04-25T11:39:38.027Z</time></trkpt><trkpt lat="40.3154" lon="14.97568"><ele>212.5</ele><time>2026-04-25T11:39:38.968Z</time></trkpt><trkpt lat="40.3155" lon="14.9756067"><ele>211.0</ele><time>2026-04-25T11:39:39.97Z</time></trkpt><trkpt lat="40.315595" lon="14.97555"><ele>214.20000000000002</ele><time>2026-04-25T11:39:40.97Z</time></trkpt><trkpt lat="40.3156817" lon="14.9755333"><ele>217.4</ele><time>2026-04-25T11:39:41.964Z</time></trkpt><trkpt lat="40.3157683" lon="14.975575"><ele>220.6</ele><time>2026-04-25T11:39:42.972Z</time></trkpt><trkpt lat="40.315875" lon="14.9756267"><ele>223.8</ele><time>2026-04-25T11:39:44.03Z</time></trkpt><trkpt lat="40.315995" lon="14.9756817"><ele>227.0</ele><time>2026-04-25T11:39:44.965Z</time></trkpt><trkpt lat="40.3161117" lon="14.9757267"><ele>227.0</ele><time>2026-04-25T11:39:45.969Z</time></trkpt><trkpt lat="40.316235" lon="14.9757483"><ele>227.0</ele><time>2026-04-25T11:39:46.969Z</time></trkpt><trkpt lat="40.3163517" lon="14.97573"><ele>227.0</ele><time>2026-04-25T11:39:47.961Z</time></trkpt><trkpt lat="40.3164667" lon="14.975685"><ele>227.0</ele><time>2026-04-25T11:39:48.961Z</time></trkpt><trkpt lat="40.3165767" lon="14.9756217"><ele>228.25</ele><time>2026-04-25T11:39:50.027Z</time></trkpt><trkpt lat="40.316675" lon="14.975515"><ele>229.5</ele><time>2026-04-25T11:39:50.965Z</time></trkpt><trkpt lat="40.3167633" lon="14.9754183"><ele>230.75</ele><time>2026-04-25T11:39:51.968Z</time></trkpt><trkpt lat="40.3168633" lon="14.9753333"><ele>232.0</ele><time>2026-04-25T11:39:52.974Z</time></trkpt><trkpt lat="40.3169683" lon="14.9752683"><ele>232.0</ele><time>2026-04-25T11:39:53.97Z</time></trkpt><trkpt lat="40.3170833" lon="14.9752167"><ele>232.0</ele><time>2026-04-25T11:39:54.975Z</time></trkpt><trkpt lat="40.3172233" lon="14.9751783"><ele>232.0</ele><time>2026-04-25T11:39:56.03Z</time></trkpt><trkpt lat="40.317375" lon="14.97513"><ele>232.0</ele><time>2026-04-25T11:39:56.966Z</time></trkpt><trkpt lat="40.3175217" lon="14.9750683"><ele>230.25</ele><time>2026-04-25T11:39:57.97Z</time></trkpt><trkpt lat="40.3176517" lon="14.975005"><ele>228.5</ele><time>2026-04-25T11:39:58.969Z</time></trkpt><trkpt lat="40.3177467" lon="14.9749117"><ele>226.75</ele><time>2026-04-25T11:39:59.975Z</time></trkpt><trkpt lat="40.3178383" lon="14.9747983"><ele>225.0</ele><time>2026-04-25T11:40:00.968Z</time></trkpt><trkpt lat="40.3179367" lon="14.9746633"><ele>225.0</ele><time>2026-04-25T11:40:02.035Z</time></trkpt><trkpt lat="40.3180417" lon="14.9745133"><ele>225.0</ele><time>2026-04-25T11:40:02.971Z</time></trkpt><trkpt lat="40.3181417" lon="14.9743683"><ele>225.0</ele><time>2026-04-25T11:40:03.968Z</time></trkpt><trkpt lat="40.3182417" lon="14.9742367"><ele>225.0</ele><time>2026-04-25T11:40:04.974Z</time></trkpt><trkpt lat="40.318335" lon="14.9741067"><ele>226.5</ele><time>2026-04-25T11:40:05.965Z</time></trkpt><trkpt lat="40.318415" lon="14.9739583"><ele>228.0</ele><time>2026-04-25T11:40:06.973Z</time></trkpt><trkpt lat="40.3184783" lon="14.9737967"><ele>229.5</ele><time>2026-04-25T11:40:08.032Z</time></trkpt><trkpt lat="40.3185233" lon="14.9736333"><ele>231.0</ele><time>2026-04-25T11:40:08.968Z</time></trkpt><trkpt lat="40.3185567" lon="14.9734717"><ele>229.0</ele><time>2026-04-25T11:40:09.966Z</time></trkpt><trkpt lat="40.3185767" lon="14.9733183"><ele>227.00000000000003</ele><time>2026-04-25T11:40:10.965Z</time></trkpt><trkpt lat="40.318585" lon="14.9731783"><ele>225.00000000000003</ele><time>2026-04-25T11:40:11.972Z</time></trkpt><trkpt lat="40.3186017" lon="14.9730533"><ele>223.0</ele><time>2026-04-25T11:40:12.97Z</time></trkpt><trkpt lat="40.318625" lon="14.97294"><ele>221.0</ele><time>2026-04-25T11:40:14.03Z</time></trkpt><trkpt lat="40.318665" lon="14.9728283"><ele>221.0</ele><time>2026-04-25T11:40:14.962Z</time></trkpt><trkpt lat="40.3187217" lon="14.9727217"><ele>221.0</ele><time>2026-04-25T11:40:15.964Z</time></trkpt><trkpt lat="40.31883" lon="14.97263"><ele>221.0</ele><time>2026-04-25T11:40:16.97Z</time></trkpt><trkpt lat="40.3189433" lon="14.9725317"><ele>221.0</ele><time>2026-04-25T11:40:17.966Z</time></trkpt><trkpt lat="40.319055" lon="14.97243"><ele>224.0</ele><time>2026-04-25T11:40:18.97Z</time></trkpt><trkpt lat="40.3191533" lon="14.972315"><ele>227.0</ele><time>2026-04-25T11:40:20.026Z</time></trkpt><trkpt lat="40.3192617" lon="14.972205"><ele>230.0</ele><time>2026-04-25T11:40:20.967Z</time></trkpt><trkpt lat="40.3193783" lon="14.9720933"><ele>233.0</ele><time>2026-04-25T11:40:21.968Z</time></trkpt><trkpt lat="40.3195" lon="14.9719733"><ele>233.0</ele><time>2026-04-25T11:40:22.974Z</time></trkpt><trkpt lat="40.31963" lon="14.97184"><ele>233.0</ele><time>2026-04-25T11:40:23.971Z</time></trkpt><trkpt lat="40.31977" lon="14.9717"><ele>233.0</ele><time>2026-04-25T11:40:24.972Z</time></trkpt><trkpt lat="40.31991" lon="14.9715583"><ele>233.33333333333334</ele><time>2026-04-25T11:40:26.031Z</time></trkpt><trkpt lat="40.3200417" lon="14.9714267"><ele>233.66666666666669</ele><time>2026-04-25T11:40:26.962Z</time></trkpt><trkpt lat="40.3201583" lon="14.9713"><ele>234.0</ele><time>2026-04-25T11:40:27.967Z</time></trkpt><trkpt lat="40.3202567" lon="14.9711817"><ele>234.0</ele><time>2026-04-25T11:40:28.975Z</time></trkpt><trkpt lat="40.3203483" lon="14.9710817"><ele>233.99999999999997</ele><time>2026-04-25T11:40:29.963Z</time></trkpt><trkpt lat="40.3204433" lon="14.971"><ele>233.99999999999997</ele><time>2026-04-25T11:40:30.97Z</time></trkpt><trkpt lat="40.3205383" lon="14.9709233"><ele>234.0</ele><time>2026-04-25T11:40:32.036Z</time></trkpt><trkpt lat="40.3206217" lon="14.9708417"><ele>234.0</ele><time>2026-04-25T11:40:32.964Z</time></trkpt><trkpt lat="40.320685" lon="14.9707483"><ele>232.5</ele><time>2026-04-25T11:40:33.966Z</time></trkpt><trkpt lat="40.3207133" lon="14.9706383"><ele>231.0</ele><time>2026-04-25T11:40:34.971Z</time></trkpt><trkpt lat="40.3207367" lon="14.970505"><ele>229.5</ele><time>2026-04-25T11:40:35.971Z</time></trkpt><trkpt lat="40.3207483" lon="14.9703267"><ele>228.0</ele><time>2026-04-25T11:40:36.974Z</time></trkpt><trkpt lat="40.3207567" lon="14.9701233"><ele>229.5</ele><time>2026-04-25T11:40:38.029Z</time></trkpt><trkpt lat="40.3207633" lon="14.96992"><ele>231.0</ele><time>2026-04-25T11:40:38.963Z</time></trkpt><trkpt lat="40.320765" lon="14.9697383"><ele>232.5</ele><time>2026-04-25T11:40:39.962Z</time></trkpt><trkpt lat="40.3207617" lon="14.96957"><ele>234.0</ele><time>2026-04-25T11:40:40.966Z</time></trkpt><trkpt lat="40.3207333" lon="14.96941"><ele>234.0</ele><time>2026-04-25T11:40:41.965Z</time></trkpt><trkpt lat="40.3206817" lon="14.9692517"><ele>234.0</ele><time>2026-04-25T11:40:42.971Z</time></trkpt><trkpt lat="40.3206283" lon="14.9690883"><ele>234.0</ele><time>2026-04-25T11:40:44.026Z</time></trkpt><trkpt lat="40.3205783" lon="14.9689283"><ele>234.0</ele><time>2026-04-25T11:40:44.977Z</time></trkpt><trkpt lat="40.320525" lon="14.9687767"><ele>233.75</ele><time>2026-04-25T11:40:45.963Z</time></trkpt><trkpt lat="40.320465" lon="14.9686333"><ele>233.5</ele><time>2026-04-25T11:40:46.975Z</time></trkpt><trkpt lat="40.3203917" lon="14.9684967"><ele>233.25</ele><time>2026-04-25T11:40:47.965Z</time></trkpt><trkpt lat="40.3202867" lon="14.9683767"><ele>233.0</ele><time>2026-04-25T11:40:48.971Z</time></trkpt><trkpt lat="40.3201783" lon="14.96827"><ele>233.0</ele><time>2026-04-25T11:40:50.027Z</time></trkpt><trkpt lat="40.3200783" lon="14.9681567"><ele>233.0</ele><time>2026-04-25T11:40:50.969Z</time></trkpt><trkpt lat="40.319975" lon="14.9680233"><ele>233.0</ele><time>2026-04-25T11:40:51.964Z</time></trkpt><trkpt lat="40.3198667" lon="14.967885"><ele>233.0</ele><time>2026-04-25T11:40:52.975Z</time></trkpt><trkpt lat="40.3197583" lon="14.9677583"><ele>230.8</ele><time>2026-04-25T11:40:53.97Z</time></trkpt><trkpt lat="40.3196533" lon="14.9676533"><ele>228.60000000000002</ele><time>2026-04-25T11:40:54.972Z</time></trkpt><trkpt lat="40.31957" lon="14.9675617"><ele>226.39999999999998</ele><time>2026-04-25T11:40:56.029Z</time></trkpt><trkpt lat="40.3195167" lon="14.9674783"><ele>224.2</ele><time>2026-04-25T11:40:56.962Z</time></trkpt><trkpt lat="40.319485" lon="14.9673783"><ele>222.0</ele><time>2026-04-25T11:40:57.966Z</time></trkpt><trkpt lat="40.31951" lon="14.9672633"><ele>222.0</ele><time>2026-04-25T11:40:58.966Z</time></trkpt><trkpt lat="40.3195483" lon="14.967135"><ele>222.0</ele><time>2026-04-25T11:40:59.97Z</time></trkpt><trkpt lat="40.319585" lon="14.9669983"><ele>222.0</ele><time>2026-04-25T11:41:00.969Z</time></trkpt><trkpt lat="40.3196117" lon="14.966835"><ele>222.0</ele><time>2026-04-25T11:41:02.033Z</time></trkpt><trkpt lat="40.31963" lon="14.9666567"><ele>222.75</ele><time>2026-04-25T11:41:02.962Z</time></trkpt><trkpt lat="40.3196333" lon="14.9664817"><ele>223.5</ele><time>2026-04-25T11:41:03.968Z</time></trkpt><trkpt lat="40.3196267" lon="14.966325"><ele>224.25</ele><time>2026-04-25T11:41:04.971Z</time></trkpt><trkpt lat="40.3196017" lon="14.9661833"><ele>225.0</ele><time>2026-04-25T11:41:05.965Z</time></trkpt><trkpt lat="40.319555" lon="14.966055"><ele>225.0</ele><time>2026-04-25T11:41:06.97Z</time></trkpt><trkpt lat="40.3194817" lon="14.9659417"><ele>225.0</ele><time>2026-04-25T11:41:08.028Z</time></trkpt><trkpt lat="40.3194067" lon="14.9658283"><ele>225.0</ele><time>2026-04-25T11:41:08.967Z</time></trkpt><trkpt lat="40.3193433" lon="14.96572"><ele>225.0</ele><time>2026-04-25T11:41:09.966Z</time></trkpt><trkpt lat="40.319295" lon="14.9656067"><ele>225.0</ele><time>2026-04-25T11:41:10.973Z</time></trkpt><trkpt lat="40.3192483" lon="14.96548"><ele>227.5</ele><time>2026-04-25T11:41:11.966Z</time></trkpt><trkpt lat="40.3191933" lon="14.965335"><ele>230.0</ele><time>2026-04-25T11:41:12.974Z</time></trkpt><trkpt lat="40.3191233" lon="14.96517"><ele>232.5</ele><time>2026-04-25T11:41:14.028Z</time></trkpt><trkpt lat="40.31904" lon="14.9650067"><ele>235.0</ele><time>2026-04-25T11:41:14.963Z</time></trkpt><trkpt lat="40.3189633" lon="14.9648633"><ele>233.6</ele><time>2026-04-25T11:41:15.97Z</time></trkpt><trkpt lat="40.3189" lon="14.964735"><ele>232.2</ele><time>2026-04-25T11:41:16.972Z</time></trkpt><trkpt lat="40.31885" lon="14.9646067"><ele>230.8</ele><time>2026-04-25T11:41:17.963Z</time></trkpt><trkpt lat="40.31882" lon="14.964475"><ele>229.4</ele><time>2026-04-25T11:41:18.979Z</time></trkpt><trkpt lat="40.3188133" lon="14.9643583"><ele>228.0</ele><time>2026-04-25T11:41:20.027Z</time></trkpt><trkpt lat="40.31885" lon="14.96424"><ele>227.4</ele><time>2026-04-25T11:41:20.965Z</time></trkpt><trkpt lat="40.3188867" lon="14.964115"><ele>226.8</ele><time>2026-04-25T11:41:21.964Z</time></trkpt><trkpt lat="40.3189383" lon="14.9639817"><ele>226.2</ele><time>2026-04-25T11:41:22.971Z</time></trkpt><trkpt lat="40.3190017" lon="14.9638517"><ele>225.6</ele><time>2026-04-25T11:41:23.965Z</time></trkpt><trkpt lat="40.31907" lon="14.9637483"><ele>225.0</ele><time>2026-04-25T11:41:24.973Z</time></trkpt><trkpt lat="40.3191433" lon="14.96367"><ele>227.0</ele><time>2026-04-25T11:41:26.035Z</time></trkpt><trkpt lat="40.3192283" lon="14.9636"><ele>229.0</ele><time>2026-04-25T11:41:26.965Z</time></trkpt><trkpt lat="40.3193267" lon="14.9635267"><ele>231.0</ele><time>2026-04-25T11:41:27.966Z</time></trkpt><trkpt lat="40.3194383" lon="14.963445"><ele>233.0</ele><time>2026-04-25T11:41:28.973Z</time></trkpt><trkpt lat="40.3195633" lon="14.9633567"><ele>233.0</ele><time>2026-04-25T11:41:29.966Z</time></trkpt><trkpt lat="40.3196917" lon="14.9632633"><ele>233.0</ele><time>2026-04-25T11:41:30.973Z</time></trkpt><trkpt lat="40.319815" lon="14.9631733"><ele>233.0</ele><time>2026-04-25T11:41:32.028Z</time></trkpt><trkpt lat="40.319925" lon="14.9630967"><ele>233.0</ele><time>2026-04-25T11:41:32.965Z</time></trkpt><trkpt lat="40.3200267" lon="14.9630167"><ele>234.75</ele><time>2026-04-25T11:41:33.971Z</time></trkpt><trkpt lat="40.3201167" lon="14.9628983"><ele>236.5</ele><time>2026-04-25T11:41:34.971Z</time></trkpt><trkpt lat="40.3202" lon="14.962745"><ele>238.25</ele><time>2026-04-25T11:41:35.974Z</time></trkpt><trkpt lat="40.3202883" lon="14.9625817"><ele>240.0</ele><time>2026-04-25T11:41:36.971Z</time></trkpt><trkpt lat="40.32039" lon="14.96242"><ele>240.0</ele><time>2026-04-25T11:41:38.027Z</time></trkpt><trkpt lat="40.3204867" lon="14.9622583"><ele>240.0</ele><time>2026-04-25T11:41:38.967Z</time></trkpt><trkpt lat="40.3205717" lon="14.9620933"><ele>240.0</ele><time>2026-04-25T11:41:39.97Z</time></trkpt><trkpt lat="40.320645" lon="14.961935"><ele>243.75</ele><time>2026-04-25T11:41:40.972Z</time></trkpt><trkpt lat="40.3206983" lon="14.9617867"><ele>247.5</ele><time>2026-04-25T11:41:41.965Z</time></trkpt><trkpt lat="40.3207233" lon="14.9616433"><ele>251.25</ele><time>2026-04-25T11:41:42.974Z</time></trkpt><trkpt lat="40.32073" lon="14.961485"><ele>255.0</ele><time>2026-04-25T11:41:44.028Z</time></trkpt><trkpt lat="40.32072" lon="14.9613083"><ele>255.0</ele><time>2026-04-25T11:41:44.964Z</time></trkpt><trkpt lat="40.3207117" lon="14.9611283"><ele>255.0</ele><time>2026-04-25T11:41:45.967Z</time></trkpt><trkpt lat="40.3207017" lon="14.9609583"><ele>255.0</ele><time>2026-04-25T11:41:46.973Z</time></trkpt><trkpt lat="40.3206983" lon="14.9608067"><ele>255.0</ele><time>2026-04-25T11:41:47.969Z</time></trkpt><trkpt lat="40.3206933" lon="14.9606617"><ele>255.5</ele><time>2026-04-25T11:41:48.966Z</time></trkpt><trkpt lat="40.320675" lon="14.9605133"><ele>256.0</ele><time>2026-04-25T11:41:50.029Z</time></trkpt><trkpt lat="40.3206383" lon="14.96035"><ele>256.5</ele><time>2026-04-25T11:41:50.966Z</time></trkpt><trkpt lat="40.3205817" lon="14.96015"><ele>257.0</ele><time>2026-04-25T11:41:51.96Z</time></trkpt><trkpt lat="40.3205267" lon="14.9599533"><ele>251.25</ele><time>2026-04-25T11:41:52.968Z</time></trkpt><trkpt lat="40.3204783" lon="14.9597633"><ele>245.5</ele><time>2026-04-25T11:41:53.969Z</time></trkpt><trkpt lat="40.3204317" lon="14.9595933"><ele>239.75</ele><time>2026-04-25T11:41:54.972Z</time></trkpt><trkpt lat="40.3203867" lon="14.9594417"><ele>234.0</ele><time>2026-04-25T11:41:56.031Z</time></trkpt><trkpt lat="40.3203417" lon="14.9593117"><ele>234.0</ele><time>2026-04-25T11:41:56.962Z</time></trkpt><trkpt lat="40.320295" lon="14.959205"><ele>234.0</ele><time>2026-04-25T11:41:57.964Z</time></trkpt><trkpt lat="40.3201883" lon="14.9591533"><ele>234.0</ele><time>2026-04-25T11:41:58.972Z</time></trkpt><trkpt lat="40.3200767" lon="14.9590917"><ele>234.0</ele><time>2026-04-25T11:41:59.969Z</time></trkpt><trkpt lat="40.3199367" lon="14.9590483"><ele>235.5</ele><time>2026-04-25T11:42:00.973Z</time></trkpt><trkpt lat="40.3197983" lon="14.95902"><ele>237.0</ele><time>2026-04-25T11:42:02.035Z</time></trkpt><trkpt lat="40.3196617" lon="14.959015"><ele>238.5</ele><time>2026-04-25T11:42:02.962Z</time></trkpt><trkpt lat="40.319525" lon="14.95903"><ele>240.0</ele><time>2026-04-25T11:42:03.965Z</time></trkpt><trkpt lat="40.319405" lon="14.95905"><ele>240.0</ele><time>2026-04-25T11:42:04.973Z</time></trkpt><trkpt lat="40.3192933" lon="14.9590633"><ele>240.0</ele><time>2026-04-25T11:42:05.972Z</time></trkpt><trkpt lat="40.3192033" lon="14.959045"><ele>240.0</ele><time>2026-04-25T11:42:06.97Z</time></trkpt><trkpt lat="40.319115" lon="14.9589983"><ele>240.0</ele><time>2026-04-25T11:42:08.025Z</time></trkpt><trkpt lat="40.3190183" lon="14.9589367"><ele>240.0</ele><time>2026-04-25T11:42:08.966Z</time></trkpt><trkpt lat="40.31891" lon="14.95885"><ele>236.25</ele><time>2026-04-25T11:42:09.964Z</time></trkpt><trkpt lat="40.3187833" lon="14.95876"><ele>232.5</ele><time>2026-04-25T11:42:10.972Z</time></trkpt><trkpt lat="40.3186417" lon="14.9586917"><ele>228.75</ele><time>2026-04-25T11:42:11.97Z</time></trkpt><trkpt lat="40.31851" lon="14.95864"><ele>225.0</ele><time>2026-04-25T11:42:12.971Z</time></trkpt><trkpt lat="40.3184" lon="14.9585867"><ele>225.0</ele><time>2026-04-25T11:42:14.026Z</time></trkpt><trkpt lat="40.3183083" lon="14.958525"><ele>225.0</ele><time>2026-04-25T11:42:14.965Z</time></trkpt><trkpt lat="40.3182317" lon="14.9584167"><ele>225.0</ele><time>2026-04-25T11:42:15.969Z</time></trkpt><trkpt lat="40.3181433" lon="14.9582767"><ele>225.0</ele><time>2026-04-25T11:42:16.975Z</time></trkpt><trkpt lat="40.3180383" lon="14.9581167"><ele>223.33333333333331</ele><time>2026-04-25T11:42:17.969Z</time></trkpt><trkpt lat="40.31791" lon="14.9579417"><ele>221.66666666666666</ele><time>2026-04-25T11:42:18.962Z</time></trkpt><trkpt lat="40.317795" lon="14.9577733"><ele>220.0</ele><time>2026-04-25T11:42:20.029Z</time></trkpt><trkpt lat="40.3177217" lon="14.9576433"><ele>220.0</ele><time>2026-04-25T11:42:20.962Z</time></trkpt><trkpt lat="40.317675" lon="14.9575467"><ele>220.0</ele><time>2026-04-25T11:42:21.974Z</time></trkpt><trkpt lat="40.3177" lon="14.9574033"><ele>220.0</ele><time>2026-04-25T11:42:23.972Z</time></trkpt><trkpt lat="40.317755" lon="14.9573067"><ele>220.0</ele><time>2026-04-25T11:42:24.969Z</time></trkpt><trkpt lat="40.3178217" lon="14.9571983"><ele>220.0</ele><time>2026-04-25T11:42:26.033Z</time></trkpt><trkpt lat="40.3179" lon="14.9570683"><ele>224.0</ele><time>2026-04-25T11:42:26.961Z</time></trkpt><trkpt lat="40.3179917" lon="14.9569233"><ele>228.0</ele><time>2026-04-25T11:42:27.968Z</time></trkpt><trkpt lat="40.3180933" lon="14.95677"><ele>232.0</ele><time>2026-04-25T11:42:28.97Z</time></trkpt><trkpt lat="40.31819" lon="14.9566217"><ele>236.0</ele><time>2026-04-25T11:42:29.964Z</time></trkpt><trkpt lat="40.3182817" lon="14.9564867"><ele>236.20000000000002</ele><time>2026-04-25T11:42:30.972Z</time></trkpt><trkpt lat="40.31836" lon="14.9563633"><ele>236.40000000000003</ele><time>2026-04-25T11:42:32.029Z</time></trkpt><trkpt lat="40.3184117" lon="14.9562533"><ele>236.6</ele><time>2026-04-25T11:42:32.963Z</time></trkpt><trkpt lat="40.3184383" lon="14.9561367"><ele>236.8</ele><time>2026-04-25T11:42:33.964Z</time></trkpt><trkpt lat="40.31843" lon="14.9559817"><ele>237.0</ele><time>2026-04-25T11:42:34.971Z</time></trkpt><trkpt lat="40.31843" lon="14.9558017"><ele>237.0</ele><time>2026-04-25T11:42:35.967Z</time></trkpt><trkpt lat="40.318435" lon="14.9556133"><ele>237.0</ele><time>2026-04-25T11:42:36.971Z</time></trkpt><trkpt lat="40.318445" lon="14.955435"><ele>237.0</ele><time>2026-04-25T11:42:38.025Z</time></trkpt><trkpt lat="40.31846" lon="14.9552867"><ele>237.0</ele><time>2026-04-25T11:42:38.968Z</time></trkpt><trkpt lat="40.3184883" lon="14.9551633"><ele>237.0</ele><time>2026-04-25T11:42:39.967Z</time></trkpt><trkpt lat="40.3185217" lon="14.9550717"><ele>237.0</ele><time>2026-04-25T11:42:40.975Z</time></trkpt><trkpt lat="40.3186017" lon="14.9549533"><ele>237.0</ele><time>2026-04-25T11:42:42.972Z</time></trkpt><trkpt lat="40.31866" lon="14.9549"><ele>237.0</ele><time>2026-04-25T11:42:44.026Z</time></trkpt><trkpt lat="40.3187367" lon="14.95486"><ele>237.0</ele><time>2026-04-25T11:42:44.961Z</time></trkpt><trkpt lat="40.3188217" lon="14.954825"><ele>237.0</ele><time>2026-04-25T11:42:45.967Z</time></trkpt><trkpt lat="40.3188983" lon="14.95479"><ele>237.83333333333334</ele><time>2026-04-25T11:42:46.963Z</time></trkpt><trkpt lat="40.3189667" lon="14.9547683"><ele>238.66666666666669</ele><time>2026-04-25T11:42:47.967Z</time></trkpt><trkpt lat="40.3190283" lon="14.954745"><ele>239.5</ele><time>2026-04-25T11:42:50.027Z</time></trkpt><trkpt lat="40.3191017" lon="14.9547167"><ele>240.33333333333334</ele><time>2026-04-25T11:42:54.973Z</time></trkpt><trkpt lat="40.3189883" lon="14.9547717"><ele>241.16666666666669</ele><time>2026-04-25T11:43:12.978Z</time></trkpt><trkpt lat="40.3189133" lon="14.9548083"><ele>242.0</ele><time>2026-04-25T11:43:14.027Z</time></trkpt><trkpt lat="40.3188383" lon="14.954845"><ele>239.33333333333334</ele><time>2026-04-25T11:43:14.967Z</time></trkpt><trkpt lat="40.3187767" lon="14.9548783"><ele>236.66666666666669</ele><time>2026-04-25T11:43:15.97Z</time></trkpt><trkpt lat="40.3186783" lon="14.9549317"><ele>234.0</ele><time>2026-04-25T11:43:17.97Z</time></trkpt><trkpt lat="40.318615" lon="14.954975"><ele>231.33333333333331</ele><time>2026-04-25T11:43:20.022Z</time></trkpt><trkpt lat="40.3185433" lon="14.9549783"><ele>228.66666666666666</ele><time>2026-04-25T11:43:22.978Z</time></trkpt><trkpt lat="40.3184817" lon="14.9549033"><ele>226.0</ele><time>2026-04-25T11:43:24.976Z</time></trkpt><trkpt lat="40.3184033" lon="14.9547733"><ele>226.0</ele><time>2026-04-25T11:43:26.965Z</time></trkpt><trkpt lat="40.3183383" lon="14.9546367"><ele>226.00000000000003</ele><time>2026-04-25T11:43:28.973Z</time></trkpt><trkpt lat="40.3182917" lon="14.9545017"><ele>226.00000000000003</ele><time>2026-04-25T11:43:30.971Z</time></trkpt><trkpt lat="40.3183017" lon="14.95438"><ele>226.0</ele><time>2026-04-25T11:43:32.963Z</time></trkpt><trkpt lat="40.3183567" lon="14.95429"><ele>226.0</ele><time>2026-04-25T11:43:34.972Z</time></trkpt><trkpt lat="40.3184533" lon="14.954265"><ele>226.0</ele><time>2026-04-25T11:43:36.974Z</time></trkpt><trkpt lat="40.3185533" lon="14.95429"><ele>226.00000000000003</ele><time>2026-04-25T11:43:38.966Z</time></trkpt><trkpt lat="40.31865" lon="14.9543333"><ele>226.00000000000003</ele><time>2026-04-25T11:43:40.963Z</time></trkpt><trkpt lat="40.3187417" lon="14.9543517"><ele>226.0</ele><time>2026-04-25T11:43:42.975Z</time></trkpt><trkpt lat="40.3188567" lon="14.95433"><ele>226.0</ele><time>2026-04-25T11:43:44.966Z</time></trkpt><trkpt lat="40.31892" lon="14.9543133"><ele>225.4</ele><time>2026-04-25T11:43:45.968Z</time></trkpt><trkpt lat="40.3190117" lon="14.9542433"><ele>224.8</ele><time>2026-04-25T11:43:47.971Z</time></trkpt><trkpt lat="40.3190767" lon="14.9541417"><ele>224.20000000000002</ele><time>2026-04-25T11:43:50.021Z</time></trkpt><trkpt lat="40.3191267" lon="14.9540383"><ele>223.60000000000002</ele><time>2026-04-25T11:43:51.964Z</time></trkpt><trkpt lat="40.3191783" lon="14.9539467"><ele>223.0</ele><time>2026-04-25T11:43:53.961Z</time></trkpt><trkpt lat="40.3192433" lon="14.9538733"><ele>223.0</ele><time>2026-04-25T11:43:56.026Z</time></trkpt><trkpt lat="40.31931" lon="14.9537833"><ele>223.0</ele><time>2026-04-25T11:43:57.972Z</time></trkpt><trkpt lat="40.3193783" lon="14.9536583"><ele>223.0</ele><time>2026-04-25T11:43:59.967Z</time></trkpt><trkpt lat="40.31944" lon="14.9535333"><ele>223.0</ele><time>2026-04-25T11:44:02.029Z</time></trkpt><trkpt lat="40.3194917" lon="14.953415"><ele>223.0</ele><time>2026-04-25T11:44:03.969Z</time></trkpt><trkpt lat="40.3195833" lon="14.9533367"><ele>220.33333333333331</ele><time>2026-04-25T11:44:05.974Z</time></trkpt><trkpt lat="40.319645" lon="14.9533067"><ele>217.66666666666666</ele><time>2026-04-25T11:44:06.971Z</time></trkpt><trkpt lat="40.3197083" lon="14.953285"><ele>215.0</ele><time>2026-04-25T11:44:08.018Z</time></trkpt><trkpt lat="40.3197717" lon="14.9532633"><ele>212.33333333333331</ele><time>2026-04-25T11:44:08.971Z</time></trkpt><trkpt lat="40.319885" lon="14.9532183"><ele>209.66666666666666</ele><time>2026-04-25T11:44:10.97Z</time></trkpt><trkpt lat="40.31998" lon="14.9531783"><ele>207.0</ele><time>2026-04-25T11:44:12.976Z</time></trkpt><trkpt lat="40.3200517" lon="14.9531267"><ele>207.0</ele><time>2026-04-25T11:44:14.967Z</time></trkpt><trkpt lat="40.3201183" lon="14.953055"><ele>207.0</ele><time>2026-04-25T11:44:16.965Z</time></trkpt><trkpt lat="40.320155" lon="14.9529817"><ele>207.0</ele><time>2026-04-25T11:44:18.973Z</time></trkpt><trkpt lat="40.3201017" lon="14.9528883"><ele>207.0</ele><time>2026-04-25T11:44:21.969Z</time></trkpt><trkpt lat="40.3200017" lon="14.9528417"><ele>207.0</ele><time>2026-04-25T11:44:23.965Z</time></trkpt><trkpt lat="40.3198717" lon="14.9527883"><ele>207.0</ele><time>2026-04-25T11:44:26.037Z</time></trkpt><trkpt lat="40.3197917" lon="14.95277"><ele>207.0</ele><time>2026-04-25T11:44:26.968Z</time></trkpt><trkpt lat="40.3197017" lon="14.9527667"><ele>207.0</ele><time>2026-04-25T11:44:27.965Z</time></trkpt><trkpt lat="40.3196133" lon="14.95277"><ele>207.0</ele><time>2026-04-25T11:44:28.97Z</time></trkpt><trkpt lat="40.3195333" lon="14.9527733"><ele>207.0</ele><time>2026-04-25T11:44:29.967Z</time></trkpt><trkpt lat="40.3194583" lon="14.9527783"><ele>207.0</ele><time>2026-04-25T11:44:30.969Z</time></trkpt><trkpt lat="40.319385" lon="14.9527983"><ele>206.39999999999998</ele><time>2026-04-25T11:44:32.025Z</time></trkpt><trkpt lat="40.319305" lon="14.9528267"><ele>205.79999999999998</ele><time>2026-04-25T11:44:32.965Z</time></trkpt><trkpt lat="40.3192117" lon="14.9528533"><ele>205.2</ele><time>2026-04-25T11:44:33.971Z</time></trkpt><trkpt lat="40.3191033" lon="14.95288"><ele>204.6</ele><time>2026-04-25T11:44:34.971Z</time></trkpt><trkpt lat="40.318995" lon="14.9529033"><ele>204.0</ele><time>2026-04-25T11:44:35.963Z</time></trkpt><trkpt lat="40.3188967" lon="14.95292"><ele>205.33333333333334</ele><time>2026-04-25T11:44:36.971Z</time></trkpt><trkpt lat="40.3188083" lon="14.952935"><ele>206.66666666666669</ele><time>2026-04-25T11:44:38.016Z</time></trkpt><trkpt lat="40.318735" lon="14.9529367"><ele>208.0</ele><time>2026-04-25T11:44:38.966Z</time></trkpt><trkpt lat="40.31867" lon="14.9529217"><ele>209.33333333333334</ele><time>2026-04-25T11:44:39.969Z</time></trkpt><trkpt lat="40.3185983" lon="14.9528267"><ele>210.66666666666669</ele><time>2026-04-25T11:44:41.965Z</time></trkpt><trkpt lat="40.3186" lon="14.9526883"><ele>212.0</ele><time>2026-04-25T11:44:44.021Z</time></trkpt><trkpt lat="40.318685" lon="14.952545"><ele>209.6</ele><time>2026-04-25T11:44:45.96Z</time></trkpt><trkpt lat="40.3187417" lon="14.95249"><ele>207.2</ele><time>2026-04-25T11:44:46.97Z</time></trkpt><trkpt lat="40.3188067" lon="14.952455"><ele>204.8</ele><time>2026-04-25T11:44:47.962Z</time></trkpt><trkpt lat="40.318925" lon="14.952455"><ele>202.4</ele><time>2026-04-25T11:44:50.016Z</time></trkpt><trkpt lat="40.3190467" lon="14.952465"><ele>200.0</ele><time>2026-04-25T11:44:51.965Z</time></trkpt><trkpt lat="40.3191217" lon="14.9524583"><ele>198.00000000000003</ele><time>2026-04-25T11:44:52.974Z</time></trkpt><trkpt lat="40.3192" lon="14.9524483"><ele>196.0</ele><time>2026-04-25T11:44:53.969Z</time></trkpt><trkpt lat="40.3192767" lon="14.952445"><ele>194.0</ele><time>2026-04-25T11:44:54.975Z</time></trkpt><trkpt lat="40.3193617" lon="14.9524367"><ele>192.0</ele><time>2026-04-25T11:44:56.021Z</time></trkpt><trkpt lat="40.3194433" lon="14.9524117"><ele>190.0</ele><time>2026-04-25T11:44:56.964Z</time></trkpt><trkpt lat="40.3195217" lon="14.952375"><ele>188.0</ele><time>2026-04-25T11:44:57.969Z</time></trkpt><trkpt lat="40.3195867" lon="14.9523317"><ele>188.0</ele><time>2026-04-25T11:44:58.971Z</time></trkpt><trkpt lat="40.31965" lon="14.95229"><ele>188.0</ele><time>2026-04-25T11:44:59.963Z</time></trkpt><trkpt lat="40.3197183" lon="14.9522533"><ele>188.0</ele><time>2026-04-25T11:45:00.971Z</time></trkpt><trkpt lat="40.31979" lon="14.952215"><ele>188.0</ele><time>2026-04-25T11:45:02.026Z</time></trkpt><trkpt lat="40.319865" lon="14.9521817"><ele>188.0</ele><time>2026-04-25T11:45:02.966Z</time></trkpt><trkpt lat="40.319935" lon="14.9521517"><ele>188.0</ele><time>2026-04-25T11:45:03.968Z</time></trkpt><trkpt lat="40.32" lon="14.9521133"><ele>188.0</ele><time>2026-04-25T11:45:04.969Z</time></trkpt><trkpt lat="40.3200783" lon="14.9520717"><ele>188.0</ele><time>2026-04-25T11:45:05.967Z</time></trkpt><trkpt lat="40.3201583" lon="14.9520217"><ele>188.0</ele><time>2026-04-25T11:45:06.968Z</time></trkpt><trkpt lat="40.3202367" lon="14.9519717"><ele>188.0</ele><time>2026-04-25T11:45:08.02Z</time></trkpt><trkpt lat="40.3202983" lon="14.95193"><ele>188.0</ele><time>2026-04-25T11:45:08.962Z</time></trkpt><trkpt lat="40.320405" lon="14.95187"><ele>188.0</ele><time>2026-04-25T11:45:10.972Z</time></trkpt><trkpt lat="40.32051" lon="14.9518183"><ele>188.66666666666666</ele><time>2026-04-25T11:45:12.971Z</time></trkpt><trkpt lat="40.3205683" lon="14.9517833"><ele>189.33333333333331</ele><time>2026-04-25T11:45:14.019Z</time></trkpt><trkpt lat="40.3206233" lon="14.9517417"><ele>190.0</ele><time>2026-04-25T11:45:14.968Z</time></trkpt><trkpt lat="40.3206833" lon="14.9516967"><ele>190.66666666666666</ele><time>2026-04-25T11:45:15.964Z</time></trkpt><trkpt lat="40.3207467" lon="14.9516583"><ele>191.33333333333334</ele><time>2026-04-25T11:45:16.974Z</time></trkpt><trkpt lat="40.3208467" lon="14.9515933"><ele>192.0</ele><time>2026-04-25T11:45:18.97Z</time></trkpt><trkpt lat="40.320905" lon="14.9515333"><ele>189.5</ele><time>2026-04-25T11:45:20.966Z</time></trkpt><trkpt lat="40.3209367" lon="14.9514383"><ele>187.0</ele><time>2026-04-25T11:45:22.963Z</time></trkpt><trkpt lat="40.3209567" lon="14.9512867"><ele>184.5</ele><time>2026-04-25T11:45:24.97Z</time></trkpt><trkpt lat="40.3209683" lon="14.9511817"><ele>182.0</ele><time>2026-04-25T11:45:26.027Z</time></trkpt><trkpt lat="40.320975" lon="14.95107"><ele>179.5</ele><time>2026-04-25T11:45:26.966Z</time></trkpt><trkpt lat="40.320995" lon="14.9509767"><ele>177.0</ele><time>2026-04-25T11:45:27.964Z</time></trkpt><trkpt lat="40.3210333" lon="14.9508883"><ele>174.83333333333334</ele><time>2026-04-25T11:45:28.97Z</time></trkpt><trkpt lat="40.3210567" lon="14.9508"><ele>172.66666666666666</ele><time>2026-04-25T11:45:29.966Z</time></trkpt><trkpt lat="40.3210833" lon="14.9507083"><ele>170.5</ele><time>2026-04-25T11:45:30.968Z</time></trkpt><trkpt lat="40.3211167" lon="14.9506117"><ele>168.33333333333331</ele><time>2026-04-25T11:45:32.022Z</time></trkpt><trkpt lat="40.3211467" lon="14.9505133"><ele>166.16666666666666</ele><time>2026-04-25T11:45:32.969Z</time></trkpt><trkpt lat="40.3211667" lon="14.95041"><ele>164.0</ele><time>2026-04-25T11:45:33.966Z</time></trkpt><trkpt lat="40.3211867" lon="14.9503217"><ele>164.0</ele><time>2026-04-25T11:45:34.97Z</time></trkpt><trkpt lat="40.3212383" lon="14.9501867"><ele>164.0</ele><time>2026-04-25T11:45:36.971Z</time></trkpt><trkpt lat="40.3212717" lon="14.9501167"><ele>164.0</ele><time>2026-04-25T11:45:38.019Z</time></trkpt><trkpt lat="40.32133" lon="14.9499867"><ele>164.0</ele><time>2026-04-25T11:45:39.966Z</time></trkpt><trkpt lat="40.321355" lon="14.949895"><ele>164.0</ele><time>2026-04-25T11:45:41.965Z</time></trkpt><trkpt lat="40.32132" lon="14.949795"><ele>161.83333333333331</ele><time>2026-04-25T11:45:44.022Z</time></trkpt><trkpt lat="40.3212533" lon="14.9496483"><ele>159.66666666666666</ele><time>2026-04-25T11:45:45.968Z</time></trkpt><trkpt lat="40.3212117" lon="14.94958"><ele>157.5</ele><time>2026-04-25T11:45:46.969Z</time></trkpt><trkpt lat="40.32117" lon="14.9495033"><ele>155.33333333333334</ele><time>2026-04-25T11:45:47.963Z</time></trkpt><trkpt lat="40.3211333" lon="14.9494233"><ele>153.16666666666669</ele><time>2026-04-25T11:45:48.97Z</time></trkpt><trkpt lat="40.3210983" lon="14.9493383"><ele>151.0</ele><time>2026-04-25T11:45:50.018Z</time></trkpt><trkpt lat="40.321065" lon="14.9492483"><ele>149.6</ele><time>2026-04-25T11:45:50.965Z</time></trkpt><trkpt lat="40.32103" lon="14.949155"><ele>148.2</ele><time>2026-04-25T11:45:51.964Z</time></trkpt><trkpt lat="40.320985" lon="14.94906"><ele>146.8</ele><time>2026-04-25T11:45:52.973Z</time></trkpt><trkpt lat="40.3209283" lon="14.948955"><ele>145.4</ele><time>2026-04-25T11:45:53.968Z</time></trkpt><trkpt lat="40.32087" lon="14.948845"><ele>144.0</ele><time>2026-04-25T11:45:54.97Z</time></trkpt><trkpt lat="40.320815" lon="14.9487433"><ele>144.0</ele><time>2026-04-25T11:45:56.008Z</time></trkpt><trkpt lat="40.3207633" lon="14.9486433"><ele>144.0</ele><time>2026-04-25T11:45:56.961Z</time></trkpt><trkpt lat="40.320705" lon="14.9485383"><ele>144.0</ele><time>2026-04-25T11:45:57.965Z</time></trkpt><trkpt lat="40.3206383" lon="14.948425"><ele>144.0</ele><time>2026-04-25T11:45:58.969Z</time></trkpt><trkpt lat="40.3205783" lon="14.948315"><ele>144.0</ele><time>2026-04-25T11:45:59.965Z</time></trkpt><trkpt lat="40.3205167" lon="14.948205"><ele>140.2</ele><time>2026-04-25T11:46:00.973Z</time></trkpt><trkpt lat="40.3204517" lon="14.9480983"><ele>136.4</ele><time>2026-04-25T11:46:02.031Z</time></trkpt><trkpt lat="40.3203883" lon="14.948"><ele>132.6</ele><time>2026-04-25T11:46:02.967Z</time></trkpt><trkpt lat="40.3203317" lon="14.9479117"><ele>128.8</ele><time>2026-04-25T11:46:03.967Z</time></trkpt><trkpt lat="40.320285" lon="14.9478367"><ele>125.0</ele><time>2026-04-25T11:46:04.974Z</time></trkpt><trkpt lat="40.3202367" lon="14.947705"><ele>125.0</ele><time>2026-04-25T11:46:06.973Z</time></trkpt><trkpt lat="40.32025" lon="14.9475467"><ele>125.0</ele><time>2026-04-25T11:46:08.967Z</time></trkpt><trkpt lat="40.32028" lon="14.9474733"><ele>125.0</ele><time>2026-04-25T11:46:09.966Z</time></trkpt><trkpt lat="40.3203633" lon="14.9473817"><ele>125.0</ele><time>2026-04-25T11:46:11.961Z</time></trkpt><trkpt lat="40.320435" lon="14.9473483"><ele>125.0</ele><time>2026-04-25T11:46:12.968Z</time></trkpt><trkpt lat="40.3205233" lon="14.9473283"><ele>126.2</ele><time>2026-04-25T11:46:14.019Z</time></trkpt><trkpt lat="40.3206183" lon="14.9473233"><ele>127.4</ele><time>2026-04-25T11:46:14.963Z</time></trkpt><trkpt lat="40.3207017" lon="14.9473283"><ele>128.6</ele><time>2026-04-25T11:46:15.958Z</time></trkpt><trkpt lat="40.32077" lon="14.9473333"><ele>129.8</ele><time>2026-04-25T11:46:16.971Z</time></trkpt><trkpt lat="40.32088" lon="14.94732"><ele>131.0</ele><time>2026-04-25T11:46:18.966Z</time></trkpt><trkpt lat="40.3209617" lon="14.9472533"><ele>131.0</ele><time>2026-04-25T11:46:20.965Z</time></trkpt><trkpt lat="40.320965" lon="14.94717"><ele>131.0</ele><time>2026-04-25T11:46:22.97Z</time></trkpt><trkpt lat="40.3208667" lon="14.94709"><ele>131.0</ele><time>2026-04-25T11:46:24.969Z</time></trkpt><trkpt lat="40.3207767" lon="14.94705"><ele>131.0</ele><time>2026-04-25T11:46:26.027Z</time></trkpt><trkpt lat="40.3206567" lon="14.9470283"><ele>131.0</ele><time>2026-04-25T11:46:26.965Z</time></trkpt><trkpt lat="40.320555" lon="14.9470117"><ele>129.4</ele><time>2026-04-25T11:46:27.967Z</time></trkpt><trkpt lat="40.3204517" lon="14.9470133"><ele>127.8</ele><time>2026-04-25T11:46:28.971Z</time></trkpt><trkpt lat="40.32034" lon="14.9470483"><ele>126.20000000000002</ele><time>2026-04-25T11:46:29.967Z</time></trkpt><trkpt lat="40.3202317" lon="14.9470883"><ele>124.60000000000001</ele><time>2026-04-25T11:46:30.973Z</time></trkpt><trkpt lat="40.3201383" lon="14.94712"><ele>123.0</ele><time>2026-04-25T11:46:32.027Z</time></trkpt><trkpt lat="40.3200467" lon="14.9471583"><ele>123.0</ele><time>2026-04-25T11:46:32.96Z</time></trkpt><trkpt lat="40.3199617" lon="14.9472067"><ele>123.0</ele><time>2026-04-25T11:46:33.978Z</time></trkpt><trkpt lat="40.319885" lon="14.94725"><ele>123.0</ele><time>2026-04-25T11:46:34.965Z</time></trkpt><trkpt lat="40.31981" lon="14.9472833"><ele>123.0</ele><time>2026-04-25T11:46:35.972Z</time></trkpt><trkpt lat="40.3197433" lon="14.9473033"><ele>123.0</ele><time>2026-04-25T11:46:36.972Z</time></trkpt><trkpt lat="40.3196417" lon="14.9472817"><ele>123.0</ele><time>2026-04-25T11:46:38.968Z</time></trkpt><trkpt lat="40.3195883" lon="14.947235"><ele>116.75</ele><time>2026-04-25T11:46:39.969Z</time></trkpt><trkpt lat="40.3195367" lon="14.947125"><ele>110.5</ele><time>2026-04-25T11:46:40.972Z</time></trkpt><trkpt lat="40.3194783" lon="14.9470067"><ele>104.25</ele><time>2026-04-25T11:46:41.973Z</time></trkpt><trkpt lat="40.3194083" lon="14.9468783"><ele>98.0</ele><time>2026-04-25T11:46:42.968Z</time></trkpt><trkpt lat="40.3193267" lon="14.9467383"><ele>99.25</ele><time>2026-04-25T11:46:44.019Z</time></trkpt><trkpt lat="40.3192483" lon="14.9465967"><ele>100.5</ele><time>2026-04-25T11:46:44.968Z</time></trkpt><trkpt lat="40.319175" lon="14.9464783"><ele>101.75</ele><time>2026-04-25T11:46:45.968Z</time></trkpt><trkpt lat="40.3190967" lon="14.9463733"><ele>103.0</ele><time>2026-04-25T11:46:46.974Z</time></trkpt><trkpt lat="40.3190033" lon="14.946275"><ele>100.0</ele><time>2026-04-25T11:46:47.968Z</time></trkpt><trkpt lat="40.318885" lon="14.94619"><ele>97.0</ele><time>2026-04-25T11:46:48.988Z</time></trkpt><trkpt lat="40.318755" lon="14.946115"><ele>94.0</ele><time>2026-04-25T11:46:50.019Z</time></trkpt><trkpt lat="40.31863" lon="14.9460433"><ele>91.0</ele><time>2026-04-25T11:46:50.963Z</time></trkpt><trkpt lat="40.3185017" lon="14.9459833"><ele>91.0</ele><time>2026-04-25T11:46:51.96Z</time></trkpt><trkpt lat="40.3183683" lon="14.94594"><ele>91.0</ele><time>2026-04-25T11:46:52.97Z</time></trkpt><trkpt lat="40.3182417" lon="14.9459"><ele>91.0</ele><time>2026-04-25T11:46:53.962Z</time></trkpt><trkpt lat="40.3181233" lon="14.94585"><ele>91.0</ele><time>2026-04-25T11:46:54.971Z</time></trkpt><trkpt lat="40.3180167" lon="14.9457917"><ele>93.6</ele><time>2026-04-25T11:46:56.023Z</time></trkpt><trkpt lat="40.317915" lon="14.9457383"><ele>96.19999999999999</ele><time>2026-04-25T11:46:56.963Z</time></trkpt><trkpt lat="40.3178217" lon="14.9456933"><ele>98.80000000000001</ele><time>2026-04-25T11:46:57.962Z</time></trkpt><trkpt lat="40.3177417" lon="14.9456417"><ele>101.4</ele><time>2026-04-25T11:46:58.971Z</time></trkpt><trkpt lat="40.3176733" lon="14.94558"><ele>104.0</ele><time>2026-04-25T11:46:59.961Z</time></trkpt><trkpt lat="40.3176167" lon="14.9455017"><ele>104.0</ele><time>2026-04-25T11:47:00.973Z</time></trkpt><trkpt lat="40.3175833" lon="14.9454017"><ele>104.0</ele><time>2026-04-25T11:47:02.029Z</time></trkpt><trkpt lat="40.3175567" lon="14.9452883"><ele>104.0</ele><time>2026-04-25T11:47:02.965Z</time></trkpt><trkpt lat="40.3175433" lon="14.9451533"><ele>104.0</ele><time>2026-04-25T11:47:03.964Z</time></trkpt><trkpt lat="40.317545" lon="14.9449817"><ele>104.0</ele><time>2026-04-25T11:47:04.968Z</time></trkpt><trkpt lat="40.3175383" lon="14.9448133"><ele>104.4</ele><time>2026-04-25T11:47:05.969Z</time></trkpt><trkpt lat="40.3175283" lon="14.9446567"><ele>104.80000000000001</ele><time>2026-04-25T11:47:06.973Z</time></trkpt><trkpt lat="40.31751" lon="14.9445117"><ele>105.19999999999999</ele><time>2026-04-25T11:47:08.014Z</time></trkpt><trkpt lat="40.317495" lon="14.9443783"><ele>105.6</ele><time>2026-04-25T11:47:08.964Z</time></trkpt><trkpt lat="40.3174833" lon="14.9442483"><ele>106.0</ele><time>2026-04-25T11:47:09.967Z</time></trkpt><trkpt lat="40.317475" lon="14.944115"><ele>103.75</ele><time>2026-04-25T11:47:10.971Z</time></trkpt><trkpt lat="40.317465" lon="14.94397"><ele>101.5</ele><time>2026-04-25T11:47:11.966Z</time></trkpt><trkpt lat="40.3174567" lon="14.9438183"><ele>99.25</ele><time>2026-04-25T11:47:12.969Z</time></trkpt><trkpt lat="40.3174483" lon="14.9436567"><ele>97.0</ele><time>2026-04-25T11:47:14.017Z</time></trkpt><trkpt lat="40.317445" lon="14.9434933"><ele>95.8</ele><time>2026-04-25T11:47:14.967Z</time></trkpt><trkpt lat="40.3174417" lon="14.943345"><ele>94.6</ele><time>2026-04-25T11:47:15.968Z</time></trkpt><trkpt lat="40.3174433" lon="14.943205"><ele>93.39999999999999</ele><time>2026-04-25T11:47:16.964Z</time></trkpt><trkpt lat="40.3174433" lon="14.94307"><ele>92.19999999999999</ele><time>2026-04-25T11:47:17.958Z</time></trkpt><trkpt lat="40.3174417" lon="14.942935"><ele>91.0</ele><time>2026-04-25T11:47:18.965Z</time></trkpt><trkpt lat="40.3174383" lon="14.942795"><ele>91.0</ele><time>2026-04-25T11:47:20.019Z</time></trkpt><trkpt lat="40.3174367" lon="14.9426567"><ele>91.0</ele><time>2026-04-25T11:47:20.965Z</time></trkpt><trkpt lat="40.31744" lon="14.9425083"><ele>91.0</ele><time>2026-04-25T11:47:21.964Z</time></trkpt><trkpt lat="40.3174467" lon="14.9423417"><ele>91.0</ele><time>2026-04-25T11:47:22.967Z</time></trkpt><trkpt lat="40.3174517" lon="14.942175"><ele>90.0</ele><time>2026-04-25T11:47:23.962Z</time></trkpt><trkpt lat="40.3174567" lon="14.942015"><ele>89.0</ele><time>2026-04-25T11:47:24.973Z</time></trkpt><trkpt lat="40.3174517" lon="14.9418633"><ele>88.0</ele><time>2026-04-25T11:47:26.026Z</time></trkpt><trkpt lat="40.317445" lon="14.9417183"><ele>87.0</ele><time>2026-04-25T11:47:26.96Z</time></trkpt><trkpt lat="40.3174367" lon="14.9415717"><ele>86.39999999999999</ele><time>2026-04-25T11:47:27.967Z</time></trkpt><trkpt lat="40.3174283" lon="14.9414267"><ele>85.8</ele><time>2026-04-25T11:47:28.97Z</time></trkpt><trkpt lat="40.3174067" lon="14.9412817"><ele>85.2</ele><time>2026-04-25T11:47:29.961Z</time></trkpt><trkpt lat="40.3173833" lon="14.9411433"><ele>84.6</ele><time>2026-04-25T11:47:30.967Z</time></trkpt><trkpt lat="40.3173583" lon="14.9410117"><ele>84.0</ele><time>2026-04-25T11:47:32.025Z</time></trkpt><trkpt lat="40.3173183" lon="14.940895"><ele>82.57142857142857</ele><time>2026-04-25T11:47:32.964Z</time></trkpt><trkpt lat="40.3172867" lon="14.9408"><ele>81.14285714285714</ele><time>2026-04-25T11:47:33.965Z</time></trkpt><trkpt lat="40.31726" lon="14.9407117"><ele>79.71428571428572</ele><time>2026-04-25T11:47:34.967Z</time></trkpt><trkpt lat="40.3172283" lon="14.9406383"><ele>78.28571428571428</ele><time>2026-04-25T11:47:35.967Z</time></trkpt><trkpt lat="40.31719" lon="14.9405517"><ele>76.85714285714286</ele><time>2026-04-25T11:47:38.022Z</time></trkpt><trkpt lat="40.3171383" lon="14.94064"><ele>75.42857142857143</ele><time>2026-04-25T11:49:05.963Z</time></trkpt><trkpt lat="40.317075" lon="14.940675"><ele>74.0</ele><time>2026-04-25T11:49:06.966Z</time></trkpt><trkpt lat="40.3169867" lon="14.9407317"><ele>77.75</ele><time>2026-04-25T11:49:08.019Z</time></trkpt><trkpt lat="40.31688" lon="14.94081"><ele>81.5</ele><time>2026-04-25T11:49:08.967Z</time></trkpt><trkpt lat="40.3167533" lon="14.9409667"><ele>85.25</ele><time>2026-04-25T11:49:09.964Z</time></trkpt><trkpt lat="40.3166533" lon="14.9410933"><ele>89.0</ele><time>2026-04-25T11:49:10.971Z</time></trkpt><trkpt lat="40.316555" lon="14.941215"><ele>89.0</ele><time>2026-04-25T11:49:11.97Z</time></trkpt><trkpt lat="40.3164567" lon="14.94133"><ele>89.0</ele><time>2026-04-25T11:49:12.969Z</time></trkpt><trkpt lat="40.31637" lon="14.9414333"><ele>89.0</ele><time>2026-04-25T11:49:14.017Z</time></trkpt><trkpt lat="40.3162917" lon="14.9415467"><ele>89.0</ele><time>2026-04-25T11:49:14.964Z</time></trkpt><trkpt lat="40.3162067" lon="14.9416483"><ele>87.4</ele><time>2026-04-25T11:49:15.968Z</time></trkpt><trkpt lat="40.3161417" lon="14.941775"><ele>85.80000000000001</ele><time>2026-04-25T11:49:16.97Z</time></trkpt><trkpt lat="40.316085" lon="14.9419083"><ele>84.19999999999999</ele><time>2026-04-25T11:49:17.967Z</time></trkpt><trkpt lat="40.3160233" lon="14.94202"><ele>82.6</ele><time>2026-04-25T11:49:18.972Z</time></trkpt><trkpt lat="40.3159617" lon="14.942115"><ele>81.0</ele><time>2026-04-25T11:49:20.024Z</time></trkpt><trkpt lat="40.3158783" lon="14.942205"><ele>81.0</ele><time>2026-04-25T11:49:20.962Z</time></trkpt><trkpt lat="40.315775" lon="14.9423"><ele>81.0</ele><time>2026-04-25T11:49:21.964Z</time></trkpt><trkpt lat="40.315645" lon="14.94239"><ele>81.0</ele><time>2026-04-25T11:49:22.971Z</time></trkpt><trkpt lat="40.3155317" lon="14.9424967"><ele>81.0</ele><time>2026-04-25T11:49:23.964Z</time></trkpt><trkpt lat="40.3154333" lon="14.942605"><ele>76.75</ele><time>2026-04-25T11:49:24.968Z</time></trkpt><trkpt lat="40.3153217" lon="14.9427183"><ele>72.5</ele><time>2026-04-25T11:49:26.027Z</time></trkpt><trkpt lat="40.3152183" lon="14.9428417"><ele>68.25</ele><time>2026-04-25T11:49:26.964Z</time></trkpt><trkpt lat="40.3151167" lon="14.9429767"><ele>64.0</ele><time>2026-04-25T11:49:27.964Z</time></trkpt><trkpt lat="40.3150117" lon="14.943105"><ele>64.0</ele><time>2026-04-25T11:49:28.969Z</time></trkpt><trkpt lat="40.3149183" lon="14.94324"><ele>64.0</ele><time>2026-04-25T11:49:29.968Z</time></trkpt><trkpt lat="40.314825" lon="14.9433683"><ele>64.0</ele><time>2026-04-25T11:49:30.963Z</time></trkpt><trkpt lat="40.31473" lon="14.9434983"><ele>64.0</ele><time>2026-04-25T11:49:32.03Z</time></trkpt><trkpt lat="40.3146383" lon="14.94364"><ele>62.5</ele><time>2026-04-25T11:49:32.968Z</time></trkpt><trkpt lat="40.3145483" lon="14.9437867"><ele>61.0</ele><time>2026-04-25T11:49:33.96Z</time></trkpt><trkpt lat="40.314465" lon="14.9439367"><ele>59.5</ele><time>2026-04-25T11:49:34.974Z</time></trkpt><trkpt lat="40.31438" lon="14.9440983"><ele>58.0</ele><time>2026-04-25T11:49:35.961Z</time></trkpt><trkpt lat="40.3142883" lon="14.9442633"><ele>58.0</ele><time>2026-04-25T11:49:36.97Z</time></trkpt><trkpt lat="40.3141933" lon="14.9444267"><ele>58.0</ele><time>2026-04-25T11:49:38.015Z</time></trkpt><trkpt lat="40.3141017" lon="14.9445833"><ele>58.0</ele><time>2026-04-25T11:49:38.961Z</time></trkpt><trkpt lat="40.314005" lon="14.9447317"><ele>58.0</ele><time>2026-04-25T11:49:39.965Z</time></trkpt><trkpt lat="40.31391" lon="14.9448783"><ele>58.0</ele><time>2026-04-25T11:49:40.97Z</time></trkpt><trkpt lat="40.3138167" lon="14.945025"><ele>58.0</ele><time>2026-04-25T11:49:41.964Z</time></trkpt><trkpt lat="40.313725" lon="14.9451583"><ele>58.0</ele><time>2026-04-25T11:49:42.966Z</time></trkpt><trkpt lat="40.3136383" lon="14.9452767"><ele>52.4</ele><time>2026-04-25T11:49:44.019Z</time></trkpt><trkpt lat="40.3135683" lon="14.9453783"><ele>46.8</ele><time>2026-04-25T11:49:44.965Z</time></trkpt><trkpt lat="40.3134983" lon="14.9454783"><ele>41.2</ele><time>2026-04-25T11:49:45.967Z</time></trkpt><trkpt lat="40.313425" lon="14.9455833"><ele>35.6</ele><time>2026-04-25T11:49:46.969Z</time></trkpt><trkpt lat="40.31336" lon="14.945685"><ele>30.0</ele><time>2026-04-25T11:49:47.96Z</time></trkpt><trkpt lat="40.313305" lon="14.945775"><ele>30.0</ele><time>2026-04-25T11:49:48.968Z</time></trkpt><trkpt lat="40.313255" lon="14.945855"><ele>30.0</ele><time>2026-04-25T11:49:50.021Z</time></trkpt><trkpt lat="40.31317" lon="14.9459317"><ele>30.0</ele><time>2026-04-25T11:49:51.963Z</time></trkpt><trkpt lat="40.313065" lon="14.945985"><ele>30.0</ele><time>2026-04-25T11:49:53.97Z</time></trkpt><trkpt lat="40.3129783" lon="14.94602"><ele>30.0</ele><time>2026-04-25T11:49:54.971Z</time></trkpt><trkpt lat="40.3128683" lon="14.9460783"><ele>26.0</ele><time>2026-04-25T11:49:56.028Z</time></trkpt><trkpt lat="40.3127383" lon="14.9461967"><ele>22.0</ele><time>2026-04-25T11:49:56.962Z</time></trkpt><trkpt lat="40.3126233" lon="14.9463"><ele>18.0</ele><time>2026-04-25T11:49:57.963Z</time></trkpt><trkpt lat="40.31252" lon="14.94639"><ele>14.0</ele><time>2026-04-25T11:49:58.969Z</time></trkpt><trkpt lat="40.312425" lon="14.94646"><ele>14.0</ele><time>2026-04-25T11:49:59.97Z</time></trkpt><trkpt lat="40.31234" lon="14.9465217"><ele>13.999999999999998</ele><time>2026-04-25T11:50:00.969Z</time></trkpt><trkpt lat="40.31228" lon="14.9465633"><ele>13.999999999999998</ele><time>2026-04-25T11:50:02.024Z</time></trkpt><trkpt lat="40.3122183" lon="14.9467"><ele>14.0</ele><time>2026-04-25T11:50:03.968Z</time></trkpt><trkpt lat="40.3122283" lon="14.9468167"><ele>14.0</ele><time>2026-04-25T11:50:04.972Z</time></trkpt><trkpt lat="40.3122417" lon="14.9469283"><ele>14.0</ele><time>2026-04-25T11:50:05.968Z</time></trkpt><trkpt lat="40.3122567" lon="14.9470267"><ele>13.999999999999998</ele><time>2026-04-25T11:50:06.968Z</time></trkpt><trkpt lat="40.3121417" lon="14.9471233"><ele>13.999999999999998</ele><time>2026-04-25T11:50:08.967Z</time></trkpt><trkpt lat="40.3120417" lon="14.9471533"><ele>14.0</ele><time>2026-04-25T11:50:09.971Z</time></trkpt><trkpt lat="40.311925" lon="14.9471833"><ele>14.0</ele><time>2026-04-25T11:50:10.972Z</time></trkpt><trkpt lat="40.311805" lon="14.9472083"><ele>13.5</ele><time>2026-04-25T11:50:11.964Z</time></trkpt><trkpt lat="40.3116883" lon="14.94725"><ele>13.0</ele><time>2026-04-25T11:50:12.967Z</time></trkpt><trkpt lat="40.3115767" lon="14.9473133"><ele>12.5</ele><time>2026-04-25T11:50:14.02Z</time></trkpt><trkpt lat="40.31147" lon="14.9474117"><ele>12.0</ele><time>2026-04-25T11:50:14.966Z</time></trkpt><trkpt lat="40.31138" lon="14.9475783"><ele>12.0</ele><time>2026-04-25T11:50:15.967Z</time></trkpt><trkpt lat="40.3112717" lon="14.9477317"><ele>12.0</ele><time>2026-04-25T11:50:16.967Z</time></trkpt><trkpt lat="40.311145" lon="14.9478917"><ele>12.0</ele><time>2026-04-25T11:50:17.958Z</time></trkpt><trkpt lat="40.3110217" lon="14.9480517"><ele>12.0</ele><time>2026-04-25T11:50:18.969Z</time></trkpt><trkpt lat="40.31092" lon="14.94818"><ele>12.0</ele><time>2026-04-25T11:50:20.009Z</time></trkpt><trkpt lat="40.3108117" lon="14.9482933"><ele>12.0</ele><time>2026-04-25T11:50:20.96Z</time></trkpt><trkpt lat="40.31072" lon="14.9484067"><ele>12.0</ele><time>2026-04-25T11:50:21.966Z</time></trkpt><trkpt lat="40.31065" lon="14.9485067"><ele>12.6</ele><time>2026-04-25T11:50:22.966Z</time></trkpt><trkpt lat="40.31058" lon="14.948595"><ele>13.2</ele><time>2026-04-25T11:50:23.962Z</time></trkpt><trkpt lat="40.3105033" lon="14.9486833"><ele>13.8</ele><time>2026-04-25T11:50:24.971Z</time></trkpt><trkpt lat="40.310425" lon="14.9487733"><ele>14.4</ele><time>2026-04-25T11:50:26.025Z</time></trkpt><trkpt lat="40.3103333" lon="14.9488567"><ele>15.0</ele><time>2026-04-25T11:50:26.963Z</time></trkpt><trkpt lat="40.3102283" lon="14.9489367"><ele>15.0</ele><time>2026-04-25T11:50:27.961Z</time></trkpt><trkpt lat="40.3101033" lon="14.9490067"><ele>15.0</ele><time>2026-04-25T11:50:28.969Z</time></trkpt><trkpt lat="40.3099817" lon="14.9490767"><ele>15.0</ele><time>2026-04-25T11:50:29.968Z</time></trkpt><trkpt lat="40.3098583" lon="14.9491467"><ele>15.0</ele><time>2026-04-25T11:50:30.974Z</time></trkpt><trkpt lat="40.3097467" lon="14.9492117"><ele>15.4</ele><time>2026-04-25T11:50:32.022Z</time></trkpt><trkpt lat="40.3096567" lon="14.94926"><ele>15.8</ele><time>2026-04-25T11:50:32.962Z</time></trkpt><trkpt lat="40.3096" lon="14.949305"><ele>16.2</ele><time>2026-04-25T11:50:33.966Z</time></trkpt><trkpt lat="40.3095383" lon="14.9494233"><ele>16.6</ele><time>2026-04-25T11:50:35.965Z</time></trkpt><trkpt lat="40.3096667" lon="14.9495517"><ele>17.0</ele><time>2026-04-25T11:50:38.016Z</time></trkpt><trkpt lat="40.3097033" lon="14.949645"><ele>16.75</ele><time>2026-04-25T11:50:38.968Z</time></trkpt><trkpt lat="40.3097467" lon="14.9497583"><ele>16.5</ele><time>2026-04-25T11:50:39.957Z</time></trkpt><trkpt lat="40.3098033" lon="14.9499067"><ele>16.25</ele><time>2026-04-25T11:50:40.967Z</time></trkpt><trkpt lat="40.30986" lon="14.95007"><ele>16.0</ele><time>2026-04-25T11:50:41.97Z</time></trkpt><trkpt lat="40.3099183" lon="14.9502367"><ele>15.8</ele><time>2026-04-25T11:50:42.971Z</time></trkpt><trkpt lat="40.3099733" lon="14.950385"><ele>15.600000000000001</ele><time>2026-04-25T11:50:44.019Z</time></trkpt><trkpt lat="40.3100233" lon="14.9505067"><ele>15.4</ele><time>2026-04-25T11:50:44.964Z</time></trkpt><trkpt lat="40.3100583" lon="14.950595"><ele>15.2</ele><time>2026-04-25T11:50:45.97Z</time></trkpt><trkpt lat="40.3100117" lon="14.9506883"><ele>15.0</ele><time>2026-04-25T11:50:48.97Z</time></trkpt><trkpt lat="40.3098233" lon="14.9507033"><ele>14.75</ele><time>2026-04-25T11:50:50.966Z</time></trkpt><trkpt lat="40.309685" lon="14.950705"><ele>14.5</ele><time>2026-04-25T11:50:51.971Z</time></trkpt><trkpt lat="40.3095533" lon="14.950705"><ele>14.25</ele><time>2026-04-25T11:50:52.963Z</time></trkpt><trkpt lat="40.309425" lon="14.9507117"><ele>14.0</ele><time>2026-04-25T11:50:53.964Z</time></trkpt><trkpt lat="40.309305" lon="14.9507317"><ele>14.0</ele><time>2026-04-25T11:50:54.968Z</time></trkpt><trkpt lat="40.3092233" lon="14.9507967"><ele>13.999999999999998</ele><time>2026-04-25T11:50:56.022Z</time></trkpt><trkpt lat="40.3091433" lon="14.9508633"><ele>13.999999999999998</ele><time>2026-04-25T11:50:56.963Z</time></trkpt><trkpt lat="40.3091033" lon="14.9509783"><ele>14.0</ele><time>2026-04-25T11:50:57.964Z</time></trkpt><trkpt lat="40.3090467" lon="14.9510883"><ele>14.0</ele><time>2026-04-25T11:50:58.968Z</time></trkpt><trkpt lat="40.3089817" lon="14.9512033"><ele>13.5</ele><time>2026-04-25T11:50:59.967Z</time></trkpt><trkpt lat="40.3089" lon="14.95132"><ele>13.0</ele><time>2026-04-25T11:51:00.971Z</time></trkpt><trkpt lat="40.3088017" lon="14.9514383"><ele>12.5</ele><time>2026-04-25T11:51:02.027Z</time></trkpt><trkpt lat="40.3086967" lon="14.9515567"><ele>12.0</ele><time>2026-04-25T11:51:02.968Z</time></trkpt><trkpt lat="40.3085917" lon="14.9516667"><ele>11.25</ele><time>2026-04-25T11:51:03.964Z</time></trkpt><trkpt lat="40.3084883" lon="14.9517633"><ele>10.5</ele><time>2026-04-25T11:51:04.969Z</time></trkpt><trkpt lat="40.30839" lon="14.9518633"><ele>9.75</ele><time>2026-04-25T11:51:05.956Z</time></trkpt><trkpt lat="40.3083" lon="14.95197"><ele>9.0</ele><time>2026-04-25T11:51:06.967Z</time></trkpt><trkpt lat="40.308215" lon="14.952095"><ele>9.0</ele><time>2026-04-25T11:51:08.014Z</time></trkpt><trkpt lat="40.30814" lon="14.9522283"><ele>9.0</ele><time>2026-04-25T11:51:08.959Z</time></trkpt><trkpt lat="40.308085" lon="14.9523517"><ele>9.0</ele><time>2026-04-25T11:51:09.965Z</time></trkpt><trkpt lat="40.30802" lon="14.952465"><ele>9.0</ele><time>2026-04-25T11:51:10.965Z</time></trkpt><trkpt lat="40.307965" lon="14.9525633"><ele>9.0</ele><time>2026-04-25T11:51:11.966Z</time></trkpt><trkpt lat="40.3079083" lon="14.952655"><ele>8.6</ele><time>2026-04-25T11:51:12.97Z</time></trkpt><trkpt lat="40.307855" lon="14.9527317"><ele>8.2</ele><time>2026-04-25T11:51:14.015Z</time></trkpt><trkpt lat="40.3078017" lon="14.95279"><ele>7.799999999999999</ele><time>2026-04-25T11:51:14.961Z</time></trkpt><trkpt lat="40.3076783" lon="14.952845"><ele>7.3999999999999995</ele><time>2026-04-25T11:51:16.966Z</time></trkpt><trkpt lat="40.3075867" lon="14.9528183"><ele>7.0</ele><time>2026-04-25T11:51:17.964Z</time></trkpt><trkpt lat="40.3074767" lon="14.9527733"><ele>7.0</ele><time>2026-04-25T11:51:18.968Z</time></trkpt><trkpt lat="40.3073717" lon="14.952735"><ele>6.999999999999999</ele><time>2026-04-25T11:51:20.021Z</time></trkpt><trkpt lat="40.30728" lon="14.9526833"><ele>6.999999999999999</ele><time>2026-04-25T11:51:20.965Z</time></trkpt><trkpt lat="40.3072167" lon="14.95265"><ele>7.0</ele><time>2026-04-25T11:51:21.97Z</time></trkpt><trkpt lat="40.3071467" lon="14.9525583"><ele>7.0</ele><time>2026-04-25T11:51:23.964Z</time></trkpt><trkpt lat="40.30719" lon="14.952415"><ele>7.3999999999999995</ele><time>2026-04-25T11:51:24.97Z</time></trkpt><trkpt lat="40.30721" lon="14.952275"><ele>7.799999999999999</ele><time>2026-04-25T11:51:26.025Z</time></trkpt><trkpt lat="40.3072267" lon="14.952135"><ele>8.2</ele><time>2026-04-25T11:51:26.967Z</time></trkpt><trkpt lat="40.3072433" lon="14.9520117"><ele>8.6</ele><time>2026-04-25T11:51:27.96Z</time></trkpt><trkpt lat="40.3072117" lon="14.9518817"><ele>9.0</ele><time>2026-04-25T11:51:29.964Z</time></trkpt><trkpt lat="40.30711" lon="14.9518083"><ele>9.0</ele><time>2026-04-25T11:51:32.03Z</time></trkpt><trkpt lat="40.3070283" lon="14.951785"><ele>9.0</ele><time>2026-04-25T11:51:32.965Z</time></trkpt><trkpt lat="40.3069383" lon="14.9517717"><ele>9.0</ele><time>2026-04-25T11:51:33.964Z</time></trkpt><trkpt lat="40.30683" lon="14.9517917"><ele>9.0</ele><time>2026-04-25T11:51:34.969Z</time></trkpt><trkpt lat="40.3067167" lon="14.9518183"><ele>9.0</ele><time>2026-04-25T11:51:35.969Z</time></trkpt><trkpt lat="40.30659" lon="14.951855"><ele>9.0</ele><time>2026-04-25T11:51:36.971Z</time></trkpt><trkpt lat="40.30646" lon="14.9518917"><ele>9.0</ele><time>2026-04-25T11:51:38.014Z</time></trkpt><trkpt lat="40.3063133" lon="14.95194"><ele>9.0</ele><time>2026-04-25T11:51:38.967Z</time></trkpt><trkpt lat="40.306195" lon="14.9519783"><ele>9.0</ele><time>2026-04-25T11:51:39.968Z</time></trkpt><trkpt lat="40.3061017" lon="14.952005"><ele>9.2</ele><time>2026-04-25T11:51:40.972Z</time></trkpt><trkpt lat="40.30603" lon="14.9519367"><ele>9.4</ele><time>2026-04-25T11:51:42.963Z</time></trkpt><trkpt lat="40.3060083" lon="14.9518417"><ele>9.6</ele><time>2026-04-25T11:51:44.018Z</time></trkpt><trkpt lat="40.305965" lon="14.9517317"><ele>9.8</ele><time>2026-04-25T11:51:44.967Z</time></trkpt><trkpt lat="40.3059233" lon="14.9516067"><ele>10.0</ele><time>2026-04-25T11:51:45.968Z</time></trkpt><trkpt lat="40.3058783" lon="14.9514633"><ele>10.0</ele><time>2026-04-25T11:51:46.967Z</time></trkpt><trkpt lat="40.3058167" lon="14.9513017"><ele>10.0</ele><time>2026-04-25T11:51:47.966Z</time></trkpt><trkpt lat="40.30576" lon="14.9511383"><ele>10.0</ele><time>2026-04-25T11:51:48.971Z</time></trkpt><trkpt lat="40.3057133" lon="14.9509817"><ele>10.0</ele><time>2026-04-25T11:51:50.024Z</time></trkpt><trkpt lat="40.30567" lon="14.9508433"><ele>10.0</ele><time>2026-04-25T11:51:50.968Z</time></trkpt><trkpt lat="40.305635" lon="14.9507133"><ele>10.0</ele><time>2026-04-25T11:51:51.969Z</time></trkpt><trkpt lat="40.3055833" lon="14.9505867"><ele>10.0</ele><time>2026-04-25T11:51:52.973Z</time></trkpt><trkpt lat="40.305545" lon="14.950465"><ele>10.0</ele><time>2026-04-25T11:51:53.966Z</time></trkpt><trkpt lat="40.3054933" lon="14.950355"><ele>10.0</ele><time>2026-04-25T11:51:54.97Z</time></trkpt><trkpt lat="40.30542" lon="14.9502683"><ele>11.25</ele><time>2026-04-25T11:51:56.029Z</time></trkpt><trkpt lat="40.3053033" lon="14.9502183"><ele>12.5</ele><time>2026-04-25T11:51:56.961Z</time></trkpt><trkpt lat="40.3051917" lon="14.9501583"><ele>13.75</ele><time>2026-04-25T11:51:57.96Z</time></trkpt><trkpt lat="40.30507" lon="14.9500917"><ele>15.0</ele><time>2026-04-25T11:51:58.969Z</time></trkpt><trkpt lat="40.3049433" lon="14.95002"><ele>15.0</ele><time>2026-04-25T11:51:59.966Z</time></trkpt><trkpt lat="40.3048267" lon="14.9499417"><ele>15.0</ele><time>2026-04-25T11:52:00.969Z</time></trkpt><trkpt lat="40.304715" lon="14.9498733"><ele>15.0</ele><time>2026-04-25T11:52:02.02Z</time></trkpt><trkpt lat="40.30459" lon="14.9498217"><ele>15.0</ele><time>2026-04-25T11:52:02.962Z</time></trkpt><trkpt lat="40.304475" lon="14.94978"><ele>15.166666666666666</ele><time>2026-04-25T11:52:03.963Z</time></trkpt><trkpt lat="40.3043633" lon="14.94975"><ele>15.333333333333332</ele><time>2026-04-25T11:52:04.977Z</time></trkpt><trkpt lat="40.3042933" lon="14.9497417"><ele>15.5</ele><time>2026-04-25T11:52:05.966Z</time></trkpt><trkpt lat="40.3041833" lon="14.9497433"><ele>15.666666666666666</ele><time>2026-04-25T11:52:08.012Z</time></trkpt><trkpt lat="40.30411" lon="14.9497533"><ele>15.833333333333332</ele><time>2026-04-25T11:52:08.964Z</time></trkpt><trkpt lat="40.3040317" lon="14.9497683"><ele>16.0</ele><time>2026-04-25T11:52:09.964Z</time></trkpt><trkpt lat="40.3039317" lon="14.9498083"><ele>15.666666666666666</ele><time>2026-04-25T11:52:10.963Z</time></trkpt><trkpt lat="40.3038033" lon="14.949865"><ele>15.333333333333332</ele><time>2026-04-25T11:52:11.964Z</time></trkpt><trkpt lat="40.303655" lon="14.9499317"><ele>15.0</ele><time>2026-04-25T11:52:12.958Z</time></trkpt><trkpt lat="40.3035" lon="14.949995"><ele>16.0</ele><time>2026-04-25T11:52:14.018Z</time></trkpt><trkpt lat="40.3033283" lon="14.9500583"><ele>17.0</ele><time>2026-04-25T11:52:14.953Z</time></trkpt><trkpt lat="40.30316" lon="14.9501117"><ele>18.0</ele><time>2026-04-25T11:52:15.964Z</time></trkpt><trkpt lat="40.3029933" lon="14.950155"><ele>18.333333333333332</ele><time>2026-04-25T11:52:16.96Z</time></trkpt><trkpt lat="40.30284" lon="14.9501917"><ele>18.666666666666664</ele><time>2026-04-25T11:52:17.969Z</time></trkpt><trkpt lat="40.3026917" lon="14.9502283"><ele>19.0</ele><time>2026-04-25T11:52:18.968Z</time></trkpt><trkpt lat="40.3025467" lon="14.9502517"><ele>19.0</ele><time>2026-04-25T11:52:20.018Z</time></trkpt><trkpt lat="40.3024033" lon="14.950265"><ele>19.0</ele><time>2026-04-25T11:52:20.963Z</time></trkpt><trkpt lat="40.302255" lon="14.9502717"><ele>19.0</ele><time>2026-04-25T11:52:21.966Z</time></trkpt><trkpt lat="40.3020983" lon="14.95028"><ele>19.0</ele><time>2026-04-25T11:52:22.968Z</time></trkpt><trkpt lat="40.30194" lon="14.9502917"><ele>19.333333333333332</ele><time>2026-04-25T11:52:23.965Z</time></trkpt><trkpt lat="40.3017717" lon="14.9502967"><ele>19.666666666666668</ele><time>2026-04-25T11:52:24.967Z</time></trkpt><trkpt lat="40.301605" lon="14.9502967"><ele>20.0</ele><time>2026-04-25T11:52:26.03Z</time></trkpt><trkpt lat="40.30144" lon="14.950305"><ele>19.666666666666668</ele><time>2026-04-25T11:52:26.962Z</time></trkpt><trkpt lat="40.3012733" lon="14.9503167"><ele>19.333333333333332</ele><time>2026-04-25T11:52:27.962Z</time></trkpt><trkpt lat="40.3011067" lon="14.9503367"><ele>19.0</ele><time>2026-04-25T11:52:28.962Z</time></trkpt><trkpt lat="40.300935" lon="14.950355"><ele>19.0</ele><time>2026-04-25T11:52:29.961Z</time></trkpt><trkpt lat="40.30076" lon="14.950385"><ele>19.0</ele><time>2026-04-25T11:52:30.967Z</time></trkpt><trkpt lat="40.3005783" lon="14.9504233"><ele>19.0</ele><time>2026-04-25T11:52:32.022Z</time></trkpt><trkpt lat="40.300405" lon="14.9504683"><ele>19.333333333333332</ele><time>2026-04-25T11:52:32.967Z</time></trkpt><trkpt lat="40.3002333" lon="14.9505117"><ele>19.666666666666668</ele><time>2026-04-25T11:52:33.971Z</time></trkpt><trkpt lat="40.3000617" lon="14.9505467"><ele>20.0</ele><time>2026-04-25T11:52:34.966Z</time></trkpt><trkpt lat="40.2998883" lon="14.9505867"><ele>20.333333333333336</ele><time>2026-04-25T11:52:35.964Z</time></trkpt><trkpt lat="40.2997117" lon="14.9506383"><ele>20.666666666666668</ele><time>2026-04-25T11:52:36.969Z</time></trkpt><trkpt lat="40.2995417" lon="14.9506983"><ele>21.0</ele><time>2026-04-25T11:52:38.016Z</time></trkpt><trkpt lat="40.2993783" lon="14.9507717"><ele>21.0</ele><time>2026-04-25T11:52:38.962Z</time></trkpt><trkpt lat="40.299215" lon="14.9508483"><ele>21.0</ele><time>2026-04-25T11:52:39.961Z</time></trkpt><trkpt lat="40.2990517" lon="14.9509283"><ele>21.0</ele><time>2026-04-25T11:52:40.97Z</time></trkpt><trkpt lat="40.2988933" lon="14.9510067"><ele>21.333333333333332</ele><time>2026-04-25T11:52:41.964Z</time></trkpt><trkpt lat="40.2987317" lon="14.9510833"><ele>21.666666666666664</ele><time>2026-04-25T11:52:42.974Z</time></trkpt><trkpt lat="40.2985817" lon="14.9511567"><ele>22.0</ele><time>2026-04-25T11:52:44.02Z</time></trkpt><trkpt lat="40.2984433" lon="14.9512267"><ele>22.0</ele><time>2026-04-25T11:52:44.963Z</time></trkpt><trkpt lat="40.29832" lon="14.951305"><ele>22.0</ele><time>2026-04-25T11:52:45.96Z</time></trkpt><trkpt lat="40.2982033" lon="14.951395"><ele>22.0</ele><time>2026-04-25T11:52:46.963Z</time></trkpt><trkpt lat="40.2980933" lon="14.9515167"><ele>22.0</ele><time>2026-04-25T11:52:47.966Z</time></trkpt><trkpt lat="40.2979867" lon="14.951675"><ele>22.333333333333332</ele><time>2026-04-25T11:52:48.976Z</time></trkpt><trkpt lat="40.2978817" lon="14.9518567"><ele>22.666666666666668</ele><time>2026-04-25T11:52:50.017Z</time></trkpt><trkpt lat="40.2977683" lon="14.9520417"><ele>23.0</ele><time>2026-04-25T11:52:50.961Z</time></trkpt><trkpt lat="40.29765" lon="14.952225"><ele>23.0</ele><time>2026-04-25T11:52:51.962Z</time></trkpt><trkpt lat="40.297535" lon="14.9524067"><ele>23.0</ele><time>2026-04-25T11:52:52.972Z</time></trkpt><trkpt lat="40.29742" lon="14.9525867"><ele>23.0</ele><time>2026-04-25T11:52:53.965Z</time></trkpt><trkpt lat="40.2973017" lon="14.9527517"><ele>23.666666666666668</ele><time>2026-04-25T11:52:54.969Z</time></trkpt><trkpt lat="40.2971933" lon="14.9529267"><ele>24.333333333333336</ele><time>2026-04-25T11:52:56.032Z</time></trkpt><trkpt lat="40.2970867" lon="14.9531"><ele>25.0</ele><time>2026-04-25T11:52:56.965Z</time></trkpt><trkpt lat="40.2969717" lon="14.9532833"><ele>25.666666666666668</ele><time>2026-04-25T11:52:57.962Z</time></trkpt><trkpt lat="40.296855" lon="14.9534667"><ele>26.333333333333336</ele><time>2026-04-25T11:52:58.968Z</time></trkpt><trkpt lat="40.2967367" lon="14.9536517"><ele>27.0</ele><time>2026-04-25T11:52:59.964Z</time></trkpt><trkpt lat="40.29662" lon="14.9538417"><ele>27.0</ele><time>2026-04-25T11:53:00.97Z</time></trkpt><trkpt lat="40.2965017" lon="14.954025"><ele>27.0</ele><time>2026-04-25T11:53:02.029Z</time></trkpt><trkpt lat="40.29639" lon="14.954195"><ele>27.0</ele><time>2026-04-25T11:53:02.958Z</time></trkpt><trkpt lat="40.2962767" lon="14.9543483"><ele>27.5</ele><time>2026-04-25T11:53:03.962Z</time></trkpt><trkpt lat="40.2961633" lon="14.9544867"><ele>28.0</ele><time>2026-04-25T11:53:04.962Z</time></trkpt><trkpt lat="40.296055" lon="14.9546067"><ele>28.5</ele><time>2026-04-25T11:53:05.967Z</time></trkpt><trkpt lat="40.29595" lon="14.95472"><ele>29.0</ele><time>2026-04-25T11:53:06.97Z</time></trkpt><trkpt lat="40.29586" lon="14.9548367"><ele>29.0</ele><time>2026-04-25T11:53:08.025Z</time></trkpt><trkpt lat="40.2957917" lon="14.954955"><ele>29.0</ele><time>2026-04-25T11:53:08.957Z</time></trkpt><trkpt lat="40.29575" lon="14.955075"><ele>29.0</ele><time>2026-04-25T11:53:09.962Z</time></trkpt><trkpt lat="40.2957267" lon="14.9552167"><ele>29.0</ele><time>2026-04-25T11:53:10.961Z</time></trkpt><trkpt lat="40.2957133" lon="14.9553783"><ele>29.0</ele><time>2026-04-25T11:53:11.962Z</time></trkpt><trkpt lat="40.2957033" lon="14.9555433"><ele>29.25</ele><time>2026-04-25T11:53:12.966Z</time></trkpt><trkpt lat="40.2956983" lon="14.9557183"><ele>29.5</ele><time>2026-04-25T11:53:14.019Z</time></trkpt><trkpt lat="40.2956833" lon="14.95587"><ele>29.75</ele><time>2026-04-25T11:53:14.96Z</time></trkpt><trkpt lat="40.2956633" lon="14.9560217"><ele>30.0</ele><time>2026-04-25T11:53:15.962Z</time></trkpt><trkpt lat="40.2956383" lon="14.95616"><ele>31.0</ele><time>2026-04-25T11:53:16.961Z</time></trkpt><trkpt lat="40.2955933" lon="14.95627"><ele>32.0</ele><time>2026-04-25T11:53:17.96Z</time></trkpt><trkpt lat="40.29551" lon="14.95632"><ele>33.0</ele><time>2026-04-25T11:53:18.961Z</time></trkpt><trkpt lat="40.2954283" lon="14.9563533"><ele>34.0</ele><time>2026-04-25T11:53:20.013Z</time></trkpt><trkpt lat="40.2953417" lon="14.9563767"><ele>35.0</ele><time>2026-04-25T11:53:20.96Z</time></trkpt><trkpt lat="40.29523" lon="14.9563733"><ele>35.25</ele><time>2026-04-25T11:53:21.963Z</time></trkpt><trkpt lat="40.2951167" lon="14.9563583"><ele>35.5</ele><time>2026-04-25T11:53:22.962Z</time></trkpt><trkpt lat="40.2950017" lon="14.9563433"><ele>35.75</ele><time>2026-04-25T11:53:23.964Z</time></trkpt><trkpt lat="40.2948733" lon="14.9563217"><ele>36.0</ele><time>2026-04-25T11:53:24.974Z</time></trkpt><trkpt lat="40.29474" lon="14.9562833"><ele>36.0</ele><time>2026-04-25T11:53:26.022Z</time></trkpt><trkpt lat="40.2946133" lon="14.9562383"><ele>36.0</ele><time>2026-04-25T11:53:26.962Z</time></trkpt><trkpt lat="40.2944967" lon="14.9561817"><ele>36.0</ele><time>2026-04-25T11:53:27.97Z</time></trkpt><trkpt lat="40.2943867" lon="14.9561183"><ele>36.0</ele><time>2026-04-25T11:53:28.963Z</time></trkpt><trkpt lat="40.2942867" lon="14.9560467"><ele>36.0</ele><time>2026-04-25T11:53:29.967Z</time></trkpt><trkpt lat="40.2942017" lon="14.955965"><ele>36.0</ele><time>2026-04-25T11:53:30.963Z</time></trkpt><trkpt lat="40.2941283" lon="14.9558567"><ele>36.0</ele><time>2026-04-25T11:53:32.021Z</time></trkpt><trkpt lat="40.29408" lon="14.9557267"><ele>36.0</ele><time>2026-04-25T11:53:32.967Z</time></trkpt><trkpt lat="40.2940417" lon="14.9555817"><ele>36.0</ele><time>2026-04-25T11:53:33.966Z</time></trkpt><trkpt lat="40.29402" lon="14.9554217"><ele>35.75</ele><time>2026-04-25T11:53:34.966Z</time></trkpt><trkpt lat="40.29402" lon="14.9552517"><ele>35.5</ele><time>2026-04-25T11:53:35.962Z</time></trkpt><trkpt lat="40.2940117" lon="14.9550833"><ele>35.25</ele><time>2026-04-25T11:53:36.968Z</time></trkpt><trkpt lat="40.2940017" lon="14.9549233"><ele>35.0</ele><time>2026-04-25T11:53:38.021Z</time></trkpt><trkpt lat="40.2939867" lon="14.95477"><ele>35.0</ele><time>2026-04-25T11:53:38.962Z</time></trkpt><trkpt lat="40.2939717" lon="14.9546167"><ele>35.0</ele><time>2026-04-25T11:53:39.961Z</time></trkpt><trkpt lat="40.293935" lon="14.9544617"><ele>35.0</ele><time>2026-04-25T11:53:40.967Z</time></trkpt><trkpt lat="40.29389" lon="14.954315"><ele>35.0</ele><time>2026-04-25T11:53:41.962Z</time></trkpt><trkpt lat="40.2938483" lon="14.9541783"><ele>34.6</ele><time>2026-04-25T11:53:42.968Z</time></trkpt><trkpt lat="40.2938117" lon="14.9540483"><ele>34.2</ele><time>2026-04-25T11:53:44.019Z</time></trkpt><trkpt lat="40.2937767" lon="14.9539333"><ele>33.8</ele><time>2026-04-25T11:53:44.961Z</time></trkpt><trkpt lat="40.293735" lon="14.9538217"><ele>33.4</ele><time>2026-04-25T11:53:45.961Z</time></trkpt><trkpt lat="40.2936883" lon="14.9537"><ele>33.0</ele><time>2026-04-25T11:53:46.969Z</time></trkpt><trkpt lat="40.2936217" lon="14.9535683"><ele>33.0</ele><time>2026-04-25T11:53:47.961Z</time></trkpt><trkpt lat="40.2935517" lon="14.9534317"><ele>33.0</ele><time>2026-04-25T11:53:48.986Z</time></trkpt><trkpt lat="40.2934867" lon="14.9532933"><ele>33.0</ele><time>2026-04-25T11:53:50.018Z</time></trkpt><trkpt lat="40.2934183" lon="14.9531583"><ele>33.0</ele><time>2026-04-25T11:53:50.967Z</time></trkpt><trkpt lat="40.2933417" lon="14.9530367"><ele>32.25</ele><time>2026-04-25T11:53:51.963Z</time></trkpt><trkpt lat="40.29326" lon="14.9529283"><ele>31.5</ele><time>2026-04-25T11:53:52.967Z</time></trkpt><trkpt lat="40.29318" lon="14.9528183"><ele>30.75</ele><time>2026-04-25T11:53:53.968Z</time></trkpt><trkpt lat="40.2930983" lon="14.9527117"><ele>30.0</ele><time>2026-04-25T11:53:54.968Z</time></trkpt><trkpt lat="40.293015" lon="14.9526033"><ele>29.4</ele><time>2026-04-25T11:53:56.022Z</time></trkpt><trkpt lat="40.2929333" lon="14.952515"><ele>28.8</ele><time>2026-04-25T11:53:56.965Z</time></trkpt><trkpt lat="40.2928533" lon="14.9524383"><ele>28.200000000000003</ele><time>2026-04-25T11:53:57.97Z</time></trkpt><trkpt lat="40.2927683" lon="14.9523717"><ele>27.6</ele><time>2026-04-25T11:53:58.964Z</time></trkpt><trkpt lat="40.2926783" lon="14.95231"><ele>27.0</ele><time>2026-04-25T11:53:59.969Z</time></trkpt><trkpt lat="40.2926017" lon="14.9522583"><ele>27.0</ele><time>2026-04-25T11:54:00.969Z</time></trkpt><trkpt lat="40.2925367" lon="14.952215"><ele>27.0</ele><time>2026-04-25T11:54:02.018Z</time></trkpt><trkpt lat="40.2924783" lon="14.95218"><ele>27.0</ele><time>2026-04-25T11:54:02.957Z</time></trkpt><trkpt lat="40.2924167" lon="14.95214"><ele>27.0</ele><time>2026-04-25T11:54:03.96Z</time></trkpt><trkpt lat="40.2923417" lon="14.9521067"><ele>27.0</ele><time>2026-04-25T11:54:04.962Z</time></trkpt><trkpt lat="40.2922483" lon="14.9520617"><ele>27.0</ele><time>2026-04-25T11:54:05.959Z</time></trkpt><trkpt lat="40.292145" lon="14.9520067"><ele>27.25</ele><time>2026-04-25T11:54:06.966Z</time></trkpt><trkpt lat="40.2920233" lon="14.95194"><ele>27.5</ele><time>2026-04-25T11:54:08.027Z</time></trkpt><trkpt lat="40.2918783" lon="14.9518683"><ele>27.75</ele><time>2026-04-25T11:54:08.959Z</time></trkpt><trkpt lat="40.291755" lon="14.9518017"><ele>28.0</ele><time>2026-04-25T11:54:09.966Z</time></trkpt><trkpt lat="40.29164" lon="14.9517417"><ele>28.000000000000004</ele><time>2026-04-25T11:54:10.967Z</time></trkpt><trkpt lat="40.2915383" lon="14.95169"><ele>28.0</ele><time>2026-04-25T11:54:11.963Z</time></trkpt><trkpt lat="40.2914567" lon="14.9516433"><ele>28.0</ele><time>2026-04-25T11:54:12.968Z</time></trkpt><trkpt lat="40.2914" lon="14.9515983"><ele>28.0</ele><time>2026-04-25T11:54:14.018Z</time></trkpt><trkpt lat="40.291335" lon="14.95156"><ele>28.000000000000004</ele><time>2026-04-25T11:54:15.964Z</time></trkpt><trkpt lat="40.2912817" lon="14.9516517"><ele>28.0</ele><time>2026-04-25T11:54:18.966Z</time></trkpt><trkpt lat="40.2912517" lon="14.9517267"><ele>28.0</ele><time>2026-04-25T11:54:20.017Z</time></trkpt><trkpt lat="40.2912233" lon="14.9518117"><ele>27.999999999999996</ele><time>2026-04-25T11:54:20.963Z</time></trkpt><trkpt lat="40.291185" lon="14.9519167"><ele>27.999999999999996</ele><time>2026-04-25T11:54:21.963Z</time></trkpt><trkpt lat="40.2911417" lon="14.9520533"><ele>28.0</ele><time>2026-04-25T11:54:22.969Z</time></trkpt><trkpt lat="40.2910983" lon="14.9522"><ele>28.0</ele><time>2026-04-25T11:54:23.968Z</time></trkpt><trkpt lat="40.2910433" lon="14.9523533"><ele>28.0</ele><time>2026-04-25T11:54:24.97Z</time></trkpt><trkpt lat="40.29098" lon="14.9525083"><ele>28.0</ele><time>2026-04-25T11:54:26.024Z</time></trkpt><trkpt lat="40.2909017" lon="14.95268"><ele>28.0</ele><time>2026-04-25T11:54:26.959Z</time></trkpt><trkpt lat="40.2908183" lon="14.952865"><ele>29.666666666666668</ele><time>2026-04-25T11:54:27.956Z</time></trkpt><trkpt lat="40.2907267" lon="14.9530683"><ele>31.333333333333336</ele><time>2026-04-25T11:54:28.965Z</time></trkpt><trkpt lat="40.2906383" lon="14.9532683"><ele>33.0</ele><time>2026-04-25T11:54:29.963Z</time></trkpt><trkpt lat="40.2905483" lon="14.95346"><ele>37.25</ele><time>2026-04-25T11:54:30.971Z</time></trkpt><trkpt lat="40.2904667" lon="14.9536367"><ele>41.5</ele><time>2026-04-25T11:54:32.022Z</time></trkpt><trkpt lat="40.2904017" lon="14.9537883"><ele>45.75</ele><time>2026-04-25T11:54:32.963Z</time></trkpt><trkpt lat="40.2903517" lon="14.9538783"><ele>50.0</ele><time>2026-04-25T11:54:33.967Z</time></trkpt><trkpt lat="40.290265" lon="14.9537967"><ele>50.0</ele><time>2026-04-25T11:54:36.962Z</time></trkpt><trkpt lat="40.29021" lon="14.9537483"><ele>50.0</ele><time>2026-04-25T11:54:38.014Z</time></trkpt><trkpt lat="40.29013" lon="14.9536967"><ele>50.0</ele><time>2026-04-25T11:54:38.964Z</time></trkpt><trkpt lat="40.29004" lon="14.953625"><ele>50.0</ele><time>2026-04-25T11:54:39.959Z</time></trkpt><trkpt lat="40.2899267" lon="14.9535317"><ele>50.0</ele><time>2026-04-25T11:54:40.963Z</time></trkpt><trkpt lat="40.289825" lon="14.953435"><ele>49.0</ele><time>2026-04-25T11:54:41.956Z</time></trkpt><trkpt lat="40.2897183" lon="14.9533367"><ele>48.0</ele><time>2026-04-25T11:54:42.967Z</time></trkpt><trkpt lat="40.2896083" lon="14.9532317"><ele>47.0</ele><time>2026-04-25T11:54:44.015Z</time></trkpt><trkpt lat="40.2894933" lon="14.9531233"><ele>46.0</ele><time>2026-04-25T11:54:44.964Z</time></trkpt><trkpt lat="40.289375" lon="14.953005"><ele>46.0</ele><time>2026-04-25T11:54:45.963Z</time></trkpt><trkpt lat="40.2892583" lon="14.95288"><ele>46.0</ele><time>2026-04-25T11:54:46.967Z</time></trkpt><trkpt lat="40.28914" lon="14.9527517"><ele>46.0</ele><time>2026-04-25T11:54:47.966Z</time></trkpt><trkpt lat="40.289025" lon="14.9526217"><ele>45.66666666666667</ele><time>2026-04-25T11:54:48.971Z</time></trkpt><trkpt lat="40.288905" lon="14.95249"><ele>45.333333333333336</ele><time>2026-04-25T11:54:50.022Z</time></trkpt><trkpt lat="40.288785" lon="14.9523567"><ele>45.0</ele><time>2026-04-25T11:54:50.966Z</time></trkpt><trkpt lat="40.2886717" lon="14.9522217"><ele>45.0</ele><time>2026-04-25T11:54:51.967Z</time></trkpt><trkpt lat="40.28855" lon="14.95209"><ele>45.0</ele><time>2026-04-25T11:54:52.966Z</time></trkpt><trkpt lat="40.288425" lon="14.9519617"><ele>45.0</ele><time>2026-04-25T11:54:53.963Z</time></trkpt><trkpt lat="40.2882933" lon="14.95184"><ele>45.0</ele><time>2026-04-25T11:54:54.97Z</time></trkpt><trkpt lat="40.2881533" lon="14.951725"><ele>45.0</ele><time>2026-04-25T11:54:56.037Z</time></trkpt><trkpt lat="40.288005" lon="14.9516217"><ele>45.0</ele><time>2026-04-25T11:54:56.962Z</time></trkpt><trkpt lat="40.2878517" lon="14.9515283"><ele>44.333333333333336</ele><time>2026-04-25T11:54:57.963Z</time></trkpt><trkpt lat="40.2876917" lon="14.951445"><ele>43.66666666666667</ele><time>2026-04-25T11:54:58.966Z</time></trkpt><trkpt lat="40.287535" lon="14.9513633"><ele>43.0</ele><time>2026-04-25T11:54:59.964Z</time></trkpt><trkpt lat="40.28738" lon="14.9512817"><ele>47.0</ele><time>2026-04-25T11:55:00.97Z</time></trkpt><trkpt lat="40.2872267" lon="14.9512017"><ele>51.0</ele><time>2026-04-25T11:55:02.024Z</time></trkpt><trkpt lat="40.287075" lon="14.951125"><ele>55.0</ele><time>2026-04-25T11:55:02.965Z</time></trkpt><trkpt lat="40.2869233" lon="14.9510517"><ele>55.0</ele><time>2026-04-25T11:55:03.966Z</time></trkpt><trkpt lat="40.2867717" lon="14.9509817"><ele>55.0</ele><time>2026-04-25T11:55:04.958Z</time></trkpt><trkpt lat="40.2866233" lon="14.9509083"><ele>55.0</ele><time>2026-04-25T11:55:05.956Z</time></trkpt><trkpt lat="40.28648" lon="14.9508333"><ele>54.75</ele><time>2026-04-25T11:55:06.968Z</time></trkpt><trkpt lat="40.2863417" lon="14.9507567"><ele>54.5</ele><time>2026-04-25T11:55:08.015Z</time></trkpt><trkpt lat="40.2862133" lon="14.9506833"><ele>54.25</ele><time>2026-04-25T11:55:08.965Z</time></trkpt><trkpt lat="40.2860983" lon="14.9506133"><ele>54.0</ele><time>2026-04-25T11:55:09.965Z</time></trkpt><trkpt lat="40.2859833" lon="14.9505483"><ele>54.0</ele><time>2026-04-25T11:55:10.978Z</time></trkpt><trkpt lat="40.285865" lon="14.9504833"><ele>54.0</ele><time>2026-04-25T11:55:11.965Z</time></trkpt><trkpt lat="40.285745" lon="14.95042"><ele>54.0</ele><time>2026-04-25T11:55:12.969Z</time></trkpt><trkpt lat="40.2856283" lon="14.9503517"><ele>54.0</ele><time>2026-04-25T11:55:14.017Z</time></trkpt><trkpt lat="40.28551" lon="14.9502767"><ele>55.0</ele><time>2026-04-25T11:55:14.96Z</time></trkpt><trkpt lat="40.2853867" lon="14.95019"><ele>56.0</ele><time>2026-04-25T11:55:15.955Z</time></trkpt><trkpt lat="40.2852667" lon="14.950095"><ele>57.0</ele><time>2026-04-25T11:55:16.967Z</time></trkpt><trkpt lat="40.2851467" lon="14.949985"><ele>58.0</ele><time>2026-04-25T11:55:17.961Z</time></trkpt><trkpt lat="40.2850283" lon="14.9498667"><ele>58.0</ele><time>2026-04-25T11:55:18.968Z</time></trkpt><trkpt lat="40.28491" lon="14.9497383"><ele>58.0</ele><time>2026-04-25T11:55:20.017Z</time></trkpt><trkpt lat="40.2847933" lon="14.9495933"><ele>58.0</ele><time>2026-04-25T11:55:20.965Z</time></trkpt><trkpt lat="40.2846833" lon="14.9494383"><ele>60.666666666666664</ele><time>2026-04-25T11:55:21.961Z</time></trkpt><trkpt lat="40.2845767" lon="14.9492667"><ele>63.33333333333333</ele><time>2026-04-25T11:55:22.972Z</time></trkpt><trkpt lat="40.2844867" lon="14.9490917"><ele>66.0</ele><time>2026-04-25T11:55:23.963Z</time></trkpt><trkpt lat="40.2843883" lon="14.948905"><ele>66.0</ele><time>2026-04-25T11:55:24.967Z</time></trkpt><trkpt lat="40.2843017" lon="14.948735"><ele>66.0</ele><time>2026-04-25T11:55:26.029Z</time></trkpt><trkpt lat="40.2842233" lon="14.9485933"><ele>66.0</ele><time>2026-04-25T11:55:26.958Z</time></trkpt><trkpt lat="40.2841367" lon="14.9484733"><ele>66.0</ele><time>2026-04-25T11:55:27.962Z</time></trkpt><trkpt lat="40.284045" lon="14.9483633"><ele>65.5</ele><time>2026-04-25T11:55:28.969Z</time></trkpt><trkpt lat="40.2839417" lon="14.9482633"><ele>65.0</ele><time>2026-04-25T11:55:29.966Z</time></trkpt><trkpt lat="40.2838317" lon="14.9481767"><ele>64.5</ele><time>2026-04-25T11:55:30.969Z</time></trkpt><trkpt lat="40.2837167" lon="14.9481067"><ele>64.0</ele><time>2026-04-25T11:55:32.021Z</time></trkpt><trkpt lat="40.2835817" lon="14.94805"><ele>64.0</ele><time>2026-04-25T11:55:32.958Z</time></trkpt><trkpt lat="40.2834433" lon="14.9480183"><ele>64.0</ele><time>2026-04-25T11:55:33.966Z</time></trkpt><trkpt lat="40.2832833" lon="14.948005"><ele>64.0</ele><time>2026-04-25T11:55:34.968Z</time></trkpt><trkpt lat="40.2831183" lon="14.947985"><ele>69.33333333333333</ele><time>2026-04-25T11:55:35.963Z</time></trkpt><trkpt lat="40.2829433" lon="14.9479567"><ele>74.66666666666667</ele><time>2026-04-25T11:55:36.967Z</time></trkpt><trkpt lat="40.2827717" lon="14.94792"><ele>80.0</ele><time>2026-04-25T11:55:38.016Z</time></trkpt><trkpt lat="40.2826117" lon="14.9478817"><ele>80.0</ele><time>2026-04-25T11:55:38.965Z</time></trkpt><trkpt lat="40.2824433" lon="14.9478067"><ele>80.0</ele><time>2026-04-25T11:55:39.965Z</time></trkpt><trkpt lat="40.2823033" lon="14.94772"><ele>80.0</ele><time>2026-04-25T11:55:40.967Z</time></trkpt><trkpt lat="40.2821733" lon="14.947605"><ele>74.66666666666667</ele><time>2026-04-25T11:55:41.966Z</time></trkpt><trkpt lat="40.2820433" lon="14.9474683"><ele>69.33333333333333</ele><time>2026-04-25T11:55:42.968Z</time></trkpt><trkpt lat="40.2819217" lon="14.947305"><ele>64.0</ele><time>2026-04-25T11:55:44.014Z</time></trkpt><trkpt lat="40.2818033" lon="14.94715"><ele>64.0</ele><time>2026-04-25T11:55:44.958Z</time></trkpt><trkpt lat="40.2816783" lon="14.94701"><ele>64.0</ele><time>2026-04-25T11:55:45.961Z</time></trkpt><trkpt lat="40.28155" lon="14.9468767"><ele>64.0</ele><time>2026-04-25T11:55:46.959Z</time></trkpt><trkpt lat="40.281405" lon="14.9467633"><ele>57.33333333333333</ele><time>2026-04-25T11:55:47.962Z</time></trkpt><trkpt lat="40.2812383" lon="14.946655"><ele>50.666666666666664</ele><time>2026-04-25T11:55:48.961Z</time></trkpt><trkpt lat="40.2810683" lon="14.94656"><ele>44.0</ele><time>2026-04-25T11:55:50.018Z</time></trkpt><trkpt lat="40.2808933" lon="14.9464667"><ele>44.0</ele><time>2026-04-25T11:55:50.962Z</time></trkpt><trkpt lat="40.2807183" lon="14.9463733"><ele>44.0</ele><time>2026-04-25T11:55:51.96Z</time></trkpt><trkpt lat="40.2805383" lon="14.9462833"><ele>44.0</ele><time>2026-04-25T11:55:52.964Z</time></trkpt><trkpt lat="40.28037" lon="14.946195"><ele>46.33333333333333</ele><time>2026-04-25T11:55:53.962Z</time></trkpt><trkpt lat="40.2801983" lon="14.9461283"><ele>48.666666666666664</ele><time>2026-04-25T11:55:54.972Z</time></trkpt><trkpt lat="40.280015" lon="14.9460767"><ele>51.0</ele><time>2026-04-25T11:55:56.023Z</time></trkpt><trkpt lat="40.2798317" lon="14.9460367"><ele>51.0</ele><time>2026-04-25T11:55:56.959Z</time></trkpt><trkpt lat="40.27964" lon="14.9460083"><ele>51.0</ele><time>2026-04-25T11:55:57.963Z</time></trkpt><trkpt lat="40.27945" lon="14.9459833"><ele>51.0</ele><time>2026-04-25T11:55:58.959Z</time></trkpt><trkpt lat="40.2792633" lon="14.945955"><ele>51.0</ele><time>2026-04-25T11:55:59.969Z</time></trkpt><trkpt lat="40.2790783" lon="14.9459267"><ele>51.0</ele><time>2026-04-25T11:56:00.978Z</time></trkpt><trkpt lat="40.2788967" lon="14.945895"><ele>51.0</ele><time>2026-04-25T11:56:02.024Z</time></trkpt><trkpt lat="40.278715" lon="14.9458633"><ele>44.0</ele><time>2026-04-25T11:56:02.961Z</time></trkpt><trkpt lat="40.2785283" lon="14.9458317"><ele>37.0</ele><time>2026-04-25T11:56:03.964Z</time></trkpt><trkpt lat="40.2783433" lon="14.94581"><ele>30.0</ele><time>2026-04-25T11:56:04.974Z</time></trkpt><trkpt lat="40.27816" lon="14.9457983"><ele>31.0</ele><time>2026-04-25T11:56:05.965Z</time></trkpt><trkpt lat="40.2779817" lon="14.94581"><ele>32.0</ele><time>2026-04-25T11:56:06.961Z</time></trkpt><trkpt lat="40.277815" lon="14.9458267"><ele>33.0</ele><time>2026-04-25T11:56:08.014Z</time></trkpt><trkpt lat="40.2776667" lon="14.945835"><ele>33.0</ele><time>2026-04-25T11:56:08.961Z</time></trkpt><trkpt lat="40.2775217" lon="14.9458367"><ele>33.0</ele><time>2026-04-25T11:56:09.965Z</time></trkpt><trkpt lat="40.27738" lon="14.9458433"><ele>33.0</ele><time>2026-04-25T11:56:10.971Z</time></trkpt><trkpt lat="40.2772383" lon="14.945855"><ele>33.0</ele><time>2026-04-25T11:56:11.962Z</time></trkpt><trkpt lat="40.2771" lon="14.9458783"><ele>40.25</ele><time>2026-04-25T11:56:12.974Z</time></trkpt><trkpt lat="40.27696" lon="14.9459167"><ele>47.5</ele><time>2026-04-25T11:56:14.012Z</time></trkpt><trkpt lat="40.27682" lon="14.9459517"><ele>54.75</ele><time>2026-04-25T11:56:14.955Z</time></trkpt><trkpt lat="40.276675" lon="14.9459767"><ele>62.0</ele><time>2026-04-25T11:56:15.966Z</time></trkpt><trkpt lat="40.2765317" lon="14.9459833"><ele>62.75</ele><time>2026-04-25T11:56:16.97Z</time></trkpt><trkpt lat="40.2763883" lon="14.9459683"><ele>63.5</ele><time>2026-04-25T11:56:17.953Z</time></trkpt><trkpt lat="40.2762417" lon="14.9459417"><ele>64.25</ele><time>2026-04-25T11:56:18.964Z</time></trkpt><trkpt lat="40.2760933" lon="14.9458983"><ele>65.0</ele><time>2026-04-25T11:56:20.012Z</time></trkpt><trkpt lat="40.2759367" lon="14.9458467"><ele>60.0</ele><time>2026-04-25T11:56:20.958Z</time></trkpt><trkpt lat="40.275775" lon="14.9457783"><ele>55.0</ele><time>2026-04-25T11:56:21.958Z</time></trkpt><trkpt lat="40.27562" lon="14.945685"><ele>50.0</ele><time>2026-04-25T11:56:22.963Z</time></trkpt><trkpt lat="40.275465" lon="14.945575"><ele>50.0</ele><time>2026-04-25T11:56:23.962Z</time></trkpt><trkpt lat="40.2753183" lon="14.9454383"><ele>50.0</ele><time>2026-04-25T11:56:24.966Z</time></trkpt><trkpt lat="40.275175" lon="14.9452933"><ele>50.0</ele><time>2026-04-25T11:56:26.029Z</time></trkpt><trkpt lat="40.275035" lon="14.945145"><ele>52.66666666666667</ele><time>2026-04-25T11:56:26.958Z</time></trkpt><trkpt lat="40.2748983" lon="14.9449917"><ele>55.33333333333333</ele><time>2026-04-25T11:56:27.958Z</time></trkpt><trkpt lat="40.2747683" lon="14.9448417"><ele>58.0</ele><time>2026-04-25T11:56:28.965Z</time></trkpt><trkpt lat="40.2746433" lon="14.9447067"><ele>58.0</ele><time>2026-04-25T11:56:29.971Z</time></trkpt><trkpt lat="40.2745217" lon="14.944585"><ele>58.0</ele><time>2026-04-25T11:56:30.971Z</time></trkpt><trkpt lat="40.2743983" lon="14.944485"><ele>58.0</ele><time>2026-04-25T11:56:32.021Z</time></trkpt><trkpt lat="40.27427" lon="14.944405"><ele>58.0</ele><time>2026-04-25T11:56:32.959Z</time></trkpt><trkpt lat="40.2741283" lon="14.9443617"><ele>58.0</ele><time>2026-04-25T11:56:33.965Z</time></trkpt><trkpt lat="40.2739867" lon="14.9443433"><ele>58.0</ele><time>2026-04-25T11:56:34.967Z</time></trkpt><trkpt lat="40.27383" lon="14.9443133"><ele>58.0</ele><time>2026-04-25T11:56:35.959Z</time></trkpt><trkpt lat="40.2736517" lon="14.9443"><ele>61.33333333333333</ele><time>2026-04-25T11:56:36.966Z</time></trkpt><trkpt lat="40.2734417" lon="14.9442983"><ele>64.66666666666667</ele><time>2026-04-25T11:56:38.018Z</time></trkpt><trkpt lat="40.273235" lon="14.9442933"><ele>68.0</ele><time>2026-04-25T11:56:38.961Z</time></trkpt><trkpt lat="40.2730417" lon="14.9442883"><ele>68.0</ele><time>2026-04-25T11:56:39.962Z</time></trkpt><trkpt lat="40.27285" lon="14.9442833"><ele>68.0</ele><time>2026-04-25T11:56:40.964Z</time></trkpt><trkpt lat="40.2726617" lon="14.944265"><ele>68.0</ele><time>2026-04-25T11:56:41.967Z</time></trkpt><trkpt lat="40.2724867" lon="14.9442183"><ele>61.0</ele><time>2026-04-25T11:56:42.972Z</time></trkpt><trkpt lat="40.272315" lon="14.944145"><ele>54.0</ele><time>2026-04-25T11:56:44.012Z</time></trkpt><trkpt lat="40.27215" lon="14.944055"><ele>47.0</ele><time>2026-04-25T11:56:44.964Z</time></trkpt><trkpt lat="40.2719933" lon="14.9439633"><ele>47.0</ele><time>2026-04-25T11:56:45.966Z</time></trkpt><trkpt lat="40.2718483" lon="14.9438783"><ele>47.0</ele><time>2026-04-25T11:56:46.975Z</time></trkpt><trkpt lat="40.2717233" lon="14.943805"><ele>47.0</ele><time>2026-04-25T11:56:47.966Z</time></trkpt><trkpt lat="40.2715833" lon="14.94375"><ele>47.0</ele><time>2026-04-25T11:56:48.97Z</time></trkpt><trkpt lat="40.271445" lon="14.943715"><ele>46.0</ele><time>2026-04-25T11:56:50.014Z</time></trkpt><trkpt lat="40.271305" lon="14.94371"><ele>45.0</ele><time>2026-04-25T11:56:50.956Z</time></trkpt><trkpt lat="40.2711533" lon="14.94373"><ele>44.0</ele><time>2026-04-25T11:56:51.964Z</time></trkpt><trkpt lat="40.2709967" lon="14.94376"><ele>44.0</ele><time>2026-04-25T11:56:52.97Z</time></trkpt><trkpt lat="40.2708167" lon="14.9438217"><ele>44.0</ele><time>2026-04-25T11:56:53.958Z</time></trkpt><trkpt lat="40.2706367" lon="14.9438583"><ele>44.0</ele><time>2026-04-25T11:56:54.966Z</time></trkpt><trkpt lat="40.2704633" lon="14.9438967"><ele>40.33333333333333</ele><time>2026-04-25T11:56:56.028Z</time></trkpt><trkpt lat="40.270285" lon="14.9439383"><ele>36.666666666666664</ele><time>2026-04-25T11:56:56.964Z</time></trkpt><trkpt lat="40.2701117" lon="14.9439783"><ele>33.0</ele><time>2026-04-25T11:56:57.957Z</time></trkpt><trkpt lat="40.2699467" lon="14.9440133"><ele>33.0</ele><time>2026-04-25T11:56:58.966Z</time></trkpt><trkpt lat="40.2697867" lon="14.9440433"><ele>33.0</ele><time>2026-04-25T11:56:59.962Z</time></trkpt><trkpt lat="40.2696283" lon="14.9440717"><ele>33.0</ele><time>2026-04-25T11:57:00.968Z</time></trkpt><trkpt lat="40.2694817" lon="14.9441017"><ele>33.0</ele><time>2026-04-25T11:57:02.027Z</time></trkpt><trkpt lat="40.269345" lon="14.944125"><ele>33.0</ele><time>2026-04-25T11:57:02.958Z</time></trkpt><trkpt lat="40.2692267" lon="14.944145"><ele>33.0</ele><time>2026-04-25T11:57:03.959Z</time></trkpt><trkpt lat="40.2691283" lon="14.9441583"><ele>33.0</ele><time>2026-04-25T11:57:04.968Z</time></trkpt><trkpt lat="40.2690433" lon="14.944175"><ele>33.0</ele><time>2026-04-25T11:57:05.964Z</time></trkpt><trkpt lat="40.2689683" lon="14.944185"><ele>33.833333333333336</ele><time>2026-04-25T11:57:06.968Z</time></trkpt><trkpt lat="40.2689017" lon="14.9441917"><ele>34.666666666666664</ele><time>2026-04-25T11:57:08.015Z</time></trkpt><trkpt lat="40.2688383" lon="14.9441933"><ele>35.5</ele><time>2026-04-25T11:57:08.965Z</time></trkpt><trkpt lat="40.2687217" lon="14.9441383"><ele>36.33333333333333</ele><time>2026-04-25T11:57:10.967Z</time></trkpt><trkpt lat="40.2686683" lon="14.9440833"><ele>37.166666666666664</ele><time>2026-04-25T11:57:11.964Z</time></trkpt><trkpt lat="40.2686183" lon="14.9440133"><ele>38.0</ele><time>2026-04-25T11:57:12.971Z</time></trkpt><trkpt lat="40.2685733" lon="14.9439367"><ele>38.0</ele><time>2026-04-25T11:57:14.015Z</time></trkpt><trkpt lat="40.2685283" lon="14.9438533"><ele>38.0</ele><time>2026-04-25T11:57:14.96Z</time></trkpt><trkpt lat="40.268485" lon="14.9437617"><ele>38.0</ele><time>2026-04-25T11:57:15.967Z</time></trkpt><trkpt lat="40.2684367" lon="14.943665"><ele>38.0</ele><time>2026-04-25T11:57:16.968Z</time></trkpt><trkpt lat="40.2683917" lon="14.9435683"><ele>38.0</ele><time>2026-04-25T11:57:17.965Z</time></trkpt><trkpt lat="40.2683533" lon="14.94348"><ele>38.0</ele><time>2026-04-25T11:57:18.971Z</time></trkpt><trkpt lat="40.2683167" lon="14.9434033"><ele>38.0</ele><time>2026-04-25T11:57:20.014Z</time></trkpt><trkpt lat="40.2682833" lon="14.9433333"><ele>38.0</ele><time>2026-04-25T11:57:20.966Z</time></trkpt><trkpt lat="40.2682233" lon="14.9432267"><ele>38.0</ele><time>2026-04-25T11:57:22.965Z</time></trkpt><trkpt lat="40.268185" lon="14.943155"><ele>38.0</ele><time>2026-04-25T11:57:24.962Z</time></trkpt><trkpt lat="40.2681367" lon="14.9430667"><ele>38.0</ele><time>2026-04-25T11:57:27.963Z</time></trkpt><trkpt lat="40.2680867" lon="14.942995"><ele>38.0</ele><time>2026-04-25T11:57:29.966Z</time></trkpt><trkpt lat="40.2680167" lon="14.94288"><ele>38.0</ele><time>2026-04-25T11:57:32.015Z</time></trkpt><trkpt lat="40.26797" lon="14.942805"><ele>38.0</ele><time>2026-04-25T11:57:32.962Z</time></trkpt><trkpt lat="40.2679233" lon="14.9427267"><ele>38.0</ele><time>2026-04-25T11:57:33.966Z</time></trkpt><trkpt lat="40.26788" lon="14.942655"><ele>38.0</ele><time>2026-04-25T11:57:34.967Z</time></trkpt><trkpt lat="40.26781" lon="14.9425317"><ele>38.0</ele><time>2026-04-25T11:57:36.959Z</time></trkpt><trkpt lat="40.267765" lon="14.9424583"><ele>38.0</ele><time>2026-04-25T11:57:38.959Z</time></trkpt><trkpt lat="40.2677217" lon="14.942395"><ele>38.0</ele><time>2026-04-25T11:57:41.964Z</time></trkpt><trkpt lat="40.26768" lon="14.942315"><ele>38.0</ele><time>2026-04-25T11:57:45.962Z</time></trkpt><trkpt lat="40.2676067" lon="14.9422467"><ele>38.0</ele><time>2026-04-25T11:57:52.963Z</time></trkpt><trkpt lat="40.2675017" lon="14.942265"><ele>38.0</ele><time>2026-04-25T11:57:56.02Z</time></trkpt><trkpt lat="40.2673617" lon="14.9422717"><ele>38.0</ele><time>2026-04-25T11:57:57.962Z</time></trkpt><trkpt lat="40.2672733" lon="14.9422717"><ele>38.0</ele><time>2026-04-25T11:57:58.965Z</time></trkpt><trkpt lat="40.2671883" lon="14.9422317"><ele>38.0</ele><time>2026-04-25T11:57:59.963Z</time></trkpt><trkpt lat="40.26711" lon="14.9421967"><ele>38.0</ele><time>2026-04-25T11:58:00.968Z</time></trkpt><trkpt lat="40.2670317" lon="14.9421567"><ele>38.0</ele><time>2026-04-25T11:58:02.014Z</time></trkpt><trkpt lat="40.266955" lon="14.9421133"><ele>38.0</ele><time>2026-04-25T11:58:02.965Z</time></trkpt><trkpt lat="40.2668883" lon="14.9420733"><ele>38.0</ele><time>2026-04-25T11:58:03.963Z</time></trkpt><trkpt lat="40.2668283" lon="14.942035"><ele>38.0</ele><time>2026-04-25T11:58:04.963Z</time></trkpt><trkpt lat="40.2667117" lon="14.9419517"><ele>38.0</ele><time>2026-04-25T11:58:06.966Z</time></trkpt><trkpt lat="40.2666433" lon="14.941905"><ele>38.0</ele><time>2026-04-25T11:58:08.011Z</time></trkpt><trkpt lat="40.2665633" lon="14.9418567"><ele>38.0</ele><time>2026-04-25T11:58:08.959Z</time></trkpt><trkpt lat="40.2664667" lon="14.9417983"><ele>38.0</ele><time>2026-04-25T11:58:09.967Z</time></trkpt><trkpt lat="40.26636" lon="14.94173"><ele>38.5</ele><time>2026-04-25T11:58:10.964Z</time></trkpt><trkpt lat="40.2662367" lon="14.9416467"><ele>39.0</ele><time>2026-04-25T11:58:11.974Z</time></trkpt><trkpt lat="40.2661133" lon="14.941555"><ele>39.5</ele><time>2026-04-25T11:58:12.96Z</time></trkpt><trkpt lat="40.2659917" lon="14.94147"><ele>40.0</ele><time>2026-04-25T11:58:14.009Z</time></trkpt><trkpt lat="40.265875" lon="14.9413917"><ele>40.0</ele><time>2026-04-25T11:58:14.965Z</time></trkpt><trkpt lat="40.2657667" lon="14.941315"><ele>40.0</ele><time>2026-04-25T11:58:15.963Z</time></trkpt><trkpt lat="40.2656767" lon="14.9412483"><ele>40.0</ele><time>2026-04-25T11:58:16.966Z</time></trkpt><trkpt lat="40.2656083" lon="14.94118"><ele>40.0</ele><time>2026-04-25T11:58:17.964Z</time></trkpt><trkpt lat="40.2655533" lon="14.9411117"><ele>40.0</ele><time>2026-04-25T11:58:18.96Z</time></trkpt><trkpt lat="40.2655167" lon="14.941025"><ele>40.2</ele><time>2026-04-25T11:58:20.006Z</time></trkpt><trkpt lat="40.2654867" lon="14.940905"><ele>40.4</ele><time>2026-04-25T11:58:20.963Z</time></trkpt><trkpt lat="40.2654417" lon="14.9407767"><ele>40.599999999999994</ele><time>2026-04-25T11:58:21.957Z</time></trkpt><trkpt lat="40.2653967" lon="14.94066"><ele>40.8</ele><time>2026-04-25T11:58:22.963Z</time></trkpt><trkpt lat="40.2653483" lon="14.940545"><ele>41.0</ele><time>2026-04-25T11:58:23.964Z</time></trkpt><trkpt lat="40.265295" lon="14.94043"><ele>40.666666666666664</ele><time>2026-04-25T11:58:24.964Z</time></trkpt><trkpt lat="40.2652483" lon="14.9403217"><ele>40.33333333333333</ele><time>2026-04-25T11:58:26.006Z</time></trkpt><trkpt lat="40.2652" lon="14.9402267"><ele>40.0</ele><time>2026-04-25T11:58:26.968Z</time></trkpt><trkpt lat="40.2651617" lon="14.94015"><ele>39.666666666666664</ele><time>2026-04-25T11:58:27.966Z</time></trkpt><trkpt lat="40.2652383" lon="14.94004"><ele>39.333333333333336</ele><time>2026-04-25T11:58:29.963Z</time></trkpt><trkpt lat="40.2652767" lon="14.9399667"><ele>39.0</ele><time>2026-04-25T11:58:30.964Z</time></trkpt><trkpt lat="40.26533" lon="14.93989"><ele>38.4</ele><time>2026-04-25T11:58:32.016Z</time></trkpt><trkpt lat="40.265415" lon="14.939795"><ele>37.8</ele><time>2026-04-25T11:58:32.958Z</time></trkpt><trkpt lat="40.265495" lon="14.9396967"><ele>37.2</ele><time>2026-04-25T11:58:33.961Z</time></trkpt><trkpt lat="40.2655683" lon="14.939595"><ele>36.6</ele><time>2026-04-25T11:58:34.962Z</time></trkpt><trkpt lat="40.2656367" lon="14.93948"><ele>36.0</ele><time>2026-04-25T11:58:35.959Z</time></trkpt><trkpt lat="40.265705" lon="14.93935"><ele>34.25</ele><time>2026-04-25T11:58:36.961Z</time></trkpt><trkpt lat="40.2657667" lon="14.93921"><ele>32.5</ele><time>2026-04-25T11:58:38.011Z</time></trkpt><trkpt lat="40.2658183" lon="14.9390767"><ele>30.75</ele><time>2026-04-25T11:58:38.961Z</time></trkpt><trkpt lat="40.2658767" lon="14.938945"><ele>29.0</ele><time>2026-04-25T11:58:39.958Z</time></trkpt><trkpt lat="40.2659367" lon="14.9388267"><ele>29.0</ele><time>2026-04-25T11:58:40.966Z</time></trkpt><trkpt lat="40.266005" lon="14.9387167"><ele>29.0</ele><time>2026-04-25T11:58:41.96Z</time></trkpt><trkpt lat="40.2660833" lon="14.9386133"><ele>29.0</ele><time>2026-04-25T11:58:42.965Z</time></trkpt><trkpt lat="40.2661667" lon="14.9385033"><ele>29.0</ele><time>2026-04-25T11:58:44.016Z</time></trkpt><trkpt lat="40.2662583" lon="14.9383867"><ele>29.25</ele><time>2026-04-25T11:58:44.957Z</time></trkpt><trkpt lat="40.2663433" lon="14.93827"><ele>29.5</ele><time>2026-04-25T11:58:45.958Z</time></trkpt><trkpt lat="40.2664333" lon="14.9381567"><ele>29.75</ele><time>2026-04-25T11:58:46.963Z</time></trkpt><trkpt lat="40.2665167" lon="14.9380583"><ele>30.0</ele><time>2026-04-25T11:58:47.964Z</time></trkpt><trkpt lat="40.2665933" lon="14.9379667"><ele>28.4</ele><time>2026-04-25T11:58:48.967Z</time></trkpt><trkpt lat="40.2666633" lon="14.93788"><ele>26.8</ele><time>2026-04-25T11:58:50.006Z</time></trkpt><trkpt lat="40.266705" lon="14.9377483"><ele>25.200000000000003</ele><time>2026-04-25T11:58:51.963Z</time></trkpt><trkpt lat="40.266615" lon="14.9376183"><ele>23.6</ele><time>2026-04-25T11:58:54.965Z</time></trkpt><trkpt lat="40.266555" lon="14.9375467"><ele>22.0</ele><time>2026-04-25T11:58:56.02Z</time></trkpt><trkpt lat="40.2665033" lon="14.937465"><ele>21.5</ele><time>2026-04-25T11:58:56.961Z</time></trkpt><trkpt lat="40.2664733" lon="14.9373717"><ele>21.0</ele><time>2026-04-25T11:58:57.966Z</time></trkpt><trkpt lat="40.266465" lon="14.937265"><ele>20.5</ele><time>2026-04-25T11:58:58.967Z</time></trkpt><trkpt lat="40.2664467" lon="14.9371733"><ele>20.0</ele><time>2026-04-25T11:58:59.965Z</time></trkpt><trkpt lat="40.266425" lon="14.937095"><ele>19.5</ele><time>2026-04-25T11:59:00.963Z</time></trkpt><trkpt lat="40.2663417" lon="14.9369767"><ele>19.0</ele><time>2026-04-25T11:59:02.96Z</time></trkpt><trkpt lat="40.26629" lon="14.9369117"><ele>20.333333333333332</ele><time>2026-04-25T11:59:03.966Z</time></trkpt><trkpt lat="40.2662317" lon="14.9368483"><ele>21.666666666666664</ele><time>2026-04-25T11:59:04.966Z</time></trkpt><trkpt lat="40.2661683" lon="14.9367817"><ele>23.0</ele><time>2026-04-25T11:59:06.966Z</time></trkpt><trkpt lat="40.2661167" lon="14.9366817"><ele>24.333333333333332</ele><time>2026-04-25T12:12:05.962Z</time></trkpt><trkpt lat="40.266055" lon="14.9365633"><ele>25.666666666666668</ele><time>2026-04-25T12:12:07.99Z</time></trkpt><trkpt lat="40.266025" lon="14.9364883"><ele>27.0</ele><time>2026-04-25T12:12:08.965Z</time></trkpt><trkpt lat="40.2659833" lon="14.93638"><ele>27.400000000000002</ele><time>2026-04-25T12:12:09.961Z</time></trkpt><trkpt lat="40.2659317" lon="14.9362533"><ele>27.800000000000004</ele><time>2026-04-25T12:12:10.966Z</time></trkpt><trkpt lat="40.2658867" lon="14.9361167"><ele>28.2</ele><time>2026-04-25T12:12:11.962Z</time></trkpt><trkpt lat="40.2658567" lon="14.9359767"><ele>28.6</ele><time>2026-04-25T12:12:12.964Z</time></trkpt><trkpt lat="40.2658217" lon="14.9358483"><ele>29.0</ele><time>2026-04-25T12:12:13.992Z</time></trkpt><trkpt lat="40.265775" lon="14.935735"><ele>29.666666666666664</ele><time>2026-04-25T12:12:14.962Z</time></trkpt><trkpt lat="40.2657233" lon="14.93563"><ele>30.333333333333332</ele><time>2026-04-25T12:12:15.964Z</time></trkpt><trkpt lat="40.2656683" lon="14.935525"><ele>31.0</ele><time>2026-04-25T12:12:16.962Z</time></trkpt><trkpt lat="40.2656217" lon="14.9354283"><ele>31.666666666666664</ele><time>2026-04-25T12:12:17.96Z</time></trkpt><trkpt lat="40.265565" lon="14.9353433"><ele>32.333333333333336</ele><time>2026-04-25T12:12:18.965Z</time></trkpt><trkpt lat="40.2655167" lon="14.9352633"><ele>33.0</ele><time>2026-04-25T12:12:19.989Z</time></trkpt><trkpt lat="40.2654733" lon="14.935185"><ele>35.599999999999994</ele><time>2026-04-25T12:12:20.961Z</time></trkpt><trkpt lat="40.26542" lon="14.9350533"><ele>38.199999999999996</ele><time>2026-04-25T12:12:22.964Z</time></trkpt><trkpt lat="40.2653683" lon="14.934945"><ele>40.8</ele><time>2026-04-25T12:12:24.974Z</time></trkpt><trkpt lat="40.26532" lon="14.9348067"><ele>43.4</ele><time>2026-04-25T12:12:26.96Z</time></trkpt><trkpt lat="40.2652933" lon="14.9347217"><ele>46.0</ele><time>2026-04-25T12:12:27.959Z</time></trkpt><trkpt lat="40.265265" lon="14.9346233"><ele>46.0</ele><time>2026-04-25T12:12:28.968Z</time></trkpt><trkpt lat="40.2652367" lon="14.9345217"><ele>46.0</ele><time>2026-04-25T12:12:29.963Z</time></trkpt><trkpt lat="40.265205" lon="14.9344183"><ele>46.0</ele><time>2026-04-25T12:12:30.968Z</time></trkpt><trkpt lat="40.26518" lon="14.934315"><ele>46.0</ele><time>2026-04-25T12:12:32.016Z</time></trkpt><trkpt lat="40.2651583" lon="14.9342117"><ele>46.0</ele><time>2026-04-25T12:12:32.958Z</time></trkpt><trkpt lat="40.2651367" lon="14.9341083"><ele>46.0</ele><time>2026-04-25T12:12:33.963Z</time></trkpt><trkpt lat="40.26511" lon="14.93401"><ele>47.0</ele><time>2026-04-25T12:12:34.962Z</time></trkpt><trkpt lat="40.265085" lon="14.93391"><ele>48.0</ele><time>2026-04-25T12:12:35.965Z</time></trkpt><trkpt lat="40.2650633" lon="14.9338083"><ele>49.0</ele><time>2026-04-25T12:12:36.964Z</time></trkpt><trkpt lat="40.2650417" lon="14.933705"><ele>50.0</ele><time>2026-04-25T12:12:37.991Z</time></trkpt><trkpt lat="40.2650233" lon="14.9336"><ele>50.99999999999999</ele><time>2026-04-25T12:12:38.962Z</time></trkpt><trkpt lat="40.2650017" lon="14.933495"><ele>52.0</ele><time>2026-04-25T12:12:39.959Z</time></trkpt><trkpt lat="40.2649767" lon="14.9333933"><ele>53.83333333333333</ele><time>2026-04-25T12:12:40.967Z</time></trkpt><trkpt lat="40.26496" lon="14.933285"><ele>55.666666666666664</ele><time>2026-04-25T12:12:41.963Z</time></trkpt><trkpt lat="40.2649467" lon="14.93318"><ele>57.5</ele><time>2026-04-25T12:12:42.965Z</time></trkpt><trkpt lat="40.26494" lon="14.933075"><ele>59.33333333333333</ele><time>2026-04-25T12:12:43.993Z</time></trkpt><trkpt lat="40.264935" lon="14.93297"><ele>61.166666666666664</ele><time>2026-04-25T12:12:44.963Z</time></trkpt><trkpt lat="40.264935" lon="14.9328683"><ele>63.0</ele><time>2026-04-25T12:12:45.958Z</time></trkpt><trkpt lat="40.2649433" lon="14.9327667"><ele>63.0</ele><time>2026-04-25T12:12:46.965Z</time></trkpt><trkpt lat="40.2649583" lon="14.932665"><ele>63.0</ele><time>2026-04-25T12:12:47.956Z</time></trkpt><trkpt lat="40.264975" lon="14.9325583"><ele>63.0</ele><time>2026-04-25T12:12:48.968Z</time></trkpt><trkpt lat="40.2649933" lon="14.9324483"><ele>63.0</ele><time>2026-04-25T12:12:49.99Z</time></trkpt><trkpt lat="40.2650133" lon="14.9323367"><ele>63.0</ele><time>2026-04-25T12:12:50.959Z</time></trkpt><trkpt lat="40.2650317" lon="14.932215"><ele>63.0</ele><time>2026-04-25T12:12:51.959Z</time></trkpt><trkpt lat="40.2650483" lon="14.9320767"><ele>64.5</ele><time>2026-04-25T12:12:52.966Z</time></trkpt><trkpt lat="40.2650633" lon="14.9319317"><ele>66.0</ele><time>2026-04-25T12:12:53.963Z</time></trkpt><trkpt lat="40.265075" lon="14.9317783"><ele>67.5</ele><time>2026-04-25T12:12:54.965Z</time></trkpt><trkpt lat="40.26508" lon="14.9316117"><ele>69.0</ele><time>2026-04-25T12:12:56.023Z</time></trkpt><trkpt lat="40.265075" lon="14.93143"><ele>70.0</ele><time>2026-04-25T12:12:56.96Z</time></trkpt><trkpt lat="40.26507" lon="14.9312483"><ele>71.0</ele><time>2026-04-25T12:12:57.955Z</time></trkpt><trkpt lat="40.2650667" lon="14.9310667"><ele>72.0</ele><time>2026-04-25T12:12:58.966Z</time></trkpt><trkpt lat="40.2650583" lon="14.9308817"><ele>73.0</ele><time>2026-04-25T12:12:59.958Z</time></trkpt><trkpt lat="40.26505" lon="14.9306967"><ele>73.25</ele><time>2026-04-25T12:13:00.964Z</time></trkpt><trkpt lat="40.265035" lon="14.93051"><ele>73.5</ele><time>2026-04-25T12:13:02.013Z</time></trkpt><trkpt lat="40.2650083" lon="14.930325"><ele>73.75</ele><time>2026-04-25T12:13:02.957Z</time></trkpt><trkpt lat="40.2649733" lon="14.9301367"><ele>74.0</ele><time>2026-04-25T12:13:03.954Z</time></trkpt><trkpt lat="40.2649417" lon="14.9299567"><ele>75.25</ele><time>2026-04-25T12:13:04.961Z</time></trkpt><trkpt lat="40.2649117" lon="14.9297767"><ele>76.5</ele><time>2026-04-25T12:13:05.956Z</time></trkpt><trkpt lat="40.2648867" lon="14.929595"><ele>77.75</ele><time>2026-04-25T12:13:06.964Z</time></trkpt><trkpt lat="40.2648667" lon="14.9294183"><ele>79.0</ele><time>2026-04-25T12:13:07.987Z</time></trkpt><trkpt lat="40.2648533" lon="14.9292517"><ele>80.5</ele><time>2026-04-25T12:13:08.96Z</time></trkpt><trkpt lat="40.2648417" lon="14.9290817"><ele>82.0</ele><time>2026-04-25T12:13:09.962Z</time></trkpt><trkpt lat="40.2648317" lon="14.9289133"><ele>83.5</ele><time>2026-04-25T12:13:10.969Z</time></trkpt><trkpt lat="40.264825" lon="14.928745"><ele>85.0</ele><time>2026-04-25T12:13:11.961Z</time></trkpt><trkpt lat="40.26482" lon="14.9285767"><ele>85.0</ele><time>2026-04-25T12:13:12.965Z</time></trkpt><trkpt lat="40.2648083" lon="14.928415"><ele>85.0</ele><time>2026-04-25T12:13:13.984Z</time></trkpt><trkpt lat="40.2647817" lon="14.9282683"><ele>85.0</ele><time>2026-04-25T12:13:14.954Z</time></trkpt><trkpt lat="40.264745" lon="14.9281267"><ele>85.0</ele><time>2026-04-25T12:13:15.953Z</time></trkpt><trkpt lat="40.2647" lon="14.9279933"><ele>88.0</ele><time>2026-04-25T12:13:16.961Z</time></trkpt><trkpt lat="40.2646583" lon="14.9278817"><ele>91.0</ele><time>2026-04-25T12:13:17.963Z</time></trkpt><trkpt lat="40.2646183" lon="14.927805"><ele>94.0</ele><time>2026-04-25T12:13:18.961Z</time></trkpt><trkpt lat="40.264565" lon="14.9277467"><ele>97.0</ele><time>2026-04-25T12:13:27.959Z</time></trkpt><trkpt lat="40.2645033" lon="14.927675"><ele>100.00000000000001</ele><time>2026-04-25T12:13:29.964Z</time></trkpt><trkpt lat="40.2644283" lon="14.9275933"><ele>103.0</ele><time>2026-04-25T12:13:32.962Z</time></trkpt><trkpt lat="40.2643467" lon="14.9275783"><ele>103.00000000000001</ele><time>2026-04-25T12:13:35.964Z</time></trkpt><trkpt lat="40.2644183" lon="14.9276133"><ele>103.0</ele><time>2026-04-25T12:13:51.956Z</time></trkpt><trkpt lat="40.2644933" lon="14.9277233"><ele>103.0</ele><time>2026-04-25T12:13:53.963Z</time></trkpt><trkpt lat="40.2645333" lon="14.9278017"><ele>103.0</ele><time>2026-04-25T12:13:54.968Z</time></trkpt><trkpt lat="40.2645767" lon="14.9278717"><ele>103.00000000000001</ele><time>2026-04-25T12:13:56.022Z</time></trkpt><trkpt lat="40.26464" lon="14.9279783"><ele>103.0</ele><time>2026-04-25T12:13:57.961Z</time></trkpt><trkpt lat="40.264655" lon="14.928065"><ele>103.00000000000001</ele><time>2026-04-25T12:14:00.964Z</time></trkpt><trkpt lat="40.2645883" lon="14.9281"><ele>103.0</ele><time>2026-04-25T12:14:03.956Z</time></trkpt><trkpt lat="40.264485" lon="14.9280683"><ele>103.0</ele><time>2026-04-25T12:14:05.959Z</time></trkpt><trkpt lat="40.2644183" lon="14.9280467"><ele>103.0</ele><time>2026-04-25T12:14:06.96Z</time></trkpt><trkpt lat="40.2643417" lon="14.928015"><ele>103.00000000000001</ele><time>2026-04-25T12:14:07.993Z</time></trkpt><trkpt lat="40.2642567" lon="14.92797"><ele>103.0</ele><time>2026-04-25T12:14:08.954Z</time></trkpt><trkpt lat="40.2641617" lon="14.9279217"><ele>103.0</ele><time>2026-04-25T12:14:09.961Z</time></trkpt><trkpt lat="40.264055" lon="14.9278733"><ele>103.0</ele><time>2026-04-25T12:14:10.964Z</time></trkpt><trkpt lat="40.26395" lon="14.9278367"><ele>103.0</ele><time>2026-04-25T12:14:11.958Z</time></trkpt><trkpt lat="40.26385" lon="14.927815"><ele>103.0</ele><time>2026-04-25T12:14:12.969Z</time></trkpt><trkpt lat="40.263755" lon="14.9278117"><ele>103.0</ele><time>2026-04-25T12:14:13.991Z</time></trkpt><trkpt lat="40.2636567" lon="14.9278283"><ele>106.66666666666667</ele><time>2026-04-25T12:14:14.957Z</time></trkpt><trkpt lat="40.2635367" lon="14.92792"><ele>110.33333333333334</ele><time>2026-04-25T12:14:15.957Z</time></trkpt><trkpt lat="40.2634067" lon="14.9280133"><ele>114.0</ele><time>2026-04-25T12:14:16.961Z</time></trkpt><trkpt lat="40.263265" lon="14.9281183"><ele>114.0</ele><time>2026-04-25T12:14:17.967Z</time></trkpt><trkpt lat="40.2631217" lon="14.92823"><ele>114.0</ele><time>2026-04-25T12:14:18.963Z</time></trkpt><trkpt lat="40.2629833" lon="14.9283317"><ele>114.0</ele><time>2026-04-25T12:14:19.995Z</time></trkpt><trkpt lat="40.2628533" lon="14.928425"><ele>118.0</ele><time>2026-04-25T12:14:20.959Z</time></trkpt><trkpt lat="40.2627083" lon="14.92851"><ele>122.0</ele><time>2026-04-25T12:14:21.962Z</time></trkpt><trkpt lat="40.2625933" lon="14.9285483"><ele>126.0</ele><time>2026-04-25T12:14:22.968Z</time></trkpt><trkpt lat="40.2624967" lon="14.9285733"><ele>130.0</ele><time>2026-04-25T12:14:23.958Z</time></trkpt><trkpt lat="40.2624" lon="14.92859"><ele>130.0</ele><time>2026-04-25T12:14:24.962Z</time></trkpt><trkpt lat="40.2623083" lon="14.9286067"><ele>130.0</ele><time>2026-04-25T12:14:26.017Z</time></trkpt><trkpt lat="40.26222" lon="14.928635"><ele>130.0</ele><time>2026-04-25T12:14:26.958Z</time></trkpt><trkpt lat="40.2621433" lon="14.9286817"><ele>130.0</ele><time>2026-04-25T12:14:27.959Z</time></trkpt><trkpt lat="40.26209" lon="14.92875"><ele>130.0</ele><time>2026-04-25T12:14:28.961Z</time></trkpt><trkpt lat="40.2621217" lon="14.9288633"><ele>130.0</ele><time>2026-04-25T12:14:29.959Z</time></trkpt><trkpt lat="40.2621383" lon="14.9289683"><ele>131.5</ele><time>2026-04-25T12:14:30.967Z</time></trkpt><trkpt lat="40.262175" lon="14.9290917"><ele>133.0</ele><time>2026-04-25T12:14:32.017Z</time></trkpt><trkpt lat="40.26223" lon="14.92924"><ele>134.5</ele><time>2026-04-25T12:14:32.958Z</time></trkpt><trkpt lat="40.2622733" lon="14.92939"><ele>136.0</ele><time>2026-04-25T12:14:33.957Z</time></trkpt><trkpt lat="40.2623317" lon="14.9295367"><ele>136.0</ele><time>2026-04-25T12:14:34.957Z</time></trkpt><trkpt lat="40.262375" lon="14.9296783"><ele>136.0</ele><time>2026-04-25T12:14:35.962Z</time></trkpt><trkpt lat="40.262395" lon="14.9298033"><ele>136.0</ele><time>2026-04-25T12:14:36.964Z</time></trkpt><trkpt lat="40.2624" lon="14.92992"><ele>136.0</ele><time>2026-04-25T12:14:37.995Z</time></trkpt><trkpt lat="40.2623867" lon="14.930035"><ele>136.0</ele><time>2026-04-25T12:14:38.953Z</time></trkpt><trkpt lat="40.2623333" lon="14.9301483"><ele>139.33333333333334</ele><time>2026-04-25T12:14:39.956Z</time></trkpt><trkpt lat="40.26218" lon="14.9302433"><ele>142.66666666666666</ele><time>2026-04-25T12:14:40.961Z</time></trkpt><trkpt lat="40.26206" lon="14.93035"><ele>146.0</ele><time>2026-04-25T12:14:41.964Z</time></trkpt><trkpt lat="40.261915" lon="14.9304483"><ele>146.0</ele><time>2026-04-25T12:14:42.958Z</time></trkpt><trkpt lat="40.2617733" lon="14.9305417"><ele>146.0</ele><time>2026-04-25T12:14:43.992Z</time></trkpt><trkpt lat="40.2616467" lon="14.93062"><ele>146.0</ele><time>2026-04-25T12:14:44.956Z</time></trkpt><trkpt lat="40.2615317" lon="14.93069"><ele>146.0</ele><time>2026-04-25T12:14:45.956Z</time></trkpt><trkpt lat="40.2614117" lon="14.93075"><ele>150.25</ele><time>2026-04-25T12:14:46.96Z</time></trkpt><trkpt lat="40.261295" lon="14.930795"><ele>154.5</ele><time>2026-04-25T12:14:47.962Z</time></trkpt><trkpt lat="40.2611767" lon="14.9308067"><ele>158.75</ele><time>2026-04-25T12:14:48.959Z</time></trkpt><trkpt lat="40.2610717" lon="14.9307867"><ele>163.0</ele><time>2026-04-25T12:14:49.989Z</time></trkpt><trkpt lat="40.2609483" lon="14.930745"><ele>163.0</ele><time>2026-04-25T12:14:50.956Z</time></trkpt><trkpt lat="40.26082" lon="14.930705"><ele>163.0</ele><time>2026-04-25T12:14:51.958Z</time></trkpt><trkpt lat="40.260725" lon="14.93067"><ele>163.0</ele><time>2026-04-25T12:14:52.96Z</time></trkpt><trkpt lat="40.2606333" lon="14.930645"><ele>163.0</ele><time>2026-04-25T12:14:53.958Z</time></trkpt><trkpt lat="40.2605833" lon="14.930725"><ele>163.0</ele><time>2026-04-25T12:14:56.024Z</time></trkpt><trkpt lat="40.2605317" lon="14.9308333"><ele>163.5</ele><time>2026-04-25T12:14:57.955Z</time></trkpt><trkpt lat="40.2605333" lon="14.9309383"><ele>164.0</ele><time>2026-04-25T12:14:58.957Z</time></trkpt><trkpt lat="40.26058" lon="14.9310983"><ele>164.5</ele><time>2026-04-25T12:14:59.959Z</time></trkpt><trkpt lat="40.2606167" lon="14.9312633"><ele>165.0</ele><time>2026-04-25T12:15:00.958Z</time></trkpt><trkpt lat="40.260665" lon="14.931425"><ele>165.0</ele><time>2026-04-25T12:15:02.011Z</time></trkpt><trkpt lat="40.26071" lon="14.9315683"><ele>165.0</ele><time>2026-04-25T12:15:02.952Z</time></trkpt><trkpt lat="40.26074" lon="14.9316783"><ele>165.0</ele><time>2026-04-25T12:15:03.955Z</time></trkpt><trkpt lat="40.2607617" lon="14.9317667"><ele>165.0</ele><time>2026-04-25T12:15:04.958Z</time></trkpt><trkpt lat="40.2606917" lon="14.9318483"><ele>165.0</ele><time>2026-04-25T12:15:06.964Z</time></trkpt><trkpt lat="40.260605" lon="14.9318583"><ele>163.75</ele><time>2026-04-25T12:15:08.957Z</time></trkpt><trkpt lat="40.2604967" lon="14.9317667"><ele>162.5</ele><time>2026-04-25T12:15:10.961Z</time></trkpt><trkpt lat="40.260415" lon="14.9316883"><ele>161.25</ele><time>2026-04-25T12:15:11.963Z</time></trkpt><trkpt lat="40.26032" lon="14.9315917"><ele>160.0</ele><time>2026-04-25T12:15:12.955Z</time></trkpt><trkpt lat="40.2602183" lon="14.9314867"><ele>165.66666666666669</ele><time>2026-04-25T12:15:13.988Z</time></trkpt><trkpt lat="40.2600967" lon="14.9313533"><ele>171.33333333333334</ele><time>2026-04-25T12:15:14.957Z</time></trkpt><trkpt lat="40.2599717" lon="14.9312167"><ele>177.0</ele><time>2026-04-25T12:15:15.958Z</time></trkpt><trkpt lat="40.2598533" lon="14.93108"><ele>177.25</ele><time>2026-04-25T12:15:16.958Z</time></trkpt><trkpt lat="40.25975" lon="14.9309417"><ele>177.5</ele><time>2026-04-25T12:15:17.962Z</time></trkpt><trkpt lat="40.2596667" lon="14.9308067"><ele>177.75</ele><time>2026-04-25T12:15:18.964Z</time></trkpt><trkpt lat="40.25961" lon="14.930685"><ele>178.0</ele><time>2026-04-25T12:15:19.992Z</time></trkpt><trkpt lat="40.2596233" lon="14.9305283"><ele>179.85714285714283</ele><time>2026-04-25T12:15:21.957Z</time></trkpt><trkpt lat="40.2596317" lon="14.9304333"><ele>181.71428571428572</ele><time>2026-04-25T12:15:22.964Z</time></trkpt><trkpt lat="40.2596367" lon="14.93034"><ele>183.57142857142856</ele><time>2026-04-25T12:15:23.96Z</time></trkpt><trkpt lat="40.2596367" lon="14.9302467"><ele>185.42857142857142</ele><time>2026-04-25T12:15:24.958Z</time></trkpt><trkpt lat="40.259625" lon="14.930145"><ele>187.28571428571428</ele><time>2026-04-25T12:15:26.009Z</time></trkpt><trkpt lat="40.25961" lon="14.9300483"><ele>189.14285714285714</ele><time>2026-04-25T12:15:26.953Z</time></trkpt><trkpt lat="40.2595933" lon="14.9299617"><ele>191.0</ele><time>2026-04-25T12:15:27.961Z</time></trkpt><trkpt lat="40.2595783" lon="14.9298333"><ele>190.8</ele><time>2026-04-25T12:15:29.956Z</time></trkpt><trkpt lat="40.2596267" lon="14.929735"><ele>190.60000000000002</ele><time>2026-04-25T12:15:32.014Z</time></trkpt><trkpt lat="40.25968" lon="14.9296733"><ele>190.4</ele><time>2026-04-25T12:15:32.956Z</time></trkpt><trkpt lat="40.25973" lon="14.929575"><ele>190.2</ele><time>2026-04-25T12:15:33.96Z</time></trkpt><trkpt lat="40.25979" lon="14.9294683"><ele>190.0</ele><time>2026-04-25T12:15:34.961Z</time></trkpt><trkpt lat="40.2598433" lon="14.9293567"><ele>190.0</ele><time>2026-04-25T12:15:35.965Z</time></trkpt><trkpt lat="40.2598917" lon="14.92925"><ele>190.0</ele><time>2026-04-25T12:15:36.964Z</time></trkpt><trkpt lat="40.2599783" lon="14.929165"><ele>190.0</ele><time>2026-04-25T12:15:38.956Z</time></trkpt><trkpt lat="40.26003" lon="14.929105"><ele>190.0</ele><time>2026-04-25T12:15:41.959Z</time></trkpt><trkpt lat="40.2599583" lon="14.9290817"><ele>190.0</ele><time>2026-04-25T12:15:44.954Z</time></trkpt><trkpt lat="40.2598567" lon="14.9291183"><ele>191.66666666666669</ele><time>2026-04-25T12:15:46.966Z</time></trkpt><trkpt lat="40.2598033" lon="14.929165"><ele>193.33333333333334</ele><time>2026-04-25T12:15:47.964Z</time></trkpt><trkpt lat="40.2597517" lon="14.9292317"><ele>195.0</ele><time>2026-04-25T12:15:48.961Z</time></trkpt><trkpt lat="40.25967" lon="14.9292917"><ele>196.66666666666669</ele><time>2026-04-25T12:15:49.994Z</time></trkpt><trkpt lat="40.2595817" lon="14.9293433"><ele>198.33333333333334</ele><time>2026-04-25T12:15:50.957Z</time></trkpt><trkpt lat="40.2594833" lon="14.9293733"><ele>200.0</ele><time>2026-04-25T12:15:51.958Z</time></trkpt><trkpt lat="40.2593783" lon="14.929415"><ele>200.66666666666669</ele><time>2026-04-25T12:15:52.965Z</time></trkpt><trkpt lat="40.2593033" lon="14.92945"><ele>201.33333333333334</ele><time>2026-04-25T12:15:53.962Z</time></trkpt><trkpt lat="40.2592317" lon="14.9294983"><ele>202.0</ele><time>2026-04-25T12:15:54.961Z</time></trkpt><trkpt lat="40.2591617" lon="14.9295383"><ele>202.66666666666669</ele><time>2026-04-25T12:15:56.01Z</time></trkpt><trkpt lat="40.2591117" lon="14.9296167"><ele>203.33333333333334</ele><time>2026-04-25T12:15:56.964Z</time></trkpt><trkpt lat="40.25905" lon="14.9296867"><ele>204.0</ele><time>2026-04-25T12:15:57.961Z</time></trkpt><trkpt lat="40.2589917" lon="14.9297667"><ele>207.2</ele><time>2026-04-25T12:15:58.964Z</time></trkpt><trkpt lat="40.258915" lon="14.9298367"><ele>210.39999999999998</ele><time>2026-04-25T12:15:59.952Z</time></trkpt><trkpt lat="40.25882" lon="14.92991"><ele>213.6</ele><time>2026-04-25T12:16:00.964Z</time></trkpt><trkpt lat="40.25872" lon="14.9299717"><ele>216.8</ele><time>2026-04-25T12:16:02.013Z</time></trkpt><trkpt lat="40.2586233" lon="14.9300183"><ele>220.0</ele><time>2026-04-25T12:16:02.954Z</time></trkpt><trkpt lat="40.2585233" lon="14.93004"><ele>219.8</ele><time>2026-04-25T12:16:03.959Z</time></trkpt><trkpt lat="40.258435" lon="14.930065"><ele>219.6</ele><time>2026-04-25T12:16:04.963Z</time></trkpt><trkpt lat="40.2583483" lon="14.9300967"><ele>219.39999999999998</ele><time>2026-04-25T12:16:05.957Z</time></trkpt><trkpt lat="40.2582767" lon="14.9301583"><ele>219.2</ele><time>2026-04-25T12:16:06.965Z</time></trkpt><trkpt lat="40.2582033" lon="14.9302483"><ele>219.0</ele><time>2026-04-25T12:16:07.991Z</time></trkpt><trkpt lat="40.2580967" lon="14.9303317"><ele>219.0</ele><time>2026-04-25T12:16:08.961Z</time></trkpt><trkpt lat="40.2579683" lon="14.930445"><ele>219.0</ele><time>2026-04-25T12:16:09.955Z</time></trkpt><trkpt lat="40.2578333" lon="14.9305833"><ele>219.0</ele><time>2026-04-25T12:16:10.964Z</time></trkpt><trkpt lat="40.25768" lon="14.93074"><ele>219.0</ele><time>2026-04-25T12:16:11.96Z</time></trkpt><trkpt lat="40.2574983" lon="14.9308867"><ele>219.0</ele><time>2026-04-25T12:16:12.962Z</time></trkpt><trkpt lat="40.2573283" lon="14.9310317"><ele>219.0</ele><time>2026-04-25T12:16:13.995Z</time></trkpt><trkpt lat="40.25716" lon="14.93117"><ele>220.0</ele><time>2026-04-25T12:16:14.96Z</time></trkpt><trkpt lat="40.2570033" lon="14.9312983"><ele>221.0</ele><time>2026-04-25T12:16:15.956Z</time></trkpt><trkpt lat="40.25686" lon="14.93142"><ele>222.0</ele><time>2026-04-25T12:16:16.955Z</time></trkpt><trkpt lat="40.2567233" lon="14.9315333"><ele>222.0</ele><time>2026-04-25T12:16:17.96Z</time></trkpt><trkpt lat="40.25661" lon="14.9316367"><ele>222.0</ele><time>2026-04-25T12:16:18.963Z</time></trkpt><trkpt lat="40.2565067" lon="14.9317267"><ele>222.0</ele><time>2026-04-25T12:16:19.995Z</time></trkpt><trkpt lat="40.2564483" lon="14.9317967"><ele>222.0</ele><time>2026-04-25T12:16:20.963Z</time></trkpt><trkpt lat="40.2564567" lon="14.9317067"><ele>222.0</ele><time>2026-04-25T12:16:29.959Z</time></trkpt><trkpt lat="40.2565167" lon="14.9315967"><ele>222.0</ele><time>2026-04-25T12:16:41.964Z</time></trkpt><trkpt lat="40.256505" lon="14.93143"><ele>222.0</ele><time>2026-04-25T12:16:43.993Z</time></trkpt><trkpt lat="40.256515" lon="14.9313033"><ele>222.0</ele><time>2026-04-25T12:16:44.957Z</time></trkpt><trkpt lat="40.2565217" lon="14.9311817"><ele>222.0</ele><time>2026-04-25T12:16:45.955Z</time></trkpt><trkpt lat="40.2565" lon="14.931085"><ele>222.0</ele><time>2026-04-25T12:16:46.963Z</time></trkpt><trkpt lat="40.2564617" lon="14.9309933"><ele>224.2</ele><time>2026-04-25T12:16:47.956Z</time></trkpt><trkpt lat="40.256425" lon="14.930855"><ele>226.39999999999998</ele><time>2026-04-25T12:16:49.983Z</time></trkpt><trkpt lat="40.2564833" lon="14.9307167"><ele>228.60000000000002</ele><time>2026-04-25T12:16:51.954Z</time></trkpt><trkpt lat="40.2565117" lon="14.930615"><ele>230.8</ele><time>2026-04-25T12:16:52.951Z</time></trkpt><trkpt lat="40.2565633" lon="14.9305167"><ele>233.0</ele><time>2026-04-25T12:16:53.956Z</time></trkpt><trkpt lat="40.2566117" lon="14.930425"><ele>233.0</ele><time>2026-04-25T12:16:54.967Z</time></trkpt><trkpt lat="40.2566567" lon="14.9303317"><ele>233.0</ele><time>2026-04-25T12:16:56.011Z</time></trkpt><trkpt lat="40.2567183" lon="14.9302417"><ele>233.0</ele><time>2026-04-25T12:16:56.961Z</time></trkpt><trkpt lat="40.2567833" lon="14.9301517"><ele>233.0</ele><time>2026-04-25T12:16:57.955Z</time></trkpt><trkpt lat="40.2568783" lon="14.9300533"><ele>233.0</ele><time>2026-04-25T12:16:58.961Z</time></trkpt><trkpt lat="40.2570417" lon="14.9298933"><ele>234.0</ele><time>2026-04-25T12:16:59.961Z</time></trkpt><trkpt lat="40.2571433" lon="14.9297483"><ele>235.0</ele><time>2026-04-25T12:17:00.964Z</time></trkpt><trkpt lat="40.2572583" lon="14.929595"><ele>236.0</ele><time>2026-04-25T12:17:02.012Z</time></trkpt><trkpt lat="40.25734" lon="14.9294533"><ele>236.0</ele><time>2026-04-25T12:17:02.958Z</time></trkpt><trkpt lat="40.2574117" lon="14.9293183"><ele>236.0</ele><time>2026-04-25T12:17:03.957Z</time></trkpt><trkpt lat="40.2574817" lon="14.9291767"><ele>236.0</ele><time>2026-04-25T12:17:04.965Z</time></trkpt><trkpt lat="40.25755" lon="14.9290383"><ele>236.0</ele><time>2026-04-25T12:17:05.95Z</time></trkpt><trkpt lat="40.257615" lon="14.928905"><ele>238.20000000000002</ele><time>2026-04-25T12:17:06.959Z</time></trkpt><trkpt lat="40.2576833" lon="14.9287767"><ele>240.40000000000003</ele><time>2026-04-25T12:17:07.987Z</time></trkpt><trkpt lat="40.2577417" lon="14.9286617"><ele>242.6</ele><time>2026-04-25T12:17:08.955Z</time></trkpt><trkpt lat="40.2577983" lon="14.928545"><ele>244.8</ele><time>2026-04-25T12:17:09.956Z</time></trkpt><trkpt lat="40.2578483" lon="14.9284217"><ele>247.0</ele><time>2026-04-25T12:17:10.959Z</time></trkpt><trkpt lat="40.2578717" lon="14.9282867"><ele>249.33333333333331</ele><time>2026-04-25T12:17:12.962Z</time></trkpt><trkpt lat="40.25787" lon="14.9281533"><ele>251.66666666666666</ele><time>2026-04-25T12:17:14.966Z</time></trkpt><trkpt lat="40.2578733" lon="14.928"><ele>254.0</ele><time>2026-04-25T12:17:16.963Z</time></trkpt><trkpt lat="40.2578833" lon="14.9279167"><ele>256.3333333333333</ele><time>2026-04-25T12:17:17.954Z</time></trkpt><trkpt lat="40.257905" lon="14.9278217"><ele>258.6666666666667</ele><time>2026-04-25T12:17:18.963Z</time></trkpt><trkpt lat="40.2579467" lon="14.9277167"><ele>261.0</ele><time>2026-04-25T12:17:19.994Z</time></trkpt><trkpt lat="40.2580317" lon="14.9275833"><ele>259.5</ele><time>2026-04-25T12:17:20.955Z</time></trkpt><trkpt lat="40.258115" lon="14.9274233"><ele>258.0</ele><time>2026-04-25T12:17:21.961Z</time></trkpt><trkpt lat="40.2581917" lon="14.927265"><ele>256.5</ele><time>2026-04-25T12:17:22.954Z</time></trkpt><trkpt lat="40.2582633" lon="14.927105"><ele>255.0</ele><time>2026-04-25T12:17:23.967Z</time></trkpt><trkpt lat="40.25833" lon="14.9269567"><ele>255.0</ele><time>2026-04-25T12:17:24.963Z</time></trkpt><trkpt lat="40.2583983" lon="14.9267867"><ele>255.0</ele><time>2026-04-25T12:17:26.016Z</time></trkpt><trkpt lat="40.258455" lon="14.9266417"><ele>255.0</ele><time>2026-04-25T12:17:26.957Z</time></trkpt><trkpt lat="40.258505" lon="14.9265383"><ele>255.0</ele><time>2026-04-25T12:17:27.958Z</time></trkpt><trkpt lat="40.2585283" lon="14.9264433"><ele>255.0</ele><time>2026-04-25T12:17:28.967Z</time></trkpt><trkpt lat="40.2584617" lon="14.92647"><ele>257.75</ele><time>2026-04-25T12:17:34.965Z</time></trkpt><trkpt lat="40.258375" lon="14.92654"><ele>260.5</ele><time>2026-04-25T12:17:35.958Z</time></trkpt><trkpt lat="40.2582933" lon="14.9265883"><ele>263.25</ele><time>2026-04-25T12:17:36.968Z</time></trkpt><trkpt lat="40.258165" lon="14.9266717"><ele>266.0</ele><time>2026-04-25T12:17:37.988Z</time></trkpt><trkpt lat="40.2580517" lon="14.9267317"><ele>267.2</ele><time>2026-04-25T12:17:38.958Z</time></trkpt><trkpt lat="40.2579517" lon="14.9267717"><ele>268.40000000000003</ele><time>2026-04-25T12:17:39.954Z</time></trkpt><trkpt lat="40.2578417" lon="14.9268017"><ele>269.6</ele><time>2026-04-25T12:17:40.957Z</time></trkpt><trkpt lat="40.2577383" lon="14.9268183"><ele>270.8</ele><time>2026-04-25T12:17:41.956Z</time></trkpt><trkpt lat="40.2576317" lon="14.9268217"><ele>272.0</ele><time>2026-04-25T12:17:42.964Z</time></trkpt><trkpt lat="40.2575383" lon="14.9268167"><ele>272.0</ele><time>2026-04-25T12:17:43.994Z</time></trkpt><trkpt lat="40.257455" lon="14.9268083"><ele>272.0</ele><time>2026-04-25T12:17:44.961Z</time></trkpt><trkpt lat="40.2573717" lon="14.9267967"><ele>272.0</ele><time>2026-04-25T12:17:45.954Z</time></trkpt><trkpt lat="40.2572817" lon="14.9267933"><ele>272.0</ele><time>2026-04-25T12:17:46.962Z</time></trkpt><trkpt lat="40.2571867" lon="14.9267983"><ele>272.0</ele><time>2026-04-25T12:17:47.963Z</time></trkpt><trkpt lat="40.2570833" lon="14.9267967"><ele>277.25</ele><time>2026-04-25T12:17:48.96Z</time></trkpt><trkpt lat="40.256975" lon="14.926815"><ele>282.5</ele><time>2026-04-25T12:17:49.993Z</time></trkpt><trkpt lat="40.256855" lon="14.9268417"><ele>287.75</ele><time>2026-04-25T12:17:50.961Z</time></trkpt><trkpt lat="40.25674" lon="14.9268683"><ele>293.0</ele><time>2026-04-25T12:17:51.953Z</time></trkpt><trkpt lat="40.2566333" lon="14.9269033"><ele>293.0</ele><time>2026-04-25T12:17:52.961Z</time></trkpt><trkpt lat="40.2565433" lon="14.926935"><ele>293.0</ele><time>2026-04-25T12:17:53.954Z</time></trkpt><trkpt lat="40.256465" lon="14.9269567"><ele>293.0</ele><time>2026-04-25T12:17:54.967Z</time></trkpt><trkpt lat="40.2564267" lon="14.926875"><ele>293.0</ele><time>2026-04-25T12:17:57.955Z</time></trkpt><trkpt lat="40.2564383" lon="14.926745"><ele>293.0</ele><time>2026-04-25T12:17:59.967Z</time></trkpt><trkpt lat="40.2564867" lon="14.9265817"><ele>295.8</ele><time>2026-04-25T12:18:02.014Z</time></trkpt><trkpt lat="40.2565217" lon="14.9264767"><ele>298.6</ele><time>2026-04-25T12:18:02.96Z</time></trkpt><trkpt lat="40.2565533" lon="14.926345"><ele>301.4</ele><time>2026-04-25T12:18:03.953Z</time></trkpt><trkpt lat="40.2565967" lon="14.9262017"><ele>304.2</ele><time>2026-04-25T12:18:04.963Z</time></trkpt><trkpt lat="40.2566317" lon="14.9260617"><ele>307.0</ele><time>2026-04-25T12:18:05.956Z</time></trkpt><trkpt lat="40.2566567" lon="14.9259383"><ele>307.5</ele><time>2026-04-25T12:18:06.959Z</time></trkpt><trkpt lat="40.2566767" lon="14.925825"><ele>308.0</ele><time>2026-04-25T12:18:07.99Z</time></trkpt><trkpt lat="40.2566867" lon="14.925715"><ele>308.5</ele><time>2026-04-25T12:18:08.956Z</time></trkpt><trkpt lat="40.25668" lon="14.9256167"><ele>309.0</ele><time>2026-04-25T12:18:09.958Z</time></trkpt><trkpt lat="40.256655" lon="14.9255117"><ele>309.5</ele><time>2026-04-25T12:18:10.962Z</time></trkpt><trkpt lat="40.2566267" lon="14.9254033"><ele>310.0</ele><time>2026-04-25T12:18:11.958Z</time></trkpt><trkpt lat="40.256585" lon="14.9252933"><ele>310.0</ele><time>2026-04-25T12:18:12.963Z</time></trkpt><trkpt lat="40.25655" lon="14.9252033"><ele>310.0</ele><time>2026-04-25T12:18:13.991Z</time></trkpt><trkpt lat="40.25652" lon="14.9251267"><ele>310.0</ele><time>2026-04-25T12:18:14.959Z</time></trkpt><trkpt lat="40.2564667" lon="14.9250117"><ele>310.0</ele><time>2026-04-25T12:18:16.957Z</time></trkpt><trkpt lat="40.2563917" lon="14.92516"><ele>310.0</ele><time>2026-04-25T12:18:18.957Z</time></trkpt><trkpt lat="40.2563367" lon="14.9252617"><ele>312.25</ele><time>2026-04-25T12:18:19.994Z</time></trkpt><trkpt lat="40.2562467" lon="14.9253767"><ele>314.5</ele><time>2026-04-25T12:18:20.958Z</time></trkpt><trkpt lat="40.2561633" lon="14.9255067"><ele>316.75</ele><time>2026-04-25T12:18:21.959Z</time></trkpt><trkpt lat="40.256085" lon="14.9256267"><ele>319.0</ele><time>2026-04-25T12:18:22.961Z</time></trkpt><trkpt lat="40.25601" lon="14.9257417"><ele>319.0</ele><time>2026-04-25T12:18:23.957Z</time></trkpt><trkpt lat="40.255945" lon="14.92585"><ele>319.0</ele><time>2026-04-25T12:18:24.962Z</time></trkpt><trkpt lat="40.2558917" lon="14.9259483"><ele>319.0</ele><time>2026-04-25T12:18:26.009Z</time></trkpt><trkpt lat="40.255835" lon="14.9260333"><ele>319.0</ele><time>2026-04-25T12:18:26.954Z</time></trkpt><trkpt lat="40.2557883" lon="14.9261017"><ele>319.0</ele><time>2026-04-25T12:18:27.956Z</time></trkpt><trkpt lat="40.2557917" lon="14.9262133"><ele>319.0</ele><time>2026-04-25T12:18:29.959Z</time></trkpt><trkpt lat="40.2557517" lon="14.9263167"><ele>319.0</ele><time>2026-04-25T12:18:32.011Z</time></trkpt><trkpt lat="40.2556717" lon="14.92636"><ele>319.0</ele><time>2026-04-25T12:18:33.96Z</time></trkpt><trkpt lat="40.2555617" lon="14.92642"><ele>319.0</ele><time>2026-04-25T12:18:35.954Z</time></trkpt><trkpt lat="40.255455" lon="14.92651"><ele>319.0</ele><time>2026-04-25T12:18:37.992Z</time></trkpt><trkpt lat="40.25541" lon="14.9265683"><ele>319.0</ele><time>2026-04-25T12:18:38.957Z</time></trkpt><trkpt lat="40.2553683" lon="14.926645"><ele>319.6</ele><time>2026-04-25T12:18:39.957Z</time></trkpt><trkpt lat="40.2553233" lon="14.926735"><ele>320.2</ele><time>2026-04-25T12:18:40.963Z</time></trkpt><trkpt lat="40.255265" lon="14.9268383"><ele>320.8</ele><time>2026-04-25T12:18:41.962Z</time></trkpt><trkpt lat="40.255205" lon="14.9269517"><ele>321.40000000000003</ele><time>2026-04-25T12:18:42.963Z</time></trkpt><trkpt lat="40.2551467" lon="14.9270617"><ele>322.0</ele><time>2026-04-25T12:18:43.993Z</time></trkpt><trkpt lat="40.2550867" lon="14.9271633"><ele>322.0</ele><time>2026-04-25T12:18:44.957Z</time></trkpt><trkpt lat="40.255025" lon="14.9272617"><ele>322.0</ele><time>2026-04-25T12:18:45.955Z</time></trkpt><trkpt lat="40.2549617" lon="14.9273583"><ele>322.0</ele><time>2026-04-25T12:18:46.953Z</time></trkpt><trkpt lat="40.2549033" lon="14.92744"><ele>322.0</ele><time>2026-04-25T12:18:47.952Z</time></trkpt><trkpt lat="40.2548533" lon="14.9275083"><ele>322.0</ele><time>2026-04-25T12:18:48.954Z</time></trkpt><trkpt lat="40.254765" lon="14.92761"><ele>321.20000000000005</ele><time>2026-04-25T12:18:50.953Z</time></trkpt><trkpt lat="40.2547067" lon="14.92767"><ele>320.40000000000003</ele><time>2026-04-25T12:18:51.954Z</time></trkpt><trkpt lat="40.2546333" lon="14.92773"><ele>319.6</ele><time>2026-04-25T12:18:52.956Z</time></trkpt><trkpt lat="40.2545583" lon="14.9278067"><ele>318.8</ele><time>2026-04-25T12:18:53.953Z</time></trkpt><trkpt lat="40.2544783" lon="14.9278917"><ele>318.0</ele><time>2026-04-25T12:18:54.959Z</time></trkpt><trkpt lat="40.2544083" lon="14.92798"><ele>318.0</ele><time>2026-04-25T12:18:56.007Z</time></trkpt><trkpt lat="40.2543467" lon="14.9280583"><ele>318.0</ele><time>2026-04-25T12:18:56.962Z</time></trkpt><trkpt lat="40.2542967" lon="14.928125"><ele>318.0</ele><time>2026-04-25T12:18:57.955Z</time></trkpt><trkpt lat="40.254225" lon="14.9282583"><ele>318.0</ele><time>2026-04-25T12:18:59.957Z</time></trkpt><trkpt lat="40.2541867" lon="14.9283267"><ele>318.0</ele><time>2026-04-25T12:19:00.961Z</time></trkpt><trkpt lat="40.2541433" lon="14.9283967"><ele>318.0</ele><time>2026-04-25T12:19:02.024Z</time></trkpt><trkpt lat="40.254105" lon="14.9284667"><ele>317.6666666666667</ele><time>2026-04-25T12:19:02.958Z</time></trkpt><trkpt lat="40.2540717" lon="14.9285417"><ele>317.3333333333333</ele><time>2026-04-25T12:19:03.955Z</time></trkpt><trkpt lat="40.2540333" lon="14.9286267"><ele>317.0</ele><time>2026-04-25T12:19:04.96Z</time></trkpt><trkpt lat="40.25399" lon="14.9287233"><ele>316.66666666666663</ele><time>2026-04-25T12:19:05.958Z</time></trkpt><trkpt lat="40.25395" lon="14.9288167"><ele>316.3333333333333</ele><time>2026-04-25T12:19:06.964Z</time></trkpt><trkpt lat="40.2539033" lon="14.9289033"><ele>316.0</ele><time>2026-04-25T12:19:08.001Z</time></trkpt><trkpt lat="40.253855" lon="14.92898"><ele>315.8333333333333</ele><time>2026-04-25T12:19:08.959Z</time></trkpt><trkpt lat="40.2538033" lon="14.9290683"><ele>315.66666666666663</ele><time>2026-04-25T12:19:09.96Z</time></trkpt><trkpt lat="40.2537533" lon="14.92917"><ele>315.5</ele><time>2026-04-25T12:19:10.96Z</time></trkpt><trkpt lat="40.2537033" lon="14.9292683"><ele>315.3333333333333</ele><time>2026-04-25T12:19:11.965Z</time></trkpt><trkpt lat="40.25366" lon="14.9293567"><ele>315.1666666666667</ele><time>2026-04-25T12:19:12.963Z</time></trkpt><trkpt lat="40.25362" lon="14.9294267"><ele>315.0</ele><time>2026-04-25T12:19:13.997Z</time></trkpt><trkpt lat="40.2535383" lon="14.9295733"><ele>315.0</ele><time>2026-04-25T12:19:15.965Z</time></trkpt><trkpt lat="40.2534917" lon="14.9296833"><ele>315.0</ele><time>2026-04-25T12:19:16.961Z</time></trkpt><trkpt lat="40.2534317" lon="14.92981"><ele>315.0</ele><time>2026-04-25T12:19:17.96Z</time></trkpt><trkpt lat="40.253375" lon="14.9299267"><ele>315.0</ele><time>2026-04-25T12:19:18.969Z</time></trkpt><trkpt lat="40.2533217" lon="14.9300267"><ele>315.0</ele><time>2026-04-25T12:19:19.991Z</time></trkpt><trkpt lat="40.2532733" lon="14.9301183"><ele>315.3333333333333</ele><time>2026-04-25T12:19:20.956Z</time></trkpt><trkpt lat="40.2532317" lon="14.9301983"><ele>315.6666666666667</ele><time>2026-04-25T12:19:21.958Z</time></trkpt><trkpt lat="40.2531667" lon="14.9303333"><ele>316.0</ele><time>2026-04-25T12:19:23.951Z</time></trkpt><trkpt lat="40.2531233" lon="14.930405"><ele>316.33333333333337</ele><time>2026-04-25T12:19:24.961Z</time></trkpt><trkpt lat="40.25307" lon="14.9304783"><ele>316.6666666666667</ele><time>2026-04-25T12:19:26.012Z</time></trkpt><trkpt lat="40.2529983" lon="14.9305667"><ele>317.0</ele><time>2026-04-25T12:19:26.959Z</time></trkpt><trkpt lat="40.2529283" lon="14.9306517"><ele>317.0</ele><time>2026-04-25T12:19:27.958Z</time></trkpt><trkpt lat="40.25286" lon="14.9307267"><ele>317.0</ele><time>2026-04-25T12:19:28.959Z</time></trkpt><trkpt lat="40.2527967" lon="14.9307917"><ele>317.0</ele><time>2026-04-25T12:19:29.955Z</time></trkpt><trkpt lat="40.252735" lon="14.93085"><ele>317.0</ele><time>2026-04-25T12:19:30.961Z</time></trkpt><trkpt lat="40.2526717" lon="14.9308967"><ele>317.0</ele><time>2026-04-25T12:19:32.014Z</time></trkpt><trkpt lat="40.2526033" lon="14.9309467"><ele>317.0</ele><time>2026-04-25T12:19:32.958Z</time></trkpt><trkpt lat="40.2525333" lon="14.9309933"><ele>317.33333333333337</ele><time>2026-04-25T12:19:33.95Z</time></trkpt><trkpt lat="40.252475" lon="14.931035"><ele>317.6666666666667</ele><time>2026-04-25T12:19:34.962Z</time></trkpt><trkpt lat="40.2524" lon="14.9310817"><ele>318.0</ele><time>2026-04-25T12:19:36.963Z</time></trkpt><trkpt lat="40.25232" lon="14.931155"><ele>318.3333333333333</ele><time>2026-04-25T12:19:38.953Z</time></trkpt><trkpt lat="40.25227" lon="14.9312117"><ele>318.66666666666663</ele><time>2026-04-25T12:19:39.955Z</time></trkpt><trkpt lat="40.2522117" lon="14.93128"><ele>319.0</ele><time>2026-04-25T12:19:40.958Z</time></trkpt><trkpt lat="40.252135" lon="14.93136"><ele>318.16666666666663</ele><time>2026-04-25T12:19:41.959Z</time></trkpt><trkpt lat="40.2520633" lon="14.9314383"><ele>317.3333333333333</ele><time>2026-04-25T12:19:42.962Z</time></trkpt><trkpt lat="40.251995" lon="14.9315183"><ele>316.5</ele><time>2026-04-25T12:19:43.993Z</time></trkpt><trkpt lat="40.2519383" lon="14.93159"><ele>315.6666666666667</ele><time>2026-04-25T12:19:44.959Z</time></trkpt><trkpt lat="40.251885" lon="14.9316633"><ele>314.83333333333337</ele><time>2026-04-25T12:19:45.959Z</time></trkpt><trkpt lat="40.2518317" lon="14.9317217"><ele>314.0</ele><time>2026-04-25T12:19:46.961Z</time></trkpt><trkpt lat="40.2517833" lon="14.931775"><ele>314.0</ele><time>2026-04-25T12:19:47.963Z</time></trkpt><trkpt lat="40.2516917" lon="14.9318683"><ele>314.0</ele><time>2026-04-25T12:19:49.995Z</time></trkpt><trkpt lat="40.2516467" lon="14.931935"><ele>314.0</ele><time>2026-04-25T12:19:50.96Z</time></trkpt><trkpt lat="40.2515983" lon="14.9320117"><ele>314.0</ele><time>2026-04-25T12:19:51.958Z</time></trkpt><trkpt lat="40.2515433" lon="14.9321"><ele>314.0</ele><time>2026-04-25T12:19:52.963Z</time></trkpt><trkpt lat="40.2514833" lon="14.932205"><ele>314.0</ele><time>2026-04-25T12:19:53.956Z</time></trkpt><trkpt lat="40.2514183" lon="14.932315"><ele>313.2</ele><time>2026-04-25T12:19:54.962Z</time></trkpt><trkpt lat="40.251355" lon="14.932425"><ele>312.4</ele><time>2026-04-25T12:19:56.016Z</time></trkpt><trkpt lat="40.251295" lon="14.93253"><ele>311.6</ele><time>2026-04-25T12:19:56.953Z</time></trkpt><trkpt lat="40.2512383" lon="14.9326267"><ele>310.8</ele><time>2026-04-25T12:19:57.957Z</time></trkpt><trkpt lat="40.2511867" lon="14.9327133"><ele>310.0</ele><time>2026-04-25T12:19:58.964Z</time></trkpt><trkpt lat="40.25113" lon="14.93279"><ele>310.0</ele><time>2026-04-25T12:19:59.965Z</time></trkpt><trkpt lat="40.2510783" lon="14.9328517"><ele>310.0</ele><time>2026-04-25T12:20:00.963Z</time></trkpt><trkpt lat="40.2510233" lon="14.9329033"><ele>310.0</ele><time>2026-04-25T12:20:02.011Z</time></trkpt><trkpt lat="40.2509667" lon="14.9329517"><ele>310.0</ele><time>2026-04-25T12:20:02.959Z</time></trkpt><trkpt lat="40.25091" lon="14.9330183"><ele>310.0</ele><time>2026-04-25T12:20:03.952Z</time></trkpt><trkpt lat="40.2508533" lon="14.9331033"><ele>310.0</ele><time>2026-04-25T12:20:04.964Z</time></trkpt><trkpt lat="40.2508067" lon="14.933185"><ele>310.0</ele><time>2026-04-25T12:20:05.954Z</time></trkpt><trkpt lat="40.250765" lon="14.9332617"><ele>310.0</ele><time>2026-04-25T12:20:06.958Z</time></trkpt><trkpt lat="40.2507283" lon="14.9333383"><ele>310.0</ele><time>2026-04-25T12:20:07.997Z</time></trkpt><trkpt lat="40.2506933" lon="14.9334083"><ele>310.0</ele><time>2026-04-25T12:20:08.959Z</time></trkpt><trkpt lat="40.2506567" lon="14.9334833"><ele>310.0</ele><time>2026-04-25T12:20:09.95Z</time></trkpt><trkpt lat="40.2506167" lon="14.9335683"><ele>310.0</ele><time>2026-04-25T12:20:10.958Z</time></trkpt><trkpt lat="40.2505867" lon="14.9336583"><ele>310.0</ele><time>2026-04-25T12:20:11.956Z</time></trkpt><trkpt lat="40.2505633" lon="14.9337383"><ele>310.0</ele><time>2026-04-25T12:20:12.953Z</time></trkpt><trkpt lat="40.2505167" lon="14.9338717"><ele>307.25</ele><time>2026-04-25T12:20:14.952Z</time></trkpt><trkpt lat="40.250465" lon="14.9340233"><ele>304.5</ele><time>2026-04-25T12:20:16.962Z</time></trkpt><trkpt lat="40.25041" lon="14.9341633"><ele>301.75</ele><time>2026-04-25T12:20:18.952Z</time></trkpt><trkpt lat="40.250365" lon="14.9342967"><ele>299.0</ele><time>2026-04-25T12:20:20.952Z</time></trkpt><trkpt lat="40.250325" lon="14.934415"><ele>299.0</ele><time>2026-04-25T12:20:22.957Z</time></trkpt><trkpt lat="40.250305" lon="14.9345017"><ele>299.0</ele><time>2026-04-25T12:20:24.961Z</time></trkpt><trkpt lat="40.250285" lon="14.9345817"><ele>299.0</ele><time>2026-04-25T12:20:28.954Z</time></trkpt><trkpt lat="40.2502483" lon="14.9347017"><ele>299.0</ele><time>2026-04-25T12:20:41.957Z</time></trkpt><trkpt lat="40.2501917" lon="14.9348283"><ele>299.0</ele><time>2026-04-25T12:20:56.008Z</time></trkpt><trkpt lat="40.2501667" lon="14.9349417"><ele>299.0</ele><time>2026-04-25T12:20:58.96Z</time></trkpt><trkpt lat="40.2501383" lon="14.9350533"><ele>298.2857142857143</ele><time>2026-04-25T12:21:02.013Z</time></trkpt><trkpt lat="40.2501183" lon="14.93515"><ele>297.57142857142856</ele><time>2026-04-25T12:21:03.96Z</time></trkpt><trkpt lat="40.2501033" lon="14.9352317"><ele>296.8571428571429</ele><time>2026-04-25T12:21:04.964Z</time></trkpt><trkpt lat="40.2500817" lon="14.93533"><ele>296.1428571428571</ele><time>2026-04-25T12:21:05.957Z</time></trkpt><trkpt lat="40.25006" lon="14.9354283"><ele>295.42857142857144</ele><time>2026-04-25T12:21:06.964Z</time></trkpt><trkpt lat="40.2500467" lon="14.9355167"><ele>294.7142857142857</ele><time>2026-04-25T12:21:07.994Z</time></trkpt><trkpt lat="40.2500167" lon="14.9355983"><ele>294.0</ele><time>2026-04-25T12:21:08.952Z</time></trkpt><trkpt lat="40.2499867" lon="14.9356783"><ele>294.0</ele><time>2026-04-25T12:21:09.946Z</time></trkpt><trkpt lat="40.2499583" lon="14.9357617"><ele>294.0</ele><time>2026-04-25T12:21:10.955Z</time></trkpt><trkpt lat="40.24993" lon="14.9358567"><ele>294.0</ele><time>2026-04-25T12:21:11.959Z</time></trkpt><trkpt lat="40.2499033" lon="14.9359517"><ele>294.0</ele><time>2026-04-25T12:21:12.959Z</time></trkpt><trkpt lat="40.2498783" lon="14.9360317"><ele>294.0</ele><time>2026-04-25T12:21:13.991Z</time></trkpt><trkpt lat="40.2498517" lon="14.9361067"><ele>294.0</ele><time>2026-04-25T12:21:14.957Z</time></trkpt><trkpt lat="40.2498117" lon="14.9361933"><ele>294.0</ele><time>2026-04-25T12:21:16.959Z</time></trkpt><trkpt lat="40.2497667" lon="14.9362733"><ele>294.6666666666667</ele><time>2026-04-25T12:21:19.99Z</time></trkpt><trkpt lat="40.2497267" lon="14.9363733"><ele>295.3333333333333</ele><time>2026-04-25T12:21:23.953Z</time></trkpt><trkpt lat="40.2497267" lon="14.9364633"><ele>296.0</ele><time>2026-04-25T12:21:26.01Z</time></trkpt><trkpt lat="40.2496867" lon="14.9365717"><ele>296.66666666666663</ele><time>2026-04-25T12:21:27.957Z</time></trkpt><trkpt lat="40.249645" lon="14.9367133"><ele>297.3333333333333</ele><time>2026-04-25T12:21:29.956Z</time></trkpt><trkpt lat="40.24961" lon="14.9368017"><ele>298.0</ele><time>2026-04-25T12:21:30.956Z</time></trkpt><trkpt lat="40.2495667" lon="14.9368967"><ele>298.0</ele><time>2026-04-25T12:21:32.011Z</time></trkpt><trkpt lat="40.249525" lon="14.9369917"><ele>298.0</ele><time>2026-04-25T12:21:32.951Z</time></trkpt><trkpt lat="40.2494983" lon="14.9370733"><ele>298.0</ele><time>2026-04-25T12:21:33.957Z</time></trkpt><trkpt lat="40.2494667" lon="14.937175"><ele>298.0</ele><time>2026-04-25T12:21:35.951Z</time></trkpt><trkpt lat="40.2494283" lon="14.9372517"><ele>298.0</ele><time>2026-04-25T12:21:41.96Z</time></trkpt><trkpt lat="40.249385" lon="14.93732"><ele>298.0</ele><time>2026-04-25T12:21:43.99Z</time></trkpt><trkpt lat="40.2493433" lon="14.93743"><ele>298.0</ele><time>2026-04-25T12:21:46.963Z</time></trkpt><trkpt lat="40.2493217" lon="14.9375083"><ele>298.0</ele><time>2026-04-25T12:21:48.962Z</time></trkpt><trkpt lat="40.2493" lon="14.9376017"><ele>298.0</ele><time>2026-04-25T12:21:50.958Z</time></trkpt><trkpt lat="40.2492717" lon="14.937695"><ele>298.0</ele><time>2026-04-25T12:21:52.961Z</time></trkpt><trkpt lat="40.2492467" lon="14.9377883"><ele>298.0</ele><time>2026-04-25T12:21:54.962Z</time></trkpt><trkpt lat="40.24921" lon="14.9378883"><ele>298.0</ele><time>2026-04-25T12:21:56.959Z</time></trkpt><trkpt lat="40.2491783" lon="14.9380217"><ele>297.4</ele><time>2026-04-25T12:21:58.956Z</time></trkpt><trkpt lat="40.2491483" lon="14.9381583"><ele>296.8</ele><time>2026-04-25T12:22:00.954Z</time></trkpt><trkpt lat="40.2491" lon="14.9382967"><ele>296.2</ele><time>2026-04-25T12:22:02.954Z</time></trkpt><trkpt lat="40.249075" lon="14.9384083"><ele>295.6</ele><time>2026-04-25T12:22:04.951Z</time></trkpt><trkpt lat="40.2490467" lon="14.9385383"><ele>295.0</ele><time>2026-04-25T12:22:06.954Z</time></trkpt><trkpt lat="40.248995" lon="14.93866"><ele>294.4</ele><time>2026-04-25T12:22:08.953Z</time></trkpt><trkpt lat="40.2488983" lon="14.938755"><ele>293.8</ele><time>2026-04-25T12:22:10.955Z</time></trkpt><trkpt lat="40.2488" lon="14.9387767"><ele>293.2</ele><time>2026-04-25T12:22:11.959Z</time></trkpt><trkpt lat="40.2486917" lon="14.93879"><ele>292.6</ele><time>2026-04-25T12:22:12.959Z</time></trkpt><trkpt lat="40.2485817" lon="14.938805"><ele>292.0</ele><time>2026-04-25T12:22:13.987Z</time></trkpt><trkpt lat="40.2484717" lon="14.9388317"><ele>292.0</ele><time>2026-04-25T12:22:14.953Z</time></trkpt><trkpt lat="40.2483617" lon="14.9388717"><ele>292.0</ele><time>2026-04-25T12:22:15.959Z</time></trkpt><trkpt lat="40.2482467" lon="14.9389217"><ele>292.0</ele><time>2026-04-25T12:22:16.953Z</time></trkpt><trkpt lat="40.24813" lon="14.938975"><ele>292.0</ele><time>2026-04-25T12:22:17.952Z</time></trkpt><trkpt lat="40.2480167" lon="14.9390317"><ele>292.0</ele><time>2026-04-25T12:22:18.96Z</time></trkpt><trkpt lat="40.24791" lon="14.9390867"><ele>292.0</ele><time>2026-04-25T12:22:19.988Z</time></trkpt><trkpt lat="40.2478067" lon="14.9391467"><ele>292.0</ele><time>2026-04-25T12:22:20.955Z</time></trkpt><trkpt lat="40.2477033" lon="14.9392283"><ele>292.0</ele><time>2026-04-25T12:22:21.958Z</time></trkpt><trkpt lat="40.247605" lon="14.9393233"><ele>290.2</ele><time>2026-04-25T12:22:22.96Z</time></trkpt><trkpt lat="40.247515" lon="14.9394267"><ele>288.4</ele><time>2026-04-25T12:22:23.952Z</time></trkpt><trkpt lat="40.2474283" lon="14.9395233"><ele>286.6</ele><time>2026-04-25T12:22:24.962Z</time></trkpt><trkpt lat="40.247345" lon="14.939615"><ele>284.8</ele><time>2026-04-25T12:22:26.012Z</time></trkpt><trkpt lat="40.2472667" lon="14.9397"><ele>283.0</ele><time>2026-04-25T12:22:26.952Z</time></trkpt><trkpt lat="40.247195" lon="14.9397833"><ele>283.0</ele><time>2026-04-25T12:22:27.958Z</time></trkpt><trkpt lat="40.24713" lon="14.9398583"><ele>283.0</ele><time>2026-04-25T12:22:28.955Z</time></trkpt><trkpt lat="40.2470633" lon="14.9399333"><ele>283.0</ele><time>2026-04-25T12:22:29.952Z</time></trkpt><trkpt lat="40.2469933" lon="14.9399917"><ele>283.0</ele><time>2026-04-25T12:22:30.957Z</time></trkpt><trkpt lat="40.2469183" lon="14.9400317"><ele>283.0</ele><time>2026-04-25T12:22:32.01Z</time></trkpt><trkpt lat="40.24684" lon="14.940055"><ele>283.0</ele><time>2026-04-25T12:22:32.955Z</time></trkpt><trkpt lat="40.2467633" lon="14.9400617"><ele>279.2</ele><time>2026-04-25T12:22:33.953Z</time></trkpt><trkpt lat="40.2466883" lon="14.9400667"><ele>275.4</ele><time>2026-04-25T12:22:34.957Z</time></trkpt><trkpt lat="40.24662" lon="14.940075"><ele>271.59999999999997</ele><time>2026-04-25T12:22:35.956Z</time></trkpt><trkpt lat="40.24651" lon="14.94012"><ele>267.8</ele><time>2026-04-25T12:22:37.988Z</time></trkpt><trkpt lat="40.2464133" lon="14.9402267"><ele>264.0</ele><time>2026-04-25T12:22:39.951Z</time></trkpt><trkpt lat="40.24635" lon="14.9402717"><ele>263.6666666666667</ele><time>2026-04-25T12:22:40.952Z</time></trkpt><trkpt lat="40.246285" lon="14.9403083"><ele>263.3333333333333</ele><time>2026-04-25T12:22:41.957Z</time></trkpt><trkpt lat="40.2462083" lon="14.9403267"><ele>263.0</ele><time>2026-04-25T12:22:42.954Z</time></trkpt><trkpt lat="40.2461267" lon="14.9403267"><ele>262.66666666666663</ele><time>2026-04-25T12:22:43.989Z</time></trkpt><trkpt lat="40.2460417" lon="14.9403"><ele>262.3333333333333</ele><time>2026-04-25T12:22:44.959Z</time></trkpt><trkpt lat="40.245965" lon="14.9402767"><ele>262.0</ele><time>2026-04-25T12:22:45.958Z</time></trkpt><trkpt lat="40.2458467" lon="14.9402583"><ele>262.0</ele><time>2026-04-25T12:22:47.949Z</time></trkpt><trkpt lat="40.2457683" lon="14.94032"><ele>262.0</ele><time>2026-04-25T12:22:49.989Z</time></trkpt><trkpt lat="40.245745" lon="14.9404767"><ele>262.0</ele><time>2026-04-25T12:22:51.95Z</time></trkpt><trkpt lat="40.2457483" lon="14.9405983"><ele>262.0</ele><time>2026-04-25T12:22:52.954Z</time></trkpt><trkpt lat="40.2457417" lon="14.9407183"><ele>262.0</ele><time>2026-04-25T12:22:53.953Z</time></trkpt><trkpt lat="40.245715" lon="14.94083"><ele>261.4</ele><time>2026-04-25T12:22:54.95Z</time></trkpt><trkpt lat="40.2456833" lon="14.94095"><ele>260.79999999999995</ele><time>2026-04-25T12:22:56.014Z</time></trkpt><trkpt lat="40.24564" lon="14.9410583"><ele>260.2</ele><time>2026-04-25T12:22:56.953Z</time></trkpt><trkpt lat="40.245585" lon="14.9411683"><ele>259.59999999999997</ele><time>2026-04-25T12:22:57.959Z</time></trkpt><trkpt lat="40.2455233" lon="14.94128"><ele>259.0</ele><time>2026-04-25T12:22:58.951Z</time></trkpt><trkpt lat="40.2454633" lon="14.941395"><ele>259.0</ele><time>2026-04-25T12:22:59.955Z</time></trkpt><trkpt lat="40.2454" lon="14.9415083"><ele>259.0</ele><time>2026-04-25T12:23:00.961Z</time></trkpt><trkpt lat="40.24534" lon="14.94161"><ele>259.0</ele><time>2026-04-25T12:23:02.009Z</time></trkpt><trkpt lat="40.245285" lon="14.9417033"><ele>259.0</ele><time>2026-04-25T12:23:02.953Z</time></trkpt><trkpt lat="40.24524" lon="14.94178"><ele>259.0</ele><time>2026-04-25T12:23:03.954Z</time></trkpt><trkpt lat="40.24522" lon="14.9418583"><ele>259.0</ele><time>2026-04-25T12:23:04.952Z</time></trkpt><trkpt lat="40.2452083" lon="14.9419417"><ele>255.66666666666666</ele><time>2026-04-25T12:23:05.961Z</time></trkpt><trkpt lat="40.2451933" lon="14.9420317"><ele>252.33333333333331</ele><time>2026-04-25T12:23:06.956Z</time></trkpt><trkpt lat="40.2451667" lon="14.9421217"><ele>249.0</ele><time>2026-04-25T12:23:07.985Z</time></trkpt><trkpt lat="40.2451267" lon="14.942215"><ele>245.66666666666669</ele><time>2026-04-25T12:23:08.953Z</time></trkpt><trkpt lat="40.2450783" lon="14.9423283"><ele>242.33333333333334</ele><time>2026-04-25T12:23:09.954Z</time></trkpt><trkpt lat="40.2450333" lon="14.9424433"><ele>239.0</ele><time>2026-04-25T12:23:10.957Z</time></trkpt><trkpt lat="40.2449883" lon="14.942555"><ele>239.39999999999998</ele><time>2026-04-25T12:23:11.96Z</time></trkpt><trkpt lat="40.2449383" lon="14.9426633"><ele>239.79999999999998</ele><time>2026-04-25T12:23:12.962Z</time></trkpt><trkpt lat="40.244885" lon="14.9427683"><ele>240.20000000000002</ele><time>2026-04-25T12:23:13.989Z</time></trkpt><trkpt lat="40.2448367" lon="14.9428767"><ele>240.60000000000002</ele><time>2026-04-25T12:23:14.952Z</time></trkpt><trkpt lat="40.2447933" lon="14.942985"><ele>241.0</ele><time>2026-04-25T12:23:15.958Z</time></trkpt><trkpt lat="40.244745" lon="14.9430933"><ele>241.0</ele><time>2026-04-25T12:23:16.954Z</time></trkpt><trkpt lat="40.2447017" lon="14.9432017"><ele>241.00000000000003</ele><time>2026-04-25T12:23:17.957Z</time></trkpt><trkpt lat="40.2446683" lon="14.9433183"><ele>241.00000000000003</ele><time>2026-04-25T12:23:18.959Z</time></trkpt><trkpt lat="40.2446383" lon="14.9434317"><ele>241.0</ele><time>2026-04-25T12:23:19.987Z</time></trkpt><trkpt lat="40.2446133" lon="14.9435383"><ele>241.0</ele><time>2026-04-25T12:23:20.952Z</time></trkpt><trkpt lat="40.24459" lon="14.9436533"><ele>237.20000000000002</ele><time>2026-04-25T12:23:21.958Z</time></trkpt><trkpt lat="40.24455" lon="14.94377"><ele>233.40000000000003</ele><time>2026-04-25T12:23:22.954Z</time></trkpt><trkpt lat="40.2444967" lon="14.94388"><ele>229.6</ele><time>2026-04-25T12:23:23.959Z</time></trkpt><trkpt lat="40.2444433" lon="14.9439883"><ele>225.8</ele><time>2026-04-25T12:23:24.961Z</time></trkpt><trkpt lat="40.2443933" lon="14.9440983"><ele>222.0</ele><time>2026-04-25T12:23:25.993Z</time></trkpt><trkpt lat="40.2443517" lon="14.9442183"><ele>218.2</ele><time>2026-04-25T12:23:26.956Z</time></trkpt><trkpt lat="40.2443133" lon="14.9443417"><ele>214.39999999999998</ele><time>2026-04-25T12:23:27.955Z</time></trkpt><trkpt lat="40.2442667" lon="14.9444683"><ele>210.60000000000002</ele><time>2026-04-25T12:23:28.959Z</time></trkpt><trkpt lat="40.2442217" lon="14.94458"><ele>206.8</ele><time>2026-04-25T12:23:29.953Z</time></trkpt><trkpt lat="40.2441833" lon="14.944685"><ele>203.0</ele><time>2026-04-25T12:23:30.958Z</time></trkpt><trkpt lat="40.24415" lon="14.94478"><ele>203.00000000000003</ele><time>2026-04-25T12:23:32.011Z</time></trkpt><trkpt lat="40.2441217" lon="14.9448683"><ele>203.0</ele><time>2026-04-25T12:23:32.957Z</time></trkpt><trkpt lat="40.2440933" lon="14.9449583"><ele>203.0</ele><time>2026-04-25T12:23:33.959Z</time></trkpt><trkpt lat="40.244065" lon="14.9450467"><ele>203.0</ele><time>2026-04-25T12:23:34.957Z</time></trkpt><trkpt lat="40.2440483" lon="14.9451467"><ele>203.00000000000003</ele><time>2026-04-25T12:23:35.948Z</time></trkpt><trkpt lat="40.2440267" lon="14.9452517"><ele>203.0</ele><time>2026-04-25T12:23:36.954Z</time></trkpt><trkpt lat="40.2440033" lon="14.945365"><ele>203.4</ele><time>2026-04-25T12:23:37.989Z</time></trkpt><trkpt lat="40.243975" lon="14.945475"><ele>203.8</ele><time>2026-04-25T12:23:38.956Z</time></trkpt><trkpt lat="40.24395" lon="14.9455833"><ele>204.2</ele><time>2026-04-25T12:23:39.959Z</time></trkpt><trkpt lat="40.2439217" lon="14.9456883"><ele>204.6</ele><time>2026-04-25T12:23:40.952Z</time></trkpt><trkpt lat="40.2439033" lon="14.9458133"><ele>205.0</ele><time>2026-04-25T12:23:41.953Z</time></trkpt><trkpt lat="40.2438733" lon="14.9459283"><ele>202.4</ele><time>2026-04-25T12:23:42.957Z</time></trkpt><trkpt lat="40.24383" lon="14.94604"><ele>199.8</ele><time>2026-04-25T12:23:43.993Z</time></trkpt><trkpt lat="40.2437867" lon="14.94615"><ele>197.2</ele><time>2026-04-25T12:23:44.953Z</time></trkpt><trkpt lat="40.24375" lon="14.9462517"><ele>194.6</ele><time>2026-04-25T12:23:45.954Z</time></trkpt><trkpt lat="40.2437217" lon="14.9463567"><ele>192.0</ele><time>2026-04-25T12:23:46.959Z</time></trkpt><trkpt lat="40.2437017" lon="14.946475"><ele>192.0</ele><time>2026-04-25T12:23:47.951Z</time></trkpt><trkpt lat="40.24368" lon="14.9465967"><ele>192.0</ele><time>2026-04-25T12:23:48.959Z</time></trkpt><trkpt lat="40.2436567" lon="14.94672"><ele>192.0</ele><time>2026-04-25T12:23:49.994Z</time></trkpt><trkpt lat="40.243635" lon="14.9468433"><ele>192.0</ele><time>2026-04-25T12:23:50.956Z</time></trkpt><trkpt lat="40.243605" lon="14.9469717"><ele>192.0</ele><time>2026-04-25T12:23:51.958Z</time></trkpt><trkpt lat="40.24357" lon="14.9471017"><ele>189.83333333333334</ele><time>2026-04-25T12:23:52.955Z</time></trkpt><trkpt lat="40.2435383" lon="14.947225"><ele>187.66666666666666</ele><time>2026-04-25T12:23:53.953Z</time></trkpt><trkpt lat="40.2435067" lon="14.9473383"><ele>185.5</ele><time>2026-04-25T12:23:54.957Z</time></trkpt><trkpt lat="40.2434733" lon="14.947445"><ele>183.33333333333331</ele><time>2026-04-25T12:23:56.019Z</time></trkpt><trkpt lat="40.2434467" lon="14.9475467"><ele>181.16666666666666</ele><time>2026-04-25T12:23:56.951Z</time></trkpt><trkpt lat="40.243425" lon="14.9476583"><ele>179.0</ele><time>2026-04-25T12:23:57.951Z</time></trkpt><trkpt lat="40.243405" lon="14.9477783"><ele>176.83333333333331</ele><time>2026-04-25T12:23:58.957Z</time></trkpt><trkpt lat="40.243385" lon="14.9478933"><ele>174.66666666666666</ele><time>2026-04-25T12:23:59.951Z</time></trkpt><trkpt lat="40.2433683" lon="14.9480083"><ele>172.5</ele><time>2026-04-25T12:24:00.964Z</time></trkpt><trkpt lat="40.2433567" lon="14.9481133"><ele>170.33333333333334</ele><time>2026-04-25T12:24:02.003Z</time></trkpt><trkpt lat="40.24335" lon="14.9482083"><ele>168.16666666666669</ele><time>2026-04-25T12:24:02.957Z</time></trkpt><trkpt lat="40.2433467" lon="14.948305"><ele>166.0</ele><time>2026-04-25T12:24:03.956Z</time></trkpt><trkpt lat="40.2433367" lon="14.94841"><ele>164.0</ele><time>2026-04-25T12:24:04.959Z</time></trkpt><trkpt lat="40.2433283" lon="14.9485233"><ele>162.0</ele><time>2026-04-25T12:24:05.955Z</time></trkpt><trkpt lat="40.24332" lon="14.9486333"><ele>160.0</ele><time>2026-04-25T12:24:06.96Z</time></trkpt><trkpt lat="40.2433083" lon="14.948735"><ele>158.0</ele><time>2026-04-25T12:24:07.989Z</time></trkpt><trkpt lat="40.2432983" lon="14.9488283"><ele>156.0</ele><time>2026-04-25T12:24:08.949Z</time></trkpt><trkpt lat="40.243285" lon="14.9489167"><ele>154.0</ele><time>2026-04-25T12:24:09.949Z</time></trkpt><trkpt lat="40.243265" lon="14.948995"><ele>154.0</ele><time>2026-04-25T12:24:10.948Z</time></trkpt><trkpt lat="40.2432333" lon="14.9491267"><ele>154.0</ele><time>2026-04-25T12:24:12.963Z</time></trkpt><trkpt lat="40.2432233" lon="14.9492083"><ele>154.0</ele><time>2026-04-25T12:24:13.994Z</time></trkpt><trkpt lat="40.2432133" lon="14.94931"><ele>154.0</ele><time>2026-04-25T12:24:14.961Z</time></trkpt><trkpt lat="40.2432033" lon="14.9494333"><ele>154.0</ele><time>2026-04-25T12:24:15.956Z</time></trkpt><trkpt lat="40.243195" lon="14.9495583"><ele>154.0</ele><time>2026-04-25T12:24:16.96Z</time></trkpt><trkpt lat="40.2431883" lon="14.94968"><ele>151.0</ele><time>2026-04-25T12:24:17.955Z</time></trkpt><trkpt lat="40.24318" lon="14.949795"><ele>148.0</ele><time>2026-04-25T12:24:18.966Z</time></trkpt><trkpt lat="40.24317" lon="14.9499"><ele>145.0</ele><time>2026-04-25T12:24:19.988Z</time></trkpt><trkpt lat="40.2431683" lon="14.9500217"><ele>142.0</ele><time>2026-04-25T12:24:20.955Z</time></trkpt><trkpt lat="40.243165" lon="14.9501483"><ele>139.0</ele><time>2026-04-25T12:24:21.951Z</time></trkpt><trkpt lat="40.24316" lon="14.9502767"><ele>137.66666666666669</ele><time>2026-04-25T12:24:22.957Z</time></trkpt><trkpt lat="40.2431567" lon="14.9503933"><ele>136.33333333333334</ele><time>2026-04-25T12:24:23.951Z</time></trkpt><trkpt lat="40.243155" lon="14.9504967"><ele>135.0</ele><time>2026-04-25T12:24:24.959Z</time></trkpt><trkpt lat="40.2431533" lon="14.950595"><ele>133.66666666666666</ele><time>2026-04-25T12:24:26.011Z</time></trkpt><trkpt lat="40.2431483" lon="14.9506933"><ele>132.33333333333331</ele><time>2026-04-25T12:24:26.956Z</time></trkpt><trkpt lat="40.2431483" lon="14.9508067"><ele>131.0</ele><time>2026-04-25T12:24:27.956Z</time></trkpt><trkpt lat="40.243145" lon="14.9509333"><ele>132.4</ele><time>2026-04-25T12:24:28.958Z</time></trkpt><trkpt lat="40.2431317" lon="14.95106"><ele>133.8</ele><time>2026-04-25T12:24:29.96Z</time></trkpt><trkpt lat="40.2431083" lon="14.95119"><ele>135.20000000000002</ele><time>2026-04-25T12:24:30.958Z</time></trkpt><trkpt lat="40.2430767" lon="14.9513283"><ele>136.6</ele><time>2026-04-25T12:24:32.006Z</time></trkpt><trkpt lat="40.2430467" lon="14.951465"><ele>138.0</ele><time>2026-04-25T12:24:32.951Z</time></trkpt><trkpt lat="40.2430233" lon="14.9515867"><ele>138.0</ele><time>2026-04-25T12:24:33.956Z</time></trkpt><trkpt lat="40.243" lon="14.9517067"><ele>138.0</ele><time>2026-04-25T12:24:34.958Z</time></trkpt><trkpt lat="40.242975" lon="14.95182"><ele>138.0</ele><time>2026-04-25T12:24:35.95Z</time></trkpt><trkpt lat="40.2429517" lon="14.9519317"><ele>138.0</ele><time>2026-04-25T12:24:36.957Z</time></trkpt><trkpt lat="40.2429333" lon="14.9520433"><ele>138.0</ele><time>2026-04-25T12:24:37.992Z</time></trkpt><trkpt lat="40.2429133" lon="14.9521533"><ele>138.0</ele><time>2026-04-25T12:24:38.956Z</time></trkpt><trkpt lat="40.2428867" lon="14.9522533"><ele>134.8</ele><time>2026-04-25T12:24:39.952Z</time></trkpt><trkpt lat="40.2428567" lon="14.9523583"><ele>131.60000000000002</ele><time>2026-04-25T12:24:40.956Z</time></trkpt><trkpt lat="40.2428233" lon="14.9524683"><ele>128.39999999999998</ele><time>2026-04-25T12:24:41.956Z</time></trkpt><trkpt lat="40.2427767" lon="14.9525933"><ele>125.19999999999999</ele><time>2026-04-25T12:24:42.961Z</time></trkpt><trkpt lat="40.2427267" lon="14.95271"><ele>122.0</ele><time>2026-04-25T12:24:43.987Z</time></trkpt><trkpt lat="40.242675" lon="14.9528183"><ele>118.66666666666666</ele><time>2026-04-25T12:24:44.959Z</time></trkpt><trkpt lat="40.2426183" lon="14.9529183"><ele>115.33333333333333</ele><time>2026-04-25T12:24:45.953Z</time></trkpt><trkpt lat="40.242565" lon="14.95302"><ele>112.0</ele><time>2026-04-25T12:24:46.958Z</time></trkpt><trkpt lat="40.2425167" lon="14.9531167"><ele>108.66666666666666</ele><time>2026-04-25T12:24:47.95Z</time></trkpt><trkpt lat="40.242475" lon="14.9532133"><ele>105.33333333333333</ele><time>2026-04-25T12:24:48.954Z</time></trkpt><trkpt lat="40.2424417" lon="14.95331"><ele>102.0</ele><time>2026-04-25T12:24:49.992Z</time></trkpt><trkpt lat="40.2424083" lon="14.9534"><ele>100.42857142857143</ele><time>2026-04-25T12:24:50.952Z</time></trkpt><trkpt lat="40.2423767" lon="14.95348"><ele>98.85714285714286</ele><time>2026-04-25T12:24:51.955Z</time></trkpt><trkpt lat="40.242355" lon="14.9535617"><ele>97.28571428571428</ele><time>2026-04-25T12:24:52.957Z</time></trkpt><trkpt lat="40.242345" lon="14.9536583"><ele>95.71428571428572</ele><time>2026-04-25T12:24:53.953Z</time></trkpt><trkpt lat="40.2423483" lon="14.953755"><ele>94.14285714285714</ele><time>2026-04-25T12:24:54.956Z</time></trkpt><trkpt lat="40.2423517" lon="14.95385"><ele>92.57142857142857</ele><time>2026-04-25T12:24:56.011Z</time></trkpt><trkpt lat="40.2423567" lon="14.9539483"><ele>91.0</ele><time>2026-04-25T12:24:56.956Z</time></trkpt><trkpt lat="40.2423583" lon="14.9540533"><ele>91.0</ele><time>2026-04-25T12:24:57.956Z</time></trkpt><trkpt lat="40.242335" lon="14.954155"><ele>91.0</ele><time>2026-04-25T12:24:58.96Z</time></trkpt><trkpt lat="40.2423067" lon="14.9542583"><ele>91.0</ele><time>2026-04-25T12:24:59.962Z</time></trkpt><trkpt lat="40.2422733" lon="14.9543633"><ele>91.0</ele><time>2026-04-25T12:25:00.962Z</time></trkpt><trkpt lat="40.2422283" lon="14.9544667"><ele>91.0</ele><time>2026-04-25T12:25:02.005Z</time></trkpt><trkpt lat="40.2421733" lon="14.9545717"><ele>91.0</ele><time>2026-04-25T12:25:02.951Z</time></trkpt><trkpt lat="40.242115" lon="14.9546817"><ele>91.4</ele><time>2026-04-25T12:25:03.952Z</time></trkpt><trkpt lat="40.24206" lon="14.9548"><ele>91.8</ele><time>2026-04-25T12:25:04.958Z</time></trkpt><trkpt lat="40.2420067" lon="14.9549167"><ele>92.2</ele><time>2026-04-25T12:25:05.959Z</time></trkpt><trkpt lat="40.2419567" lon="14.955025"><ele>92.60000000000001</ele><time>2026-04-25T12:25:06.953Z</time></trkpt><trkpt lat="40.2419067" lon="14.95513"><ele>93.0</ele><time>2026-04-25T12:25:07.992Z</time></trkpt><trkpt lat="40.2418583" lon="14.955235"><ele>90.16666666666667</ele><time>2026-04-25T12:25:08.948Z</time></trkpt><trkpt lat="40.2418033" lon="14.9553383"><ele>87.33333333333333</ele><time>2026-04-25T12:25:09.952Z</time></trkpt><trkpt lat="40.2417467" lon="14.9554317"><ele>84.5</ele><time>2026-04-25T12:25:10.96Z</time></trkpt><trkpt lat="40.24169" lon="14.9555083"><ele>81.66666666666666</ele><time>2026-04-25T12:25:11.956Z</time></trkpt><trkpt lat="40.2416483" lon="14.9555883"><ele>78.83333333333333</ele><time>2026-04-25T12:25:12.963Z</time></trkpt><trkpt lat="40.2416217" lon="14.9556717"><ele>76.0</ele><time>2026-04-25T12:25:13.989Z</time></trkpt><trkpt lat="40.241605" lon="14.9557567"><ele>76.0</ele><time>2026-04-25T12:25:14.952Z</time></trkpt><trkpt lat="40.2416067" lon="14.955855"><ele>76.0</ele><time>2026-04-25T12:25:15.953Z</time></trkpt><trkpt lat="40.241625" lon="14.9559683"><ele>76.0</ele><time>2026-04-25T12:25:16.956Z</time></trkpt><trkpt lat="40.24165" lon="14.9560883"><ele>76.0</ele><time>2026-04-25T12:25:17.956Z</time></trkpt><trkpt lat="40.241675" lon="14.9562067"><ele>76.0</ele><time>2026-04-25T12:25:18.962Z</time></trkpt><trkpt lat="40.2416933" lon="14.95633"><ele>76.0</ele><time>2026-04-25T12:25:19.99Z</time></trkpt><trkpt lat="40.241685" lon="14.9564517"><ele>73.8</ele><time>2026-04-25T12:25:20.956Z</time></trkpt><trkpt lat="40.24167" lon="14.956565"><ele>71.6</ele><time>2026-04-25T12:25:21.96Z</time></trkpt><trkpt lat="40.24164" lon="14.956675"><ele>69.4</ele><time>2026-04-25T12:25:22.959Z</time></trkpt><trkpt lat="40.241595" lon="14.9567867"><ele>67.2</ele><time>2026-04-25T12:25:23.953Z</time></trkpt><trkpt lat="40.241525" lon="14.9569"><ele>65.0</ele><time>2026-04-25T12:25:24.958Z</time></trkpt><trkpt lat="40.2414483" lon="14.9570167"><ele>64.25</ele><time>2026-04-25T12:25:26.015Z</time></trkpt><trkpt lat="40.2413633" lon="14.95714"><ele>63.5</ele><time>2026-04-25T12:25:26.955Z</time></trkpt><trkpt lat="40.241275" lon="14.9572617"><ele>62.75</ele><time>2026-04-25T12:25:27.958Z</time></trkpt><trkpt lat="40.2411917" lon="14.9573733"><ele>62.0</ele><time>2026-04-25T12:25:28.968Z</time></trkpt><trkpt lat="40.2410967" lon="14.9574883"><ele>58.2</ele><time>2026-04-25T12:25:29.951Z</time></trkpt><trkpt lat="40.241015" lon="14.957575"><ele>54.400000000000006</ele><time>2026-04-25T12:25:30.961Z</time></trkpt><trkpt lat="40.240945" lon="14.9576383"><ele>50.599999999999994</ele><time>2026-04-25T12:25:32.01Z</time></trkpt><trkpt lat="40.2408833" lon="14.95769"><ele>46.8</ele><time>2026-04-25T12:25:32.954Z</time></trkpt><trkpt lat="40.240985" lon="14.957745"><ele>43.0</ele><time>2026-04-25T12:25:37.992Z</time></trkpt><trkpt lat="40.2410783" lon="14.95771"><ele>43.0</ele><time>2026-04-25T12:25:38.958Z</time></trkpt><trkpt lat="40.2411683" lon="14.957665"><ele>43.0</ele><time>2026-04-25T12:25:39.958Z</time></trkpt><trkpt lat="40.2412583" lon="14.95762"><ele>43.0</ele><time>2026-04-25T12:25:40.96Z</time></trkpt><trkpt lat="40.24135" lon="14.9575817"><ele>43.0</ele><time>2026-04-25T12:25:41.954Z</time></trkpt><trkpt lat="40.2414467" lon="14.9575483"><ele>43.0</ele><time>2026-04-25T12:25:42.959Z</time></trkpt><trkpt lat="40.2415467" lon="14.9575117"><ele>43.5</ele><time>2026-04-25T12:25:43.985Z</time></trkpt><trkpt lat="40.2416467" lon="14.957475"><ele>44.0</ele><time>2026-04-25T12:25:44.953Z</time></trkpt><trkpt lat="40.24174" lon="14.9574333"><ele>44.5</ele><time>2026-04-25T12:25:45.954Z</time></trkpt><trkpt lat="40.2418267" lon="14.9574"><ele>45.0</ele><time>2026-04-25T12:25:46.955Z</time></trkpt><trkpt lat="40.2419" lon="14.957375"><ele>45.5</ele><time>2026-04-25T12:25:47.953Z</time></trkpt><trkpt lat="40.2419633" lon="14.9573633"><ele>46.0</ele><time>2026-04-25T12:25:48.962Z</time></trkpt><trkpt lat="40.2420417" lon="14.957415"><ele>43.4</ele><time>2026-04-25T12:25:50.954Z</time></trkpt><trkpt lat="40.2420333" lon="14.95754"><ele>40.8</ele><time>2026-04-25T12:25:52.95Z</time></trkpt><trkpt lat="40.2419783" lon="14.9576217"><ele>38.199999999999996</ele><time>2026-04-25T12:25:53.956Z</time></trkpt><trkpt lat="40.2419217" lon="14.95772"><ele>35.599999999999994</ele><time>2026-04-25T12:25:54.959Z</time></trkpt><trkpt lat="40.24185" lon="14.9578383"><ele>33.0</ele><time>2026-04-25T12:25:56.014Z</time></trkpt><trkpt lat="40.2417767" lon="14.9579583"><ele>33.0</ele><time>2026-04-25T12:25:56.953Z</time></trkpt><trkpt lat="40.2417183" lon="14.958075"><ele>33.0</ele><time>2026-04-25T12:25:57.955Z</time></trkpt><trkpt lat="40.2416733" lon="14.9581933"><ele>33.0</ele><time>2026-04-25T12:25:58.959Z</time></trkpt><trkpt lat="40.2416383" lon="14.9583183"><ele>33.0</ele><time>2026-04-25T12:25:59.952Z</time></trkpt><trkpt lat="40.2416167" lon="14.9584367"><ele>33.0</ele><time>2026-04-25T12:26:00.957Z</time></trkpt><trkpt lat="40.241605" lon="14.95855"><ele>31.5</ele><time>2026-04-25T12:26:02.007Z</time></trkpt><trkpt lat="40.2415917" lon="14.95866"><ele>30.0</ele><time>2026-04-25T12:26:02.953Z</time></trkpt><trkpt lat="40.2415733" lon="14.95877"><ele>28.5</ele><time>2026-04-25T12:26:03.956Z</time></trkpt><trkpt lat="40.2415467" lon="14.9588783"><ele>27.0</ele><time>2026-04-25T12:26:04.953Z</time></trkpt><trkpt lat="40.2415183" lon="14.958985"><ele>25.5</ele><time>2026-04-25T12:26:05.963Z</time></trkpt><trkpt lat="40.2414783" lon="14.9590933"><ele>24.0</ele><time>2026-04-25T12:26:06.958Z</time></trkpt><trkpt lat="40.24143" lon="14.9592067"><ele>22.333333333333332</ele><time>2026-04-25T12:26:07.989Z</time></trkpt><trkpt lat="40.2413767" lon="14.9593083"><ele>20.666666666666668</ele><time>2026-04-25T12:26:08.958Z</time></trkpt><trkpt lat="40.24133" lon="14.9593967"><ele>19.0</ele><time>2026-04-25T12:26:09.96Z</time></trkpt><trkpt lat="40.2412867" lon="14.959475"><ele>17.333333333333336</ele><time>2026-04-25T12:26:10.961Z</time></trkpt><trkpt lat="40.241225" lon="14.95958"><ele>15.666666666666668</ele><time>2026-04-25T12:26:12.96Z</time></trkpt><trkpt lat="40.2412967" lon="14.9595667"><ele>14.0</ele><time>2026-04-25T12:26:16.958Z</time></trkpt><trkpt lat="40.2413517" lon="14.9595017"><ele>14.0</ele><time>2026-04-25T12:26:17.952Z</time></trkpt><trkpt lat="40.2414117" lon="14.9594183"><ele>13.999999999999998</ele><time>2026-04-25T12:26:18.983Z</time></trkpt><trkpt lat="40.2414883" lon="14.9593183"><ele>13.999999999999998</ele><time>2026-04-25T12:26:20Z</time></trkpt><trkpt lat="40.2415683" lon="14.9592067"><ele>14.0</ele><time>2026-04-25T12:26:20.958Z</time></trkpt><trkpt lat="40.2416533" lon="14.9591067"><ele>14.0</ele><time>2026-04-25T12:26:21.958Z</time></trkpt><trkpt lat="40.2417267" lon="14.959025"><ele>15.666666666666668</ele><time>2026-04-25T12:26:22.956Z</time></trkpt><trkpt lat="40.24179" lon="14.958965"><ele>17.333333333333336</ele><time>2026-04-25T12:26:23.953Z</time></trkpt><trkpt lat="40.24185" lon="14.958925"><ele>19.0</ele><time>2026-04-25T12:26:24.95Z</time></trkpt><trkpt lat="40.2419467" lon="14.95888"><ele>20.666666666666668</ele><time>2026-04-25T12:26:26.953Z</time></trkpt><trkpt lat="40.24186" lon="14.9589017"><ele>22.333333333333332</ele><time>2026-04-25T12:26:36.954Z</time></trkpt><trkpt lat="40.2417817" lon="14.9589633"><ele>24.0</ele><time>2026-04-25T12:26:37.988Z</time></trkpt><trkpt lat="40.2417067" lon="14.959025"><ele>24.0</ele><time>2026-04-25T12:26:38.948Z</time></trkpt><trkpt lat="40.2416333" lon="14.959095"><ele>24.0</ele><time>2026-04-25T12:26:39.956Z</time></trkpt><trkpt lat="40.2415683" lon="14.9591733"><ele>24.0</ele><time>2026-04-25T12:26:40.951Z</time></trkpt><trkpt lat="40.241495" lon="14.9592633"><ele>24.0</ele><time>2026-04-25T12:26:41.958Z</time></trkpt><trkpt lat="40.24141" lon="14.9593667"><ele>24.0</ele><time>2026-04-25T12:26:42.959Z</time></trkpt><trkpt lat="40.2413383" lon="14.9594633"><ele>22.333333333333332</ele><time>2026-04-25T12:26:43.989Z</time></trkpt><trkpt lat="40.2412917" lon="14.9595267"><ele>20.666666666666668</ele><time>2026-04-25T12:26:44.955Z</time></trkpt><trkpt lat="40.2412067" lon="14.9596183"><ele>19.0</ele><time>2026-04-25T12:26:46.954Z</time></trkpt><trkpt lat="40.2411283" lon="14.959695"><ele>17.333333333333336</ele><time>2026-04-25T12:26:48.959Z</time></trkpt><trkpt lat="40.2410667" lon="14.9597333"><ele>15.666666666666668</ele><time>2026-04-25T12:26:49.997Z</time></trkpt><trkpt lat="40.2409917" lon="14.95979"><ele>14.0</ele><time>2026-04-25T12:26:50.964Z</time></trkpt><trkpt lat="40.2409183" lon="14.959855"><ele>14.000000000000002</ele><time>2026-04-25T12:26:51.956Z</time></trkpt><trkpt lat="40.2408533" lon="14.9599217"><ele>14.0</ele><time>2026-04-25T12:26:52.955Z</time></trkpt><trkpt lat="40.2408217" lon="14.9600233"><ele>14.0</ele><time>2026-04-25T12:26:54.961Z</time></trkpt><trkpt lat="40.24085" lon="14.9601333"><ele>14.0</ele><time>2026-04-25T12:26:56.951Z</time></trkpt><trkpt lat="40.2408933" lon="14.9601983"><ele>14.000000000000002</ele><time>2026-04-25T12:26:57.958Z</time></trkpt><trkpt lat="40.2409867" lon="14.9602767"><ele>14.0</ele><time>2026-04-25T12:26:58.951Z</time></trkpt><trkpt lat="40.241085" lon="14.96037"><ele>12.666666666666668</ele><time>2026-04-25T12:26:59.958Z</time></trkpt><trkpt lat="40.2411983" lon="14.9604883"><ele>11.333333333333334</ele><time>2026-04-25T12:27:00.955Z</time></trkpt><trkpt lat="40.241325" lon="14.9606217"><ele>10.0</ele><time>2026-04-25T12:27:02.01Z</time></trkpt><trkpt lat="40.2414517" lon="14.9607433"><ele>10.5</ele><time>2026-04-25T12:27:02.95Z</time></trkpt><trkpt lat="40.241575" lon="14.960845"><ele>11.0</ele><time>2026-04-25T12:27:03.954Z</time></trkpt><trkpt lat="40.2416967" lon="14.9609217"><ele>11.5</ele><time>2026-04-25T12:27:04.955Z</time></trkpt><trkpt lat="40.241845" lon="14.960945"><ele>12.0</ele><time>2026-04-25T12:27:05.958Z</time></trkpt><trkpt lat="40.2420133" lon="14.9609467"><ele>12.0</ele><time>2026-04-25T12:27:06.961Z</time></trkpt><trkpt lat="40.2421933" lon="14.9609433"><ele>12.0</ele><time>2026-04-25T12:27:07.992Z</time></trkpt><trkpt lat="40.2423767" lon="14.96094"><ele>12.0</ele><time>2026-04-25T12:27:08.956Z</time></trkpt><trkpt lat="40.2425533" lon="14.960935"><ele>12.399999999999999</ele><time>2026-04-25T12:27:09.951Z</time></trkpt><trkpt lat="40.2427067" lon="14.9609383"><ele>12.799999999999999</ele><time>2026-04-25T12:27:10.96Z</time></trkpt><trkpt lat="40.24282" lon="14.9609567"><ele>13.2</ele><time>2026-04-25T12:27:11.958Z</time></trkpt><trkpt lat="40.2429183" lon="14.9609833"><ele>13.6</ele><time>2026-04-25T12:27:12.954Z</time></trkpt><trkpt lat="40.2429783" lon="14.961055"><ele>14.0</ele><time>2026-04-25T12:27:13.989Z</time></trkpt><trkpt lat="40.2430267" lon="14.961145"><ele>14.0</ele><time>2026-04-25T12:27:14.95Z</time></trkpt><trkpt lat="40.243055" lon="14.961235"><ele>13.999999999999998</ele><time>2026-04-25T12:27:15.959Z</time></trkpt><trkpt lat="40.2430167" lon="14.9613617"><ele>13.999999999999998</ele><time>2026-04-25T12:27:17.957Z</time></trkpt><trkpt lat="40.242945" lon="14.9614383"><ele>14.0</ele><time>2026-04-25T12:27:18.96Z</time></trkpt><trkpt lat="40.2428617" lon="14.9615333"><ele>14.0</ele><time>2026-04-25T12:27:19.99Z</time></trkpt><trkpt lat="40.2427667" lon="14.96164"><ele>13.0</ele><time>2026-04-25T12:27:20.955Z</time></trkpt><trkpt lat="40.2426517" lon="14.9617583"><ele>12.0</ele><time>2026-04-25T12:27:21.958Z</time></trkpt><trkpt lat="40.2425283" lon="14.9618917"><ele>11.0</ele><time>2026-04-25T12:27:22.959Z</time></trkpt><trkpt lat="40.24239" lon="14.9620367"><ele>11.0</ele><time>2026-04-25T12:27:23.951Z</time></trkpt><trkpt lat="40.2422417" lon="14.9621967"><ele>11.0</ele><time>2026-04-25T12:27:24.954Z</time></trkpt><trkpt lat="40.242085" lon="14.9623633"><ele>11.0</ele><time>2026-04-25T12:27:26.015Z</time></trkpt><trkpt lat="40.2419233" lon="14.9625367"><ele>11.0</ele><time>2026-04-25T12:27:26.955Z</time></trkpt><trkpt lat="40.241755" lon="14.9627167"><ele>11.0</ele><time>2026-04-25T12:27:27.958Z</time></trkpt><trkpt lat="40.24159" lon="14.9628983"><ele>11.0</ele><time>2026-04-25T12:27:28.958Z</time></trkpt><trkpt lat="40.24144" lon="14.9630733"><ele>11.0</ele><time>2026-04-25T12:27:29.954Z</time></trkpt><trkpt lat="40.2412967" lon="14.9632433"><ele>11.0</ele><time>2026-04-25T12:27:30.951Z</time></trkpt><trkpt lat="40.241155" lon="14.96341"><ele>11.0</ele><time>2026-04-25T12:27:32.011Z</time></trkpt><trkpt lat="40.24101" lon="14.9635733"><ele>11.666666666666666</ele><time>2026-04-25T12:27:32.95Z</time></trkpt><trkpt lat="40.2408667" lon="14.963735"><ele>12.333333333333332</ele><time>2026-04-25T12:27:33.949Z</time></trkpt><trkpt lat="40.2407233" lon="14.9638983"><ele>13.0</ele><time>2026-04-25T12:27:34.947Z</time></trkpt><trkpt lat="40.24058" lon="14.9640567"><ele>17.333333333333332</ele><time>2026-04-25T12:27:35.952Z</time></trkpt><trkpt lat="40.2404467" lon="14.9642083"><ele>21.666666666666664</ele><time>2026-04-25T12:27:36.963Z</time></trkpt><trkpt lat="40.24032" lon="14.964345"><ele>26.0</ele><time>2026-04-25T12:27:37.986Z</time></trkpt><trkpt lat="40.2402033" lon="14.96446"><ele>26.0</ele><time>2026-04-25T12:27:38.956Z</time></trkpt><trkpt lat="40.2400967" lon="14.964565"><ele>26.0</ele><time>2026-04-25T12:27:39.96Z</time></trkpt><trkpt lat="40.2400033" lon="14.9646317"><ele>26.0</ele><time>2026-04-25T12:27:40.965Z</time></trkpt><trkpt lat="40.23991" lon="14.96468"><ele>26.0</ele><time>2026-04-25T12:27:41.962Z</time></trkpt><trkpt lat="40.239815" lon="14.9647067"><ele>26.0</ele><time>2026-04-25T12:27:42.96Z</time></trkpt><trkpt lat="40.239725" lon="14.9646983"><ele>30.0</ele><time>2026-04-25T12:27:43.992Z</time></trkpt><trkpt lat="40.23964" lon="14.9646517"><ele>34.0</ele><time>2026-04-25T12:27:44.947Z</time></trkpt><trkpt lat="40.2395433" lon="14.9645717"><ele>38.0</ele><time>2026-04-25T12:27:45.952Z</time></trkpt><trkpt lat="40.2394283" lon="14.964465"><ele>42.0</ele><time>2026-04-25T12:27:46.954Z</time></trkpt><trkpt lat="40.2392967" lon="14.96436"><ele>42.0</ele><time>2026-04-25T12:27:47.958Z</time></trkpt><trkpt lat="40.2391633" lon="14.9642567"><ele>42.0</ele><time>2026-04-25T12:27:48.956Z</time></trkpt><trkpt lat="40.2390317" lon="14.9641617"><ele>42.0</ele><time>2026-04-25T12:27:49.988Z</time></trkpt><trkpt lat="40.2388967" lon="14.9640933"><ele>41.0</ele><time>2026-04-25T12:27:50.957Z</time></trkpt><trkpt lat="40.23876" lon="14.9640483"><ele>40.0</ele><time>2026-04-25T12:27:51.958Z</time></trkpt><trkpt lat="40.2386317" lon="14.9640667"><ele>39.0</ele><time>2026-04-25T12:27:52.955Z</time></trkpt><trkpt lat="40.2385" lon="14.9641183"><ele>38.0</ele><time>2026-04-25T12:27:53.957Z</time></trkpt><trkpt lat="40.2383667" lon="14.9642"><ele>38.0</ele><time>2026-04-25T12:27:54.963Z</time></trkpt><trkpt lat="40.2382567" lon="14.9643633"><ele>38.0</ele><time>2026-04-25T12:27:56.009Z</time></trkpt><trkpt lat="40.23814" lon="14.96453"><ele>38.0</ele><time>2026-04-25T12:27:56.956Z</time></trkpt><trkpt lat="40.2380133" lon="14.9646833"><ele>38.666666666666664</ele><time>2026-04-25T12:27:57.961Z</time></trkpt><trkpt lat="40.2378767" lon="14.9648267"><ele>39.333333333333336</ele><time>2026-04-25T12:27:58.959Z</time></trkpt><trkpt lat="40.23774" lon="14.96495"><ele>40.0</ele><time>2026-04-25T12:27:59.949Z</time></trkpt><trkpt lat="40.23761" lon="14.9650567"><ele>40.0</ele><time>2026-04-25T12:28:00.959Z</time></trkpt><trkpt lat="40.2374983" lon="14.9651467"><ele>40.0</ele><time>2026-04-25T12:28:02.01Z</time></trkpt><trkpt lat="40.2373917" lon="14.9652033"><ele>40.0</ele><time>2026-04-25T12:28:02.957Z</time></trkpt><trkpt lat="40.2372883" lon="14.9652383"><ele>40.0</ele><time>2026-04-25T12:28:03.957Z</time></trkpt><trkpt lat="40.237205" lon="14.9652183"><ele>40.0</ele><time>2026-04-25T12:28:04.96Z</time></trkpt><trkpt lat="40.2371617" lon="14.9650983"><ele>38.75</ele><time>2026-04-25T12:28:05.953Z</time></trkpt><trkpt lat="40.23711" lon="14.9649833"><ele>37.5</ele><time>2026-04-25T12:28:06.961Z</time></trkpt><trkpt lat="40.2370517" lon="14.9648483"><ele>36.25</ele><time>2026-04-25T12:28:07.998Z</time></trkpt><trkpt lat="40.2369933" lon="14.9646933"><ele>35.0</ele><time>2026-04-25T12:28:08.959Z</time></trkpt><trkpt lat="40.2369333" lon="14.9645117"><ele>35.0</ele><time>2026-04-25T12:28:09.949Z</time></trkpt><trkpt lat="40.2368617" lon="14.96432"><ele>35.0</ele><time>2026-04-25T12:28:10.97Z</time></trkpt><trkpt lat="40.2367867" lon="14.9641333"><ele>35.0</ele><time>2026-04-25T12:28:11.96Z</time></trkpt><trkpt lat="40.2367083" lon="14.9639417"><ele>35.0</ele><time>2026-04-25T12:28:12.954Z</time></trkpt><trkpt lat="40.23664" lon="14.96376"><ele>35.0</ele><time>2026-04-25T12:28:14.001Z</time></trkpt><trkpt lat="40.2365783" lon="14.9635917"><ele>35.0</ele><time>2026-04-25T12:28:14.954Z</time></trkpt><trkpt lat="40.23653" lon="14.9634233"><ele>35.0</ele><time>2026-04-25T12:28:15.949Z</time></trkpt><trkpt lat="40.2364867" lon="14.9632817"><ele>33.0</ele><time>2026-04-25T12:28:16.948Z</time></trkpt><trkpt lat="40.23643" lon="14.96319"><ele>31.0</ele><time>2026-04-25T12:28:17.949Z</time></trkpt><trkpt lat="40.2363517" lon="14.9631483"><ele>29.0</ele><time>2026-04-25T12:28:18.949Z</time></trkpt><trkpt lat="40.2362883" lon="14.9630917"><ele>27.0</ele><time>2026-04-25T12:28:19.991Z</time></trkpt><trkpt lat="40.23621" lon="14.9630833"><ele>25.0</ele><time>2026-04-25T12:28:20.956Z</time></trkpt><trkpt lat="40.2361433" lon="14.9630783"><ele>23.0</ele><time>2026-04-25T12:28:21.955Z</time></trkpt><trkpt lat="40.236075" lon="14.96311"><ele>23.0</ele><time>2026-04-25T12:28:22.965Z</time></trkpt><trkpt lat="40.23601" lon="14.963165"><ele>23.0</ele><time>2026-04-25T12:28:23.96Z</time></trkpt><trkpt lat="40.2359817" lon="14.9633083"><ele>23.0</ele><time>2026-04-25T12:28:24.951Z</time></trkpt><trkpt lat="40.2359683" lon="14.9634217"><ele>23.0</ele><time>2026-04-25T12:28:26.009Z</time></trkpt><trkpt lat="40.2359867" lon="14.9635333"><ele>23.0</ele><time>2026-04-25T12:28:26.953Z</time></trkpt><trkpt lat="40.236" lon="14.9636183"><ele>23.0</ele><time>2026-04-25T12:28:27.959Z</time></trkpt><trkpt lat="40.2360783" lon="14.9636233"><ele>25.0</ele><time>2026-04-25T12:28:32.004Z</time></trkpt><trkpt lat="40.2361467" lon="14.9635433"><ele>27.0</ele><time>2026-04-25T12:28:32.952Z</time></trkpt><trkpt lat="40.236235" lon="14.963475"><ele>29.0</ele><time>2026-04-25T12:28:33.958Z</time></trkpt><trkpt lat="40.2363067" lon="14.963425"><ele>31.0</ele><time>2026-04-25T12:28:34.958Z</time></trkpt><trkpt lat="40.2363667" lon="14.96339"><ele>33.0</ele><time>2026-04-25T12:28:35.965Z</time></trkpt><trkpt lat="40.236465" lon="14.9634167"><ele>35.0</ele><time>2026-04-25T12:28:36.961Z</time></trkpt><trkpt lat="40.23656" lon="14.963535"><ele>35.0</ele><time>2026-04-25T12:28:38.962Z</time></trkpt><trkpt lat="40.2365917" lon="14.9636117"><ele>35.0</ele><time>2026-04-25T12:28:39.95Z</time></trkpt><trkpt lat="40.2366883" lon="14.9637583"><ele>35.0</ele><time>2026-04-25T12:28:42.951Z</time></trkpt><trkpt lat="40.2367283" lon="14.9638467"><ele>35.0</ele><time>2026-04-25T12:28:49.992Z</time></trkpt><trkpt lat="40.236755" lon="14.96394"><ele>35.0</ele><time>2026-04-25T12:28:50.957Z</time></trkpt><trkpt lat="40.2367867" lon="14.9640383"><ele>35.0</ele><time>2026-04-25T12:28:51.954Z</time></trkpt><trkpt lat="40.23682" lon="14.9641767"><ele>35.0</ele><time>2026-04-25T12:28:53.959Z</time></trkpt><trkpt lat="40.2367783" lon="14.9642683"><ele>35.0</ele><time>2026-04-25T12:28:57.957Z</time></trkpt><trkpt lat="40.2368017" lon="14.9641667"><ele>35.0</ele><time>2026-04-25T12:29:09.95Z</time></trkpt><trkpt lat="40.2367817" lon="14.9640867"><ele>35.0</ele><time>2026-04-25T12:29:11.953Z</time></trkpt><trkpt lat="40.23675" lon="14.9639933"><ele>35.0</ele><time>2026-04-25T12:29:13.997Z</time></trkpt><trkpt lat="40.23672" lon="14.9638833"><ele>35.0</ele><time>2026-04-25T12:29:15.96Z</time></trkpt><trkpt lat="40.236695" lon="14.9637617"><ele>35.0</ele><time>2026-04-25T12:29:23.96Z</time></trkpt><trkpt lat="40.2366517" lon="14.9636467"><ele>35.0</ele><time>2026-04-25T12:29:26.003Z</time></trkpt><trkpt lat="40.2366167" lon="14.9635467"><ele>35.0</ele><time>2026-04-25T12:29:27.954Z</time></trkpt><trkpt lat="40.2365783" lon="14.9634783"><ele>35.0</ele><time>2026-04-25T12:29:29.949Z</time></trkpt><trkpt lat="40.23651" lon="14.96344"><ele>35.0</ele><time>2026-04-25T12:29:32.012Z</time></trkpt><trkpt lat="40.2364267" lon="14.9634533"><ele>35.33333333333333</ele><time>2026-04-25T12:29:33.956Z</time></trkpt><trkpt lat="40.2363317" lon="14.9634833"><ele>35.666666666666664</ele><time>2026-04-25T12:29:35.958Z</time></trkpt><trkpt lat="40.2362733" lon="14.9635183"><ele>36.0</ele><time>2026-04-25T12:29:36.959Z</time></trkpt><trkpt lat="40.2362067" lon="14.9635717"><ele>36.333333333333336</ele><time>2026-04-25T12:29:37.992Z</time></trkpt><trkpt lat="40.2361383" lon="14.9636533"><ele>36.66666666666667</ele><time>2026-04-25T12:29:38.949Z</time></trkpt><trkpt lat="40.236055" lon="14.9637467"><ele>37.0</ele><time>2026-04-25T12:29:39.954Z</time></trkpt><trkpt lat="40.2359633" lon="14.9638533"><ele>37.0</ele><time>2026-04-25T12:29:40.956Z</time></trkpt><trkpt lat="40.235855" lon="14.96396"><ele>37.0</ele><time>2026-04-25T12:29:41.96Z</time></trkpt><trkpt lat="40.235745" lon="14.9640767"><ele>37.0</ele><time>2026-04-25T12:29:42.961Z</time></trkpt><trkpt lat="40.23563" lon="14.9642017"><ele>37.0</ele><time>2026-04-25T12:29:43.989Z</time></trkpt><trkpt lat="40.2355033" lon="14.9643333"><ele>39.0</ele><time>2026-04-25T12:29:44.952Z</time></trkpt><trkpt lat="40.2353683" lon="14.96447"><ele>41.0</ele><time>2026-04-25T12:29:45.953Z</time></trkpt><trkpt lat="40.2352283" lon="14.9646067"><ele>43.0</ele><time>2026-04-25T12:29:46.96Z</time></trkpt><trkpt lat="40.23508" lon="14.96473"><ele>43.0</ele><time>2026-04-25T12:29:47.951Z</time></trkpt><trkpt lat="40.2349317" lon="14.9648383"><ele>43.0</ele><time>2026-04-25T12:29:48.963Z</time></trkpt><trkpt lat="40.2347933" lon="14.9649367"><ele>43.0</ele><time>2026-04-25T12:29:49.987Z</time></trkpt><trkpt lat="40.2346617" lon="14.9650233"><ele>49.25</ele><time>2026-04-25T12:29:50.951Z</time></trkpt><trkpt lat="40.2345317" lon="14.9650917"><ele>55.5</ele><time>2026-04-25T12:29:51.952Z</time></trkpt><trkpt lat="40.2344" lon="14.965135"><ele>61.75</ele><time>2026-04-25T12:29:52.96Z</time></trkpt><trkpt lat="40.2342717" lon="14.9651517"><ele>68.0</ele><time>2026-04-25T12:29:53.955Z</time></trkpt><trkpt lat="40.2341517" lon="14.9651417"><ele>68.0</ele><time>2026-04-25T12:29:54.961Z</time></trkpt><trkpt lat="40.2340483" lon="14.9651083"><ele>68.0</ele><time>2026-04-25T12:29:56.012Z</time></trkpt><trkpt lat="40.233975" lon="14.965035"><ele>68.0</ele><time>2026-04-25T12:29:56.956Z</time></trkpt><trkpt lat="40.2339317" lon="14.96495"><ele>68.0</ele><time>2026-04-25T12:29:57.952Z</time></trkpt><trkpt lat="40.2339017" lon="14.9648383"><ele>68.0</ele><time>2026-04-25T12:29:58.957Z</time></trkpt><trkpt lat="40.23389" lon="14.9647133"><ele>64.0</ele><time>2026-04-25T12:29:59.955Z</time></trkpt><trkpt lat="40.2339233" lon="14.9645783"><ele>60.0</ele><time>2026-04-25T12:30:00.959Z</time></trkpt><trkpt lat="40.233965" lon="14.9644817"><ele>56.0</ele><time>2026-04-25T12:30:02.006Z</time></trkpt><trkpt lat="40.23402" lon="14.9644"><ele>52.0</ele><time>2026-04-25T12:30:02.957Z</time></trkpt><trkpt lat="40.234105" lon="14.96434"><ele>48.0</ele><time>2026-04-25T12:30:03.953Z</time></trkpt><trkpt lat="40.2341983" lon="14.9642883"><ele>47.5</ele><time>2026-04-25T12:30:04.955Z</time></trkpt><trkpt lat="40.2343033" lon="14.9642317"><ele>47.0</ele><time>2026-04-25T12:30:05.957Z</time></trkpt><trkpt lat="40.2344" lon="14.9641533"><ele>46.5</ele><time>2026-04-25T12:30:06.953Z</time></trkpt><trkpt lat="40.234485" lon="14.9640533"><ele>46.0</ele><time>2026-04-25T12:30:07.99Z</time></trkpt><trkpt lat="40.2345533" lon="14.96393"><ele>46.0</ele><time>2026-04-25T12:30:08.954Z</time></trkpt><trkpt lat="40.2346067" lon="14.9637867"><ele>46.0</ele><time>2026-04-25T12:30:09.951Z</time></trkpt><trkpt lat="40.23465" lon="14.96364"><ele>46.0</ele><time>2026-04-25T12:30:10.959Z</time></trkpt><trkpt lat="40.23469" lon="14.9634967"><ele>46.0</ele><time>2026-04-25T12:30:11.959Z</time></trkpt><trkpt lat="40.2347233" lon="14.9633517"><ele>50.5</ele><time>2026-04-25T12:30:12.961Z</time></trkpt><trkpt lat="40.2347517" lon="14.9632017"><ele>55.0</ele><time>2026-04-25T12:30:13.989Z</time></trkpt><trkpt lat="40.2347767" lon="14.9630517"><ele>59.5</ele><time>2026-04-25T12:30:14.959Z</time></trkpt><trkpt lat="40.2347983" lon="14.962895"><ele>64.0</ele><time>2026-04-25T12:30:15.962Z</time></trkpt><trkpt lat="40.234795" lon="14.9627167"><ele>64.0</ele><time>2026-04-25T12:30:16.957Z</time></trkpt><trkpt lat="40.2347733" lon="14.9625317"><ele>64.0</ele><time>2026-04-25T12:30:17.956Z</time></trkpt><trkpt lat="40.2347367" lon="14.9623383"><ele>64.0</ele><time>2026-04-25T12:30:18.947Z</time></trkpt><trkpt lat="40.234675" lon="14.9621317"><ele>63.33333333333333</ele><time>2026-04-25T12:30:19.99Z</time></trkpt><trkpt lat="40.2346017" lon="14.961915"><ele>62.66666666666667</ele><time>2026-04-25T12:30:20.951Z</time></trkpt><trkpt lat="40.23452" lon="14.961695"><ele>62.0</ele><time>2026-04-25T12:30:21.953Z</time></trkpt><trkpt lat="40.234435" lon="14.9614917"><ele>62.0</ele><time>2026-04-25T12:30:22.959Z</time></trkpt><trkpt lat="40.2343233" lon="14.961325"><ele>62.0</ele><time>2026-04-25T12:30:23.956Z</time></trkpt><trkpt lat="40.234195" lon="14.9611983"><ele>62.0</ele><time>2026-04-25T12:30:24.958Z</time></trkpt><trkpt lat="40.2340233" lon="14.9611633"><ele>66.0</ele><time>2026-04-25T12:30:26.007Z</time></trkpt><trkpt lat="40.2338717" lon="14.9611383"><ele>70.0</ele><time>2026-04-25T12:30:26.951Z</time></trkpt><trkpt lat="40.2337183" lon="14.961125"><ele>74.0</ele><time>2026-04-25T12:30:27.955Z</time></trkpt><trkpt lat="40.2335733" lon="14.9611367"><ele>74.0</ele><time>2026-04-25T12:30:28.957Z</time></trkpt><trkpt lat="40.233415" lon="14.961165"><ele>74.0</ele><time>2026-04-25T12:30:29.954Z</time></trkpt><trkpt lat="40.2332617" lon="14.96118"><ele>74.0</ele><time>2026-04-25T12:30:30.963Z</time></trkpt><trkpt lat="40.2331033" lon="14.96118"><ele>77.0</ele><time>2026-04-25T12:30:32.005Z</time></trkpt><trkpt lat="40.23294" lon="14.961165"><ele>80.0</ele><time>2026-04-25T12:30:32.948Z</time></trkpt><trkpt lat="40.2327717" lon="14.9611517"><ele>83.0</ele><time>2026-04-25T12:30:33.954Z</time></trkpt><trkpt lat="40.2326033" lon="14.9611517"><ele>83.0</ele><time>2026-04-25T12:30:34.956Z</time></trkpt><trkpt lat="40.2324383" lon="14.9611783"><ele>83.0</ele><time>2026-04-25T12:30:35.955Z</time></trkpt><trkpt lat="40.232275" lon="14.9612233"><ele>83.0</ele><time>2026-04-25T12:30:36.961Z</time></trkpt><trkpt lat="40.23212" lon="14.9612683"><ele>77.66666666666667</ele><time>2026-04-25T12:30:37.997Z</time></trkpt><trkpt lat="40.23196" lon="14.96133"><ele>72.33333333333333</ele><time>2026-04-25T12:30:38.957Z</time></trkpt><trkpt lat="40.2318067" lon="14.96142"><ele>67.0</ele><time>2026-04-25T12:30:39.956Z</time></trkpt><trkpt lat="40.2316583" lon="14.9615333"><ele>67.0</ele><time>2026-04-25T12:30:40.964Z</time></trkpt><trkpt lat="40.2315183" lon="14.9616667"><ele>67.0</ele><time>2026-04-25T12:30:41.954Z</time></trkpt><trkpt lat="40.231385" lon="14.9618267"><ele>67.0</ele><time>2026-04-25T12:30:42.958Z</time></trkpt><trkpt lat="40.2312617" lon="14.962005"><ele>70.66666666666666</ele><time>2026-04-25T12:30:43.989Z</time></trkpt><trkpt lat="40.23115" lon="14.9621767"><ele>74.33333333333333</ele><time>2026-04-25T12:30:44.957Z</time></trkpt><trkpt lat="40.2310383" lon="14.9623267"><ele>78.0</ele><time>2026-04-25T12:30:45.954Z</time></trkpt><trkpt lat="40.230925" lon="14.9624383"><ele>88.66666666666666</ele><time>2026-04-25T12:30:46.958Z</time></trkpt><trkpt lat="40.2308083" lon="14.9625333"><ele>99.33333333333333</ele><time>2026-04-25T12:30:47.953Z</time></trkpt><trkpt lat="40.2306733" lon="14.9626183"><ele>110.0</ele><time>2026-04-25T12:30:48.96Z</time></trkpt><trkpt lat="40.2305167" lon="14.96268"><ele>110.0</ele><time>2026-04-25T12:30:49.994Z</time></trkpt><trkpt lat="40.2303467" lon="14.9627367"><ele>110.0</ele><time>2026-04-25T12:30:50.956Z</time></trkpt><trkpt lat="40.230165" lon="14.9627917"><ele>110.0</ele><time>2026-04-25T12:30:51.957Z</time></trkpt><trkpt lat="40.2299883" lon="14.96287"><ele>110.0</ele><time>2026-04-25T12:30:52.967Z</time></trkpt><trkpt lat="40.2298133" lon="14.962965"><ele>110.0</ele><time>2026-04-25T12:30:53.955Z</time></trkpt><trkpt lat="40.22964" lon="14.963085"><ele>110.0</ele><time>2026-04-25T12:30:54.96Z</time></trkpt><trkpt lat="40.2294633" lon="14.9632167"><ele>111.0</ele><time>2026-04-25T12:30:56.027Z</time></trkpt><trkpt lat="40.2292833" lon="14.96335"><ele>112.0</ele><time>2026-04-25T12:30:56.952Z</time></trkpt><trkpt lat="40.229095" lon="14.963465"><ele>113.0</ele><time>2026-04-25T12:30:57.951Z</time></trkpt><trkpt lat="40.2289117" lon="14.9635783"><ele>102.66666666666666</ele><time>2026-04-25T12:30:58.959Z</time></trkpt><trkpt lat="40.2287333" lon="14.963695"><ele>92.33333333333333</ele><time>2026-04-25T12:30:59.952Z</time></trkpt><trkpt lat="40.2285717" lon="14.9638167"><ele>82.0</ele><time>2026-04-25T12:31:00.955Z</time></trkpt><trkpt lat="40.2284317" lon="14.9639367"><ele>82.0</ele><time>2026-04-25T12:31:02.007Z</time></trkpt><trkpt lat="40.228305" lon="14.9640583"><ele>82.0</ele><time>2026-04-25T12:31:02.957Z</time></trkpt><trkpt lat="40.228205" lon="14.9642083"><ele>82.0</ele><time>2026-04-25T12:31:03.952Z</time></trkpt><trkpt lat="40.2281133" lon="14.9643733"><ele>88.33333333333333</ele><time>2026-04-25T12:31:04.955Z</time></trkpt><trkpt lat="40.22802" lon="14.9645383"><ele>94.66666666666666</ele><time>2026-04-25T12:31:05.953Z</time></trkpt><trkpt lat="40.2278983" lon="14.9646783"><ele>101.0</ele><time>2026-04-25T12:31:06.959Z</time></trkpt><trkpt lat="40.2277667" lon="14.9648233"><ele>101.0</ele><time>2026-04-25T12:31:07.989Z</time></trkpt><trkpt lat="40.2276167" lon="14.9649517"><ele>101.0</ele><time>2026-04-25T12:31:08.958Z</time></trkpt><trkpt lat="40.227455" lon="14.965075"><ele>101.0</ele><time>2026-04-25T12:31:09.954Z</time></trkpt><trkpt lat="40.227295" lon="14.9651967"><ele>99.33333333333333</ele><time>2026-04-25T12:31:10.959Z</time></trkpt><trkpt lat="40.227145" lon="14.9653317"><ele>97.66666666666666</ele><time>2026-04-25T12:31:11.962Z</time></trkpt><trkpt lat="40.2270067" lon="14.965485"><ele>96.0</ele><time>2026-04-25T12:31:12.956Z</time></trkpt><trkpt lat="40.2268883" lon="14.9656583"><ele>96.0</ele><time>2026-04-25T12:31:13.99Z</time></trkpt><trkpt lat="40.226775" lon="14.965845"><ele>96.0</ele><time>2026-04-25T12:31:14.955Z</time></trkpt><trkpt lat="40.2266683" lon="14.96604"><ele>96.0</ele><time>2026-04-25T12:31:15.958Z</time></trkpt><trkpt lat="40.2265583" lon="14.966235"><ele>93.66666666666667</ele><time>2026-04-25T12:31:16.964Z</time></trkpt><trkpt lat="40.2264417" lon="14.966415"><ele>91.33333333333334</ele><time>2026-04-25T12:31:17.958Z</time></trkpt><trkpt lat="40.2263133" lon="14.9665767"><ele>89.0</ele><time>2026-04-25T12:31:18.961Z</time></trkpt><trkpt lat="40.2261683" lon="14.96673"><ele>104.33333333333334</ele><time>2026-04-25T12:31:19.99Z</time></trkpt><trkpt lat="40.2260267" lon="14.9668883"><ele>119.66666666666667</ele><time>2026-04-25T12:31:20.959Z</time></trkpt><trkpt lat="40.225895" lon="14.9670567"><ele>135.0</ele><time>2026-04-25T12:31:21.951Z</time></trkpt><trkpt lat="40.2257683" lon="14.96724"><ele>130.33333333333334</ele><time>2026-04-25T12:31:22.963Z</time></trkpt><trkpt lat="40.22563" lon="14.9674167"><ele>125.66666666666667</ele><time>2026-04-25T12:31:23.958Z</time></trkpt><trkpt lat="40.225495" lon="14.96758"><ele>121.0</ele><time>2026-04-25T12:31:24.959Z</time></trkpt><trkpt lat="40.2253633" lon="14.9677267"><ele>121.0</ele><time>2026-04-25T12:31:26.006Z</time></trkpt><trkpt lat="40.2252483" lon="14.9678733"><ele>121.0</ele><time>2026-04-25T12:31:26.951Z</time></trkpt><trkpt lat="40.225155" lon="14.968035"><ele>121.0</ele><time>2026-04-25T12:31:27.961Z</time></trkpt><trkpt lat="40.2250783" lon="14.9682017"><ele>121.0</ele><time>2026-04-25T12:31:28.958Z</time></trkpt><trkpt lat="40.224985" lon="14.9683483"><ele>121.0</ele><time>2026-04-25T12:31:29.957Z</time></trkpt><trkpt lat="40.2248933" lon="14.968485"><ele>121.0</ele><time>2026-04-25T12:31:30.959Z</time></trkpt><trkpt lat="40.2247767" lon="14.9686017"><ele>121.0</ele><time>2026-04-25T12:31:32.009Z</time></trkpt><trkpt lat="40.2246767" lon="14.9687117"><ele>129.25</ele><time>2026-04-25T12:31:32.949Z</time></trkpt><trkpt lat="40.22457" lon="14.9687933"><ele>137.5</ele><time>2026-04-25T12:31:33.954Z</time></trkpt><trkpt lat="40.2244533" lon="14.968855"><ele>145.75</ele><time>2026-04-25T12:31:34.953Z</time></trkpt><trkpt lat="40.224315" lon="14.9688767"><ele>154.0</ele><time>2026-04-25T12:31:35.955Z</time></trkpt><trkpt lat="40.22417" lon="14.9689"><ele>154.0</ele><time>2026-04-25T12:31:36.96Z</time></trkpt><trkpt lat="40.2240167" lon="14.9689533"><ele>154.0</ele><time>2026-04-25T12:31:37.988Z</time></trkpt><trkpt lat="40.223845" lon="14.969"><ele>154.0</ele><time>2026-04-25T12:31:38.953Z</time></trkpt><trkpt lat="40.223675" lon="14.9690717"><ele>152.66666666666669</ele><time>2026-04-25T12:31:39.955Z</time></trkpt><trkpt lat="40.2235083" lon="14.9691717"><ele>151.33333333333334</ele><time>2026-04-25T12:31:40.961Z</time></trkpt><trkpt lat="40.2233467" lon="14.969285"><ele>150.0</ele><time>2026-04-25T12:31:41.956Z</time></trkpt><trkpt lat="40.2231967" lon="14.96942"><ele>127.66666666666667</ele><time>2026-04-25T12:31:42.96Z</time></trkpt><trkpt lat="40.2230517" lon="14.9695783"><ele>105.33333333333334</ele><time>2026-04-25T12:31:43.992Z</time></trkpt><trkpt lat="40.2229183" lon="14.9697583"><ele>83.0</ele><time>2026-04-25T12:31:44.953Z</time></trkpt><trkpt lat="40.2227917" lon="14.9699517"><ele>93.33333333333334</ele><time>2026-04-25T12:31:45.955Z</time></trkpt><trkpt lat="40.2226767" lon="14.9701617"><ele>103.66666666666667</ele><time>2026-04-25T12:31:46.96Z</time></trkpt><trkpt lat="40.22257" lon="14.970385"><ele>114.0</ele><time>2026-04-25T12:31:47.956Z</time></trkpt><trkpt lat="40.2224667" lon="14.9706183"><ele>124.33333333333334</ele><time>2026-04-25T12:31:48.963Z</time></trkpt><trkpt lat="40.2223733" lon="14.970865"><ele>134.66666666666669</ele><time>2026-04-25T12:31:49.989Z</time></trkpt><trkpt lat="40.2222917" lon="14.9711383"><ele>145.0</ele><time>2026-04-25T12:31:50.956Z</time></trkpt><trkpt lat="40.2222017" lon="14.9714283"><ele>116.0</ele><time>2026-04-25T12:31:51.955Z</time></trkpt><trkpt lat="40.22209" lon="14.9717283"><ele>87.0</ele><time>2026-04-25T12:31:52.963Z</time></trkpt><trkpt lat="40.2219667" lon="14.9720367"><ele>87.0</ele><time>2026-04-25T12:31:53.954Z</time></trkpt><trkpt lat="40.2218383" lon="14.9723383"><ele>87.0</ele><time>2026-04-25T12:31:54.958Z</time></trkpt><trkpt lat="40.221715" lon="14.972625"><ele>105.0</ele><time>2026-04-25T12:31:56.004Z</time></trkpt><trkpt lat="40.2216083" lon="14.972905"><ele>123.0</ele><time>2026-04-25T12:31:56.95Z</time></trkpt><trkpt lat="40.22152" lon="14.9731767"><ele>105.0</ele><time>2026-04-25T12:31:57.957Z</time></trkpt><trkpt lat="40.2214433" lon="14.973435"><ele>87.0</ele><time>2026-04-25T12:31:58.953Z</time></trkpt><trkpt lat="40.2213683" lon="14.973675"><ele>69.0</ele><time>2026-04-25T12:31:59.951Z</time></trkpt><trkpt lat="40.221315" lon="14.9738983"><ele>69.0</ele><time>2026-04-25T12:32:00.957Z</time></trkpt><trkpt lat="40.22128" lon="14.9740933"><ele>69.0</ele><time>2026-04-25T12:32:02.015Z</time></trkpt><trkpt lat="40.2212883" lon="14.9742917"><ele>69.0</ele><time>2026-04-25T12:32:02.949Z</time></trkpt><trkpt lat="40.22132" lon="14.9744983"><ele>73.25</ele><time>2026-04-25T12:32:03.949Z</time></trkpt><trkpt lat="40.2213617" lon="14.9747067"><ele>77.5</ele><time>2026-04-25T12:32:04.954Z</time></trkpt><trkpt lat="40.22139" lon="14.9749"><ele>81.75</ele><time>2026-04-25T12:32:05.958Z</time></trkpt><trkpt lat="40.2214133" lon="14.9750417"><ele>86.0</ele><time>2026-04-25T12:32:06.956Z</time></trkpt><trkpt lat="40.221405" lon="14.9751583"><ele>86.0</ele><time>2026-04-25T12:32:07.991Z</time></trkpt><trkpt lat="40.2213717" lon="14.9752567"><ele>86.0</ele><time>2026-04-25T12:32:08.95Z</time></trkpt><trkpt lat="40.2213267" lon="14.9753483"><ele>86.0</ele><time>2026-04-25T12:32:09.954Z</time></trkpt><trkpt lat="40.2212783" lon="14.97545"><ele>86.0</ele><time>2026-04-25T12:32:10.956Z</time></trkpt><trkpt lat="40.22124" lon="14.9755483"><ele>86.0</ele><time>2026-04-25T12:32:11.955Z</time></trkpt><trkpt lat="40.2212617" lon="14.97564"><ele>86.0</ele><time>2026-04-25T12:32:12.951Z</time></trkpt><trkpt lat="40.2213267" lon="14.975705"><ele>86.0</ele><time>2026-04-25T12:32:13.985Z</time></trkpt><trkpt lat="40.2214017" lon="14.97575"><ele>86.0</ele><time>2026-04-25T12:32:14.955Z</time></trkpt><trkpt lat="40.2215283" lon="14.9757333"><ele>86.0</ele><time>2026-04-25T12:32:15.951Z</time></trkpt><trkpt lat="40.2216533" lon="14.97571"><ele>86.0</ele><time>2026-04-25T12:32:16.958Z</time></trkpt><trkpt lat="40.2217783" lon="14.9756617"><ele>91.4</ele><time>2026-04-25T12:32:17.953Z</time></trkpt><trkpt lat="40.221885" lon="14.9755683"><ele>96.8</ele><time>2026-04-25T12:32:18.957Z</time></trkpt><trkpt lat="40.2219783" lon="14.9754817"><ele>102.20000000000002</ele><time>2026-04-25T12:32:19.984Z</time></trkpt><trkpt lat="40.222035" lon="14.975445"><ele>107.60000000000001</ele><time>2026-04-25T12:32:20.954Z</time></trkpt><trkpt lat="40.2221033" lon="14.9754883"><ele>113.0</ele><time>2026-04-25T12:32:22.957Z</time></trkpt><trkpt lat="40.2221267" lon="14.9755867"><ele>113.0</ele><time>2026-04-25T12:32:24.958Z</time></trkpt><trkpt lat="40.222045" lon="14.9756533"><ele>113.00000000000001</ele><time>2026-04-25T12:32:26.006Z</time></trkpt><trkpt lat="40.221965" lon="14.9757217"><ele>113.00000000000001</ele><time>2026-04-25T12:32:26.95Z</time></trkpt><trkpt lat="40.2218617" lon="14.9758117"><ele>113.0</ele><time>2026-04-25T12:32:27.951Z</time></trkpt><trkpt lat="40.2217483" lon="14.9758967"><ele>113.0</ele><time>2026-04-25T12:32:28.952Z</time></trkpt><trkpt lat="40.2216333" lon="14.9759733"><ele>107.75</ele><time>2026-04-25T12:32:29.952Z</time></trkpt><trkpt lat="40.2215133" lon="14.976035"><ele>102.5</ele><time>2026-04-25T12:32:30.957Z</time></trkpt><trkpt lat="40.221395" lon="14.9760983"><ele>97.25</ele><time>2026-04-25T12:32:32.007Z</time></trkpt><trkpt lat="40.22128" lon="14.9761667"><ele>92.0</ele><time>2026-04-25T12:32:32.946Z</time></trkpt><trkpt lat="40.2211783" lon="14.9762417"><ele>87.8</ele><time>2026-04-25T12:32:33.957Z</time></trkpt><trkpt lat="40.2210783" lon="14.9763117"><ele>83.6</ele><time>2026-04-25T12:32:34.961Z</time></trkpt><trkpt lat="40.2209783" lon="14.97635"><ele>79.39999999999999</ele><time>2026-04-25T12:32:35.953Z</time></trkpt><trkpt lat="40.220885" lon="14.9763533"><ele>75.19999999999999</ele><time>2026-04-25T12:32:36.956Z</time></trkpt><trkpt lat="40.22081" lon="14.97637"><ele>71.0</ele><time>2026-04-25T12:32:37.983Z</time></trkpt><trkpt lat="40.2207883" lon="14.976505"><ele>71.0</ele><time>2026-04-25T12:32:39.956Z</time></trkpt><trkpt lat="40.22086" lon="14.9766367"><ele>71.0</ele><time>2026-04-25T12:32:41.956Z</time></trkpt><trkpt lat="40.2209183" lon="14.9766717"><ele>71.0</ele><time>2026-04-25T12:32:42.959Z</time></trkpt><trkpt lat="40.2210417" lon="14.9765733"><ele>71.0</ele><time>2026-04-25T12:32:43.993Z</time></trkpt><trkpt lat="40.22115" lon="14.9764983"><ele>71.0</ele><time>2026-04-25T12:32:44.954Z</time></trkpt><trkpt lat="40.22126" lon="14.9764267"><ele>71.0</ele><time>2026-04-25T12:32:45.963Z</time></trkpt><trkpt lat="40.221365" lon="14.97637"><ele>71.0</ele><time>2026-04-25T12:32:46.952Z</time></trkpt><trkpt lat="40.2214733" lon="14.976335"><ele>71.0</ele><time>2026-04-25T12:32:47.957Z</time></trkpt><trkpt lat="40.22158" lon="14.976345"><ele>76.25</ele><time>2026-04-25T12:32:48.952Z</time></trkpt><trkpt lat="40.221705" lon="14.9764183"><ele>81.5</ele><time>2026-04-25T12:32:49.988Z</time></trkpt><trkpt lat="40.2218233" lon="14.9764533"><ele>86.75</ele><time>2026-04-25T12:32:50.957Z</time></trkpt><trkpt lat="40.221935" lon="14.976465"><ele>92.0</ele><time>2026-04-25T12:32:51.951Z</time></trkpt><trkpt lat="40.22202" lon="14.9763867"><ele>92.0</ele><time>2026-04-25T12:32:52.957Z</time></trkpt><trkpt lat="40.22211" lon="14.9762883"><ele>92.0</ele><time>2026-04-25T12:32:53.956Z</time></trkpt><trkpt lat="40.2221933" lon="14.97617"><ele>92.0</ele><time>2026-04-25T12:32:54.958Z</time></trkpt><trkpt lat="40.2222867" lon="14.9760417"><ele>92.0</ele><time>2026-04-25T12:32:56.009Z</time></trkpt><trkpt lat="40.22239" lon="14.9759167"><ele>92.66666666666667</ele><time>2026-04-25T12:32:56.95Z</time></trkpt><trkpt lat="40.2225167" lon="14.97581"><ele>93.33333333333333</ele><time>2026-04-25T12:32:57.951Z</time></trkpt><trkpt lat="40.2226617" lon="14.9757183"><ele>94.0</ele><time>2026-04-25T12:32:58.953Z</time></trkpt><trkpt lat="40.2228167" lon="14.9756217"><ele>94.0</ele><time>2026-04-25T12:32:59.949Z</time></trkpt><trkpt lat="40.2229633" lon="14.97552"><ele>94.0</ele><time>2026-04-25T12:33:00.949Z</time></trkpt><trkpt lat="40.2230983" lon="14.9754167"><ele>94.0</ele><time>2026-04-25T12:33:02.007Z</time></trkpt><trkpt lat="40.2232183" lon="14.9753183"><ele>93.4</ele><time>2026-04-25T12:33:02.953Z</time></trkpt><trkpt lat="40.2233217" lon="14.975225"><ele>92.80000000000001</ele><time>2026-04-25T12:33:03.952Z</time></trkpt><trkpt lat="40.2234133" lon="14.9751383"><ele>92.19999999999999</ele><time>2026-04-25T12:33:04.953Z</time></trkpt><trkpt lat="40.2234917" lon="14.9750583"><ele>91.6</ele><time>2026-04-25T12:33:05.962Z</time></trkpt><trkpt lat="40.2235583" lon="14.9749967"><ele>91.0</ele><time>2026-04-25T12:33:06.956Z</time></trkpt><trkpt lat="40.2236517" lon="14.9749367"><ele>91.0</ele><time>2026-04-25T12:33:08.956Z</time></trkpt><trkpt lat="40.2235833" lon="14.97493"><ele>91.0</ele><time>2026-04-25T12:33:13.987Z</time></trkpt><trkpt lat="40.2234833" lon="14.9750133"><ele>91.0</ele><time>2026-04-25T12:33:15.963Z</time></trkpt><trkpt lat="40.223425" lon="14.9750567"><ele>91.0</ele><time>2026-04-25T12:33:16.956Z</time></trkpt><trkpt lat="40.2233067" lon="14.9751483"><ele>91.0</ele><time>2026-04-25T12:33:18.958Z</time></trkpt><trkpt lat="40.223245" lon="14.9752117"><ele>91.5</ele><time>2026-04-25T12:33:19.995Z</time></trkpt><trkpt lat="40.223185" lon="14.9752733"><ele>92.0</ele><time>2026-04-25T12:33:20.951Z</time></trkpt><trkpt lat="40.2231217" lon="14.975335"><ele>92.5</ele><time>2026-04-25T12:33:21.955Z</time></trkpt><trkpt lat="40.2230567" lon="14.975395"><ele>93.0</ele><time>2026-04-25T12:33:22.959Z</time></trkpt><trkpt lat="40.222985" lon="14.97545"><ele>93.5</ele><time>2026-04-25T12:33:23.947Z</time></trkpt><trkpt lat="40.2229033" lon="14.9755033"><ele>94.0</ele><time>2026-04-25T12:33:24.955Z</time></trkpt><trkpt lat="40.2228233" lon="14.9755517"><ele>94.0</ele><time>2026-04-25T12:33:26Z</time></trkpt><trkpt lat="40.222735" lon="14.9755983"><ele>94.0</ele><time>2026-04-25T12:33:26.946Z</time></trkpt><trkpt lat="40.2226483" lon="14.9756417"><ele>94.0</ele><time>2026-04-25T12:33:27.953Z</time></trkpt><trkpt lat="40.2225633" lon="14.97569"><ele>94.0</ele><time>2026-04-25T12:33:28.951Z</time></trkpt><trkpt lat="40.2224767" lon="14.975735"><ele>94.0</ele><time>2026-04-25T12:33:29.958Z</time></trkpt><trkpt lat="40.2223883" lon="14.975785"><ele>93.66666666666666</ele><time>2026-04-25T12:33:30.956Z</time></trkpt><trkpt lat="40.2223117" lon="14.9758517"><ele>93.33333333333333</ele><time>2026-04-25T12:33:32.007Z</time></trkpt><trkpt lat="40.2222433" lon="14.9759183"><ele>93.0</ele><time>2026-04-25T12:33:32.957Z</time></trkpt><trkpt lat="40.2221817" lon="14.9759917"><ele>92.66666666666667</ele><time>2026-04-25T12:33:33.955Z</time></trkpt><trkpt lat="40.2221333" lon="14.9760683"><ele>92.33333333333334</ele><time>2026-04-25T12:33:34.95Z</time></trkpt><trkpt lat="40.22209" lon="14.9761367"><ele>92.0</ele><time>2026-04-25T12:33:35.955Z</time></trkpt><trkpt lat="40.2220667" lon="14.9762133"><ele>92.0</ele><time>2026-04-25T12:33:36.956Z</time></trkpt><trkpt lat="40.2220483" lon="14.9763067"><ele>92.0</ele><time>2026-04-25T12:33:37.989Z</time></trkpt><trkpt lat="40.2220117" lon="14.976395"><ele>92.0</ele><time>2026-04-25T12:33:38.949Z</time></trkpt><trkpt lat="40.2219617" lon="14.9765183"><ele>92.0</ele><time>2026-04-25T12:33:39.948Z</time></trkpt><trkpt lat="40.2219" lon="14.9766317"><ele>92.0</ele><time>2026-04-25T12:33:40.968Z</time></trkpt><trkpt lat="40.22184" lon="14.97674"><ele>88.39999999999999</ele><time>2026-04-25T12:33:41.955Z</time></trkpt><trkpt lat="40.22178" lon="14.9768383"><ele>84.8</ele><time>2026-04-25T12:33:42.955Z</time></trkpt><trkpt lat="40.2217683" lon="14.9769617"><ele>81.2</ele><time>2026-04-25T12:33:44.955Z</time></trkpt><trkpt lat="40.2218233" lon="14.97704"><ele>77.6</ele><time>2026-04-25T12:33:46.955Z</time></trkpt><trkpt lat="40.2218833" lon="14.977155"><ele>74.0</ele><time>2026-04-25T12:33:48.952Z</time></trkpt><trkpt lat="40.22185" lon="14.9773083"><ele>74.0</ele><time>2026-04-25T12:33:50.951Z</time></trkpt><trkpt lat="40.2217733" lon="14.9774317"><ele>74.0</ele><time>2026-04-25T12:33:52.953Z</time></trkpt><trkpt lat="40.2216517" lon="14.9773683"><ele>74.0</ele><time>2026-04-25T12:33:54.955Z</time></trkpt><trkpt lat="40.2215933" lon="14.977305"><ele>74.0</ele><time>2026-04-25T12:33:56.009Z</time></trkpt><trkpt lat="40.2215433" lon="14.977215"><ele>74.0</ele><time>2026-04-25T12:33:56.947Z</time></trkpt><trkpt lat="40.2214933" lon="14.9771233"><ele>70.75</ele><time>2026-04-25T12:33:57.953Z</time></trkpt><trkpt lat="40.2214433" lon="14.97705"><ele>67.5</ele><time>2026-04-25T12:33:58.95Z</time></trkpt><trkpt lat="40.2213383" lon="14.9769883"><ele>64.25</ele><time>2026-04-25T12:34:00.956Z</time></trkpt><trkpt lat="40.2212" lon="14.9770833"><ele>61.0</ele><time>2026-04-25T12:34:02.95Z</time></trkpt><trkpt lat="40.221095" lon="14.977185"><ele>61.0</ele><time>2026-04-25T12:34:03.953Z</time></trkpt><trkpt lat="40.2209983" lon="14.977305"><ele>61.0</ele><time>2026-04-25T12:34:04.953Z</time></trkpt><trkpt lat="40.2209167" lon="14.9774167"><ele>61.0</ele><time>2026-04-25T12:34:05.951Z</time></trkpt><trkpt lat="40.2208517" lon="14.9775233"><ele>61.0</ele><time>2026-04-25T12:34:06.959Z</time></trkpt><trkpt lat="40.2208183" lon="14.9776567"><ele>57.25</ele><time>2026-04-25T12:34:07.99Z</time></trkpt><trkpt lat="40.22081" lon="14.9778133"><ele>53.5</ele><time>2026-04-25T12:34:08.958Z</time></trkpt><trkpt lat="40.220815" lon="14.9779917"><ele>49.75</ele><time>2026-04-25T12:34:09.953Z</time></trkpt><trkpt lat="40.2208017" lon="14.9781617"><ele>46.0</ele><time>2026-04-25T12:34:10.958Z</time></trkpt><trkpt lat="40.2207717" lon="14.978335"><ele>44.0</ele><time>2026-04-25T12:34:11.954Z</time></trkpt><trkpt lat="40.2207383" lon="14.9784867"><ele>42.0</ele><time>2026-04-25T12:34:12.957Z</time></trkpt><trkpt lat="40.220695" lon="14.9786067"><ele>40.0</ele><time>2026-04-25T12:34:13.987Z</time></trkpt><trkpt lat="40.2206383" lon="14.978685"><ele>38.0</ele><time>2026-04-25T12:34:15.959Z</time></trkpt><trkpt lat="40.2206433" lon="14.978815"><ele>36.0</ele><time>2026-04-25T12:34:22.955Z</time></trkpt><trkpt lat="40.22076" lon="14.978825"><ele>36.0</ele><time>2026-04-25T12:34:24.962Z</time></trkpt><trkpt lat="40.22083" lon="14.9787833"><ele>36.0</ele><time>2026-04-25T12:34:26.019Z</time></trkpt><trkpt lat="40.2209067" lon="14.9787167"><ele>36.0</ele><time>2026-04-25T12:34:26.952Z</time></trkpt><trkpt lat="40.2209817" lon="14.9786267"><ele>36.0</ele><time>2026-04-25T12:34:27.954Z</time></trkpt><trkpt lat="40.2210567" lon="14.9785117"><ele>36.0</ele><time>2026-04-25T12:34:28.949Z</time></trkpt><trkpt lat="40.2211267" lon="14.978385"><ele>38.0</ele><time>2026-04-25T12:34:29.947Z</time></trkpt><trkpt lat="40.22119" lon="14.9782667"><ele>40.0</ele><time>2026-04-25T12:34:30.954Z</time></trkpt><trkpt lat="40.2212533" lon="14.978155"><ele>42.0</ele><time>2026-04-25T12:34:32.007Z</time></trkpt><trkpt lat="40.2213067" lon="14.97806"><ele>44.0</ele><time>2026-04-25T12:34:32.953Z</time></trkpt><trkpt lat="40.2213533" lon="14.9779883"><ele>46.0</ele><time>2026-04-25T12:34:33.948Z</time></trkpt><trkpt lat="40.2213883" lon="14.97812"><ele>46.0</ele><time>2026-04-25T12:34:35.95Z</time></trkpt><trkpt lat="40.2214267" lon="14.9781883"><ele>46.0</ele><time>2026-04-25T12:34:36.956Z</time></trkpt><trkpt lat="40.22148" lon="14.97828"><ele>46.0</ele><time>2026-04-25T12:34:37.987Z</time></trkpt><trkpt lat="40.2215367" lon="14.9783933"><ele>46.0</ele><time>2026-04-25T12:34:38.947Z</time></trkpt><trkpt lat="40.2215917" lon="14.978535"><ele>46.0</ele><time>2026-04-25T12:34:39.953Z</time></trkpt><trkpt lat="40.221655" lon="14.9787183"><ele>43.0</ele><time>2026-04-25T12:34:40.948Z</time></trkpt><trkpt lat="40.2217267" lon="14.9789417"><ele>40.0</ele><time>2026-04-25T12:34:41.95Z</time></trkpt><trkpt lat="40.2217917" lon="14.9791767"><ele>37.0</ele><time>2026-04-25T12:34:42.954Z</time></trkpt><trkpt lat="40.2218567" lon="14.97938"><ele>33.75</ele><time>2026-04-25T12:34:43.987Z</time></trkpt><trkpt lat="40.2219217" lon="14.979555"><ele>30.5</ele><time>2026-04-25T12:34:44.952Z</time></trkpt><trkpt lat="40.2219867" lon="14.97972"><ele>27.25</ele><time>2026-04-25T12:34:45.946Z</time></trkpt><trkpt lat="40.2220433" lon="14.9798767"><ele>24.0</ele><time>2026-04-25T12:34:46.955Z</time></trkpt><trkpt lat="40.22208" lon="14.9800017"><ele>22.8</ele><time>2026-04-25T12:34:47.95Z</time></trkpt><trkpt lat="40.2221133" lon="14.9801183"><ele>21.599999999999998</ele><time>2026-04-25T12:34:48.958Z</time></trkpt><trkpt lat="40.222135" lon="14.980245"><ele>20.4</ele><time>2026-04-25T12:34:49.999Z</time></trkpt><trkpt lat="40.222145" lon="14.9803767"><ele>19.2</ele><time>2026-04-25T12:34:50.957Z</time></trkpt><trkpt lat="40.22213" lon="14.9805233"><ele>18.0</ele><time>2026-04-25T12:34:51.949Z</time></trkpt><trkpt lat="40.22209" lon="14.980685"><ele>17.0</ele><time>2026-04-25T12:34:52.957Z</time></trkpt><trkpt lat="40.2220133" lon="14.9808567"><ele>16.0</ele><time>2026-04-25T12:34:53.954Z</time></trkpt><trkpt lat="40.2219333" lon="14.9810133"><ele>15.0</ele><time>2026-04-25T12:34:54.954Z</time></trkpt><trkpt lat="40.221875" lon="14.981165"><ele>14.0</ele><time>2026-04-25T12:34:56.013Z</time></trkpt><trkpt lat="40.2218083" lon="14.9813133"><ele>14.0</ele><time>2026-04-25T12:34:56.954Z</time></trkpt><trkpt lat="40.221735" lon="14.9814517"><ele>14.0</ele><time>2026-04-25T12:34:57.955Z</time></trkpt><trkpt lat="40.2216633" lon="14.98158"><ele>14.0</ele><time>2026-04-25T12:34:58.956Z</time></trkpt><trkpt lat="40.2215917" lon="14.9816917"><ele>14.0</ele><time>2026-04-25T12:34:59.953Z</time></trkpt><trkpt lat="40.2215133" lon="14.9818"><ele>12.25</ele><time>2026-04-25T12:35:00.96Z</time></trkpt><trkpt lat="40.2214433" lon="14.981925"><ele>10.5</ele><time>2026-04-25T12:35:02.003Z</time></trkpt><trkpt lat="40.2213933" lon="14.9820733"><ele>8.75</ele><time>2026-04-25T12:35:02.954Z</time></trkpt><trkpt lat="40.2213383" lon="14.9822333"><ele>7.0</ele><time>2026-04-25T12:35:03.954Z</time></trkpt><trkpt lat="40.22129" lon="14.9824183"><ele>6.0</ele><time>2026-04-25T12:35:04.96Z</time></trkpt><trkpt lat="40.2212383" lon="14.9826217"><ele>5.0</ele><time>2026-04-25T12:35:05.946Z</time></trkpt><trkpt lat="40.221185" lon="14.9828233"><ele>4.0</ele><time>2026-04-25T12:35:06.959Z</time></trkpt><trkpt lat="40.2211333" lon="14.9830233"><ele>4.0</ele><time>2026-04-25T12:35:07.983Z</time></trkpt><trkpt lat="40.221085" lon="14.9832183"><ele>4.0</ele><time>2026-04-25T12:35:08.952Z</time></trkpt><trkpt lat="40.221045" lon="14.983405"><ele>4.0</ele><time>2026-04-25T12:35:09.95Z</time></trkpt><trkpt lat="40.2210083" lon="14.98358"><ele>4.0</ele><time>2026-04-25T12:35:10.956Z</time></trkpt><trkpt lat="40.2210067" lon="14.9836667"><ele>4.0</ele><time>2026-04-25T12:35:11.96Z</time></trkpt><trkpt lat="40.22107" lon="14.9837617"><ele>4.0</ele><time>2026-04-25T12:35:13.989Z</time></trkpt><trkpt lat="40.2211433" lon="14.9837583"><ele>4.0</ele><time>2026-04-25T12:35:14.958Z</time></trkpt><trkpt lat="40.221235" lon="14.9837583"><ele>4.0</ele><time>2026-04-25T12:35:15.96Z</time></trkpt><trkpt lat="40.2213533" lon="14.9837567"><ele>4.0</ele><time>2026-04-25T12:35:16.958Z</time></trkpt><trkpt lat="40.2215017" lon="14.9837617"><ele>4.5</ele><time>2026-04-25T12:35:17.949Z</time></trkpt><trkpt lat="40.2216633" lon="14.983775"><ele>5.0</ele><time>2026-04-25T12:35:18.947Z</time></trkpt><trkpt lat="40.2218133" lon="14.9837833"><ele>5.5</ele><time>2026-04-25T12:35:19.985Z</time></trkpt><trkpt lat="40.2219333" lon="14.983805"><ele>6.0</ele><time>2026-04-25T12:35:20.95Z</time></trkpt><trkpt lat="40.2220333" lon="14.9838467"><ele>5.999999999999999</ele><time>2026-04-25T12:35:21.948Z</time></trkpt><trkpt lat="40.22206" lon="14.9839217"><ele>6.0</ele><time>2026-04-25T12:35:22.957Z</time></trkpt><trkpt lat="40.222075" lon="14.98401"><ele>6.0</ele><time>2026-04-25T12:35:23.953Z</time></trkpt><trkpt lat="40.2220783" lon="14.984105"><ele>6.0</ele><time>2026-04-25T12:35:24.948Z</time></trkpt><trkpt lat="40.2220817" lon="14.98419"><ele>6.0</ele><time>2026-04-25T12:35:26.008Z</time></trkpt><trkpt lat="40.222115" lon="14.9843283"><ele>5.999999999999999</ele><time>2026-04-25T12:35:27.96Z</time></trkpt><trkpt lat="40.22217" lon="14.9843817"><ele>6.0</ele><time>2026-04-25T12:35:28.957Z</time></trkpt><trkpt lat="40.2222533" lon="14.9844417"><ele>6.4</ele><time>2026-04-25T12:35:29.955Z</time></trkpt><trkpt lat="40.2223517" lon="14.9845117"><ele>6.8</ele><time>2026-04-25T12:35:30.959Z</time></trkpt><trkpt lat="40.222465" lon="14.9845817"><ele>7.200000000000001</ele><time>2026-04-25T12:35:31.998Z</time></trkpt><trkpt lat="40.222565" lon="14.9846383"><ele>7.6000000000000005</ele><time>2026-04-25T12:35:32.964Z</time></trkpt><trkpt lat="40.2226483" lon="14.9846817"><ele>8.0</ele><time>2026-04-25T12:35:33.956Z</time></trkpt><trkpt lat="40.2227467" lon="14.9847067"><ele>8.0</ele><time>2026-04-25T12:35:35.954Z</time></trkpt><trkpt lat="40.22272" lon="14.98463"><ele>8.0</ele><time>2026-04-25T12:35:38.956Z</time></trkpt><trkpt lat="40.22266" lon="14.9846"><ele>8.0</ele><time>2026-04-25T12:35:39.957Z</time></trkpt><trkpt lat="40.222535" lon="14.9845417"><ele>8.0</ele><time>2026-04-25T12:35:40.958Z</time></trkpt><trkpt lat="40.2224167" lon="14.9844667"><ele>8.0</ele><time>2026-04-25T12:35:41.951Z</time></trkpt><trkpt lat="40.2223033" lon="14.9843833"><ele>7.833333333333333</ele><time>2026-04-25T12:35:42.95Z</time></trkpt><trkpt lat="40.2221967" lon="14.98431"><ele>7.666666666666666</ele><time>2026-04-25T12:35:43.99Z</time></trkpt><trkpt lat="40.2221083" lon="14.9842583"><ele>7.5</ele><time>2026-04-25T12:35:44.956Z</time></trkpt><trkpt lat="40.2220417" lon="14.9842283"><ele>7.333333333333334</ele><time>2026-04-25T12:35:45.963Z</time></trkpt><trkpt lat="40.221975" lon="14.98423"><ele>7.166666666666667</ele><time>2026-04-25T12:35:46.959Z</time></trkpt><trkpt lat="40.2219083" lon="14.98426"><ele>7.0</ele><time>2026-04-25T12:35:47.954Z</time></trkpt><trkpt lat="40.221815" lon="14.9843517"><ele>7.0</ele><time>2026-04-25T12:35:48.962Z</time></trkpt><trkpt lat="40.221715" lon="14.9844467"><ele>7.0</ele><time>2026-04-25T12:35:49.983Z</time></trkpt><trkpt lat="40.221605" lon="14.9845483"><ele>7.0</ele><time>2026-04-25T12:35:50.947Z</time></trkpt><trkpt lat="40.2215" lon="14.98465"><ele>7.0</ele><time>2026-04-25T12:35:51.952Z</time></trkpt><trkpt lat="40.221405" lon="14.9847433"><ele>6.3999999999999995</ele><time>2026-04-25T12:35:52.957Z</time></trkpt><trkpt lat="40.2213767" lon="14.98483"><ele>5.799999999999999</ele><time>2026-04-25T12:35:53.959Z</time></trkpt><trkpt lat="40.221395" lon="14.9849983"><ele>5.2</ele><time>2026-04-25T12:35:55.982Z</time></trkpt><trkpt lat="40.2214633" lon="14.985095"><ele>4.6</ele><time>2026-04-25T12:35:56.948Z</time></trkpt><trkpt lat="40.2215467" lon="14.9852"><ele>4.0</ele><time>2026-04-25T12:35:57.949Z</time></trkpt><trkpt lat="40.2216467" lon="14.9853133"><ele>9.333333333333334</ele><time>2026-04-25T12:35:58.951Z</time></trkpt><trkpt lat="40.2217583" lon="14.9854317"><ele>14.666666666666668</ele><time>2026-04-25T12:35:59.95Z</time></trkpt><trkpt lat="40.2218783" lon="14.9855417"><ele>20.0</ele><time>2026-04-25T12:36:00.959Z</time></trkpt><trkpt lat="40.2220333" lon="14.9856267"><ele>20.0</ele><time>2026-04-25T12:36:01.997Z</time></trkpt><trkpt lat="40.22221" lon="14.98571"><ele>20.0</ele><time>2026-04-25T12:36:02.953Z</time></trkpt><trkpt lat="40.2223867" lon="14.9857633"><ele>20.0</ele><time>2026-04-25T12:36:03.951Z</time></trkpt><trkpt lat="40.22255" lon="14.98579"><ele>19.8</ele><time>2026-04-25T12:36:04.953Z</time></trkpt><trkpt lat="40.2226733" lon="14.985805"><ele>19.6</ele><time>2026-04-25T12:36:05.953Z</time></trkpt><trkpt lat="40.222775" lon="14.985835"><ele>19.4</ele><time>2026-04-25T12:36:06.957Z</time></trkpt><trkpt lat="40.2228433" lon="14.9859467"><ele>19.2</ele><time>2026-04-25T12:36:08.956Z</time></trkpt><trkpt lat="40.2227983" lon="14.986015"><ele>19.0</ele><time>2026-04-25T12:36:09.955Z</time></trkpt><trkpt lat="40.222745" lon="14.9860817"><ele>24.25</ele><time>2026-04-25T12:36:10.956Z</time></trkpt><trkpt lat="40.2226367" lon="14.9861383"><ele>29.5</ele><time>2026-04-25T12:36:11.946Z</time></trkpt><trkpt lat="40.2225233" lon="14.986205"><ele>34.75</ele><time>2026-04-25T12:36:12.951Z</time></trkpt><trkpt lat="40.2223917" lon="14.9862767"><ele>40.0</ele><time>2026-04-25T12:36:13.984Z</time></trkpt><trkpt lat="40.2222583" lon="14.9863533"><ele>40.4</ele><time>2026-04-25T12:36:14.952Z</time></trkpt><trkpt lat="40.2221333" lon="14.9864233"><ele>40.8</ele><time>2026-04-25T12:36:15.952Z</time></trkpt><trkpt lat="40.222025" lon="14.9864833"><ele>41.2</ele><time>2026-04-25T12:36:16.952Z</time></trkpt><trkpt lat="40.2219317" lon="14.9865317"><ele>41.6</ele><time>2026-04-25T12:36:17.948Z</time></trkpt><trkpt lat="40.2218617" lon="14.9865483"><ele>42.0</ele><time>2026-04-25T12:36:18.955Z</time></trkpt><trkpt lat="40.221795" lon="14.9865283"><ele>42.0</ele><time>2026-04-25T12:36:19.984Z</time></trkpt><trkpt lat="40.221705" lon="14.9864883"><ele>42.0</ele><time>2026-04-25T12:36:20.948Z</time></trkpt><trkpt lat="40.2215967" lon="14.9864233"><ele>42.0</ele><time>2026-04-25T12:36:21.944Z</time></trkpt><trkpt lat="40.2214683" lon="14.9863283"><ele>42.0</ele><time>2026-04-25T12:36:22.953Z</time></trkpt><trkpt lat="40.2213333" lon="14.9862417"><ele>40.0</ele><time>2026-04-25T12:36:23.955Z</time></trkpt><trkpt lat="40.2212033" lon="14.9861717"><ele>38.0</ele><time>2026-04-25T12:36:24.956Z</time></trkpt><trkpt lat="40.2210833" lon="14.9861233"><ele>36.0</ele><time>2026-04-25T12:36:25.999Z</time></trkpt><trkpt lat="40.2210033" lon="14.9861867"><ele>34.0</ele><time>2026-04-25T12:36:26.95Z</time></trkpt><trkpt lat="40.2209367" lon="14.9862717"><ele>34.0</ele><time>2026-04-25T12:36:27.952Z</time></trkpt><trkpt lat="40.2208667" lon="14.9863833"><ele>34.0</ele><time>2026-04-25T12:36:28.955Z</time></trkpt><trkpt lat="40.2207967" lon="14.98653"><ele>34.0</ele><time>2026-04-25T12:36:29.952Z</time></trkpt><trkpt lat="40.22074" lon="14.9867417"><ele>34.0</ele><time>2026-04-25T12:36:30.956Z</time></trkpt><trkpt lat="40.2206783" lon="14.9869617"><ele>28.0</ele><time>2026-04-25T12:36:31.987Z</time></trkpt><trkpt lat="40.2206133" lon="14.98719"><ele>22.0</ele><time>2026-04-25T12:36:32.948Z</time></trkpt><trkpt lat="40.220545" lon="14.9874317"><ele>16.0</ele><time>2026-04-25T12:36:33.95Z</time></trkpt><trkpt lat="40.220475" lon="14.9876817"><ele>16.0</ele><time>2026-04-25T12:36:34.951Z</time></trkpt><trkpt lat="40.220395" lon="14.9879183"><ele>16.0</ele><time>2026-04-25T12:36:35.953Z</time></trkpt><trkpt lat="40.2203" lon="14.9881517"><ele>16.0</ele><time>2026-04-25T12:36:36.956Z</time></trkpt><trkpt lat="40.22018" lon="14.9883667"><ele>22.333333333333332</ele><time>2026-04-25T12:36:37.988Z</time></trkpt><trkpt lat="40.2200517" lon="14.98858"><ele>28.666666666666664</ele><time>2026-04-25T12:36:38.951Z</time></trkpt><trkpt lat="40.2199333" lon="14.98879"><ele>35.0</ele><time>2026-04-25T12:36:39.952Z</time></trkpt><trkpt lat="40.2198267" lon="14.989005"><ele>25.666666666666664</ele><time>2026-04-25T12:36:40.952Z</time></trkpt><trkpt lat="40.2197267" lon="14.9892367"><ele>16.333333333333332</ele><time>2026-04-25T12:36:41.948Z</time></trkpt><trkpt lat="40.2196583" lon="14.9894983"><ele>7.0</ele><time>2026-04-25T12:36:42.951Z</time></trkpt><trkpt lat="40.2195933" lon="14.9897633"><ele>8.666666666666668</ele><time>2026-04-25T12:36:43.982Z</time></trkpt><trkpt lat="40.219525" lon="14.9900233"><ele>10.333333333333334</ele><time>2026-04-25T12:36:44.951Z</time></trkpt><trkpt lat="40.219445" lon="14.9902583"><ele>12.0</ele><time>2026-04-25T12:36:45.953Z</time></trkpt><trkpt lat="40.2193567" lon="14.9904717"><ele>12.0</ele><time>2026-04-25T12:36:46.951Z</time></trkpt><trkpt lat="40.21929" lon="14.990685"><ele>12.0</ele><time>2026-04-25T12:36:47.953Z</time></trkpt><trkpt lat="40.2192217" lon="14.9908933"><ele>12.0</ele><time>2026-04-25T12:36:48.951Z</time></trkpt><trkpt lat="40.2191483" lon="14.9910983"><ele>10.333333333333334</ele><time>2026-04-25T12:36:49.986Z</time></trkpt><trkpt lat="40.2190883" lon="14.9913167"><ele>8.666666666666668</ele><time>2026-04-25T12:36:50.948Z</time></trkpt><trkpt lat="40.2190367" lon="14.991535"><ele>7.0</ele><time>2026-04-25T12:36:51.954Z</time></trkpt><trkpt lat="40.2189717" lon="14.9917433"><ele>7.0</ele><time>2026-04-25T12:36:52.952Z</time></trkpt><trkpt lat="40.218905" lon="14.9919483"><ele>7.0</ele><time>2026-04-25T12:36:53.954Z</time></trkpt><trkpt lat="40.2188517" lon="14.9921533"><ele>7.0</ele><time>2026-04-25T12:36:54.954Z</time></trkpt><trkpt lat="40.2187917" lon="14.99236"><ele>9.333333333333334</ele><time>2026-04-25T12:36:55.991Z</time></trkpt><trkpt lat="40.2187317" lon="14.9925633"><ele>11.666666666666668</ele><time>2026-04-25T12:36:56.949Z</time></trkpt><trkpt lat="40.2186583" lon="14.9927567"><ele>14.0</ele><time>2026-04-25T12:36:57.952Z</time></trkpt><trkpt lat="40.2185933" lon="14.99296"><ele>14.0</ele><time>2026-04-25T12:36:58.952Z</time></trkpt><trkpt lat="40.2185267" lon="14.99316"><ele>14.0</ele><time>2026-04-25T12:36:59.952Z</time></trkpt><trkpt lat="40.2184733" lon="14.993355"><ele>14.0</ele><time>2026-04-25T12:37:00.952Z</time></trkpt><trkpt lat="40.218415" lon="14.99354"><ele>13.0</ele><time>2026-04-25T12:37:01.995Z</time></trkpt><trkpt lat="40.2183433" lon="14.9937083"><ele>12.0</ele><time>2026-04-25T12:37:02.951Z</time></trkpt><trkpt lat="40.2182617" lon="14.993875"><ele>11.0</ele><time>2026-04-25T12:37:03.953Z</time></trkpt><trkpt lat="40.2181867" lon="14.9940467"><ele>10.0</ele><time>2026-04-25T12:37:04.954Z</time></trkpt><trkpt lat="40.2181067" lon="14.9942067"><ele>10.0</ele><time>2026-04-25T12:37:05.951Z</time></trkpt><trkpt lat="40.2180467" lon="14.9943633"><ele>10.0</ele><time>2026-04-25T12:37:06.959Z</time></trkpt><trkpt lat="40.2180083" lon="14.99453"><ele>10.0</ele><time>2026-04-25T12:37:07.998Z</time></trkpt><trkpt lat="40.218005" lon="14.9947017"><ele>10.0</ele><time>2026-04-25T12:37:08.946Z</time></trkpt><trkpt lat="40.2180233" lon="14.9948833"><ele>10.25</ele><time>2026-04-25T12:37:09.944Z</time></trkpt><trkpt lat="40.2180567" lon="14.9950683"><ele>10.5</ele><time>2026-04-25T12:37:10.958Z</time></trkpt><trkpt lat="40.2181" lon="14.9952617"><ele>10.75</ele><time>2026-04-25T12:37:11.951Z</time></trkpt><trkpt lat="40.2181033" lon="14.99544"><ele>11.0</ele><time>2026-04-25T12:37:12.955Z</time></trkpt><trkpt lat="40.218095" lon="14.9956083"><ele>11.0</ele><time>2026-04-25T12:37:13.993Z</time></trkpt><trkpt lat="40.218085" lon="14.9957583"><ele>11.0</ele><time>2026-04-25T12:37:14.95Z</time></trkpt><trkpt lat="40.2180833" lon="14.9959067"><ele>11.0</ele><time>2026-04-25T12:37:15.953Z</time></trkpt><trkpt lat="40.2180833" lon="14.99606"><ele>11.0</ele><time>2026-04-25T12:37:16.952Z</time></trkpt><trkpt lat="40.2180933" lon="14.9962233"><ele>11.25</ele><time>2026-04-25T12:37:17.952Z</time></trkpt><trkpt lat="40.2181" lon="14.99639"><ele>11.5</ele><time>2026-04-25T12:37:18.961Z</time></trkpt><trkpt lat="40.21812" lon="14.9965517"><ele>11.75</ele><time>2026-04-25T12:37:19.993Z</time></trkpt><trkpt lat="40.2181683" lon="14.99673"><ele>12.0</ele><time>2026-04-25T12:37:20.948Z</time></trkpt><trkpt lat="40.2182267" lon="14.9969117"><ele>15.333333333333332</ele><time>2026-04-25T12:37:21.951Z</time></trkpt><trkpt lat="40.218305" lon="14.9971017"><ele>18.666666666666664</ele><time>2026-04-25T12:37:22.957Z</time></trkpt><trkpt lat="40.2183883" lon="14.9973"><ele>22.0</ele><time>2026-04-25T12:37:23.951Z</time></trkpt><trkpt lat="40.2184783" lon="14.9975017"><ele>20.666666666666664</ele><time>2026-04-25T12:37:24.958Z</time></trkpt><trkpt lat="40.21857" lon="14.9977067"><ele>19.333333333333332</ele><time>2026-04-25T12:37:25.998Z</time></trkpt><trkpt lat="40.21866" lon="14.997905"><ele>18.0</ele><time>2026-04-25T12:37:26.948Z</time></trkpt><trkpt lat="40.2187417" lon="14.9980883"><ele>18.0</ele><time>2026-04-25T12:37:27.956Z</time></trkpt><trkpt lat="40.2188017" lon="14.9982617"><ele>18.0</ele><time>2026-04-25T12:37:28.954Z</time></trkpt><trkpt lat="40.21885" lon="14.9984267"><ele>18.0</ele><time>2026-04-25T12:37:29.952Z</time></trkpt><trkpt lat="40.21888" lon="14.998575"><ele>18.0</ele><time>2026-04-25T12:37:30.955Z</time></trkpt><trkpt lat="40.2188683" lon="14.9987017"><ele>17.5</ele><time>2026-04-25T12:37:31.996Z</time></trkpt><trkpt lat="40.21882" lon="14.998815"><ele>17.0</ele><time>2026-04-25T12:37:32.955Z</time></trkpt><trkpt lat="40.21875" lon="14.9989317"><ele>16.5</ele><time>2026-04-25T12:37:33.955Z</time></trkpt><trkpt lat="40.218635" lon="14.99903"><ele>16.0</ele><time>2026-04-25T12:37:34.957Z</time></trkpt><trkpt lat="40.2185017" lon="14.9991317"><ele>15.75</ele><time>2026-04-25T12:37:35.951Z</time></trkpt><trkpt lat="40.218385" lon="14.99925"><ele>15.5</ele><time>2026-04-25T12:37:36.954Z</time></trkpt><trkpt lat="40.2182683" lon="14.9993733"><ele>15.25</ele><time>2026-04-25T12:37:37.991Z</time></trkpt><trkpt lat="40.2181517" lon="14.99949"><ele>15.0</ele><time>2026-04-25T12:37:38.945Z</time></trkpt><trkpt lat="40.218035" lon="14.9996083"><ele>16.0</ele><time>2026-04-25T12:37:39.949Z</time></trkpt><trkpt lat="40.217915" lon="14.999725"><ele>17.0</ele><time>2026-04-25T12:37:40.96Z</time></trkpt><trkpt lat="40.2178" lon="14.9998367"><ele>18.0</ele><time>2026-04-25T12:37:41.954Z</time></trkpt><trkpt lat="40.217695" lon="14.999945"><ele>19.0</ele><time>2026-04-25T12:37:42.959Z</time></trkpt><trkpt lat="40.217595" lon="15.00004"><ele>19.0</ele><time>2026-04-25T12:37:43.989Z</time></trkpt><trkpt lat="40.217505" lon="15.00013"><ele>19.0</ele><time>2026-04-25T12:37:44.95Z</time></trkpt><trkpt lat="40.2174283" lon="15.0002133"><ele>19.0</ele><time>2026-04-25T12:37:45.951Z</time></trkpt><trkpt lat="40.2173667" lon="15.0002883"><ele>19.0</ele><time>2026-04-25T12:37:46.954Z</time></trkpt><trkpt lat="40.21732" lon="15.000355"><ele>19.0</ele><time>2026-04-25T12:37:47.953Z</time></trkpt><trkpt lat="40.21728" lon="15.0004233"><ele>19.0</ele><time>2026-04-25T12:37:48.957Z</time></trkpt><trkpt lat="40.2172417" lon="15.000495"><ele>19.142857142857142</ele><time>2026-04-25T12:37:49.994Z</time></trkpt><trkpt lat="40.217205" lon="15.0005783"><ele>19.28571428571429</ele><time>2026-04-25T12:37:50.951Z</time></trkpt><trkpt lat="40.2171667" lon="15.0006583"><ele>19.42857142857143</ele><time>2026-04-25T12:37:51.953Z</time></trkpt><trkpt lat="40.21714" lon="15.00074"><ele>19.57142857142857</ele><time>2026-04-25T12:37:52.957Z</time></trkpt><trkpt lat="40.2171383" lon="15.0008267"><ele>19.714285714285715</ele><time>2026-04-25T12:37:53.955Z</time></trkpt><trkpt lat="40.2171583" lon="15.0009083"><ele>19.857142857142858</ele><time>2026-04-25T12:37:54.957Z</time></trkpt><trkpt lat="40.2172083" lon="15.000995"><ele>20.0</ele><time>2026-04-25T12:37:55.996Z</time></trkpt><trkpt lat="40.2172867" lon="15.00108"><ele>20.25</ele><time>2026-04-25T12:37:56.95Z</time></trkpt><trkpt lat="40.2173967" lon="15.0011733"><ele>20.5</ele><time>2026-04-25T12:37:57.956Z</time></trkpt><trkpt lat="40.2174983" lon="15.0012783"><ele>20.75</ele><time>2026-04-25T12:37:58.955Z</time></trkpt><trkpt lat="40.2175917" lon="15.0014"><ele>21.0</ele><time>2026-04-25T12:37:59.952Z</time></trkpt><trkpt lat="40.21767" lon="15.00154"><ele>21.25</ele><time>2026-04-25T12:38:00.955Z</time></trkpt><trkpt lat="40.217735" lon="15.0016733"><ele>21.5</ele><time>2026-04-25T12:38:01.997Z</time></trkpt><trkpt lat="40.2178017" lon="15.0018067"><ele>21.75</ele><time>2026-04-25T12:38:02.945Z</time></trkpt><trkpt lat="40.21787" lon="15.00194"><ele>22.0</ele><time>2026-04-25T12:38:03.948Z</time></trkpt><trkpt lat="40.217935" lon="15.0020617"><ele>22.0</ele><time>2026-04-25T12:38:04.953Z</time></trkpt><trkpt lat="40.2180017" lon="15.002165"><ele>22.0</ele><time>2026-04-25T12:38:05.949Z</time></trkpt><trkpt lat="40.21806" lon="15.0022533"><ele>22.0</ele><time>2026-04-25T12:38:06.958Z</time></trkpt><trkpt lat="40.2181117" lon="15.0023283"><ele>22.0</ele><time>2026-04-25T12:38:07.989Z</time></trkpt><trkpt lat="40.218175" lon="15.0024133"><ele>22.0</ele><time>2026-04-25T12:38:09.949Z</time></trkpt><trkpt lat="40.21822" lon="15.0024867"><ele>22.0</ele><time>2026-04-25T12:38:13.991Z</time></trkpt><trkpt lat="40.2182767" lon="15.002545"><ele>22.400000000000002</ele><time>2026-04-25T12:38:15.952Z</time></trkpt><trkpt lat="40.2183617" lon="15.002535"><ele>22.8</ele><time>2026-04-25T12:38:17.949Z</time></trkpt><trkpt lat="40.2184467" lon="15.0024567"><ele>23.2</ele><time>2026-04-25T12:38:19.992Z</time></trkpt><trkpt lat="40.2185217" lon="15.00245"><ele>23.6</ele><time>2026-04-25T12:38:21.952Z</time></trkpt><trkpt lat="40.2186067" lon="15.002525"><ele>24.0</ele><time>2026-04-25T12:38:23.956Z</time></trkpt><trkpt lat="40.2186383" lon="15.0026367"><ele>24.0</ele><time>2026-04-25T12:38:26.954Z</time></trkpt><trkpt lat="40.21856" lon="15.0028033"><ele>24.0</ele><time>2026-04-25T12:38:28.948Z</time></trkpt><trkpt lat="40.21851" lon="15.00292"><ele>24.0</ele><time>2026-04-25T12:38:29.95Z</time></trkpt><trkpt lat="40.2184583" lon="15.0030433"><ele>24.0</ele><time>2026-04-25T12:38:30.948Z</time></trkpt><trkpt lat="40.2184067" lon="15.0031717"><ele>24.0</ele><time>2026-04-25T12:38:31.992Z</time></trkpt><trkpt lat="40.2183567" lon="15.0033017"><ele>24.0</ele><time>2026-04-25T12:38:32.949Z</time></trkpt><trkpt lat="40.2182983" lon="15.0034333"><ele>24.0</ele><time>2026-04-25T12:38:33.952Z</time></trkpt><trkpt lat="40.21824" lon="15.0035717"><ele>24.0</ele><time>2026-04-25T12:38:34.954Z</time></trkpt><trkpt lat="40.2181833" lon="15.00371"><ele>24.4</ele><time>2026-04-25T12:38:35.946Z</time></trkpt><trkpt lat="40.21813" lon="15.0038367"><ele>24.799999999999997</ele><time>2026-04-25T12:38:36.945Z</time></trkpt><trkpt lat="40.21808" lon="15.0039483"><ele>25.200000000000003</ele><time>2026-04-25T12:38:38Z</time></trkpt><trkpt lat="40.2180517" lon="15.0040533"><ele>25.6</ele><time>2026-04-25T12:38:38.951Z</time></trkpt><trkpt lat="40.2180167" lon="15.0041317"><ele>26.0</ele><time>2026-04-25T12:38:39.955Z</time></trkpt><trkpt lat="40.2179717" lon="15.004245"><ele>26.0</ele><time>2026-04-25T12:38:41.953Z</time></trkpt><trkpt lat="40.2179133" lon="15.0043283"><ele>26.0</ele><time>2026-04-25T12:38:43.995Z</time></trkpt><trkpt lat="40.217815" lon="15.0043533"><ele>26.0</ele><time>2026-04-25T12:38:45.952Z</time></trkpt><trkpt lat="40.2177033" lon="15.0042933"><ele>26.0</ele><time>2026-04-25T12:38:46.95Z</time></trkpt><trkpt lat="40.2175867" lon="15.0042167"><ele>26.0</ele><time>2026-04-25T12:38:47.954Z</time></trkpt><trkpt lat="40.2174567" lon="15.0041067"><ele>26.0</ele><time>2026-04-25T12:38:48.954Z</time></trkpt><trkpt lat="40.2173283" lon="15.0039933"><ele>26.0</ele><time>2026-04-25T12:38:49.994Z</time></trkpt><trkpt lat="40.217205" lon="15.0038867"><ele>26.0</ele><time>2026-04-25T12:38:50.953Z</time></trkpt><trkpt lat="40.2170867" lon="15.0037983"><ele>26.0</ele><time>2026-04-25T12:38:51.948Z</time></trkpt><trkpt lat="40.216965" lon="15.0037267"><ele>27.6</ele><time>2026-04-25T12:38:52.952Z</time></trkpt><trkpt lat="40.216845" lon="15.0036767"><ele>29.200000000000003</ele><time>2026-04-25T12:38:53.956Z</time></trkpt><trkpt lat="40.216755" lon="15.0036733"><ele>30.799999999999997</ele><time>2026-04-25T12:38:54.957Z</time></trkpt><trkpt lat="40.2166817" lon="15.003685"><ele>32.4</ele><time>2026-04-25T12:38:55.999Z</time></trkpt><trkpt lat="40.21657" lon="15.0037217"><ele>34.0</ele><time>2026-04-25T12:38:57.954Z</time></trkpt><trkpt lat="40.2164617" lon="15.0037983"><ele>36.2</ele><time>2026-04-25T12:38:59.955Z</time></trkpt><trkpt lat="40.2164067" lon="15.0039233"><ele>38.4</ele><time>2026-04-25T12:39:01.991Z</time></trkpt><trkpt lat="40.2164233" lon="15.0041"><ele>40.6</ele><time>2026-04-25T12:39:03.948Z</time></trkpt><trkpt lat="40.216435" lon="15.0042"><ele>42.8</ele><time>2026-04-25T12:39:04.949Z</time></trkpt><trkpt lat="40.2164483" lon="15.004285"><ele>45.0</ele><time>2026-04-25T12:39:05.951Z</time></trkpt><trkpt lat="40.2164533" lon="15.00438"><ele>45.0</ele><time>2026-04-25T12:39:36.954Z</time></trkpt><trkpt lat="40.21647" lon="15.0042533"><ele>45.0</ele><time>2026-04-25T12:39:44.951Z</time></trkpt><trkpt lat="40.2164467" lon="15.0041267"><ele>45.0</ele><time>2026-04-25T12:39:46.957Z</time></trkpt><trkpt lat="40.216445" lon="15.004"><ele>45.0</ele><time>2026-04-25T12:39:48.957Z</time></trkpt><trkpt lat="40.2164717" lon="15.003875"><ele>45.0</ele><time>2026-04-25T12:39:50.95Z</time></trkpt><trkpt lat="40.2165517" lon="15.0037833"><ele>45.0</ele><time>2026-04-25T12:39:52.955Z</time></trkpt><trkpt lat="40.2166233" lon="15.0037233"><ele>45.0</ele><time>2026-04-25T12:39:54.957Z</time></trkpt><trkpt lat="40.2165333" lon="15.0036783"><ele>45.0</ele><time>2026-04-25T12:39:58.952Z</time></trkpt><trkpt lat="40.21646" lon="15.0036933"><ele>45.0</ele><time>2026-04-25T12:39:59.956Z</time></trkpt><trkpt lat="40.2163533" lon="15.0037017"><ele>45.0</ele><time>2026-04-25T12:40:00.955Z</time></trkpt><trkpt lat="40.2162283" lon="15.0037017"><ele>45.0</ele><time>2026-04-25T12:40:01.996Z</time></trkpt><trkpt lat="40.2160983" lon="15.003705"><ele>45.0</ele><time>2026-04-25T12:40:02.949Z</time></trkpt><trkpt lat="40.2159533" lon="15.0037167"><ele>45.0</ele><time>2026-04-25T12:40:03.959Z</time></trkpt><trkpt lat="40.2158067" lon="15.00375"><ele>45.0</ele><time>2026-04-25T12:40:04.953Z</time></trkpt><trkpt lat="40.215665" lon="15.00381"><ele>50.75</ele><time>2026-04-25T12:40:05.955Z</time></trkpt><trkpt lat="40.2155383" lon="15.0038933"><ele>56.5</ele><time>2026-04-25T12:40:06.957Z</time></trkpt><trkpt lat="40.215425" lon="15.0039883"><ele>62.25</ele><time>2026-04-25T12:40:07.992Z</time></trkpt><trkpt lat="40.2153233" lon="15.0040767"><ele>68.0</ele><time>2026-04-25T12:40:08.951Z</time></trkpt><trkpt lat="40.2152317" lon="15.004145"><ele>69.25</ele><time>2026-04-25T12:40:09.953Z</time></trkpt><trkpt lat="40.2151417" lon="15.0042"><ele>70.5</ele><time>2026-04-25T12:40:10.954Z</time></trkpt><trkpt lat="40.2150317" lon="15.0042433"><ele>71.75</ele><time>2026-04-25T12:40:11.949Z</time></trkpt><trkpt lat="40.214915" lon="15.004275"><ele>73.0</ele><time>2026-04-25T12:40:12.951Z</time></trkpt><trkpt lat="40.214795" lon="15.00428"><ele>73.0</ele><time>2026-04-25T12:40:13.992Z</time></trkpt><trkpt lat="40.214685" lon="15.0042767"><ele>73.0</ele><time>2026-04-25T12:40:14.946Z</time></trkpt><trkpt lat="40.214585" lon="15.0042483"><ele>73.0</ele><time>2026-04-25T12:40:15.949Z</time></trkpt><trkpt lat="40.2144917" lon="15.00422"><ele>73.0</ele><time>2026-04-25T12:40:16.951Z</time></trkpt><trkpt lat="40.2144217" lon="15.004215"><ele>73.0</ele><time>2026-04-25T12:40:17.955Z</time></trkpt><trkpt lat="40.214325" lon="15.0042433"><ele>73.0</ele><time>2026-04-25T12:40:19.993Z</time></trkpt><trkpt lat="40.2142483" lon="15.0043583"><ele>73.0</ele><time>2026-04-25T12:40:21.943Z</time></trkpt><trkpt lat="40.2142217" lon="15.004445"><ele>73.0</ele><time>2026-04-25T12:40:22.953Z</time></trkpt><trkpt lat="40.21417" lon="15.0045067"><ele>73.0</ele><time>2026-04-25T12:40:23.95Z</time></trkpt><trkpt lat="40.2141117" lon="15.004555"><ele>73.0</ele><time>2026-04-25T12:40:24.956Z</time></trkpt><trkpt lat="40.2140317" lon="15.00456"><ele>73.0</ele><time>2026-04-25T12:40:26.953Z</time></trkpt><trkpt lat="40.2140467" lon="15.0044717"><ele>73.0</ele><time>2026-04-25T12:40:30.957Z</time></trkpt><trkpt lat="40.2141483" lon="15.0043433"><ele>73.0</ele><time>2026-04-25T12:40:32.953Z</time></trkpt><trkpt lat="40.2141917" lon="15.0042467"><ele>73.0</ele><time>2026-04-25T12:40:33.949Z</time></trkpt><trkpt lat="40.2142317" lon="15.0040917"><ele>73.0</ele><time>2026-04-25T12:40:34.957Z</time></trkpt><trkpt lat="40.2142733" lon="15.0039467"><ele>75.6</ele><time>2026-04-25T12:40:35.951Z</time></trkpt><trkpt lat="40.2143217" lon="15.00382"><ele>78.19999999999999</ele><time>2026-04-25T12:40:36.958Z</time></trkpt><trkpt lat="40.2143617" lon="15.00371"><ele>80.8</ele><time>2026-04-25T12:40:37.989Z</time></trkpt><trkpt lat="40.2143883" lon="15.0036067"><ele>83.39999999999999</ele><time>2026-04-25T12:40:38.95Z</time></trkpt><trkpt lat="40.2144017" lon="15.003495"><ele>86.0</ele><time>2026-04-25T12:40:40.953Z</time></trkpt><trkpt lat="40.2143033" lon="15.00341"><ele>86.0</ele><time>2026-04-25T12:40:42.959Z</time></trkpt><trkpt lat="40.2142183" lon="15.0033717"><ele>86.0</ele><time>2026-04-25T12:40:43.987Z</time></trkpt><trkpt lat="40.2141067" lon="15.0033317"><ele>86.0</ele><time>2026-04-25T12:40:44.949Z</time></trkpt><trkpt lat="40.214005" lon="15.00331"><ele>86.0</ele><time>2026-04-25T12:40:45.948Z</time></trkpt><trkpt lat="40.213915" lon="15.0032983"><ele>86.0</ele><time>2026-04-25T12:40:46.949Z</time></trkpt><trkpt lat="40.213825" lon="15.0032967"><ele>87.5</ele><time>2026-04-25T12:40:47.944Z</time></trkpt><trkpt lat="40.2137117" lon="15.0033083"><ele>89.0</ele><time>2026-04-25T12:40:48.945Z</time></trkpt><trkpt lat="40.213635" lon="15.0032917"><ele>90.5</ele><time>2026-04-25T12:40:49.988Z</time></trkpt><trkpt lat="40.2135633" lon="15.0032517"><ele>92.0</ele><time>2026-04-25T12:40:50.945Z</time></trkpt><trkpt lat="40.213495" lon="15.003195"><ele>93.5</ele><time>2026-04-25T12:40:51.954Z</time></trkpt><trkpt lat="40.2134217" lon="15.0031317"><ele>95.0</ele><time>2026-04-25T12:40:52.952Z</time></trkpt><trkpt lat="40.21335" lon="15.003075"><ele>95.0</ele><time>2026-04-25T12:40:53.949Z</time></trkpt><trkpt lat="40.21327" lon="15.0030317"><ele>95.0</ele><time>2026-04-25T12:40:54.958Z</time></trkpt><trkpt lat="40.2131883" lon="15.0030017"><ele>95.0</ele><time>2026-04-25T12:40:55.992Z</time></trkpt><trkpt lat="40.21311" lon="15.0029833"><ele>95.0</ele><time>2026-04-25T12:40:56.958Z</time></trkpt><trkpt lat="40.2130333" lon="15.0029733"><ele>95.0</ele><time>2026-04-25T12:40:57.944Z</time></trkpt><trkpt lat="40.21296" lon="15.0029583"><ele>95.0</ele><time>2026-04-25T12:40:58.952Z</time></trkpt><trkpt lat="40.212895" lon="15.002935"><ele>94.5</ele><time>2026-04-25T12:40:59.95Z</time></trkpt><trkpt lat="40.21279" lon="15.0029167"><ele>94.0</ele><time>2026-04-25T12:41:01.993Z</time></trkpt><trkpt lat="40.212685" lon="15.0029767"><ele>93.5</ele><time>2026-04-25T12:41:03.953Z</time></trkpt><trkpt lat="40.2126317" lon="15.003025"><ele>93.0</ele><time>2026-04-25T12:41:04.956Z</time></trkpt><trkpt lat="40.2125667" lon="15.0030767"><ele>92.5</ele><time>2026-04-25T12:41:05.949Z</time></trkpt><trkpt lat="40.2125067" lon="15.0031217"><ele>92.0</ele><time>2026-04-25T12:41:06.954Z</time></trkpt><trkpt lat="40.212445" lon="15.0031633"><ele>92.0</ele><time>2026-04-25T12:41:07.998Z</time></trkpt><trkpt lat="40.212375" lon="15.003215"><ele>92.0</ele><time>2026-04-25T12:41:08.955Z</time></trkpt><trkpt lat="40.2122983" lon="15.0032817"><ele>92.0</ele><time>2026-04-25T12:41:09.951Z</time></trkpt><trkpt lat="40.212215" lon="15.0033567"><ele>92.0</ele><time>2026-04-25T12:41:10.955Z</time></trkpt><trkpt lat="40.2121317" lon="15.0034383"><ele>92.0</ele><time>2026-04-25T12:41:11.948Z</time></trkpt><trkpt lat="40.2120583" lon="15.0035133"><ele>95.5</ele><time>2026-04-25T12:41:12.958Z</time></trkpt><trkpt lat="40.2119967" lon="15.0035883"><ele>99.0</ele><time>2026-04-25T12:41:13.991Z</time></trkpt><trkpt lat="40.211945" lon="15.003665"><ele>102.5</ele><time>2026-04-25T12:41:14.947Z</time></trkpt><trkpt lat="40.2118983" lon="15.003755"><ele>106.0</ele><time>2026-04-25T12:41:15.948Z</time></trkpt><trkpt lat="40.21185" lon="15.0038617"><ele>109.49999999999999</ele><time>2026-04-25T12:41:16.948Z</time></trkpt><trkpt lat="40.2118033" lon="15.0039883"><ele>113.0</ele><time>2026-04-25T12:41:17.954Z</time></trkpt><trkpt lat="40.2117533" lon="15.0040933"><ele>113.66666666666666</ele><time>2026-04-25T12:41:18.956Z</time></trkpt><trkpt lat="40.211705" lon="15.0041883"><ele>114.33333333333333</ele><time>2026-04-25T12:41:19.994Z</time></trkpt><trkpt lat="40.2116517" lon="15.0042783"><ele>115.0</ele><time>2026-04-25T12:41:20.952Z</time></trkpt><trkpt lat="40.2116" lon="15.00437"><ele>115.66666666666666</ele><time>2026-04-25T12:41:21.953Z</time></trkpt><trkpt lat="40.21155" lon="15.0044467"><ele>116.33333333333333</ele><time>2026-04-25T12:41:22.958Z</time></trkpt><trkpt lat="40.2114983" lon="15.004505"><ele>117.0</ele><time>2026-04-25T12:41:23.946Z</time></trkpt><trkpt lat="40.2114383" lon="15.0045633"><ele>117.0</ele><time>2026-04-25T12:41:24.955Z</time></trkpt><trkpt lat="40.2113733" lon="15.0046283"><ele>116.99999999999999</ele><time>2026-04-25T12:41:25.99Z</time></trkpt><trkpt lat="40.21131" lon="15.004705"><ele>116.99999999999999</ele><time>2026-04-25T12:41:26.959Z</time></trkpt><trkpt lat="40.211235" lon="15.0047967"><ele>117.0</ele><time>2026-04-25T12:41:27.952Z</time></trkpt><trkpt lat="40.211155" lon="15.0048917"><ele>117.0</ele><time>2026-04-25T12:41:28.952Z</time></trkpt><trkpt lat="40.2110833" lon="15.00498"><ele>120.66666666666667</ele><time>2026-04-25T12:41:29.948Z</time></trkpt><trkpt lat="40.211015" lon="15.005045"><ele>124.33333333333334</ele><time>2026-04-25T12:41:30.951Z</time></trkpt><trkpt lat="40.2109417" lon="15.0051067"><ele>128.0</ele><time>2026-04-25T12:41:31.988Z</time></trkpt><trkpt lat="40.21087" lon="15.0051583"><ele>131.66666666666669</ele><time>2026-04-25T12:41:32.948Z</time></trkpt><trkpt lat="40.2108017" lon="15.0052017"><ele>135.33333333333334</ele><time>2026-04-25T12:41:33.951Z</time></trkpt><trkpt lat="40.21074" lon="15.0052417"><ele>139.0</ele><time>2026-04-25T12:41:34.95Z</time></trkpt><trkpt lat="40.2106783" lon="15.0052733"><ele>139.0</ele><time>2026-04-25T12:41:35.961Z</time></trkpt><trkpt lat="40.2105817" lon="15.0053333"><ele>139.0</ele><time>2026-04-25T12:41:37.989Z</time></trkpt><trkpt lat="40.2106583" lon="15.0052983"><ele>139.0</ele><time>2026-04-25T12:42:28.945Z</time></trkpt><trkpt lat="40.21072" lon="15.0052567"><ele>139.0</ele><time>2026-04-25T12:42:30.952Z</time></trkpt><trkpt lat="40.210805" lon="15.0051967"><ele>139.0</ele><time>2026-04-25T12:42:32.956Z</time></trkpt><trkpt lat="40.2108783" lon="15.0051317"><ele>139.0</ele><time>2026-04-25T12:42:34.954Z</time></trkpt><trkpt lat="40.210965" lon="15.00516"><ele>139.0</ele><time>2026-04-25T12:42:37.994Z</time></trkpt><trkpt lat="40.2110167" lon="15.0052267"><ele>139.0</ele><time>2026-04-25T12:42:39.952Z</time></trkpt><trkpt lat="40.2110883" lon="15.0053"><ele>139.0</ele><time>2026-04-25T12:42:42.954Z</time></trkpt><trkpt lat="40.2111283" lon="15.00538"><ele>139.0</ele><time>2026-04-25T12:42:44.948Z</time></trkpt><trkpt lat="40.2111633" lon="15.0054683"><ele>139.0</ele><time>2026-04-25T12:42:46.956Z</time></trkpt><trkpt lat="40.2111817" lon="15.0055867"><ele>139.0</ele><time>2026-04-25T12:42:48.96Z</time></trkpt><trkpt lat="40.2111583" lon="15.0057367"><ele>140.5</ele><time>2026-04-25T12:42:50.95Z</time></trkpt><trkpt lat="40.21114" lon="15.0058583"><ele>142.0</ele><time>2026-04-25T12:42:52.954Z</time></trkpt><trkpt lat="40.2111533" lon="15.0059583"><ele>143.5</ele><time>2026-04-25T12:42:54.96Z</time></trkpt><trkpt lat="40.211185" lon="15.0060667"><ele>145.0</ele><time>2026-04-25T12:42:56.954Z</time></trkpt><trkpt lat="40.2111867" lon="15.006185"><ele>146.5</ele><time>2026-04-25T12:42:58.958Z</time></trkpt><trkpt lat="40.2111683" lon="15.006285"><ele>148.0</ele><time>2026-04-25T12:43:00.957Z</time></trkpt><trkpt lat="40.211105" lon="15.0063617"><ele>148.0</ele><time>2026-04-25T12:43:02.946Z</time></trkpt><trkpt lat="40.2110083" lon="15.00646"><ele>148.0</ele><time>2026-04-25T12:43:04.952Z</time></trkpt><trkpt lat="40.210955" lon="15.0065067"><ele>148.0</ele><time>2026-04-25T12:43:05.951Z</time></trkpt><trkpt lat="40.2108967" lon="15.006545"><ele>148.0</ele><time>2026-04-25T12:43:06.954Z</time></trkpt><trkpt lat="40.2108417" lon="15.0065867"><ele>148.0</ele><time>2026-04-25T12:43:07.998Z</time></trkpt><trkpt lat="40.2107433" lon="15.0066783"><ele>148.0</ele><time>2026-04-25T12:43:09.95Z</time></trkpt><trkpt lat="40.2106467" lon="15.0067583"><ele>147.83333333333334</ele><time>2026-04-25T12:43:11.951Z</time></trkpt><trkpt lat="40.2105767" lon="15.0068417"><ele>147.66666666666669</ele><time>2026-04-25T12:43:13.99Z</time></trkpt><trkpt lat="40.210495" lon="15.0069083"><ele>147.5</ele><time>2026-04-25T12:43:15.945Z</time></trkpt><trkpt lat="40.2104567" lon="15.0069833"><ele>147.33333333333334</ele><time>2026-04-25T12:43:17.948Z</time></trkpt><trkpt lat="40.2104833" lon="15.007085"><ele>147.16666666666666</ele><time>2026-04-25T12:43:19.994Z</time></trkpt><trkpt lat="40.21053" lon="15.0071733"><ele>147.0</ele><time>2026-04-25T12:43:21.95Z</time></trkpt><trkpt lat="40.2106217" lon="15.007275"><ele>145.0</ele><time>2026-04-25T12:43:23.947Z</time></trkpt><trkpt lat="40.21069" lon="15.0073933"><ele>143.0</ele><time>2026-04-25T12:43:25.991Z</time></trkpt><trkpt lat="40.2107083" lon="15.0075467"><ele>141.0</ele><time>2026-04-25T12:43:27.953Z</time></trkpt><trkpt lat="40.2107067" lon="15.007635"><ele>139.0</ele><time>2026-04-25T12:43:28.955Z</time></trkpt><trkpt lat="40.210705" lon="15.0077867"><ele>137.0</ele><time>2026-04-25T12:43:30.956Z</time></trkpt><trkpt lat="40.2107367" lon="15.00791"><ele>137.0</ele><time>2026-04-25T12:43:32.952Z</time></trkpt><trkpt lat="40.2107817" lon="15.0080483"><ele>137.0</ele><time>2026-04-25T12:43:34.957Z</time></trkpt><trkpt lat="40.2107983" lon="15.0081933"><ele>137.0</ele><time>2026-04-25T12:43:36.954Z</time></trkpt><trkpt lat="40.2107867" lon="15.0082967"><ele>137.0</ele><time>2026-04-25T12:43:38.947Z</time></trkpt><trkpt lat="40.2106867" lon="15.008275"><ele>137.0</ele><time>2026-04-25T12:43:42.954Z</time></trkpt><trkpt lat="40.2105917" lon="15.0082033"><ele>141.0</ele><time>2026-04-25T12:43:44.954Z</time></trkpt><trkpt lat="40.2105417" lon="15.0081517"><ele>145.0</ele><time>2026-04-25T12:43:45.952Z</time></trkpt><trkpt lat="40.210435" lon="15.0080517"><ele>149.0</ele><time>2026-04-25T12:43:47.95Z</time></trkpt><trkpt lat="40.2103783" lon="15.008005"><ele>153.0</ele><time>2026-04-25T12:43:48.953Z</time></trkpt><trkpt lat="40.2103183" lon="15.0079683"><ele>157.0</ele><time>2026-04-25T12:43:49.991Z</time></trkpt><trkpt lat="40.210255" lon="15.0079483"><ele>161.0</ele><time>2026-04-25T12:43:50.948Z</time></trkpt><trkpt lat="40.210175" lon="15.007935"><ele>161.0</ele><time>2026-04-25T12:43:52.949Z</time></trkpt><trkpt lat="40.21016" lon="15.0080583"><ele>161.0</ele><time>2026-04-25T12:43:55.999Z</time></trkpt><trkpt lat="40.2101917" lon="15.0081317"><ele>161.0</ele><time>2026-04-25T12:43:56.951Z</time></trkpt><trkpt lat="40.2102233" lon="15.0082783"><ele>161.0</ele><time>2026-04-25T12:43:58.953Z</time></trkpt><trkpt lat="40.2102167" lon="15.0083717"><ele>161.0</ele><time>2026-04-25T12:44:00.948Z</time></trkpt><trkpt lat="40.2101533" lon="15.008395"><ele>161.0</ele><time>2026-04-25T12:44:04.944Z</time></trkpt><trkpt lat="40.210075" lon="15.00832"><ele>161.0</ele><time>2026-04-25T12:44:07.992Z</time></trkpt><trkpt lat="40.2099717" lon="15.0082567"><ele>161.0</ele><time>2026-04-25T12:44:09.953Z</time></trkpt><trkpt lat="40.2098767" lon="15.0082117"><ele>161.0</ele><time>2026-04-25T12:44:11.95Z</time></trkpt><trkpt lat="40.2098133" lon="15.0082933"><ele>161.0</ele><time>2026-04-25T12:44:14.947Z</time></trkpt><trkpt lat="40.2098333" lon="15.0084267"><ele>161.0</ele><time>2026-04-25T12:44:16.954Z</time></trkpt><trkpt lat="40.2098667" lon="15.0085633"><ele>159.83333333333331</ele><time>2026-04-25T12:44:18.955Z</time></trkpt><trkpt lat="40.209895" lon="15.0086933"><ele>158.66666666666666</ele><time>2026-04-25T12:44:20.944Z</time></trkpt><trkpt lat="40.2099167" lon="15.0087983"><ele>157.5</ele><time>2026-04-25T12:44:22.953Z</time></trkpt><trkpt lat="40.2098783" lon="15.008865"><ele>156.33333333333334</ele><time>2026-04-25T12:44:24.956Z</time></trkpt><trkpt lat="40.2098033" lon="15.0088883"><ele>155.16666666666669</ele><time>2026-04-25T12:44:26.949Z</time></trkpt><trkpt lat="40.209705" lon="15.0088867"><ele>154.0</ele><time>2026-04-25T12:44:28.951Z</time></trkpt><trkpt lat="40.2096033" lon="15.0089183"><ele>154.0</ele><time>2026-04-25T12:44:30.957Z</time></trkpt><trkpt lat="40.209535" lon="15.008985"><ele>154.0</ele><time>2026-04-25T12:44:32.943Z</time></trkpt><trkpt lat="40.20947" lon="15.0090783"><ele>154.0</ele><time>2026-04-25T12:44:34.951Z</time></trkpt><trkpt lat="40.2094383" lon="15.0092083"><ele>154.0</ele><time>2026-04-25T12:44:36.946Z</time></trkpt><trkpt lat="40.20943" lon="15.0093117"><ele>154.0</ele><time>2026-04-25T12:44:38.952Z</time></trkpt><trkpt lat="40.2094583" lon="15.009395"><ele>154.0</ele><time>2026-04-25T12:44:41.95Z</time></trkpt><trkpt lat="40.2095217" lon="15.0094667"><ele>158.5</ele><time>2026-04-25T12:44:47.945Z</time></trkpt><trkpt lat="40.2095483" lon="15.0095617"><ele>163.0</ele><time>2026-04-25T12:44:53.956Z</time></trkpt><trkpt lat="40.2094767" lon="15.009655"><ele>167.5</ele><time>2026-04-25T12:44:56.944Z</time></trkpt><trkpt lat="40.2094367" lon="15.00975"><ele>172.0</ele><time>2026-04-25T12:44:58.956Z</time></trkpt><trkpt lat="40.2094617" lon="15.0098733"><ele>176.5</ele><time>2026-04-25T12:45:18.955Z</time></trkpt><trkpt lat="40.2094333" lon="15.0099667"><ele>181.0</ele><time>2026-04-25T12:45:24.956Z</time></trkpt><trkpt lat="40.2093683" lon="15.0100633"><ele>185.4</ele><time>2026-04-25T12:45:27.956Z</time></trkpt><trkpt lat="40.2093117" lon="15.0101533"><ele>189.8</ele><time>2026-04-25T12:45:29.952Z</time></trkpt><trkpt lat="40.20925" lon="15.0102183"><ele>194.20000000000002</ele><time>2026-04-25T12:45:31.997Z</time></trkpt><trkpt lat="40.2091783" lon="15.0102967"><ele>198.60000000000002</ele><time>2026-04-25T12:45:34.95Z</time></trkpt><trkpt lat="40.2091483" lon="15.010415"><ele>203.0</ele><time>2026-04-25T12:45:36.956Z</time></trkpt><trkpt lat="40.2091467" lon="15.01057"><ele>203.0</ele><time>2026-04-25T12:45:38.951Z</time></trkpt><trkpt lat="40.2091433" lon="15.01066"><ele>203.0</ele><time>2026-04-25T12:45:39.948Z</time></trkpt><trkpt lat="40.20914" lon="15.01075"><ele>203.0</ele><time>2026-04-25T12:45:40.952Z</time></trkpt><trkpt lat="40.20914" lon="15.010845"><ele>203.0</ele><time>2026-04-25T12:45:41.952Z</time></trkpt><trkpt lat="40.2091417" lon="15.0109367"><ele>203.0</ele><time>2026-04-25T12:45:42.955Z</time></trkpt><trkpt lat="40.2091433" lon="15.0110217"><ele>203.0</ele><time>2026-04-25T12:45:43.992Z</time></trkpt><trkpt lat="40.2091217" lon="15.011155"><ele>203.0</ele><time>2026-04-25T12:45:45.95Z</time></trkpt><trkpt lat="40.2090867" lon="15.0112833"><ele>204.8</ele><time>2026-04-25T12:45:47.954Z</time></trkpt><trkpt lat="40.2090467" lon="15.01138"><ele>206.60000000000002</ele><time>2026-04-25T12:45:49.994Z</time></trkpt><trkpt lat="40.208985" lon="15.0114983"><ele>208.39999999999998</ele><time>2026-04-25T12:45:51.952Z</time></trkpt><trkpt lat="40.20894" lon="15.011625"><ele>210.2</ele><time>2026-04-25T12:45:53.947Z</time></trkpt><trkpt lat="40.208915" lon="15.0117667"><ele>212.0</ele><time>2026-04-25T12:45:55.991Z</time></trkpt><trkpt lat="40.208865" lon="15.0118967"><ele>219.16666666666669</ele><time>2026-04-25T12:45:57.952Z</time></trkpt><trkpt lat="40.2088283" lon="15.0119717"><ele>226.33333333333334</ele><time>2026-04-25T12:45:58.95Z</time></trkpt><trkpt lat="40.20879" lon="15.0120483"><ele>233.5</ele><time>2026-04-25T12:45:59.946Z</time></trkpt><trkpt lat="40.20875" lon="15.0121133"><ele>240.66666666666669</ele><time>2026-04-25T12:46:00.947Z</time></trkpt><trkpt lat="40.208675" lon="15.0121933"><ele>247.83333333333334</ele><time>2026-04-25T12:46:02.95Z</time></trkpt><trkpt lat="40.2087233" lon="15.0122633"><ele>255.0</ele><time>2026-04-25T12:46:11.949Z</time></trkpt><trkpt lat="40.2088233" lon="15.0123033"><ele>255.0</ele><time>2026-04-25T12:46:13.993Z</time></trkpt><trkpt lat="40.2088817" lon="15.0123367"><ele>255.0</ele><time>2026-04-25T12:46:14.953Z</time></trkpt><trkpt lat="40.2089817" lon="15.01244"><ele>255.0</ele><time>2026-04-25T12:46:16.955Z</time></trkpt><trkpt lat="40.2090317" lon="15.012515"><ele>255.0</ele><time>2026-04-25T12:46:17.948Z</time></trkpt><trkpt lat="40.2090717" lon="15.0125983"><ele>255.0</ele><time>2026-04-25T12:46:18.954Z</time></trkpt><trkpt lat="40.2091033" lon="15.01267"><ele>255.0</ele><time>2026-04-25T12:46:20Z</time></trkpt><trkpt lat="40.2091267" lon="15.0128067"><ele>260.3333333333333</ele><time>2026-04-25T12:46:21.949Z</time></trkpt><trkpt lat="40.2091017" lon="15.0129483"><ele>265.6666666666667</ele><time>2026-04-25T12:46:23.957Z</time></trkpt><trkpt lat="40.2090767" lon="15.013025"><ele>271.0</ele><time>2026-04-25T12:46:24.954Z</time></trkpt><trkpt lat="40.2090417" lon="15.0131017"><ele>276.33333333333337</ele><time>2026-04-25T12:46:25.999Z</time></trkpt><trkpt lat="40.20899" lon="15.0131817"><ele>281.6666666666667</ele><time>2026-04-25T12:46:26.946Z</time></trkpt><trkpt lat="40.2089017" lon="15.0132917"><ele>287.0</ele><time>2026-04-25T12:46:28.951Z</time></trkpt><trkpt lat="40.2088433" lon="15.013335"><ele>289.2857142857143</ele><time>2026-04-25T12:46:29.951Z</time></trkpt><trkpt lat="40.2087817" lon="15.013375"><ele>291.57142857142856</ele><time>2026-04-25T12:46:30.948Z</time></trkpt><trkpt lat="40.208715" lon="15.0134"><ele>293.8571428571429</ele><time>2026-04-25T12:46:32.001Z</time></trkpt><trkpt lat="40.2086483" lon="15.01343"><ele>296.1428571428571</ele><time>2026-04-25T12:46:32.953Z</time></trkpt><trkpt lat="40.2085767" lon="15.0134683"><ele>298.42857142857144</ele><time>2026-04-25T12:46:33.95Z</time></trkpt><trkpt lat="40.2085133" lon="15.0134917"><ele>300.7142857142857</ele><time>2026-04-25T12:46:34.949Z</time></trkpt><trkpt lat="40.2084383" lon="15.0135367"><ele>303.0</ele><time>2026-04-25T12:46:36.952Z</time></trkpt><trkpt lat="40.2084233" lon="15.0136683"><ele>303.0</ele><time>2026-04-25T12:46:38.954Z</time></trkpt><trkpt lat="40.2084167" lon="15.01377"><ele>303.0</ele><time>2026-04-25T12:46:39.952Z</time></trkpt><trkpt lat="40.2084067" lon="15.01392"><ele>303.0</ele><time>2026-04-25T12:46:40.953Z</time></trkpt><trkpt lat="40.208395" lon="15.014095"><ele>303.0</ele><time>2026-04-25T12:46:41.952Z</time></trkpt><trkpt lat="40.2083933" lon="15.0142867"><ele>304.5</ele><time>2026-04-25T12:46:42.956Z</time></trkpt><trkpt lat="40.2084" lon="15.0144867"><ele>306.0</ele><time>2026-04-25T12:46:43.998Z</time></trkpt><trkpt lat="40.208405" lon="15.0146767"><ele>307.5</ele><time>2026-04-25T12:46:44.95Z</time></trkpt><trkpt lat="40.2084017" lon="15.0148533"><ele>309.0</ele><time>2026-04-25T12:46:45.95Z</time></trkpt><trkpt lat="40.2084033" lon="15.0150183"><ele>309.0</ele><time>2026-04-25T12:46:46.96Z</time></trkpt><trkpt lat="40.2084167" lon="15.0151767"><ele>309.0</ele><time>2026-04-25T12:46:47.962Z</time></trkpt><trkpt lat="40.2084433" lon="15.0153267"><ele>309.0</ele><time>2026-04-25T12:46:48.958Z</time></trkpt><trkpt lat="40.2084817" lon="15.01547"><ele>309.0</ele><time>2026-04-25T12:46:49.99Z</time></trkpt><trkpt lat="40.2085233" lon="15.015615"><ele>309.0</ele><time>2026-04-25T12:46:50.947Z</time></trkpt><trkpt lat="40.2085683" lon="15.0157633"><ele>309.0</ele><time>2026-04-25T12:46:51.946Z</time></trkpt><trkpt lat="40.2086183" lon="15.0159183"><ele>309.0</ele><time>2026-04-25T12:46:52.942Z</time></trkpt><trkpt lat="40.208675" lon="15.016075"><ele>309.0</ele><time>2026-04-25T12:46:53.947Z</time></trkpt><trkpt lat="40.20874" lon="15.0162267"><ele>311.25</ele><time>2026-04-25T12:46:54.945Z</time></trkpt><trkpt lat="40.2087983" lon="15.0163717"><ele>313.5</ele><time>2026-04-25T12:46:55.992Z</time></trkpt><trkpt lat="40.2088483" lon="15.0165133"><ele>315.75</ele><time>2026-04-25T12:46:56.947Z</time></trkpt><trkpt lat="40.2088933" lon="15.0166517"><ele>318.0</ele><time>2026-04-25T12:46:57.952Z</time></trkpt><trkpt lat="40.2089383" lon="15.0167917"><ele>319.25</ele><time>2026-04-25T12:46:58.956Z</time></trkpt><trkpt lat="40.208985" lon="15.0169333"><ele>320.5</ele><time>2026-04-25T12:46:59.947Z</time></trkpt><trkpt lat="40.209035" lon="15.01707"><ele>321.75</ele><time>2026-04-25T12:47:00.956Z</time></trkpt><trkpt lat="40.2090917" lon="15.0171967"><ele>323.0</ele><time>2026-04-25T12:47:01.992Z</time></trkpt><trkpt lat="40.2091617" lon="15.0173133"><ele>319.4</ele><time>2026-04-25T12:47:02.944Z</time></trkpt><trkpt lat="40.2092483" lon="15.0174117"><ele>315.79999999999995</ele><time>2026-04-25T12:47:03.953Z</time></trkpt><trkpt lat="40.2093433" lon="15.01749"><ele>312.2</ele><time>2026-04-25T12:47:04.952Z</time></trkpt><trkpt lat="40.20944" lon="15.017545"><ele>308.6</ele><time>2026-04-25T12:47:05.947Z</time></trkpt><trkpt lat="40.20954" lon="15.017575"><ele>305.0</ele><time>2026-04-25T12:47:06.95Z</time></trkpt><trkpt lat="40.209635" lon="15.01757"><ele>305.0</ele><time>2026-04-25T12:47:07.989Z</time></trkpt><trkpt lat="40.2097283" lon="15.0175383"><ele>305.0</ele><time>2026-04-25T12:47:08.951Z</time></trkpt><trkpt lat="40.20983" lon="15.0174767"><ele>305.0</ele><time>2026-04-25T12:47:09.951Z</time></trkpt><trkpt lat="40.2099483" lon="15.017395"><ele>305.0</ele><time>2026-04-25T12:47:10.949Z</time></trkpt><trkpt lat="40.2100733" lon="15.0172733"><ele>299.25</ele><time>2026-04-25T12:47:11.948Z</time></trkpt><trkpt lat="40.210205" lon="15.0171533"><ele>293.5</ele><time>2026-04-25T12:47:12.955Z</time></trkpt><trkpt lat="40.2103283" lon="15.01706"><ele>287.75</ele><time>2026-04-25T12:47:13.991Z</time></trkpt><trkpt lat="40.21044" lon="15.0169933"><ele>282.0</ele><time>2026-04-25T12:47:14.945Z</time></trkpt><trkpt lat="40.21054" lon="15.0169433"><ele>282.0</ele><time>2026-04-25T12:47:15.945Z</time></trkpt><trkpt lat="40.210635" lon="15.01696"><ele>282.0</ele><time>2026-04-25T12:47:16.946Z</time></trkpt><trkpt lat="40.2107267" lon="15.016995"><ele>282.0</ele><time>2026-04-25T12:47:17.947Z</time></trkpt><trkpt lat="40.2108333" lon="15.017045"><ele>282.0</ele><time>2026-04-25T12:47:18.954Z</time></trkpt><trkpt lat="40.2109483" lon="15.0171033"><ele>282.0</ele><time>2026-04-25T12:47:19.991Z</time></trkpt><trkpt lat="40.2110583" lon="15.017155"><ele>281.0</ele><time>2026-04-25T12:47:20.948Z</time></trkpt><trkpt lat="40.2111583" lon="15.0172167"><ele>280.0</ele><time>2026-04-25T12:47:21.954Z</time></trkpt><trkpt lat="40.2112567" lon="15.017235"><ele>279.0</ele><time>2026-04-25T12:47:22.951Z</time></trkpt><trkpt lat="40.2113483" lon="15.01723"><ele>278.0</ele><time>2026-04-25T12:47:23.947Z</time></trkpt><trkpt lat="40.2114383" lon="15.0171967"><ele>277.0</ele><time>2026-04-25T12:47:24.952Z</time></trkpt><trkpt lat="40.211525" lon="15.0171317"><ele>274.25</ele><time>2026-04-25T12:47:25.993Z</time></trkpt><trkpt lat="40.2116217" lon="15.0170417"><ele>271.5</ele><time>2026-04-25T12:47:26.957Z</time></trkpt><trkpt lat="40.2117217" lon="15.0169517"><ele>268.75</ele><time>2026-04-25T12:47:27.949Z</time></trkpt><trkpt lat="40.21182" lon="15.0168633"><ele>266.0</ele><time>2026-04-25T12:47:28.945Z</time></trkpt><trkpt lat="40.211905" lon="15.0167633"><ele>266.0</ele><time>2026-04-25T12:47:29.95Z</time></trkpt><trkpt lat="40.2119833" lon="15.0166617"><ele>266.0</ele><time>2026-04-25T12:47:30.952Z</time></trkpt><trkpt lat="40.2120517" lon="15.0165767"><ele>266.0</ele><time>2026-04-25T12:47:31.997Z</time></trkpt><trkpt lat="40.21211" lon="15.01652"><ele>266.0</ele><time>2026-04-25T12:47:32.944Z</time></trkpt><trkpt lat="40.2121817" lon="15.01655"><ele>266.0</ele><time>2026-04-25T12:47:34.949Z</time></trkpt><trkpt lat="40.2122267" lon="15.01669"><ele>266.0</ele><time>2026-04-25T12:47:36.953Z</time></trkpt><trkpt lat="40.2121933" lon="15.0169183"><ele>266.0</ele><time>2026-04-25T12:47:37.986Z</time></trkpt><trkpt lat="40.2122167" lon="15.0170667"><ele>266.0</ele><time>2026-04-25T12:47:38.946Z</time></trkpt><trkpt lat="40.2122517" lon="15.0172317"><ele>266.0</ele><time>2026-04-25T12:47:39.948Z</time></trkpt><trkpt lat="40.2122883" lon="15.017395"><ele>267.75</ele><time>2026-04-25T12:47:40.948Z</time></trkpt><trkpt lat="40.2123117" lon="15.017565"><ele>269.5</ele><time>2026-04-25T12:47:41.95Z</time></trkpt><trkpt lat="40.21232" lon="15.0177333"><ele>271.25</ele><time>2026-04-25T12:47:42.952Z</time></trkpt><trkpt lat="40.21231" lon="15.0178883"><ele>273.0</ele><time>2026-04-25T12:47:43.989Z</time></trkpt><trkpt lat="40.2122833" lon="15.0180333"><ele>273.0</ele><time>2026-04-25T12:47:44.95Z</time></trkpt><trkpt lat="40.2122483" lon="15.0181783"><ele>273.0</ele><time>2026-04-25T12:47:45.945Z</time></trkpt><trkpt lat="40.2122117" lon="15.018315"><ele>273.0</ele><time>2026-04-25T12:47:46.95Z</time></trkpt><trkpt lat="40.2121817" lon="15.01845"><ele>273.0</ele><time>2026-04-25T12:47:47.948Z</time></trkpt><trkpt lat="40.2121417" lon="15.01858"><ele>273.0</ele><time>2026-04-25T12:47:48.953Z</time></trkpt><trkpt lat="40.2121" lon="15.0187083"><ele>272.6</ele><time>2026-04-25T12:47:49.99Z</time></trkpt><trkpt lat="40.21206" lon="15.018835"><ele>272.20000000000005</ele><time>2026-04-25T12:47:50.948Z</time></trkpt><trkpt lat="40.2120167" lon="15.018955"><ele>271.8</ele><time>2026-04-25T12:47:51.945Z</time></trkpt><trkpt lat="40.2119783" lon="15.019065"><ele>271.40000000000003</ele><time>2026-04-25T12:47:52.942Z</time></trkpt><trkpt lat="40.21195" lon="15.019165"><ele>271.0</ele><time>2026-04-25T12:47:53.947Z</time></trkpt><trkpt lat="40.2119433" lon="15.0192667"><ele>268.5</ele><time>2026-04-25T12:47:54.949Z</time></trkpt><trkpt lat="40.2119967" lon="15.0194033"><ele>266.0</ele><time>2026-04-25T12:47:56.946Z</time></trkpt><trkpt lat="40.2121033" lon="15.0195167"><ele>263.5</ele><time>2026-04-25T12:47:58.951Z</time></trkpt><trkpt lat="40.212185" lon="15.019595"><ele>261.0</ele><time>2026-04-25T12:47:59.948Z</time></trkpt><trkpt lat="40.21227" lon="15.0196917"><ele>255.4</ele><time>2026-04-25T12:48:00.942Z</time></trkpt><trkpt lat="40.2123417" lon="15.0197833"><ele>249.8</ele><time>2026-04-25T12:48:01.996Z</time></trkpt><trkpt lat="40.21241" lon="15.01987"><ele>244.20000000000002</ele><time>2026-04-25T12:48:02.942Z</time></trkpt><trkpt lat="40.2124717" lon="15.019935"><ele>238.60000000000002</ele><time>2026-04-25T12:48:03.951Z</time></trkpt><trkpt lat="40.2125933" lon="15.0198817"><ele>233.0</ele><time>2026-04-25T12:48:05.944Z</time></trkpt><trkpt lat="40.2126667" lon="15.0197617"><ele>233.00000000000003</ele><time>2026-04-25T12:48:07.997Z</time></trkpt><trkpt lat="40.2126267" lon="15.0196467"><ele>233.0</ele><time>2026-04-25T12:48:08.945Z</time></trkpt><trkpt lat="40.212625" lon="15.01955"><ele>233.0</ele><time>2026-04-25T12:48:09.949Z</time></trkpt><trkpt lat="40.2126317" lon="15.01946"><ele>233.0</ele><time>2026-04-25T12:48:10.95Z</time></trkpt><trkpt lat="40.2126633" lon="15.0193733"><ele>233.00000000000003</ele><time>2026-04-25T12:48:11.945Z</time></trkpt><trkpt lat="40.2127233" lon="15.01929"><ele>233.0</ele><time>2026-04-25T12:48:12.951Z</time></trkpt><trkpt lat="40.2128033" lon="15.0192133"><ele>233.0</ele><time>2026-04-25T12:48:13.993Z</time></trkpt><trkpt lat="40.2128933" lon="15.019155"><ele>233.0</ele><time>2026-04-25T12:48:14.951Z</time></trkpt><trkpt lat="40.212995" lon="15.0191267"><ele>233.0</ele><time>2026-04-25T12:48:15.954Z</time></trkpt><trkpt lat="40.2130867" lon="15.0191433"><ele>233.0</ele><time>2026-04-25T12:48:16.953Z</time></trkpt><trkpt lat="40.2131617" lon="15.0191683"><ele>233.0</ele><time>2026-04-25T12:48:17.948Z</time></trkpt><trkpt lat="40.2132383" lon="15.0191917"><ele>232.0</ele><time>2026-04-25T12:48:18.955Z</time></trkpt><trkpt lat="40.2133083" lon="15.019205"><ele>231.0</ele><time>2026-04-25T12:48:19.991Z</time></trkpt><trkpt lat="40.2133767" lon="15.0191983"><ele>230.0</ele><time>2026-04-25T12:48:20.949Z</time></trkpt><trkpt lat="40.2134417" lon="15.0191733"><ele>229.0</ele><time>2026-04-25T12:48:21.949Z</time></trkpt><trkpt lat="40.2134967" lon="15.01912"><ele>228.0</ele><time>2026-04-25T12:48:22.955Z</time></trkpt><trkpt lat="40.21355" lon="15.0190617"><ele>227.0</ele><time>2026-04-25T12:48:23.949Z</time></trkpt><trkpt lat="40.2135983" lon="15.0189933"><ele>226.0</ele><time>2026-04-25T12:48:24.953Z</time></trkpt><trkpt lat="40.2136467" lon="15.0189217"><ele>225.99999999999997</ele><time>2026-04-25T12:48:25.977Z</time></trkpt><trkpt lat="40.2136933" lon="15.018855"><ele>226.0</ele><time>2026-04-25T12:48:26.946Z</time></trkpt><trkpt lat="40.2137367" lon="15.0187867"><ele>226.0</ele><time>2026-04-25T12:48:27.947Z</time></trkpt><trkpt lat="40.2138167" lon="15.01867"><ele>226.0</ele><time>2026-04-25T12:48:29.948Z</time></trkpt><trkpt lat="40.21388" lon="15.018605"><ele>225.99999999999997</ele><time>2026-04-25T12:48:31.995Z</time></trkpt><trkpt lat="40.2139183" lon="15.0184867"><ele>226.0</ele><time>2026-04-25T12:49:36.949Z</time></trkpt><trkpt lat="40.2139283" lon="15.0183867"><ele>224.60000000000002</ele><time>2026-04-25T12:49:39.952Z</time></trkpt><trkpt lat="40.21394" lon="15.0182783"><ele>223.20000000000002</ele><time>2026-04-25T12:49:41.954Z</time></trkpt><trkpt lat="40.2139367" lon="15.01815"><ele>221.79999999999998</ele><time>2026-04-25T12:49:43.994Z</time></trkpt><trkpt lat="40.2139033" lon="15.017995"><ele>220.39999999999998</ele><time>2026-04-25T12:49:45.95Z</time></trkpt><trkpt lat="40.2138767" lon="15.0179033"><ele>219.0</ele><time>2026-04-25T12:49:46.941Z</time></trkpt><trkpt lat="40.2138433" lon="15.0178083"><ele>219.0</ele><time>2026-04-25T12:49:47.943Z</time></trkpt><trkpt lat="40.2138083" lon="15.0177067"><ele>219.0</ele><time>2026-04-25T12:49:48.956Z</time></trkpt><trkpt lat="40.2137767" lon="15.0176067"><ele>219.0</ele><time>2026-04-25T12:49:49.995Z</time></trkpt><trkpt lat="40.21376" lon="15.0175033"><ele>219.0</ele><time>2026-04-25T12:49:50.946Z</time></trkpt><trkpt lat="40.213765" lon="15.01741"><ele>219.0</ele><time>2026-04-25T12:49:51.949Z</time></trkpt><trkpt lat="40.2137783" lon="15.01732"><ele>219.0</ele><time>2026-04-25T12:49:52.955Z</time></trkpt><trkpt lat="40.2137983" lon="15.0172333"><ele>219.2</ele><time>2026-04-25T12:49:53.947Z</time></trkpt><trkpt lat="40.2138217" lon="15.0171567"><ele>219.39999999999998</ele><time>2026-04-25T12:49:54.95Z</time></trkpt><trkpt lat="40.2138733" lon="15.0170267"><ele>219.6</ele><time>2026-04-25T12:49:56.944Z</time></trkpt><trkpt lat="40.2139417" lon="15.016895"><ele>219.8</ele><time>2026-04-25T12:49:58.945Z</time></trkpt><trkpt lat="40.2139933" lon="15.0168067"><ele>220.0</ele><time>2026-04-25T12:49:59.943Z</time></trkpt><trkpt lat="40.214055" lon="15.0167033"><ele>217.83333333333331</ele><time>2026-04-25T12:50:00.944Z</time></trkpt><trkpt lat="40.2141083" lon="15.0166017"><ele>215.66666666666666</ele><time>2026-04-25T12:50:01.99Z</time></trkpt><trkpt lat="40.214155" lon="15.0165167"><ele>213.5</ele><time>2026-04-25T12:50:02.947Z</time></trkpt><trkpt lat="40.2141983" lon="15.0164467"><ele>211.33333333333331</ele><time>2026-04-25T12:50:03.953Z</time></trkpt><trkpt lat="40.21426" lon="15.0163417"><ele>209.16666666666666</ele><time>2026-04-25T12:50:05.95Z</time></trkpt><trkpt lat="40.2143133" lon="15.0162917"><ele>207.0</ele><time>2026-04-25T12:50:50.949Z</time></trkpt><trkpt lat="40.2143867" lon="15.016225"><ele>207.0</ele><time>2026-04-25T12:50:54.954Z</time></trkpt><trkpt lat="40.2144317" lon="15.0161567"><ele>207.0</ele><time>2026-04-25T12:50:56.948Z</time></trkpt><trkpt lat="40.214485" lon="15.0160917"><ele>207.0</ele><time>2026-04-25T12:50:58.946Z</time></trkpt><trkpt lat="40.2145483" lon="15.0160183"><ele>207.0</ele><time>2026-04-25T12:51:00.95Z</time></trkpt><trkpt lat="40.2146283" lon="15.0159233"><ele>207.0</ele><time>2026-04-25T12:51:02.944Z</time></trkpt><trkpt lat="40.2146783" lon="15.015865"><ele>207.0</ele><time>2026-04-25T12:51:03.951Z</time></trkpt><trkpt lat="40.214735" lon="15.0158"><ele>204.0</ele><time>2026-04-25T12:51:04.949Z</time></trkpt><trkpt lat="40.21479" lon="15.0157283"><ele>201.0</ele><time>2026-04-25T12:51:05.947Z</time></trkpt><trkpt lat="40.2148483" lon="15.015665"><ele>198.0</ele><time>2026-04-25T12:51:06.953Z</time></trkpt><trkpt lat="40.2148967" lon="15.0156033"><ele>195.0</ele><time>2026-04-25T12:51:07.999Z</time></trkpt><trkpt lat="40.2149633" lon="15.0155217"><ele>192.0</ele><time>2026-04-25T12:51:09.948Z</time></trkpt><trkpt lat="40.215025" lon="15.015575"><ele>189.0</ele><time>2026-04-25T12:51:13.997Z</time></trkpt><trkpt lat="40.2149883" lon="15.0156883"><ele>188.39999999999998</ele><time>2026-04-25T12:51:16.949Z</time></trkpt><trkpt lat="40.2149617" lon="15.01587"><ele>187.8</ele><time>2026-04-25T12:51:18.957Z</time></trkpt><trkpt lat="40.214955" lon="15.0159883"><ele>187.2</ele><time>2026-04-25T12:51:19.997Z</time></trkpt><trkpt lat="40.2149467" lon="15.0160933"><ele>186.60000000000002</ele><time>2026-04-25T12:51:20.948Z</time></trkpt><trkpt lat="40.2149667" lon="15.0162383"><ele>186.0</ele><time>2026-04-25T12:51:22.944Z</time></trkpt><trkpt lat="40.21503" lon="15.0163083"><ele>186.0</ele><time>2026-04-25T12:51:24.952Z</time></trkpt><trkpt lat="40.2151167" lon="15.01637"><ele>186.0</ele><time>2026-04-25T12:51:26.942Z</time></trkpt><trkpt lat="40.2152033" lon="15.0164233"><ele>186.0</ele><time>2026-04-25T12:51:28.956Z</time></trkpt><trkpt lat="40.215295" lon="15.0164317"><ele>186.0</ele><time>2026-04-25T12:51:30.95Z</time></trkpt><trkpt lat="40.21536" lon="15.0164017"><ele>186.0</ele><time>2026-04-25T12:51:32.948Z</time></trkpt><trkpt lat="40.2154117" lon="15.0163117"><ele>186.0</ele><time>2026-04-25T12:51:34.953Z</time></trkpt><trkpt lat="40.2154383" lon="15.0162333"><ele>186.0</ele><time>2026-04-25T12:51:35.951Z</time></trkpt><trkpt lat="40.2154767" lon="15.01611"><ele>186.0</ele><time>2026-04-25T12:51:36.953Z</time></trkpt><trkpt lat="40.215515" lon="15.0160083"><ele>186.0</ele><time>2026-04-25T12:51:37.995Z</time></trkpt><trkpt lat="40.2155517" lon="15.0159067"><ele>186.0</ele><time>2026-04-25T12:51:38.946Z</time></trkpt><trkpt lat="40.21562" lon="15.015805"><ele>186.0</ele><time>2026-04-25T12:51:40.95Z</time></trkpt><trkpt lat="40.2156033" lon="15.0161433"><ele>186.0</ele><time>2026-04-25T12:51:44.945Z</time></trkpt><trkpt lat="40.2156117" lon="15.0162383"><ele>186.0</ele><time>2026-04-25T12:51:45.945Z</time></trkpt><trkpt lat="40.2156367" lon="15.0163283"><ele>186.0</ele><time>2026-04-25T12:51:46.95Z</time></trkpt><trkpt lat="40.215685" lon="15.0164133"><ele>186.0</ele><time>2026-04-25T12:51:47.946Z</time></trkpt><trkpt lat="40.2157467" lon="15.016485"><ele>186.0</ele><time>2026-04-25T12:51:48.954Z</time></trkpt><trkpt lat="40.2158083" lon="15.016535"><ele>186.0</ele><time>2026-04-25T12:51:49.994Z</time></trkpt><trkpt lat="40.21592" lon="15.0165883"><ele>180.60000000000002</ele><time>2026-04-25T12:51:51.947Z</time></trkpt><trkpt lat="40.2159817" lon="15.0165067"><ele>175.20000000000002</ele><time>2026-04-25T12:51:54.951Z</time></trkpt><trkpt lat="40.2159367" lon="15.0163817"><ele>169.8</ele><time>2026-04-25T12:51:56.949Z</time></trkpt><trkpt lat="40.2158967" lon="15.0162983"><ele>164.4</ele><time>2026-04-25T12:51:57.951Z</time></trkpt><trkpt lat="40.215875" lon="15.016215"><ele>159.0</ele><time>2026-04-25T12:51:58.963Z</time></trkpt><trkpt lat="40.2158767" lon="15.016065"><ele>159.0</ele><time>2026-04-25T12:52:00.95Z</time></trkpt><trkpt lat="40.2159517" lon="15.0159033"><ele>159.0</ele><time>2026-04-25T12:52:02.948Z</time></trkpt><trkpt lat="40.216" lon="15.0158033"><ele>159.0</ele><time>2026-04-25T12:52:03.944Z</time></trkpt><trkpt lat="40.2160433" lon="15.0157033"><ele>159.0</ele><time>2026-04-25T12:52:04.951Z</time></trkpt><trkpt lat="40.216085" lon="15.015615"><ele>159.0</ele><time>2026-04-25T12:52:05.948Z</time></trkpt><trkpt lat="40.2161133" lon="15.0155317"><ele>159.8</ele><time>2026-04-25T12:52:06.952Z</time></trkpt><trkpt lat="40.2161817" lon="15.0154017"><ele>160.60000000000002</ele><time>2026-04-25T12:52:08.948Z</time></trkpt><trkpt lat="40.2162417" lon="15.015315"><ele>161.4</ele><time>2026-04-25T12:52:09.952Z</time></trkpt><trkpt lat="40.2163017" lon="15.0152283"><ele>162.20000000000002</ele><time>2026-04-25T12:52:10.952Z</time></trkpt><trkpt lat="40.21636" lon="15.0151433"><ele>163.0</ele><time>2026-04-25T12:52:11.946Z</time></trkpt><trkpt lat="40.2164217" lon="15.0150533"><ele>157.0</ele><time>2026-04-25T12:52:12.952Z</time></trkpt><trkpt lat="40.21647" lon="15.014965"><ele>151.0</ele><time>2026-04-25T12:52:13.989Z</time></trkpt><trkpt lat="40.2165167" lon="15.0148783"><ele>145.0</ele><time>2026-04-25T12:52:14.944Z</time></trkpt><trkpt lat="40.2165567" lon="15.0147983"><ele>139.0</ele><time>2026-04-25T12:52:15.945Z</time></trkpt><trkpt lat="40.2166133" lon="15.014865"><ele>133.0</ele><time>2026-04-25T12:52:22.955Z</time></trkpt><trkpt lat="40.2166167" lon="15.015055"><ele>132.20000000000002</ele><time>2026-04-25T12:52:24.948Z</time></trkpt><trkpt lat="40.21661" lon="15.0151833"><ele>131.4</ele><time>2026-04-25T12:52:25.99Z</time></trkpt><trkpt lat="40.2166183" lon="15.0153167"><ele>130.60000000000002</ele><time>2026-04-25T12:52:26.951Z</time></trkpt><trkpt lat="40.2166433" lon="15.0154317"><ele>129.8</ele><time>2026-04-25T12:52:27.949Z</time></trkpt><trkpt lat="40.216665" lon="15.0155483"><ele>129.0</ele><time>2026-04-25T12:52:28.952Z</time></trkpt><trkpt lat="40.21668" lon="15.015645"><ele>128.0</ele><time>2026-04-25T12:52:29.944Z</time></trkpt><trkpt lat="40.2167017" lon="15.0158233"><ele>127.0</ele><time>2026-04-25T12:52:42.954Z</time></trkpt><trkpt lat="40.216725" lon="15.01598"><ele>126.0</ele><time>2026-04-25T12:52:44.941Z</time></trkpt><trkpt lat="40.2167383" lon="15.016075"><ele>125.0</ele><time>2026-04-25T12:52:45.95Z</time></trkpt><trkpt lat="40.2167567" lon="15.016185"><ele>124.0</ele><time>2026-04-25T12:52:46.953Z</time></trkpt><trkpt lat="40.21678" lon="15.0163033"><ele>124.00000000000001</ele><time>2026-04-25T12:52:47.948Z</time></trkpt><trkpt lat="40.2168017" lon="15.0164133"><ele>124.0</ele><time>2026-04-25T12:52:48.953Z</time></trkpt><trkpt lat="40.21682" lon="15.0165183"><ele>124.0</ele><time>2026-04-25T12:52:49.999Z</time></trkpt><trkpt lat="40.21683" lon="15.0166167"><ele>124.0</ele><time>2026-04-25T12:52:50.946Z</time></trkpt><trkpt lat="40.216825" lon="15.0167033"><ele>124.00000000000001</ele><time>2026-04-25T12:52:51.953Z</time></trkpt><trkpt lat="40.21683" lon="15.0168167"><ele>124.0</ele><time>2026-04-25T12:52:53.942Z</time></trkpt><trkpt lat="40.2168967" lon="15.016765"><ele>124.0</ele><time>2026-04-25T12:52:56.946Z</time></trkpt><trkpt lat="40.2169617" lon="15.0166283"><ele>124.0</ele><time>2026-04-25T12:52:58.954Z</time></trkpt><trkpt lat="40.2170267" lon="15.016535"><ele>124.0</ele><time>2026-04-25T12:53:00.948Z</time></trkpt><trkpt lat="40.2170933" lon="15.0165783"><ele>124.0</ele><time>2026-04-25T12:53:03.948Z</time></trkpt><trkpt lat="40.2171233" lon="15.01673"><ele>124.0</ele><time>2026-04-25T12:53:05.951Z</time></trkpt><trkpt lat="40.2171533" lon="15.0168083"><ele>124.80000000000001</ele><time>2026-04-25T12:53:06.957Z</time></trkpt><trkpt lat="40.2172183" lon="15.0168583"><ele>125.60000000000001</ele><time>2026-04-25T12:53:07.992Z</time></trkpt><trkpt lat="40.2172983" lon="15.0169067"><ele>126.4</ele><time>2026-04-25T12:53:08.947Z</time></trkpt><trkpt lat="40.2174" lon="15.0169467"><ele>127.2</ele><time>2026-04-25T12:53:09.948Z</time></trkpt><trkpt lat="40.217535" lon="15.0169833"><ele>128.0</ele><time>2026-04-25T12:53:10.948Z</time></trkpt><trkpt lat="40.2176767" lon="15.0170067"><ele>125.2</ele><time>2026-04-25T12:53:11.95Z</time></trkpt><trkpt lat="40.2178133" lon="15.017015"><ele>122.4</ele><time>2026-04-25T12:53:12.952Z</time></trkpt><trkpt lat="40.2179283" lon="15.0170133"><ele>119.60000000000001</ele><time>2026-04-25T12:53:13.998Z</time></trkpt><trkpt lat="40.218025" lon="15.0170133"><ele>116.80000000000001</ele><time>2026-04-25T12:53:14.941Z</time></trkpt><trkpt lat="40.2180983" lon="15.01702"><ele>114.0</ele><time>2026-04-25T12:53:15.955Z</time></trkpt><trkpt lat="40.2181617" lon="15.017075"><ele>114.0</ele><time>2026-04-25T12:53:17.948Z</time></trkpt><trkpt lat="40.2181383" lon="15.0172333"><ele>114.0</ele><time>2026-04-25T12:53:19.995Z</time></trkpt><trkpt lat="40.2180933" lon="15.01732"><ele>114.0</ele><time>2026-04-25T12:53:20.941Z</time></trkpt><trkpt lat="40.2180467" lon="15.0173933"><ele>114.0</ele><time>2026-04-25T12:53:21.943Z</time></trkpt><trkpt lat="40.2179967" lon="15.0174517"><ele>114.0</ele><time>2026-04-25T12:53:22.953Z</time></trkpt><trkpt lat="40.21791" lon="15.0175517"><ele>114.6</ele><time>2026-04-25T12:53:24.954Z</time></trkpt><trkpt lat="40.2179517" lon="15.0176467"><ele>115.2</ele><time>2026-04-25T12:53:27.952Z</time></trkpt><trkpt lat="40.218015" lon="15.017665"><ele>115.79999999999998</ele><time>2026-04-25T12:53:28.95Z</time></trkpt><trkpt lat="40.2181033" lon="15.0176733"><ele>116.39999999999999</ele><time>2026-04-25T12:53:30.952Z</time></trkpt><trkpt lat="40.21807" lon="15.01782"><ele>117.0</ele><time>2026-04-25T12:53:33.95Z</time></trkpt><trkpt lat="40.2180633" lon="15.0179767"><ele>117.0</ele><time>2026-04-25T12:53:35.959Z</time></trkpt><trkpt lat="40.2180833" lon="15.0181117"><ele>117.0</ele><time>2026-04-25T12:53:36.954Z</time></trkpt><trkpt lat="40.2181267" lon="15.0182883"><ele>117.0</ele><time>2026-04-25T12:53:37.996Z</time></trkpt><trkpt lat="40.2181667" lon="15.01848"><ele>117.0</ele><time>2026-04-25T12:53:38.947Z</time></trkpt><trkpt lat="40.2182267" lon="15.018685"><ele>116.33333333333334</ele><time>2026-04-25T12:53:39.952Z</time></trkpt><trkpt lat="40.2182867" lon="15.0188983"><ele>115.66666666666667</ele><time>2026-04-25T12:53:40.949Z</time></trkpt><trkpt lat="40.21835" lon="15.01913"><ele>115.0</ele><time>2026-04-25T12:53:41.954Z</time></trkpt><trkpt lat="40.218425" lon="15.01938"><ele>115.0</ele><time>2026-04-25T12:53:42.947Z</time></trkpt><trkpt lat="40.2185083" lon="15.019635"><ele>115.0</ele><time>2026-04-25T12:53:43.994Z</time></trkpt><trkpt lat="40.21859" lon="15.0198783"><ele>115.0</ele><time>2026-04-25T12:53:44.944Z</time></trkpt><trkpt lat="40.2186617" lon="15.0200967"><ele>118.75</ele><time>2026-04-25T12:53:45.946Z</time></trkpt><trkpt lat="40.2187167" lon="15.020295"><ele>122.5</ele><time>2026-04-25T12:53:46.955Z</time></trkpt><trkpt lat="40.2187533" lon="15.0204833"><ele>126.25</ele><time>2026-04-25T12:53:47.949Z</time></trkpt><trkpt lat="40.21878" lon="15.0206517"><ele>130.0</ele><time>2026-04-25T12:53:48.951Z</time></trkpt><trkpt lat="40.2188167" lon="15.0208117"><ele>129.5</ele><time>2026-04-25T12:53:49.997Z</time></trkpt><trkpt lat="40.2188667" lon="15.02096"><ele>129.0</ele><time>2026-04-25T12:53:50.95Z</time></trkpt><trkpt lat="40.2189383" lon="15.021105"><ele>128.5</ele><time>2026-04-25T12:53:51.952Z</time></trkpt><trkpt lat="40.219005" lon="15.0212317"><ele>128.0</ele><time>2026-04-25T12:53:52.952Z</time></trkpt><trkpt lat="40.219065" lon="15.0213583"><ele>128.0</ele><time>2026-04-25T12:53:53.948Z</time></trkpt><trkpt lat="40.219115" lon="15.021485"><ele>128.0</ele><time>2026-04-25T12:53:54.951Z</time></trkpt><trkpt lat="40.2191433" lon="15.0216117"><ele>128.0</ele><time>2026-04-25T12:53:55.995Z</time></trkpt><trkpt lat="40.2191533" lon="15.02175"><ele>128.0</ele><time>2026-04-25T12:53:56.947Z</time></trkpt><trkpt lat="40.2191667" lon="15.0218783"><ele>128.0</ele><time>2026-04-25T12:53:57.945Z</time></trkpt><trkpt lat="40.2191867" lon="15.0219933"><ele>131.20000000000002</ele><time>2026-04-25T12:53:58.949Z</time></trkpt><trkpt lat="40.2192033" lon="15.0221117"><ele>134.4</ele><time>2026-04-25T12:53:59.949Z</time></trkpt><trkpt lat="40.2192517" lon="15.022225"><ele>137.60000000000002</ele><time>2026-04-25T12:54:00.957Z</time></trkpt><trkpt lat="40.2193083" lon="15.022335"><ele>140.8</ele><time>2026-04-25T12:54:01.994Z</time></trkpt><trkpt lat="40.219355" lon="15.0224433"><ele>144.0</ele><time>2026-04-25T12:54:02.948Z</time></trkpt><trkpt lat="40.2193917" lon="15.02256"><ele>148.5</ele><time>2026-04-25T12:54:03.946Z</time></trkpt><trkpt lat="40.219405" lon="15.0226983"><ele>153.0</ele><time>2026-04-25T12:54:04.954Z</time></trkpt><trkpt lat="40.2194167" lon="15.0228583"><ele>157.5</ele><time>2026-04-25T12:54:05.949Z</time></trkpt><trkpt lat="40.2194133" lon="15.0230367"><ele>162.0</ele><time>2026-04-25T12:54:06.944Z</time></trkpt><trkpt lat="40.219405" lon="15.0232167"><ele>164.8</ele><time>2026-04-25T12:54:07.999Z</time></trkpt><trkpt lat="40.219405" lon="15.0233567"><ele>167.6</ele><time>2026-04-25T12:54:08.946Z</time></trkpt><trkpt lat="40.2194183" lon="15.023475"><ele>170.4</ele><time>2026-04-25T12:54:09.949Z</time></trkpt><trkpt lat="40.2194767" lon="15.0235433"><ele>173.20000000000002</ele><time>2026-04-25T12:54:10.951Z</time></trkpt><trkpt lat="40.21954" lon="15.0236267"><ele>176.0</ele><time>2026-04-25T12:54:11.954Z</time></trkpt><trkpt lat="40.219605" lon="15.02371"><ele>176.0</ele><time>2026-04-25T12:54:12.947Z</time></trkpt><trkpt lat="40.21967" lon="15.0238017"><ele>176.0</ele><time>2026-04-25T12:54:13.993Z</time></trkpt><trkpt lat="40.21974" lon="15.023915"><ele>176.0</ele><time>2026-04-25T12:54:14.949Z</time></trkpt><trkpt lat="40.2198067" lon="15.02406"><ele>176.0</ele><time>2026-04-25T12:54:15.956Z</time></trkpt><trkpt lat="40.219835" lon="15.02424"><ele>175.5</ele><time>2026-04-25T12:54:16.953Z</time></trkpt><trkpt lat="40.2198433" lon="15.0244317"><ele>175.0</ele><time>2026-04-25T12:54:17.947Z</time></trkpt><trkpt lat="40.2198617" lon="15.02462"><ele>174.5</ele><time>2026-04-25T12:54:18.96Z</time></trkpt><trkpt lat="40.2198633" lon="15.0248167"><ele>174.0</ele><time>2026-04-25T12:54:19.994Z</time></trkpt><trkpt lat="40.2198383" lon="15.0250233"><ele>174.0</ele><time>2026-04-25T12:54:20.951Z</time></trkpt><trkpt lat="40.219825" lon="15.0252267"><ele>174.0</ele><time>2026-04-25T12:54:21.947Z</time></trkpt><trkpt lat="40.2198167" lon="15.0254267"><ele>174.0</ele><time>2026-04-25T12:54:22.943Z</time></trkpt><trkpt lat="40.21983" lon="15.0256183"><ele>174.0</ele><time>2026-04-25T12:54:23.951Z</time></trkpt><trkpt lat="40.219855" lon="15.0257933"><ele>174.0</ele><time>2026-04-25T12:54:24.956Z</time></trkpt><trkpt lat="40.2198683" lon="15.025955"><ele>174.0</ele><time>2026-04-25T12:54:25.994Z</time></trkpt><trkpt lat="40.2198733" lon="15.0260767"><ele>174.0</ele><time>2026-04-25T12:54:26.947Z</time></trkpt><trkpt lat="40.219855" lon="15.0261717"><ele>174.0</ele><time>2026-04-25T12:54:27.945Z</time></trkpt><trkpt lat="40.2198133" lon="15.0262633"><ele>182.0</ele><time>2026-04-25T12:54:28.944Z</time></trkpt><trkpt lat="40.21974" lon="15.02636"><ele>190.0</ele><time>2026-04-25T12:54:29.947Z</time></trkpt><trkpt lat="40.21964" lon="15.026465"><ele>198.0</ele><time>2026-04-25T12:54:30.953Z</time></trkpt><trkpt lat="40.2195317" lon="15.0265867"><ele>206.0</ele><time>2026-04-25T12:54:31.998Z</time></trkpt><trkpt lat="40.2194217" lon="15.0267283"><ele>206.0</ele><time>2026-04-25T12:54:32.945Z</time></trkpt><trkpt lat="40.219305" lon="15.02687"><ele>206.0</ele><time>2026-04-25T12:54:33.948Z</time></trkpt><trkpt lat="40.219195" lon="15.0269967"><ele>206.0</ele><time>2026-04-25T12:54:34.946Z</time></trkpt><trkpt lat="40.21911" lon="15.0271067"><ele>206.0</ele><time>2026-04-25T12:54:35.949Z</time></trkpt><trkpt lat="40.2190567" lon="15.0272133"><ele>206.0</ele><time>2026-04-25T12:54:36.948Z</time></trkpt><trkpt lat="40.2190217" lon="15.0273283"><ele>206.0</ele><time>2026-04-25T12:54:38.001Z</time></trkpt><trkpt lat="40.219005" lon="15.02744"><ele>206.0</ele><time>2026-04-25T12:54:38.941Z</time></trkpt><trkpt lat="40.2190017" lon="15.0275533"><ele>206.0</ele><time>2026-04-25T12:54:39.941Z</time></trkpt><trkpt lat="40.21903" lon="15.0276667"><ele>206.0</ele><time>2026-04-25T12:54:40.945Z</time></trkpt><trkpt lat="40.2191483" lon="15.0277233"><ele>206.25</ele><time>2026-04-25T12:54:41.948Z</time></trkpt><trkpt lat="40.21923" lon="15.027775"><ele>206.5</ele><time>2026-04-25T12:54:42.951Z</time></trkpt><trkpt lat="40.21933" lon="15.0278183"><ele>206.75</ele><time>2026-04-25T12:54:43.997Z</time></trkpt><trkpt lat="40.21948" lon="15.02783"><ele>207.0</ele><time>2026-04-25T12:54:44.947Z</time></trkpt><trkpt lat="40.219625" lon="15.0278317"><ele>207.0</ele><time>2026-04-25T12:54:45.946Z</time></trkpt><trkpt lat="40.21977" lon="15.027825"><ele>207.0</ele><time>2026-04-25T12:54:46.944Z</time></trkpt><trkpt lat="40.2199367" lon="15.0277967"><ele>207.0</ele><time>2026-04-25T12:54:47.945Z</time></trkpt><trkpt lat="40.2201183" lon="15.0277767"><ele>205.66666666666669</ele><time>2026-04-25T12:54:48.948Z</time></trkpt><trkpt lat="40.220305" lon="15.0277483"><ele>204.33333333333334</ele><time>2026-04-25T12:54:49.99Z</time></trkpt><trkpt lat="40.2204717" lon="15.0277267"><ele>203.0</ele><time>2026-04-25T12:54:50.942Z</time></trkpt><trkpt lat="40.2205783" lon="15.0277083"><ele>203.0</ele><time>2026-04-25T12:54:51.943Z</time></trkpt><trkpt lat="40.220655" lon="15.0276683"><ele>203.0</ele><time>2026-04-25T12:54:53.941Z</time></trkpt><trkpt lat="40.2205833" lon="15.0277533"><ele>203.0</ele><time>2026-04-25T12:55:00.948Z</time></trkpt><trkpt lat="40.2205233" lon="15.02778"><ele>203.0</ele><time>2026-04-25T12:55:02Z</time></trkpt><trkpt lat="40.2204067" lon="15.027845"><ele>203.0</ele><time>2026-04-25T12:55:03.949Z</time></trkpt><trkpt lat="40.2203117" lon="15.0279217"><ele>203.0</ele><time>2026-04-25T12:55:05.954Z</time></trkpt><trkpt lat="40.2202267" lon="15.02801"><ele>203.0</ele><time>2026-04-25T12:55:07.991Z</time></trkpt><trkpt lat="40.22013" lon="15.0281167"><ele>203.0</ele><time>2026-04-25T12:55:09.945Z</time></trkpt><trkpt lat="40.2200733" lon="15.0281717"><ele>203.0</ele><time>2026-04-25T12:55:10.954Z</time></trkpt><trkpt lat="40.2200183" lon="15.0282217"><ele>203.0</ele><time>2026-04-25T12:55:11.949Z</time></trkpt><trkpt lat="40.2199233" lon="15.02833"><ele>208.16666666666669</ele><time>2026-04-25T12:55:13.993Z</time></trkpt><trkpt lat="40.2198817" lon="15.0283967"><ele>213.33333333333334</ele><time>2026-04-25T12:55:14.948Z</time></trkpt><trkpt lat="40.2197933" lon="15.0285167"><ele>218.5</ele><time>2026-04-25T12:55:16.951Z</time></trkpt><trkpt lat="40.2197333" lon="15.0285717"><ele>223.66666666666669</ele><time>2026-04-25T12:55:17.95Z</time></trkpt><trkpt lat="40.2196733" lon="15.02863"><ele>228.83333333333334</ele><time>2026-04-25T12:55:18.954Z</time></trkpt><trkpt lat="40.2196067" lon="15.0286833"><ele>234.0</ele><time>2026-04-25T12:55:19.996Z</time></trkpt><trkpt lat="40.2195367" lon="15.0287367"><ele>234.0</ele><time>2026-04-25T12:55:20.946Z</time></trkpt><trkpt lat="40.2194633" lon="15.02878"><ele>234.0</ele><time>2026-04-25T12:55:21.95Z</time></trkpt><trkpt lat="40.219395" lon="15.0288183"><ele>234.0</ele><time>2026-04-25T12:55:22.945Z</time></trkpt><trkpt lat="40.219305" lon="15.0288783"><ele>234.0</ele><time>2026-04-25T12:55:24.954Z</time></trkpt><trkpt lat="40.2193733" lon="15.0289667"><ele>234.0</ele><time>2026-04-25T12:55:28.956Z</time></trkpt><trkpt lat="40.219465" lon="15.02898"><ele>234.0</ele><time>2026-04-25T12:55:30.953Z</time></trkpt><trkpt lat="40.2195783" lon="15.0290117"><ele>234.0</ele><time>2026-04-25T12:55:32.944Z</time></trkpt><trkpt lat="40.2196433" lon="15.0290283"><ele>234.00000000000003</ele><time>2026-04-25T12:55:33.944Z</time></trkpt><trkpt lat="40.21972" lon="15.029045"><ele>234.0</ele><time>2026-04-25T12:55:34.953Z</time></trkpt><trkpt lat="40.2197883" lon="15.0290483"><ele>234.0</ele><time>2026-04-25T12:55:35.945Z</time></trkpt><trkpt lat="40.2198617" lon="15.029045"><ele>234.00000000000003</ele><time>2026-04-25T12:55:36.953Z</time></trkpt><trkpt lat="40.2199333" lon="15.029025"><ele>234.0</ele><time>2026-04-25T12:55:37.998Z</time></trkpt><trkpt lat="40.22001" lon="15.0290067"><ele>234.0</ele><time>2026-04-25T12:55:38.946Z</time></trkpt><trkpt lat="40.2200767" lon="15.0290033"><ele>235.79999999999998</ele><time>2026-04-25T12:55:39.945Z</time></trkpt><trkpt lat="40.2201867" lon="15.0290467"><ele>237.59999999999997</ele><time>2026-04-25T12:55:41.948Z</time></trkpt><trkpt lat="40.2202533" lon="15.0291617"><ele>239.4</ele><time>2026-04-25T12:55:43.993Z</time></trkpt><trkpt lat="40.2202717" lon="15.0292567"><ele>241.2</ele><time>2026-04-25T12:55:44.949Z</time></trkpt><trkpt lat="40.2203067" lon="15.0293817"><ele>243.0</ele><time>2026-04-25T12:55:45.948Z</time></trkpt><trkpt lat="40.22035" lon="15.02951"><ele>250.60000000000002</ele><time>2026-04-25T12:55:46.951Z</time></trkpt><trkpt lat="40.2203967" lon="15.0296483"><ele>258.20000000000005</ele><time>2026-04-25T12:55:47.95Z</time></trkpt><trkpt lat="40.2204483" lon="15.02978"><ele>265.8</ele><time>2026-04-25T12:55:48.945Z</time></trkpt><trkpt lat="40.22051" lon="15.029895"><ele>273.40000000000003</ele><time>2026-04-25T12:55:49.995Z</time></trkpt><trkpt lat="40.22058" lon="15.0299983"><ele>281.0</ele><time>2026-04-25T12:55:50.947Z</time></trkpt><trkpt lat="40.220645" lon="15.030085"><ele>281.40000000000003</ele><time>2026-04-25T12:55:51.949Z</time></trkpt><trkpt lat="40.2207167" lon="15.0301617"><ele>281.8</ele><time>2026-04-25T12:55:52.961Z</time></trkpt><trkpt lat="40.2207867" lon="15.0302333"><ele>282.20000000000005</ele><time>2026-04-25T12:55:53.949Z</time></trkpt><trkpt lat="40.2208583" lon="15.0303017"><ele>282.6</ele><time>2026-04-25T12:55:54.951Z</time></trkpt><trkpt lat="40.2209317" lon="15.030375"><ele>283.0</ele><time>2026-04-25T12:55:55.993Z</time></trkpt><trkpt lat="40.2209967" lon="15.0304533"><ele>283.0</ele><time>2026-04-25T12:55:56.948Z</time></trkpt><trkpt lat="40.2210467" lon="15.0305267"><ele>283.0</ele><time>2026-04-25T12:55:57.946Z</time></trkpt><trkpt lat="40.2210817" lon="15.0306067"><ele>283.0</ele><time>2026-04-25T12:55:58.953Z</time></trkpt><trkpt lat="40.2211167" lon="15.030695"><ele>283.0</ele><time>2026-04-25T12:55:59.95Z</time></trkpt><trkpt lat="40.2211333" lon="15.0307817"><ele>283.0</ele><time>2026-04-25T12:56:00.951Z</time></trkpt><trkpt lat="40.22114" lon="15.030875"><ele>283.0</ele><time>2026-04-25T12:56:01.991Z</time></trkpt><trkpt lat="40.221145" lon="15.0309633"><ele>283.0</ele><time>2026-04-25T12:56:02.948Z</time></trkpt><trkpt lat="40.2211283" lon="15.0310917"><ele>283.0</ele><time>2026-04-25T12:56:04.952Z</time></trkpt><trkpt lat="40.2210833" lon="15.0311617"><ele>283.0</ele><time>2026-04-25T12:56:07.999Z</time></trkpt><trkpt lat="40.2209967" lon="15.0311367"><ele>283.0</ele><time>2026-04-25T12:56:09.952Z</time></trkpt><trkpt lat="40.2209317" lon="15.0310667"><ele>283.0</ele><time>2026-04-25T12:56:10.949Z</time></trkpt><trkpt lat="40.2208617" lon="15.0309767"><ele>283.0</ele><time>2026-04-25T12:56:11.946Z</time></trkpt><trkpt lat="40.2208033" lon="15.030895"><ele>283.0</ele><time>2026-04-25T12:56:12.952Z</time></trkpt><trkpt lat="40.22073" lon="15.0307883"><ele>289.8</ele><time>2026-04-25T12:56:13.997Z</time></trkpt><trkpt lat="40.2206467" lon="15.03068"><ele>296.6</ele><time>2026-04-25T12:56:14.946Z</time></trkpt><trkpt lat="40.2205883" lon="15.0305983"><ele>303.4</ele><time>2026-04-25T12:56:15.95Z</time></trkpt><trkpt lat="40.2205367" lon="15.03051"><ele>310.2</ele><time>2026-04-25T12:56:16.952Z</time></trkpt><trkpt lat="40.220475" lon="15.030405"><ele>317.0</ele><time>2026-04-25T12:56:17.948Z</time></trkpt><trkpt lat="40.22041" lon="15.030295"><ele>317.0</ele><time>2026-04-25T12:56:18.954Z</time></trkpt><trkpt lat="40.2203283" lon="15.0302"><ele>317.0</ele><time>2026-04-25T12:56:19.994Z</time></trkpt><trkpt lat="40.2202183" lon="15.0301117"><ele>317.0</ele><time>2026-04-25T12:56:20.945Z</time></trkpt><trkpt lat="40.2201317" lon="15.0300333"><ele>317.0</ele><time>2026-04-25T12:56:21.953Z</time></trkpt><trkpt lat="40.2200633" lon="15.0299617"><ele>317.0</ele><time>2026-04-25T12:56:22.953Z</time></trkpt><trkpt lat="40.219985" lon="15.0299"><ele>311.0</ele><time>2026-04-25T12:56:23.95Z</time></trkpt><trkpt lat="40.2199233" lon="15.029845"><ele>305.0</ele><time>2026-04-25T12:56:24.952Z</time></trkpt><trkpt lat="40.2198733" lon="15.0297933"><ele>299.0</ele><time>2026-04-25T12:56:25.993Z</time></trkpt><trkpt lat="40.2198233" lon="15.0297317"><ele>293.0</ele><time>2026-04-25T12:56:27.942Z</time></trkpt><trkpt lat="40.2197533" lon="15.0296467"><ele>287.0</ele><time>2026-04-25T12:56:43.996Z</time></trkpt><trkpt lat="40.2196617" lon="15.0296567"><ele>281.0</ele><time>2026-04-25T12:56:45.947Z</time></trkpt><trkpt lat="40.21957" lon="15.029725"><ele>280.0</ele><time>2026-04-25T12:56:47.948Z</time></trkpt><trkpt lat="40.219515" lon="15.029775"><ele>279.0</ele><time>2026-04-25T12:56:48.953Z</time></trkpt><trkpt lat="40.2194417" lon="15.0298167"><ele>278.0</ele><time>2026-04-25T12:56:49.996Z</time></trkpt><trkpt lat="40.219375" lon="15.02986"><ele>277.0</ele><time>2026-04-25T12:56:50.946Z</time></trkpt><trkpt lat="40.21932" lon="15.0299183"><ele>276.0</ele><time>2026-04-25T12:56:51.951Z</time></trkpt><trkpt lat="40.2192733" lon="15.0299933"><ele>275.0</ele><time>2026-04-25T12:56:52.948Z</time></trkpt><trkpt lat="40.2192267" lon="15.03009"><ele>277.1666666666667</ele><time>2026-04-25T12:56:53.951Z</time></trkpt><trkpt lat="40.21917" lon="15.03018"><ele>279.33333333333337</ele><time>2026-04-25T12:56:54.952Z</time></trkpt><trkpt lat="40.21911" lon="15.0302633"><ele>281.5</ele><time>2026-04-25T12:56:55.993Z</time></trkpt><trkpt lat="40.2190517" lon="15.0303433"><ele>283.6666666666667</ele><time>2026-04-25T12:56:56.946Z</time></trkpt><trkpt lat="40.2189833" lon="15.0303967"><ele>285.8333333333333</ele><time>2026-04-25T12:56:57.945Z</time></trkpt><trkpt lat="40.2189083" lon="15.030415"><ele>288.0</ele><time>2026-04-25T12:56:58.949Z</time></trkpt><trkpt lat="40.2188333" lon="15.0304317"><ele>288.0</ele><time>2026-04-25T12:56:59.95Z</time></trkpt><trkpt lat="40.218765" lon="15.0304467"><ele>288.0</ele><time>2026-04-25T12:57:00.954Z</time></trkpt><trkpt lat="40.2186983" lon="15.03047"><ele>288.0</ele><time>2026-04-25T12:57:01.994Z</time></trkpt><trkpt lat="40.218605" lon="15.0305433"><ele>288.0</ele><time>2026-04-25T12:57:03.95Z</time></trkpt><trkpt lat="40.218535" lon="15.030695"><ele>288.0</ele><time>2026-04-25T12:57:13.992Z</time></trkpt><trkpt lat="40.218485" lon="15.0308583"><ele>292.28571428571433</ele><time>2026-04-25T12:57:15.948Z</time></trkpt><trkpt lat="40.21845" lon="15.0309433"><ele>296.57142857142856</ele><time>2026-04-25T12:57:16.95Z</time></trkpt><trkpt lat="40.2184133" lon="15.031025"><ele>300.8571428571429</ele><time>2026-04-25T12:57:17.945Z</time></trkpt><trkpt lat="40.21836" lon="15.031075"><ele>305.14285714285717</ele><time>2026-04-25T12:57:18.953Z</time></trkpt><trkpt lat="40.2182967" lon="15.0311017"><ele>309.42857142857144</ele><time>2026-04-25T12:57:19.998Z</time></trkpt><trkpt lat="40.2182333" lon="15.031115"><ele>313.7142857142857</ele><time>2026-04-25T12:57:20.943Z</time></trkpt><trkpt lat="40.2181683" lon="15.0311133"><ele>318.0</ele><time>2026-04-25T12:57:21.951Z</time></trkpt><trkpt lat="40.2180783" lon="15.0310983"><ele>318.0</ele><time>2026-04-25T12:57:23.949Z</time></trkpt><trkpt lat="40.21802" lon="15.03106"><ele>318.0</ele><time>2026-04-25T12:57:56.957Z</time></trkpt><trkpt lat="40.2181233" lon="15.0310933"><ele>318.0</ele><time>2026-04-25T12:57:58.952Z</time></trkpt><trkpt lat="40.2182317" lon="15.0311267"><ele>318.0</ele><time>2026-04-25T12:58:00.946Z</time></trkpt><trkpt lat="40.2183233" lon="15.0311333"><ele>318.0</ele><time>2026-04-25T12:58:02.948Z</time></trkpt><trkpt lat="40.21841" lon="15.0310633"><ele>318.2857142857143</ele><time>2026-04-25T12:58:04.955Z</time></trkpt><trkpt lat="40.218455" lon="15.031"><ele>318.5714285714286</ele><time>2026-04-25T12:58:05.948Z</time></trkpt><trkpt lat="40.21849" lon="15.03091"><ele>318.8571428571429</ele><time>2026-04-25T12:58:06.953Z</time></trkpt><trkpt lat="40.2185217" lon="15.0308167"><ele>319.1428571428571</ele><time>2026-04-25T12:58:07.994Z</time></trkpt><trkpt lat="40.218555" lon="15.03073"><ele>319.42857142857144</ele><time>2026-04-25T12:58:08.945Z</time></trkpt><trkpt lat="40.2185883" lon="15.0306567"><ele>319.7142857142857</ele><time>2026-04-25T12:58:09.944Z</time></trkpt><trkpt lat="40.21865" lon="15.0305767"><ele>320.0</ele><time>2026-04-25T12:58:11.944Z</time></trkpt><trkpt lat="40.2187117" lon="15.0305283"><ele>318.4</ele><time>2026-04-25T12:58:13.997Z</time></trkpt><trkpt lat="40.21881" lon="15.0305017"><ele>316.8</ele><time>2026-04-25T12:58:16.95Z</time></trkpt><trkpt lat="40.2189267" lon="15.030485"><ele>315.2</ele><time>2026-04-25T12:58:18.946Z</time></trkpt><trkpt lat="40.2189917" lon="15.03047"><ele>313.6</ele><time>2026-04-25T12:58:20.002Z</time></trkpt><trkpt lat="40.2190917" lon="15.0304217"><ele>312.0</ele><time>2026-04-25T12:58:21.958Z</time></trkpt><trkpt lat="40.2191433" lon="15.03037"><ele>312.0</ele><time>2026-04-25T12:58:22.948Z</time></trkpt><trkpt lat="40.219235" lon="15.030175"><ele>312.0</ele><time>2026-04-25T12:58:25.996Z</time></trkpt><trkpt lat="40.2193117" lon="15.0300583"><ele>312.0</ele><time>2026-04-25T12:58:27.949Z</time></trkpt><trkpt lat="40.2194067" lon="15.0299733"><ele>312.0</ele><time>2026-04-25T12:58:29.944Z</time></trkpt><trkpt lat="40.2194833" lon="15.0298733"><ele>306.8333333333333</ele><time>2026-04-25T12:58:31.992Z</time></trkpt><trkpt lat="40.2195533" lon="15.0298033"><ele>301.6666666666667</ele><time>2026-04-25T12:58:33.951Z</time></trkpt><trkpt lat="40.2196283" lon="15.0297833"><ele>296.5</ele><time>2026-04-25T12:58:36.948Z</time></trkpt><trkpt lat="40.2197217" lon="15.0297883"><ele>291.33333333333337</ele><time>2026-04-25T12:58:39.945Z</time></trkpt><trkpt lat="40.21979" lon="15.0298033"><ele>286.1666666666667</ele><time>2026-04-25T12:58:41.951Z</time></trkpt><trkpt lat="40.219855" lon="15.0298483"><ele>281.0</ele><time>2026-04-25T12:58:43.995Z</time></trkpt><trkpt lat="40.2199283" lon="15.0299"><ele>281.0</ele><time>2026-04-25T12:58:45.947Z</time></trkpt><trkpt lat="40.21999" lon="15.0299483"><ele>281.0</ele><time>2026-04-25T12:58:47.949Z</time></trkpt><trkpt lat="40.2199383" lon="15.02989"><ele>281.0</ele><time>2026-04-25T12:59:01.989Z</time></trkpt><trkpt lat="40.219865" lon="15.0298367"><ele>281.0</ele><time>2026-04-25T12:59:03.942Z</time></trkpt><trkpt lat="40.2197883" lon="15.0298167"><ele>281.0</ele><time>2026-04-25T12:59:05.944Z</time></trkpt><trkpt lat="40.2196917" lon="15.0298317"><ele>281.0</ele><time>2026-04-25T12:59:07.998Z</time></trkpt><trkpt lat="40.2196017" lon="15.0298617"><ele>279.8</ele><time>2026-04-25T12:59:09.942Z</time></trkpt><trkpt lat="40.219525" lon="15.0299117"><ele>278.6</ele><time>2026-04-25T12:59:11.949Z</time></trkpt><trkpt lat="40.219435" lon="15.0299417"><ele>277.4</ele><time>2026-04-25T12:59:13.995Z</time></trkpt><trkpt lat="40.2193317" lon="15.0299833"><ele>276.2</ele><time>2026-04-25T12:59:15.946Z</time></trkpt><trkpt lat="40.2192483" lon="15.030055"><ele>275.0</ele><time>2026-04-25T12:59:17.947Z</time></trkpt><trkpt lat="40.2191983" lon="15.0301433"><ele>277.6</ele><time>2026-04-25T12:59:19.994Z</time></trkpt><trkpt lat="40.2191383" lon="15.030235"><ele>280.2</ele><time>2026-04-25T12:59:21.944Z</time></trkpt><trkpt lat="40.2190433" lon="15.0303383"><ele>282.8</ele><time>2026-04-25T12:59:23.943Z</time></trkpt><trkpt lat="40.2189833" lon="15.0303767"><ele>285.4</ele><time>2026-04-25T12:59:24.955Z</time></trkpt><trkpt lat="40.21888" lon="15.0304617"><ele>288.0</ele><time>2026-04-25T12:59:26.949Z</time></trkpt><trkpt lat="40.2187683" lon="15.0304883"><ele>288.0</ele><time>2026-04-25T12:59:28.949Z</time></trkpt><trkpt lat="40.2186683" lon="15.0305233"><ele>288.0</ele><time>2026-04-25T12:59:30.95Z</time></trkpt><trkpt lat="40.218605" lon="15.030585"><ele>288.0</ele><time>2026-04-25T12:59:32.947Z</time></trkpt><trkpt lat="40.2185583" lon="15.03068"><ele>288.0</ele><time>2026-04-25T12:59:35.947Z</time></trkpt><trkpt lat="40.2185117" lon="15.03078"><ele>288.0</ele><time>2026-04-25T12:59:37.989Z</time></trkpt><trkpt lat="40.21847" lon="15.0308483"><ele>288.0</ele><time>2026-04-25T12:59:39.948Z</time></trkpt><trkpt lat="40.21845" lon="15.03077"><ele>288.0</ele><time>2026-04-25T12:59:45.944Z</time></trkpt><trkpt lat="40.2184683" lon="15.0306333"><ele>288.0</ele><time>2026-04-25T12:59:47.953Z</time></trkpt><trkpt lat="40.2185067" lon="15.030555"><ele>288.0</ele><time>2026-04-25T12:59:48.953Z</time></trkpt><trkpt lat="40.2185567" lon="15.0304933"><ele>288.0</ele><time>2026-04-25T12:59:49.994Z</time></trkpt><trkpt lat="40.218635" lon="15.0304133"><ele>288.0</ele><time>2026-04-25T12:59:51.941Z</time></trkpt><trkpt lat="40.2187233" lon="15.0303767"><ele>288.0</ele><time>2026-04-25T12:59:53.948Z</time></trkpt><trkpt lat="40.218815" lon="15.03032"><ele>288.0</ele><time>2026-04-25T12:59:56.005Z</time></trkpt><trkpt lat="40.2189083" lon="15.030245"><ele>288.0</ele><time>2026-04-25T12:59:57.949Z</time></trkpt><trkpt lat="40.218975" lon="15.0301783"><ele>288.0</ele><time>2026-04-25T12:59:59.945Z</time></trkpt><trkpt lat="40.2188817" lon="15.0301167"><ele>288.0</ele><time>2026-04-25T13:00:03.939Z</time></trkpt><trkpt lat="40.2188133" lon="15.0301067"><ele>288.0</ele><time>2026-04-25T13:00:04.947Z</time></trkpt><trkpt lat="40.218725" lon="15.030095"><ele>288.0</ele><time>2026-04-25T13:00:05.946Z</time></trkpt><trkpt lat="40.2186417" lon="15.030075"><ele>288.0</ele><time>2026-04-25T13:00:06.95Z</time></trkpt><trkpt lat="40.218555" lon="15.030045"><ele>288.0</ele><time>2026-04-25T13:00:07.993Z</time></trkpt><trkpt lat="40.2184833" lon="15.0300183"><ele>288.0</ele><time>2026-04-25T13:00:08.944Z</time></trkpt><trkpt lat="40.21842" lon="15.0299983"><ele>288.0</ele><time>2026-04-25T13:00:09.944Z</time></trkpt><trkpt lat="40.2183133" lon="15.0300233"><ele>288.0</ele><time>2026-04-25T13:00:11.948Z</time></trkpt><trkpt lat="40.2182067" lon="15.030095"><ele>289.1666666666667</ele><time>2026-04-25T13:00:13.992Z</time></trkpt><trkpt lat="40.2181433" lon="15.0302083"><ele>290.3333333333333</ele><time>2026-04-25T13:00:15.941Z</time></trkpt><trkpt lat="40.2181" lon="15.030275"><ele>291.5</ele><time>2026-04-25T13:00:17.951Z</time></trkpt><trkpt lat="40.2180383" lon="15.03024"><ele>292.66666666666663</ele><time>2026-04-25T13:00:21.942Z</time></trkpt><trkpt lat="40.2179917" lon="15.0301667"><ele>293.8333333333333</ele><time>2026-04-25T13:00:23.95Z</time></trkpt><trkpt lat="40.21792" lon="15.03006"><ele>295.0</ele><time>2026-04-25T13:00:26.005Z</time></trkpt><trkpt lat="40.2178583" lon="15.0299517"><ele>291.4</ele><time>2026-04-25T13:00:27.949Z</time></trkpt><trkpt lat="40.2177983" lon="15.0298517"><ele>287.8</ele><time>2026-04-25T13:00:29.941Z</time></trkpt><trkpt lat="40.2177283" lon="15.02976"><ele>284.2</ele><time>2026-04-25T13:00:31.991Z</time></trkpt><trkpt lat="40.2177217" lon="15.02966"><ele>280.6</ele><time>2026-04-25T13:00:34.95Z</time></trkpt><trkpt lat="40.2178233" lon="15.02965"><ele>277.0</ele><time>2026-04-25T13:00:37.988Z</time></trkpt><trkpt lat="40.217905" lon="15.0296517"><ele>277.0</ele><time>2026-04-25T13:00:39.948Z</time></trkpt><trkpt lat="40.217995" lon="15.029635"><ele>277.0</ele><time>2026-04-25T13:00:41.945Z</time></trkpt><trkpt lat="40.2180517" lon="15.02957"><ele>277.0</ele><time>2026-04-25T13:00:44.944Z</time></trkpt><trkpt lat="40.217955" lon="15.0294833"><ele>277.0</ele><time>2026-04-25T13:00:47.948Z</time></trkpt><trkpt lat="40.2178933" lon="15.0294517"><ele>277.0</ele><time>2026-04-25T13:00:48.946Z</time></trkpt><trkpt lat="40.2178" lon="15.0293867"><ele>277.0</ele><time>2026-04-25T13:00:50.943Z</time></trkpt><trkpt lat="40.2177433" lon="15.029295"><ele>277.0</ele><time>2026-04-25T13:00:52.943Z</time></trkpt><trkpt lat="40.21771" lon="15.0292183"><ele>277.0</ele><time>2026-04-25T13:00:53.947Z</time></trkpt><trkpt lat="40.2176967" lon="15.0291033"><ele>277.0</ele><time>2026-04-25T13:00:54.943Z</time></trkpt><trkpt lat="40.2176833" lon="15.0289867"><ele>277.0</ele><time>2026-04-25T13:00:55.969Z</time></trkpt><trkpt lat="40.2176667" lon="15.0288733"><ele>277.0</ele><time>2026-04-25T13:00:56.95Z</time></trkpt><trkpt lat="40.2176467" lon="15.0287667"><ele>275.66666666666663</ele><time>2026-04-25T13:00:57.944Z</time></trkpt><trkpt lat="40.2176267" lon="15.028665"><ele>274.3333333333333</ele><time>2026-04-25T13:00:58.952Z</time></trkpt><trkpt lat="40.2175917" lon="15.0285783"><ele>273.0</ele><time>2026-04-25T13:00:59.948Z</time></trkpt><trkpt lat="40.2175467" lon="15.0285033"><ele>271.6666666666667</ele><time>2026-04-25T13:01:00.951Z</time></trkpt><trkpt lat="40.2174983" lon="15.02842"><ele>270.33333333333337</ele><time>2026-04-25T13:01:01.996Z</time></trkpt><trkpt lat="40.2174567" lon="15.0283367"><ele>269.0</ele><time>2026-04-25T13:01:02.947Z</time></trkpt><trkpt lat="40.2174" lon="15.0282067"><ele>268.6666666666667</ele><time>2026-04-25T13:01:04.952Z</time></trkpt><trkpt lat="40.2173317" lon="15.0281467"><ele>268.33333333333337</ele><time>2026-04-25T13:01:06.949Z</time></trkpt><trkpt lat="40.21726" lon="15.0281817"><ele>268.0</ele><time>2026-04-25T13:01:09.951Z</time></trkpt><trkpt lat="40.21725" lon="15.0282717"><ele>267.6666666666667</ele><time>2026-04-25T13:01:11.948Z</time></trkpt><trkpt lat="40.2172467" lon="15.0283667"><ele>267.3333333333333</ele><time>2026-04-25T13:01:14.941Z</time></trkpt><trkpt lat="40.2172067" lon="15.02827"><ele>267.0</ele><time>2026-04-25T13:01:22.956Z</time></trkpt><trkpt lat="40.21717" lon="15.0281867"><ele>271.5</ele><time>2026-04-25T13:01:24.946Z</time></trkpt><trkpt lat="40.217145" lon="15.0281083"><ele>276.0</ele><time>2026-04-25T13:01:26.947Z</time></trkpt><trkpt lat="40.217075" lon="15.0280167"><ele>280.5</ele><time>2026-04-25T13:01:38.949Z</time></trkpt><trkpt lat="40.2170017" lon="15.02802"><ele>285.0</ele><time>2026-04-25T13:01:40.95Z</time></trkpt><trkpt lat="40.21691" lon="15.028005"><ele>289.5</ele><time>2026-04-25T13:01:42.952Z</time></trkpt><trkpt lat="40.216805" lon="15.02797"><ele>294.0</ele><time>2026-04-25T13:01:44.941Z</time></trkpt><trkpt lat="40.2167233" lon="15.0278983"><ele>294.0</ele><time>2026-04-25T13:01:46.95Z</time></trkpt><trkpt lat="40.21663" lon="15.0277883"><ele>294.0</ele><time>2026-04-25T13:01:48.952Z</time></trkpt><trkpt lat="40.2165783" lon="15.0277333"><ele>294.0</ele><time>2026-04-25T13:01:49.994Z</time></trkpt><trkpt lat="40.2165067" lon="15.0276267"><ele>294.0</ele><time>2026-04-25T13:01:51.956Z</time></trkpt><trkpt lat="40.2164717" lon="15.02749"><ele>294.0</ele><time>2026-04-25T13:01:53.945Z</time></trkpt><trkpt lat="40.2164633" lon="15.0273717"><ele>294.8333333333333</ele><time>2026-04-25T13:01:56.008Z</time></trkpt><trkpt lat="40.2164733" lon="15.0272733"><ele>295.6666666666667</ele><time>2026-04-25T13:01:57.948Z</time></trkpt><trkpt lat="40.216505" lon="15.0271933"><ele>296.5</ele><time>2026-04-25T13:01:59.948Z</time></trkpt><trkpt lat="40.2165567" lon="15.0271067"><ele>297.33333333333337</ele><time>2026-04-25T13:02:01.994Z</time></trkpt><trkpt lat="40.2166383" lon="15.026995"><ele>298.1666666666667</ele><time>2026-04-25T13:02:03.95Z</time></trkpt><trkpt lat="40.216685" lon="15.0269317"><ele>299.0</ele><time>2026-04-25T13:02:04.951Z</time></trkpt><trkpt lat="40.2167333" lon="15.026865"><ele>299.0</ele><time>2026-04-25T13:02:05.946Z</time></trkpt><trkpt lat="40.2167733" lon="15.0267967"><ele>299.0</ele><time>2026-04-25T13:02:06.941Z</time></trkpt><trkpt lat="40.216805" lon="15.0267217"><ele>299.0</ele><time>2026-04-25T13:02:07.992Z</time></trkpt><trkpt lat="40.21683" lon="15.0266333"><ele>299.0</ele><time>2026-04-25T13:02:08.944Z</time></trkpt><trkpt lat="40.2168617" lon="15.0265533"><ele>299.0</ele><time>2026-04-25T13:02:09.941Z</time></trkpt><trkpt lat="40.2168983" lon="15.02648"><ele>299.0</ele><time>2026-04-25T13:02:10.951Z</time></trkpt><trkpt lat="40.216935" lon="15.0264117"><ele>299.0</ele><time>2026-04-25T13:02:11.948Z</time></trkpt><trkpt lat="40.2170133" lon="15.0262783"><ele>300.0</ele><time>2026-04-25T13:02:13.992Z</time></trkpt><trkpt lat="40.21705" lon="15.0262083"><ele>301.0</ele><time>2026-04-25T13:02:14.944Z</time></trkpt><trkpt lat="40.2171233" lon="15.026085"><ele>302.0</ele><time>2026-04-25T13:02:16.945Z</time></trkpt><trkpt lat="40.2171933" lon="15.0259617"><ele>303.0</ele><time>2026-04-25T13:02:18.949Z</time></trkpt><trkpt lat="40.2172567" lon="15.0258183"><ele>304.0</ele><time>2026-04-25T13:02:20.944Z</time></trkpt><trkpt lat="40.2173" lon="15.025745"><ele>297.8</ele><time>2026-04-25T13:02:21.952Z</time></trkpt><trkpt lat="40.217425" lon="15.025625"><ele>291.59999999999997</ele><time>2026-04-25T13:02:23.959Z</time></trkpt><trkpt lat="40.2174933" lon="15.0255817"><ele>285.4</ele><time>2026-04-25T13:02:24.955Z</time></trkpt><trkpt lat="40.2175617" lon="15.02554"><ele>279.2</ele><time>2026-04-25T13:02:26.011Z</time></trkpt><trkpt lat="40.2176183" lon="15.0254967"><ele>273.0</ele><time>2026-04-25T13:02:26.941Z</time></trkpt><trkpt lat="40.2176933" lon="15.0254167"><ele>273.0</ele><time>2026-04-25T13:02:28.951Z</time></trkpt><trkpt lat="40.2177167" lon="15.0253383"><ele>273.0</ele><time>2026-04-25T13:03:20.947Z</time></trkpt><trkpt lat="40.2177917" lon="15.02537"><ele>273.0</ele><time>2026-04-25T13:04:00.948Z</time></trkpt><trkpt lat="40.2177383" lon="15.0254367"><ele>273.0</ele><time>2026-04-25T13:04:18.951Z</time></trkpt><trkpt lat="40.2176817" lon="15.0255317"><ele>273.0</ele><time>2026-04-25T13:04:20.948Z</time></trkpt><trkpt lat="40.2175867" lon="15.025615"><ele>273.0</ele><time>2026-04-25T13:04:22.948Z</time></trkpt><trkpt lat="40.2175217" lon="15.025655"><ele>273.0</ele><time>2026-04-25T13:04:23.95Z</time></trkpt><trkpt lat="40.2174433" lon="15.0257017"><ele>273.0</ele><time>2026-04-25T13:04:24.949Z</time></trkpt><trkpt lat="40.2173683" lon="15.0257667"><ele>273.0</ele><time>2026-04-25T13:04:26.009Z</time></trkpt><trkpt lat="40.2173017" lon="15.02583"><ele>273.0</ele><time>2026-04-25T13:04:26.947Z</time></trkpt><trkpt lat="40.217245" lon="15.0258833"><ele>273.0</ele><time>2026-04-25T13:04:27.95Z</time></trkpt><trkpt lat="40.2171767" lon="15.0260017"><ele>273.0</ele><time>2026-04-25T13:04:29.948Z</time></trkpt><trkpt lat="40.2171" lon="15.0261067"><ele>280.4</ele><time>2026-04-25T13:04:32.004Z</time></trkpt><trkpt lat="40.2170217" lon="15.0262133"><ele>287.8</ele><time>2026-04-25T13:04:33.949Z</time></trkpt><trkpt lat="40.21696" lon="15.0263"><ele>295.2</ele><time>2026-04-25T13:04:35.943Z</time></trkpt><trkpt lat="40.2169183" lon="15.026405"><ele>302.6</ele><time>2026-04-25T13:04:44.949Z</time></trkpt><trkpt lat="40.216845" lon="15.026545"><ele>310.0</ele><time>2026-04-25T13:04:46.943Z</time></trkpt><trkpt lat="40.216815" lon="15.0266217"><ele>307.8</ele><time>2026-04-25T13:04:47.948Z</time></trkpt><trkpt lat="40.2167633" lon="15.0267517"><ele>305.6</ele><time>2026-04-25T13:04:49.996Z</time></trkpt><trkpt lat="40.2166717" lon="15.026885"><ele>303.4</ele><time>2026-04-25T13:04:51.947Z</time></trkpt><trkpt lat="40.21661" lon="15.026975"><ele>301.2</ele><time>2026-04-25T13:04:52.948Z</time></trkpt><trkpt lat="40.2165467" lon="15.0270667"><ele>299.0</ele><time>2026-04-25T13:04:53.951Z</time></trkpt><trkpt lat="40.2164983" lon="15.0271283"><ele>299.0</ele><time>2026-04-25T13:04:54.95Z</time></trkpt><trkpt lat="40.2164383" lon="15.02717"><ele>299.0</ele><time>2026-04-25T13:04:56.947Z</time></trkpt><trkpt lat="40.21651" lon="15.02716"><ele>299.0</ele><time>2026-04-25T13:05:09.948Z</time></trkpt><trkpt lat="40.2165817" lon="15.02709"><ele>299.0</ele><time>2026-04-25T13:05:12.95Z</time></trkpt><trkpt lat="40.2166483" lon="15.0270067"><ele>299.0</ele><time>2026-04-25T13:05:14.944Z</time></trkpt><trkpt lat="40.216725" lon="15.0269017"><ele>299.0</ele><time>2026-04-25T13:05:16.953Z</time></trkpt><trkpt lat="40.2167833" lon="15.0267883"><ele>299.0</ele><time>2026-04-25T13:05:18.951Z</time></trkpt><trkpt lat="40.21681" lon="15.02667"><ele>299.0</ele><time>2026-04-25T13:05:20.941Z</time></trkpt><trkpt lat="40.21685" lon="15.026545"><ele>299.0</ele><time>2026-04-25T13:05:22.948Z</time></trkpt><trkpt lat="40.2169217" lon="15.0264067"><ele>299.0</ele><time>2026-04-25T13:05:24.945Z</time></trkpt><trkpt lat="40.2169717" lon="15.0263367"><ele>299.0</ele><time>2026-04-25T13:05:25.992Z</time></trkpt><trkpt lat="40.2170167" lon="15.0262633"><ele>300.0</ele><time>2026-04-25T13:05:26.948Z</time></trkpt><trkpt lat="40.21706" lon="15.0261917"><ele>301.0</ele><time>2026-04-25T13:05:27.947Z</time></trkpt><trkpt lat="40.2171033" lon="15.02613"><ele>302.0</ele><time>2026-04-25T13:05:28.951Z</time></trkpt><trkpt lat="40.2171817" lon="15.0260117"><ele>303.0</ele><time>2026-04-25T13:05:30.945Z</time></trkpt><trkpt lat="40.2172383" lon="15.02589"><ele>304.0</ele><time>2026-04-25T13:05:32.943Z</time></trkpt><trkpt lat="40.21729" lon="15.02577"><ele>297.8</ele><time>2026-04-25T13:05:34.945Z</time></trkpt><trkpt lat="40.21738" lon="15.0256667"><ele>291.59999999999997</ele><time>2026-04-25T13:05:36.946Z</time></trkpt><trkpt lat="40.2174833" lon="15.02559"><ele>285.4</ele><time>2026-04-25T13:05:38.941Z</time></trkpt><trkpt lat="40.2175717" lon="15.0255283"><ele>279.2</ele><time>2026-04-25T13:05:40.949Z</time></trkpt><trkpt lat="40.21764" lon="15.025475"><ele>273.0</ele><time>2026-04-25T13:05:42.952Z</time></trkpt><trkpt lat="40.2176567" lon="15.02537"><ele>273.0</ele><time>2026-04-25T13:05:45.947Z</time></trkpt><trkpt lat="40.217635" lon="15.025265"><ele>273.0</ele><time>2026-04-25T13:05:47.949Z</time></trkpt><trkpt lat="40.2175833" lon="15.02515"><ele>273.0</ele><time>2026-04-25T13:05:49.996Z</time></trkpt><trkpt lat="40.2175267" lon="15.0250583"><ele>273.0</ele><time>2026-04-25T13:05:51.944Z</time></trkpt><trkpt lat="40.2174517" lon="15.0250117"><ele>273.0</ele><time>2026-04-25T13:05:53.943Z</time></trkpt><trkpt lat="40.2173533" lon="15.025"><ele>278.1666666666667</ele><time>2026-04-25T13:05:55.993Z</time></trkpt><trkpt lat="40.21729" lon="15.0250483"><ele>283.3333333333333</ele><time>2026-04-25T13:05:57.947Z</time></trkpt><trkpt lat="40.217265" lon="15.0251367"><ele>288.5</ele><time>2026-04-25T13:05:59.946Z</time></trkpt><trkpt lat="40.217175" lon="15.02515"><ele>293.66666666666663</ele><time>2026-04-25T13:06:03.942Z</time></trkpt><trkpt lat="40.2171" lon="15.0251817"><ele>298.8333333333333</ele><time>2026-04-25T13:06:05.946Z</time></trkpt><trkpt lat="40.2170017" lon="15.0252767"><ele>304.0</ele><time>2026-04-25T13:06:07.997Z</time></trkpt><trkpt lat="40.21693" lon="15.0253883"><ele>304.0</ele><time>2026-04-25T13:06:09.947Z</time></trkpt><trkpt lat="40.216865" lon="15.0253817"><ele>304.0</ele><time>2026-04-25T13:06:14.001Z</time></trkpt><trkpt lat="40.21679" lon="15.0253567"><ele>304.0</ele><time>2026-04-25T13:06:16.944Z</time></trkpt><trkpt lat="40.2167567" lon="15.02546"><ele>304.0</ele><time>2026-04-25T13:06:18.952Z</time></trkpt><trkpt lat="40.216695" lon="15.0255867"><ele>304.0</ele><time>2026-04-25T13:06:20.945Z</time></trkpt><trkpt lat="40.2166233" lon="15.0256983"><ele>304.0</ele><time>2026-04-25T13:06:22.945Z</time></trkpt><trkpt lat="40.2165667" lon="15.025735"><ele>304.0</ele><time>2026-04-25T13:06:24.95Z</time></trkpt><trkpt lat="40.216515" lon="15.025655"><ele>304.0</ele><time>2026-04-25T13:06:26.946Z</time></trkpt><trkpt lat="40.2164317" lon="15.0255533"><ele>304.0</ele><time>2026-04-25T13:06:28.947Z</time></trkpt><trkpt lat="40.216375" lon="15.0255167"><ele>304.0</ele><time>2026-04-25T13:06:29.951Z</time></trkpt><trkpt lat="40.2163" lon="15.02547"><ele>304.0</ele><time>2026-04-25T13:06:30.942Z</time></trkpt><trkpt lat="40.2162267" lon="15.0254233"><ele>305.4285714285714</ele><time>2026-04-25T13:06:31.99Z</time></trkpt><trkpt lat="40.2161583" lon="15.0253767"><ele>306.8571428571429</ele><time>2026-04-25T13:06:32.945Z</time></trkpt><trkpt lat="40.2161017" lon="15.0253217"><ele>308.2857142857143</ele><time>2026-04-25T13:06:33.952Z</time></trkpt><trkpt lat="40.2160533" lon="15.0252633"><ele>309.71428571428567</ele><time>2026-04-25T13:06:34.947Z</time></trkpt><trkpt lat="40.2160133" lon="15.0251933"><ele>311.1428571428571</ele><time>2026-04-25T13:06:35.949Z</time></trkpt><trkpt lat="40.2159717" lon="15.0251"><ele>312.57142857142856</ele><time>2026-04-25T13:06:36.944Z</time></trkpt><trkpt lat="40.2159333" lon="15.0250017"><ele>314.0</ele><time>2026-04-25T13:06:37.994Z</time></trkpt><trkpt lat="40.2159033" lon="15.0248933"><ele>314.0</ele><time>2026-04-25T13:06:38.942Z</time></trkpt><trkpt lat="40.2158733" lon="15.024785"><ele>314.0</ele><time>2026-04-25T13:06:39.948Z</time></trkpt><trkpt lat="40.21584" lon="15.024685"><ele>314.0</ele><time>2026-04-25T13:06:40.943Z</time></trkpt><trkpt lat="40.215815" lon="15.0246067"><ele>314.0</ele><time>2026-04-25T13:06:41.954Z</time></trkpt><trkpt lat="40.21577" lon="15.0245467"><ele>314.0</ele><time>2026-04-25T13:06:44.941Z</time></trkpt><trkpt lat="40.2157583" lon="15.0246433"><ele>314.0</ele><time>2026-04-25T13:06:48.951Z</time></trkpt><trkpt lat="40.215705" lon="15.0248017"><ele>314.0</ele><time>2026-04-25T13:06:50.948Z</time></trkpt><trkpt lat="40.21566" lon="15.0249"><ele>314.0</ele><time>2026-04-25T13:06:51.949Z</time></trkpt><trkpt lat="40.2156067" lon="15.025"><ele>314.0</ele><time>2026-04-25T13:06:52.948Z</time></trkpt><trkpt lat="40.21555" lon="15.0251067"><ele>314.0</ele><time>2026-04-25T13:06:53.943Z</time></trkpt><trkpt lat="40.215495" lon="15.025225"><ele>314.0</ele><time>2026-04-25T13:06:54.946Z</time></trkpt><trkpt lat="40.2154417" lon="15.02536"><ele>315.0</ele><time>2026-04-25T13:06:55.995Z</time></trkpt><trkpt lat="40.215405" lon="15.0255"><ele>316.0</ele><time>2026-04-25T13:06:56.945Z</time></trkpt><trkpt lat="40.2153783" lon="15.0256217"><ele>317.0</ele><time>2026-04-25T13:06:57.944Z</time></trkpt><trkpt lat="40.2153633" lon="15.0257317"><ele>318.0</ele><time>2026-04-25T13:06:58.945Z</time></trkpt><trkpt lat="40.2153517" lon="15.02582"><ele>319.0</ele><time>2026-04-25T13:06:59.952Z</time></trkpt><trkpt lat="40.215325" lon="15.025955"><ele>323.2</ele><time>2026-04-25T13:07:11.952Z</time></trkpt><trkpt lat="40.2152783" lon="15.0260533"><ele>327.4</ele><time>2026-04-25T13:07:23.95Z</time></trkpt><trkpt lat="40.2152217" lon="15.0261417"><ele>331.6</ele><time>2026-04-25T13:07:26.011Z</time></trkpt><trkpt lat="40.215145" lon="15.0262483"><ele>335.8</ele><time>2026-04-25T13:07:27.948Z</time></trkpt><trkpt lat="40.2150633" lon="15.0263367"><ele>340.0</ele><time>2026-04-25T13:07:29.952Z</time></trkpt><trkpt lat="40.214975" lon="15.0263833"><ele>340.0</ele><time>2026-04-25T13:07:31.989Z</time></trkpt><trkpt lat="40.2148983" lon="15.026445"><ele>340.0</ele><time>2026-04-25T13:07:33.947Z</time></trkpt><trkpt lat="40.2148383" lon="15.02655"><ele>340.0</ele><time>2026-04-25T13:07:35.95Z</time></trkpt><trkpt lat="40.214805" lon="15.0266733"><ele>340.0</ele><time>2026-04-25T13:07:37.997Z</time></trkpt><trkpt lat="40.214785" lon="15.026825"><ele>340.0</ele><time>2026-04-25T13:07:39.944Z</time></trkpt><trkpt lat="40.2147617" lon="15.0269033"><ele>341.66666666666663</ele><time>2026-04-25T13:07:40.945Z</time></trkpt><trkpt lat="40.2147317" lon="15.0269817"><ele>343.3333333333333</ele><time>2026-04-25T13:07:41.945Z</time></trkpt><trkpt lat="40.21469" lon="15.0271167"><ele>345.0</ele><time>2026-04-25T13:07:43.99Z</time></trkpt><trkpt lat="40.2146517" lon="15.0272767"><ele>346.6666666666667</ele><time>2026-04-25T13:07:45.947Z</time></trkpt><trkpt lat="40.2146333" lon="15.027365"><ele>348.33333333333337</ele><time>2026-04-25T13:07:46.943Z</time></trkpt><trkpt lat="40.2146217" lon="15.0274533"><ele>350.0</ele><time>2026-04-25T13:07:47.948Z</time></trkpt><trkpt lat="40.2146167" lon="15.0275367"><ele>354.5</ele><time>2026-04-25T13:07:48.945Z</time></trkpt><trkpt lat="40.2146233" lon="15.0277033"><ele>359.0</ele><time>2026-04-25T13:07:50.946Z</time></trkpt><trkpt lat="40.21461" lon="15.0277883"><ele>363.5</ele><time>2026-04-25T13:07:51.943Z</time></trkpt><trkpt lat="40.2145883" lon="15.0278683"><ele>368.0</ele><time>2026-04-25T13:07:52.945Z</time></trkpt><trkpt lat="40.21456" lon="15.027955"><ele>372.5</ele><time>2026-04-25T13:07:53.947Z</time></trkpt><trkpt lat="40.2145283" lon="15.0280433"><ele>377.0</ele><time>2026-04-25T13:07:54.942Z</time></trkpt><trkpt lat="40.2144983" lon="15.028135"><ele>377.0</ele><time>2026-04-25T13:07:55.993Z</time></trkpt><trkpt lat="40.2144733" lon="15.0282283"><ele>377.0</ele><time>2026-04-25T13:07:56.944Z</time></trkpt><trkpt lat="40.2144533" lon="15.0283267"><ele>377.0</ele><time>2026-04-25T13:07:57.944Z</time></trkpt><trkpt lat="40.2144367" lon="15.028415"><ele>377.0</ele><time>2026-04-25T13:07:58.941Z</time></trkpt><trkpt lat="40.2144117" lon="15.0285567"><ele>377.0</ele><time>2026-04-25T13:08:00.947Z</time></trkpt><trkpt lat="40.2143917" lon="15.02866"><ele>377.0</ele><time>2026-04-25T13:08:02.943Z</time></trkpt><trkpt lat="40.2144067" lon="15.0287983"><ele>378.40000000000003</ele><time>2026-04-25T13:08:05.949Z</time></trkpt><trkpt lat="40.2144317" lon="15.02888"><ele>379.8</ele><time>2026-04-25T13:08:06.947Z</time></trkpt><trkpt lat="40.2144667" lon="15.02898"><ele>381.2</ele><time>2026-04-25T13:08:07.989Z</time></trkpt><trkpt lat="40.2145133" lon="15.029105"><ele>382.6</ele><time>2026-04-25T13:08:08.945Z</time></trkpt><trkpt lat="40.2145567" lon="15.029245"><ele>384.0</ele><time>2026-04-25T13:08:09.948Z</time></trkpt><trkpt lat="40.2145917" lon="15.029385"><ele>384.75</ele><time>2026-04-25T13:08:10.945Z</time></trkpt><trkpt lat="40.214615" lon="15.0295233"><ele>385.5</ele><time>2026-04-25T13:08:11.95Z</time></trkpt><trkpt lat="40.2146217" lon="15.0296633"><ele>386.25</ele><time>2026-04-25T13:08:12.95Z</time></trkpt><trkpt lat="40.21461" lon="15.0298117"><ele>387.0</ele><time>2026-04-25T13:08:13.992Z</time></trkpt><trkpt lat="40.2145867" lon="15.0299733"><ele>388.5</ele><time>2026-04-25T13:08:14.943Z</time></trkpt><trkpt lat="40.2145583" lon="15.0301483"><ele>390.0</ele><time>2026-04-25T13:08:15.943Z</time></trkpt><trkpt lat="40.2145333" lon="15.0303367"><ele>391.5</ele><time>2026-04-25T13:08:16.947Z</time></trkpt><trkpt lat="40.21451" lon="15.0305283"><ele>393.0</ele><time>2026-04-25T13:08:17.95Z</time></trkpt><trkpt lat="40.21449" lon="15.0307217"><ele>395.5</ele><time>2026-04-25T13:08:18.946Z</time></trkpt><trkpt lat="40.2144817" lon="15.03091"><ele>398.0</ele><time>2026-04-25T13:08:19.991Z</time></trkpt><trkpt lat="40.2144933" lon="15.0310983"><ele>400.5</ele><time>2026-04-25T13:08:20.944Z</time></trkpt><trkpt lat="40.2145267" lon="15.0312817"><ele>403.0</ele><time>2026-04-25T13:08:21.946Z</time></trkpt><trkpt lat="40.2145733" lon="15.0314583"><ele>403.0</ele><time>2026-04-25T13:08:22.943Z</time></trkpt><trkpt lat="40.21462" lon="15.0316317"><ele>403.0</ele><time>2026-04-25T13:08:23.944Z</time></trkpt><trkpt lat="40.21467" lon="15.0318033"><ele>403.0</ele><time>2026-04-25T13:08:24.944Z</time></trkpt><trkpt lat="40.214725" lon="15.03197"><ele>403.0</ele><time>2026-04-25T13:08:25.993Z</time></trkpt><trkpt lat="40.2147833" lon="15.03212"><ele>406.0</ele><time>2026-04-25T13:08:26.945Z</time></trkpt><trkpt lat="40.2148483" lon="15.032255"><ele>409.0</ele><time>2026-04-25T13:08:27.946Z</time></trkpt><trkpt lat="40.21492" lon="15.03237"><ele>412.0</ele><time>2026-04-25T13:08:28.946Z</time></trkpt><trkpt lat="40.2149883" lon="15.0324667"><ele>415.0</ele><time>2026-04-25T13:08:29.946Z</time></trkpt><trkpt lat="40.2150517" lon="15.0325583"><ele>418.0</ele><time>2026-04-25T13:08:30.947Z</time></trkpt><trkpt lat="40.215105" lon="15.0326717"><ele>421.25</ele><time>2026-04-25T13:08:31.995Z</time></trkpt><trkpt lat="40.21514" lon="15.0328033"><ele>424.5</ele><time>2026-04-25T13:08:32.942Z</time></trkpt><trkpt lat="40.21516" lon="15.0329483"><ele>427.75</ele><time>2026-04-25T13:08:33.945Z</time></trkpt><trkpt lat="40.2151633" lon="15.0331033"><ele>431.0</ele><time>2026-04-25T13:08:34.943Z</time></trkpt><trkpt lat="40.2151517" lon="15.033255"><ele>434.5</ele><time>2026-04-25T13:08:35.947Z</time></trkpt><trkpt lat="40.2151483" lon="15.033385"><ele>438.0</ele><time>2026-04-25T13:08:36.947Z</time></trkpt><trkpt lat="40.2151517" lon="15.033505"><ele>441.5</ele><time>2026-04-25T13:08:37.993Z</time></trkpt><trkpt lat="40.2150883" lon="15.033605"><ele>445.0</ele><time>2026-04-25T13:08:39.947Z</time></trkpt><trkpt lat="40.21492" lon="15.0335083"><ele>445.0</ele><time>2026-04-25T13:08:41.947Z</time></trkpt><trkpt lat="40.2148333" lon="15.0334417"><ele>445.0</ele><time>2026-04-25T13:08:42.949Z</time></trkpt><trkpt lat="40.214745" lon="15.0333817"><ele>445.0</ele><time>2026-04-25T13:08:43.991Z</time></trkpt><trkpt lat="40.2146517" lon="15.0333217"><ele>445.0</ele><time>2026-04-25T13:08:44.942Z</time></trkpt><trkpt lat="40.2145533" lon="15.0332633"><ele>445.0</ele><time>2026-04-25T13:08:45.945Z</time></trkpt><trkpt lat="40.2144467" lon="15.0332117"><ele>444.25</ele><time>2026-04-25T13:08:46.942Z</time></trkpt><trkpt lat="40.2143333" lon="15.0331683"><ele>443.5</ele><time>2026-04-25T13:08:47.943Z</time></trkpt><trkpt lat="40.214205" lon="15.0331367"><ele>442.75</ele><time>2026-04-25T13:08:48.945Z</time></trkpt><trkpt lat="40.2140583" lon="15.0331217"><ele>442.0</ele><time>2026-04-25T13:08:49.993Z</time></trkpt><trkpt lat="40.21391" lon="15.0331133"><ele>441.25</ele><time>2026-04-25T13:08:50.94Z</time></trkpt><trkpt lat="40.213775" lon="15.0331117"><ele>440.5</ele><time>2026-04-25T13:08:51.952Z</time></trkpt><trkpt lat="40.2136567" lon="15.03312"><ele>439.75</ele><time>2026-04-25T13:08:52.948Z</time></trkpt><trkpt lat="40.2135383" lon="15.0331333"><ele>439.0</ele><time>2026-04-25T13:08:53.945Z</time></trkpt><trkpt lat="40.2134333" lon="15.0331517"><ele>439.0</ele><time>2026-04-25T13:08:54.946Z</time></trkpt><trkpt lat="40.2133333" lon="15.0331667"><ele>439.0</ele><time>2026-04-25T13:08:55.993Z</time></trkpt><trkpt lat="40.2132283" lon="15.0331783"><ele>439.0</ele><time>2026-04-25T13:08:56.938Z</time></trkpt><trkpt lat="40.213125" lon="15.0331783"><ele>439.0</ele><time>2026-04-25T13:08:57.948Z</time></trkpt><trkpt lat="40.2130083" lon="15.03317"><ele>439.0</ele><time>2026-04-25T13:08:58.946Z</time></trkpt><trkpt lat="40.212895" lon="15.033145"><ele>439.5</ele><time>2026-04-25T13:08:59.948Z</time></trkpt><trkpt lat="40.2127717" lon="15.0331067"><ele>440.0</ele><time>2026-04-25T13:09:00.947Z</time></trkpt><trkpt lat="40.2126483" lon="15.0330617"><ele>440.5</ele><time>2026-04-25T13:09:01.997Z</time></trkpt><trkpt lat="40.2125183" lon="15.03301"><ele>441.0</ele><time>2026-04-25T13:09:02.947Z</time></trkpt><trkpt lat="40.2123833" lon="15.0329617"><ele>440.0</ele><time>2026-04-25T13:09:03.947Z</time></trkpt><trkpt lat="40.21225" lon="15.0329233"><ele>439.0</ele><time>2026-04-25T13:09:04.948Z</time></trkpt><trkpt lat="40.2121217" lon="15.0329033"><ele>438.0</ele><time>2026-04-25T13:09:05.947Z</time></trkpt><trkpt lat="40.21199" lon="15.032895"><ele>437.0</ele><time>2026-04-25T13:09:06.947Z</time></trkpt><trkpt lat="40.2118533" lon="15.0328983"><ele>437.0</ele><time>2026-04-25T13:09:07.999Z</time></trkpt><trkpt lat="40.2117117" lon="15.0329117"><ele>437.0</ele><time>2026-04-25T13:09:08.942Z</time></trkpt><trkpt lat="40.211575" lon="15.0329267"><ele>437.0</ele><time>2026-04-25T13:09:09.945Z</time></trkpt><trkpt lat="40.2114417" lon="15.0329517"><ele>437.0</ele><time>2026-04-25T13:09:10.95Z</time></trkpt><trkpt lat="40.2113017" lon="15.0329717"><ele>432.5</ele><time>2026-04-25T13:09:11.944Z</time></trkpt><trkpt lat="40.2111683" lon="15.033"><ele>428.0</ele><time>2026-04-25T13:09:12.95Z</time></trkpt><trkpt lat="40.2110333" lon="15.0330167"><ele>423.5</ele><time>2026-04-25T13:09:13.988Z</time></trkpt><trkpt lat="40.2108983" lon="15.033035"><ele>419.0</ele><time>2026-04-25T13:09:14.94Z</time></trkpt><trkpt lat="40.2107667" lon="15.0330533"><ele>420.25</ele><time>2026-04-25T13:09:15.944Z</time></trkpt><trkpt lat="40.2106367" lon="15.0330633"><ele>421.5</ele><time>2026-04-25T13:09:16.946Z</time></trkpt><trkpt lat="40.2105067" lon="15.033065"><ele>422.75</ele><time>2026-04-25T13:09:17.945Z</time></trkpt><trkpt lat="40.2103833" lon="15.0330583"><ele>424.0</ele><time>2026-04-25T13:09:18.947Z</time></trkpt><trkpt lat="40.2102683" lon="15.0330333"><ele>424.0</ele><time>2026-04-25T13:09:19.988Z</time></trkpt><trkpt lat="40.2101567" lon="15.0330033"><ele>424.0</ele><time>2026-04-25T13:09:20.945Z</time></trkpt><trkpt lat="40.210045" lon="15.0329617"><ele>424.0</ele><time>2026-04-25T13:09:21.944Z</time></trkpt><trkpt lat="40.20993" lon="15.0329083"><ele>424.0</ele><time>2026-04-25T13:09:22.943Z</time></trkpt><trkpt lat="40.2098167" lon="15.0328467"><ele>424.2</ele><time>2026-04-25T13:09:23.946Z</time></trkpt><trkpt lat="40.2097117" lon="15.0327817"><ele>424.4</ele><time>2026-04-25T13:09:24.95Z</time></trkpt><trkpt lat="40.20962" lon="15.0327033"><ele>424.6</ele><time>2026-04-25T13:09:25.996Z</time></trkpt><trkpt lat="40.20954" lon="15.0326217"><ele>424.8</ele><time>2026-04-25T13:09:26.944Z</time></trkpt><trkpt lat="40.2094783" lon="15.032515"><ele>425.0</ele><time>2026-04-25T13:09:27.946Z</time></trkpt><trkpt lat="40.2094433" lon="15.03235"><ele>425.0</ele><time>2026-04-25T13:09:28.947Z</time></trkpt><trkpt lat="40.2094167" lon="15.03219"><ele>425.0</ele><time>2026-04-25T13:09:29.946Z</time></trkpt><trkpt lat="40.2093717" lon="15.0320183"><ele>425.0</ele><time>2026-04-25T13:09:30.947Z</time></trkpt><trkpt lat="40.2093167" lon="15.0318467"><ele>425.0</ele><time>2026-04-25T13:09:31.996Z</time></trkpt><trkpt lat="40.20925" lon="15.0316717"><ele>417.3333333333333</ele><time>2026-04-25T13:09:32.944Z</time></trkpt><trkpt lat="40.2091767" lon="15.0314983"><ele>409.66666666666663</ele><time>2026-04-25T13:09:33.946Z</time></trkpt><trkpt lat="40.2090983" lon="15.0313217"><ele>402.0</ele><time>2026-04-25T13:09:34.943Z</time></trkpt><trkpt lat="40.209015" lon="15.03114"><ele>403.33333333333337</ele><time>2026-04-25T13:09:35.954Z</time></trkpt><trkpt lat="40.2089367" lon="15.03096"><ele>404.6666666666667</ele><time>2026-04-25T13:09:36.949Z</time></trkpt><trkpt lat="40.2088617" lon="15.0307833"><ele>406.0</ele><time>2026-04-25T13:09:38Z</time></trkpt><trkpt lat="40.208785" lon="15.0306117"><ele>406.0</ele><time>2026-04-25T13:09:38.941Z</time></trkpt><trkpt lat="40.2087133" lon="15.0304533"><ele>406.0</ele><time>2026-04-25T13:09:39.936Z</time></trkpt><trkpt lat="40.208625" lon="15.0303"><ele>406.0</ele><time>2026-04-25T13:09:40.949Z</time></trkpt><trkpt lat="40.2085217" lon="15.0301583"><ele>406.0</ele><time>2026-04-25T13:09:41.947Z</time></trkpt><trkpt lat="40.2084017" lon="15.030035"><ele>398.0</ele><time>2026-04-25T13:09:42.944Z</time></trkpt><trkpt lat="40.2082633" lon="15.0299183"><ele>390.0</ele><time>2026-04-25T13:09:43.993Z</time></trkpt><trkpt lat="40.2081233" lon="15.0298083"><ele>382.0</ele><time>2026-04-25T13:09:44.945Z</time></trkpt><trkpt lat="40.2079917" lon="15.029705"><ele>382.0</ele><time>2026-04-25T13:09:45.944Z</time></trkpt><trkpt lat="40.207875" lon="15.0296167"><ele>382.0</ele><time>2026-04-25T13:09:46.942Z</time></trkpt><trkpt lat="40.20776" lon="15.0295467"><ele>382.0</ele><time>2026-04-25T13:09:47.947Z</time></trkpt><trkpt lat="40.2076533" lon="15.029525"><ele>382.0</ele><time>2026-04-25T13:09:48.946Z</time></trkpt><trkpt lat="40.20756" lon="15.0295467"><ele>382.0</ele><time>2026-04-25T13:09:49.988Z</time></trkpt><trkpt lat="40.20746" lon="15.0295883"><ele>382.0</ele><time>2026-04-25T13:09:50.944Z</time></trkpt><trkpt lat="40.2073517" lon="15.0296517"><ele>382.0</ele><time>2026-04-25T13:09:51.944Z</time></trkpt><trkpt lat="40.20723" lon="15.029735"><ele>382.0</ele><time>2026-04-25T13:09:52.946Z</time></trkpt><trkpt lat="40.2070967" lon="15.0298317"><ele>379.0</ele><time>2026-04-25T13:09:53.947Z</time></trkpt><trkpt lat="40.2069567" lon="15.02992"><ele>376.0</ele><time>2026-04-25T13:09:54.949Z</time></trkpt><trkpt lat="40.2068167" lon="15.03001"><ele>373.0</ele><time>2026-04-25T13:09:56.006Z</time></trkpt><trkpt lat="40.20668" lon="15.0300967"><ele>374.75</ele><time>2026-04-25T13:09:56.943Z</time></trkpt><trkpt lat="40.2065467" lon="15.0301767"><ele>376.5</ele><time>2026-04-25T13:09:57.945Z</time></trkpt><trkpt lat="40.2064183" lon="15.0302533"><ele>378.25</ele><time>2026-04-25T13:09:58.949Z</time></trkpt><trkpt lat="40.2062933" lon="15.0303233"><ele>380.0</ele><time>2026-04-25T13:09:59.947Z</time></trkpt><trkpt lat="40.206165" lon="15.0303833"><ele>380.0</ele><time>2026-04-25T13:10:00.941Z</time></trkpt><trkpt lat="40.2060317" lon="15.0304267"><ele>380.0</ele><time>2026-04-25T13:10:01.993Z</time></trkpt><trkpt lat="40.2058883" lon="15.03043"><ele>380.0</ele><time>2026-04-25T13:10:02.944Z</time></trkpt><trkpt lat="40.20574" lon="15.0304017"><ele>380.0</ele><time>2026-04-25T13:10:03.947Z</time></trkpt><trkpt lat="40.2055833" lon="15.030355"><ele>379.6666666666667</ele><time>2026-04-25T13:10:04.945Z</time></trkpt><trkpt lat="40.20542" lon="15.0302983"><ele>379.3333333333333</ele><time>2026-04-25T13:10:05.948Z</time></trkpt><trkpt lat="40.2052517" lon="15.030235"><ele>379.0</ele><time>2026-04-25T13:10:06.945Z</time></trkpt><trkpt lat="40.2050767" lon="15.030175"><ele>379.0</ele><time>2026-04-25T13:10:07.992Z</time></trkpt><trkpt lat="40.204895" lon="15.0301117"><ele>379.0</ele><time>2026-04-25T13:10:08.946Z</time></trkpt><trkpt lat="40.2047217" lon="15.0300517"><ele>379.0</ele><time>2026-04-25T13:10:09.945Z</time></trkpt><trkpt lat="40.20456" lon="15.0300017"><ele>371.0</ele><time>2026-04-25T13:10:10.946Z</time></trkpt><trkpt lat="40.2044017" lon="15.029945"><ele>363.0</ele><time>2026-04-25T13:10:11.945Z</time></trkpt><trkpt lat="40.2042517" lon="15.0298867"><ele>355.0</ele><time>2026-04-25T13:10:12.94Z</time></trkpt><trkpt lat="40.2040983" lon="15.0298333"><ele>354.5</ele><time>2026-04-25T13:10:13.991Z</time></trkpt><trkpt lat="40.2039533" lon="15.0297783"><ele>354.0</ele><time>2026-04-25T13:10:14.94Z</time></trkpt><trkpt lat="40.2038217" lon="15.02973"><ele>353.5</ele><time>2026-04-25T13:10:15.948Z</time></trkpt><trkpt lat="40.2036917" lon="15.0296867"><ele>353.0</ele><time>2026-04-25T13:10:16.943Z</time></trkpt><trkpt lat="40.203565" lon="15.0296667"><ele>353.0</ele><time>2026-04-25T13:10:17.944Z</time></trkpt><trkpt lat="40.203435" lon="15.0296583"><ele>353.0</ele><time>2026-04-25T13:10:18.941Z</time></trkpt><trkpt lat="40.20331" lon="15.0296583"><ele>353.0</ele><time>2026-04-25T13:10:19.993Z</time></trkpt><trkpt lat="40.2031867" lon="15.0296633"><ele>353.0</ele><time>2026-04-25T13:10:20.94Z</time></trkpt><trkpt lat="40.203075" lon="15.02966"><ele>357.79999999999995</ele><time>2026-04-25T13:10:21.942Z</time></trkpt><trkpt lat="40.2029683" lon="15.029645"><ele>362.6</ele><time>2026-04-25T13:10:22.941Z</time></trkpt><trkpt lat="40.2028617" lon="15.0296"><ele>367.4</ele><time>2026-04-25T13:10:23.945Z</time></trkpt><trkpt lat="40.2027733" lon="15.0295133"><ele>372.20000000000005</ele><time>2026-04-25T13:10:24.944Z</time></trkpt><trkpt lat="40.2027017" lon="15.0294"><ele>377.0</ele><time>2026-04-25T13:10:26.003Z</time></trkpt><trkpt lat="40.20265" lon="15.02927"><ele>374.5</ele><time>2026-04-25T13:10:26.948Z</time></trkpt><trkpt lat="40.2026167" lon="15.0291333"><ele>372.0</ele><time>2026-04-25T13:10:27.946Z</time></trkpt><trkpt lat="40.202605" lon="15.0289683"><ele>369.5</ele><time>2026-04-25T13:10:28.947Z</time></trkpt><trkpt lat="40.2026" lon="15.0287917"><ele>367.0</ele><time>2026-04-25T13:10:29.945Z</time></trkpt><trkpt lat="40.2025933" lon="15.0286083"><ele>367.0</ele><time>2026-04-25T13:10:30.952Z</time></trkpt><trkpt lat="40.2025767" lon="15.0284333"><ele>367.0</ele><time>2026-04-25T13:10:31.99Z</time></trkpt><trkpt lat="40.20255" lon="15.02827"><ele>367.0</ele><time>2026-04-25T13:10:32.942Z</time></trkpt><trkpt lat="40.2025183" lon="15.0281233"><ele>367.0</ele><time>2026-04-25T13:10:33.944Z</time></trkpt><trkpt lat="40.202475" lon="15.0280017"><ele>364.75</ele><time>2026-04-25T13:10:34.95Z</time></trkpt><trkpt lat="40.2024083" lon="15.0279067"><ele>362.5</ele><time>2026-04-25T13:10:35.951Z</time></trkpt><trkpt lat="40.202305" lon="15.0278483"><ele>360.25</ele><time>2026-04-25T13:10:36.948Z</time></trkpt><trkpt lat="40.20218" lon="15.0278"><ele>358.0</ele><time>2026-04-25T13:10:37.989Z</time></trkpt><trkpt lat="40.2020617" lon="15.0277317"><ele>358.0</ele><time>2026-04-25T13:10:38.942Z</time></trkpt><trkpt lat="40.2019467" lon="15.027645"><ele>358.0</ele><time>2026-04-25T13:10:39.944Z</time></trkpt><trkpt lat="40.20183" lon="15.0275467"><ele>358.0</ele><time>2026-04-25T13:10:40.944Z</time></trkpt><trkpt lat="40.2017217" lon="15.02744"><ele>358.0</ele><time>2026-04-25T13:10:41.95Z</time></trkpt><trkpt lat="40.201615" lon="15.0273183"><ele>355.5</ele><time>2026-04-25T13:10:42.944Z</time></trkpt><trkpt lat="40.20151" lon="15.02718"><ele>353.0</ele><time>2026-04-25T13:10:43.994Z</time></trkpt><trkpt lat="40.2014133" lon="15.0270417"><ele>350.5</ele><time>2026-04-25T13:10:44.943Z</time></trkpt><trkpt lat="40.2013167" lon="15.0269017"><ele>348.0</ele><time>2026-04-25T13:10:45.945Z</time></trkpt><trkpt lat="40.2012267" lon="15.0267617"><ele>344.0</ele><time>2026-04-25T13:10:46.946Z</time></trkpt><trkpt lat="40.2011333" lon="15.0266283"><ele>340.0</ele><time>2026-04-25T13:10:47.947Z</time></trkpt><trkpt lat="40.2010317" lon="15.0265067"><ele>336.0</ele><time>2026-04-25T13:10:48.947Z</time></trkpt><trkpt lat="40.200935" lon="15.02641"><ele>332.0</ele><time>2026-04-25T13:10:49.996Z</time></trkpt><trkpt lat="40.2008183" lon="15.02634"><ele>332.0</ele><time>2026-04-25T13:10:50.941Z</time></trkpt><trkpt lat="40.2006683" lon="15.0263083"><ele>332.0</ele><time>2026-04-25T13:10:51.945Z</time></trkpt><trkpt lat="40.20053" lon="15.02636"><ele>332.0</ele><time>2026-04-25T13:10:52.946Z</time></trkpt><trkpt lat="40.2004" lon="15.0264067"><ele>332.0</ele><time>2026-04-25T13:10:53.95Z</time></trkpt><trkpt lat="40.2002717" lon="15.02646"><ele>327.6666666666667</ele><time>2026-04-25T13:10:54.942Z</time></trkpt><trkpt lat="40.2001317" lon="15.02652"><ele>323.3333333333333</ele><time>2026-04-25T13:10:55.985Z</time></trkpt><trkpt lat="40.1999983" lon="15.0265833"><ele>319.0</ele><time>2026-04-25T13:10:56.944Z</time></trkpt><trkpt lat="40.1997733" lon="15.026685"><ele>319.0</ele><time>2026-04-25T13:10:58.945Z</time></trkpt><trkpt lat="40.1996133" lon="15.0267583"><ele>319.0</ele><time>2026-04-25T13:11:00.944Z</time></trkpt><trkpt lat="40.19954" lon="15.0267933"><ele>319.0</ele><time>2026-04-25T13:11:01.991Z</time></trkpt><trkpt lat="40.1994717" lon="15.0268217"><ele>319.0</ele><time>2026-04-25T13:11:02.944Z</time></trkpt><trkpt lat="40.19941" lon="15.0268517"><ele>319.0</ele><time>2026-04-25T13:11:03.947Z</time></trkpt><trkpt lat="40.1993133" lon="15.0268883"><ele>319.0</ele><time>2026-04-25T13:11:05.948Z</time></trkpt><trkpt lat="40.19924" lon="15.026935"><ele>319.0</ele><time>2026-04-25T13:11:07.99Z</time></trkpt><trkpt lat="40.1991433" lon="15.02702"><ele>319.0</ele><time>2026-04-25T13:11:09.949Z</time></trkpt><trkpt lat="40.199065" lon="15.0270717"><ele>319.0</ele><time>2026-04-25T13:11:10.943Z</time></trkpt><trkpt lat="40.1989667" lon="15.02713"><ele>319.0</ele><time>2026-04-25T13:11:11.949Z</time></trkpt><trkpt lat="40.19886" lon="15.0271967"><ele>311.3333333333333</ele><time>2026-04-25T13:11:12.947Z</time></trkpt><trkpt lat="40.19875" lon="15.0272683"><ele>303.6666666666667</ele><time>2026-04-25T13:11:13.994Z</time></trkpt><trkpt lat="40.1985317" lon="15.027405"><ele>296.0</ele><time>2026-04-25T13:11:15.949Z</time></trkpt><trkpt lat="40.1984233" lon="15.0274683"><ele>299.75</ele><time>2026-04-25T13:11:16.946Z</time></trkpt><trkpt lat="40.1983017" lon="15.0275283"><ele>303.5</ele><time>2026-04-25T13:11:17.946Z</time></trkpt><trkpt lat="40.1981833" lon="15.0275867"><ele>307.25</ele><time>2026-04-25T13:11:18.954Z</time></trkpt><trkpt lat="40.1980633" lon="15.0276383"><ele>311.0</ele><time>2026-04-25T13:11:19.989Z</time></trkpt><trkpt lat="40.1979433" lon="15.027685"><ele>311.0</ele><time>2026-04-25T13:11:20.94Z</time></trkpt><trkpt lat="40.19784" lon="15.02773"><ele>311.0</ele><time>2026-04-25T13:11:21.945Z</time></trkpt><trkpt lat="40.19775" lon="15.0277817"><ele>311.0</ele><time>2026-04-25T13:11:22.942Z</time></trkpt><trkpt lat="40.1976617" lon="15.02784"><ele>311.0</ele><time>2026-04-25T13:11:23.943Z</time></trkpt><trkpt lat="40.19757" lon="15.02791"><ele>311.0</ele><time>2026-04-25T13:11:24.942Z</time></trkpt><trkpt lat="40.1973883" lon="15.0280917"><ele>310.0</ele><time>2026-04-25T13:11:26.944Z</time></trkpt><trkpt lat="40.1972383" lon="15.0283417"><ele>309.0</ele><time>2026-04-25T13:11:28.944Z</time></trkpt><trkpt lat="40.1971717" lon="15.0284833"><ele>308.0</ele><time>2026-04-25T13:11:29.95Z</time></trkpt><trkpt lat="40.1971133" lon="15.0286183"><ele>308.0</ele><time>2026-04-25T13:11:30.947Z</time></trkpt><trkpt lat="40.1970617" lon="15.02874"><ele>308.0</ele><time>2026-04-25T13:11:31.991Z</time></trkpt><trkpt lat="40.197005" lon="15.0288433"><ele>308.0</ele><time>2026-04-25T13:11:32.94Z</time></trkpt><trkpt lat="40.1969433" lon="15.0289317"><ele>308.0</ele><time>2026-04-25T13:11:33.943Z</time></trkpt><trkpt lat="40.19688" lon="15.0289417"><ele>308.0</ele><time>2026-04-25T13:11:34.943Z</time></trkpt><trkpt lat="40.1967383" lon="15.02882"><ele>308.0</ele><time>2026-04-25T13:11:37.991Z</time></trkpt><trkpt lat="40.196755" lon="15.0286533"><ele>308.0</ele><time>2026-04-25T13:11:39.939Z</time></trkpt><trkpt lat="40.196885" lon="15.0284683"><ele>308.0</ele><time>2026-04-25T13:11:40.939Z</time></trkpt><trkpt lat="40.196985" lon="15.0283"><ele>300.6666666666667</ele><time>2026-04-25T13:11:41.947Z</time></trkpt><trkpt lat="40.1970833" lon="15.0281383"><ele>293.3333333333333</ele><time>2026-04-25T13:11:42.947Z</time></trkpt><trkpt lat="40.1971833" lon="15.0279883"><ele>286.0</ele><time>2026-04-25T13:11:43.994Z</time></trkpt><trkpt lat="40.197285" lon="15.02785"><ele>283.3333333333333</ele><time>2026-04-25T13:11:44.944Z</time></trkpt><trkpt lat="40.1974" lon="15.0277233"><ele>280.6666666666667</ele><time>2026-04-25T13:11:45.947Z</time></trkpt><trkpt lat="40.1976367" lon="15.0275033"><ele>278.0</ele><time>2026-04-25T13:11:47.94Z</time></trkpt><trkpt lat="40.1977717" lon="15.0273967"><ele>278.0</ele><time>2026-04-25T13:11:48.946Z</time></trkpt><trkpt lat="40.1979067" lon="15.0272917"><ele>278.0</ele><time>2026-04-25T13:11:49.994Z</time></trkpt><trkpt lat="40.19804" lon="15.0271983"><ele>278.0</ele><time>2026-04-25T13:11:50.941Z</time></trkpt><trkpt lat="40.1981583" lon="15.0271117"><ele>278.0</ele><time>2026-04-25T13:11:51.947Z</time></trkpt><trkpt lat="40.1982583" lon="15.0270367"><ele>281.0</ele><time>2026-04-25T13:11:52.942Z</time></trkpt><trkpt lat="40.19832" lon="15.0269833"><ele>284.0</ele><time>2026-04-25T13:11:53.946Z</time></trkpt><trkpt lat="40.19838" lon="15.026935"><ele>287.0</ele><time>2026-04-25T13:11:54.943Z</time></trkpt><trkpt lat="40.1984333" lon="15.026885"><ele>290.0</ele><time>2026-04-25T13:11:56.008Z</time></trkpt><trkpt lat="40.198515" lon="15.026825"><ele>293.0</ele><time>2026-04-25T13:11:57.942Z</time></trkpt><trkpt lat="40.1984483" lon="15.0267283"><ele>296.0</ele><time>2026-04-25T13:12:08.943Z</time></trkpt><trkpt lat="40.19835" lon="15.02675"><ele>296.0</ele><time>2026-04-25T13:12:10.943Z</time></trkpt><trkpt lat="40.1982833" lon="15.0268"><ele>296.0</ele><time>2026-04-25T13:12:15.94Z</time></trkpt><trkpt lat="40.19818" lon="15.02684"><ele>296.0</ele><time>2026-04-25T13:12:17.941Z</time></trkpt><trkpt lat="40.1981083" lon="15.0268567"><ele>296.0</ele><time>2026-04-25T13:12:18.95Z</time></trkpt><trkpt lat="40.1980433" lon="15.0268833"><ele>296.0</ele><time>2026-04-25T13:12:19.995Z</time></trkpt><trkpt lat="40.1979717" lon="15.0269017"><ele>296.0</ele><time>2026-04-25T13:12:20.938Z</time></trkpt><trkpt lat="40.1979033" lon="15.026925"><ele>293.0</ele><time>2026-04-25T13:12:21.944Z</time></trkpt><trkpt lat="40.1978283" lon="15.026945"><ele>290.0</ele><time>2026-04-25T13:12:22.942Z</time></trkpt><trkpt lat="40.19775" lon="15.0269667"><ele>287.0</ele><time>2026-04-25T13:12:23.948Z</time></trkpt><trkpt lat="40.1976717" lon="15.0269867"><ele>284.0</ele><time>2026-04-25T13:12:24.942Z</time></trkpt><trkpt lat="40.1975917" lon="15.0270083"><ele>281.0</ele><time>2026-04-25T13:12:26.003Z</time></trkpt><trkpt lat="40.197515" lon="15.0270367"><ele>278.0</ele><time>2026-04-25T13:12:26.942Z</time></trkpt><trkpt lat="40.19744" lon="15.02707"><ele>278.0</ele><time>2026-04-25T13:12:27.94Z</time></trkpt><trkpt lat="40.1973667" lon="15.0270917"><ele>278.0</ele><time>2026-04-25T13:12:28.943Z</time></trkpt><trkpt lat="40.1972767" lon="15.027095"><ele>278.0</ele><time>2026-04-25T13:12:29.943Z</time></trkpt><trkpt lat="40.1971767" lon="15.027095"><ele>278.0</ele><time>2026-04-25T13:12:30.944Z</time></trkpt><trkpt lat="40.1970717" lon="15.027105"><ele>278.0</ele><time>2026-04-25T13:12:31.988Z</time></trkpt><trkpt lat="40.1969717" lon="15.02712"><ele>273.6</ele><time>2026-04-25T13:12:32.948Z</time></trkpt><trkpt lat="40.19687" lon="15.0271283"><ele>269.20000000000005</ele><time>2026-04-25T13:12:33.944Z</time></trkpt><trkpt lat="40.1967733" lon="15.0271317"><ele>264.8</ele><time>2026-04-25T13:12:34.942Z</time></trkpt><trkpt lat="40.1966817" lon="15.0271383"><ele>260.40000000000003</ele><time>2026-04-25T13:12:35.951Z</time></trkpt><trkpt lat="40.1965933" lon="15.0271483"><ele>256.0</ele><time>2026-04-25T13:12:36.937Z</time></trkpt><trkpt lat="40.1965083" lon="15.0271683"><ele>253.8</ele><time>2026-04-25T13:12:37.989Z</time></trkpt><trkpt lat="40.1964217" lon="15.0272017"><ele>251.60000000000002</ele><time>2026-04-25T13:12:38.938Z</time></trkpt><trkpt lat="40.1963333" lon="15.0272483"><ele>249.4</ele><time>2026-04-25T13:12:39.943Z</time></trkpt><trkpt lat="40.1962433" lon="15.027305"><ele>247.2</ele><time>2026-04-25T13:12:40.945Z</time></trkpt><trkpt lat="40.19615" lon="15.0273683"><ele>245.0</ele><time>2026-04-25T13:12:41.945Z</time></trkpt><trkpt lat="40.1960567" lon="15.0274267"><ele>245.0</ele><time>2026-04-25T13:12:42.943Z</time></trkpt><trkpt lat="40.1959667" lon="15.0274733"><ele>245.0</ele><time>2026-04-25T13:12:43.989Z</time></trkpt><trkpt lat="40.1958733" lon="15.0275"><ele>245.0</ele><time>2026-04-25T13:12:44.937Z</time></trkpt><trkpt lat="40.1957733" lon="15.0275117"><ele>245.0</ele><time>2026-04-25T13:12:45.941Z</time></trkpt><trkpt lat="40.1956717" lon="15.0275117"><ele>245.0</ele><time>2026-04-25T13:12:46.945Z</time></trkpt><trkpt lat="40.19558" lon="15.027505"><ele>247.6</ele><time>2026-04-25T13:12:47.941Z</time></trkpt><trkpt lat="40.19549" lon="15.0275083"><ele>250.2</ele><time>2026-04-25T13:12:48.94Z</time></trkpt><trkpt lat="40.1954033" lon="15.0275183"><ele>252.8</ele><time>2026-04-25T13:12:49.991Z</time></trkpt><trkpt lat="40.1953017" lon="15.02753"><ele>255.4</ele><time>2026-04-25T13:12:50.941Z</time></trkpt><trkpt lat="40.1952033" lon="15.027545"><ele>258.0</ele><time>2026-04-25T13:12:51.941Z</time></trkpt><trkpt lat="40.19511" lon="15.0275617"><ele>258.0</ele><time>2026-04-25T13:12:52.943Z</time></trkpt><trkpt lat="40.19502" lon="15.0275817"><ele>258.0</ele><time>2026-04-25T13:12:53.943Z</time></trkpt><trkpt lat="40.1949233" lon="15.0276083"><ele>258.0</ele><time>2026-04-25T13:12:54.944Z</time></trkpt><trkpt lat="40.194825" lon="15.0276567"><ele>258.0</ele><time>2026-04-25T13:12:56.005Z</time></trkpt><trkpt lat="40.1947267" lon="15.0277233"><ele>258.0</ele><time>2026-04-25T13:12:56.939Z</time></trkpt><trkpt lat="40.194625" lon="15.0277967"><ele>252.25</ele><time>2026-04-25T13:12:57.947Z</time></trkpt><trkpt lat="40.1945267" lon="15.027875"><ele>246.5</ele><time>2026-04-25T13:12:58.946Z</time></trkpt><trkpt lat="40.1944333" lon="15.0279683"><ele>240.75</ele><time>2026-04-25T13:12:59.944Z</time></trkpt><trkpt lat="40.19435" lon="15.02807"><ele>235.0</ele><time>2026-04-25T13:13:00.941Z</time></trkpt><trkpt lat="40.19427" lon="15.0281717"><ele>235.0</ele><time>2026-04-25T13:13:01.993Z</time></trkpt><trkpt lat="40.1942" lon="15.0282667"><ele>235.0</ele><time>2026-04-25T13:13:02.939Z</time></trkpt><trkpt lat="40.19413" lon="15.028345"><ele>235.0</ele><time>2026-04-25T13:13:03.937Z</time></trkpt><trkpt lat="40.1940567" lon="15.02837"><ele>235.0</ele><time>2026-04-25T13:13:04.953Z</time></trkpt><trkpt lat="40.193965" lon="15.0283867"><ele>235.0</ele><time>2026-04-25T13:13:05.945Z</time></trkpt><trkpt lat="40.1938633" lon="15.02839"><ele>233.4</ele><time>2026-04-25T13:13:06.945Z</time></trkpt><trkpt lat="40.1937683" lon="15.0283883"><ele>231.8</ele><time>2026-04-25T13:13:07.989Z</time></trkpt><trkpt lat="40.1936733" lon="15.028385"><ele>230.2</ele><time>2026-04-25T13:13:08.936Z</time></trkpt><trkpt lat="40.1935733" lon="15.0283817"><ele>228.6</ele><time>2026-04-25T13:13:09.943Z</time></trkpt><trkpt lat="40.193475" lon="15.02839"><ele>227.0</ele><time>2026-04-25T13:13:10.942Z</time></trkpt><trkpt lat="40.1933833" lon="15.0284083"><ele>227.00000000000003</ele><time>2026-04-25T13:13:11.944Z</time></trkpt><trkpt lat="40.193315" lon="15.028425"><ele>227.0</ele><time>2026-04-25T13:13:12.949Z</time></trkpt><trkpt lat="40.193245" lon="15.02842"><ele>227.0</ele><time>2026-04-25T13:13:13.99Z</time></trkpt><trkpt lat="40.1931667" lon="15.0283983"><ele>227.0</ele><time>2026-04-25T13:13:14.937Z</time></trkpt><trkpt lat="40.1930767" lon="15.0283683"><ele>227.00000000000003</ele><time>2026-04-25T13:13:15.944Z</time></trkpt><trkpt lat="40.192975" lon="15.028345"><ele>227.0</ele><time>2026-04-25T13:13:16.942Z</time></trkpt><trkpt lat="40.1928733" lon="15.028335"><ele>223.16666666666669</ele><time>2026-04-25T13:13:17.948Z</time></trkpt><trkpt lat="40.192775" lon="15.02834"><ele>219.33333333333334</ele><time>2026-04-25T13:13:18.945Z</time></trkpt><trkpt lat="40.1926817" lon="15.0283567"><ele>215.5</ele><time>2026-04-25T13:13:19.991Z</time></trkpt><trkpt lat="40.1925933" lon="15.0283767"><ele>211.66666666666669</ele><time>2026-04-25T13:13:20.94Z</time></trkpt><trkpt lat="40.19251" lon="15.0283767"><ele>207.83333333333334</ele><time>2026-04-25T13:13:21.944Z</time></trkpt><trkpt lat="40.1924367" lon="15.028355"><ele>204.0</ele><time>2026-04-25T13:13:22.942Z</time></trkpt><trkpt lat="40.19238" lon="15.0283033"><ele>199.16666666666666</ele><time>2026-04-25T13:13:23.943Z</time></trkpt><trkpt lat="40.1923367" lon="15.0282183"><ele>194.33333333333334</ele><time>2026-04-25T13:13:24.944Z</time></trkpt><trkpt lat="40.192305" lon="15.028125"><ele>189.5</ele><time>2026-04-25T13:13:25.975Z</time></trkpt><trkpt lat="40.1922733" lon="15.0280417"><ele>184.66666666666669</ele><time>2026-04-25T13:13:26.943Z</time></trkpt><trkpt lat="40.19223" lon="15.027965"><ele>179.83333333333334</ele><time>2026-04-25T13:13:27.945Z</time></trkpt><trkpt lat="40.1921683" lon="15.02791"><ele>175.0</ele><time>2026-04-25T13:13:28.95Z</time></trkpt><trkpt lat="40.1920883" lon="15.027865"><ele>175.0</ele><time>2026-04-25T13:13:29.94Z</time></trkpt><trkpt lat="40.191995" lon="15.02782"><ele>175.0</ele><time>2026-04-25T13:13:30.949Z</time></trkpt><trkpt lat="40.1918983" lon="15.0277717"><ele>175.0</ele><time>2026-04-25T13:13:31.989Z</time></trkpt><trkpt lat="40.1917933" lon="15.0277283"><ele>175.0</ele><time>2026-04-25T13:13:32.939Z</time></trkpt><trkpt lat="40.191685" lon="15.0277"><ele>175.0</ele><time>2026-04-25T13:13:33.946Z</time></trkpt><trkpt lat="40.1915767" lon="15.02769"><ele>173.6</ele><time>2026-04-25T13:13:34.942Z</time></trkpt><trkpt lat="40.19147" lon="15.027705"><ele>172.2</ele><time>2026-04-25T13:13:35.947Z</time></trkpt><trkpt lat="40.1913783" lon="15.0277283"><ele>170.8</ele><time>2026-04-25T13:13:36.947Z</time></trkpt><trkpt lat="40.19129" lon="15.02774"><ele>169.4</ele><time>2026-04-25T13:13:37.99Z</time></trkpt><trkpt lat="40.1911933" lon="15.0277433"><ele>168.0</ele><time>2026-04-25T13:13:38.942Z</time></trkpt><trkpt lat="40.191095" lon="15.0277433"><ele>168.0</ele><time>2026-04-25T13:13:39.946Z</time></trkpt><trkpt lat="40.190995" lon="15.027735"><ele>168.0</ele><time>2026-04-25T13:13:40.943Z</time></trkpt><trkpt lat="40.1908917" lon="15.0277267"><ele>168.0</ele><time>2026-04-25T13:13:41.944Z</time></trkpt><trkpt lat="40.19079" lon="15.027715"><ele>168.0</ele><time>2026-04-25T13:13:42.945Z</time></trkpt><trkpt lat="40.1906833" lon="15.027705"><ele>168.0</ele><time>2026-04-25T13:13:43.994Z</time></trkpt><trkpt lat="40.1905717" lon="15.02771"><ele>163.4</ele><time>2026-04-25T13:13:44.938Z</time></trkpt><trkpt lat="40.190465" lon="15.02773"><ele>158.8</ele><time>2026-04-25T13:13:45.949Z</time></trkpt><trkpt lat="40.1903583" lon="15.027765"><ele>154.2</ele><time>2026-04-25T13:13:46.945Z</time></trkpt><trkpt lat="40.1902533" lon="15.027815"><ele>149.6</ele><time>2026-04-25T13:13:47.939Z</time></trkpt><trkpt lat="40.1901533" lon="15.0278767"><ele>145.0</ele><time>2026-04-25T13:13:48.95Z</time></trkpt><trkpt lat="40.19005" lon="15.0279433"><ele>145.0</ele><time>2026-04-25T13:13:49.99Z</time></trkpt><trkpt lat="40.1899417" lon="15.0280133"><ele>145.0</ele><time>2026-04-25T13:13:50.941Z</time></trkpt><trkpt lat="40.1898367" lon="15.0280833"><ele>145.0</ele><time>2026-04-25T13:13:51.941Z</time></trkpt><trkpt lat="40.1897367" lon="15.028155"><ele>145.0</ele><time>2026-04-25T13:13:52.946Z</time></trkpt><trkpt lat="40.18964" lon="15.0282133"><ele>145.8</ele><time>2026-04-25T13:13:53.947Z</time></trkpt><trkpt lat="40.1895417" lon="15.028265"><ele>146.6</ele><time>2026-04-25T13:13:54.945Z</time></trkpt><trkpt lat="40.18945" lon="15.0283117"><ele>147.4</ele><time>2026-04-25T13:13:56.002Z</time></trkpt><trkpt lat="40.1893567" lon="15.0283633"><ele>148.2</ele><time>2026-04-25T13:13:56.94Z</time></trkpt><trkpt lat="40.1892617" lon="15.02841"><ele>149.0</ele><time>2026-04-25T13:13:57.947Z</time></trkpt><trkpt lat="40.1891583" lon="15.0284483"><ele>149.0</ele><time>2026-04-25T13:13:58.943Z</time></trkpt><trkpt lat="40.18906" lon="15.0284717"><ele>149.0</ele><time>2026-04-25T13:13:59.945Z</time></trkpt><trkpt lat="40.1889617" lon="15.0285083"><ele>149.0</ele><time>2026-04-25T13:14:00.942Z</time></trkpt><trkpt lat="40.188875" lon="15.0285633"><ele>149.0</ele><time>2026-04-25T13:14:01.986Z</time></trkpt><trkpt lat="40.1887867" lon="15.0286183"><ele>149.0</ele><time>2026-04-25T13:14:02.941Z</time></trkpt><trkpt lat="40.1886967" lon="15.0286833"><ele>146.0</ele><time>2026-04-25T13:14:03.947Z</time></trkpt><trkpt lat="40.1885933" lon="15.028755"><ele>143.0</ele><time>2026-04-25T13:14:04.936Z</time></trkpt><trkpt lat="40.1884833" lon="15.0288283"><ele>140.0</ele><time>2026-04-25T13:14:05.946Z</time></trkpt><trkpt lat="40.1883683" lon="15.0289"><ele>137.0</ele><time>2026-04-25T13:14:06.942Z</time></trkpt><trkpt lat="40.1882517" lon="15.0289733"><ele>140.25</ele><time>2026-04-25T13:14:07.993Z</time></trkpt><trkpt lat="40.1881333" lon="15.0290383"><ele>143.5</ele><time>2026-04-25T13:14:08.94Z</time></trkpt><trkpt lat="40.1880067" lon="15.0291017"><ele>146.75</ele><time>2026-04-25T13:14:09.941Z</time></trkpt><trkpt lat="40.1878733" lon="15.0291717"><ele>150.0</ele><time>2026-04-25T13:14:10.938Z</time></trkpt><trkpt lat="40.1877383" lon="15.029235"><ele>150.0</ele><time>2026-04-25T13:14:11.94Z</time></trkpt><trkpt lat="40.1876017" lon="15.0292983"><ele>150.0</ele><time>2026-04-25T13:14:12.94Z</time></trkpt><trkpt lat="40.187465" lon="15.0293683"><ele>150.0</ele><time>2026-04-25T13:14:13.987Z</time></trkpt><trkpt lat="40.1873267" lon="15.0294333"><ele>150.0</ele><time>2026-04-25T13:14:14.939Z</time></trkpt><trkpt lat="40.18719" lon="15.0294967"><ele>146.0</ele><time>2026-04-25T13:14:15.945Z</time></trkpt><trkpt lat="40.18706" lon="15.029555"><ele>142.0</ele><time>2026-04-25T13:14:16.94Z</time></trkpt><trkpt lat="40.1869367" lon="15.0296133"><ele>138.0</ele><time>2026-04-25T13:14:17.943Z</time></trkpt><trkpt lat="40.186825" lon="15.0296817"><ele>134.0</ele><time>2026-04-25T13:14:18.944Z</time></trkpt><trkpt lat="40.1867167" lon="15.0297583"><ele>134.0</ele><time>2026-04-25T13:14:19.989Z</time></trkpt><trkpt lat="40.1866217" lon="15.0298417"><ele>134.0</ele><time>2026-04-25T13:14:20.938Z</time></trkpt><trkpt lat="40.1865383" lon="15.0299283"><ele>134.0</ele><time>2026-04-25T13:14:21.941Z</time></trkpt><trkpt lat="40.1864683" lon="15.030015"><ele>134.0</ele><time>2026-04-25T13:14:22.944Z</time></trkpt><trkpt lat="40.1864" lon="15.0301083"><ele>134.0</ele><time>2026-04-25T13:14:23.942Z</time></trkpt><trkpt lat="40.18633" lon="15.030205"><ele>134.4</ele><time>2026-04-25T13:14:24.946Z</time></trkpt><trkpt lat="40.186265" lon="15.030295"><ele>134.8</ele><time>2026-04-25T13:14:25.997Z</time></trkpt><trkpt lat="40.1861917" lon="15.03038"><ele>135.2</ele><time>2026-04-25T13:14:26.938Z</time></trkpt><trkpt lat="40.1861217" lon="15.0304533"><ele>135.6</ele><time>2026-04-25T13:14:27.935Z</time></trkpt><trkpt lat="40.186045" lon="15.030515"><ele>136.0</ele><time>2026-04-25T13:14:28.94Z</time></trkpt><trkpt lat="40.18596" lon="15.03055"><ele>136.0</ele><time>2026-04-25T13:14:29.941Z</time></trkpt><trkpt lat="40.1858733" lon="15.0305667"><ele>136.0</ele><time>2026-04-25T13:14:30.943Z</time></trkpt><trkpt lat="40.1857683" lon="15.030565"><ele>136.0</ele><time>2026-04-25T13:14:31.986Z</time></trkpt><trkpt lat="40.1856567" lon="15.0305567"><ele>136.0</ele><time>2026-04-25T13:14:32.94Z</time></trkpt><trkpt lat="40.185555" lon="15.0305483"><ele>136.0</ele><time>2026-04-25T13:14:33.944Z</time></trkpt><trkpt lat="40.1854583" lon="15.0305433"><ele>131.2</ele><time>2026-04-25T13:14:34.948Z</time></trkpt><trkpt lat="40.1853667" lon="15.03055"><ele>126.39999999999999</ele><time>2026-04-25T13:14:35.944Z</time></trkpt><trkpt lat="40.185275" lon="15.0305783"><ele>121.6</ele><time>2026-04-25T13:14:36.941Z</time></trkpt><trkpt lat="40.1851867" lon="15.0306267"><ele>116.8</ele><time>2026-04-25T13:14:37.994Z</time></trkpt><trkpt lat="40.185095" lon="15.030675"><ele>112.0</ele><time>2026-04-25T13:14:38.945Z</time></trkpt><trkpt lat="40.1850017" lon="15.0307167"><ele>112.0</ele><time>2026-04-25T13:14:39.939Z</time></trkpt><trkpt lat="40.1849083" lon="15.030745"><ele>111.99999999999999</ele><time>2026-04-25T13:14:40.943Z</time></trkpt><trkpt lat="40.1848117" lon="15.030775"><ele>111.99999999999999</ele><time>2026-04-25T13:14:41.936Z</time></trkpt><trkpt lat="40.184715" lon="15.030805"><ele>112.0</ele><time>2026-04-25T13:14:42.942Z</time></trkpt><trkpt lat="40.18462" lon="15.0308483"><ele>112.0</ele><time>2026-04-25T13:14:43.992Z</time></trkpt><trkpt lat="40.1845333" lon="15.0309067"><ele>114.19999999999999</ele><time>2026-04-25T13:14:44.943Z</time></trkpt><trkpt lat="40.1844567" lon="15.030985"><ele>116.39999999999999</ele><time>2026-04-25T13:14:45.939Z</time></trkpt><trkpt lat="40.18438" lon="15.0310683"><ele>118.60000000000001</ele><time>2026-04-25T13:14:46.939Z</time></trkpt><trkpt lat="40.1843033" lon="15.0311567"><ele>120.80000000000001</ele><time>2026-04-25T13:14:47.947Z</time></trkpt><trkpt lat="40.1842183" lon="15.031245"><ele>123.0</ele><time>2026-04-25T13:14:48.945Z</time></trkpt><trkpt lat="40.184125" lon="15.03133"><ele>123.0</ele><time>2026-04-25T13:14:49.993Z</time></trkpt><trkpt lat="40.1840217" lon="15.0314067"><ele>123.0</ele><time>2026-04-25T13:14:50.943Z</time></trkpt><trkpt lat="40.183915" lon="15.0314767"><ele>123.0</ele><time>2026-04-25T13:14:51.946Z</time></trkpt><trkpt lat="40.1838017" lon="15.0315333"><ele>123.0</ele><time>2026-04-25T13:14:52.945Z</time></trkpt><trkpt lat="40.1836833" lon="15.0315767"><ele>114.75</ele><time>2026-04-25T13:14:53.943Z</time></trkpt><trkpt lat="40.1835533" lon="15.0316017"><ele>106.5</ele><time>2026-04-25T13:14:54.944Z</time></trkpt><trkpt lat="40.18342" lon="15.0316183"><ele>98.25</ele><time>2026-04-25T13:14:56.005Z</time></trkpt><trkpt lat="40.1832883" lon="15.0316267"><ele>90.0</ele><time>2026-04-25T13:14:56.94Z</time></trkpt><trkpt lat="40.183165" lon="15.0316317"><ele>89.0</ele><time>2026-04-25T13:14:57.946Z</time></trkpt><trkpt lat="40.1830483" lon="15.0316583"><ele>88.0</ele><time>2026-04-25T13:14:58.948Z</time></trkpt><trkpt lat="40.1829283" lon="15.0316983"><ele>87.0</ele><time>2026-04-25T13:14:59.941Z</time></trkpt><trkpt lat="40.182805" lon="15.03176"><ele>86.0</ele><time>2026-04-25T13:15:00.944Z</time></trkpt><trkpt lat="40.18268" lon="15.0318233"><ele>86.0</ele><time>2026-04-25T13:15:01.987Z</time></trkpt><trkpt lat="40.1825583" lon="15.0318917"><ele>86.0</ele><time>2026-04-25T13:15:02.939Z</time></trkpt><trkpt lat="40.182445" lon="15.0319517"><ele>86.0</ele><time>2026-04-25T13:15:03.936Z</time></trkpt><trkpt lat="40.18234" lon="15.0319967"><ele>86.0</ele><time>2026-04-25T13:15:04.945Z</time></trkpt><trkpt lat="40.1822383" lon="15.0320217"><ele>81.8</ele><time>2026-04-25T13:15:05.939Z</time></trkpt><trkpt lat="40.1821483" lon="15.0320483"><ele>77.6</ele><time>2026-04-25T13:15:06.943Z</time></trkpt><trkpt lat="40.1820767" lon="15.03209"><ele>73.4</ele><time>2026-04-25T13:15:07.981Z</time></trkpt><trkpt lat="40.1819733" lon="15.0321467"><ele>69.2</ele><time>2026-04-25T13:15:09.947Z</time></trkpt><trkpt lat="40.181955" lon="15.032035"><ele>65.0</ele><time>2026-04-25T13:15:11.945Z</time></trkpt><trkpt lat="40.18198" lon="15.0319217"><ele>65.0</ele><time>2026-04-25T13:15:12.942Z</time></trkpt><trkpt lat="40.1820183" lon="15.0317867"><ele>65.0</ele><time>2026-04-25T13:15:13.978Z</time></trkpt><trkpt lat="40.1820633" lon="15.031655"><ele>65.0</ele><time>2026-04-25T13:15:14.94Z</time></trkpt><trkpt lat="40.1821133" lon="15.0315267"><ele>65.0</ele><time>2026-04-25T13:15:15.947Z</time></trkpt><trkpt lat="40.1821733" lon="15.0313883"><ele>66.2</ele><time>2026-04-25T13:15:16.944Z</time></trkpt><trkpt lat="40.1822333" lon="15.0312617"><ele>67.4</ele><time>2026-04-25T13:15:17.944Z</time></trkpt><trkpt lat="40.1822967" lon="15.0311367"><ele>68.6</ele><time>2026-04-25T13:15:18.943Z</time></trkpt><trkpt lat="40.1823583" lon="15.0310283"><ele>69.8</ele><time>2026-04-25T13:15:19.986Z</time></trkpt><trkpt lat="40.1824167" lon="15.0309233"><ele>71.0</ele><time>2026-04-25T13:15:20.934Z</time></trkpt><trkpt lat="40.1824667" lon="15.03081"><ele>66.0</ele><time>2026-04-25T13:15:21.937Z</time></trkpt><trkpt lat="40.182515" lon="15.0306867"><ele>61.0</ele><time>2026-04-25T13:15:22.945Z</time></trkpt><trkpt lat="40.1825717" lon="15.0305467"><ele>56.0</ele><time>2026-04-25T13:15:23.942Z</time></trkpt><trkpt lat="40.1826167" lon="15.0304"><ele>51.0</ele><time>2026-04-25T13:15:24.95Z</time></trkpt><trkpt lat="40.18265" lon="15.0302533"><ele>51.0</ele><time>2026-04-25T13:15:26.002Z</time></trkpt><trkpt lat="40.1826717" lon="15.03011"><ele>51.0</ele><time>2026-04-25T13:15:26.945Z</time></trkpt><trkpt lat="40.182685" lon="15.0299617"><ele>51.0</ele><time>2026-04-25T13:15:27.943Z</time></trkpt><trkpt lat="40.1826883" lon="15.0298217"><ele>51.0</ele><time>2026-04-25T13:15:28.946Z</time></trkpt><trkpt lat="40.1827" lon="15.0296917"><ele>51.0</ele><time>2026-04-25T13:15:29.942Z</time></trkpt><trkpt lat="40.18272" lon="15.0295583"><ele>48.0</ele><time>2026-04-25T13:15:30.948Z</time></trkpt><trkpt lat="40.182745" lon="15.0294417"><ele>45.0</ele><time>2026-04-25T13:15:31.986Z</time></trkpt><trkpt lat="40.1827867" lon="15.0293317"><ele>42.0</ele><time>2026-04-25T13:15:32.94Z</time></trkpt><trkpt lat="40.1828233" lon="15.029225"><ele>39.0</ele><time>2026-04-25T13:15:33.942Z</time></trkpt><trkpt lat="40.18284" lon="15.029115"><ele>36.0</ele><time>2026-04-25T13:15:34.944Z</time></trkpt><trkpt lat="40.1828383" lon="15.0290017"><ele>33.0</ele><time>2026-04-25T13:15:35.945Z</time></trkpt><trkpt lat="40.1828117" lon="15.0288767"><ele>30.0</ele><time>2026-04-25T13:15:36.949Z</time></trkpt><trkpt lat="40.1827683" lon="15.028735"><ele>27.0</ele><time>2026-04-25T13:15:37.989Z</time></trkpt><trkpt lat="40.182725" lon="15.0285917"><ele>24.0</ele><time>2026-04-25T13:15:38.936Z</time></trkpt><trkpt lat="40.1826817" lon="15.0284467"><ele>21.0</ele><time>2026-04-25T13:15:39.941Z</time></trkpt><trkpt lat="40.1826433" lon="15.0282967"><ele>20.0</ele><time>2026-04-25T13:15:40.944Z</time></trkpt><trkpt lat="40.182605" lon="15.02816"><ele>19.0</ele><time>2026-04-25T13:15:41.941Z</time></trkpt><trkpt lat="40.1825783" lon="15.0280283"><ele>18.0</ele><time>2026-04-25T13:15:42.948Z</time></trkpt><trkpt lat="40.1825483" lon="15.0279033"><ele>17.0</ele><time>2026-04-25T13:15:43.982Z</time></trkpt><trkpt lat="40.182515" lon="15.02778"><ele>16.0</ele><time>2026-04-25T13:15:44.941Z</time></trkpt><trkpt lat="40.1824817" lon="15.027665"><ele>16.0</ele><time>2026-04-25T13:15:45.943Z</time></trkpt><trkpt lat="40.1824533" lon="15.0275567"><ele>16.0</ele><time>2026-04-25T13:15:46.944Z</time></trkpt><trkpt lat="40.182425" lon="15.0274633"><ele>16.0</ele><time>2026-04-25T13:15:47.937Z</time></trkpt><trkpt lat="40.1823767" lon="15.0273833"><ele>16.0</ele><time>2026-04-25T13:15:49.98Z</time></trkpt><trkpt lat="40.18239" lon="15.0275567"><ele>16.0</ele><time>2026-04-25T13:16:02.943Z</time></trkpt><trkpt lat="40.18241" lon="15.027665"><ele>16.0</ele><time>2026-04-25T13:16:03.941Z</time></trkpt><trkpt lat="40.1823683" lon="15.0278033"><ele>16.0</ele><time>2026-04-25T13:16:05.942Z</time></trkpt><trkpt lat="40.1822867" lon="15.0279133"><ele>16.0</ele><time>2026-04-25T13:16:07.985Z</time></trkpt><trkpt lat="40.18223" lon="15.0279633"><ele>16.0</ele><time>2026-04-25T13:16:08.941Z</time></trkpt><trkpt lat="40.1821417" lon="15.0280017"><ele>16.0</ele><time>2026-04-25T13:16:09.937Z</time></trkpt><trkpt lat="40.182005" lon="15.0280567"><ele>15.5</ele><time>2026-04-25T13:16:10.943Z</time></trkpt><trkpt lat="40.1818717" lon="15.0281267"><ele>15.0</ele><time>2026-04-25T13:16:11.946Z</time></trkpt><trkpt lat="40.181745" lon="15.028205"><ele>14.5</ele><time>2026-04-25T13:16:12.947Z</time></trkpt><trkpt lat="40.181625" lon="15.0282883"><ele>14.0</ele><time>2026-04-25T13:16:13.984Z</time></trkpt><trkpt lat="40.1814167" lon="15.0284317"><ele>13.500000000000002</ele><time>2026-04-25T13:16:15.944Z</time></trkpt><trkpt lat="40.1813283" lon="15.0284883"><ele>13.0</ele><time>2026-04-25T13:16:16.943Z</time></trkpt><trkpt lat="40.1812583" lon="15.0285133"><ele>12.5</ele><time>2026-04-25T13:16:17.947Z</time></trkpt><trkpt lat="40.181185" lon="15.0284967"><ele>12.0</ele><time>2026-04-25T13:16:19.988Z</time></trkpt><trkpt lat="40.1812217" lon="15.028415"><ele>11.5</ele><time>2026-04-25T13:16:21.94Z</time></trkpt><trkpt lat="40.1813333" lon="15.0283283"><ele>11.0</ele><time>2026-04-25T13:16:23.94Z</time></trkpt><trkpt lat="40.18142" lon="15.0282867"><ele>11.75</ele><time>2026-04-25T13:16:25.998Z</time></trkpt><trkpt lat="40.1815833" lon="15.0281817"><ele>12.5</ele><time>2026-04-25T13:16:40.937Z</time></trkpt><trkpt lat="40.1816717" lon="15.0281167"><ele>13.25</ele><time>2026-04-25T13:16:41.94Z</time></trkpt><trkpt lat="40.1817717" lon="15.0280483"><ele>14.0</ele><time>2026-04-25T13:16:42.942Z</time></trkpt><trkpt lat="40.18189" lon="15.0279683"><ele>14.0</ele><time>2026-04-25T13:16:43.981Z</time></trkpt><trkpt lat="40.18201" lon="15.0278933"><ele>14.0</ele><time>2026-04-25T13:16:44.939Z</time></trkpt><trkpt lat="40.1821367" lon="15.0278233"><ele>14.0</ele><time>2026-04-25T13:16:45.939Z</time></trkpt><trkpt lat="40.1822633" lon="15.0277567"><ele>14.0</ele><time>2026-04-25T13:16:46.946Z</time></trkpt><trkpt lat="40.182385" lon="15.02769"><ele>14.5</ele><time>2026-04-25T13:16:47.937Z</time></trkpt><trkpt lat="40.1825067" lon="15.02763"><ele>15.0</ele><time>2026-04-25T13:16:48.938Z</time></trkpt><trkpt lat="40.1826333" lon="15.0275717"><ele>15.5</ele><time>2026-04-25T13:16:49.98Z</time></trkpt><trkpt lat="40.182765" lon="15.027515"><ele>16.0</ele><time>2026-04-25T13:16:50.94Z</time></trkpt><trkpt lat="40.1828933" lon="15.0274567"><ele>15.0</ele><time>2026-04-25T13:16:51.946Z</time></trkpt><trkpt lat="40.183035" lon="15.0273933"><ele>14.0</ele><time>2026-04-25T13:16:52.935Z</time></trkpt><trkpt lat="40.18318" lon="15.0273283"><ele>13.0</ele><time>2026-04-25T13:16:53.943Z</time></trkpt><trkpt lat="40.1833317" lon="15.02726"><ele>13.0</ele><time>2026-04-25T13:16:54.944Z</time></trkpt><trkpt lat="40.18349" lon="15.0271883"><ele>13.0</ele><time>2026-04-25T13:16:55.999Z</time></trkpt><trkpt lat="40.1836533" lon="15.0271117"><ele>13.0</ele><time>2026-04-25T13:16:56.943Z</time></trkpt><trkpt lat="40.18382" lon="15.027035"><ele>13.0</ele><time>2026-04-25T13:16:57.94Z</time></trkpt><trkpt lat="40.1839933" lon="15.02696"><ele>13.0</ele><time>2026-04-25T13:16:58.944Z</time></trkpt><trkpt lat="40.184175" lon="15.0268833"><ele>13.0</ele><time>2026-04-25T13:16:59.94Z</time></trkpt><trkpt lat="40.1843617" lon="15.0268"><ele>14.0</ele><time>2026-04-25T13:17:00.946Z</time></trkpt><trkpt lat="40.1845617" lon="15.0267133"><ele>15.0</ele><time>2026-04-25T13:17:01.999Z</time></trkpt><trkpt lat="40.1847683" lon="15.0266183"><ele>16.0</ele><time>2026-04-25T13:17:02.947Z</time></trkpt><trkpt lat="40.1849617" lon="15.0265233"><ele>13.666666666666666</ele><time>2026-04-25T13:17:03.937Z</time></trkpt><trkpt lat="40.1851417" lon="15.026435"><ele>11.333333333333332</ele><time>2026-04-25T13:17:04.938Z</time></trkpt><trkpt lat="40.1853083" lon="15.0263467"><ele>9.0</ele><time>2026-04-25T13:17:05.943Z</time></trkpt><trkpt lat="40.1854617" lon="15.026255"><ele>9.0</ele><time>2026-04-25T13:17:06.942Z</time></trkpt><trkpt lat="40.1856033" lon="15.0261633"><ele>9.0</ele><time>2026-04-25T13:17:07.981Z</time></trkpt><trkpt lat="40.185725" lon="15.02608"><ele>9.0</ele><time>2026-04-25T13:17:08.939Z</time></trkpt><trkpt lat="40.185825" lon="15.026005"><ele>9.0</ele><time>2026-04-25T13:17:09.941Z</time></trkpt><trkpt lat="40.1859017" lon="15.0259467"><ele>9.0</ele><time>2026-04-25T13:17:10.941Z</time></trkpt><trkpt lat="40.185965" lon="15.025895"><ele>9.0</ele><time>2026-04-25T13:17:11.943Z</time></trkpt><trkpt lat="40.1860233" lon="15.0258"><ele>9.0</ele><time>2026-04-25T13:17:13.983Z</time></trkpt><trkpt lat="40.1859183" lon="15.0257733"><ele>9.0</ele><time>2026-04-25T13:17:18.943Z</time></trkpt><trkpt lat="40.1858517" lon="15.025785"><ele>9.0</ele><time>2026-04-25T13:17:19.984Z</time></trkpt><trkpt lat="40.1857733" lon="15.0258017"><ele>9.0</ele><time>2026-04-25T13:17:20.935Z</time></trkpt><trkpt lat="40.185665" lon="15.0258217"><ele>9.0</ele><time>2026-04-25T13:17:21.944Z</time></trkpt><trkpt lat="40.18556" lon="15.0258467"><ele>9.0</ele><time>2026-04-25T13:17:22.947Z</time></trkpt><trkpt lat="40.1854433" lon="15.0258733"><ele>9.0</ele><time>2026-04-25T13:17:23.942Z</time></trkpt><trkpt lat="40.1853083" lon="15.0258933"><ele>9.0</ele><time>2026-04-25T13:17:24.952Z</time></trkpt><trkpt lat="40.1851717" lon="15.025905"><ele>9.0</ele><time>2026-04-25T13:17:26.003Z</time></trkpt><trkpt lat="40.18503" lon="15.0259067"><ele>9.0</ele><time>2026-04-25T13:17:26.941Z</time></trkpt><trkpt lat="40.1848883" lon="15.0259033"><ele>9.0</ele><time>2026-04-25T13:17:27.943Z</time></trkpt><trkpt lat="40.1847467" lon="15.0258917"><ele>9.0</ele><time>2026-04-25T13:17:28.938Z</time></trkpt><trkpt lat="40.1846083" lon="15.02588"><ele>9.0</ele><time>2026-04-25T13:17:29.941Z</time></trkpt><trkpt lat="40.1844733" lon="15.0258667"><ele>9.0</ele><time>2026-04-25T13:17:30.95Z</time></trkpt><trkpt lat="40.18434" lon="15.0258533"><ele>9.0</ele><time>2026-04-25T13:17:31.989Z</time></trkpt><trkpt lat="40.1842067" lon="15.0258417"><ele>9.0</ele><time>2026-04-25T13:17:32.939Z</time></trkpt><trkpt lat="40.1840717" lon="15.0258267"><ele>9.0</ele><time>2026-04-25T13:17:33.941Z</time></trkpt><trkpt lat="40.1839433" lon="15.0258183"><ele>9.0</ele><time>2026-04-25T13:17:34.945Z</time></trkpt><trkpt lat="40.1838183" lon="15.0258067"><ele>9.0</ele><time>2026-04-25T13:17:35.939Z</time></trkpt><trkpt lat="40.1837017" lon="15.0257983"><ele>9.0</ele><time>2026-04-25T13:17:36.946Z</time></trkpt><trkpt lat="40.1835917" lon="15.0257883"><ele>8.4</ele><time>2026-04-25T13:17:37.987Z</time></trkpt><trkpt lat="40.183485" lon="15.0257733"><ele>7.800000000000001</ele><time>2026-04-25T13:17:38.942Z</time></trkpt><trkpt lat="40.1833767" lon="15.0257533"><ele>7.199999999999999</ele><time>2026-04-25T13:17:39.938Z</time></trkpt><trkpt lat="40.1832733" lon="15.0257367"><ele>6.6</ele><time>2026-04-25T13:17:40.946Z</time></trkpt><trkpt lat="40.1831733" lon="15.0257133"><ele>6.0</ele><time>2026-04-25T13:17:41.938Z</time></trkpt><trkpt lat="40.1830817" lon="15.0257"><ele>6.0</ele><time>2026-04-25T13:17:42.947Z</time></trkpt><trkpt lat="40.1829917" lon="15.025685"><ele>6.0</ele><time>2026-04-25T13:17:43.984Z</time></trkpt><trkpt lat="40.182895" lon="15.0256683"><ele>6.0</ele><time>2026-04-25T13:17:44.938Z</time></trkpt><trkpt lat="40.1827967" lon="15.0256633"><ele>6.0</ele><time>2026-04-25T13:17:45.944Z</time></trkpt><trkpt lat="40.1827017" lon="15.02565"><ele>6.0</ele><time>2026-04-25T13:17:46.94Z</time></trkpt><trkpt lat="40.18261" lon="15.025635"><ele>6.0</ele><time>2026-04-25T13:17:47.943Z</time></trkpt><trkpt lat="40.18252" lon="15.02561"><ele>6.0</ele><time>2026-04-25T13:17:48.94Z</time></trkpt><trkpt lat="40.1824317" lon="15.0255817"><ele>6.0</ele><time>2026-04-25T13:17:49.985Z</time></trkpt><trkpt lat="40.18235" lon="15.0255467"><ele>6.0</ele><time>2026-04-25T13:17:50.939Z</time></trkpt><trkpt lat="40.1822667" lon="15.025495"><ele>6.0</ele><time>2026-04-25T13:17:51.943Z</time></trkpt><trkpt lat="40.182195" lon="15.0254283"><ele>6.0</ele><time>2026-04-25T13:17:52.947Z</time></trkpt><trkpt lat="40.1821117" lon="15.025355"><ele>6.142857142857142</ele><time>2026-04-25T13:17:53.941Z</time></trkpt><trkpt lat="40.182045" lon="15.02529"><ele>6.285714285714286</ele><time>2026-04-25T13:17:54.947Z</time></trkpt><trkpt lat="40.18199" lon="15.0252317"><ele>6.428571428571429</ele><time>2026-04-25T13:17:55.985Z</time></trkpt><trkpt lat="40.1819333" lon="15.0251783"><ele>6.571428571428571</ele><time>2026-04-25T13:17:56.94Z</time></trkpt><trkpt lat="40.18188" lon="15.0251317"><ele>6.714285714285714</ele><time>2026-04-25T13:17:57.946Z</time></trkpt><trkpt lat="40.1818083" lon="15.0250983"><ele>6.857142857142857</ele><time>2026-04-25T13:17:58.943Z</time></trkpt><trkpt lat="40.1817433" lon="15.0251033"><ele>7.0</ele><time>2026-04-25T13:17:59.941Z</time></trkpt><trkpt lat="40.1816733" lon="15.0251317"><ele>7.0</ele><time>2026-04-25T13:18:00.946Z</time></trkpt><trkpt lat="40.1816033" lon="15.0251767"><ele>6.999999999999999</ele><time>2026-04-25T13:18:01.988Z</time></trkpt><trkpt lat="40.181525" lon="15.025235"><ele>6.999999999999999</ele><time>2026-04-25T13:18:02.938Z</time></trkpt><trkpt lat="40.1814383" lon="15.0252917"><ele>7.0</ele><time>2026-04-25T13:18:03.943Z</time></trkpt><trkpt lat="40.1813533" lon="15.0253483"><ele>7.0</ele><time>2026-04-25T13:18:04.941Z</time></trkpt><trkpt lat="40.1812683" lon="15.0254033"><ele>7.3999999999999995</ele><time>2026-04-25T13:18:05.939Z</time></trkpt><trkpt lat="40.1811817" lon="15.0254533"><ele>7.799999999999999</ele><time>2026-04-25T13:18:06.94Z</time></trkpt><trkpt lat="40.181095" lon="15.0255033"><ele>8.2</ele><time>2026-04-25T13:18:07.981Z</time></trkpt><trkpt lat="40.1810033" lon="15.0255533"><ele>8.6</ele><time>2026-04-25T13:18:08.936Z</time></trkpt><trkpt lat="40.18092" lon="15.025615"><ele>9.0</ele><time>2026-04-25T13:18:09.94Z</time></trkpt><trkpt lat="40.1808367" lon="15.025675"><ele>9.0</ele><time>2026-04-25T13:18:10.94Z</time></trkpt><trkpt lat="40.180755" lon="15.02573"><ele>9.0</ele><time>2026-04-25T13:18:11.941Z</time></trkpt><trkpt lat="40.1806767" lon="15.02578"><ele>9.0</ele><time>2026-04-25T13:18:12.941Z</time></trkpt><trkpt lat="40.1805933" lon="15.02583"><ele>9.0</ele><time>2026-04-25T13:18:13.984Z</time></trkpt><trkpt lat="40.1805117" lon="15.0258817"><ele>9.0</ele><time>2026-04-25T13:18:14.938Z</time></trkpt><trkpt lat="40.1804367" lon="15.0259283"><ele>9.0</ele><time>2026-04-25T13:18:15.938Z</time></trkpt><trkpt lat="40.1803717" lon="15.02597"><ele>8.8</ele><time>2026-04-25T13:18:16.941Z</time></trkpt><trkpt lat="40.1803117" lon="15.026005"><ele>8.600000000000001</ele><time>2026-04-25T13:18:17.94Z</time></trkpt><trkpt lat="40.18023" lon="15.0260767"><ele>8.4</ele><time>2026-04-25T13:18:19.982Z</time></trkpt><trkpt lat="40.1802617" lon="15.026175"><ele>8.200000000000001</ele><time>2026-04-25T13:18:21.94Z</time></trkpt><trkpt lat="40.1803617" lon="15.02629"><ele>8.0</ele><time>2026-04-25T13:18:23.938Z</time></trkpt><trkpt lat="40.1804467" lon="15.0263467"><ele>7.999999999999999</ele><time>2026-04-25T13:18:24.94Z</time></trkpt><trkpt lat="40.1805267" lon="15.0263967"><ele>8.0</ele><time>2026-04-25T13:18:25.988Z</time></trkpt><trkpt lat="40.1806117" lon="15.0264367"><ele>8.0</ele><time>2026-04-25T13:18:26.937Z</time></trkpt><trkpt lat="40.180685" lon="15.02645"><ele>8.0</ele><time>2026-04-25T13:18:27.939Z</time></trkpt><trkpt lat="40.1807517" lon="15.0264317"><ele>7.999999999999999</ele><time>2026-04-25T13:18:28.939Z</time></trkpt><trkpt lat="40.1808633" lon="15.0264183"><ele>8.0</ele><time>2026-04-25T13:18:30.935Z</time></trkpt><trkpt lat="40.1809467" lon="15.0265367"><ele>8.0</ele><time>2026-04-25T13:18:32.941Z</time></trkpt><trkpt lat="40.18098" lon="15.0266383"><ele>8.0</ele><time>2026-04-25T13:18:33.946Z</time></trkpt><trkpt lat="40.1810167" lon="15.0267567"><ele>8.0</ele><time>2026-04-25T13:18:34.947Z</time></trkpt><trkpt lat="40.1810533" lon="15.026875"><ele>8.0</ele><time>2026-04-25T13:18:35.94Z</time></trkpt><trkpt lat="40.1810867" lon="15.0269967"><ele>8.0</ele><time>2026-04-25T13:18:36.94Z</time></trkpt><trkpt lat="40.181115" lon="15.0271033"><ele>8.200000000000001</ele><time>2026-04-25T13:18:37.986Z</time></trkpt><trkpt lat="40.18113" lon="15.0272067"><ele>8.4</ele><time>2026-04-25T13:18:38.943Z</time></trkpt><trkpt lat="40.181065" lon="15.027265"><ele>8.600000000000001</ele><time>2026-04-25T13:18:39.943Z</time></trkpt><trkpt lat="40.180985" lon="15.0273183"><ele>8.8</ele><time>2026-04-25T13:18:40.937Z</time></trkpt><trkpt lat="40.1808917" lon="15.02737"><ele>9.0</ele><time>2026-04-25T13:18:41.938Z</time></trkpt><trkpt lat="40.18078" lon="15.0274183"><ele>9.0</ele><time>2026-04-25T13:18:42.942Z</time></trkpt><trkpt lat="40.18066" lon="15.0274733"><ele>9.0</ele><time>2026-04-25T13:18:43.978Z</time></trkpt><trkpt lat="40.1805333" lon="15.027535"><ele>9.0</ele><time>2026-04-25T13:18:44.94Z</time></trkpt><trkpt lat="40.1804083" lon="15.0276033"><ele>9.0</ele><time>2026-04-25T13:18:45.936Z</time></trkpt><trkpt lat="40.1802883" lon="15.0276733"><ele>9.2</ele><time>2026-04-25T13:18:46.938Z</time></trkpt><trkpt lat="40.1801817" lon="15.027745"><ele>9.4</ele><time>2026-04-25T13:18:47.941Z</time></trkpt><trkpt lat="40.1800883" lon="15.0278117"><ele>9.6</ele><time>2026-04-25T13:18:48.936Z</time></trkpt><trkpt lat="40.180015" lon="15.027885"><ele>9.8</ele><time>2026-04-25T13:18:49.982Z</time></trkpt><trkpt lat="40.1799617" lon="15.02796"><ele>10.0</ele><time>2026-04-25T13:18:50.939Z</time></trkpt><trkpt lat="40.17995" lon="15.0280533"><ele>10.0</ele><time>2026-04-25T13:18:51.938Z</time></trkpt><trkpt lat="40.1799417" lon="15.0281533"><ele>10.0</ele><time>2026-04-25T13:18:52.941Z</time></trkpt><trkpt lat="40.179945" lon="15.028255"><ele>10.0</ele><time>2026-04-25T13:18:53.941Z</time></trkpt><trkpt lat="40.1799683" lon="15.0283683"><ele>10.0</ele><time>2026-04-25T13:18:54.944Z</time></trkpt><trkpt lat="40.1800133" lon="15.028495"><ele>10.0</ele><time>2026-04-25T13:18:56Z</time></trkpt><trkpt lat="40.1800617" lon="15.0286233"><ele>10.6</ele><time>2026-04-25T13:18:56.941Z</time></trkpt><trkpt lat="40.1801117" lon="15.0287483"><ele>11.2</ele><time>2026-04-25T13:18:57.94Z</time></trkpt><trkpt lat="40.1801567" lon="15.028875"><ele>11.8</ele><time>2026-04-25T13:18:58.948Z</time></trkpt><trkpt lat="40.1801967" lon="15.0289967"><ele>12.4</ele><time>2026-04-25T13:18:59.946Z</time></trkpt><trkpt lat="40.18022" lon="15.02912"><ele>13.0</ele><time>2026-04-25T13:19:01.989Z</time></trkpt><trkpt lat="40.1801483" lon="15.0292183"><ele>13.75</ele><time>2026-04-25T13:19:03.946Z</time></trkpt><trkpt lat="40.1800717" lon="15.0292733"><ele>14.5</ele><time>2026-04-25T13:19:04.947Z</time></trkpt><trkpt lat="40.17997" lon="15.0293317"><ele>15.25</ele><time>2026-04-25T13:19:05.949Z</time></trkpt><trkpt lat="40.17985" lon="15.029395"><ele>16.0</ele><time>2026-04-25T13:19:06.946Z</time></trkpt><trkpt lat="40.1797133" lon="15.0294617"><ele>16.0</ele><time>2026-04-25T13:19:07.979Z</time></trkpt><trkpt lat="40.1795767" lon="15.029535"><ele>16.0</ele><time>2026-04-25T13:19:08.942Z</time></trkpt><trkpt lat="40.179435" lon="15.0296133"><ele>16.0</ele><time>2026-04-25T13:19:09.946Z</time></trkpt><trkpt lat="40.1793017" lon="15.029685"><ele>16.0</ele><time>2026-04-25T13:19:10.942Z</time></trkpt><trkpt lat="40.1791767" lon="15.0297533"><ele>16.0</ele><time>2026-04-25T13:19:11.943Z</time></trkpt><trkpt lat="40.1790533" lon="15.0298183"><ele>16.0</ele><time>2026-04-25T13:19:12.944Z</time></trkpt><trkpt lat="40.1789283" lon="15.0298833"><ele>16.0</ele><time>2026-04-25T13:19:13.983Z</time></trkpt><trkpt lat="40.1788033" lon="15.0299583"><ele>16.0</ele><time>2026-04-25T13:19:14.938Z</time></trkpt><trkpt lat="40.1786783" lon="15.0300467"><ele>16.5</ele><time>2026-04-25T13:19:15.943Z</time></trkpt><trkpt lat="40.1785583" lon="15.0301417"><ele>17.0</ele><time>2026-04-25T13:19:16.943Z</time></trkpt><trkpt lat="40.1784433" lon="15.0302467"><ele>17.5</ele><time>2026-04-25T13:19:17.939Z</time></trkpt><trkpt lat="40.1783367" lon="15.03036"><ele>18.0</ele><time>2026-04-25T13:19:18.943Z</time></trkpt><trkpt lat="40.17824" lon="15.0304767"><ele>17.0</ele><time>2026-04-25T13:19:19.986Z</time></trkpt><trkpt lat="40.1781483" lon="15.0305917"><ele>16.0</ele><time>2026-04-25T13:19:20.943Z</time></trkpt><trkpt lat="40.1780617" lon="15.0307083"><ele>15.0</ele><time>2026-04-25T13:19:21.945Z</time></trkpt><trkpt lat="40.1779817" lon="15.0308233"><ele>14.0</ele><time>2026-04-25T13:19:22.941Z</time></trkpt><trkpt lat="40.1779017" lon="15.0309233"><ele>14.0</ele><time>2026-04-25T13:19:23.946Z</time></trkpt><trkpt lat="40.1778233" lon="15.0310167"><ele>13.999999999999998</ele><time>2026-04-25T13:19:24.94Z</time></trkpt><trkpt lat="40.1777483" lon="15.0311117"><ele>13.999999999999998</ele><time>2026-04-25T13:19:25.99Z</time></trkpt><trkpt lat="40.1776767" lon="15.0312133"><ele>14.0</ele><time>2026-04-25T13:19:26.941Z</time></trkpt><trkpt lat="40.1776033" lon="15.0313183"><ele>14.0</ele><time>2026-04-25T13:19:27.942Z</time></trkpt><trkpt lat="40.1775233" lon="15.031425"><ele>14.0</ele><time>2026-04-25T13:19:28.942Z</time></trkpt><trkpt lat="40.1774367" lon="15.0315367"><ele>14.0</ele><time>2026-04-25T13:19:29.941Z</time></trkpt><trkpt lat="40.1773483" lon="15.0316533"><ele>14.0</ele><time>2026-04-25T13:19:30.943Z</time></trkpt><trkpt lat="40.1772533" lon="15.031775"><ele>14.0</ele><time>2026-04-25T13:19:31.989Z</time></trkpt><trkpt lat="40.1771567" lon="15.0318983"><ele>11.75</ele><time>2026-04-25T13:19:32.939Z</time></trkpt><trkpt lat="40.1770567" lon="15.0320267"><ele>9.5</ele><time>2026-04-25T13:19:33.941Z</time></trkpt><trkpt lat="40.176955" lon="15.032165"><ele>7.25</ele><time>2026-04-25T13:19:34.94Z</time></trkpt><trkpt lat="40.17685" lon="15.032305"><ele>5.0</ele><time>2026-04-25T13:19:35.946Z</time></trkpt><trkpt lat="40.1767433" lon="15.0324433"><ele>6.5</ele><time>2026-04-25T13:19:36.94Z</time></trkpt><trkpt lat="40.17664" lon="15.0325767"><ele>8.0</ele><time>2026-04-25T13:19:37.986Z</time></trkpt><trkpt lat="40.1765417" lon="15.0327033"><ele>9.5</ele><time>2026-04-25T13:19:38.94Z</time></trkpt><trkpt lat="40.17645" lon="15.0328217"><ele>11.0</ele><time>2026-04-25T13:19:39.945Z</time></trkpt><trkpt lat="40.1763633" lon="15.0329317"><ele>11.0</ele><time>2026-04-25T13:19:40.949Z</time></trkpt><trkpt lat="40.1762867" lon="15.033025"><ele>11.0</ele><time>2026-04-25T13:19:41.941Z</time></trkpt><trkpt lat="40.17622" lon="15.033105"><ele>11.0</ele><time>2026-04-25T13:19:42.947Z</time></trkpt><trkpt lat="40.176165" lon="15.0331683"><ele>11.0</ele><time>2026-04-25T13:19:43.983Z</time></trkpt><trkpt lat="40.1761083" lon="15.0332267"><ele>11.0</ele><time>2026-04-25T13:19:44.942Z</time></trkpt><trkpt lat="40.1760567" lon="15.0332833"><ele>11.0</ele><time>2026-04-25T13:19:45.939Z</time></trkpt><trkpt lat="40.1760067" lon="15.0333417"><ele>12.0</ele><time>2026-04-25T13:19:46.942Z</time></trkpt><trkpt lat="40.1759283" lon="15.033445"><ele>13.0</ele><time>2026-04-25T13:19:48.939Z</time></trkpt><trkpt lat="40.17588" lon="15.0335133"><ele>14.0</ele><time>2026-04-25T13:19:50.944Z</time></trkpt><trkpt lat="40.1758133" lon="15.033595"><ele>15.0</ele><time>2026-04-25T13:19:53.942Z</time></trkpt><trkpt lat="40.1758917" lon="15.0336083"><ele>16.0</ele><time>2026-04-25T13:19:58.945Z</time></trkpt><trkpt lat="40.1759317" lon="15.0335267"><ele>17.0</ele><time>2026-04-25T13:20:00.943Z</time></trkpt><trkpt lat="40.1759767" lon="15.033455"><ele>17.0</ele><time>2026-04-25T13:20:02.939Z</time></trkpt><trkpt lat="40.1760683" lon="15.033435"><ele>17.0</ele><time>2026-04-25T13:20:05.941Z</time></trkpt><trkpt lat="40.1761767" lon="15.0334783"><ele>17.0</ele><time>2026-04-25T13:20:07.985Z</time></trkpt><trkpt lat="40.1762383" lon="15.0334983"><ele>17.0</ele><time>2026-04-25T13:20:08.94Z</time></trkpt><trkpt lat="40.17636" lon="15.0335267"><ele>17.0</ele><time>2026-04-25T13:20:10.944Z</time></trkpt><trkpt lat="40.1764567" lon="15.033565"><ele>19.0</ele><time>2026-04-25T13:20:12.943Z</time></trkpt><trkpt lat="40.1765433" lon="15.0336467"><ele>21.0</ele><time>2026-04-25T13:20:14.94Z</time></trkpt><trkpt lat="40.1766183" lon="15.0337267"><ele>23.0</ele><time>2026-04-25T13:20:16.942Z</time></trkpt><trkpt lat="40.17667" lon="15.033785"><ele>25.0</ele><time>2026-04-25T13:20:19.98Z</time></trkpt><trkpt lat="40.176755" lon="15.0337817"><ele>26.999999999999996</ele><time>2026-04-25T13:23:43.991Z</time></trkpt><trkpt lat="40.1768267" lon="15.033735"><ele>29.0</ele><time>2026-04-25T13:23:48.936Z</time></trkpt><trkpt lat="40.1769667" lon="15.0337083"><ele>28.999999999999996</ele><time>2026-04-25T13:29:52.935Z</time></trkpt><trkpt lat="40.177035" lon="15.0337017"><ele>29.0</ele><time>2026-04-25T13:29:56.941Z</time></trkpt><trkpt lat="40.1771083" lon="15.033705"><ele>29.0</ele><time>2026-04-25T13:30:09.937Z</time></trkpt><trkpt lat="40.1771217" lon="15.0338567"><ele>29.0</ele><time>2026-04-25T13:30:46.939Z</time></trkpt><trkpt lat="40.1771117" lon="15.03394"><ele>28.999999999999996</ele><time>2026-04-25T13:30:49.987Z</time></trkpt><trkpt lat="40.1771733" lon="15.0340067"><ele>29.0</ele><time>2026-04-25T13:31:03.938Z</time></trkpt><trkpt lat="40.1772217" lon="15.0340883"><ele>33.0</ele><time>2026-04-25T13:31:06.94Z</time></trkpt><trkpt lat="40.1772683" lon="15.03416"><ele>37.0</ele><time>2026-04-25T13:31:08.941Z</time></trkpt><trkpt lat="40.17735" lon="15.03426"><ele>41.0</ele><time>2026-04-25T13:31:10.937Z</time></trkpt><trkpt lat="40.17744" lon="15.03437"><ele>45.0</ele><time>2026-04-25T13:31:12.938Z</time></trkpt><trkpt lat="40.17752" lon="15.0344733"><ele>49.0</ele><time>2026-04-25T13:31:14.94Z</time></trkpt><trkpt lat="40.1775817" lon="15.0345467"><ele>52.0</ele><time>2026-04-25T13:31:16.942Z</time></trkpt><trkpt lat="40.17764" lon="15.03463"><ele>55.0</ele><time>2026-04-25T13:31:18.942Z</time></trkpt><trkpt lat="40.1776983" lon="15.0347417"><ele>58.00000000000001</ele><time>2026-04-25T13:31:20.938Z</time></trkpt><trkpt lat="40.17776" lon="15.03489"><ele>61.0</ele><time>2026-04-25T13:31:22.946Z</time></trkpt><trkpt lat="40.1777933" lon="15.0349633"><ele>64.0</ele><time>2026-04-25T13:31:23.946Z</time></trkpt><trkpt lat="40.1778267" lon="15.03504"><ele>69.0</ele><time>2026-04-25T13:31:24.939Z</time></trkpt><trkpt lat="40.177865" lon="15.0351167"><ele>74.0</ele><time>2026-04-25T13:31:25.989Z</time></trkpt><trkpt lat="40.1779" lon="15.0351917"><ele>79.0</ele><time>2026-04-25T13:31:26.933Z</time></trkpt><trkpt lat="40.17793" lon="15.0352683"><ele>84.0</ele><time>2026-04-25T13:31:27.939Z</time></trkpt><trkpt lat="40.1779667" lon="15.0354067"><ele>89.0</ele><time>2026-04-25T13:31:29.937Z</time></trkpt><trkpt lat="40.1780133" lon="15.0354817"><ele>94.0</ele><time>2026-04-25T13:31:32Z</time></trkpt><trkpt lat="40.1781367" lon="15.0355483"><ele>95.83333333333333</ele><time>2026-04-25T13:31:33.935Z</time></trkpt><trkpt lat="40.1782067" lon="15.0355767"><ele>97.66666666666666</ele><time>2026-04-25T13:31:34.936Z</time></trkpt><trkpt lat="40.178275" lon="15.0356067"><ele>99.5</ele><time>2026-04-25T13:31:35.935Z</time></trkpt><trkpt lat="40.1783317" lon="15.0356433"><ele>101.33333333333333</ele><time>2026-04-25T13:31:36.938Z</time></trkpt><trkpt lat="40.17843" lon="15.0357067"><ele>103.16666666666667</ele><time>2026-04-25T13:31:38.936Z</time></trkpt><trkpt lat="40.1784883" lon="15.0357933"><ele>105.0</ele><time>2026-04-25T13:31:40.933Z</time></trkpt><trkpt lat="40.1785367" lon="15.0359"><ele>105.0</ele><time>2026-04-25T13:31:42.945Z</time></trkpt><trkpt lat="40.1786233" lon="15.035995"><ele>105.0</ele><time>2026-04-25T13:31:44.936Z</time></trkpt><trkpt lat="40.178685" lon="15.0360733"><ele>105.0</ele><time>2026-04-25T13:31:46.944Z</time></trkpt><trkpt lat="40.1786833" lon="15.036165"><ele>105.0</ele><time>2026-04-25T13:31:48.942Z</time></trkpt><trkpt lat="40.17865" lon="15.0362467"><ele>105.0</ele><time>2026-04-25T13:31:50.933Z</time></trkpt><trkpt lat="40.1786633" lon="15.036355"><ele>105.0</ele><time>2026-04-25T13:31:53.941Z</time></trkpt><trkpt lat="40.178785" lon="15.0362817"><ele>105.0</ele><time>2026-04-25T13:32:07.986Z</time></trkpt><trkpt lat="40.17887" lon="15.0362133"><ele>105.0</ele><time>2026-04-25T13:32:14.939Z</time></trkpt><trkpt lat="40.17897" lon="15.0361867"><ele>105.0</ele><time>2026-04-25T13:32:16.944Z</time></trkpt><trkpt lat="40.1790867" lon="15.03618"><ele>105.0</ele><time>2026-04-25T13:32:18.943Z</time></trkpt><trkpt lat="40.1791883" lon="15.0362167"><ele>105.0</ele><time>2026-04-25T13:32:20.938Z</time></trkpt><trkpt lat="40.1792733" lon="15.0362817"><ele>107.2</ele><time>2026-04-25T13:32:22.941Z</time></trkpt><trkpt lat="40.1793417" lon="15.0364"><ele>109.4</ele><time>2026-04-25T13:32:24.939Z</time></trkpt><trkpt lat="40.17937" lon="15.036485"><ele>111.6</ele><time>2026-04-25T13:32:26.009Z</time></trkpt><trkpt lat="40.179395" lon="15.0365667"><ele>113.8</ele><time>2026-04-25T13:32:26.938Z</time></trkpt><trkpt lat="40.179455" lon="15.0367"><ele>116.0</ele><time>2026-04-25T13:32:28.943Z</time></trkpt><trkpt lat="40.17953" lon="15.036795"><ele>116.0</ele><time>2026-04-25T13:32:30.944Z</time></trkpt><trkpt lat="40.1796217" lon="15.0367733"><ele>116.0</ele><time>2026-04-25T13:32:33.944Z</time></trkpt><trkpt lat="40.179735" lon="15.0367283"><ele>116.0</ele><time>2026-04-25T13:32:35.943Z</time></trkpt><trkpt lat="40.179845" lon="15.0367367"><ele>116.0</ele><time>2026-04-25T13:32:37.988Z</time></trkpt><trkpt lat="40.1799333" lon="15.036805"><ele>116.0</ele><time>2026-04-25T13:32:39.945Z</time></trkpt><trkpt lat="40.1799817" lon="15.0368617"><ele>113.33333333333333</ele><time>2026-04-25T13:32:40.942Z</time></trkpt><trkpt lat="40.1800283" lon="15.0369283"><ele>110.66666666666666</ele><time>2026-04-25T13:32:41.939Z</time></trkpt><trkpt lat="40.1801" lon="15.0370467"><ele>108.0</ele><time>2026-04-25T13:32:43.989Z</time></trkpt><trkpt lat="40.1801467" lon="15.03716"><ele>105.33333333333334</ele><time>2026-04-25T13:32:45.942Z</time></trkpt><trkpt lat="40.18019" lon="15.0372533"><ele>102.66666666666667</ele><time>2026-04-25T13:32:47.938Z</time></trkpt><trkpt lat="40.1802383" lon="15.0373333"><ele>100.0</ele><time>2026-04-25T13:32:49.986Z</time></trkpt><trkpt lat="40.1802883" lon="15.0374533"><ele>103.66666666666667</ele><time>2026-04-25T13:32:51.94Z</time></trkpt><trkpt lat="40.1803217" lon="15.03753"><ele>107.33333333333334</ele><time>2026-04-25T13:32:52.949Z</time></trkpt><trkpt lat="40.1803533" lon="15.0376083"><ele>111.0</ele><time>2026-04-25T13:32:53.946Z</time></trkpt><trkpt lat="40.180385" lon="15.0376917"><ele>114.66666666666666</ele><time>2026-04-25T13:32:54.941Z</time></trkpt><trkpt lat="40.180415" lon="15.0377733"><ele>118.33333333333333</ele><time>2026-04-25T13:32:55.996Z</time></trkpt><trkpt lat="40.1804683" lon="15.03791"><ele>122.0</ele><time>2026-04-25T13:32:57.938Z</time></trkpt><trkpt lat="40.180545" lon="15.0380467"><ele>121.99999999999999</ele><time>2026-04-25T13:32:59.936Z</time></trkpt><trkpt lat="40.1805933" lon="15.0381117"><ele>122.0</ele><time>2026-04-25T13:33:00.938Z</time></trkpt><trkpt lat="40.1806433" lon="15.03817"><ele>121.99999999999999</ele><time>2026-04-25T13:33:01.993Z</time></trkpt><trkpt lat="40.18069" lon="15.0382283"><ele>121.99999999999999</ele><time>2026-04-25T13:33:02.942Z</time></trkpt><trkpt lat="40.1807283" lon="15.0382967"><ele>122.0</ele><time>2026-04-25T13:33:03.943Z</time></trkpt><trkpt lat="40.1807617" lon="15.0383767"><ele>121.99999999999999</ele><time>2026-04-25T13:33:04.951Z</time></trkpt><trkpt lat="40.1807867" lon="15.0384667"><ele>121.99999999999999</ele><time>2026-04-25T13:33:05.944Z</time></trkpt><trkpt lat="40.1808183" lon="15.0385667"><ele>120.16666666666666</ele><time>2026-04-25T13:33:06.942Z</time></trkpt><trkpt lat="40.1808617" lon="15.0386767"><ele>118.33333333333333</ele><time>2026-04-25T13:33:07.984Z</time></trkpt><trkpt lat="40.1809167" lon="15.0387833"><ele>116.5</ele><time>2026-04-25T13:33:08.941Z</time></trkpt><trkpt lat="40.1809617" lon="15.0388833"><ele>114.66666666666666</ele><time>2026-04-25T13:33:09.938Z</time></trkpt><trkpt lat="40.18101" lon="15.0389667"><ele>112.83333333333333</ele><time>2026-04-25T13:33:10.938Z</time></trkpt><trkpt lat="40.1810617" lon="15.03902"><ele>111.0</ele><time>2026-04-25T13:33:11.941Z</time></trkpt><trkpt lat="40.181125" lon="15.0390583"><ele>111.0</ele><time>2026-04-25T13:33:12.942Z</time></trkpt><trkpt lat="40.181205" lon="15.039095"><ele>111.0</ele><time>2026-04-25T13:33:13.987Z</time></trkpt><trkpt lat="40.18128" lon="15.03913"><ele>111.0</ele><time>2026-04-25T13:33:14.936Z</time></trkpt><trkpt lat="40.1813467" lon="15.039155"><ele>111.0</ele><time>2026-04-25T13:33:15.942Z</time></trkpt><trkpt lat="40.1814567" lon="15.039175"><ele>111.0</ele><time>2026-04-25T13:33:17.947Z</time></trkpt><trkpt lat="40.1815233" lon="15.039175"><ele>111.0</ele><time>2026-04-25T13:33:18.945Z</time></trkpt><trkpt lat="40.1815917" lon="15.03916"><ele>112.5</ele><time>2026-04-25T13:33:19.991Z</time></trkpt><trkpt lat="40.18166" lon="15.039135"><ele>114.0</ele><time>2026-04-25T13:33:20.937Z</time></trkpt><trkpt lat="40.1817367" lon="15.0391117"><ele>115.5</ele><time>2026-04-25T13:33:21.94Z</time></trkpt><trkpt lat="40.1818167" lon="15.0390783"><ele>117.0</ele><time>2026-04-25T13:33:22.94Z</time></trkpt><trkpt lat="40.1819" lon="15.0390533"><ele>118.5</ele><time>2026-04-25T13:33:23.942Z</time></trkpt><trkpt lat="40.1819883" lon="15.0390333"><ele>120.0</ele><time>2026-04-25T13:33:24.943Z</time></trkpt><trkpt lat="40.182075" lon="15.0390133"><ele>116.5</ele><time>2026-04-25T13:33:25.997Z</time></trkpt><trkpt lat="40.18216" lon="15.0389983"><ele>113.0</ele><time>2026-04-25T13:33:26.94Z</time></trkpt><trkpt lat="40.1822383" lon="15.03899"><ele>109.5</ele><time>2026-04-25T13:33:27.941Z</time></trkpt><trkpt lat="40.1823133" lon="15.0389867"><ele>106.0</ele><time>2026-04-25T13:33:28.939Z</time></trkpt><trkpt lat="40.1823767" lon="15.0389917"><ele>102.5</ele><time>2026-04-25T13:33:29.937Z</time></trkpt><trkpt lat="40.1824883" lon="15.0389883"><ele>99.0</ele><time>2026-04-25T13:33:31.996Z</time></trkpt><trkpt lat="40.1825583" lon="15.0390017"><ele>99.0</ele><time>2026-04-25T13:33:32.936Z</time></trkpt><trkpt lat="40.1829117" lon="15.039045"><ele>99.0</ele><time>2026-04-25T13:33:36.944Z</time></trkpt><trkpt lat="40.1830083" lon="15.0390483"><ele>99.0</ele><time>2026-04-25T13:33:37.988Z</time></trkpt><trkpt lat="40.183105" lon="15.0390433"><ele>99.0</ele><time>2026-04-25T13:33:38.939Z</time></trkpt><trkpt lat="40.1832" lon="15.0390383"><ele>99.0</ele><time>2026-04-25T13:33:39.938Z</time></trkpt><trkpt lat="40.1832917" lon="15.039035"><ele>99.0</ele><time>2026-04-25T13:33:40.941Z</time></trkpt><trkpt lat="40.1833767" lon="15.0390383"><ele>99.0</ele><time>2026-04-25T13:33:41.941Z</time></trkpt><trkpt lat="40.1834533" lon="15.0390417"><ele>99.0</ele><time>2026-04-25T13:33:42.943Z</time></trkpt><trkpt lat="40.1835267" lon="15.0390617"><ele>99.83333333333333</ele><time>2026-04-25T13:33:43.99Z</time></trkpt><trkpt lat="40.1835917" lon="15.0391083"><ele>100.66666666666666</ele><time>2026-04-25T13:33:44.944Z</time></trkpt><trkpt lat="40.1836617" lon="15.0391583"><ele>101.5</ele><time>2026-04-25T13:33:45.938Z</time></trkpt><trkpt lat="40.183735" lon="15.0391967"><ele>102.33333333333333</ele><time>2026-04-25T13:33:46.941Z</time></trkpt><trkpt lat="40.18381" lon="15.0392283"><ele>103.16666666666666</ele><time>2026-04-25T13:33:47.954Z</time></trkpt><trkpt lat="40.1838833" lon="15.0391983"><ele>104.0</ele><time>2026-04-25T13:33:48.941Z</time></trkpt><trkpt lat="40.183955" lon="15.0391467"><ele>107.99999999999999</ele><time>2026-04-25T13:33:49.991Z</time></trkpt><trkpt lat="40.184015" lon="15.0390783"><ele>112.0</ele><time>2026-04-25T13:33:50.934Z</time></trkpt><trkpt lat="40.184055" lon="15.0389833"><ele>116.0</ele><time>2026-04-25T13:33:51.938Z</time></trkpt><trkpt lat="40.1840733" lon="15.0388583"><ele>120.0</ele><time>2026-04-25T13:33:52.937Z</time></trkpt><trkpt lat="40.1840983" lon="15.0387367"><ele>123.99999999999999</ele><time>2026-04-25T13:33:53.944Z</time></trkpt><trkpt lat="40.1841333" lon="15.0386283"><ele>128.0</ele><time>2026-04-25T13:33:54.946Z</time></trkpt><trkpt lat="40.184175" lon="15.0385233"><ele>128.0</ele><time>2026-04-25T13:33:56Z</time></trkpt><trkpt lat="40.1842367" lon="15.03844"><ele>128.0</ele><time>2026-04-25T13:33:56.938Z</time></trkpt><trkpt lat="40.18431" lon="15.0383733"><ele>128.0</ele><time>2026-04-25T13:33:57.94Z</time></trkpt><trkpt lat="40.1843967" lon="15.03832"><ele>128.0</ele><time>2026-04-25T13:33:58.942Z</time></trkpt><trkpt lat="40.1844867" lon="15.0382533"><ele>128.0</ele><time>2026-04-25T13:33:59.94Z</time></trkpt><trkpt lat="40.1845667" lon="15.0381817"><ele>127.99999999999999</ele><time>2026-04-25T13:34:00.941Z</time></trkpt><trkpt lat="40.1846333" lon="15.0381117"><ele>128.0</ele><time>2026-04-25T13:34:01.997Z</time></trkpt><trkpt lat="40.184685" lon="15.038035"><ele>128.0</ele><time>2026-04-25T13:34:02.94Z</time></trkpt><trkpt lat="40.1846883" lon="15.0379417"><ele>128.0</ele><time>2026-04-25T13:34:03.936Z</time></trkpt><trkpt lat="40.18468" lon="15.0378483"><ele>127.99999999999999</ele><time>2026-04-25T13:34:04.942Z</time></trkpt><trkpt lat="40.184655" lon="15.0377633"><ele>128.0</ele><time>2026-04-25T13:34:05.943Z</time></trkpt><trkpt lat="40.1846083" lon="15.0376833"><ele>128.0</ele><time>2026-04-25T13:34:06.941Z</time></trkpt><trkpt lat="40.1845383" lon="15.0376067"><ele>128.0</ele><time>2026-04-25T13:34:07.984Z</time></trkpt><trkpt lat="40.184445" lon="15.0375283"><ele>128.0</ele><time>2026-04-25T13:34:08.942Z</time></trkpt><trkpt lat="40.1843683" lon="15.0374567"><ele>128.0</ele><time>2026-04-25T13:34:09.941Z</time></trkpt><trkpt lat="40.1843" lon="15.0373783"><ele>128.0</ele><time>2026-04-25T13:34:10.942Z</time></trkpt><trkpt lat="40.1842683" lon="15.0373"><ele>125.2</ele><time>2026-04-25T13:34:11.94Z</time></trkpt><trkpt lat="40.18426" lon="15.037195"><ele>122.4</ele><time>2026-04-25T13:34:12.939Z</time></trkpt><trkpt lat="40.184345" lon="15.0370933"><ele>119.60000000000001</ele><time>2026-04-25T13:34:14.939Z</time></trkpt><trkpt lat="40.1844283" lon="15.0371"><ele>116.80000000000001</ele><time>2026-04-25T13:34:15.945Z</time></trkpt><trkpt lat="40.18453" lon="15.037135"><ele>114.0</ele><time>2026-04-25T13:34:16.941Z</time></trkpt><trkpt lat="40.1846383" lon="15.0371917"><ele>114.0</ele><time>2026-04-25T13:34:17.94Z</time></trkpt><trkpt lat="40.1847417" lon="15.03724"><ele>114.0</ele><time>2026-04-25T13:34:18.941Z</time></trkpt><trkpt lat="40.1848367" lon="15.0372717"><ele>114.0</ele><time>2026-04-25T13:34:19.99Z</time></trkpt><trkpt lat="40.184925" lon="15.037285"><ele>114.0</ele><time>2026-04-25T13:34:20.94Z</time></trkpt><trkpt lat="40.1850083" lon="15.03728"><ele>114.0</ele><time>2026-04-25T13:34:21.943Z</time></trkpt><trkpt lat="40.1850783" lon="15.03727"><ele>114.57142857142857</ele><time>2026-04-25T13:34:22.938Z</time></trkpt><trkpt lat="40.1851433" lon="15.0372733"><ele>115.14285714285714</ele><time>2026-04-25T13:34:23.938Z</time></trkpt><trkpt lat="40.1852133" lon="15.037295"><ele>115.71428571428571</ele><time>2026-04-25T13:34:24.937Z</time></trkpt><trkpt lat="40.1852833" lon="15.0373267"><ele>116.28571428571428</ele><time>2026-04-25T13:34:25.996Z</time></trkpt><trkpt lat="40.185355" lon="15.03736"><ele>116.85714285714286</ele><time>2026-04-25T13:34:26.937Z</time></trkpt><trkpt lat="40.1854283" lon="15.0373983"><ele>117.42857142857142</ele><time>2026-04-25T13:34:27.94Z</time></trkpt><trkpt lat="40.1855017" lon="15.0374417"><ele>118.0</ele><time>2026-04-25T13:34:28.946Z</time></trkpt><trkpt lat="40.1855717" lon="15.0374883"><ele>121.16666666666667</ele><time>2026-04-25T13:34:29.937Z</time></trkpt><trkpt lat="40.18563" lon="15.0375483"><ele>124.33333333333334</ele><time>2026-04-25T13:34:30.937Z</time></trkpt><trkpt lat="40.18568" lon="15.03762"><ele>127.5</ele><time>2026-04-25T13:34:31.996Z</time></trkpt><trkpt lat="40.18572" lon="15.0377017"><ele>130.66666666666666</ele><time>2026-04-25T13:34:32.938Z</time></trkpt><trkpt lat="40.18575" lon="15.0378"><ele>133.83333333333331</ele><time>2026-04-25T13:34:33.937Z</time></trkpt><trkpt lat="40.1857767" lon="15.0379033"><ele>137.0</ele><time>2026-04-25T13:34:34.941Z</time></trkpt><trkpt lat="40.1858083" lon="15.0380083"><ele>137.0</ele><time>2026-04-25T13:34:35.936Z</time></trkpt><trkpt lat="40.1858517" lon="15.03811"><ele>137.0</ele><time>2026-04-25T13:34:36.939Z</time></trkpt><trkpt lat="40.18591" lon="15.03821"><ele>137.0</ele><time>2026-04-25T13:34:37.987Z</time></trkpt><trkpt lat="40.1859833" lon="15.038295"><ele>137.0</ele><time>2026-04-25T13:34:38.939Z</time></trkpt><trkpt lat="40.18607" lon="15.03836"><ele>137.0</ele><time>2026-04-25T13:34:39.936Z</time></trkpt><trkpt lat="40.1861567" lon="15.0384183"><ele>137.6</ele><time>2026-04-25T13:34:40.941Z</time></trkpt><trkpt lat="40.18624" lon="15.038485"><ele>138.2</ele><time>2026-04-25T13:34:41.944Z</time></trkpt><trkpt lat="40.1863183" lon="15.0385633"><ele>138.8</ele><time>2026-04-25T13:34:42.936Z</time></trkpt><trkpt lat="40.1863933" lon="15.0386583"><ele>139.4</ele><time>2026-04-25T13:34:43.977Z</time></trkpt><trkpt lat="40.1864683" lon="15.0387567"><ele>140.0</ele><time>2026-04-25T13:34:44.944Z</time></trkpt><trkpt lat="40.1865517" lon="15.038855"><ele>140.0</ele><time>2026-04-25T13:34:45.937Z</time></trkpt><trkpt lat="40.1866383" lon="15.0389483"><ele>140.0</ele><time>2026-04-25T13:34:46.939Z</time></trkpt><trkpt lat="40.186725" lon="15.039035"><ele>140.0</ele><time>2026-04-25T13:34:47.943Z</time></trkpt><trkpt lat="40.186815" lon="15.0391217"><ele>140.0</ele><time>2026-04-25T13:34:48.94Z</time></trkpt><trkpt lat="40.1869033" lon="15.039215"><ele>140.0</ele><time>2026-04-25T13:34:49.978Z</time></trkpt><trkpt lat="40.1869917" lon="15.0393133"><ele>143.0</ele><time>2026-04-25T13:34:50.942Z</time></trkpt><trkpt lat="40.1870817" lon="15.0394167"><ele>146.0</ele><time>2026-04-25T13:34:51.94Z</time></trkpt><trkpt lat="40.1871717" lon="15.0395133"><ele>149.0</ele><time>2026-04-25T13:34:52.937Z</time></trkpt><trkpt lat="40.1872667" lon="15.0395933"><ele>152.0</ele><time>2026-04-25T13:34:53.942Z</time></trkpt><trkpt lat="40.1873617" lon="15.0396583"><ele>152.0</ele><time>2026-04-25T13:34:54.939Z</time></trkpt><trkpt lat="40.1874617" lon="15.0397"><ele>152.0</ele><time>2026-04-25T13:34:55.999Z</time></trkpt><trkpt lat="40.187565" lon="15.0397233"><ele>152.0</ele><time>2026-04-25T13:34:56.939Z</time></trkpt><trkpt lat="40.1876633" lon="15.0397167"><ele>152.0</ele><time>2026-04-25T13:34:57.939Z</time></trkpt><trkpt lat="40.18776" lon="15.0396917"><ele>152.0</ele><time>2026-04-25T13:34:58.943Z</time></trkpt><trkpt lat="40.1878483" lon="15.0396433"><ele>152.0</ele><time>2026-04-25T13:34:59.939Z</time></trkpt><trkpt lat="40.1879283" lon="15.0396"><ele>152.0</ele><time>2026-04-25T13:35:00.937Z</time></trkpt><trkpt lat="40.1880083" lon="15.0395767"><ele>152.0</ele><time>2026-04-25T13:35:01.988Z</time></trkpt><trkpt lat="40.188095" lon="15.0395933"><ele>152.0</ele><time>2026-04-25T13:35:02.939Z</time></trkpt><trkpt lat="40.1881383" lon="15.0396833"><ele>152.0</ele><time>2026-04-25T13:35:03.937Z</time></trkpt><trkpt lat="40.1881833" lon="15.0397767"><ele>152.0</ele><time>2026-04-25T13:35:04.939Z</time></trkpt><trkpt lat="40.1882283" lon="15.0398683"><ele>151.0</ele><time>2026-04-25T13:35:05.938Z</time></trkpt><trkpt lat="40.1882817" lon="15.03995"><ele>150.0</ele><time>2026-04-25T13:35:06.94Z</time></trkpt><trkpt lat="40.188345" lon="15.0400217"><ele>149.0</ele><time>2026-04-25T13:35:07.983Z</time></trkpt><trkpt lat="40.1884183" lon="15.0400783"><ele>148.0</ele><time>2026-04-25T13:35:08.938Z</time></trkpt><trkpt lat="40.1884967" lon="15.0401167"><ele>147.0</ele><time>2026-04-25T13:35:09.933Z</time></trkpt><trkpt lat="40.18857" lon="15.04015"><ele>146.0</ele><time>2026-04-25T13:35:10.941Z</time></trkpt><trkpt lat="40.1886383" lon="15.040185"><ele>149.83333333333331</ele><time>2026-04-25T13:35:11.942Z</time></trkpt><trkpt lat="40.1887317" lon="15.040235"><ele>153.66666666666666</ele><time>2026-04-25T13:35:13.974Z</time></trkpt><trkpt lat="40.1887133" lon="15.0401433"><ele>157.5</ele><time>2026-04-25T13:36:39.941Z</time></trkpt><trkpt lat="40.188605" lon="15.04009"><ele>161.33333333333334</ele><time>2026-04-25T13:36:41.936Z</time></trkpt><trkpt lat="40.18854" lon="15.0400583"><ele>165.16666666666669</ele><time>2026-04-25T13:36:42.936Z</time></trkpt><trkpt lat="40.1884717" lon="15.04003"><ele>169.0</ele><time>2026-04-25T13:36:43.984Z</time></trkpt><trkpt lat="40.1884067" lon="15.0400017"><ele>166.57142857142858</ele><time>2026-04-25T13:36:44.942Z</time></trkpt><trkpt lat="40.1883483" lon="15.0399633"><ele>164.14285714285714</ele><time>2026-04-25T13:36:45.94Z</time></trkpt><trkpt lat="40.1882917" lon="15.0399167"><ele>161.71428571428572</ele><time>2026-04-25T13:36:46.943Z</time></trkpt><trkpt lat="40.1882433" lon="15.03986"><ele>159.28571428571428</ele><time>2026-04-25T13:36:47.937Z</time></trkpt><trkpt lat="40.1882" lon="15.039795"><ele>156.85714285714286</ele><time>2026-04-25T13:36:48.94Z</time></trkpt><trkpt lat="40.1881633" lon="15.0397267"><ele>154.42857142857142</ele><time>2026-04-25T13:36:49.979Z</time></trkpt><trkpt lat="40.1880983" lon="15.0395917"><ele>152.0</ele><time>2026-04-25T13:36:51.934Z</time></trkpt><trkpt lat="40.1880483" lon="15.0395383"><ele>152.0</ele><time>2026-04-25T13:36:52.939Z</time></trkpt><trkpt lat="40.1879867" lon="15.03951"><ele>152.0</ele><time>2026-04-25T13:36:53.94Z</time></trkpt><trkpt lat="40.1878567" lon="15.0395333"><ele>152.0</ele><time>2026-04-25T13:36:55.989Z</time></trkpt><trkpt lat="40.1877917" lon="15.03956"><ele>152.0</ele><time>2026-04-25T13:36:56.935Z</time></trkpt><trkpt lat="40.187725" lon="15.0395967"><ele>152.0</ele><time>2026-04-25T13:36:57.936Z</time></trkpt><trkpt lat="40.1876517" lon="15.0396217"><ele>152.0</ele><time>2026-04-25T13:36:58.93Z</time></trkpt><trkpt lat="40.1875767" lon="15.0396433"><ele>152.0</ele><time>2026-04-25T13:36:59.939Z</time></trkpt><trkpt lat="40.1875017" lon="15.0396517"><ele>152.0</ele><time>2026-04-25T13:37:00.933Z</time></trkpt><trkpt lat="40.187425" lon="15.0396483"><ele>152.0</ele><time>2026-04-25T13:37:01.978Z</time></trkpt><trkpt lat="40.187355" lon="15.0396283"><ele>152.0</ele><time>2026-04-25T13:37:02.938Z</time></trkpt><trkpt lat="40.18729" lon="15.0395883"><ele>152.0</ele><time>2026-04-25T13:37:03.934Z</time></trkpt><trkpt lat="40.18723" lon="15.03954"><ele>152.0</ele><time>2026-04-25T13:37:04.936Z</time></trkpt><trkpt lat="40.18717" lon="15.03949"><ele>152.0</ele><time>2026-04-25T13:37:05.943Z</time></trkpt><trkpt lat="40.1871117" lon="15.03944"><ele>153.57142857142856</ele><time>2026-04-25T13:37:06.945Z</time></trkpt><trkpt lat="40.1870617" lon="15.0393833"><ele>155.14285714285717</ele><time>2026-04-25T13:37:07.979Z</time></trkpt><trkpt lat="40.1870133" lon="15.039325"><ele>156.71428571428572</ele><time>2026-04-25T13:37:08.936Z</time></trkpt><trkpt lat="40.1869667" lon="15.039265"><ele>158.28571428571428</ele><time>2026-04-25T13:37:09.943Z</time></trkpt><trkpt lat="40.186915" lon="15.0392067"><ele>159.85714285714283</ele><time>2026-04-25T13:37:10.937Z</time></trkpt><trkpt lat="40.186865" lon="15.0391517"><ele>161.42857142857144</ele><time>2026-04-25T13:37:11.944Z</time></trkpt><trkpt lat="40.1868117" lon="15.0390967"><ele>163.0</ele><time>2026-04-25T13:37:12.952Z</time></trkpt><trkpt lat="40.1867583" lon="15.0390433"><ele>162.71428571428572</ele><time>2026-04-25T13:37:13.988Z</time></trkpt><trkpt lat="40.186705" lon="15.0389883"><ele>162.42857142857142</ele><time>2026-04-25T13:37:14.933Z</time></trkpt><trkpt lat="40.18665" lon="15.03893"><ele>162.14285714285714</ele><time>2026-04-25T13:37:15.936Z</time></trkpt><trkpt lat="40.1865983" lon="15.0388717"><ele>161.85714285714286</ele><time>2026-04-25T13:37:16.94Z</time></trkpt><trkpt lat="40.1865467" lon="15.038815"><ele>161.57142857142856</ele><time>2026-04-25T13:37:17.932Z</time></trkpt><trkpt lat="40.1865" lon="15.0387567"><ele>161.28571428571428</ele><time>2026-04-25T13:37:18.941Z</time></trkpt><trkpt lat="40.1864517" lon="15.038695"><ele>161.0</ele><time>2026-04-25T13:37:19.986Z</time></trkpt><trkpt lat="40.1864017" lon="15.0386267"><ele>161.0</ele><time>2026-04-25T13:37:20.936Z</time></trkpt><trkpt lat="40.1863533" lon="15.03856"><ele>161.0</ele><time>2026-04-25T13:37:21.943Z</time></trkpt><trkpt lat="40.1863117" lon="15.0384917"><ele>161.0</ele><time>2026-04-25T13:37:22.939Z</time></trkpt><trkpt lat="40.1862617" lon="15.0384333"><ele>161.0</ele><time>2026-04-25T13:37:23.945Z</time></trkpt><trkpt lat="40.186205" lon="15.0383867"><ele>161.0</ele><time>2026-04-25T13:37:24.936Z</time></trkpt><trkpt lat="40.186145" lon="15.0383467"><ele>161.0</ele><time>2026-04-25T13:37:25.995Z</time></trkpt><trkpt lat="40.1860817" lon="15.03831"><ele>161.0</ele><time>2026-04-25T13:37:26.939Z</time></trkpt><trkpt lat="40.186025" lon="15.0382733"><ele>157.57142857142858</ele><time>2026-04-25T13:37:27.943Z</time></trkpt><trkpt lat="40.1859667" lon="15.0382317"><ele>154.14285714285714</ele><time>2026-04-25T13:37:28.943Z</time></trkpt><trkpt lat="40.1859117" lon="15.0381817"><ele>150.71428571428572</ele><time>2026-04-25T13:37:29.945Z</time></trkpt><trkpt lat="40.185865" lon="15.0381183"><ele>147.28571428571428</ele><time>2026-04-25T13:37:30.942Z</time></trkpt><trkpt lat="40.1858217" lon="15.0380417"><ele>143.85714285714286</ele><time>2026-04-25T13:37:31.977Z</time></trkpt><trkpt lat="40.18579" lon="15.0379583"><ele>140.42857142857144</ele><time>2026-04-25T13:37:32.932Z</time></trkpt><trkpt lat="40.1857617" lon="15.03787"><ele>137.0</ele><time>2026-04-25T13:37:33.944Z</time></trkpt><trkpt lat="40.185735" lon="15.0377783"><ele>137.00000000000003</ele><time>2026-04-25T13:37:34.933Z</time></trkpt><trkpt lat="40.1857067" lon="15.0376917"><ele>137.0</ele><time>2026-04-25T13:37:35.948Z</time></trkpt><trkpt lat="40.1856767" lon="15.0376067"><ele>137.0</ele><time>2026-04-25T13:37:36.936Z</time></trkpt><trkpt lat="40.18564" lon="15.0375267"><ele>137.0</ele><time>2026-04-25T13:37:37.987Z</time></trkpt><trkpt lat="40.1855967" lon="15.037465"><ele>137.0</ele><time>2026-04-25T13:37:38.939Z</time></trkpt><trkpt lat="40.18554" lon="15.0374183"><ele>137.00000000000003</ele><time>2026-04-25T13:37:39.943Z</time></trkpt><trkpt lat="40.185475" lon="15.0373867"><ele>137.0</ele><time>2026-04-25T13:37:40.944Z</time></trkpt><trkpt lat="40.1854133" lon="15.0373533"><ele>133.83333333333331</ele><time>2026-04-25T13:37:41.939Z</time></trkpt><trkpt lat="40.1853517" lon="15.03732"><ele>130.66666666666666</ele><time>2026-04-25T13:37:42.938Z</time></trkpt><trkpt lat="40.1852383" lon="15.03726"><ele>127.5</ele><time>2026-04-25T13:37:44.94Z</time></trkpt><trkpt lat="40.1851217" lon="15.0372217"><ele>124.33333333333334</ele><time>2026-04-25T13:37:46.937Z</time></trkpt><trkpt lat="40.1850583" lon="15.037225"><ele>121.16666666666667</ele><time>2026-04-25T13:37:47.943Z</time></trkpt><trkpt lat="40.184995" lon="15.0372333"><ele>118.0</ele><time>2026-04-25T13:37:48.937Z</time></trkpt><trkpt lat="40.1848733" lon="15.03725"><ele>117.33333333333334</ele><time>2026-04-25T13:37:50.932Z</time></trkpt><trkpt lat="40.18476" lon="15.0372367"><ele>116.66666666666667</ele><time>2026-04-25T13:37:52.943Z</time></trkpt><trkpt lat="40.1846983" lon="15.0372067"><ele>116.0</ele><time>2026-04-25T13:37:53.943Z</time></trkpt><trkpt lat="40.1846367" lon="15.0371667"><ele>115.33333333333334</ele><time>2026-04-25T13:37:54.937Z</time></trkpt><trkpt lat="40.1845667" lon="15.03713"><ele>114.66666666666667</ele><time>2026-04-25T13:37:56.006Z</time></trkpt><trkpt lat="40.184495" lon="15.037105"><ele>114.0</ele><time>2026-04-25T13:37:56.941Z</time></trkpt><trkpt lat="40.1844267" lon="15.03709"><ele>114.0</ele><time>2026-04-25T13:37:57.935Z</time></trkpt><trkpt lat="40.1842833" lon="15.0371167"><ele>114.0</ele><time>2026-04-25T13:37:59.943Z</time></trkpt><trkpt lat="40.1841833" lon="15.03724"><ele>114.0</ele><time>2026-04-25T13:38:01.98Z</time></trkpt><trkpt lat="40.1842167" lon="15.03743"><ele>114.0</ele><time>2026-04-25T13:38:03.942Z</time></trkpt><trkpt lat="40.184335" lon="15.0375767"><ele>116.33333333333333</ele><time>2026-04-25T13:38:05.942Z</time></trkpt><trkpt lat="40.1844083" lon="15.0376317"><ele>118.66666666666666</ele><time>2026-04-25T13:38:06.938Z</time></trkpt><trkpt lat="40.1844817" lon="15.037685"><ele>121.0</ele><time>2026-04-25T13:38:07.982Z</time></trkpt><trkpt lat="40.1845467" lon="15.03775"><ele>123.33333333333333</ele><time>2026-04-25T13:38:08.941Z</time></trkpt><trkpt lat="40.1846033" lon="15.0378283"><ele>125.66666666666666</ele><time>2026-04-25T13:38:09.943Z</time></trkpt><trkpt lat="40.1846433" lon="15.0379183"><ele>128.0</ele><time>2026-04-25T13:38:10.941Z</time></trkpt><trkpt lat="40.1846617" lon="15.0380133"><ele>127.99999999999999</ele><time>2026-04-25T13:38:11.94Z</time></trkpt><trkpt lat="40.1846667" lon="15.0381067"><ele>128.0</ele><time>2026-04-25T13:38:12.935Z</time></trkpt><trkpt lat="40.1846333" lon="15.0381833"><ele>128.0</ele><time>2026-04-25T13:38:13.986Z</time></trkpt><trkpt lat="40.1845867" lon="15.0382533"><ele>128.0</ele><time>2026-04-25T13:38:14.939Z</time></trkpt><trkpt lat="40.1845217" lon="15.0383167"><ele>127.99999999999999</ele><time>2026-04-25T13:38:15.943Z</time></trkpt><trkpt lat="40.184445" lon="15.038365"><ele>128.0</ele><time>2026-04-25T13:38:16.935Z</time></trkpt><trkpt lat="40.1843717" lon="15.0384117"><ele>127.99999999999999</ele><time>2026-04-25T13:38:17.938Z</time></trkpt><trkpt lat="40.1842983" lon="15.03845"><ele>128.0</ele><time>2026-04-25T13:38:18.941Z</time></trkpt><trkpt lat="40.1842283" lon="15.038495"><ele>128.0</ele><time>2026-04-25T13:38:19.982Z</time></trkpt><trkpt lat="40.1841617" lon="15.0385467"><ele>128.0</ele><time>2026-04-25T13:38:20.947Z</time></trkpt><trkpt lat="40.1841033" lon="15.0386133"><ele>127.99999999999999</ele><time>2026-04-25T13:38:21.938Z</time></trkpt><trkpt lat="40.1840617" lon="15.0387017"><ele>128.0</ele><time>2026-04-25T13:38:22.936Z</time></trkpt><trkpt lat="40.184025" lon="15.03879"><ele>128.4</ele><time>2026-04-25T13:38:23.94Z</time></trkpt><trkpt lat="40.1840033" lon="15.0388883"><ele>128.8</ele><time>2026-04-25T13:38:24.939Z</time></trkpt><trkpt lat="40.183985" lon="15.0389917"><ele>129.2</ele><time>2026-04-25T13:38:25.959Z</time></trkpt><trkpt lat="40.1839567" lon="15.039085"><ele>129.6</ele><time>2026-04-25T13:38:26.931Z</time></trkpt><trkpt lat="40.18388" lon="15.0392367"><ele>130.0</ele><time>2026-04-25T13:38:28.939Z</time></trkpt><trkpt lat="40.1837483" lon="15.039225"><ele>130.0</ele><time>2026-04-25T13:38:30.937Z</time></trkpt><trkpt lat="40.1836217" lon="15.03915"><ele>130.0</ele><time>2026-04-25T13:38:32.936Z</time></trkpt><trkpt lat="40.1834883" lon="15.0390567"><ele>130.0</ele><time>2026-04-25T13:38:34.937Z</time></trkpt><trkpt lat="40.1833367" lon="15.0390117"><ele>130.0</ele><time>2026-04-25T13:38:36.937Z</time></trkpt><trkpt lat="40.1831683" lon="15.0390133"><ele>119.66666666666667</ele><time>2026-04-25T13:38:38.934Z</time></trkpt><trkpt lat="40.1829883" lon="15.0390417"><ele>109.33333333333334</ele><time>2026-04-25T13:38:40.938Z</time></trkpt><trkpt lat="40.1828" lon="15.0390483"><ele>99.0</ele><time>2026-04-25T13:38:42.937Z</time></trkpt><trkpt lat="40.1826183" lon="15.0390283"><ele>99.0</ele><time>2026-04-25T13:38:44.938Z</time></trkpt><trkpt lat="40.1824517" lon="15.0389917"><ele>99.0</ele><time>2026-04-25T13:38:46.933Z</time></trkpt><trkpt lat="40.1822833" lon="15.0389767"><ele>99.0</ele><time>2026-04-25T13:38:48.938Z</time></trkpt><trkpt lat="40.182125" lon="15.0389917"><ele>99.0</ele><time>2026-04-25T13:38:50.936Z</time></trkpt><trkpt lat="40.1819867" lon="15.0390133"><ele>99.0</ele><time>2026-04-25T13:38:52.938Z</time></trkpt><trkpt lat="40.1818533" lon="15.0390417"><ele>99.0</ele><time>2026-04-25T13:38:54.936Z</time></trkpt><trkpt lat="40.1817267" lon="15.0390683"><ele>99.0</ele><time>2026-04-25T13:38:56.933Z</time></trkpt><trkpt lat="40.1816017" lon="15.0390933"><ele>101.4</ele><time>2026-04-25T13:38:58.937Z</time></trkpt><trkpt lat="40.1814983" lon="15.0391167"><ele>103.80000000000001</ele><time>2026-04-25T13:39:00.939Z</time></trkpt><trkpt lat="40.1814283" lon="15.0391267"><ele>106.19999999999999</ele><time>2026-04-25T13:39:02.935Z</time></trkpt><trkpt lat="40.1813767" lon="15.0391833"><ele>108.6</ele><time>2026-04-25T13:41:33.938Z</time></trkpt><trkpt lat="40.18147" lon="15.0392167"><ele>111.0</ele><time>2026-04-25T13:41:37.977Z</time></trkpt><trkpt lat="40.1816383" lon="15.03915"><ele>107.0</ele><time>2026-04-25T13:41:39.943Z</time></trkpt><trkpt lat="40.1818517" lon="15.0390783"><ele>103.0</ele><time>2026-04-25T13:41:41.941Z</time></trkpt><trkpt lat="40.18197" lon="15.039045"><ele>99.0</ele><time>2026-04-25T13:41:42.937Z</time></trkpt><trkpt lat="40.1820933" lon="15.0390217"><ele>99.0</ele><time>2026-04-25T13:41:43.979Z</time></trkpt><trkpt lat="40.1822267" lon="15.0390067"><ele>99.0</ele><time>2026-04-25T13:41:44.931Z</time></trkpt><trkpt lat="40.182365" lon="15.0390033"><ele>99.0</ele><time>2026-04-25T13:41:45.936Z</time></trkpt><trkpt lat="40.1825033" lon="15.0390183"><ele>99.0</ele><time>2026-04-25T13:41:46.938Z</time></trkpt><trkpt lat="40.1826367" lon="15.039035"><ele>99.0</ele><time>2026-04-25T13:41:47.938Z</time></trkpt><trkpt lat="40.1827633" lon="15.0390533"><ele>99.0</ele><time>2026-04-25T13:41:48.932Z</time></trkpt><trkpt lat="40.1828883" lon="15.0390583"><ele>99.0</ele><time>2026-04-25T13:41:49.984Z</time></trkpt><trkpt lat="40.1830117" lon="15.039055"><ele>99.0</ele><time>2026-04-25T13:41:50.934Z</time></trkpt><trkpt lat="40.1831383" lon="15.0390417"><ele>100.25</ele><time>2026-04-25T13:41:51.938Z</time></trkpt><trkpt lat="40.183265" lon="15.0390383"><ele>101.5</ele><time>2026-04-25T13:41:52.931Z</time></trkpt><trkpt lat="40.1833883" lon="15.0390383"><ele>102.75</ele><time>2026-04-25T13:41:53.931Z</time></trkpt><trkpt lat="40.183505" lon="15.0390617"><ele>104.0</ele><time>2026-04-25T13:41:54.931Z</time></trkpt><trkpt lat="40.18361" lon="15.0391033"><ele>109.2</ele><time>2026-04-25T13:41:55.985Z</time></trkpt><trkpt lat="40.183705" lon="15.0391683"><ele>114.4</ele><time>2026-04-25T13:41:56.932Z</time></trkpt><trkpt lat="40.1838067" lon="15.039225"><ele>119.6</ele><time>2026-04-25T13:41:57.937Z</time></trkpt><trkpt lat="40.1839" lon="15.039245"><ele>124.8</ele><time>2026-04-25T13:41:58.935Z</time></trkpt><trkpt lat="40.1839817" lon="15.0392267"><ele>130.0</ele><time>2026-04-25T13:41:59.938Z</time></trkpt><trkpt lat="40.1840433" lon="15.0391683"><ele>129.5</ele><time>2026-04-25T13:42:00.936Z</time></trkpt><trkpt lat="40.1840933" lon="15.0390683"><ele>129.0</ele><time>2026-04-25T13:42:01.983Z</time></trkpt><trkpt lat="40.1840917" lon="15.03886"><ele>128.5</ele><time>2026-04-25T13:42:02.932Z</time></trkpt><trkpt lat="40.1841333" lon="15.0387267"><ele>128.0</ele><time>2026-04-25T13:42:03.931Z</time></trkpt><trkpt lat="40.184195" lon="15.0386017"><ele>128.0</ele><time>2026-04-25T13:42:04.934Z</time></trkpt><trkpt lat="40.1842767" lon="15.0385"><ele>128.0</ele><time>2026-04-25T13:42:05.943Z</time></trkpt><trkpt lat="40.1843767" lon="15.0384067"><ele>128.0</ele><time>2026-04-25T13:42:06.934Z</time></trkpt><trkpt lat="40.1844883" lon="15.0383167"><ele>128.0</ele><time>2026-04-25T13:42:07.985Z</time></trkpt><trkpt lat="40.184585" lon="15.03822"><ele>128.0</ele><time>2026-04-25T13:42:08.935Z</time></trkpt><trkpt lat="40.1846617" lon="15.03812"><ele>128.0</ele><time>2026-04-25T13:42:09.94Z</time></trkpt><trkpt lat="40.1847117" lon="15.0380117"><ele>128.0</ele><time>2026-04-25T13:42:10.936Z</time></trkpt><trkpt lat="40.1847183" lon="15.03788"><ele>128.0</ele><time>2026-04-25T13:42:11.939Z</time></trkpt><trkpt lat="40.184685" lon="15.0377533"><ele>128.0</ele><time>2026-04-25T13:42:12.935Z</time></trkpt><trkpt lat="40.18461" lon="15.0376367"><ele>128.0</ele><time>2026-04-25T13:42:13.982Z</time></trkpt><trkpt lat="40.1844683" lon="15.0375533"><ele>128.0</ele><time>2026-04-25T13:42:14.935Z</time></trkpt><trkpt lat="40.1843583" lon="15.0374533"><ele>128.0</ele><time>2026-04-25T13:42:15.934Z</time></trkpt><trkpt lat="40.184295" lon="15.0373583"><ele>128.0</ele><time>2026-04-25T13:42:16.935Z</time></trkpt><trkpt lat="40.1842967" lon="15.037255"><ele>125.2</ele><time>2026-04-25T13:42:17.941Z</time></trkpt><trkpt lat="40.18431" lon="15.0371583"><ele>122.4</ele><time>2026-04-25T13:42:18.937Z</time></trkpt><trkpt lat="40.1844017" lon="15.0371267"><ele>119.60000000000001</ele><time>2026-04-25T13:42:19.979Z</time></trkpt><trkpt lat="40.1844967" lon="15.0371217"><ele>116.80000000000001</ele><time>2026-04-25T13:42:20.938Z</time></trkpt><trkpt lat="40.1846" lon="15.0371417"><ele>114.0</ele><time>2026-04-25T13:42:21.936Z</time></trkpt><trkpt lat="40.18471" lon="15.0371883"><ele>114.0</ele><time>2026-04-25T13:42:22.938Z</time></trkpt><trkpt lat="40.18483" lon="15.037225"><ele>114.0</ele><time>2026-04-25T13:42:23.938Z</time></trkpt><trkpt lat="40.1849567" lon="15.0372383"><ele>114.0</ele><time>2026-04-25T13:42:24.933Z</time></trkpt><trkpt lat="40.18509" lon="15.0372483"><ele>114.0</ele><time>2026-04-25T13:42:25.994Z</time></trkpt><trkpt lat="40.18522" lon="15.0372717"><ele>115.0</ele><time>2026-04-25T13:42:26.933Z</time></trkpt><trkpt lat="40.1853467" lon="15.03732"><ele>116.0</ele><time>2026-04-25T13:42:27.938Z</time></trkpt><trkpt lat="40.1854683" lon="15.0373867"><ele>117.0</ele><time>2026-04-25T13:42:28.936Z</time></trkpt><trkpt lat="40.185575" lon="15.03747"><ele>118.0</ele><time>2026-04-25T13:42:29.939Z</time></trkpt><trkpt lat="40.1856667" lon="15.0375717"><ele>122.75</ele><time>2026-04-25T13:42:30.933Z</time></trkpt><trkpt lat="40.1857367" lon="15.0377"><ele>127.5</ele><time>2026-04-25T13:42:31.984Z</time></trkpt><trkpt lat="40.1857867" lon="15.037855"><ele>132.25</ele><time>2026-04-25T13:42:32.933Z</time></trkpt><trkpt lat="40.185825" lon="15.0380167"><ele>137.0</ele><time>2026-04-25T13:42:33.938Z</time></trkpt><trkpt lat="40.185885" lon="15.0381567"><ele>137.0</ele><time>2026-04-25T13:42:34.93Z</time></trkpt><trkpt lat="40.18598" lon="15.038265"><ele>137.0</ele><time>2026-04-25T13:42:35.934Z</time></trkpt><trkpt lat="40.186095" lon="15.0383617"><ele>137.0</ele><time>2026-04-25T13:42:36.935Z</time></trkpt><trkpt lat="40.18622" lon="15.0384633"><ele>137.0</ele><time>2026-04-25T13:42:37.975Z</time></trkpt><trkpt lat="40.1863433" lon="15.0385867"><ele>138.0</ele><time>2026-04-25T13:42:38.933Z</time></trkpt><trkpt lat="40.1864717" lon="15.038735"><ele>139.0</ele><time>2026-04-25T13:42:39.933Z</time></trkpt><trkpt lat="40.1866033" lon="15.03889"><ele>140.0</ele><time>2026-04-25T13:42:40.936Z</time></trkpt><trkpt lat="40.1867433" lon="15.0390417"><ele>147.66666666666666</ele><time>2026-04-25T13:42:41.935Z</time></trkpt><trkpt lat="40.1868867" lon="15.0391967"><ele>155.33333333333334</ele><time>2026-04-25T13:42:42.945Z</time></trkpt><trkpt lat="40.187025" lon="15.0393533"><ele>163.0</ele><time>2026-04-25T13:42:43.973Z</time></trkpt><trkpt lat="40.18716" lon="15.0394983"><ele>163.0</ele><time>2026-04-25T13:42:44.932Z</time></trkpt><trkpt lat="40.187285" lon="15.0396183"><ele>163.0</ele><time>2026-04-25T13:42:45.93Z</time></trkpt><trkpt lat="40.1874067" lon="15.0397017"><ele>163.0</ele><time>2026-04-25T13:42:46.927Z</time></trkpt><trkpt lat="40.1875367" lon="15.039745"><ele>163.0</ele><time>2026-04-25T13:42:47.936Z</time></trkpt><trkpt lat="40.1876767" lon="15.039745"><ele>160.8</ele><time>2026-04-25T13:42:48.938Z</time></trkpt><trkpt lat="40.1878033" lon="15.0396917"><ele>158.60000000000002</ele><time>2026-04-25T13:42:49.985Z</time></trkpt><trkpt lat="40.187915" lon="15.0396417"><ele>156.39999999999998</ele><time>2026-04-25T13:42:50.938Z</time></trkpt><trkpt lat="40.1880083" lon="15.0396283"><ele>154.2</ele><time>2026-04-25T13:42:51.935Z</time></trkpt><trkpt lat="40.1880767" lon="15.0396717"><ele>152.0</ele><time>2026-04-25T13:42:52.934Z</time></trkpt><trkpt lat="40.18813" lon="15.039765"><ele>150.5</ele><time>2026-04-25T13:42:53.938Z</time></trkpt><trkpt lat="40.1881967" lon="15.0398833"><ele>149.0</ele><time>2026-04-25T13:42:54.934Z</time></trkpt><trkpt lat="40.188275" lon="15.0400083"><ele>147.5</ele><time>2026-04-25T13:42:55.976Z</time></trkpt><trkpt lat="40.1883917" lon="15.0401133"><ele>146.0</ele><time>2026-04-25T13:42:56.931Z</time></trkpt><trkpt lat="40.18853" lon="15.0402"><ele>153.0</ele><time>2026-04-25T13:42:57.936Z</time></trkpt><trkpt lat="40.1886867" lon="15.040285"><ele>160.0</ele><time>2026-04-25T13:42:58.931Z</time></trkpt><trkpt lat="40.1888667" lon="15.04036"><ele>167.0</ele><time>2026-04-25T13:42:59.936Z</time></trkpt><trkpt lat="40.1890567" lon="15.0404267"><ele>167.0</ele><time>2026-04-25T13:43:00.935Z</time></trkpt><trkpt lat="40.18924" lon="15.0404833"><ele>167.0</ele><time>2026-04-25T13:43:01.978Z</time></trkpt><trkpt lat="40.1894167" lon="15.0405233"><ele>167.0</ele><time>2026-04-25T13:43:02.931Z</time></trkpt><trkpt lat="40.1895867" lon="15.0405483"><ele>167.0</ele><time>2026-04-25T13:43:03.939Z</time></trkpt><trkpt lat="40.189745" lon="15.0405633"><ele>167.0</ele><time>2026-04-25T13:43:04.943Z</time></trkpt><trkpt lat="40.1898917" lon="15.0405583"><ele>167.0</ele><time>2026-04-25T13:43:05.935Z</time></trkpt><trkpt lat="40.1900233" lon="15.040545"><ele>167.0</ele><time>2026-04-25T13:43:06.932Z</time></trkpt><trkpt lat="40.1901533" lon="15.0405467"><ele>168.0</ele><time>2026-04-25T13:43:07.978Z</time></trkpt><trkpt lat="40.1902817" lon="15.0405833"><ele>169.0</ele><time>2026-04-25T13:43:08.933Z</time></trkpt><trkpt lat="40.1904067" lon="15.0406433"><ele>170.0</ele><time>2026-04-25T13:43:09.934Z</time></trkpt><trkpt lat="40.1905383" lon="15.040725"><ele>171.0</ele><time>2026-04-25T13:43:10.931Z</time></trkpt><trkpt lat="40.1906733" lon="15.04082"><ele>176.75</ele><time>2026-04-25T13:43:11.94Z</time></trkpt><trkpt lat="40.1908117" lon="15.0409017"><ele>182.5</ele><time>2026-04-25T13:43:12.935Z</time></trkpt><trkpt lat="40.19095" lon="15.0409617"><ele>188.25</ele><time>2026-04-25T13:43:13.974Z</time></trkpt><trkpt lat="40.1910883" lon="15.0409967"><ele>194.0</ele><time>2026-04-25T13:43:14.934Z</time></trkpt><trkpt lat="40.191215" lon="15.04102"><ele>194.0</ele><time>2026-04-25T13:43:15.936Z</time></trkpt><trkpt lat="40.1913267" lon="15.04104"><ele>194.0</ele><time>2026-04-25T13:43:16.938Z</time></trkpt><trkpt lat="40.1914283" lon="15.0410767"><ele>194.0</ele><time>2026-04-25T13:43:17.935Z</time></trkpt><trkpt lat="40.1915117" lon="15.0411683"><ele>194.0</ele><time>2026-04-25T13:43:18.931Z</time></trkpt><trkpt lat="40.1916" lon="15.0412783"><ele>194.0</ele><time>2026-04-25T13:43:19.977Z</time></trkpt><trkpt lat="40.1916983" lon="15.0414017"><ele>197.33333333333334</ele><time>2026-04-25T13:43:20.936Z</time></trkpt><trkpt lat="40.1918033" lon="15.0415383"><ele>200.66666666666669</ele><time>2026-04-25T13:43:21.935Z</time></trkpt><trkpt lat="40.19192" lon="15.0416733"><ele>204.0</ele><time>2026-04-25T13:43:22.934Z</time></trkpt><trkpt lat="40.1920417" lon="15.041795"><ele>204.0</ele><time>2026-04-25T13:43:23.94Z</time></trkpt><trkpt lat="40.1921633" lon="15.0418967"><ele>204.0</ele><time>2026-04-25T13:43:24.933Z</time></trkpt><trkpt lat="40.1922817" lon="15.04198"><ele>204.0</ele><time>2026-04-25T13:43:25.974Z</time></trkpt><trkpt lat="40.1923967" lon="15.042055"><ele>204.0</ele><time>2026-04-25T13:43:26.934Z</time></trkpt><trkpt lat="40.1924933" lon="15.0421233"><ele>204.0</ele><time>2026-04-25T13:43:27.932Z</time></trkpt><trkpt lat="40.192535" lon="15.04221"><ele>204.0</ele><time>2026-04-25T13:43:29.943Z</time></trkpt><trkpt lat="40.1924383" lon="15.0422117"><ele>204.0</ele><time>2026-04-25T13:43:31.987Z</time></trkpt><trkpt lat="40.1923617" lon="15.0421783"><ele>204.0</ele><time>2026-04-25T13:43:32.938Z</time></trkpt><trkpt lat="40.1922417" lon="15.0421217"><ele>204.0</ele><time>2026-04-25T13:43:33.939Z</time></trkpt><trkpt lat="40.1921133" lon="15.0420633"><ele>204.0</ele><time>2026-04-25T13:43:34.937Z</time></trkpt><trkpt lat="40.191975" lon="15.042005"><ele>204.0</ele><time>2026-04-25T13:43:35.942Z</time></trkpt><trkpt lat="40.1918317" lon="15.0419483"><ele>204.0</ele><time>2026-04-25T13:43:36.938Z</time></trkpt><trkpt lat="40.191685" lon="15.0418833"><ele>204.0</ele><time>2026-04-25T13:43:37.976Z</time></trkpt><trkpt lat="40.1915417" lon="15.0418033"><ele>204.0</ele><time>2026-04-25T13:43:38.933Z</time></trkpt><trkpt lat="40.191405" lon="15.0417017"><ele>204.0</ele><time>2026-04-25T13:43:39.931Z</time></trkpt><trkpt lat="40.19128" lon="15.0415917"><ele>201.5</ele><time>2026-04-25T13:43:40.936Z</time></trkpt><trkpt lat="40.19116" lon="15.0414983"><ele>199.0</ele><time>2026-04-25T13:43:41.938Z</time></trkpt><trkpt lat="40.1910317" lon="15.0414317"><ele>196.5</ele><time>2026-04-25T13:43:42.936Z</time></trkpt><trkpt lat="40.19089" lon="15.0413867"><ele>194.0</ele><time>2026-04-25T13:43:43.985Z</time></trkpt><trkpt lat="40.1907383" lon="15.0413683"><ele>196.0</ele><time>2026-04-25T13:43:44.936Z</time></trkpt><trkpt lat="40.1905883" lon="15.041355"><ele>198.0</ele><time>2026-04-25T13:43:45.936Z</time></trkpt><trkpt lat="40.19045" lon="15.0413367"><ele>200.0</ele><time>2026-04-25T13:43:46.937Z</time></trkpt><trkpt lat="40.1903283" lon="15.04132"><ele>202.0</ele><time>2026-04-25T13:43:47.933Z</time></trkpt><trkpt lat="40.1902283" lon="15.041305"><ele>202.0</ele><time>2026-04-25T13:43:48.937Z</time></trkpt><trkpt lat="40.190145" lon="15.0413017"><ele>202.0</ele><time>2026-04-25T13:43:49.978Z</time></trkpt><trkpt lat="40.1901" lon="15.0413933"><ele>202.0</ele><time>2026-04-25T13:43:51.936Z</time></trkpt><trkpt lat="40.1901567" lon="15.0414883"><ele>202.0</ele><time>2026-04-25T13:43:53.94Z</time></trkpt><trkpt lat="40.1902383" lon="15.04153"><ele>202.0</ele><time>2026-04-25T13:43:54.937Z</time></trkpt><trkpt lat="40.1903567" lon="15.041565"><ele>202.0</ele><time>2026-04-25T13:43:55.979Z</time></trkpt><trkpt lat="40.190495" lon="15.0416017"><ele>202.0</ele><time>2026-04-25T13:43:56.937Z</time></trkpt><trkpt lat="40.1906667" lon="15.0416717"><ele>202.0</ele><time>2026-04-25T13:43:57.938Z</time></trkpt><trkpt lat="40.1907917" lon="15.04171"><ele>202.0</ele><time>2026-04-25T13:43:58.936Z</time></trkpt><trkpt lat="40.1908933" lon="15.041765"><ele>207.0</ele><time>2026-04-25T13:43:59.937Z</time></trkpt><trkpt lat="40.1909733" lon="15.0418417"><ele>212.0</ele><time>2026-04-25T13:44:00.943Z</time></trkpt><trkpt lat="40.1910383" lon="15.0419533"><ele>217.0</ele><time>2026-04-25T13:44:01.981Z</time></trkpt><trkpt lat="40.1911083" lon="15.04211"><ele>222.0</ele><time>2026-04-25T13:44:02.929Z</time></trkpt><trkpt lat="40.191195" lon="15.0422767"><ele>222.0</ele><time>2026-04-25T13:44:03.934Z</time></trkpt><trkpt lat="40.1912967" lon="15.0424467"><ele>222.0</ele><time>2026-04-25T13:44:04.937Z</time></trkpt><trkpt lat="40.1914117" lon="15.0426067"><ele>222.0</ele><time>2026-04-25T13:44:05.934Z</time></trkpt><trkpt lat="40.191535" lon="15.04276"><ele>224.33333333333331</ele><time>2026-04-25T13:44:06.935Z</time></trkpt><trkpt lat="40.1916817" lon="15.0428917"><ele>226.66666666666666</ele><time>2026-04-25T13:44:07.979Z</time></trkpt><trkpt lat="40.1918417" lon="15.0430033"><ele>229.0</ele><time>2026-04-25T13:44:08.939Z</time></trkpt><trkpt lat="40.1920117" lon="15.0431017"><ele>229.0</ele><time>2026-04-25T13:44:09.93Z</time></trkpt><trkpt lat="40.1921817" lon="15.04319"><ele>229.0</ele><time>2026-04-25T13:44:10.936Z</time></trkpt><trkpt lat="40.1923483" lon="15.04327"><ele>229.0</ele><time>2026-04-25T13:44:11.942Z</time></trkpt><trkpt lat="40.192505" lon="15.0433283"><ele>235.0</ele><time>2026-04-25T13:44:12.944Z</time></trkpt><trkpt lat="40.192655" lon="15.0433683"><ele>241.0</ele><time>2026-04-25T13:44:13.981Z</time></trkpt><trkpt lat="40.192815" lon="15.0433917"><ele>247.0</ele><time>2026-04-25T13:44:14.933Z</time></trkpt><trkpt lat="40.1929833" lon="15.0433867"><ele>247.0</ele><time>2026-04-25T13:44:15.934Z</time></trkpt><trkpt lat="40.193165" lon="15.04337"><ele>247.0</ele><time>2026-04-25T13:44:16.939Z</time></trkpt><trkpt lat="40.1933483" lon="15.0433483"><ele>247.0</ele><time>2026-04-25T13:44:17.937Z</time></trkpt><trkpt lat="40.1935233" lon="15.0433167"><ele>244.75</ele><time>2026-04-25T13:44:18.935Z</time></trkpt><trkpt lat="40.1936833" lon="15.0432767"><ele>242.5</ele><time>2026-04-25T13:44:19.974Z</time></trkpt><trkpt lat="40.1938317" lon="15.0432433"><ele>240.25</ele><time>2026-04-25T13:44:20.939Z</time></trkpt><trkpt lat="40.1939633" lon="15.0432167"><ele>238.0</ele><time>2026-04-25T13:44:21.939Z</time></trkpt><trkpt lat="40.1940833" lon="15.0431817"><ele>238.0</ele><time>2026-04-25T13:44:22.936Z</time></trkpt><trkpt lat="40.1941883" lon="15.04312"><ele>238.0</ele><time>2026-04-25T13:44:23.938Z</time></trkpt><trkpt lat="40.1942733" lon="15.043015"><ele>238.0</ele><time>2026-04-25T13:44:24.938Z</time></trkpt><trkpt lat="40.1943367" lon="15.042875"><ele>238.0</ele><time>2026-04-25T13:44:25.977Z</time></trkpt><trkpt lat="40.1944067" lon="15.0427567"><ele>238.0</ele><time>2026-04-25T13:44:26.934Z</time></trkpt><trkpt lat="40.1944833" lon="15.042665"><ele>238.0</ele><time>2026-04-25T13:44:27.938Z</time></trkpt><trkpt lat="40.1945633" lon="15.04261"><ele>238.0</ele><time>2026-04-25T13:44:28.934Z</time></trkpt><trkpt lat="40.194655" lon="15.0425733"><ele>238.0</ele><time>2026-04-25T13:44:29.94Z</time></trkpt><trkpt lat="40.1947633" lon="15.0425517"><ele>238.0</ele><time>2026-04-25T13:44:30.931Z</time></trkpt><trkpt lat="40.1948883" lon="15.0425183"><ele>237.5</ele><time>2026-04-25T13:44:31.979Z</time></trkpt><trkpt lat="40.1950183" lon="15.042475"><ele>237.0</ele><time>2026-04-25T13:44:32.931Z</time></trkpt><trkpt lat="40.195155" lon="15.04244"><ele>236.5</ele><time>2026-04-25T13:44:33.936Z</time></trkpt><trkpt lat="40.195295" lon="15.0424267"><ele>236.0</ele><time>2026-04-25T13:44:34.929Z</time></trkpt><trkpt lat="40.1954117" lon="15.0424483"><ele>239.83333333333334</ele><time>2026-04-25T13:44:35.941Z</time></trkpt><trkpt lat="40.1954917" lon="15.0424967"><ele>243.66666666666669</ele><time>2026-04-25T13:44:36.936Z</time></trkpt><trkpt lat="40.19552" lon="15.042625"><ele>247.5</ele><time>2026-04-25T13:44:38.938Z</time></trkpt><trkpt lat="40.1954683" lon="15.0426733"><ele>251.33333333333331</ele><time>2026-04-25T13:44:39.935Z</time></trkpt><trkpt lat="40.1954067" lon="15.04271"><ele>255.16666666666666</ele><time>2026-04-25T13:44:40.935Z</time></trkpt><trkpt lat="40.195325" lon="15.0427467"><ele>259.0</ele><time>2026-04-25T13:44:41.932Z</time></trkpt><trkpt lat="40.1951917" lon="15.0427817"><ele>259.0</ele><time>2026-04-25T13:44:42.932Z</time></trkpt><trkpt lat="40.1950417" lon="15.0428317"><ele>259.0</ele><time>2026-04-25T13:44:43.97Z</time></trkpt><trkpt lat="40.1948883" lon="15.0429017"><ele>259.0</ele><time>2026-04-25T13:44:44.935Z</time></trkpt><trkpt lat="40.19475" lon="15.042975"><ele>261.25</ele><time>2026-04-25T13:44:45.94Z</time></trkpt><trkpt lat="40.1946267" lon="15.0430567"><ele>263.5</ele><time>2026-04-25T13:44:46.935Z</time></trkpt><trkpt lat="40.1945067" lon="15.0431617"><ele>265.75</ele><time>2026-04-25T13:44:47.937Z</time></trkpt><trkpt lat="40.194395" lon="15.043305"><ele>268.0</ele><time>2026-04-25T13:44:48.943Z</time></trkpt><trkpt lat="40.1942783" lon="15.0434633"><ele>268.0</ele><time>2026-04-25T13:44:49.978Z</time></trkpt><trkpt lat="40.1941517" lon="15.043635"><ele>268.0</ele><time>2026-04-25T13:44:50.935Z</time></trkpt><trkpt lat="40.1940117" lon="15.043795"><ele>268.0</ele><time>2026-04-25T13:44:51.941Z</time></trkpt><trkpt lat="40.193855" lon="15.0439383"><ele>263.3333333333333</ele><time>2026-04-25T13:44:52.934Z</time></trkpt><trkpt lat="40.1936833" lon="15.04406"><ele>258.6666666666667</ele><time>2026-04-25T13:44:53.932Z</time></trkpt><trkpt lat="40.1935183" lon="15.04416"><ele>254.0</ele><time>2026-04-25T13:44:54.935Z</time></trkpt><trkpt lat="40.1933633" lon="15.0442433"><ele>257.75</ele><time>2026-04-25T13:44:55.99Z</time></trkpt><trkpt lat="40.19322" lon="15.0443017"><ele>261.5</ele><time>2026-04-25T13:44:56.938Z</time></trkpt><trkpt lat="40.1930917" lon="15.0443533"><ele>265.25</ele><time>2026-04-25T13:44:57.936Z</time></trkpt><trkpt lat="40.1929833" lon="15.044415"><ele>269.0</ele><time>2026-04-25T13:44:58.931Z</time></trkpt><trkpt lat="40.1928933" lon="15.0444983"><ele>269.0</ele><time>2026-04-25T13:44:59.933Z</time></trkpt><trkpt lat="40.1928183" lon="15.0445917"><ele>269.0</ele><time>2026-04-25T13:45:00.93Z</time></trkpt><trkpt lat="40.1927567" lon="15.044695"><ele>269.0</ele><time>2026-04-25T13:45:01.977Z</time></trkpt><trkpt lat="40.19278" lon="15.044825"><ele>269.0</ele><time>2026-04-25T13:45:02.932Z</time></trkpt><trkpt lat="40.19281" lon="15.0449583"><ele>269.0</ele><time>2026-04-25T13:45:03.937Z</time></trkpt><trkpt lat="40.19286" lon="15.0450917"><ele>269.5</ele><time>2026-04-25T13:45:04.934Z</time></trkpt><trkpt lat="40.1929233" lon="15.0452383"><ele>270.0</ele><time>2026-04-25T13:45:05.938Z</time></trkpt><trkpt lat="40.19297" lon="15.0454017"><ele>270.5</ele><time>2026-04-25T13:45:06.936Z</time></trkpt><trkpt lat="40.1930017" lon="15.0455983"><ele>271.0</ele><time>2026-04-25T13:45:07.982Z</time></trkpt><trkpt lat="40.1930217" lon="15.0458067"><ele>273.25</ele><time>2026-04-25T13:45:08.933Z</time></trkpt><trkpt lat="40.1930417" lon="15.0460083"><ele>275.5</ele><time>2026-04-25T13:45:09.936Z</time></trkpt><trkpt lat="40.19305" lon="15.0461933"><ele>277.75</ele><time>2026-04-25T13:45:10.939Z</time></trkpt><trkpt lat="40.1930517" lon="15.046365"><ele>280.0</ele><time>2026-04-25T13:45:11.931Z</time></trkpt><trkpt lat="40.19305" lon="15.0465133"><ele>280.0</ele><time>2026-04-25T13:45:12.933Z</time></trkpt><trkpt lat="40.1930333" lon="15.04663"><ele>280.0</ele><time>2026-04-25T13:45:13.979Z</time></trkpt><trkpt lat="40.1930017" lon="15.0467083"><ele>280.0</ele><time>2026-04-25T13:45:14.931Z</time></trkpt><trkpt lat="40.1928167" lon="15.0464467"><ele>280.0</ele><time>2026-04-25T13:45:15.937Z</time></trkpt><trkpt lat="40.1927267" lon="15.0464183"><ele>280.0</ele><time>2026-04-25T13:45:16.934Z</time></trkpt><trkpt lat="40.1926183" lon="15.0464033"><ele>280.0</ele><time>2026-04-25T13:45:17.939Z</time></trkpt><trkpt lat="40.1925033" lon="15.0464183"><ele>280.0</ele><time>2026-04-25T13:45:18.932Z</time></trkpt><trkpt lat="40.1923983" lon="15.0464867"><ele>280.0</ele><time>2026-04-25T13:45:19.982Z</time></trkpt><trkpt lat="40.1922983" lon="15.0465867"><ele>281.0</ele><time>2026-04-25T13:45:20.939Z</time></trkpt><trkpt lat="40.19223" lon="15.04679"><ele>282.0</ele><time>2026-04-25T13:45:21.937Z</time></trkpt><trkpt lat="40.1921583" lon="15.0469733"><ele>283.0</ele><time>2026-04-25T13:45:22.939Z</time></trkpt><trkpt lat="40.1920983" lon="15.04715"><ele>283.0</ele><time>2026-04-25T13:45:23.935Z</time></trkpt><trkpt lat="40.1920533" lon="15.0472983"><ele>283.0</ele><time>2026-04-25T13:45:24.937Z</time></trkpt><trkpt lat="40.192045" lon="15.0474383"><ele>283.0</ele><time>2026-04-25T13:45:25.974Z</time></trkpt><trkpt lat="40.192075" lon="15.0475733"><ele>283.0</ele><time>2026-04-25T13:45:26.927Z</time></trkpt><trkpt lat="40.1921717" lon="15.0477"><ele>284.2</ele><time>2026-04-25T13:45:27.936Z</time></trkpt><trkpt lat="40.19226" lon="15.0478183"><ele>285.4</ele><time>2026-04-25T13:45:28.934Z</time></trkpt><trkpt lat="40.1923167" lon="15.047925"><ele>286.59999999999997</ele><time>2026-04-25T13:45:29.934Z</time></trkpt><trkpt lat="40.1923433" lon="15.0480233"><ele>287.8</ele><time>2026-04-25T13:45:30.929Z</time></trkpt><trkpt lat="40.1923483" lon="15.0481217"><ele>289.0</ele><time>2026-04-25T13:45:31.979Z</time></trkpt><trkpt lat="40.1923383" lon="15.0482217"><ele>290.5</ele><time>2026-04-25T13:45:32.936Z</time></trkpt><trkpt lat="40.1922883" lon="15.04832"><ele>292.0</ele><time>2026-04-25T13:45:33.93Z</time></trkpt><trkpt lat="40.1921233" lon="15.04843"><ele>293.5</ele><time>2026-04-25T13:45:34.937Z</time></trkpt><trkpt lat="40.19205" lon="15.048545"><ele>295.0</ele><time>2026-04-25T13:45:35.937Z</time></trkpt><trkpt lat="40.1919917" lon="15.0486617"><ele>295.0</ele><time>2026-04-25T13:45:36.935Z</time></trkpt><trkpt lat="40.1919483" lon="15.0487833"><ele>295.0</ele><time>2026-04-25T13:45:37.975Z</time></trkpt><trkpt lat="40.192015" lon="15.0488933"><ele>295.0</ele><time>2026-04-25T13:45:38.935Z</time></trkpt><trkpt lat="40.1920717" lon="15.0490117"><ele>295.0</ele><time>2026-04-25T13:45:39.932Z</time></trkpt><trkpt lat="40.1921783" lon="15.0491033"><ele>295.0</ele><time>2026-04-25T13:45:40.934Z</time></trkpt><trkpt lat="40.1922883" lon="15.0492083"><ele>303.0</ele><time>2026-04-25T13:45:41.932Z</time></trkpt><trkpt lat="40.192385" lon="15.049325"><ele>311.0</ele><time>2026-04-25T13:45:42.937Z</time></trkpt><trkpt lat="40.1924633" lon="15.0494333"><ele>319.0</ele><time>2026-04-25T13:45:43.975Z</time></trkpt><trkpt lat="40.1925267" lon="15.049545"><ele>327.0</ele><time>2026-04-25T13:45:44.934Z</time></trkpt><trkpt lat="40.19257" lon="15.0496567"><ele>335.0</ele><time>2026-04-25T13:45:45.937Z</time></trkpt><trkpt lat="40.1925517" lon="15.0497633"><ele>335.0</ele><time>2026-04-25T13:45:46.939Z</time></trkpt><trkpt lat="40.1924767" lon="15.04988"><ele>335.0</ele><time>2026-04-25T13:45:47.938Z</time></trkpt><trkpt lat="40.1923817" lon="15.0500117"><ele>335.0</ele><time>2026-04-25T13:45:48.938Z</time></trkpt><trkpt lat="40.19228" lon="15.05018"><ele>335.0</ele><time>2026-04-25T13:45:49.975Z</time></trkpt><trkpt lat="40.1921917" lon="15.050345"><ele>330.6</ele><time>2026-04-25T13:45:50.93Z</time></trkpt><trkpt lat="40.19213" lon="15.0504933"><ele>326.2</ele><time>2026-04-25T13:45:51.935Z</time></trkpt><trkpt lat="40.1920833" lon="15.0506117"><ele>321.8</ele><time>2026-04-25T13:45:52.932Z</time></trkpt><trkpt lat="40.1920217" lon="15.0506883"><ele>317.4</ele><time>2026-04-25T13:45:53.933Z</time></trkpt><trkpt lat="40.191955" lon="15.0506983"><ele>313.0</ele><time>2026-04-25T13:45:54.934Z</time></trkpt><trkpt lat="40.19187" lon="15.0506383"><ele>313.0</ele><time>2026-04-25T13:45:55.97Z</time></trkpt><trkpt lat="40.1917767" lon="15.0505883"><ele>313.0</ele><time>2026-04-25T13:45:56.933Z</time></trkpt><trkpt lat="40.1916617" lon="15.050545"><ele>313.0</ele><time>2026-04-25T13:45:57.931Z</time></trkpt><trkpt lat="40.191505" lon="15.0505567"><ele>313.0</ele><time>2026-04-25T13:45:58.943Z</time></trkpt><trkpt lat="40.1913417" lon="15.0506017"><ele>310.66666666666663</ele><time>2026-04-25T13:45:59.937Z</time></trkpt><trkpt lat="40.1911717" lon="15.050655"><ele>308.3333333333333</ele><time>2026-04-25T13:46:00.944Z</time></trkpt><trkpt lat="40.191015" lon="15.0507133"><ele>306.0</ele><time>2026-04-25T13:46:01.976Z</time></trkpt><trkpt lat="40.1908683" lon="15.0507967"><ele>310.6666666666667</ele><time>2026-04-25T13:46:02.937Z</time></trkpt><trkpt lat="40.1907283" lon="15.0509133"><ele>315.33333333333337</ele><time>2026-04-25T13:46:03.933Z</time></trkpt><trkpt lat="40.1906" lon="15.05107"><ele>320.0</ele><time>2026-04-25T13:46:04.934Z</time></trkpt><trkpt lat="40.1904783" lon="15.0512383"><ele>320.0</ele><time>2026-04-25T13:46:05.933Z</time></trkpt><trkpt lat="40.1903633" lon="15.051385"><ele>320.0</ele><time>2026-04-25T13:46:06.935Z</time></trkpt><trkpt lat="40.1902567" lon="15.0515067"><ele>320.0</ele><time>2026-04-25T13:46:07.975Z</time></trkpt><trkpt lat="40.1901467" lon="15.0515967"><ele>320.0</ele><time>2026-04-25T13:46:08.935Z</time></trkpt><trkpt lat="40.1900283" lon="15.051665"><ele>319.6</ele><time>2026-04-25T13:46:09.946Z</time></trkpt><trkpt lat="40.189915" lon="15.0517217"><ele>319.2</ele><time>2026-04-25T13:46:10.93Z</time></trkpt><trkpt lat="40.1898117" lon="15.0517817"><ele>318.8</ele><time>2026-04-25T13:46:11.931Z</time></trkpt><trkpt lat="40.1897317" lon="15.0518683"><ele>318.4</ele><time>2026-04-25T13:46:12.931Z</time></trkpt><trkpt lat="40.1896683" lon="15.0519667"><ele>318.0</ele><time>2026-04-25T13:46:13.976Z</time></trkpt><trkpt lat="40.1896267" lon="15.05207"><ele>318.0</ele><time>2026-04-25T13:46:14.933Z</time></trkpt><trkpt lat="40.189655" lon="15.0521917"><ele>318.0</ele><time>2026-04-25T13:46:15.937Z</time></trkpt><trkpt lat="40.1896867" lon="15.0523067"><ele>318.0</ele><time>2026-04-25T13:46:16.94Z</time></trkpt><trkpt lat="40.1897433" lon="15.0524117"><ele>318.0</ele><time>2026-04-25T13:46:17.937Z</time></trkpt><trkpt lat="40.1898333" lon="15.05252"><ele>318.0</ele><time>2026-04-25T13:46:18.934Z</time></trkpt><trkpt lat="40.1899767" lon="15.05261"><ele>331.0</ele><time>2026-04-25T13:46:19.981Z</time></trkpt><trkpt lat="40.190115" lon="15.0527117"><ele>344.0</ele><time>2026-04-25T13:46:20.932Z</time></trkpt><trkpt lat="40.19025" lon="15.0528267"><ele>357.0</ele><time>2026-04-25T13:46:21.936Z</time></trkpt><trkpt lat="40.1903683" lon="15.05296"><ele>357.0</ele><time>2026-04-25T13:46:22.937Z</time></trkpt><trkpt lat="40.1904783" lon="15.0531133"><ele>357.0</ele><time>2026-04-25T13:46:23.94Z</time></trkpt><trkpt lat="40.1905683" lon="15.0532783"><ele>357.0</ele><time>2026-04-25T13:46:24.932Z</time></trkpt><trkpt lat="40.1906483" lon="15.0534333"><ele>362.75</ele><time>2026-04-25T13:46:25.975Z</time></trkpt><trkpt lat="40.1907167" lon="15.0535767"><ele>368.5</ele><time>2026-04-25T13:46:26.939Z</time></trkpt><trkpt lat="40.1907917" lon="15.053695"><ele>374.25</ele><time>2026-04-25T13:46:27.94Z</time></trkpt><trkpt lat="40.1908183" lon="15.053845"><ele>380.0</ele><time>2026-04-25T13:46:28.938Z</time></trkpt><trkpt lat="40.190825" lon="15.0540033"><ele>379.6</ele><time>2026-04-25T13:46:29.934Z</time></trkpt><trkpt lat="40.19082" lon="15.0541633"><ele>379.2</ele><time>2026-04-25T13:46:30.934Z</time></trkpt><trkpt lat="40.1908117" lon="15.0542983"><ele>378.79999999999995</ele><time>2026-04-25T13:46:31.972Z</time></trkpt><trkpt lat="40.1908067" lon="15.0544267"><ele>378.4</ele><time>2026-04-25T13:46:32.938Z</time></trkpt><trkpt lat="40.1908167" lon="15.054545"><ele>378.0</ele><time>2026-04-25T13:46:33.934Z</time></trkpt><trkpt lat="40.1908383" lon="15.05465"><ele>378.0</ele><time>2026-04-25T13:46:34.935Z</time></trkpt><trkpt lat="40.1908583" lon="15.0547533"><ele>378.0</ele><time>2026-04-25T13:46:35.937Z</time></trkpt><trkpt lat="40.190865" lon="15.0548683"><ele>378.0</ele><time>2026-04-25T13:46:36.935Z</time></trkpt><trkpt lat="40.1909033" lon="15.0549867"><ele>378.0</ele><time>2026-04-25T13:46:38.931Z</time></trkpt><trkpt lat="40.19096" lon="15.054905"><ele>378.0</ele><time>2026-04-25T13:46:41.934Z</time></trkpt><trkpt lat="40.1909517" lon="15.0547483"><ele>378.0</ele><time>2026-04-25T13:46:42.937Z</time></trkpt><trkpt lat="40.1909067" lon="15.05444"><ele>378.0</ele><time>2026-04-25T13:46:43.977Z</time></trkpt><trkpt lat="40.1908917" lon="15.0542767"><ele>378.0</ele><time>2026-04-25T13:46:44.931Z</time></trkpt><trkpt lat="40.19088" lon="15.0541183"><ele>378.5</ele><time>2026-04-25T13:46:45.934Z</time></trkpt><trkpt lat="40.1908767" lon="15.053965"><ele>379.0</ele><time>2026-04-25T13:46:46.936Z</time></trkpt><trkpt lat="40.1908883" lon="15.0538167"><ele>379.5</ele><time>2026-04-25T13:46:47.935Z</time></trkpt><trkpt lat="40.1909183" lon="15.0536633"><ele>380.0</ele><time>2026-04-25T13:46:48.935Z</time></trkpt><trkpt lat="40.190945" lon="15.05351"><ele>380.0</ele><time>2026-04-25T13:46:49.977Z</time></trkpt><trkpt lat="40.1909567" lon="15.0533517"><ele>380.0</ele><time>2026-04-25T13:46:50.935Z</time></trkpt><trkpt lat="40.1909133" lon="15.0531733"><ele>380.0</ele><time>2026-04-25T13:46:51.935Z</time></trkpt><trkpt lat="40.1908483" lon="15.0529933"><ele>380.0</ele><time>2026-04-25T13:46:52.936Z</time></trkpt><trkpt lat="40.1907717" lon="15.05282"><ele>382.25</ele><time>2026-04-25T13:46:53.938Z</time></trkpt><trkpt lat="40.1906933" lon="15.052665"><ele>384.5</ele><time>2026-04-25T13:46:54.935Z</time></trkpt><trkpt lat="40.19061" lon="15.0525267"><ele>386.75</ele><time>2026-04-25T13:46:55.975Z</time></trkpt><trkpt lat="40.1905333" lon="15.0523983"><ele>389.0</ele><time>2026-04-25T13:46:56.941Z</time></trkpt><trkpt lat="40.1904633" lon="15.0522783"><ele>385.6</ele><time>2026-04-25T13:46:57.937Z</time></trkpt><trkpt lat="40.1904283" lon="15.0521667"><ele>382.2</ele><time>2026-04-25T13:46:58.93Z</time></trkpt><trkpt lat="40.1904933" lon="15.0520167"><ele>378.8</ele><time>2026-04-25T13:47:00.938Z</time></trkpt><trkpt lat="40.190575" lon="15.0519383"><ele>375.40000000000003</ele><time>2026-04-25T13:47:01.975Z</time></trkpt><trkpt lat="40.19067" lon="15.0518583"><ele>372.0</ele><time>2026-04-25T13:47:02.931Z</time></trkpt><trkpt lat="40.1907817" lon="15.0517883"><ele>372.0</ele><time>2026-04-25T13:47:03.939Z</time></trkpt><trkpt lat="40.1909133" lon="15.05173"><ele>372.0</ele><time>2026-04-25T13:47:04.932Z</time></trkpt><trkpt lat="40.191065" lon="15.0516983"><ele>372.0</ele><time>2026-04-25T13:47:05.936Z</time></trkpt><trkpt lat="40.1912267" lon="15.0516517"><ele>367.75</ele><time>2026-04-25T13:47:06.93Z</time></trkpt><trkpt lat="40.1913783" lon="15.051585"><ele>363.5</ele><time>2026-04-25T13:47:07.974Z</time></trkpt><trkpt lat="40.1915167" lon="15.0515017"><ele>359.25</ele><time>2026-04-25T13:47:08.935Z</time></trkpt><trkpt lat="40.19164" lon="15.0514233"><ele>355.0</ele><time>2026-04-25T13:47:09.928Z</time></trkpt><trkpt lat="40.19175" lon="15.0513533"><ele>355.0</ele><time>2026-04-25T13:47:10.93Z</time></trkpt><trkpt lat="40.1918517" lon="15.051305"><ele>355.0</ele><time>2026-04-25T13:47:11.937Z</time></trkpt><trkpt lat="40.1919483" lon="15.0513017"><ele>355.0</ele><time>2026-04-25T13:47:12.938Z</time></trkpt><trkpt lat="40.1920433" lon="15.0513683"><ele>355.0</ele><time>2026-04-25T13:47:13.979Z</time></trkpt><trkpt lat="40.192135" lon="15.0514483"><ele>355.0</ele><time>2026-04-25T13:47:14.931Z</time></trkpt><trkpt lat="40.1922433" lon="15.05159"><ele>365.3333333333333</ele><time>2026-04-25T13:47:15.938Z</time></trkpt><trkpt lat="40.1923567" lon="15.051825"><ele>375.66666666666663</ele><time>2026-04-25T13:47:16.933Z</time></trkpt><trkpt lat="40.1924533" lon="15.0520017"><ele>386.0</ele><time>2026-04-25T13:47:17.935Z</time></trkpt><trkpt lat="40.1925467" lon="15.05213"><ele>386.0</ele><time>2026-04-25T13:47:18.942Z</time></trkpt><trkpt lat="40.19263" lon="15.0522467"><ele>386.0</ele><time>2026-04-25T13:47:19.972Z</time></trkpt><trkpt lat="40.192715" lon="15.0523317"><ele>386.0</ele><time>2026-04-25T13:47:20.931Z</time></trkpt><trkpt lat="40.192775" lon="15.0523633"><ele>386.0</ele><time>2026-04-25T13:47:21.937Z</time></trkpt><trkpt lat="40.1928067" lon="15.052265"><ele>386.0</ele><time>2026-04-25T13:47:22.94Z</time></trkpt><trkpt lat="40.192875" lon="15.0521483"><ele>386.0</ele><time>2026-04-25T13:47:23.936Z</time></trkpt><trkpt lat="40.1929417" lon="15.0519867"><ele>386.0</ele><time>2026-04-25T13:47:24.936Z</time></trkpt><trkpt lat="40.1930033" lon="15.0518383"><ele>386.0</ele><time>2026-04-25T13:47:25.987Z</time></trkpt><trkpt lat="40.19304" lon="15.0516033"><ele>378.3333333333333</ele><time>2026-04-25T13:47:26.933Z</time></trkpt><trkpt lat="40.1930667" lon="15.0513483"><ele>370.66666666666663</ele><time>2026-04-25T13:47:27.935Z</time></trkpt><trkpt lat="40.1930917" lon="15.0511117"><ele>363.0</ele><time>2026-04-25T13:47:28.929Z</time></trkpt><trkpt lat="40.1931283" lon="15.050905"><ele>369.3333333333333</ele><time>2026-04-25T13:47:29.935Z</time></trkpt><trkpt lat="40.1931817" lon="15.0506967"><ele>375.66666666666663</ele><time>2026-04-25T13:47:30.929Z</time></trkpt><trkpt lat="40.1932483" lon="15.05051"><ele>382.0</ele><time>2026-04-25T13:47:31.98Z</time></trkpt><trkpt lat="40.193325" lon="15.0503483"><ele>382.0</ele><time>2026-04-25T13:47:32.936Z</time></trkpt><trkpt lat="40.1934317" lon="15.05021"><ele>382.0</ele><time>2026-04-25T13:47:33.936Z</time></trkpt><trkpt lat="40.1935467" lon="15.0500717"><ele>382.0</ele><time>2026-04-25T13:47:34.938Z</time></trkpt><trkpt lat="40.19368" lon="15.0499433"><ele>385.0</ele><time>2026-04-25T13:47:35.944Z</time></trkpt><trkpt lat="40.1938333" lon="15.0498183"><ele>388.0</ele><time>2026-04-25T13:47:36.93Z</time></trkpt><trkpt lat="40.1939817" lon="15.049685"><ele>391.0</ele><time>2026-04-25T13:47:37.98Z</time></trkpt><trkpt lat="40.1941283" lon="15.0495517"><ele>391.0</ele><time>2026-04-25T13:47:38.931Z</time></trkpt><trkpt lat="40.1942767" lon="15.0494117"><ele>391.0</ele><time>2026-04-25T13:47:39.939Z</time></trkpt><trkpt lat="40.1944217" lon="15.049275"><ele>391.0</ele><time>2026-04-25T13:47:40.937Z</time></trkpt><trkpt lat="40.1945617" lon="15.0491367"><ele>395.0</ele><time>2026-04-25T13:47:41.944Z</time></trkpt><trkpt lat="40.1946933" lon="15.049"><ele>399.0</ele><time>2026-04-25T13:47:42.929Z</time></trkpt><trkpt lat="40.194815" lon="15.0488683"><ele>403.0</ele><time>2026-04-25T13:47:43.982Z</time></trkpt><trkpt lat="40.1949183" lon="15.048735"><ele>403.0</ele><time>2026-04-25T13:47:44.93Z</time></trkpt><trkpt lat="40.195005" lon="15.0485983"><ele>403.0</ele><time>2026-04-25T13:47:45.929Z</time></trkpt><trkpt lat="40.19507" lon="15.0484483"><ele>403.0</ele><time>2026-04-25T13:47:46.931Z</time></trkpt><trkpt lat="40.1951067" lon="15.0483017"><ele>403.0</ele><time>2026-04-25T13:47:47.936Z</time></trkpt><trkpt lat="40.1951217" lon="15.0481583"><ele>401.33333333333337</ele><time>2026-04-25T13:47:48.936Z</time></trkpt><trkpt lat="40.1951367" lon="15.0480317"><ele>399.6666666666667</ele><time>2026-04-25T13:47:49.977Z</time></trkpt><trkpt lat="40.19517" lon="15.0479367"><ele>398.0</ele><time>2026-04-25T13:47:50.935Z</time></trkpt><trkpt lat="40.19528" lon="15.0479017"><ele>396.33333333333337</ele><time>2026-04-25T13:47:52.933Z</time></trkpt><trkpt lat="40.1953367" lon="15.04796"><ele>394.6666666666667</ele><time>2026-04-25T13:47:53.942Z</time></trkpt><trkpt lat="40.19539" lon="15.0480483"><ele>393.0</ele><time>2026-04-25T13:47:54.941Z</time></trkpt><trkpt lat="40.195455" lon="15.048165"><ele>395.5</ele><time>2026-04-25T13:47:55.987Z</time></trkpt><trkpt lat="40.1955417" lon="15.0483133"><ele>398.0</ele><time>2026-04-25T13:47:56.93Z</time></trkpt><trkpt lat="40.1956383" lon="15.0484783"><ele>400.5</ele><time>2026-04-25T13:47:57.939Z</time></trkpt><trkpt lat="40.1957217" lon="15.0486283"><ele>403.0</ele><time>2026-04-25T13:47:58.939Z</time></trkpt><trkpt lat="40.1957667" lon="15.0487767"><ele>403.25</ele><time>2026-04-25T13:47:59.938Z</time></trkpt><trkpt lat="40.1957817" lon="15.0489267"><ele>403.5</ele><time>2026-04-25T13:48:00.939Z</time></trkpt><trkpt lat="40.19578" lon="15.04909"><ele>403.75</ele><time>2026-04-25T13:48:01.983Z</time></trkpt><trkpt lat="40.19576" lon="15.04927"><ele>404.0</ele><time>2026-04-25T13:48:02.941Z</time></trkpt><trkpt lat="40.1957283" lon="15.0494683"><ele>406.3333333333333</ele><time>2026-04-25T13:48:03.939Z</time></trkpt><trkpt lat="40.1957067" lon="15.04967"><ele>408.66666666666663</ele><time>2026-04-25T13:48:04.938Z</time></trkpt><trkpt lat="40.19571" lon="15.049875"><ele>411.0</ele><time>2026-04-25T13:48:05.937Z</time></trkpt><trkpt lat="40.1957317" lon="15.0500833"><ele>411.33333333333337</ele><time>2026-04-25T13:48:06.936Z</time></trkpt><trkpt lat="40.1957917" lon="15.0502867"><ele>411.6666666666667</ele><time>2026-04-25T13:48:07.974Z</time></trkpt><trkpt lat="40.1958533" lon="15.0504867"><ele>412.0</ele><time>2026-04-25T13:48:08.929Z</time></trkpt><trkpt lat="40.195905" lon="15.050695"><ele>413.6666666666667</ele><time>2026-04-25T13:48:09.941Z</time></trkpt><trkpt lat="40.1959333" lon="15.05091"><ele>415.33333333333337</ele><time>2026-04-25T13:48:10.928Z</time></trkpt><trkpt lat="40.1959617" lon="15.0511233"><ele>417.0</ele><time>2026-04-25T13:48:11.931Z</time></trkpt><trkpt lat="40.1959967" lon="15.0513317"><ele>417.0</ele><time>2026-04-25T13:48:12.933Z</time></trkpt><trkpt lat="40.1960433" lon="15.0515367"><ele>417.0</ele><time>2026-04-25T13:48:13.971Z</time></trkpt><trkpt lat="40.1961117" lon="15.051735"><ele>417.0</ele><time>2026-04-25T13:48:14.931Z</time></trkpt><trkpt lat="40.1962217" lon="15.0518867"><ele>418.33333333333337</ele><time>2026-04-25T13:48:15.933Z</time></trkpt><trkpt lat="40.1963417" lon="15.05203"><ele>419.6666666666667</ele><time>2026-04-25T13:48:16.934Z</time></trkpt><trkpt lat="40.1964583" lon="15.0521767"><ele>421.0</ele><time>2026-04-25T13:48:17.933Z</time></trkpt><trkpt lat="40.1965667" lon="15.05233"><ele>418.5</ele><time>2026-04-25T13:48:18.933Z</time></trkpt><trkpt lat="40.1966583" lon="15.0524933"><ele>416.0</ele><time>2026-04-25T13:48:19.978Z</time></trkpt><trkpt lat="40.196735" lon="15.0526533"><ele>413.5</ele><time>2026-04-25T13:48:20.933Z</time></trkpt><trkpt lat="40.1967883" lon="15.052805"><ele>411.0</ele><time>2026-04-25T13:48:21.928Z</time></trkpt><trkpt lat="40.1968183" lon="15.0529567"><ele>411.0</ele><time>2026-04-25T13:48:22.931Z</time></trkpt><trkpt lat="40.196825" lon="15.05312"><ele>411.0</ele><time>2026-04-25T13:48:23.932Z</time></trkpt><trkpt lat="40.1968317" lon="15.0532917"><ele>411.0</ele><time>2026-04-25T13:48:24.936Z</time></trkpt><trkpt lat="40.1968383" lon="15.05345"><ele>411.0</ele><time>2026-04-25T13:48:25.969Z</time></trkpt><trkpt lat="40.1968533" lon="15.053595"><ele>414.0</ele><time>2026-04-25T13:48:26.928Z</time></trkpt><trkpt lat="40.1968717" lon="15.05373"><ele>417.0</ele><time>2026-04-25T13:48:27.945Z</time></trkpt><trkpt lat="40.1969033" lon="15.0538367"><ele>420.0</ele><time>2026-04-25T13:48:28.933Z</time></trkpt><trkpt lat="40.1969717" lon="15.0538933"><ele>423.0</ele><time>2026-04-25T13:48:29.937Z</time></trkpt><trkpt lat="40.1970733" lon="15.0539333"><ele>426.0</ele><time>2026-04-25T13:48:30.93Z</time></trkpt><trkpt lat="40.1971767" lon="15.053975"><ele>426.0</ele><time>2026-04-25T13:48:31.979Z</time></trkpt><trkpt lat="40.1972733" lon="15.0540317"><ele>426.0</ele><time>2026-04-25T13:48:32.929Z</time></trkpt><trkpt lat="40.1973533" lon="15.054115"><ele>426.0</ele><time>2026-04-25T13:48:33.933Z</time></trkpt><trkpt lat="40.1974133" lon="15.0542067"><ele>426.0</ele><time>2026-04-25T13:48:34.935Z</time></trkpt><trkpt lat="40.1974567" lon="15.054325"><ele>426.0</ele><time>2026-04-25T13:48:35.933Z</time></trkpt><trkpt lat="40.1974717" lon="15.0544717"><ele>426.5</ele><time>2026-04-25T13:48:36.935Z</time></trkpt><trkpt lat="40.1974917" lon="15.0546283"><ele>427.0</ele><time>2026-04-25T13:48:37.977Z</time></trkpt><trkpt lat="40.1975367" lon="15.0548067"><ele>427.5</ele><time>2026-04-25T13:48:38.931Z</time></trkpt><trkpt lat="40.1975783" lon="15.054985"><ele>428.0</ele><time>2026-04-25T13:48:39.934Z</time></trkpt><trkpt lat="40.19764" lon="15.0551817"><ele>428.0</ele><time>2026-04-25T13:48:40.941Z</time></trkpt><trkpt lat="40.197715" lon="15.0553733"><ele>428.0</ele><time>2026-04-25T13:48:41.939Z</time></trkpt><trkpt lat="40.1978083" lon="15.055565"><ele>428.0</ele><time>2026-04-25T13:48:42.932Z</time></trkpt><trkpt lat="40.1979217" lon="15.0557433"><ele>424.25</ele><time>2026-04-25T13:48:43.979Z</time></trkpt><trkpt lat="40.1980233" lon="15.0558983"><ele>420.5</ele><time>2026-04-25T13:48:44.935Z</time></trkpt><trkpt lat="40.1981283" lon="15.056035"><ele>416.75</ele><time>2026-04-25T13:48:45.94Z</time></trkpt><trkpt lat="40.1982317" lon="15.0561517"><ele>413.0</ele><time>2026-04-25T13:48:46.937Z</time></trkpt><trkpt lat="40.1983433" lon="15.05627"><ele>413.0</ele><time>2026-04-25T13:48:47.931Z</time></trkpt><trkpt lat="40.1984533" lon="15.0563867"><ele>413.0</ele><time>2026-04-25T13:48:48.932Z</time></trkpt><trkpt lat="40.19855" lon="15.0565217"><ele>413.0</ele><time>2026-04-25T13:48:49.976Z</time></trkpt><trkpt lat="40.198645" lon="15.0566717"><ele>413.0</ele><time>2026-04-25T13:48:50.934Z</time></trkpt><trkpt lat="40.198735" lon="15.05683"><ele>411.0</ele><time>2026-04-25T13:48:51.932Z</time></trkpt><trkpt lat="40.1988233" lon="15.056995"><ele>409.0</ele><time>2026-04-25T13:48:52.939Z</time></trkpt><trkpt lat="40.1989133" lon="15.0571483"><ele>407.0</ele><time>2026-04-25T13:48:53.933Z</time></trkpt><trkpt lat="40.1989967" lon="15.0573017"><ele>405.0</ele><time>2026-04-25T13:48:54.937Z</time></trkpt><trkpt lat="40.1990683" lon="15.0574517"><ele>408.2</ele><time>2026-04-25T13:48:55.988Z</time></trkpt><trkpt lat="40.19913" lon="15.0575933"><ele>411.4</ele><time>2026-04-25T13:48:56.933Z</time></trkpt><trkpt lat="40.1991817" lon="15.05772"><ele>414.6</ele><time>2026-04-25T13:48:57.927Z</time></trkpt><trkpt lat="40.1992333" lon="15.0578233"><ele>417.8</ele><time>2026-04-25T13:48:58.932Z</time></trkpt><trkpt lat="40.19928" lon="15.0579217"><ele>421.0</ele><time>2026-04-25T13:48:59.938Z</time></trkpt><trkpt lat="40.1993183" lon="15.0580067"><ele>421.00000000000006</ele><time>2026-04-25T13:49:00.935Z</time></trkpt><trkpt lat="40.19937" lon="15.0580867"><ele>421.0</ele><time>2026-04-25T13:49:01.982Z</time></trkpt><trkpt lat="40.199435" lon="15.05816"><ele>421.0</ele><time>2026-04-25T13:49:02.936Z</time></trkpt><trkpt lat="40.19951" lon="15.05823"><ele>421.0</ele><time>2026-04-25T13:49:03.937Z</time></trkpt><trkpt lat="40.1995917" lon="15.0582583"><ele>421.00000000000006</ele><time>2026-04-25T13:49:04.936Z</time></trkpt><trkpt lat="40.1996917" lon="15.0582617"><ele>421.0</ele><time>2026-04-25T13:49:05.929Z</time></trkpt><trkpt lat="40.19978" lon="15.0582767"><ele>418.6</ele><time>2026-04-25T13:49:06.939Z</time></trkpt><trkpt lat="40.1998817" lon="15.0582333"><ele>416.20000000000005</ele><time>2026-04-25T13:49:07.971Z</time></trkpt><trkpt lat="40.1999883" lon="15.0580917"><ele>413.79999999999995</ele><time>2026-04-25T13:49:08.932Z</time></trkpt><trkpt lat="40.2000633" lon="15.0580317"><ele>411.4</ele><time>2026-04-25T13:49:09.926Z</time></trkpt><trkpt lat="40.2001383" lon="15.057975"><ele>409.0</ele><time>2026-04-25T13:49:10.934Z</time></trkpt><trkpt lat="40.20024" lon="15.057935"><ele>409.00000000000006</ele><time>2026-04-25T13:49:12.929Z</time></trkpt><trkpt lat="40.200305" lon="15.05792"><ele>409.0</ele><time>2026-04-25T13:49:14.935Z</time></trkpt><trkpt lat="40.2004167" lon="15.057865"><ele>409.0</ele><time>2026-04-25T13:49:29.936Z</time></trkpt><trkpt lat="40.2004883" lon="15.0579183"><ele>409.0</ele><time>2026-04-25T13:49:31.975Z</time></trkpt><trkpt lat="40.2005733" lon="15.0579667"><ele>409.00000000000006</ele><time>2026-04-25T13:49:33.933Z</time></trkpt><trkpt lat="40.2006483" lon="15.0579883"><ele>409.0</ele><time>2026-04-25T13:49:35.931Z</time></trkpt><trkpt lat="40.2007467" lon="15.0580483"><ele>408.6666666666667</ele><time>2026-04-25T13:49:37.977Z</time></trkpt><trkpt lat="40.200805" lon="15.0580817"><ele>408.33333333333337</ele><time>2026-04-25T13:49:38.935Z</time></trkpt><trkpt lat="40.2008667" lon="15.05811"><ele>408.0</ele><time>2026-04-25T13:49:39.931Z</time></trkpt><trkpt lat="40.2009317" lon="15.058115"><ele>407.66666666666663</ele><time>2026-04-25T13:49:40.937Z</time></trkpt><trkpt lat="40.2010383" lon="15.0581533"><ele>407.3333333333333</ele><time>2026-04-25T13:49:42.941Z</time></trkpt><trkpt lat="40.2011033" lon="15.0581667"><ele>407.0</ele><time>2026-04-25T13:49:43.975Z</time></trkpt><trkpt lat="40.201225" lon="15.0582333"><ele>406.99999999999994</ele><time>2026-04-25T13:49:45.931Z</time></trkpt><trkpt lat="40.2012867" lon="15.0582817"><ele>407.0</ele><time>2026-04-25T13:49:46.936Z</time></trkpt><trkpt lat="40.2013567" lon="15.0583183"><ele>407.0</ele><time>2026-04-25T13:49:47.939Z</time></trkpt><trkpt lat="40.2014333" lon="15.0583333"><ele>407.0</ele><time>2026-04-25T13:49:48.929Z</time></trkpt><trkpt lat="40.2015367" lon="15.058365"><ele>406.99999999999994</ele><time>2026-04-25T13:49:49.974Z</time></trkpt><trkpt lat="40.201625" lon="15.058365"><ele>407.0</ele><time>2026-04-25T13:49:50.936Z</time></trkpt><trkpt lat="40.2017067" lon="15.058325"><ele>406.0</ele><time>2026-04-25T13:49:51.931Z</time></trkpt><trkpt lat="40.2017883" lon="15.0583017"><ele>405.0</ele><time>2026-04-25T13:49:52.933Z</time></trkpt><trkpt lat="40.2018733" lon="15.0582483"><ele>404.0</ele><time>2026-04-25T13:49:53.944Z</time></trkpt><trkpt lat="40.2019567" lon="15.0582167"><ele>403.0</ele><time>2026-04-25T13:49:54.932Z</time></trkpt><trkpt lat="40.2020567" lon="15.058185"><ele>402.0</ele><time>2026-04-25T13:49:55.997Z</time></trkpt><trkpt lat="40.202165" lon="15.05815"><ele>402.0</ele><time>2026-04-25T13:49:56.935Z</time></trkpt><trkpt lat="40.202285" lon="15.058125"><ele>402.0</ele><time>2026-04-25T13:49:57.931Z</time></trkpt><trkpt lat="40.2024133" lon="15.0580883"><ele>402.0</ele><time>2026-04-25T13:49:58.938Z</time></trkpt><trkpt lat="40.2025733" lon="15.0580433"><ele>402.0</ele><time>2026-04-25T13:49:59.933Z</time></trkpt><trkpt lat="40.202725" lon="15.0580017"><ele>401.0</ele><time>2026-04-25T13:50:00.935Z</time></trkpt><trkpt lat="40.2028667" lon="15.0579717"><ele>400.0</ele><time>2026-04-25T13:50:01.971Z</time></trkpt><trkpt lat="40.203" lon="15.0579483"><ele>399.0</ele><time>2026-04-25T13:50:02.93Z</time></trkpt><trkpt lat="40.2031183" lon="15.057925"><ele>398.0</ele><time>2026-04-25T13:50:03.937Z</time></trkpt><trkpt lat="40.20323" lon="15.0579"><ele>398.0</ele><time>2026-04-25T13:50:04.939Z</time></trkpt><trkpt lat="40.2033383" lon="15.0578733"><ele>398.0</ele><time>2026-04-25T13:50:05.937Z</time></trkpt><trkpt lat="40.203435" lon="15.0578417"><ele>398.0</ele><time>2026-04-25T13:50:06.936Z</time></trkpt><trkpt lat="40.203525" lon="15.0578267"><ele>398.0</ele><time>2026-04-25T13:50:07.974Z</time></trkpt><trkpt lat="40.2036117" lon="15.0578067"><ele>398.0</ele><time>2026-04-25T13:50:08.935Z</time></trkpt><trkpt lat="40.2037217" lon="15.0578867"><ele>398.0</ele><time>2026-04-25T13:50:10.932Z</time></trkpt><trkpt lat="40.2037767" lon="15.057955"><ele>398.0</ele><time>2026-04-25T13:50:11.937Z</time></trkpt><trkpt lat="40.203845" lon="15.0580133"><ele>398.0</ele><time>2026-04-25T13:50:12.935Z</time></trkpt><trkpt lat="40.203925" lon="15.0580717"><ele>398.0</ele><time>2026-04-25T13:50:13.975Z</time></trkpt><trkpt lat="40.2040183" lon="15.0581367"><ele>398.0</ele><time>2026-04-25T13:50:14.929Z</time></trkpt><trkpt lat="40.2041267" lon="15.0582117"><ele>397.5</ele><time>2026-04-25T13:50:15.931Z</time></trkpt><trkpt lat="40.20426" lon="15.058305"><ele>397.0</ele><time>2026-04-25T13:50:16.928Z</time></trkpt><trkpt lat="40.204385" lon="15.0584017"><ele>396.5</ele><time>2026-04-25T13:50:17.93Z</time></trkpt><trkpt lat="40.2045083" lon="15.05851"><ele>396.0</ele><time>2026-04-25T13:50:18.934Z</time></trkpt><trkpt lat="40.2046283" lon="15.0586217"><ele>396.0</ele><time>2026-04-25T13:50:19.973Z</time></trkpt><trkpt lat="40.2047383" lon="15.0587317"><ele>396.0</ele><time>2026-04-25T13:50:20.933Z</time></trkpt><trkpt lat="40.2048433" lon="15.0588283"><ele>396.0</ele><time>2026-04-25T13:50:21.935Z</time></trkpt><trkpt lat="40.20494" lon="15.05891"><ele>396.0</ele><time>2026-04-25T13:50:22.936Z</time></trkpt><trkpt lat="40.2050417" lon="15.05898"><ele>399.0</ele><time>2026-04-25T13:50:23.935Z</time></trkpt><trkpt lat="40.2051533" lon="15.0590333"><ele>402.0</ele><time>2026-04-25T13:50:24.936Z</time></trkpt><trkpt lat="40.205265" lon="15.0590767"><ele>405.0</ele><time>2026-04-25T13:50:25.992Z</time></trkpt><trkpt lat="40.2053733" lon="15.0590983"><ele>408.0</ele><time>2026-04-25T13:50:26.935Z</time></trkpt><trkpt lat="40.2054767" lon="15.0591083"><ele>411.0</ele><time>2026-04-25T13:50:27.932Z</time></trkpt><trkpt lat="40.20557" lon="15.059115"><ele>410.20000000000005</ele><time>2026-04-25T13:50:28.928Z</time></trkpt><trkpt lat="40.2056633" lon="15.05911"><ele>409.40000000000003</ele><time>2026-04-25T13:50:29.929Z</time></trkpt><trkpt lat="40.205765" lon="15.05909"><ele>408.6</ele><time>2026-04-25T13:50:30.934Z</time></trkpt><trkpt lat="40.2058667" lon="15.05904"><ele>407.8</ele><time>2026-04-25T13:50:31.971Z</time></trkpt><trkpt lat="40.2059783" lon="15.0589967"><ele>407.0</ele><time>2026-04-25T13:50:32.936Z</time></trkpt><trkpt lat="40.206085" lon="15.058965"><ele>407.0</ele><time>2026-04-25T13:50:33.933Z</time></trkpt><trkpt lat="40.206185" lon="15.0589417"><ele>407.0</ele><time>2026-04-25T13:50:34.935Z</time></trkpt><trkpt lat="40.20628" lon="15.0589067"><ele>407.0</ele><time>2026-04-25T13:50:35.933Z</time></trkpt><trkpt lat="40.206365" lon="15.058855"><ele>407.0</ele><time>2026-04-25T13:50:36.932Z</time></trkpt><trkpt lat="40.2064583" lon="15.0587833"><ele>407.0</ele><time>2026-04-25T13:50:37.977Z</time></trkpt><trkpt lat="40.2065583" lon="15.058695"><ele>403.5</ele><time>2026-04-25T13:50:38.932Z</time></trkpt><trkpt lat="40.2066667" lon="15.0585983"><ele>400.0</ele><time>2026-04-25T13:50:39.935Z</time></trkpt><trkpt lat="40.2067833" lon="15.0584983"><ele>396.5</ele><time>2026-04-25T13:50:40.933Z</time></trkpt><trkpt lat="40.2069017" lon="15.0584"><ele>393.0</ele><time>2026-04-25T13:50:41.935Z</time></trkpt><trkpt lat="40.2070183" lon="15.0583033"><ele>391.25</ele><time>2026-04-25T13:50:42.937Z</time></trkpt><trkpt lat="40.2071367" lon="15.0582167"><ele>389.5</ele><time>2026-04-25T13:50:43.974Z</time></trkpt><trkpt lat="40.207245" lon="15.0581467"><ele>387.75</ele><time>2026-04-25T13:50:44.93Z</time></trkpt><trkpt lat="40.207345" lon="15.0580983"><ele>386.0</ele><time>2026-04-25T13:50:45.934Z</time></trkpt><trkpt lat="40.2074417" lon="15.05807"><ele>386.0</ele><time>2026-04-25T13:50:46.933Z</time></trkpt><trkpt lat="40.20753" lon="15.0580617"><ele>386.0</ele><time>2026-04-25T13:50:47.937Z</time></trkpt><trkpt lat="40.207625" lon="15.058055"><ele>386.0</ele><time>2026-04-25T13:50:48.935Z</time></trkpt><trkpt lat="40.2077217" lon="15.05805"><ele>386.0</ele><time>2026-04-25T13:50:49.979Z</time></trkpt><trkpt lat="40.2078283" lon="15.058035"><ele>386.0</ele><time>2026-04-25T13:50:50.932Z</time></trkpt><trkpt lat="40.20793" lon="15.05801"><ele>386.0</ele><time>2026-04-25T13:50:51.939Z</time></trkpt><trkpt lat="40.2080283" lon="15.0579817"><ele>386.0</ele><time>2026-04-25T13:50:52.936Z</time></trkpt><trkpt lat="40.2081233" lon="15.057945"><ele>386.0</ele><time>2026-04-25T13:50:53.932Z</time></trkpt><trkpt lat="40.2082067" lon="15.0578867"><ele>386.0</ele><time>2026-04-25T13:50:54.931Z</time></trkpt><trkpt lat="40.2082833" lon="15.05781"><ele>386.0</ele><time>2026-04-25T13:50:55.963Z</time></trkpt><trkpt lat="40.2083383" lon="15.0577117"><ele>386.4</ele><time>2026-04-25T13:50:56.93Z</time></trkpt><trkpt lat="40.208385" lon="15.0575983"><ele>386.8</ele><time>2026-04-25T13:50:57.937Z</time></trkpt><trkpt lat="40.2084417" lon="15.0575083"><ele>387.2</ele><time>2026-04-25T13:50:58.927Z</time></trkpt><trkpt lat="40.2085033" lon="15.0574283"><ele>387.59999999999997</ele><time>2026-04-25T13:50:59.935Z</time></trkpt><trkpt lat="40.2085717" lon="15.0573633"><ele>388.0</ele><time>2026-04-25T13:51:00.932Z</time></trkpt><trkpt lat="40.2086583" lon="15.0573083"><ele>388.00000000000006</ele><time>2026-04-25T13:51:01.984Z</time></trkpt><trkpt lat="40.2087417" lon="15.0572633"><ele>388.0</ele><time>2026-04-25T13:51:02.931Z</time></trkpt><trkpt lat="40.2088233" lon="15.0572217"><ele>388.0</ele><time>2026-04-25T13:51:03.928Z</time></trkpt><trkpt lat="40.2088967" lon="15.0571833"><ele>388.0</ele><time>2026-04-25T13:51:04.934Z</time></trkpt><trkpt lat="40.2089717" lon="15.0571567"><ele>388.00000000000006</ele><time>2026-04-25T13:51:05.939Z</time></trkpt><trkpt lat="40.20905" lon="15.0571333"><ele>388.0</ele><time>2026-04-25T13:51:06.934Z</time></trkpt><trkpt lat="40.2091217" lon="15.0571083"><ele>385.83333333333337</ele><time>2026-04-25T13:51:07.975Z</time></trkpt><trkpt lat="40.2091967" lon="15.0570817"><ele>383.6666666666667</ele><time>2026-04-25T13:51:08.933Z</time></trkpt><trkpt lat="40.2092717" lon="15.0570467"><ele>381.5</ele><time>2026-04-25T13:51:09.934Z</time></trkpt><trkpt lat="40.2093333" lon="15.0570217"><ele>379.33333333333337</ele><time>2026-04-25T13:51:10.932Z</time></trkpt><trkpt lat="40.209445" lon="15.0570233"><ele>377.1666666666667</ele><time>2026-04-25T13:51:12.934Z</time></trkpt><trkpt lat="40.20951" lon="15.0570567"><ele>375.0</ele><time>2026-04-25T13:51:13.975Z</time></trkpt><trkpt lat="40.2095883" lon="15.0571267"><ele>375.0</ele><time>2026-04-25T13:51:14.927Z</time></trkpt><trkpt lat="40.2096767" lon="15.0572433"><ele>375.0</ele><time>2026-04-25T13:51:15.937Z</time></trkpt><trkpt lat="40.20978" lon="15.0573767"><ele>375.0</ele><time>2026-04-25T13:51:16.931Z</time></trkpt><trkpt lat="40.2098817" lon="15.0574833"><ele>375.0</ele><time>2026-04-25T13:51:17.933Z</time></trkpt><trkpt lat="40.21" lon="15.0575867"><ele>371.0</ele><time>2026-04-25T13:51:18.932Z</time></trkpt><trkpt lat="40.21012" lon="15.05767"><ele>367.0</ele><time>2026-04-25T13:51:19.973Z</time></trkpt><trkpt lat="40.210235" lon="15.0577383"><ele>363.0</ele><time>2026-04-25T13:51:20.932Z</time></trkpt><trkpt lat="40.21034" lon="15.0578117"><ele>359.0</ele><time>2026-04-25T13:51:21.933Z</time></trkpt><trkpt lat="40.2104283" lon="15.0578817"><ele>359.0</ele><time>2026-04-25T13:51:22.932Z</time></trkpt><trkpt lat="40.2104817" lon="15.0579583"><ele>359.0</ele><time>2026-04-25T13:51:23.937Z</time></trkpt><trkpt lat="40.2104583" lon="15.05808"><ele>359.0</ele><time>2026-04-25T13:51:24.931Z</time></trkpt><trkpt lat="40.2104533" lon="15.058205"><ele>359.0</ele><time>2026-04-25T13:51:25.986Z</time></trkpt><trkpt lat="40.210435" lon="15.0583567"><ele>359.0</ele><time>2026-04-25T13:51:26.93Z</time></trkpt><trkpt lat="40.2104083" lon="15.0585167"><ele>354.75</ele><time>2026-04-25T13:51:27.931Z</time></trkpt><trkpt lat="40.2103833" lon="15.0586917"><ele>350.5</ele><time>2026-04-25T13:51:28.938Z</time></trkpt><trkpt lat="40.2103733" lon="15.05888"><ele>346.25</ele><time>2026-04-25T13:51:29.934Z</time></trkpt><trkpt lat="40.21037" lon="15.0590883"><ele>342.0</ele><time>2026-04-25T13:51:30.93Z</time></trkpt><trkpt lat="40.2103933" lon="15.0593083"><ele>338.0</ele><time>2026-04-25T13:51:31.976Z</time></trkpt><trkpt lat="40.2104167" lon="15.0595167"><ele>334.0</ele><time>2026-04-25T13:51:32.928Z</time></trkpt><trkpt lat="40.21044" lon="15.0597133"><ele>330.0</ele><time>2026-04-25T13:51:33.934Z</time></trkpt><trkpt lat="40.2104533" lon="15.0599033"><ele>326.0</ele><time>2026-04-25T13:51:34.935Z</time></trkpt><trkpt lat="40.2104533" lon="15.0601083"><ele>322.0</ele><time>2026-04-25T13:51:35.933Z</time></trkpt><trkpt lat="40.2104483" lon="15.060315"><ele>318.0</ele><time>2026-04-25T13:51:36.937Z</time></trkpt><trkpt lat="40.210445" lon="15.0605167"><ele>318.0</ele><time>2026-04-25T13:51:37.971Z</time></trkpt><trkpt lat="40.2104417" lon="15.060715"><ele>318.0</ele><time>2026-04-25T13:51:38.933Z</time></trkpt><trkpt lat="40.2104383" lon="15.0609067"><ele>318.0</ele><time>2026-04-25T13:51:39.933Z</time></trkpt><trkpt lat="40.2104467" lon="15.061095"><ele>318.0</ele><time>2026-04-25T13:51:40.934Z</time></trkpt><trkpt lat="40.2104567" lon="15.0612667"><ele>316.2</ele><time>2026-04-25T13:51:41.931Z</time></trkpt><trkpt lat="40.2104733" lon="15.0614167"><ele>314.4</ele><time>2026-04-25T13:51:42.934Z</time></trkpt><trkpt lat="40.2105183" lon="15.06152"><ele>312.59999999999997</ele><time>2026-04-25T13:51:43.973Z</time></trkpt><trkpt lat="40.2105833" lon="15.0616217"><ele>310.8</ele><time>2026-04-25T13:51:44.933Z</time></trkpt><trkpt lat="40.210665" lon="15.061715"><ele>309.0</ele><time>2026-04-25T13:51:45.93Z</time></trkpt><trkpt lat="40.210765" lon="15.0618017"><ele>313.5</ele><time>2026-04-25T13:51:46.931Z</time></trkpt><trkpt lat="40.2108883" lon="15.0618733"><ele>318.0</ele><time>2026-04-25T13:51:47.931Z</time></trkpt><trkpt lat="40.2109967" lon="15.06195"><ele>322.5</ele><time>2026-04-25T13:51:48.934Z</time></trkpt><trkpt lat="40.2110933" lon="15.0620167"><ele>327.0</ele><time>2026-04-25T13:51:49.97Z</time></trkpt><trkpt lat="40.211175" lon="15.0620617"><ele>327.0</ele><time>2026-04-25T13:51:50.933Z</time></trkpt><trkpt lat="40.2112583" lon="15.0620933"><ele>327.0</ele><time>2026-04-25T13:51:51.933Z</time></trkpt><trkpt lat="40.211345" lon="15.0620817"><ele>327.0</ele><time>2026-04-25T13:51:52.941Z</time></trkpt><trkpt lat="40.2114567" lon="15.0619933"><ele>327.0</ele><time>2026-04-25T13:51:53.931Z</time></trkpt><trkpt lat="40.211565" lon="15.0619283"><ele>327.0</ele><time>2026-04-25T13:51:54.937Z</time></trkpt><trkpt lat="40.2116767" lon="15.0618783"><ele>328.0</ele><time>2026-04-25T13:51:55.99Z</time></trkpt><trkpt lat="40.211795" lon="15.0618467"><ele>329.0</ele><time>2026-04-25T13:51:56.93Z</time></trkpt><trkpt lat="40.211905" lon="15.0618183"><ele>330.0</ele><time>2026-04-25T13:51:57.938Z</time></trkpt><trkpt lat="40.212015" lon="15.06179"><ele>331.0</ele><time>2026-04-25T13:51:58.934Z</time></trkpt><trkpt lat="40.2121133" lon="15.0617517"><ele>332.0</ele><time>2026-04-25T13:51:59.933Z</time></trkpt><trkpt lat="40.2122033" lon="15.06171"><ele>332.0</ele><time>2026-04-25T13:52:00.935Z</time></trkpt><trkpt lat="40.2122833" lon="15.0616767"><ele>332.0</ele><time>2026-04-25T13:52:01.975Z</time></trkpt><trkpt lat="40.2123583" lon="15.061655"><ele>332.0</ele><time>2026-04-25T13:52:02.93Z</time></trkpt><trkpt lat="40.2124333" lon="15.06166"><ele>332.0</ele><time>2026-04-25T13:52:03.93Z</time></trkpt><trkpt lat="40.2125067" lon="15.0616883"><ele>332.0</ele><time>2026-04-25T13:52:04.936Z</time></trkpt><trkpt lat="40.2125933" lon="15.0617317"><ele>332.0</ele><time>2026-04-25T13:52:05.937Z</time></trkpt><trkpt lat="40.2126883" lon="15.0617883"><ele>332.1666666666667</ele><time>2026-04-25T13:52:06.931Z</time></trkpt><trkpt lat="40.2127833" lon="15.061845"><ele>332.33333333333337</ele><time>2026-04-25T13:52:07.972Z</time></trkpt><trkpt lat="40.2128683" lon="15.0619017"><ele>332.5</ele><time>2026-04-25T13:52:08.936Z</time></trkpt><trkpt lat="40.2129383" lon="15.06197"><ele>332.6666666666667</ele><time>2026-04-25T13:52:09.93Z</time></trkpt><trkpt lat="40.2129783" lon="15.0620533"><ele>332.8333333333333</ele><time>2026-04-25T13:52:10.933Z</time></trkpt><trkpt lat="40.2129833" lon="15.0621467"><ele>333.0</ele><time>2026-04-25T13:52:11.934Z</time></trkpt><trkpt lat="40.2130033" lon="15.0622533"><ele>333.0</ele><time>2026-04-25T13:52:12.932Z</time></trkpt><trkpt lat="40.2129633" lon="15.0623583"><ele>333.0</ele><time>2026-04-25T13:52:13.974Z</time></trkpt><trkpt lat="40.212955" lon="15.06247"><ele>333.0</ele><time>2026-04-25T13:52:14.931Z</time></trkpt><trkpt lat="40.2129867" lon="15.0625667"><ele>333.0</ele><time>2026-04-25T13:52:15.932Z</time></trkpt><trkpt lat="40.21304" lon="15.062665"><ele>333.0</ele><time>2026-04-25T13:52:16.936Z</time></trkpt><trkpt lat="40.2131167" lon="15.0627417"><ele>333.0</ele><time>2026-04-25T13:52:17.941Z</time></trkpt><trkpt lat="40.2132167" lon="15.062795"><ele>331.4</ele><time>2026-04-25T13:52:18.934Z</time></trkpt><trkpt lat="40.2133267" lon="15.0628217"><ele>329.79999999999995</ele><time>2026-04-25T13:52:19.979Z</time></trkpt><trkpt lat="40.213425" lon="15.06286"><ele>328.2</ele><time>2026-04-25T13:52:20.932Z</time></trkpt><trkpt lat="40.2134917" lon="15.0629067"><ele>326.6</ele><time>2026-04-25T13:52:21.937Z</time></trkpt><trkpt lat="40.2135483" lon="15.0629783"><ele>325.0</ele><time>2026-04-25T13:52:23.937Z</time></trkpt><trkpt lat="40.213505" lon="15.063095"><ele>325.0</ele><time>2026-04-25T13:52:25.991Z</time></trkpt><trkpt lat="40.2134433" lon="15.0631517"><ele>325.0</ele><time>2026-04-25T13:52:26.935Z</time></trkpt><trkpt lat="40.213335" lon="15.0632167"><ele>325.0</ele><time>2026-04-25T13:52:27.934Z</time></trkpt><trkpt lat="40.2132267" lon="15.063315"><ele>325.0</ele><time>2026-04-25T13:52:28.936Z</time></trkpt><trkpt lat="40.2131333" lon="15.0633983"><ele>325.0</ele><time>2026-04-25T13:52:29.937Z</time></trkpt><trkpt lat="40.213055" lon="15.06348"><ele>320.8</ele><time>2026-04-25T13:52:30.932Z</time></trkpt><trkpt lat="40.212975" lon="15.0635367"><ele>316.6</ele><time>2026-04-25T13:52:31.974Z</time></trkpt><trkpt lat="40.2128817" lon="15.063565"><ele>312.4</ele><time>2026-04-25T13:52:32.937Z</time></trkpt><trkpt lat="40.21278" lon="15.0635867"><ele>308.2</ele><time>2026-04-25T13:52:33.932Z</time></trkpt><trkpt lat="40.2126733" lon="15.06361"><ele>304.0</ele><time>2026-04-25T13:52:34.94Z</time></trkpt><trkpt lat="40.212565" lon="15.0636367"><ele>304.0</ele><time>2026-04-25T13:52:35.939Z</time></trkpt><trkpt lat="40.21245" lon="15.0636767"><ele>304.0</ele><time>2026-04-25T13:52:36.929Z</time></trkpt><trkpt lat="40.2123333" lon="15.0637317"><ele>304.0</ele><time>2026-04-25T13:52:37.981Z</time></trkpt><trkpt lat="40.21222" lon="15.063805"><ele>304.0</ele><time>2026-04-25T13:52:38.932Z</time></trkpt><trkpt lat="40.2121083" lon="15.0638783"><ele>298.75</ele><time>2026-04-25T13:52:39.936Z</time></trkpt><trkpt lat="40.2119867" lon="15.0639383"><ele>293.5</ele><time>2026-04-25T13:52:40.933Z</time></trkpt><trkpt lat="40.211865" lon="15.0639883"><ele>288.25</ele><time>2026-04-25T13:52:41.929Z</time></trkpt><trkpt lat="40.2117383" lon="15.0640233"><ele>283.0</ele><time>2026-04-25T13:52:42.928Z</time></trkpt><trkpt lat="40.21162" lon="15.0640617"><ele>283.0</ele><time>2026-04-25T13:52:43.972Z</time></trkpt><trkpt lat="40.2114967" lon="15.064095"><ele>283.0</ele><time>2026-04-25T13:52:44.929Z</time></trkpt><trkpt lat="40.2113767" lon="15.06415"><ele>283.0</ele><time>2026-04-25T13:52:45.931Z</time></trkpt><trkpt lat="40.2112517" lon="15.0642167"><ele>283.0</ele><time>2026-04-25T13:52:46.932Z</time></trkpt><trkpt lat="40.2111167" lon="15.0642633"><ele>281.0</ele><time>2026-04-25T13:52:47.932Z</time></trkpt><trkpt lat="40.2109917" lon="15.0643233"><ele>279.0</ele><time>2026-04-25T13:52:48.932Z</time></trkpt><trkpt lat="40.2108767" lon="15.064395"><ele>277.0</ele><time>2026-04-25T13:52:49.972Z</time></trkpt><trkpt lat="40.2107517" lon="15.06449"><ele>275.0</ele><time>2026-04-25T13:52:50.929Z</time></trkpt><trkpt lat="40.210625" lon="15.064605"><ele>275.0</ele><time>2026-04-25T13:52:51.928Z</time></trkpt><trkpt lat="40.21051" lon="15.0647217"><ele>275.0</ele><time>2026-04-25T13:52:52.938Z</time></trkpt><trkpt lat="40.2104033" lon="15.06482"><ele>275.0</ele><time>2026-04-25T13:52:53.931Z</time></trkpt><trkpt lat="40.2103017" lon="15.0648983"><ele>275.0</ele><time>2026-04-25T13:52:54.934Z</time></trkpt><trkpt lat="40.2101967" lon="15.064965"><ele>280.0</ele><time>2026-04-25T13:52:55.985Z</time></trkpt><trkpt lat="40.2100717" lon="15.0650267"><ele>285.0</ele><time>2026-04-25T13:52:56.927Z</time></trkpt><trkpt lat="40.2099417" lon="15.0650733"><ele>290.0</ele><time>2026-04-25T13:52:57.936Z</time></trkpt><trkpt lat="40.2098317" lon="15.065115"><ele>295.0</ele><time>2026-04-25T13:52:58.933Z</time></trkpt><trkpt lat="40.2097517" lon="15.065145"><ele>295.0</ele><time>2026-04-25T13:52:59.934Z</time></trkpt><trkpt lat="40.2097267" lon="15.0652467"><ele>295.0</ele><time>2026-04-25T13:53:01.982Z</time></trkpt><trkpt lat="40.209775" lon="15.065315"><ele>295.0</ele><time>2026-04-25T13:53:02.925Z</time></trkpt><trkpt lat="40.2098533" lon="15.0653733"><ele>295.0</ele><time>2026-04-25T13:53:03.933Z</time></trkpt><trkpt lat="40.2099967" lon="15.06543"><ele>295.0</ele><time>2026-04-25T13:53:04.935Z</time></trkpt><trkpt lat="40.2101367" lon="15.0654917"><ele>295.25</ele><time>2026-04-25T13:53:05.937Z</time></trkpt><trkpt lat="40.210265" lon="15.0655617"><ele>295.5</ele><time>2026-04-25T13:53:06.933Z</time></trkpt><trkpt lat="40.2103817" lon="15.0656367"><ele>295.75</ele><time>2026-04-25T13:53:07.982Z</time></trkpt><trkpt lat="40.210485" lon="15.0657217"><ele>296.0</ele><time>2026-04-25T13:53:08.931Z</time></trkpt><trkpt lat="40.2105733" lon="15.06581"><ele>294.83333333333337</ele><time>2026-04-25T13:53:09.93Z</time></trkpt><trkpt lat="40.21064" lon="15.0658983"><ele>293.6666666666667</ele><time>2026-04-25T13:53:10.929Z</time></trkpt><trkpt lat="40.210695" lon="15.06598"><ele>292.5</ele><time>2026-04-25T13:53:11.932Z</time></trkpt><trkpt lat="40.2107333" lon="15.0660633"><ele>291.3333333333333</ele><time>2026-04-25T13:53:12.931Z</time></trkpt><trkpt lat="40.2107567" lon="15.0661483"><ele>290.16666666666663</ele><time>2026-04-25T13:53:13.977Z</time></trkpt><trkpt lat="40.21076" lon="15.0662433"><ele>289.0</ele><time>2026-04-25T13:53:14.928Z</time></trkpt><trkpt lat="40.2107267" lon="15.0663417"><ele>289.0</ele><time>2026-04-25T13:53:15.932Z</time></trkpt><trkpt lat="40.21066" lon="15.0664617"><ele>289.0</ele><time>2026-04-25T13:53:16.927Z</time></trkpt><trkpt lat="40.2105233" lon="15.0665417"><ele>289.0</ele><time>2026-04-25T13:53:17.931Z</time></trkpt><trkpt lat="40.21042" lon="15.0666383"><ele>289.0</ele><time>2026-04-25T13:53:18.934Z</time></trkpt><trkpt lat="40.2103383" lon="15.0667333"><ele>289.0</ele><time>2026-04-25T13:53:19.977Z</time></trkpt><trkpt lat="40.2102617" lon="15.066845"><ele>289.0</ele><time>2026-04-25T13:53:20.93Z</time></trkpt><trkpt lat="40.2101967" lon="15.0669683"><ele>289.0</ele><time>2026-04-25T13:53:21.93Z</time></trkpt><trkpt lat="40.210135" lon="15.067095"><ele>289.0</ele><time>2026-04-25T13:53:22.931Z</time></trkpt><trkpt lat="40.21007" lon="15.067225"><ele>289.0</ele><time>2026-04-25T13:53:23.936Z</time></trkpt><trkpt lat="40.2100067" lon="15.0673567"><ele>289.0</ele><time>2026-04-25T13:53:24.932Z</time></trkpt><trkpt lat="40.2099467" lon="15.0674967"><ele>289.0</ele><time>2026-04-25T13:53:25.987Z</time></trkpt><trkpt lat="40.2098933" lon="15.0676433"><ele>289.0</ele><time>2026-04-25T13:53:26.941Z</time></trkpt><trkpt lat="40.2098583" lon="15.0677817"><ele>287.75</ele><time>2026-04-25T13:53:27.935Z</time></trkpt><trkpt lat="40.209835" lon="15.067925"><ele>286.5</ele><time>2026-04-25T13:53:28.93Z</time></trkpt><trkpt lat="40.209815" lon="15.0680683"><ele>285.25</ele><time>2026-04-25T13:53:29.933Z</time></trkpt><trkpt lat="40.2097867" lon="15.068215"><ele>284.0</ele><time>2026-04-25T13:53:30.928Z</time></trkpt><trkpt lat="40.20975" lon="15.0683633"><ele>284.0</ele><time>2026-04-25T13:53:31.977Z</time></trkpt><trkpt lat="40.20971" lon="15.0685117"><ele>284.0</ele><time>2026-04-25T13:53:32.931Z</time></trkpt><trkpt lat="40.2096767" lon="15.0686683"><ele>284.0</ele><time>2026-04-25T13:53:33.93Z</time></trkpt><trkpt lat="40.209655" lon="15.0688367"><ele>284.0</ele><time>2026-04-25T13:53:34.929Z</time></trkpt><trkpt lat="40.2096417" lon="15.0690217"><ele>285.0</ele><time>2026-04-25T13:53:35.939Z</time></trkpt><trkpt lat="40.2096367" lon="15.069215"><ele>286.0</ele><time>2026-04-25T13:53:36.932Z</time></trkpt><trkpt lat="40.2096483" lon="15.069405"><ele>287.0</ele><time>2026-04-25T13:53:37.978Z</time></trkpt><trkpt lat="40.20967" lon="15.0696083"><ele>287.0</ele><time>2026-04-25T13:53:38.932Z</time></trkpt><trkpt lat="40.209695" lon="15.0698017"><ele>287.0</ele><time>2026-04-25T13:53:39.936Z</time></trkpt><trkpt lat="40.2097133" lon="15.0699833"><ele>287.0</ele><time>2026-04-25T13:53:40.936Z</time></trkpt><trkpt lat="40.2097317" lon="15.0701533"><ele>287.0</ele><time>2026-04-25T13:53:41.931Z</time></trkpt><trkpt lat="40.2097383" lon="15.0703117"><ele>287.0</ele><time>2026-04-25T13:53:42.933Z</time></trkpt><trkpt lat="40.209735" lon="15.07046"><ele>287.0</ele><time>2026-04-25T13:53:43.974Z</time></trkpt><trkpt lat="40.2097117" lon="15.0705833"><ele>287.0</ele><time>2026-04-25T13:53:44.932Z</time></trkpt><trkpt lat="40.209675" lon="15.0707"><ele>287.0</ele><time>2026-04-25T13:53:45.931Z</time></trkpt><trkpt lat="40.209625" lon="15.0708117"><ele>287.0</ele><time>2026-04-25T13:53:46.932Z</time></trkpt><trkpt lat="40.2095783" lon="15.070925"><ele>288.8</ele><time>2026-04-25T13:53:47.938Z</time></trkpt><trkpt lat="40.2095383" lon="15.0710483"><ele>290.6</ele><time>2026-04-25T13:53:48.935Z</time></trkpt><trkpt lat="40.2095067" lon="15.071185"><ele>292.40000000000003</ele><time>2026-04-25T13:53:49.979Z</time></trkpt><trkpt lat="40.20948" lon="15.07132"><ele>294.2</ele><time>2026-04-25T13:53:50.933Z</time></trkpt><trkpt lat="40.20945" lon="15.071435"><ele>296.0</ele><time>2026-04-25T13:53:51.928Z</time></trkpt><trkpt lat="40.2094133" lon="15.07154"><ele>297.1666666666667</ele><time>2026-04-25T13:53:52.935Z</time></trkpt><trkpt lat="40.209365" lon="15.0716317"><ele>298.33333333333337</ele><time>2026-04-25T13:53:53.93Z</time></trkpt><trkpt lat="40.2093167" lon="15.0717083"><ele>299.5</ele><time>2026-04-25T13:53:54.931Z</time></trkpt><trkpt lat="40.2092483" lon="15.0717633"><ele>300.6666666666667</ele><time>2026-04-25T13:53:55.983Z</time></trkpt><trkpt lat="40.2091667" lon="15.07181"><ele>301.8333333333333</ele><time>2026-04-25T13:53:56.932Z</time></trkpt><trkpt lat="40.209075" lon="15.0718433"><ele>303.0</ele><time>2026-04-25T13:53:57.932Z</time></trkpt><trkpt lat="40.208985" lon="15.0718633"><ele>303.0</ele><time>2026-04-25T13:53:58.928Z</time></trkpt><trkpt lat="40.2089067" lon="15.071865"><ele>303.0</ele><time>2026-04-25T13:53:59.932Z</time></trkpt><trkpt lat="40.2088433" lon="15.0718517"><ele>303.0</ele><time>2026-04-25T13:54:00.931Z</time></trkpt><trkpt lat="40.208725" lon="15.0717567"><ele>303.0</ele><time>2026-04-25T13:54:02.932Z</time></trkpt><trkpt lat="40.2086633" lon="15.0716783"><ele>303.0</ele><time>2026-04-25T13:54:03.927Z</time></trkpt><trkpt lat="40.208595" lon="15.0715917"><ele>299.2</ele><time>2026-04-25T13:54:04.932Z</time></trkpt><trkpt lat="40.2085317" lon="15.0715183"><ele>295.4</ele><time>2026-04-25T13:54:05.934Z</time></trkpt><trkpt lat="40.20846" lon="15.0714667"><ele>291.59999999999997</ele><time>2026-04-25T13:54:06.933Z</time></trkpt><trkpt lat="40.2083867" lon="15.0714317"><ele>287.8</ele><time>2026-04-25T13:54:07.976Z</time></trkpt><trkpt lat="40.2082817" lon="15.07142"><ele>284.0</ele><time>2026-04-25T13:54:08.932Z</time></trkpt><trkpt lat="40.2081767" lon="15.07142"><ele>284.4</ele><time>2026-04-25T13:54:09.932Z</time></trkpt><trkpt lat="40.20808" lon="15.07141"><ele>284.79999999999995</ele><time>2026-04-25T13:54:10.927Z</time></trkpt><trkpt lat="40.2079933" lon="15.0713833"><ele>285.20000000000005</ele><time>2026-04-25T13:54:11.934Z</time></trkpt><trkpt lat="40.20791" lon="15.07133"><ele>285.6</ele><time>2026-04-25T13:54:12.937Z</time></trkpt><trkpt lat="40.207815" lon="15.071255"><ele>286.0</ele><time>2026-04-25T13:54:13.976Z</time></trkpt><trkpt lat="40.2077117" lon="15.0711683"><ele>286.0</ele><time>2026-04-25T13:54:14.926Z</time></trkpt><trkpt lat="40.2076233" lon="15.0710833"><ele>286.0</ele><time>2026-04-25T13:54:15.933Z</time></trkpt><trkpt lat="40.2075267" lon="15.07102"><ele>286.0</ele><time>2026-04-25T13:54:16.935Z</time></trkpt><trkpt lat="40.2074283" lon="15.07098"><ele>286.0</ele><time>2026-04-25T13:54:17.936Z</time></trkpt><trkpt lat="40.2073267" lon="15.0709567"><ele>286.0</ele><time>2026-04-25T13:54:18.936Z</time></trkpt><trkpt lat="40.20724" lon="15.07101"><ele>282.0</ele><time>2026-04-25T13:54:19.975Z</time></trkpt><trkpt lat="40.2071483" lon="15.071065"><ele>278.0</ele><time>2026-04-25T13:54:20.934Z</time></trkpt><trkpt lat="40.20705" lon="15.0711383"><ele>274.0</ele><time>2026-04-25T13:54:21.927Z</time></trkpt><trkpt lat="40.2069517" lon="15.0712183"><ele>270.0</ele><time>2026-04-25T13:54:22.927Z</time></trkpt><trkpt lat="40.2068717" lon="15.0713117"><ele>266.0</ele><time>2026-04-25T13:54:23.93Z</time></trkpt><trkpt lat="40.20682" lon="15.0714283"><ele>266.0</ele><time>2026-04-25T13:54:24.932Z</time></trkpt><trkpt lat="40.2067867" lon="15.0715617"><ele>266.0</ele><time>2026-04-25T13:54:25.981Z</time></trkpt><trkpt lat="40.2067667" lon="15.0717117"><ele>266.0</ele><time>2026-04-25T13:54:26.933Z</time></trkpt><trkpt lat="40.206745" lon="15.0718733"><ele>266.0</ele><time>2026-04-25T13:54:27.93Z</time></trkpt><trkpt lat="40.2067233" lon="15.0720483"><ele>268.0</ele><time>2026-04-25T13:54:28.928Z</time></trkpt><trkpt lat="40.206705" lon="15.0722133"><ele>270.0</ele><time>2026-04-25T13:54:29.931Z</time></trkpt><trkpt lat="40.206695" lon="15.0723733"><ele>272.0</ele><time>2026-04-25T13:54:30.933Z</time></trkpt><trkpt lat="40.2066967" lon="15.07252"><ele>274.0</ele><time>2026-04-25T13:54:31.986Z</time></trkpt><trkpt lat="40.206715" lon="15.07266"><ele>274.0</ele><time>2026-04-25T13:54:32.925Z</time></trkpt><trkpt lat="40.2067517" lon="15.0727967"><ele>274.0</ele><time>2026-04-25T13:54:33.933Z</time></trkpt><trkpt lat="40.2067967" lon="15.0729333"><ele>274.0</ele><time>2026-04-25T13:54:34.937Z</time></trkpt><trkpt lat="40.2068433" lon="15.07306"><ele>274.0</ele><time>2026-04-25T13:54:35.932Z</time></trkpt><trkpt lat="40.2068817" lon="15.073175"><ele>274.0</ele><time>2026-04-25T13:54:36.932Z</time></trkpt><trkpt lat="40.2069" lon="15.0732883"><ele>273.0</ele><time>2026-04-25T13:54:37.972Z</time></trkpt><trkpt lat="40.2069067" lon="15.0734017"><ele>272.0</ele><time>2026-04-25T13:54:38.934Z</time></trkpt><trkpt lat="40.2069017" lon="15.073515"><ele>271.0</ele><time>2026-04-25T13:54:39.932Z</time></trkpt><trkpt lat="40.2068783" lon="15.0736233"><ele>270.0</ele><time>2026-04-25T13:54:40.934Z</time></trkpt><trkpt lat="40.206845" lon="15.0737433"><ele>269.0</ele><time>2026-04-25T13:54:41.934Z</time></trkpt><trkpt lat="40.2068067" lon="15.0738667"><ele>269.0</ele><time>2026-04-25T13:54:42.939Z</time></trkpt><trkpt lat="40.2067717" lon="15.073985"><ele>269.0</ele><time>2026-04-25T13:54:43.979Z</time></trkpt><trkpt lat="40.2067367" lon="15.0740933"><ele>269.0</ele><time>2026-04-25T13:54:44.938Z</time></trkpt><trkpt lat="40.2066983" lon="15.07418"><ele>269.0</ele><time>2026-04-25T13:54:45.931Z</time></trkpt><trkpt lat="40.20665" lon="15.07426"><ele>269.0</ele><time>2026-04-25T13:54:46.936Z</time></trkpt><trkpt lat="40.2065883" lon="15.074335"><ele>269.0</ele><time>2026-04-25T13:54:47.934Z</time></trkpt><trkpt lat="40.2065367" lon="15.0744117"><ele>269.5</ele><time>2026-04-25T13:54:48.934Z</time></trkpt><trkpt lat="40.206495" lon="15.0744983"><ele>270.0</ele><time>2026-04-25T13:54:49.972Z</time></trkpt><trkpt lat="40.206475" lon="15.0745983"><ele>270.5</ele><time>2026-04-25T13:54:50.932Z</time></trkpt><trkpt lat="40.2064517" lon="15.0746883"><ele>271.0</ele><time>2026-04-25T13:54:51.939Z</time></trkpt><trkpt lat="40.2063917" lon="15.0747783"><ele>271.5</ele><time>2026-04-25T13:54:53.939Z</time></trkpt><trkpt lat="40.2062967" lon="15.07477"><ele>272.0</ele><time>2026-04-25T13:54:55.986Z</time></trkpt><trkpt lat="40.2062067" lon="15.0747317"><ele>272.0</ele><time>2026-04-25T13:54:56.929Z</time></trkpt><trkpt lat="40.206095" lon="15.0746983"><ele>272.0</ele><time>2026-04-25T13:54:57.928Z</time></trkpt><trkpt lat="40.205985" lon="15.074675"><ele>272.0</ele><time>2026-04-25T13:54:58.927Z</time></trkpt><trkpt lat="40.2058817" lon="15.0746483"><ele>272.0</ele><time>2026-04-25T13:54:59.931Z</time></trkpt><trkpt lat="40.2057867" lon="15.0746117"><ele>272.0</ele><time>2026-04-25T13:55:00.931Z</time></trkpt><trkpt lat="40.2056933" lon="15.0745683"><ele>273.83333333333337</ele><time>2026-04-25T13:55:01.972Z</time></trkpt><trkpt lat="40.2056033" lon="15.07453"><ele>275.6666666666667</ele><time>2026-04-25T13:55:02.929Z</time></trkpt><trkpt lat="40.2055183" lon="15.0745083"><ele>277.5</ele><time>2026-04-25T13:55:03.933Z</time></trkpt><trkpt lat="40.2054433" lon="15.07453"><ele>279.3333333333333</ele><time>2026-04-25T13:55:04.931Z</time></trkpt><trkpt lat="40.2053617" lon="15.074575"><ele>281.16666666666663</ele><time>2026-04-25T13:55:05.934Z</time></trkpt><trkpt lat="40.2052783" lon="15.0746467"><ele>283.0</ele><time>2026-04-25T13:55:06.933Z</time></trkpt><trkpt lat="40.205185" lon="15.074725"><ele>283.0</ele><time>2026-04-25T13:55:07.975Z</time></trkpt><trkpt lat="40.2050933" lon="15.0747967"><ele>283.0</ele><time>2026-04-25T13:55:08.931Z</time></trkpt><trkpt lat="40.2050217" lon="15.074855"><ele>283.0</ele><time>2026-04-25T13:55:09.937Z</time></trkpt><trkpt lat="40.2049583" lon="15.07488"><ele>283.0</ele><time>2026-04-25T13:55:10.934Z</time></trkpt><trkpt lat="40.20489" lon="15.0748233"><ele>283.0</ele><time>2026-04-25T13:55:12.938Z</time></trkpt><trkpt lat="40.2048583" lon="15.0746567"><ele>283.0</ele><time>2026-04-25T13:55:14.927Z</time></trkpt><trkpt lat="40.2048383" lon="15.07454"><ele>283.0</ele><time>2026-04-25T13:55:15.936Z</time></trkpt><trkpt lat="40.2048083" lon="15.074415"><ele>283.0</ele><time>2026-04-25T13:55:16.929Z</time></trkpt><trkpt lat="40.204715" lon="15.074225"><ele>283.0</ele><time>2026-04-25T13:55:17.932Z</time></trkpt><trkpt lat="40.2046367" lon="15.07408"><ele>282.5</ele><time>2026-04-25T13:55:18.931Z</time></trkpt><trkpt lat="40.204555" lon="15.0739533"><ele>282.0</ele><time>2026-04-25T13:55:19.976Z</time></trkpt><trkpt lat="40.2044683" lon="15.0738417"><ele>281.5</ele><time>2026-04-25T13:55:20.932Z</time></trkpt><trkpt lat="40.20438" lon="15.0737533"><ele>281.0</ele><time>2026-04-25T13:55:21.939Z</time></trkpt><trkpt lat="40.2042883" lon="15.0736817"><ele>281.0</ele><time>2026-04-25T13:55:22.933Z</time></trkpt><trkpt lat="40.20421" lon="15.07366"><ele>281.0</ele><time>2026-04-25T13:55:23.938Z</time></trkpt><trkpt lat="40.20414" lon="15.0736617"><ele>281.0</ele><time>2026-04-25T13:55:24.931Z</time></trkpt><trkpt lat="40.2040317" lon="15.0736517"><ele>281.0</ele><time>2026-04-25T13:55:26.926Z</time></trkpt><trkpt lat="40.2039817" lon="15.0737633"><ele>281.0</ele><time>2026-04-25T13:55:36.942Z</time></trkpt><trkpt lat="40.2039183" lon="15.0738967"><ele>283.0</ele><time>2026-04-25T13:55:38.932Z</time></trkpt><trkpt lat="40.2038483" lon="15.07398"><ele>285.0</ele><time>2026-04-25T13:55:40.929Z</time></trkpt><trkpt lat="40.2037633" lon="15.0740067"><ele>287.0</ele><time>2026-04-25T13:55:42.929Z</time></trkpt><trkpt lat="40.2036833" lon="15.0739333"><ele>289.0</ele><time>2026-04-25T13:55:44.932Z</time></trkpt><trkpt lat="40.20364" lon="15.073865"><ele>291.0</ele><time>2026-04-25T13:55:45.93Z</time></trkpt><trkpt lat="40.2036033" lon="15.073795"><ele>293.0</ele><time>2026-04-25T13:55:46.933Z</time></trkpt><trkpt lat="40.2035667" lon="15.0737133"><ele>293.0</ele><time>2026-04-25T13:55:47.934Z</time></trkpt><trkpt lat="40.20352" lon="15.0736267"><ele>293.0</ele><time>2026-04-25T13:55:48.936Z</time></trkpt><trkpt lat="40.203465" lon="15.073545"><ele>293.0</ele><time>2026-04-25T13:55:49.977Z</time></trkpt><trkpt lat="40.203405" lon="15.0734733"><ele>293.0</ele><time>2026-04-25T13:55:50.927Z</time></trkpt><trkpt lat="40.20333" lon="15.0734133"><ele>293.0</ele><time>2026-04-25T13:55:51.932Z</time></trkpt><trkpt lat="40.20324" lon="15.0733683"><ele>293.0</ele><time>2026-04-25T13:55:52.932Z</time></trkpt><trkpt lat="40.2031417" lon="15.0733233"><ele>291.4</ele><time>2026-04-25T13:55:53.935Z</time></trkpt><trkpt lat="40.2030433" lon="15.0732767"><ele>289.8</ele><time>2026-04-25T13:55:54.937Z</time></trkpt><trkpt lat="40.202955" lon="15.07322"><ele>288.2</ele><time>2026-04-25T13:55:55.974Z</time></trkpt><trkpt lat="40.2028733" lon="15.073155"><ele>286.6</ele><time>2026-04-25T13:55:56.928Z</time></trkpt><trkpt lat="40.2028067" lon="15.0730767"><ele>285.0</ele><time>2026-04-25T13:55:57.932Z</time></trkpt><trkpt lat="40.202745" lon="15.0729917"><ele>285.0</ele><time>2026-04-25T13:55:58.928Z</time></trkpt><trkpt lat="40.2026883" lon="15.07291"><ele>285.0</ele><time>2026-04-25T13:55:59.929Z</time></trkpt><trkpt lat="40.2026367" lon="15.0728517"><ele>285.0</ele><time>2026-04-25T13:56:00.927Z</time></trkpt><trkpt lat="40.2025217" lon="15.072815"><ele>285.0</ele><time>2026-04-25T13:56:02.93Z</time></trkpt><trkpt lat="40.202405" lon="15.0728867"><ele>285.0</ele><time>2026-04-25T13:56:04.93Z</time></trkpt><trkpt lat="40.20233" lon="15.07293"><ele>283.8</ele><time>2026-04-25T13:56:05.928Z</time></trkpt><trkpt lat="40.2022433" lon="15.0729633"><ele>282.6</ele><time>2026-04-25T13:56:06.938Z</time></trkpt><trkpt lat="40.2021517" lon="15.0729867"><ele>281.4</ele><time>2026-04-25T13:56:07.984Z</time></trkpt><trkpt lat="40.2020583" lon="15.0729967"><ele>280.2</ele><time>2026-04-25T13:56:08.938Z</time></trkpt><trkpt lat="40.201965" lon="15.07299"><ele>279.0</ele><time>2026-04-25T13:56:09.933Z</time></trkpt><trkpt lat="40.2018733" lon="15.0729867"><ele>279.0</ele><time>2026-04-25T13:56:10.929Z</time></trkpt><trkpt lat="40.2017867" lon="15.072985"><ele>279.0</ele><time>2026-04-25T13:56:11.932Z</time></trkpt><trkpt lat="40.2017067" lon="15.0729867"><ele>279.0</ele><time>2026-04-25T13:56:12.931Z</time></trkpt><trkpt lat="40.2016383" lon="15.07301"><ele>279.0</ele><time>2026-04-25T13:56:13.977Z</time></trkpt><trkpt lat="40.2015683" lon="15.07304"><ele>279.0</ele><time>2026-04-25T13:56:14.928Z</time></trkpt><trkpt lat="40.20149" lon="15.0730983"><ele>279.0</ele><time>2026-04-25T13:56:15.926Z</time></trkpt><trkpt lat="40.2014117" lon="15.0731467"><ele>276.4</ele><time>2026-04-25T13:56:16.93Z</time></trkpt><trkpt lat="40.201325" lon="15.0731883"><ele>273.79999999999995</ele><time>2026-04-25T13:56:17.933Z</time></trkpt><trkpt lat="40.20123" lon="15.073225"><ele>271.20000000000005</ele><time>2026-04-25T13:56:18.935Z</time></trkpt><trkpt lat="40.2011283" lon="15.0732517"><ele>268.6</ele><time>2026-04-25T13:56:19.972Z</time></trkpt><trkpt lat="40.2010217" lon="15.0732783"><ele>266.0</ele><time>2026-04-25T13:56:20.93Z</time></trkpt><trkpt lat="40.200935" lon="15.0733067"><ele>267.0</ele><time>2026-04-25T13:56:21.935Z</time></trkpt><trkpt lat="40.200855" lon="15.0733383"><ele>268.0</ele><time>2026-04-25T13:56:22.927Z</time></trkpt><trkpt lat="40.2007883" lon="15.0733867"><ele>269.0</ele><time>2026-04-25T13:56:23.93Z</time></trkpt><trkpt lat="40.2007283" lon="15.0734483"><ele>270.0</ele><time>2026-04-25T13:56:24.933Z</time></trkpt><trkpt lat="40.20067" lon="15.07353"><ele>271.0</ele><time>2026-04-25T13:56:25.974Z</time></trkpt><trkpt lat="40.200625" lon="15.0736383"><ele>272.0</ele><time>2026-04-25T13:56:26.93Z</time></trkpt><trkpt lat="40.2005883" lon="15.0737617"><ele>272.0</ele><time>2026-04-25T13:56:27.934Z</time></trkpt><trkpt lat="40.2005483" lon="15.0738783"><ele>272.0</ele><time>2026-04-25T13:56:28.931Z</time></trkpt><trkpt lat="40.200495" lon="15.073985"><ele>272.0</ele><time>2026-04-25T13:56:29.932Z</time></trkpt><trkpt lat="40.2004317" lon="15.074095"><ele>272.0</ele><time>2026-04-25T13:56:30.932Z</time></trkpt><trkpt lat="40.200365" lon="15.0742117"><ele>272.0</ele><time>2026-04-25T13:56:31.968Z</time></trkpt><trkpt lat="40.2002933" lon="15.0743333"><ele>276.0</ele><time>2026-04-25T13:56:32.932Z</time></trkpt><trkpt lat="40.20023" lon="15.074455"><ele>280.0</ele><time>2026-04-25T13:56:33.931Z</time></trkpt><trkpt lat="40.2001717" lon="15.0745667"><ele>284.0</ele><time>2026-04-25T13:56:34.928Z</time></trkpt><trkpt lat="40.2001133" lon="15.0746667"><ele>288.0</ele><time>2026-04-25T13:56:35.932Z</time></trkpt><trkpt lat="40.2000217" lon="15.0747033"><ele>292.0</ele><time>2026-04-25T13:56:37.969Z</time></trkpt><trkpt lat="40.1998933" lon="15.07472"><ele>289.6</ele><time>2026-04-25T13:56:39.932Z</time></trkpt><trkpt lat="40.199825" lon="15.074735"><ele>287.2</ele><time>2026-04-25T13:56:40.934Z</time></trkpt><trkpt lat="40.1997583" lon="15.0747683"><ele>284.8</ele><time>2026-04-25T13:56:41.939Z</time></trkpt><trkpt lat="40.19969" lon="15.0748367"><ele>282.4</ele><time>2026-04-25T13:56:42.937Z</time></trkpt><trkpt lat="40.1996133" lon="15.074935"><ele>280.0</ele><time>2026-04-25T13:56:43.974Z</time></trkpt><trkpt lat="40.199535" lon="15.0750517"><ele>280.0</ele><time>2026-04-25T13:56:44.927Z</time></trkpt><trkpt lat="40.1994483" lon="15.0751933"><ele>280.0</ele><time>2026-04-25T13:56:45.932Z</time></trkpt><trkpt lat="40.1993683" lon="15.0753533"><ele>280.0</ele><time>2026-04-25T13:56:46.927Z</time></trkpt><trkpt lat="40.1992983" lon="15.07551"><ele>280.0</ele><time>2026-04-25T13:56:47.936Z</time></trkpt><trkpt lat="40.1992317" lon="15.0756567"><ele>276.0</ele><time>2026-04-25T13:56:48.933Z</time></trkpt><trkpt lat="40.1991617" lon="15.0757917"><ele>272.0</ele><time>2026-04-25T13:56:49.97Z</time></trkpt><trkpt lat="40.199085" lon="15.0759233"><ele>268.0</ele><time>2026-04-25T13:56:50.926Z</time></trkpt><trkpt lat="40.1990033" lon="15.0760617"><ele>264.0</ele><time>2026-04-25T13:56:51.939Z</time></trkpt><trkpt lat="40.1989117" lon="15.0762033"><ele>264.0</ele><time>2026-04-25T13:56:52.938Z</time></trkpt><trkpt lat="40.1988117" lon="15.0763433"><ele>264.0</ele><time>2026-04-25T13:56:53.93Z</time></trkpt><trkpt lat="40.198715" lon="15.07647"><ele>264.0</ele><time>2026-04-25T13:56:54.931Z</time></trkpt><trkpt lat="40.1986317" lon="15.0765733"><ele>264.0</ele><time>2026-04-25T13:56:55.977Z</time></trkpt><trkpt lat="40.1985667" lon="15.07666"><ele>267.1666666666667</ele><time>2026-04-25T13:56:56.927Z</time></trkpt><trkpt lat="40.1985117" lon="15.076725"><ele>270.3333333333333</ele><time>2026-04-25T13:56:57.931Z</time></trkpt><trkpt lat="40.1984633" lon="15.07679"><ele>273.5</ele><time>2026-04-25T13:56:58.931Z</time></trkpt><trkpt lat="40.1984033" lon="15.0768733"><ele>276.66666666666663</ele><time>2026-04-25T13:56:59.929Z</time></trkpt><trkpt lat="40.198335" lon="15.0769717"><ele>279.8333333333333</ele><time>2026-04-25T13:57:00.929Z</time></trkpt><trkpt lat="40.1982633" lon="15.0770867"><ele>283.0</ele><time>2026-04-25T13:57:01.969Z</time></trkpt><trkpt lat="40.1981933" lon="15.07721"><ele>280.0</ele><time>2026-04-25T13:57:02.928Z</time></trkpt><trkpt lat="40.19812" lon="15.0773417"><ele>277.0</ele><time>2026-04-25T13:57:03.934Z</time></trkpt><trkpt lat="40.198045" lon="15.0774617"><ele>274.0</ele><time>2026-04-25T13:57:04.933Z</time></trkpt><trkpt lat="40.1979617" lon="15.0775717"><ele>271.0</ele><time>2026-04-25T13:57:05.935Z</time></trkpt><trkpt lat="40.197875" lon="15.0776783"><ele>271.0</ele><time>2026-04-25T13:57:06.931Z</time></trkpt><trkpt lat="40.197785" lon="15.0777783"><ele>271.0</ele><time>2026-04-25T13:57:07.972Z</time></trkpt><trkpt lat="40.1976833" lon="15.07787"><ele>271.0</ele><time>2026-04-25T13:57:08.93Z</time></trkpt><trkpt lat="40.197575" lon="15.0779533"><ele>271.0</ele><time>2026-04-25T13:57:09.93Z</time></trkpt><trkpt lat="40.1974733" lon="15.0780333"><ele>271.0</ele><time>2026-04-25T13:57:10.929Z</time></trkpt><trkpt lat="40.1973767" lon="15.0781083"><ele>271.0</ele><time>2026-04-25T13:57:11.933Z</time></trkpt><trkpt lat="40.1972983" lon="15.078185"><ele>271.0</ele><time>2026-04-25T13:57:12.928Z</time></trkpt><trkpt lat="40.1972383" lon="15.0782567"><ele>271.0</ele><time>2026-04-25T13:57:13.969Z</time></trkpt><trkpt lat="40.1971833" lon="15.0783217"><ele>271.0</ele><time>2026-04-25T13:57:14.934Z</time></trkpt><trkpt lat="40.1971367" lon="15.0783983"><ele>271.0</ele><time>2026-04-25T13:57:15.941Z</time></trkpt><trkpt lat="40.1970717" lon="15.0784767"><ele>270.40000000000003</ele><time>2026-04-25T13:57:16.928Z</time></trkpt><trkpt lat="40.197" lon="15.0785417"><ele>269.8</ele><time>2026-04-25T13:57:17.929Z</time></trkpt><trkpt lat="40.1969133" lon="15.0786083"><ele>269.20000000000005</ele><time>2026-04-25T13:57:18.932Z</time></trkpt><trkpt lat="40.1968317" lon="15.0786817"><ele>268.6</ele><time>2026-04-25T13:57:19.974Z</time></trkpt><trkpt lat="40.1967467" lon="15.07876"><ele>268.0</ele><time>2026-04-25T13:57:20.93Z</time></trkpt><trkpt lat="40.196655" lon="15.07885"><ele>268.0</ele><time>2026-04-25T13:57:21.926Z</time></trkpt><trkpt lat="40.1965533" lon="15.0789417"><ele>268.0</ele><time>2026-04-25T13:57:22.934Z</time></trkpt><trkpt lat="40.1964383" lon="15.07903"><ele>268.0</ele><time>2026-04-25T13:57:23.928Z</time></trkpt><trkpt lat="40.1963283" lon="15.0791117"><ele>268.0</ele><time>2026-04-25T13:57:24.928Z</time></trkpt><trkpt lat="40.196235" lon="15.0791933"><ele>267.0</ele><time>2026-04-25T13:57:25.991Z</time></trkpt><trkpt lat="40.1961867" lon="15.0792783"><ele>266.0</ele><time>2026-04-25T13:57:26.925Z</time></trkpt><trkpt lat="40.1961633" lon="15.0793683"><ele>265.0</ele><time>2026-04-25T13:57:27.926Z</time></trkpt><trkpt lat="40.1961633" lon="15.07946"><ele>264.0</ele><time>2026-04-25T13:57:28.935Z</time></trkpt><trkpt lat="40.19621" lon="15.07955"><ele>263.0</ele><time>2026-04-25T13:57:29.931Z</time></trkpt><trkpt lat="40.196275" lon="15.079645"><ele>262.0</ele><time>2026-04-25T13:57:30.934Z</time></trkpt><trkpt lat="40.196355" lon="15.0797417"><ele>262.0</ele><time>2026-04-25T13:57:31.972Z</time></trkpt><trkpt lat="40.1964533" lon="15.07984"><ele>262.0</ele><time>2026-04-25T13:57:32.928Z</time></trkpt><trkpt lat="40.1965567" lon="15.0799333"><ele>262.0</ele><time>2026-04-25T13:57:33.932Z</time></trkpt><trkpt lat="40.1966667" lon="15.0800167"><ele>262.0</ele><time>2026-04-25T13:57:34.928Z</time></trkpt><trkpt lat="40.1967867" lon="15.0800967"><ele>266.5</ele><time>2026-04-25T13:57:35.932Z</time></trkpt><trkpt lat="40.196915" lon="15.080175"><ele>271.0</ele><time>2026-04-25T13:57:36.93Z</time></trkpt><trkpt lat="40.1970417" lon="15.0802467"><ele>275.5</ele><time>2026-04-25T13:57:37.971Z</time></trkpt><trkpt lat="40.1971617" lon="15.0803133"><ele>280.0</ele><time>2026-04-25T13:57:38.928Z</time></trkpt><trkpt lat="40.1972667" lon="15.080365"><ele>279.0</ele><time>2026-04-25T13:57:39.929Z</time></trkpt><trkpt lat="40.1973583" lon="15.080425"><ele>278.0</ele><time>2026-04-25T13:57:40.93Z</time></trkpt><trkpt lat="40.1974433" lon="15.0805033"><ele>277.0</ele><time>2026-04-25T13:57:41.933Z</time></trkpt><trkpt lat="40.1975283" lon="15.0805983"><ele>276.0</ele><time>2026-04-25T13:57:42.933Z</time></trkpt><trkpt lat="40.1976133" lon="15.0807267"><ele>275.0</ele><time>2026-04-25T13:57:43.977Z</time></trkpt><trkpt lat="40.1977033" lon="15.080885"><ele>275.0</ele><time>2026-04-25T13:57:44.931Z</time></trkpt><trkpt lat="40.1977967" lon="15.0810433"><ele>275.0</ele><time>2026-04-25T13:57:45.935Z</time></trkpt><trkpt lat="40.1978833" lon="15.0811983"><ele>275.0</ele><time>2026-04-25T13:57:46.931Z</time></trkpt><trkpt lat="40.1979667" lon="15.08134"><ele>275.0</ele><time>2026-04-25T13:57:47.932Z</time></trkpt><trkpt lat="40.1980433" lon="15.0814767"><ele>277.4</ele><time>2026-04-25T13:57:48.93Z</time></trkpt><trkpt lat="40.1981117" lon="15.0816033"><ele>279.8</ele><time>2026-04-25T13:57:49.977Z</time></trkpt><trkpt lat="40.1981733" lon="15.0817283"><ele>282.2</ele><time>2026-04-25T13:57:50.938Z</time></trkpt><trkpt lat="40.198225" lon="15.0818567"><ele>284.6</ele><time>2026-04-25T13:57:51.928Z</time></trkpt><trkpt lat="40.19826" lon="15.0819867"><ele>287.0</ele><time>2026-04-25T13:57:52.934Z</time></trkpt><trkpt lat="40.1982767" lon="15.0821217"><ele>287.0</ele><time>2026-04-25T13:57:53.933Z</time></trkpt><trkpt lat="40.1982783" lon="15.0822683"><ele>287.0</ele><time>2026-04-25T13:57:54.928Z</time></trkpt><trkpt lat="40.19827" lon="15.0824217"><ele>287.0</ele><time>2026-04-25T13:57:55.969Z</time></trkpt><trkpt lat="40.1982633" lon="15.0825667"><ele>287.0</ele><time>2026-04-25T13:57:56.93Z</time></trkpt><trkpt lat="40.1982617" lon="15.0826983"><ele>287.0</ele><time>2026-04-25T13:57:57.933Z</time></trkpt><trkpt lat="40.1982717" lon="15.082815"><ele>284.4</ele><time>2026-04-25T13:57:58.928Z</time></trkpt><trkpt lat="40.198305" lon="15.082915"><ele>281.79999999999995</ele><time>2026-04-25T13:57:59.93Z</time></trkpt><trkpt lat="40.1983633" lon="15.0830167"><ele>279.2</ele><time>2026-04-25T13:58:00.931Z</time></trkpt><trkpt lat="40.1984417" lon="15.0831217"><ele>276.59999999999997</ele><time>2026-04-25T13:58:01.976Z</time></trkpt><trkpt lat="40.1985133" lon="15.0832267"><ele>274.0</ele><time>2026-04-25T13:58:02.928Z</time></trkpt><trkpt lat="40.198565" lon="15.0833267"><ele>272.0</ele><time>2026-04-25T13:58:03.929Z</time></trkpt><trkpt lat="40.19858" lon="15.0834233"><ele>270.0</ele><time>2026-04-25T13:58:04.934Z</time></trkpt><trkpt lat="40.1985867" lon="15.0835317"><ele>268.0</ele><time>2026-04-25T13:58:05.926Z</time></trkpt><trkpt lat="40.198585" lon="15.0836567"><ele>266.0</ele><time>2026-04-25T13:58:06.927Z</time></trkpt><trkpt lat="40.1985933" lon="15.0837917"><ele>264.0</ele><time>2026-04-25T13:58:07.969Z</time></trkpt><trkpt lat="40.19862" lon="15.083925"><ele>264.0</ele><time>2026-04-25T13:58:08.93Z</time></trkpt><trkpt lat="40.198675" lon="15.0840567"><ele>264.0</ele><time>2026-04-25T13:58:09.928Z</time></trkpt><trkpt lat="40.19875" lon="15.0841917"><ele>264.0</ele><time>2026-04-25T13:58:10.933Z</time></trkpt><trkpt lat="40.19884" lon="15.08433"><ele>264.0</ele><time>2026-04-25T13:58:11.931Z</time></trkpt><trkpt lat="40.1989317" lon="15.0844633"><ele>263.25</ele><time>2026-04-25T13:58:12.928Z</time></trkpt><trkpt lat="40.1990317" lon="15.084595"><ele>262.5</ele><time>2026-04-25T13:58:13.968Z</time></trkpt><trkpt lat="40.199135" lon="15.08473"><ele>261.75</ele><time>2026-04-25T13:58:14.929Z</time></trkpt><trkpt lat="40.199245" lon="15.08487"><ele>261.0</ele><time>2026-04-25T13:58:15.934Z</time></trkpt><trkpt lat="40.1993617" lon="15.08501"><ele>261.0</ele><time>2026-04-25T13:58:16.93Z</time></trkpt><trkpt lat="40.1994867" lon="15.0851483"><ele>261.0</ele><time>2026-04-25T13:58:17.935Z</time></trkpt><trkpt lat="40.1996217" lon="15.0852917"><ele>261.0</ele><time>2026-04-25T13:58:18.926Z</time></trkpt><trkpt lat="40.1997617" lon="15.0854333"><ele>261.3333333333333</ele><time>2026-04-25T13:58:19.975Z</time></trkpt><trkpt lat="40.1998933" lon="15.0855617"><ele>261.66666666666663</ele><time>2026-04-25T13:58:20.934Z</time></trkpt><trkpt lat="40.2000117" lon="15.0856817"><ele>262.0</ele><time>2026-04-25T13:58:21.929Z</time></trkpt><trkpt lat="40.2001183" lon="15.0857967"><ele>262.0</ele><time>2026-04-25T13:58:22.932Z</time></trkpt><trkpt lat="40.2002183" lon="15.08591"><ele>262.0</ele><time>2026-04-25T13:58:23.933Z</time></trkpt><trkpt lat="40.2003183" lon="15.086025"><ele>262.0</ele><time>2026-04-25T13:58:24.931Z</time></trkpt><trkpt lat="40.2004183" lon="15.0861317"><ele>262.0</ele><time>2026-04-25T13:58:25.98Z</time></trkpt><trkpt lat="40.200515" lon="15.0862267"><ele>262.0</ele><time>2026-04-25T13:58:26.936Z</time></trkpt><trkpt lat="40.2006117" lon="15.0863133"><ele>262.0</ele><time>2026-04-25T13:58:27.93Z</time></trkpt><trkpt lat="40.2007083" lon="15.086395"><ele>262.0</ele><time>2026-04-25T13:58:28.941Z</time></trkpt><trkpt lat="40.2008083" lon="15.0864667"><ele>262.0</ele><time>2026-04-25T13:58:29.934Z</time></trkpt><trkpt lat="40.2009067" lon="15.0865333"><ele>262.0</ele><time>2026-04-25T13:58:30.936Z</time></trkpt><trkpt lat="40.200995" lon="15.0865867"><ele>262.0</ele><time>2026-04-25T13:58:31.973Z</time></trkpt><trkpt lat="40.2010583" lon="15.08664"><ele>262.0</ele><time>2026-04-25T13:58:32.929Z</time></trkpt><trkpt lat="40.2010983" lon="15.0867533"><ele>262.0</ele><time>2026-04-25T13:58:34.928Z</time></trkpt><trkpt lat="40.201085" lon="15.086915"><ele>262.0</ele><time>2026-04-25T13:58:36.932Z</time></trkpt><trkpt lat="40.2010667" lon="15.0870117"><ele>262.0</ele><time>2026-04-25T13:58:37.978Z</time></trkpt><trkpt lat="40.2010417" lon="15.0871217"><ele>262.0</ele><time>2026-04-25T13:58:38.928Z</time></trkpt><trkpt lat="40.201015" lon="15.0872383"><ele>262.0</ele><time>2026-04-25T13:58:39.93Z</time></trkpt><trkpt lat="40.2009983" lon="15.0873483"><ele>262.0</ele><time>2026-04-25T13:58:40.932Z</time></trkpt><trkpt lat="40.2009883" lon="15.0874533"><ele>262.0</ele><time>2026-04-25T13:58:41.93Z</time></trkpt><trkpt lat="40.2009933" lon="15.087555"><ele>262.0</ele><time>2026-04-25T13:58:42.933Z</time></trkpt><trkpt lat="40.2010067" lon="15.08766"><ele>260.0</ele><time>2026-04-25T13:58:43.971Z</time></trkpt><trkpt lat="40.2010133" lon="15.0877567"><ele>258.0</ele><time>2026-04-25T13:58:44.929Z</time></trkpt><trkpt lat="40.201015" lon="15.0878567"><ele>256.0</ele><time>2026-04-25T13:58:45.931Z</time></trkpt><trkpt lat="40.201005" lon="15.0879617"><ele>254.0</ele><time>2026-04-25T13:58:46.932Z</time></trkpt><trkpt lat="40.20098" lon="15.08808"><ele>251.99999999999997</ele><time>2026-04-25T13:58:47.929Z</time></trkpt><trkpt lat="40.20095" lon="15.0882183"><ele>250.0</ele><time>2026-04-25T13:58:48.93Z</time></trkpt><trkpt lat="40.2009067" lon="15.0883667"><ele>249.2</ele><time>2026-04-25T13:58:49.966Z</time></trkpt><trkpt lat="40.20087" lon="15.0885133"><ele>248.4</ele><time>2026-04-25T13:58:50.928Z</time></trkpt><trkpt lat="40.2008383" lon="15.0886483"><ele>247.60000000000002</ele><time>2026-04-25T13:58:51.928Z</time></trkpt><trkpt lat="40.200825" lon="15.0887567"><ele>246.8</ele><time>2026-04-25T13:58:52.935Z</time></trkpt><trkpt lat="40.20083" lon="15.0888483"><ele>246.0</ele><time>2026-04-25T13:58:53.93Z</time></trkpt><trkpt lat="40.2009083" lon="15.088965"><ele>246.0</ele><time>2026-04-25T13:58:55.972Z</time></trkpt><trkpt lat="40.200985" lon="15.089015"><ele>246.0</ele><time>2026-04-25T13:58:56.932Z</time></trkpt><trkpt lat="40.20108" lon="15.0890583"><ele>246.0</ele><time>2026-04-25T13:58:57.928Z</time></trkpt><trkpt lat="40.2012267" lon="15.0891017"><ele>246.0</ele><time>2026-04-25T13:58:58.935Z</time></trkpt><trkpt lat="40.2013617" lon="15.0891667"><ele>244.5</ele><time>2026-04-25T13:58:59.938Z</time></trkpt><trkpt lat="40.20149" lon="15.0892333"><ele>243.0</ele><time>2026-04-25T13:59:00.931Z</time></trkpt><trkpt lat="40.20161" lon="15.0893067"><ele>241.5</ele><time>2026-04-25T13:59:01.972Z</time></trkpt><trkpt lat="40.2017117" lon="15.089395"><ele>240.0</ele><time>2026-04-25T13:59:02.932Z</time></trkpt><trkpt lat="40.2018017" lon="15.0894817"><ele>242.6</ele><time>2026-04-25T13:59:03.934Z</time></trkpt><trkpt lat="40.201885" lon="15.0895517"><ele>245.2</ele><time>2026-04-25T13:59:04.93Z</time></trkpt><trkpt lat="40.20197" lon="15.0895933"><ele>247.8</ele><time>2026-04-25T13:59:05.936Z</time></trkpt><trkpt lat="40.2020583" lon="15.0896167"><ele>250.4</ele><time>2026-04-25T13:59:06.935Z</time></trkpt><trkpt lat="40.202155" lon="15.089615"><ele>253.0</ele><time>2026-04-25T13:59:07.974Z</time></trkpt><trkpt lat="40.20224" lon="15.0896117"><ele>253.0</ele><time>2026-04-25T13:59:08.932Z</time></trkpt><trkpt lat="40.2023133" lon="15.08963"><ele>253.0</ele><time>2026-04-25T13:59:09.935Z</time></trkpt><trkpt lat="40.2023767" lon="15.0896617"><ele>253.0</ele><time>2026-04-25T13:59:10.929Z</time></trkpt><trkpt lat="40.2024567" lon="15.0897083"><ele>253.0</ele><time>2026-04-25T13:59:12.95Z</time></trkpt><trkpt lat="40.2024417" lon="15.0898917"><ele>253.0</ele><time>2026-04-25T13:59:14.929Z</time></trkpt><trkpt lat="40.20241" lon="15.0900367"><ele>251.25</ele><time>2026-04-25T13:59:15.925Z</time></trkpt><trkpt lat="40.2023717" lon="15.0902167"><ele>249.5</ele><time>2026-04-25T13:59:16.93Z</time></trkpt><trkpt lat="40.2023367" lon="15.0903867"><ele>247.75</ele><time>2026-04-25T13:59:17.927Z</time></trkpt><trkpt lat="40.2023067" lon="15.0905417"><ele>246.0</ele><time>2026-04-25T13:59:18.926Z</time></trkpt><trkpt lat="40.2022783" lon="15.0906917"><ele>236.5</ele><time>2026-04-25T13:59:19.978Z</time></trkpt><trkpt lat="40.20225" lon="15.0908417"><ele>227.0</ele><time>2026-04-25T13:59:20.929Z</time></trkpt><trkpt lat="40.202225" lon="15.0910017"><ele>217.5</ele><time>2026-04-25T13:59:21.937Z</time></trkpt><trkpt lat="40.2021967" lon="15.0911633"><ele>208.0</ele><time>2026-04-25T13:59:22.931Z</time></trkpt><trkpt lat="40.2021683" lon="15.0913217"><ele>208.0</ele><time>2026-04-25T13:59:23.938Z</time></trkpt><trkpt lat="40.2021367" lon="15.0914717"><ele>208.0</ele><time>2026-04-25T13:59:24.927Z</time></trkpt><trkpt lat="40.202105" lon="15.0916133"><ele>208.0</ele><time>2026-04-25T13:59:25.969Z</time></trkpt><trkpt lat="40.2020667" lon="15.0917483"><ele>208.0</ele><time>2026-04-25T13:59:26.93Z</time></trkpt><trkpt lat="40.2020167" lon="15.091875"><ele>208.4</ele><time>2026-04-25T13:59:27.93Z</time></trkpt><trkpt lat="40.201955" lon="15.0919917"><ele>208.8</ele><time>2026-04-25T13:59:28.931Z</time></trkpt><trkpt lat="40.2018817" lon="15.0920983"><ele>209.2</ele><time>2026-04-25T13:59:29.931Z</time></trkpt><trkpt lat="40.2018033" lon="15.0922033"><ele>209.6</ele><time>2026-04-25T13:59:30.933Z</time></trkpt><trkpt lat="40.2017267" lon="15.0923017"><ele>210.0</ele><time>2026-04-25T13:59:31.974Z</time></trkpt><trkpt lat="40.2016667" lon="15.0924"><ele>211.16666666666666</ele><time>2026-04-25T13:59:32.931Z</time></trkpt><trkpt lat="40.20162" lon="15.0924983"><ele>212.33333333333331</ele><time>2026-04-25T13:59:33.941Z</time></trkpt><trkpt lat="40.2016133" lon="15.0925833"><ele>213.5</ele><time>2026-04-25T13:59:34.93Z</time></trkpt><trkpt lat="40.2016633" lon="15.09272"><ele>214.66666666666666</ele><time>2026-04-25T13:59:36.927Z</time></trkpt><trkpt lat="40.2017333" lon="15.0927483"><ele>215.83333333333331</ele><time>2026-04-25T13:59:37.931Z</time></trkpt><trkpt lat="40.201815" lon="15.0927667"><ele>217.0</ele><time>2026-04-25T13:59:38.931Z</time></trkpt><trkpt lat="40.2019183" lon="15.0927717"><ele>217.0</ele><time>2026-04-25T13:59:39.932Z</time></trkpt><trkpt lat="40.2020267" lon="15.0927733"><ele>217.0</ele><time>2026-04-25T13:59:40.929Z</time></trkpt><trkpt lat="40.20213" lon="15.0927883"><ele>217.0</ele><time>2026-04-25T13:59:41.933Z</time></trkpt><trkpt lat="40.20222" lon="15.0928133"><ele>217.0</ele><time>2026-04-25T13:59:42.93Z</time></trkpt><trkpt lat="40.2023" lon="15.092855"><ele>217.0</ele><time>2026-04-25T13:59:43.933Z</time></trkpt><trkpt lat="40.2023633" lon="15.09291"><ele>215.5</ele><time>2026-04-25T13:59:44.934Z</time></trkpt><trkpt lat="40.2023967" lon="15.0930367"><ele>214.0</ele><time>2026-04-25T13:59:45.931Z</time></trkpt><trkpt lat="40.20242" lon="15.093155"><ele>212.5</ele><time>2026-04-25T13:59:46.935Z</time></trkpt><trkpt lat="40.202425" lon="15.0933017"><ele>211.0</ele><time>2026-04-25T13:59:47.929Z</time></trkpt><trkpt lat="40.2024067" lon="15.093495"><ele>211.0</ele><time>2026-04-25T13:59:48.932Z</time></trkpt><trkpt lat="40.2023917" lon="15.0936917"><ele>211.0</ele><time>2026-04-25T13:59:49.925Z</time></trkpt><trkpt lat="40.2023633" lon="15.09391"><ele>211.0</ele><time>2026-04-25T13:59:50.928Z</time></trkpt><trkpt lat="40.2023233" lon="15.0941267"><ele>201.66666666666666</ele><time>2026-04-25T13:59:51.926Z</time></trkpt><trkpt lat="40.2022667" lon="15.0943417"><ele>192.33333333333331</ele><time>2026-04-25T13:59:52.93Z</time></trkpt><trkpt lat="40.2021917" lon="15.0945533"><ele>183.0</ele><time>2026-04-25T13:59:53.929Z</time></trkpt><trkpt lat="40.2021017" lon="15.0947617"><ele>188.0</ele><time>2026-04-25T13:59:54.93Z</time></trkpt><trkpt lat="40.20199" lon="15.0949717"><ele>193.0</ele><time>2026-04-25T13:59:55.985Z</time></trkpt><trkpt lat="40.2018517" lon="15.09518"><ele>198.0</ele><time>2026-04-25T13:59:56.927Z</time></trkpt><trkpt lat="40.201685" lon="15.0953683"><ele>198.0</ele><time>2026-04-25T13:59:57.927Z</time></trkpt><trkpt lat="40.2015183" lon="15.0955467"><ele>198.0</ele><time>2026-04-25T13:59:58.932Z</time></trkpt><trkpt lat="40.2013733" lon="15.09573"><ele>198.0</ele><time>2026-04-25T13:59:59.933Z</time></trkpt><trkpt lat="40.20124" lon="15.095925"><ele>200.66666666666669</ele><time>2026-04-25T14:00:00.93Z</time></trkpt><trkpt lat="40.201125" lon="15.096115"><ele>203.33333333333334</ele><time>2026-04-25T14:00:01.974Z</time></trkpt><trkpt lat="40.2010217" lon="15.09629"><ele>206.0</ele><time>2026-04-25T14:00:02.927Z</time></trkpt><trkpt lat="40.2009367" lon="15.0964467"><ele>206.60000000000002</ele><time>2026-04-25T14:00:03.928Z</time></trkpt><trkpt lat="40.2008717" lon="15.0965917"><ele>207.2</ele><time>2026-04-25T14:00:04.935Z</time></trkpt><trkpt lat="40.20085" lon="15.0967167"><ele>207.8</ele><time>2026-04-25T14:00:05.933Z</time></trkpt><trkpt lat="40.20083" lon="15.09684"><ele>208.39999999999998</ele><time>2026-04-25T14:00:06.936Z</time></trkpt><trkpt lat="40.2007967" lon="15.096955"><ele>209.0</ele><time>2026-04-25T14:00:07.934Z</time></trkpt><trkpt lat="40.20075" lon="15.0970833"><ele>209.0</ele><time>2026-04-25T14:00:08.932Z</time></trkpt><trkpt lat="40.2006917" lon="15.0972117"><ele>209.0</ele><time>2026-04-25T14:00:09.934Z</time></trkpt><trkpt lat="40.2006167" lon="15.0973583"><ele>209.0</ele><time>2026-04-25T14:00:10.93Z</time></trkpt><trkpt lat="40.2004967" lon="15.0975267"><ele>209.0</ele><time>2026-04-25T14:00:11.931Z</time></trkpt><trkpt lat="40.2003833" lon="15.0976833"><ele>207.33333333333334</ele><time>2026-04-25T14:00:12.93Z</time></trkpt><trkpt lat="40.20027" lon="15.0978333"><ele>205.66666666666669</ele><time>2026-04-25T14:00:13.93Z</time></trkpt><trkpt lat="40.20015" lon="15.0979683"><ele>204.0</ele><time>2026-04-25T14:00:14.931Z</time></trkpt><trkpt lat="40.200015" lon="15.0980833"><ele>204.0</ele><time>2026-04-25T14:00:15.927Z</time></trkpt><trkpt lat="40.1998733" lon="15.0982017"><ele>204.0</ele><time>2026-04-25T14:00:16.928Z</time></trkpt><trkpt lat="40.1997183" lon="15.0983133"><ele>204.0</ele><time>2026-04-25T14:00:17.929Z</time></trkpt><trkpt lat="40.1995533" lon="15.098425"><ele>202.33333333333331</ele><time>2026-04-25T14:00:18.93Z</time></trkpt><trkpt lat="40.1993867" lon="15.0985333"><ele>200.66666666666666</ele><time>2026-04-25T14:00:19.933Z</time></trkpt><trkpt lat="40.1992183" lon="15.09864"><ele>199.0</ele><time>2026-04-25T14:00:20.929Z</time></trkpt><trkpt lat="40.19905" lon="15.098735"><ele>194.66666666666666</ele><time>2026-04-25T14:00:21.93Z</time></trkpt><trkpt lat="40.198885" lon="15.0988283"><ele>190.33333333333331</ele><time>2026-04-25T14:00:22.927Z</time></trkpt><trkpt lat="40.1987183" lon="15.0989183"><ele>186.0</ele><time>2026-04-25T14:00:23.936Z</time></trkpt><trkpt lat="40.1985517" lon="15.0990167"><ele>186.66666666666666</ele><time>2026-04-25T14:00:24.934Z</time></trkpt><trkpt lat="40.1984" lon="15.0991417"><ele>187.33333333333331</ele><time>2026-04-25T14:00:25.988Z</time></trkpt><trkpt lat="40.1982417" lon="15.0992767"><ele>188.0</ele><time>2026-04-25T14:00:26.928Z</time></trkpt><trkpt lat="40.19808" lon="15.0994167"><ele>188.0</ele><time>2026-04-25T14:00:27.931Z</time></trkpt><trkpt lat="40.19792" lon="15.0995567"><ele>188.0</ele><time>2026-04-25T14:00:28.929Z</time></trkpt><trkpt lat="40.1977567" lon="15.0996933"><ele>188.0</ele><time>2026-04-25T14:00:29.926Z</time></trkpt><trkpt lat="40.1975867" lon="15.0998267"><ele>191.0</ele><time>2026-04-25T14:00:30.927Z</time></trkpt><trkpt lat="40.1974117" lon="15.0999583"><ele>194.0</ele><time>2026-04-25T14:00:31.976Z</time></trkpt><trkpt lat="40.1972333" lon="15.1000867"><ele>197.0</ele><time>2026-04-25T14:00:32.929Z</time></trkpt><trkpt lat="40.1970567" lon="15.1002167"><ele>198.33333333333334</ele><time>2026-04-25T14:00:33.924Z</time></trkpt><trkpt lat="40.196885" lon="15.1003433"><ele>199.66666666666669</ele><time>2026-04-25T14:00:34.932Z</time></trkpt><trkpt lat="40.1967267" lon="15.1004633"><ele>201.0</ele><time>2026-04-25T14:00:35.933Z</time></trkpt><trkpt lat="40.1965867" lon="15.10057"><ele>201.0</ele><time>2026-04-25T14:00:36.928Z</time></trkpt><trkpt lat="40.1965083" lon="15.1006317"><ele>201.0</ele><time>2026-04-25T14:00:37.933Z</time></trkpt><trkpt lat="40.1964467" lon="15.10069"><ele>201.0</ele><time>2026-04-25T14:00:38.931Z</time></trkpt><trkpt lat="40.1963833" lon="15.1007517"><ele>201.0</ele><time>2026-04-25T14:00:39.934Z</time></trkpt><trkpt lat="40.1963067" lon="15.1008183"><ele>201.0</ele><time>2026-04-25T14:00:40.93Z</time></trkpt><trkpt lat="40.1962167" lon="15.10089"><ele>201.0</ele><time>2026-04-25T14:00:41.927Z</time></trkpt><trkpt lat="40.1961117" lon="15.1009783"><ele>204.5</ele><time>2026-04-25T14:00:42.926Z</time></trkpt><trkpt lat="40.1960033" lon="15.10108"><ele>208.0</ele><time>2026-04-25T14:00:43.932Z</time></trkpt><trkpt lat="40.1958917" lon="15.101205"><ele>211.5</ele><time>2026-04-25T14:00:44.935Z</time></trkpt><trkpt lat="40.1957733" lon="15.101345"><ele>215.0</ele><time>2026-04-25T14:00:45.94Z</time></trkpt><trkpt lat="40.1956533" lon="15.1014883"><ele>220.0</ele><time>2026-04-25T14:00:46.923Z</time></trkpt><trkpt lat="40.1955467" lon="15.1016267"><ele>225.0</ele><time>2026-04-25T14:00:47.935Z</time></trkpt><trkpt lat="40.19546" lon="15.1017683"><ele>230.0</ele><time>2026-04-25T14:00:48.93Z</time></trkpt><trkpt lat="40.1953867" lon="15.1019167"><ele>235.0</ele><time>2026-04-25T14:00:49.929Z</time></trkpt><trkpt lat="40.1953217" lon="15.1020667"><ele>235.0</ele><time>2026-04-25T14:00:50.931Z</time></trkpt><trkpt lat="40.195265" lon="15.102205"><ele>235.0</ele><time>2026-04-25T14:00:51.931Z</time></trkpt><trkpt lat="40.1952183" lon="15.1023183"><ele>235.0</ele><time>2026-04-25T14:00:52.929Z</time></trkpt><trkpt lat="40.1951717" lon="15.1024083"><ele>235.0</ele><time>2026-04-25T14:00:53.927Z</time></trkpt><trkpt lat="40.195125" lon="15.1024967"><ele>235.0</ele><time>2026-04-25T14:00:54.932Z</time></trkpt><trkpt lat="40.1950833" lon="15.102595"><ele>237.2</ele><time>2026-04-25T14:00:55.967Z</time></trkpt><trkpt lat="40.19504" lon="15.102705"><ele>239.4</ele><time>2026-04-25T14:00:56.928Z</time></trkpt><trkpt lat="40.1949933" lon="15.1028283"><ele>241.60000000000002</ele><time>2026-04-25T14:00:57.936Z</time></trkpt><trkpt lat="40.19495" lon="15.1029517"><ele>243.8</ele><time>2026-04-25T14:00:58.928Z</time></trkpt><trkpt lat="40.1949017" lon="15.10307"><ele>246.0</ele><time>2026-04-25T14:00:59.931Z</time></trkpt><trkpt lat="40.1948517" lon="15.10319"><ele>247.60000000000002</ele><time>2026-04-25T14:01:00.934Z</time></trkpt><trkpt lat="40.1948017" lon="15.10332"><ele>249.20000000000002</ele><time>2026-04-25T14:01:01.968Z</time></trkpt><trkpt lat="40.1947533" lon="15.103455"><ele>250.79999999999998</ele><time>2026-04-25T14:01:02.928Z</time></trkpt><trkpt lat="40.19472" lon="15.103585"><ele>252.39999999999998</ele><time>2026-04-25T14:01:03.933Z</time></trkpt><trkpt lat="40.1946967" lon="15.103705"><ele>254.0</ele><time>2026-04-25T14:01:04.931Z</time></trkpt><trkpt lat="40.1946883" lon="15.1038233"><ele>254.0</ele><time>2026-04-25T14:01:05.936Z</time></trkpt><trkpt lat="40.194695" lon="15.1039483"><ele>253.99999999999997</ele><time>2026-04-25T14:01:06.929Z</time></trkpt><trkpt lat="40.1947133" lon="15.1040867"><ele>253.99999999999997</ele><time>2026-04-25T14:01:07.935Z</time></trkpt><trkpt lat="40.1947433" lon="15.104225"><ele>254.0</ele><time>2026-04-25T14:01:08.93Z</time></trkpt><trkpt lat="40.194785" lon="15.1043533"><ele>254.0</ele><time>2026-04-25T14:01:09.93Z</time></trkpt><trkpt lat="40.1948183" lon="15.1044833"><ele>253.79999999999998</ele><time>2026-04-25T14:01:10.935Z</time></trkpt><trkpt lat="40.1948433" lon="15.104615"><ele>253.59999999999997</ele><time>2026-04-25T14:01:11.931Z</time></trkpt><trkpt lat="40.1948583" lon="15.1047567"><ele>253.4</ele><time>2026-04-25T14:01:12.927Z</time></trkpt><trkpt lat="40.194855" lon="15.1048917"><ele>253.2</ele><time>2026-04-25T14:01:13.935Z</time></trkpt><trkpt lat="40.1947817" lon="15.1050167"><ele>253.0</ele><time>2026-04-25T14:01:14.933Z</time></trkpt><trkpt lat="40.1947167" lon="15.1051467"><ele>252.60000000000002</ele><time>2026-04-25T14:01:15.932Z</time></trkpt><trkpt lat="40.1946483" lon="15.1052617"><ele>252.20000000000002</ele><time>2026-04-25T14:01:16.924Z</time></trkpt><trkpt lat="40.1945783" lon="15.105365"><ele>251.8</ele><time>2026-04-25T14:01:17.928Z</time></trkpt><trkpt lat="40.1945017" lon="15.1054567"><ele>251.4</ele><time>2026-04-25T14:01:18.926Z</time></trkpt><trkpt lat="40.1944317" lon="15.105555"><ele>251.0</ele><time>2026-04-25T14:01:19.937Z</time></trkpt><trkpt lat="40.194365" lon="15.1056717"><ele>249.8</ele><time>2026-04-25T14:01:20.934Z</time></trkpt><trkpt lat="40.19431" lon="15.105785"><ele>248.60000000000002</ele><time>2026-04-25T14:01:21.929Z</time></trkpt><trkpt lat="40.1942517" lon="15.1059017"><ele>247.4</ele><time>2026-04-25T14:01:22.927Z</time></trkpt><trkpt lat="40.194185" lon="15.1060167"><ele>246.2</ele><time>2026-04-25T14:01:23.932Z</time></trkpt><trkpt lat="40.1941067" lon="15.10612"><ele>245.0</ele><time>2026-04-25T14:01:24.929Z</time></trkpt><trkpt lat="40.1940167" lon="15.1062067"><ele>243.0</ele><time>2026-04-25T14:01:25.992Z</time></trkpt><trkpt lat="40.19392" lon="15.1063"><ele>241.0</ele><time>2026-04-25T14:01:26.926Z</time></trkpt><trkpt lat="40.19382" lon="15.106415"><ele>239.0</ele><time>2026-04-25T14:01:27.932Z</time></trkpt><trkpt lat="40.19373" lon="15.106545"><ele>237.0</ele><time>2026-04-25T14:01:28.929Z</time></trkpt><trkpt lat="40.1936467" lon="15.1066767"><ele>237.0</ele><time>2026-04-25T14:01:29.927Z</time></trkpt><trkpt lat="40.1935617" lon="15.1067917"><ele>237.0</ele><time>2026-04-25T14:01:30.937Z</time></trkpt><trkpt lat="40.1934833" lon="15.1069"><ele>237.0</ele><time>2026-04-25T14:01:31.971Z</time></trkpt><trkpt lat="40.1934033" lon="15.1070033"><ele>237.0</ele><time>2026-04-25T14:01:32.928Z</time></trkpt><trkpt lat="40.193325" lon="15.1071083"><ele>237.0</ele><time>2026-04-25T14:01:33.93Z</time></trkpt><trkpt lat="40.1932533" lon="15.107215"><ele>237.0</ele><time>2026-04-25T14:01:34.927Z</time></trkpt><trkpt lat="40.193185" lon="15.107325"><ele>237.0</ele><time>2026-04-25T14:01:35.929Z</time></trkpt><trkpt lat="40.19311" lon="15.1074367"><ele>237.0</ele><time>2026-04-25T14:01:36.925Z</time></trkpt><trkpt lat="40.1930367" lon="15.1075483"><ele>237.0</ele><time>2026-04-25T14:01:37.934Z</time></trkpt><trkpt lat="40.1929683" lon="15.107665"><ele>232.5</ele><time>2026-04-25T14:01:38.93Z</time></trkpt><trkpt lat="40.1929" lon="15.1077783"><ele>228.0</ele><time>2026-04-25T14:01:39.93Z</time></trkpt><trkpt lat="40.1928267" lon="15.1078883"><ele>223.5</ele><time>2026-04-25T14:01:40.929Z</time></trkpt><trkpt lat="40.1927583" lon="15.1080083"><ele>219.0</ele><time>2026-04-25T14:01:41.929Z</time></trkpt><trkpt lat="40.192695" lon="15.1081333"><ele>219.2</ele><time>2026-04-25T14:01:42.928Z</time></trkpt><trkpt lat="40.1926367" lon="15.108255"><ele>219.39999999999998</ele><time>2026-04-25T14:01:43.925Z</time></trkpt><trkpt lat="40.192585" lon="15.1083683"><ele>219.6</ele><time>2026-04-25T14:01:44.927Z</time></trkpt><trkpt lat="40.1925467" lon="15.1084767"><ele>219.8</ele><time>2026-04-25T14:01:45.931Z</time></trkpt><trkpt lat="40.19252" lon="15.108585"><ele>220.0</ele><time>2026-04-25T14:01:46.93Z</time></trkpt><trkpt lat="40.1924983" lon="15.1086833"><ele>219.99999999999997</ele><time>2026-04-25T14:01:47.927Z</time></trkpt><trkpt lat="40.1924867" lon="15.10878"><ele>220.0</ele><time>2026-04-25T14:01:48.928Z</time></trkpt><trkpt lat="40.192485" lon="15.1088817"><ele>220.0</ele><time>2026-04-25T14:01:49.933Z</time></trkpt><trkpt lat="40.1924733" lon="15.1089883"><ele>220.0</ele><time>2026-04-25T14:01:50.932Z</time></trkpt><trkpt lat="40.1924533" lon="15.1091017"><ele>219.99999999999997</ele><time>2026-04-25T14:01:51.927Z</time></trkpt><trkpt lat="40.19243" lon="15.109225"><ele>220.0</ele><time>2026-04-25T14:01:52.929Z</time></trkpt><trkpt lat="40.1924017" lon="15.1093417"><ele>218.6</ele><time>2026-04-25T14:01:53.932Z</time></trkpt><trkpt lat="40.1923833" lon="15.1094517"><ele>217.2</ele><time>2026-04-25T14:01:54.928Z</time></trkpt><trkpt lat="40.1923667" lon="15.1095533"><ele>215.8</ele><time>2026-04-25T14:01:55.992Z</time></trkpt><trkpt lat="40.1923583" lon="15.1096667"><ele>214.4</ele><time>2026-04-25T14:01:56.923Z</time></trkpt><trkpt lat="40.192355" lon="15.1097917"><ele>213.0</ele><time>2026-04-25T14:01:57.931Z</time></trkpt><trkpt lat="40.192355" lon="15.10994"><ele>209.2</ele><time>2026-04-25T14:01:58.933Z</time></trkpt><trkpt lat="40.1923533" lon="15.110085"><ele>205.4</ele><time>2026-04-25T14:01:59.928Z</time></trkpt><trkpt lat="40.1923533" lon="15.11021"><ele>201.6</ele><time>2026-04-25T14:02:00.929Z</time></trkpt><trkpt lat="40.1923517" lon="15.1103117"><ele>197.79999999999998</ele><time>2026-04-25T14:02:01.975Z</time></trkpt><trkpt lat="40.1924067" lon="15.1104017"><ele>194.0</ele><time>2026-04-25T14:02:03.929Z</time></trkpt><trkpt lat="40.1925217" lon="15.1103367"><ele>194.0</ele><time>2026-04-25T14:02:05.934Z</time></trkpt><trkpt lat="40.192595" lon="15.1102417"><ele>194.0</ele><time>2026-04-25T14:02:06.924Z</time></trkpt><trkpt lat="40.192675" lon="15.1101267"><ele>194.0</ele><time>2026-04-25T14:02:07.927Z</time></trkpt><trkpt lat="40.1927667" lon="15.1099967"><ele>194.0</ele><time>2026-04-25T14:02:08.93Z</time></trkpt><trkpt lat="40.1928483" lon="15.1098833"><ele>195.0</ele><time>2026-04-25T14:02:09.925Z</time></trkpt><trkpt lat="40.1929317" lon="15.1097933"><ele>196.0</ele><time>2026-04-25T14:02:10.93Z</time></trkpt><trkpt lat="40.193045" lon="15.10976"><ele>197.0</ele><time>2026-04-25T14:02:11.933Z</time></trkpt><trkpt lat="40.19317" lon="15.1097383"><ele>198.0</ele><time>2026-04-25T14:02:12.926Z</time></trkpt><trkpt lat="40.1933167" lon="15.1097233"><ele>198.0</ele><time>2026-04-25T14:02:13.931Z</time></trkpt><trkpt lat="40.19348" lon="15.109715"><ele>198.0</ele><time>2026-04-25T14:02:14.928Z</time></trkpt><trkpt lat="40.1936433" lon="15.1097083"><ele>198.0</ele><time>2026-04-25T14:02:15.932Z</time></trkpt><trkpt lat="40.193795" lon="15.1096983"><ele>198.0</ele><time>2026-04-25T14:02:16.932Z</time></trkpt><trkpt lat="40.1939367" lon="15.1096767"><ele>198.0</ele><time>2026-04-25T14:02:17.929Z</time></trkpt><trkpt lat="40.1940717" lon="15.10964"><ele>198.0</ele><time>2026-04-25T14:02:18.933Z</time></trkpt><trkpt lat="40.1941983" lon="15.1095933"><ele>198.0</ele><time>2026-04-25T14:02:19.929Z</time></trkpt><trkpt lat="40.1943167" lon="15.109555"><ele>195.4</ele><time>2026-04-25T14:02:20.934Z</time></trkpt><trkpt lat="40.1944317" lon="15.109545"><ele>192.8</ele><time>2026-04-25T14:02:21.926Z</time></trkpt><trkpt lat="40.19454" lon="15.1095617"><ele>190.2</ele><time>2026-04-25T14:02:22.94Z</time></trkpt><trkpt lat="40.1946467" lon="15.1096117"><ele>187.6</ele><time>2026-04-25T14:02:23.934Z</time></trkpt><trkpt lat="40.1947333" lon="15.1096933"><ele>185.0</ele><time>2026-04-25T14:02:24.939Z</time></trkpt><trkpt lat="40.1948" lon="15.1098"><ele>180.25</ele><time>2026-04-25T14:02:25.987Z</time></trkpt><trkpt lat="40.194865" lon="15.1099217"><ele>175.5</ele><time>2026-04-25T14:02:26.928Z</time></trkpt><trkpt lat="40.1949317" lon="15.110045"><ele>170.75</ele><time>2026-04-25T14:02:27.93Z</time></trkpt><trkpt lat="40.1950083" lon="15.11016"><ele>166.0</ele><time>2026-04-25T14:02:28.93Z</time></trkpt><trkpt lat="40.195095" lon="15.1102567"><ele>166.0</ele><time>2026-04-25T14:02:29.93Z</time></trkpt><trkpt lat="40.1951883" lon="15.1103233"><ele>166.0</ele><time>2026-04-25T14:02:30.936Z</time></trkpt><trkpt lat="40.195295" lon="15.1103667"><ele>166.0</ele><time>2026-04-25T14:02:31.968Z</time></trkpt><trkpt lat="40.1954133" lon="15.110395"><ele>166.0</ele><time>2026-04-25T14:02:32.927Z</time></trkpt><trkpt lat="40.19552" lon="15.1104267"><ele>166.0</ele><time>2026-04-25T14:02:33.929Z</time></trkpt><trkpt lat="40.19561" lon="15.110475"><ele>166.8</ele><time>2026-04-25T14:02:34.929Z</time></trkpt><trkpt lat="40.1956883" lon="15.1105467"><ele>167.60000000000002</ele><time>2026-04-25T14:02:35.936Z</time></trkpt><trkpt lat="40.1957567" lon="15.1106367"><ele>168.4</ele><time>2026-04-25T14:02:36.933Z</time></trkpt><trkpt lat="40.195825" lon="15.1107517"><ele>169.2</ele><time>2026-04-25T14:02:37.933Z</time></trkpt><trkpt lat="40.1958967" lon="15.1108967"><ele>170.0</ele><time>2026-04-25T14:02:38.926Z</time></trkpt><trkpt lat="40.1959867" lon="15.1110517"><ele>165.75</ele><time>2026-04-25T14:02:39.932Z</time></trkpt><trkpt lat="40.1960783" lon="15.1111883"><ele>161.5</ele><time>2026-04-25T14:02:40.926Z</time></trkpt><trkpt lat="40.1961683" lon="15.1112917"><ele>157.25</ele><time>2026-04-25T14:02:41.935Z</time></trkpt><trkpt lat="40.1962817" lon="15.1113283"><ele>153.0</ele><time>2026-04-25T14:02:42.936Z</time></trkpt><trkpt lat="40.1963883" lon="15.111345"><ele>153.0</ele><time>2026-04-25T14:02:43.934Z</time></trkpt><trkpt lat="40.19649" lon="15.111345"><ele>153.0</ele><time>2026-04-25T14:02:44.929Z</time></trkpt><trkpt lat="40.1965833" lon="15.1113167"><ele>153.0</ele><time>2026-04-25T14:02:45.932Z</time></trkpt><trkpt lat="40.1966567" lon="15.1112367"><ele>153.0</ele><time>2026-04-25T14:02:46.932Z</time></trkpt><trkpt lat="40.19673" lon="15.1111317"><ele>153.0</ele><time>2026-04-25T14:02:47.93Z</time></trkpt><trkpt lat="40.1967767" lon="15.1109867"><ele>154.0</ele><time>2026-04-25T14:02:48.928Z</time></trkpt><trkpt lat="40.1968233" lon="15.11085"><ele>155.0</ele><time>2026-04-25T14:02:49.929Z</time></trkpt><trkpt lat="40.196875" lon="15.1107283"><ele>156.0</ele><time>2026-04-25T14:02:50.925Z</time></trkpt><trkpt lat="40.1969417" lon="15.110625"><ele>157.0</ele><time>2026-04-25T14:02:51.928Z</time></trkpt><trkpt lat="40.19702" lon="15.1105433"><ele>158.0</ele><time>2026-04-25T14:02:52.933Z</time></trkpt><trkpt lat="40.1971317" lon="15.110495"><ele>158.0</ele><time>2026-04-25T14:02:53.934Z</time></trkpt><trkpt lat="40.1972517" lon="15.1104417"><ele>158.0</ele><time>2026-04-25T14:02:54.929Z</time></trkpt><trkpt lat="40.197365" lon="15.1103867"><ele>158.0</ele><time>2026-04-25T14:02:55.985Z</time></trkpt><trkpt lat="40.1974767" lon="15.1103533"><ele>158.0</ele><time>2026-04-25T14:02:56.926Z</time></trkpt><trkpt lat="40.197585" lon="15.1103317"><ele>154.75</ele><time>2026-04-25T14:02:57.931Z</time></trkpt><trkpt lat="40.1976933" lon="15.1103317"><ele>151.5</ele><time>2026-04-25T14:02:58.927Z</time></trkpt><trkpt lat="40.1978233" lon="15.1103633"><ele>148.25</ele><time>2026-04-25T14:02:59.929Z</time></trkpt><trkpt lat="40.1979683" lon="15.1104117"><ele>145.0</ele><time>2026-04-25T14:03:00.929Z</time></trkpt><trkpt lat="40.19811" lon="15.1104617"><ele>142.0</ele><time>2026-04-25T14:03:01.977Z</time></trkpt><trkpt lat="40.1982433" lon="15.11051"><ele>139.0</ele><time>2026-04-25T14:03:02.927Z</time></trkpt><trkpt lat="40.198365" lon="15.110565"><ele>136.0</ele><time>2026-04-25T14:03:03.931Z</time></trkpt><trkpt lat="40.1984767" lon="15.110645"><ele>133.0</ele><time>2026-04-25T14:03:04.935Z</time></trkpt><trkpt lat="40.1985867" lon="15.1107333"><ele>133.0</ele><time>2026-04-25T14:03:05.932Z</time></trkpt><trkpt lat="40.1986833" lon="15.1108017"><ele>133.0</ele><time>2026-04-25T14:03:06.931Z</time></trkpt><trkpt lat="40.1987667" lon="15.11084"><ele>133.0</ele><time>2026-04-25T14:03:07.93Z</time></trkpt><trkpt lat="40.198835" lon="15.1108483"><ele>133.0</ele><time>2026-04-25T14:03:08.93Z</time></trkpt><trkpt lat="40.19885" lon="15.1105617"><ele>133.0</ele><time>2026-04-25T14:03:10.928Z</time></trkpt><trkpt lat="40.1988683" lon="15.1103983"><ele>133.0</ele><time>2026-04-25T14:03:11.935Z</time></trkpt><trkpt lat="40.1988867" lon="15.1102217"><ele>133.0</ele><time>2026-04-25T14:03:12.935Z</time></trkpt><trkpt lat="40.1989017" lon="15.110045"><ele>133.0</ele><time>2026-04-25T14:03:13.937Z</time></trkpt><trkpt lat="40.1989067" lon="15.1098767"><ele>132.0</ele><time>2026-04-25T14:03:14.931Z</time></trkpt><trkpt lat="40.1988767" lon="15.1097417"><ele>131.0</ele><time>2026-04-25T14:03:15.928Z</time></trkpt><trkpt lat="40.19881" lon="15.1096133"><ele>130.0</ele><time>2026-04-25T14:03:16.932Z</time></trkpt><trkpt lat="40.1987333" lon="15.1094833"><ele>129.0</ele><time>2026-04-25T14:03:17.931Z</time></trkpt><trkpt lat="40.19866" lon="15.109355"><ele>129.0</ele><time>2026-04-25T14:03:18.935Z</time></trkpt><trkpt lat="40.1985967" lon="15.10924"><ele>129.0</ele><time>2026-04-25T14:03:19.931Z</time></trkpt><trkpt lat="40.1986033" lon="15.109145"><ele>129.0</ele><time>2026-04-25T14:03:20.93Z</time></trkpt><trkpt lat="40.1986317" lon="15.10904"><ele>129.0</ele><time>2026-04-25T14:03:21.932Z</time></trkpt><trkpt lat="40.198655" lon="15.108935"><ele>129.0</ele><time>2026-04-25T14:03:22.931Z</time></trkpt><trkpt lat="40.198675" lon="15.1088217"><ele>129.0</ele><time>2026-04-25T14:03:23.931Z</time></trkpt><trkpt lat="40.19869" lon="15.10869"><ele>127.5</ele><time>2026-04-25T14:03:24.928Z</time></trkpt><trkpt lat="40.1986867" lon="15.1085333"><ele>126.0</ele><time>2026-04-25T14:03:25.96Z</time></trkpt><trkpt lat="40.1986717" lon="15.1083417"><ele>124.5</ele><time>2026-04-25T14:03:26.93Z</time></trkpt><trkpt lat="40.1986483" lon="15.1081417"><ele>123.0</ele><time>2026-04-25T14:03:27.935Z</time></trkpt><trkpt lat="40.1986267" lon="15.1079683"><ele>122.60000000000001</ele><time>2026-04-25T14:03:28.933Z</time></trkpt><trkpt lat="40.1986417" lon="15.1078067"><ele>122.20000000000002</ele><time>2026-04-25T14:03:29.935Z</time></trkpt><trkpt lat="40.1986633" lon="15.1076683"><ele>121.8</ele><time>2026-04-25T14:03:30.929Z</time></trkpt><trkpt lat="40.1986917" lon="15.1075517"><ele>121.4</ele><time>2026-04-25T14:03:31.97Z</time></trkpt><trkpt lat="40.1987233" lon="15.1074617"><ele>121.0</ele><time>2026-04-25T14:03:32.928Z</time></trkpt><trkpt lat="40.198825" lon="15.10742"><ele>121.0</ele><time>2026-04-25T14:03:34.928Z</time></trkpt><trkpt lat="40.1988933" lon="15.107415"><ele>121.0</ele><time>2026-04-25T14:03:35.938Z</time></trkpt><trkpt lat="40.19899" lon="15.107435"><ele>121.0</ele><time>2026-04-25T14:03:36.935Z</time></trkpt><trkpt lat="40.199105" lon="15.1074417"><ele>121.0</ele><time>2026-04-25T14:03:37.937Z</time></trkpt><trkpt lat="40.199235" lon="15.1074167"><ele>121.0</ele><time>2026-04-25T14:03:38.93Z</time></trkpt><trkpt lat="40.19937" lon="15.107365"><ele>121.25</ele><time>2026-04-25T14:03:39.933Z</time></trkpt><trkpt lat="40.19951" lon="15.107295"><ele>121.5</ele><time>2026-04-25T14:03:40.929Z</time></trkpt><trkpt lat="40.1996167" lon="15.1072117"><ele>121.75</ele><time>2026-04-25T14:03:41.931Z</time></trkpt><trkpt lat="40.1997183" lon="15.1071167"><ele>122.0</ele><time>2026-04-25T14:03:42.933Z</time></trkpt><trkpt lat="40.1998067" lon="15.1070067"><ele>121.0</ele><time>2026-04-25T14:03:43.933Z</time></trkpt><trkpt lat="40.199885" lon="15.10689"><ele>120.0</ele><time>2026-04-25T14:03:44.927Z</time></trkpt><trkpt lat="40.1999467" lon="15.1067517"><ele>119.0</ele><time>2026-04-25T14:03:45.929Z</time></trkpt><trkpt lat="40.200005" lon="15.1066133"><ele>118.0</ele><time>2026-04-25T14:03:46.932Z</time></trkpt><trkpt lat="40.20003" lon="15.1064233"><ele>118.0</ele><time>2026-04-25T14:03:47.935Z</time></trkpt><trkpt lat="40.2000583" lon="15.106225"><ele>118.0</ele><time>2026-04-25T14:03:48.924Z</time></trkpt><trkpt lat="40.2000767" lon="15.106025"><ele>118.0</ele><time>2026-04-25T14:03:49.932Z</time></trkpt><trkpt lat="40.200095" lon="15.10583"><ele>118.25</ele><time>2026-04-25T14:03:50.93Z</time></trkpt><trkpt lat="40.2001067" lon="15.1056333"><ele>118.5</ele><time>2026-04-25T14:03:51.934Z</time></trkpt><trkpt lat="40.2001083" lon="15.10544"><ele>118.75</ele><time>2026-04-25T14:03:52.931Z</time></trkpt><trkpt lat="40.2001083" lon="15.1052567"><ele>119.0</ele><time>2026-04-25T14:03:53.93Z</time></trkpt><trkpt lat="40.2001217" lon="15.1050983"><ele>119.0</ele><time>2026-04-25T14:03:54.933Z</time></trkpt><trkpt lat="40.20016" lon="15.1049983"><ele>119.0</ele><time>2026-04-25T14:03:55.982Z</time></trkpt><trkpt lat="40.20021" lon="15.1049417"><ele>119.0</ele><time>2026-04-25T14:03:56.929Z</time></trkpt><trkpt lat="40.2003" lon="15.1049267"><ele>119.0</ele><time>2026-04-25T14:03:57.941Z</time></trkpt><trkpt lat="40.2004017" lon="15.10492"><ele>119.0</ele><time>2026-04-25T14:03:58.935Z</time></trkpt><trkpt lat="40.200515" lon="15.10492"><ele>119.0</ele><time>2026-04-25T14:03:59.939Z</time></trkpt><trkpt lat="40.2006483" lon="15.1049367"><ele>119.0</ele><time>2026-04-25T14:04:00.931Z</time></trkpt><trkpt lat="40.2007633" lon="15.10495"><ele>119.0</ele><time>2026-04-25T14:04:01.973Z</time></trkpt><trkpt lat="40.20086" lon="15.1049533"><ele>119.0</ele><time>2026-04-25T14:04:02.933Z</time></trkpt><trkpt lat="40.2009167" lon="15.1049133"><ele>119.0</ele><time>2026-04-25T14:04:03.936Z</time></trkpt><trkpt lat="40.2009933" lon="15.1048033"><ele>115.25</ele><time>2026-04-25T14:04:05.932Z</time></trkpt><trkpt lat="40.2009167" lon="15.1046783"><ele>111.5</ele><time>2026-04-25T14:04:06.939Z</time></trkpt><trkpt lat="40.2008533" lon="15.10456"><ele>107.75</ele><time>2026-04-25T14:04:07.932Z</time></trkpt><trkpt lat="40.200775" lon="15.1044217"><ele>104.0</ele><time>2026-04-25T14:04:08.935Z</time></trkpt><trkpt lat="40.2007117" lon="15.1042867"><ele>105.6</ele><time>2026-04-25T14:04:09.934Z</time></trkpt><trkpt lat="40.2006583" lon="15.1041567"><ele>107.2</ele><time>2026-04-25T14:04:10.928Z</time></trkpt><trkpt lat="40.2006117" lon="15.1040433"><ele>108.79999999999998</ele><time>2026-04-25T14:04:11.929Z</time></trkpt><trkpt lat="40.200585" lon="15.1039533"><ele>110.39999999999999</ele><time>2026-04-25T14:04:12.931Z</time></trkpt><trkpt lat="40.2006117" lon="15.1038433"><ele>112.0</ele><time>2026-04-25T14:04:14.931Z</time></trkpt><trkpt lat="40.200685" lon="15.1038733"><ele>112.0</ele><time>2026-04-25T14:04:15.932Z</time></trkpt><trkpt lat="40.2008817" lon="15.10398"><ele>112.0</ele><time>2026-04-25T14:04:16.932Z</time></trkpt><trkpt lat="40.2009783" lon="15.1039883"><ele>112.0</ele><time>2026-04-25T14:04:17.933Z</time></trkpt><trkpt lat="40.2010733" lon="15.103975"><ele>112.0</ele><time>2026-04-25T14:04:18.93Z</time></trkpt><trkpt lat="40.2011617" lon="15.10394"><ele>112.0</ele><time>2026-04-25T14:04:19.936Z</time></trkpt><trkpt lat="40.201245" lon="15.103885"><ele>112.0</ele><time>2026-04-25T14:04:20.927Z</time></trkpt><trkpt lat="40.201325" lon="15.1037767"><ele>112.0</ele><time>2026-04-25T14:04:21.931Z</time></trkpt><trkpt lat="40.20141" lon="15.103645"><ele>112.0</ele><time>2026-04-25T14:04:22.931Z</time></trkpt><trkpt lat="40.2014983" lon="15.1034933"><ele>110.8</ele><time>2026-04-25T14:04:23.929Z</time></trkpt><trkpt lat="40.2015783" lon="15.103355"><ele>109.6</ele><time>2026-04-25T14:04:24.927Z</time></trkpt><trkpt lat="40.20165" lon="15.1032333"><ele>108.39999999999999</ele><time>2026-04-25T14:04:25.989Z</time></trkpt><trkpt lat="40.2017" lon="15.1031683"><ele>107.19999999999999</ele><time>2026-04-25T14:04:26.925Z</time></trkpt><trkpt lat="40.2018083" lon="15.1031117"><ele>106.0</ele><time>2026-04-25T14:04:28.93Z</time></trkpt><trkpt lat="40.2018867" lon="15.1032033"><ele>104.16666666666667</ele><time>2026-04-25T14:04:29.936Z</time></trkpt><trkpt lat="40.2019667" lon="15.10328"><ele>102.33333333333334</ele><time>2026-04-25T14:04:30.928Z</time></trkpt><trkpt lat="40.2020517" lon="15.10333"><ele>100.5</ele><time>2026-04-25T14:04:31.97Z</time></trkpt><trkpt lat="40.202135" lon="15.103355"><ele>98.66666666666667</ele><time>2026-04-25T14:04:32.925Z</time></trkpt><trkpt lat="40.2022167" lon="15.1033517"><ele>96.83333333333334</ele><time>2026-04-25T14:04:33.934Z</time></trkpt><trkpt lat="40.2022983" lon="15.1033133"><ele>95.0</ele><time>2026-04-25T14:04:34.93Z</time></trkpt><trkpt lat="40.2023767" lon="15.1032233"><ele>93.66666666666667</ele><time>2026-04-25T14:04:35.93Z</time></trkpt><trkpt lat="40.2024367" lon="15.10313"><ele>92.33333333333334</ele><time>2026-04-25T14:04:36.927Z</time></trkpt><trkpt lat="40.2024917" lon="15.1030667"><ele>91.0</ele><time>2026-04-25T14:04:37.927Z</time></trkpt><trkpt lat="40.202555" lon="15.1029867"><ele>89.66666666666667</ele><time>2026-04-25T14:04:38.932Z</time></trkpt><trkpt lat="40.2026283" lon="15.1030367"><ele>88.33333333333333</ele><time>2026-04-25T14:04:40.928Z</time></trkpt><trkpt lat="40.2026767" lon="15.1031517"><ele>87.0</ele><time>2026-04-25T14:04:42.93Z</time></trkpt><trkpt lat="40.2026867" lon="15.1032417"><ele>86.0</ele><time>2026-04-25T14:04:43.928Z</time></trkpt><trkpt lat="40.2026833" lon="15.103365"><ele>85.0</ele><time>2026-04-25T14:04:44.929Z</time></trkpt><trkpt lat="40.2026767" lon="15.1035033"><ele>84.0</ele><time>2026-04-25T14:04:45.939Z</time></trkpt><trkpt lat="40.2026633" lon="15.1036433"><ele>83.0</ele><time>2026-04-25T14:04:46.928Z</time></trkpt><trkpt lat="40.2026417" lon="15.103795"><ele>82.0</ele><time>2026-04-25T14:04:47.933Z</time></trkpt><trkpt lat="40.2026217" lon="15.10396"><ele>81.25</ele><time>2026-04-25T14:04:48.927Z</time></trkpt><trkpt lat="40.2026033" lon="15.1041417"><ele>80.5</ele><time>2026-04-25T14:04:49.929Z</time></trkpt><trkpt lat="40.20259" lon="15.1043283"><ele>79.75</ele><time>2026-04-25T14:04:50.928Z</time></trkpt><trkpt lat="40.20258" lon="15.1045117"><ele>79.0</ele><time>2026-04-25T14:04:51.935Z</time></trkpt><trkpt lat="40.2025767" lon="15.10469"><ele>79.0</ele><time>2026-04-25T14:04:52.928Z</time></trkpt><trkpt lat="40.2025783" lon="15.10486"><ele>79.0</ele><time>2026-04-25T14:04:53.937Z</time></trkpt><trkpt lat="40.2025917" lon="15.105035"><ele>79.0</ele><time>2026-04-25T14:04:54.923Z</time></trkpt><trkpt lat="40.202615" lon="15.1052133"><ele>79.0</ele><time>2026-04-25T14:04:55.99Z</time></trkpt><trkpt lat="40.202645" lon="15.1053917"><ele>79.75</ele><time>2026-04-25T14:04:56.928Z</time></trkpt><trkpt lat="40.2026767" lon="15.10556"><ele>80.5</ele><time>2026-04-25T14:04:57.926Z</time></trkpt><trkpt lat="40.2027067" lon="15.10572"><ele>81.25</ele><time>2026-04-25T14:04:58.931Z</time></trkpt><trkpt lat="40.2027367" lon="15.1058617"><ele>82.0</ele><time>2026-04-25T14:04:59.926Z</time></trkpt><trkpt lat="40.2027583" lon="15.1059933"><ele>82.0</ele><time>2026-04-25T14:05:00.928Z</time></trkpt><trkpt lat="40.2027567" lon="15.10612"><ele>82.0</ele><time>2026-04-25T14:05:01.973Z</time></trkpt><trkpt lat="40.20275" lon="15.1062467"><ele>82.0</ele><time>2026-04-25T14:05:02.928Z</time></trkpt><trkpt lat="40.2027117" lon="15.1063733"><ele>82.0</ele><time>2026-04-25T14:05:03.931Z</time></trkpt><trkpt lat="40.2026533" lon="15.1065133"><ele>82.0</ele><time>2026-04-25T14:05:04.934Z</time></trkpt><trkpt lat="40.2025783" lon="15.10666"><ele>79.25</ele><time>2026-04-25T14:05:05.928Z</time></trkpt><trkpt lat="40.202495" lon="15.1067767"><ele>76.5</ele><time>2026-04-25T14:05:06.928Z</time></trkpt><trkpt lat="40.2023933" lon="15.1068767"><ele>73.75</ele><time>2026-04-25T14:05:07.928Z</time></trkpt><trkpt lat="40.2022967" lon="15.1069817"><ele>71.0</ele><time>2026-04-25T14:05:08.933Z</time></trkpt><trkpt lat="40.2021833" lon="15.107065"><ele>71.0</ele><time>2026-04-25T14:05:09.933Z</time></trkpt><trkpt lat="40.2020717" lon="15.10712"><ele>71.0</ele><time>2026-04-25T14:05:10.928Z</time></trkpt><trkpt lat="40.201945" lon="15.10716"><ele>71.0</ele><time>2026-04-25T14:05:11.926Z</time></trkpt><trkpt lat="40.201805" lon="15.1071867"><ele>71.0</ele><time>2026-04-25T14:05:12.933Z</time></trkpt><trkpt lat="40.2016683" lon="15.1072117"><ele>71.0</ele><time>2026-04-25T14:05:13.928Z</time></trkpt><trkpt lat="40.201535" lon="15.1072367"><ele>71.0</ele><time>2026-04-25T14:05:14.925Z</time></trkpt><trkpt lat="40.2014133" lon="15.1072667"><ele>71.0</ele><time>2026-04-25T14:05:15.931Z</time></trkpt><trkpt lat="40.201315" lon="15.1073"><ele>71.0</ele><time>2026-04-25T14:05:16.925Z</time></trkpt><trkpt lat="40.2012367" lon="15.10734"><ele>71.0</ele><time>2026-04-25T14:05:17.929Z</time></trkpt><trkpt lat="40.2011767" lon="15.1073983"><ele>72.0</ele><time>2026-04-25T14:05:18.93Z</time></trkpt><trkpt lat="40.2011517" lon="15.1075117"><ele>73.0</ele><time>2026-04-25T14:05:19.928Z</time></trkpt><trkpt lat="40.20113" lon="15.1076383"><ele>74.0</ele><time>2026-04-25T14:05:20.927Z</time></trkpt><trkpt lat="40.2011267" lon="15.10778"><ele>75.0</ele><time>2026-04-25T14:05:21.931Z</time></trkpt><trkpt lat="40.201145" lon="15.1079383"><ele>76.0</ele><time>2026-04-25T14:05:22.93Z</time></trkpt><trkpt lat="40.2011883" lon="15.108115"><ele>72.75</ele><time>2026-04-25T14:05:23.934Z</time></trkpt><trkpt lat="40.201235" lon="15.1082933"><ele>69.5</ele><time>2026-04-25T14:05:24.93Z</time></trkpt><trkpt lat="40.2012733" lon="15.10847"><ele>66.25</ele><time>2026-04-25T14:05:25.984Z</time></trkpt><trkpt lat="40.2013033" lon="15.10865"><ele>63.0</ele><time>2026-04-25T14:05:26.926Z</time></trkpt><trkpt lat="40.201325" lon="15.1088233"><ele>63.0</ele><time>2026-04-25T14:05:27.932Z</time></trkpt><trkpt lat="40.2013517" lon="15.10899"><ele>63.0</ele><time>2026-04-25T14:05:28.932Z</time></trkpt><trkpt lat="40.2013767" lon="15.10915"><ele>63.0</ele><time>2026-04-25T14:05:29.926Z</time></trkpt><trkpt lat="40.2014" lon="15.1093"><ele>63.0</ele><time>2026-04-25T14:05:30.931Z</time></trkpt><trkpt lat="40.2014217" lon="15.10943"><ele>61.833333333333336</ele><time>2026-04-25T14:05:31.97Z</time></trkpt><trkpt lat="40.201435" lon="15.109525"><ele>60.66666666666667</ele><time>2026-04-25T14:05:32.925Z</time></trkpt><trkpt lat="40.2013783" lon="15.1095967"><ele>59.5</ele><time>2026-04-25T14:05:35.922Z</time></trkpt><trkpt lat="40.2013" lon="15.1096583"><ele>58.333333333333336</ele><time>2026-04-25T14:05:37.928Z</time></trkpt><trkpt lat="40.2012467" lon="15.1097367"><ele>57.16666666666667</ele><time>2026-04-25T14:05:38.928Z</time></trkpt><trkpt lat="40.2012" lon="15.109815"><ele>56.0</ele><time>2026-04-25T14:05:39.928Z</time></trkpt><trkpt lat="40.2011317" lon="15.10991"><ele>56.0</ele><time>2026-04-25T14:05:40.932Z</time></trkpt><trkpt lat="40.2010667" lon="15.1099983"><ele>55.99999999999999</ele><time>2026-04-25T14:05:41.934Z</time></trkpt><trkpt lat="40.2010067" lon="15.110095"><ele>55.99999999999999</ele><time>2026-04-25T14:05:42.93Z</time></trkpt><trkpt lat="40.2009483" lon="15.1102"><ele>56.0</ele><time>2026-04-25T14:05:43.932Z</time></trkpt><trkpt lat="40.200895" lon="15.1103017"><ele>56.0</ele><time>2026-04-25T14:05:44.934Z</time></trkpt><trkpt lat="40.2008367" lon="15.1104133"><ele>56.0</ele><time>2026-04-25T14:05:45.923Z</time></trkpt><trkpt lat="40.200775" lon="15.110535"><ele>55.99999999999999</ele><time>2026-04-25T14:05:46.926Z</time></trkpt><trkpt lat="40.20072" lon="15.1106633"><ele>55.99999999999999</ele><time>2026-04-25T14:05:47.93Z</time></trkpt><trkpt lat="40.200665" lon="15.1107783"><ele>56.0</ele><time>2026-04-25T14:05:48.928Z</time></trkpt><trkpt lat="40.2006267" lon="15.1108867"><ele>56.0</ele><time>2026-04-25T14:05:49.938Z</time></trkpt><trkpt lat="40.2005983" lon="15.1109967"><ele>55.833333333333336</ele><time>2026-04-25T14:05:50.924Z</time></trkpt><trkpt lat="40.2005817" lon="15.111095"><ele>55.66666666666667</ele><time>2026-04-25T14:05:51.928Z</time></trkpt><trkpt lat="40.2005633" lon="15.1111817"><ele>55.5</ele><time>2026-04-25T14:05:52.937Z</time></trkpt><trkpt lat="40.2005233" lon="15.1113167"><ele>55.33333333333333</ele><time>2026-04-25T14:05:54.931Z</time></trkpt><trkpt lat="40.20049" lon="15.1114667"><ele>55.166666666666664</ele><time>2026-04-25T14:05:56.927Z</time></trkpt><trkpt lat="40.20048" lon="15.1115567"><ele>55.0</ele><time>2026-04-25T14:05:57.937Z</time></trkpt><trkpt lat="40.2004733" lon="15.1116567"><ele>54.99999999999999</ele><time>2026-04-25T14:05:58.926Z</time></trkpt><trkpt lat="40.20047" lon="15.111765"><ele>55.0</ele><time>2026-04-25T14:05:59.927Z</time></trkpt><trkpt lat="40.2004667" lon="15.1118833"><ele>55.0</ele><time>2026-04-25T14:06:00.928Z</time></trkpt><trkpt lat="40.2004583" lon="15.1120017"><ele>55.0</ele><time>2026-04-25T14:06:01.978Z</time></trkpt><trkpt lat="40.2004467" lon="15.112115"><ele>54.99999999999999</ele><time>2026-04-25T14:06:02.926Z</time></trkpt><trkpt lat="40.2004367" lon="15.112215"><ele>55.0</ele><time>2026-04-25T14:06:03.929Z</time></trkpt><trkpt lat="40.20043" lon="15.112315"><ele>54.99999999999999</ele><time>2026-04-25T14:06:04.926Z</time></trkpt><trkpt lat="40.2004267" lon="15.112405"><ele>55.0</ele><time>2026-04-25T14:06:05.936Z</time></trkpt><trkpt lat="40.20042" lon="15.1125583"><ele>55.0</ele><time>2026-04-25T14:06:07.932Z</time></trkpt><trkpt lat="40.2004217" lon="15.1126567"><ele>55.0</ele><time>2026-04-25T14:06:09.926Z</time></trkpt><trkpt lat="40.20049" lon="15.112725"><ele>54.99999999999999</ele><time>2026-04-25T14:06:12.926Z</time></trkpt><trkpt lat="40.2004817" lon="15.1128083"><ele>55.0</ele><time>2026-04-25T14:06:16.929Z</time></trkpt><trkpt lat="40.2004067" lon="15.11281"><ele>54.4</ele><time>2026-04-25T14:06:18.933Z</time></trkpt><trkpt lat="40.2003083" lon="15.1128633"><ele>53.8</ele><time>2026-04-25T14:06:20.931Z</time></trkpt><trkpt lat="40.2002517" lon="15.1129383"><ele>53.2</ele><time>2026-04-25T14:06:21.926Z</time></trkpt><trkpt lat="40.2001917" lon="15.1130383"><ele>52.6</ele><time>2026-04-25T14:06:22.927Z</time></trkpt><trkpt lat="40.20012" lon="15.1131617"><ele>52.0</ele><time>2026-04-25T14:06:23.931Z</time></trkpt><trkpt lat="40.2000417" lon="15.1132783"><ele>52.0</ele><time>2026-04-25T14:06:24.928Z</time></trkpt><trkpt lat="40.1999617" lon="15.11338"><ele>52.0</ele><time>2026-04-25T14:06:25.988Z</time></trkpt><trkpt lat="40.1998783" lon="15.1134717"><ele>52.0</ele><time>2026-04-25T14:06:26.93Z</time></trkpt><trkpt lat="40.1997883" lon="15.113555"><ele>52.0</ele><time>2026-04-25T14:06:27.933Z</time></trkpt><trkpt lat="40.1996983" lon="15.1136433"><ele>52.0</ele><time>2026-04-25T14:06:28.93Z</time></trkpt><trkpt lat="40.1996183" lon="15.1137333"><ele>52.2</ele><time>2026-04-25T14:06:29.928Z</time></trkpt><trkpt lat="40.1995517" lon="15.1138267"><ele>52.400000000000006</ele><time>2026-04-25T14:06:30.926Z</time></trkpt><trkpt lat="40.1994967" lon="15.1139267"><ele>52.599999999999994</ele><time>2026-04-25T14:06:31.974Z</time></trkpt><trkpt lat="40.1994617" lon="15.1140383"><ele>52.8</ele><time>2026-04-25T14:06:32.927Z</time></trkpt><trkpt lat="40.199435" lon="15.1141583"><ele>53.0</ele><time>2026-04-25T14:06:33.934Z</time></trkpt><trkpt lat="40.199405" lon="15.114275"><ele>52.333333333333336</ele><time>2026-04-25T14:06:34.928Z</time></trkpt><trkpt lat="40.199365" lon="15.11438"><ele>51.66666666666667</ele><time>2026-04-25T14:06:35.929Z</time></trkpt><trkpt lat="40.1993317" lon="15.1144833"><ele>51.0</ele><time>2026-04-25T14:06:36.928Z</time></trkpt><trkpt lat="40.1993083" lon="15.114595"><ele>50.33333333333333</ele><time>2026-04-25T14:06:37.929Z</time></trkpt><trkpt lat="40.1992933" lon="15.1147067"><ele>49.666666666666664</ele><time>2026-04-25T14:06:38.927Z</time></trkpt><trkpt lat="40.199295" lon="15.1148083"><ele>49.0</ele><time>2026-04-25T14:06:39.929Z</time></trkpt><trkpt lat="40.1993133" lon="15.1149067"><ele>48.6</ele><time>2026-04-25T14:06:40.927Z</time></trkpt><trkpt lat="40.199345" lon="15.1150183"><ele>48.2</ele><time>2026-04-25T14:06:41.933Z</time></trkpt><trkpt lat="40.1993833" lon="15.1151367"><ele>47.800000000000004</ele><time>2026-04-25T14:06:42.924Z</time></trkpt><trkpt lat="40.1994167" lon="15.1152517"><ele>47.400000000000006</ele><time>2026-04-25T14:06:43.927Z</time></trkpt><trkpt lat="40.1994317" lon="15.1153633"><ele>47.0</ele><time>2026-04-25T14:06:44.929Z</time></trkpt><trkpt lat="40.199435" lon="15.11548"><ele>47.0</ele><time>2026-04-25T14:06:45.927Z</time></trkpt><trkpt lat="40.1994183" lon="15.1155983"><ele>47.0</ele><time>2026-04-25T14:06:46.926Z</time></trkpt><trkpt lat="40.1993683" lon="15.11569"><ele>47.0</ele><time>2026-04-25T14:06:47.934Z</time></trkpt><trkpt lat="40.1993083" lon="15.1157783"><ele>47.0</ele><time>2026-04-25T14:06:48.929Z</time></trkpt><trkpt lat="40.1992467" lon="15.1158617"><ele>47.0</ele><time>2026-04-25T14:06:49.936Z</time></trkpt><trkpt lat="40.1991933" lon="15.1159567"><ele>47.0</ele><time>2026-04-25T14:06:50.929Z</time></trkpt><trkpt lat="40.1991467" lon="15.11606"><ele>46.6</ele><time>2026-04-25T14:06:51.935Z</time></trkpt><trkpt lat="40.1991067" lon="15.1161667"><ele>46.2</ele><time>2026-04-25T14:06:52.932Z</time></trkpt><trkpt lat="40.199055" lon="15.11627"><ele>45.8</ele><time>2026-04-25T14:06:53.933Z</time></trkpt><trkpt lat="40.1989817" lon="15.1163733"><ele>45.4</ele><time>2026-04-25T14:06:54.927Z</time></trkpt><trkpt lat="40.198895" lon="15.116485"><ele>45.0</ele><time>2026-04-25T14:06:55.983Z</time></trkpt><trkpt lat="40.19881" lon="15.116615"><ele>45.0</ele><time>2026-04-25T14:06:56.928Z</time></trkpt><trkpt lat="40.198725" lon="15.1167767"><ele>45.0</ele><time>2026-04-25T14:06:57.929Z</time></trkpt><trkpt lat="40.1986367" lon="15.11697"><ele>45.0</ele><time>2026-04-25T14:06:58.926Z</time></trkpt><trkpt lat="40.1985417" lon="15.11716"><ele>45.0</ele><time>2026-04-25T14:06:59.931Z</time></trkpt><trkpt lat="40.1984533" lon="15.1173333"><ele>45.0</ele><time>2026-04-25T14:07:00.934Z</time></trkpt><trkpt lat="40.198375" lon="15.1174933"><ele>45.0</ele><time>2026-04-25T14:07:01.983Z</time></trkpt><trkpt lat="40.19831" lon="15.11765"><ele>45.0</ele><time>2026-04-25T14:07:02.926Z</time></trkpt><trkpt lat="40.1982617" lon="15.117805"><ele>45.75</ele><time>2026-04-25T14:07:03.929Z</time></trkpt><trkpt lat="40.1982167" lon="15.1179483"><ele>46.5</ele><time>2026-04-25T14:07:04.928Z</time></trkpt><trkpt lat="40.1981633" lon="15.1180883"><ele>47.25</ele><time>2026-04-25T14:07:05.932Z</time></trkpt><trkpt lat="40.1981" lon="15.1182317"><ele>48.0</ele><time>2026-04-25T14:07:06.928Z</time></trkpt><trkpt lat="40.1980417" lon="15.1183817"><ele>46.25</ele><time>2026-04-25T14:07:07.929Z</time></trkpt><trkpt lat="40.1979967" lon="15.1185433"><ele>44.5</ele><time>2026-04-25T14:07:08.928Z</time></trkpt><trkpt lat="40.19797" lon="15.11872"><ele>42.75</ele><time>2026-04-25T14:07:09.936Z</time></trkpt><trkpt lat="40.1979567" lon="15.1189133"><ele>41.0</ele><time>2026-04-25T14:07:10.928Z</time></trkpt><trkpt lat="40.1979567" lon="15.1191017"><ele>41.0</ele><time>2026-04-25T14:07:11.929Z</time></trkpt><trkpt lat="40.1979633" lon="15.1192983"><ele>41.0</ele><time>2026-04-25T14:07:12.924Z</time></trkpt><trkpt lat="40.1979683" lon="15.1194983"><ele>41.0</ele><time>2026-04-25T14:07:13.931Z</time></trkpt><trkpt lat="40.1979833" lon="15.1196767"><ele>41.0</ele><time>2026-04-25T14:07:14.938Z</time></trkpt><trkpt lat="40.19801" lon="15.1198433"><ele>40.25</ele><time>2026-04-25T14:07:15.929Z</time></trkpt><trkpt lat="40.19805" lon="15.1200067"><ele>39.5</ele><time>2026-04-25T14:07:16.928Z</time></trkpt><trkpt lat="40.1981" lon="15.1201733"><ele>38.75</ele><time>2026-04-25T14:07:17.938Z</time></trkpt><trkpt lat="40.1981483" lon="15.1203433"><ele>38.0</ele><time>2026-04-25T14:07:18.933Z</time></trkpt><trkpt lat="40.1981883" lon="15.1205117"><ele>38.0</ele><time>2026-04-25T14:07:19.929Z</time></trkpt><trkpt lat="40.198215" lon="15.1206683"><ele>38.0</ele><time>2026-04-25T14:07:20.926Z</time></trkpt><trkpt lat="40.1982233" lon="15.12081"><ele>38.0</ele><time>2026-04-25T14:07:21.932Z</time></trkpt><trkpt lat="40.198205" lon="15.12095"><ele>38.0</ele><time>2026-04-25T14:07:22.929Z</time></trkpt><trkpt lat="40.1981633" lon="15.1210933"><ele>38.0</ele><time>2026-04-25T14:07:23.93Z</time></trkpt><trkpt lat="40.19811" lon="15.1212483"><ele>38.0</ele><time>2026-04-25T14:07:24.927Z</time></trkpt><trkpt lat="40.1980517" lon="15.121405"><ele>38.0</ele><time>2026-04-25T14:07:25.995Z</time></trkpt><trkpt lat="40.1979983" lon="15.1215617"><ele>38.0</ele><time>2026-04-25T14:07:26.927Z</time></trkpt><trkpt lat="40.197965" lon="15.1217233"><ele>39.0</ele><time>2026-04-25T14:07:27.928Z</time></trkpt><trkpt lat="40.1979433" lon="15.1218867"><ele>40.0</ele><time>2026-04-25T14:07:28.933Z</time></trkpt><trkpt lat="40.19793" lon="15.12204"><ele>41.0</ele><time>2026-04-25T14:07:29.929Z</time></trkpt><trkpt lat="40.1979083" lon="15.12218"><ele>42.0</ele><time>2026-04-25T14:07:30.928Z</time></trkpt><trkpt lat="40.1978767" lon="15.1223033"><ele>42.0</ele><time>2026-04-25T14:07:31.966Z</time></trkpt><trkpt lat="40.1978017" lon="15.1223767"><ele>42.0</ele><time>2026-04-25T14:07:32.924Z</time></trkpt><trkpt lat="40.197715" lon="15.1224567"><ele>42.0</ele><time>2026-04-25T14:07:33.935Z</time></trkpt><trkpt lat="40.1976083" lon="15.1225683"><ele>42.0</ele><time>2026-04-25T14:07:34.926Z</time></trkpt><trkpt lat="40.1975017" lon="15.1227"><ele>40.666666666666664</ele><time>2026-04-25T14:07:35.931Z</time></trkpt><trkpt lat="40.1973883" lon="15.122865"><ele>39.33333333333333</ele><time>2026-04-25T14:07:36.936Z</time></trkpt><trkpt lat="40.1972817" lon="15.123035"><ele>38.0</ele><time>2026-04-25T14:07:37.933Z</time></trkpt><trkpt lat="40.1971883" lon="15.1232067"><ele>38.33333333333333</ele><time>2026-04-25T14:07:38.932Z</time></trkpt><trkpt lat="40.1971" lon="15.1233917"><ele>38.666666666666664</ele><time>2026-04-25T14:07:39.935Z</time></trkpt><trkpt lat="40.1970167" lon="15.1235817"><ele>39.0</ele><time>2026-04-25T14:07:40.93Z</time></trkpt><trkpt lat="40.1969383" lon="15.1237783"><ele>39.0</ele><time>2026-04-25T14:07:41.934Z</time></trkpt><trkpt lat="40.1968633" lon="15.123975"><ele>39.0</ele><time>2026-04-25T14:07:42.937Z</time></trkpt><trkpt lat="40.1967917" lon="15.1241583"><ele>39.0</ele><time>2026-04-25T14:07:43.933Z</time></trkpt><trkpt lat="40.1967183" lon="15.1243133"><ele>39.75</ele><time>2026-04-25T14:07:44.925Z</time></trkpt><trkpt lat="40.196625" lon="15.1244467"><ele>40.5</ele><time>2026-04-25T14:07:45.931Z</time></trkpt><trkpt lat="40.196525" lon="15.1245617"><ele>41.25</ele><time>2026-04-25T14:07:46.935Z</time></trkpt><trkpt lat="40.19644" lon="15.12468"><ele>42.0</ele><time>2026-04-25T14:07:47.936Z</time></trkpt><trkpt lat="40.1963683" lon="15.12481"><ele>40.0</ele><time>2026-04-25T14:07:48.93Z</time></trkpt><trkpt lat="40.196305" lon="15.1249633"><ele>38.0</ele><time>2026-04-25T14:07:49.933Z</time></trkpt><trkpt lat="40.196245" lon="15.125125"><ele>36.0</ele><time>2026-04-25T14:07:50.927Z</time></trkpt><trkpt lat="40.1961883" lon="15.1252767"><ele>34.0</ele><time>2026-04-25T14:07:51.924Z</time></trkpt><trkpt lat="40.1961283" lon="15.1254133"><ele>34.0</ele><time>2026-04-25T14:07:52.933Z</time></trkpt><trkpt lat="40.1960517" lon="15.1255367"><ele>34.0</ele><time>2026-04-25T14:07:53.931Z</time></trkpt><trkpt lat="40.1959617" lon="15.1256483"><ele>34.0</ele><time>2026-04-25T14:07:54.927Z</time></trkpt><trkpt lat="40.19588" lon="15.12576"><ele>34.0</ele><time>2026-04-25T14:07:55.966Z</time></trkpt><trkpt lat="40.1958033" lon="15.1258767"><ele>34.75</ele><time>2026-04-25T14:07:56.93Z</time></trkpt><trkpt lat="40.1957467" lon="15.126"><ele>35.5</ele><time>2026-04-25T14:07:57.928Z</time></trkpt><trkpt lat="40.1957017" lon="15.1261417"><ele>36.25</ele><time>2026-04-25T14:07:58.931Z</time></trkpt><trkpt lat="40.1956717" lon="15.1263183"><ele>37.0</ele><time>2026-04-25T14:07:59.933Z</time></trkpt><trkpt lat="40.1956533" lon="15.126525"><ele>35.0</ele><time>2026-04-25T14:08:00.928Z</time></trkpt><trkpt lat="40.195645" lon="15.1267567"><ele>33.0</ele><time>2026-04-25T14:08:01.972Z</time></trkpt><trkpt lat="40.1956433" lon="15.127"><ele>31.0</ele><time>2026-04-25T14:08:02.926Z</time></trkpt><trkpt lat="40.1956467" lon="15.1272333"><ele>30.333333333333336</ele><time>2026-04-25T14:08:03.927Z</time></trkpt><trkpt lat="40.1956417" lon="15.1274617"><ele>29.666666666666664</ele><time>2026-04-25T14:08:04.926Z</time></trkpt><trkpt lat="40.1956217" lon="15.1276767"><ele>29.0</ele><time>2026-04-25T14:08:05.927Z</time></trkpt><trkpt lat="40.1955833" lon="15.1278933"><ele>29.0</ele><time>2026-04-25T14:08:06.927Z</time></trkpt><trkpt lat="40.1955383" lon="15.12813"><ele>29.0</ele><time>2026-04-25T14:08:07.924Z</time></trkpt><trkpt lat="40.1954933" lon="15.1283733"><ele>29.0</ele><time>2026-04-25T14:08:08.924Z</time></trkpt><trkpt lat="40.19545" lon="15.128615"><ele>29.666666666666664</ele><time>2026-04-25T14:08:09.927Z</time></trkpt><trkpt lat="40.195415" lon="15.128845"><ele>30.333333333333336</ele><time>2026-04-25T14:08:10.934Z</time></trkpt><trkpt lat="40.1953767" lon="15.1290733"><ele>31.0</ele><time>2026-04-25T14:08:11.928Z</time></trkpt><trkpt lat="40.195325" lon="15.1293"><ele>31.0</ele><time>2026-04-25T14:08:12.927Z</time></trkpt><trkpt lat="40.1952767" lon="15.129525"><ele>31.0</ele><time>2026-04-25T14:08:13.926Z</time></trkpt><trkpt lat="40.1952267" lon="15.1297417"><ele>31.0</ele><time>2026-04-25T14:08:14.928Z</time></trkpt><trkpt lat="40.1951767" lon="15.1299567"><ele>30.333333333333336</ele><time>2026-04-25T14:08:15.929Z</time></trkpt><trkpt lat="40.195115" lon="15.1301733"><ele>29.666666666666664</ele><time>2026-04-25T14:08:16.929Z</time></trkpt><trkpt lat="40.195045" lon="15.13039"><ele>29.0</ele><time>2026-04-25T14:08:17.932Z</time></trkpt><trkpt lat="40.194975" lon="15.1306017"><ele>28.5</ele><time>2026-04-25T14:08:18.923Z</time></trkpt><trkpt lat="40.194915" lon="15.1307983"><ele>28.0</ele><time>2026-04-25T14:08:19.929Z</time></trkpt><trkpt lat="40.1948617" lon="15.13098"><ele>27.5</ele><time>2026-04-25T14:08:20.926Z</time></trkpt><trkpt lat="40.19483" lon="15.1311533"><ele>27.0</ele><time>2026-04-25T14:08:21.925Z</time></trkpt><trkpt lat="40.1948067" lon="15.1313267"><ele>26.5</ele><time>2026-04-25T14:08:22.932Z</time></trkpt><trkpt lat="40.1947783" lon="15.1314967"><ele>26.0</ele><time>2026-04-25T14:08:23.929Z</time></trkpt><trkpt lat="40.1947433" lon="15.13166"><ele>25.5</ele><time>2026-04-25T14:08:24.93Z</time></trkpt><trkpt lat="40.19471" lon="15.1318067"><ele>25.0</ele><time>2026-04-25T14:08:25.965Z</time></trkpt><trkpt lat="40.1946717" lon="15.1319317"><ele>25.0</ele><time>2026-04-25T14:08:26.925Z</time></trkpt><trkpt lat="40.19462" lon="15.13204"><ele>25.0</ele><time>2026-04-25T14:08:27.924Z</time></trkpt><trkpt lat="40.1945567" lon="15.132145"><ele>25.0</ele><time>2026-04-25T14:08:28.924Z</time></trkpt><trkpt lat="40.1944633" lon="15.1322517"><ele>25.0</ele><time>2026-04-25T14:08:29.922Z</time></trkpt><trkpt lat="40.194345" lon="15.132355"><ele>25.0</ele><time>2026-04-25T14:08:30.928Z</time></trkpt><trkpt lat="40.194215" lon="15.132465"><ele>25.0</ele><time>2026-04-25T14:08:31.967Z</time></trkpt><trkpt lat="40.1941017" lon="15.1325767"><ele>25.0</ele><time>2026-04-25T14:08:32.926Z</time></trkpt><trkpt lat="40.1939833" lon="15.1326733"><ele>25.0</ele><time>2026-04-25T14:08:33.932Z</time></trkpt><trkpt lat="40.1938583" lon="15.1327583"><ele>25.0</ele><time>2026-04-25T14:08:34.924Z</time></trkpt><trkpt lat="40.193735" lon="15.1328417"><ele>25.0</ele><time>2026-04-25T14:08:35.934Z</time></trkpt><trkpt lat="40.1936183" lon="15.1329467"><ele>25.0</ele><time>2026-04-25T14:08:36.928Z</time></trkpt><trkpt lat="40.1935083" lon="15.13308"><ele>25.0</ele><time>2026-04-25T14:08:37.932Z</time></trkpt><trkpt lat="40.1933967" lon="15.1332283"><ele>25.0</ele><time>2026-04-25T14:08:38.934Z</time></trkpt><trkpt lat="40.1932783" lon="15.1333917"><ele>25.0</ele><time>2026-04-25T14:08:39.927Z</time></trkpt><trkpt lat="40.1931583" lon="15.1335583"><ele>25.0</ele><time>2026-04-25T14:08:40.928Z</time></trkpt><trkpt lat="40.19304" lon="15.13372"><ele>25.0</ele><time>2026-04-25T14:08:41.933Z</time></trkpt><trkpt lat="40.19292" lon="15.1338767"><ele>25.0</ele><time>2026-04-25T14:08:42.93Z</time></trkpt><trkpt lat="40.1927933" lon="15.134025"><ele>25.0</ele><time>2026-04-25T14:08:43.921Z</time></trkpt><trkpt lat="40.1926617" lon="15.1341683"><ele>24.0</ele><time>2026-04-25T14:08:44.929Z</time></trkpt><trkpt lat="40.1925233" lon="15.134305"><ele>23.0</ele><time>2026-04-25T14:08:45.927Z</time></trkpt><trkpt lat="40.1923883" lon="15.13444"><ele>22.0</ele><time>2026-04-25T14:08:46.926Z</time></trkpt><trkpt lat="40.1922533" lon="15.1345683"><ele>21.333333333333332</ele><time>2026-04-25T14:08:47.923Z</time></trkpt><trkpt lat="40.19211" lon="15.1346883"><ele>20.666666666666668</ele><time>2026-04-25T14:08:48.927Z</time></trkpt><trkpt lat="40.1919633" lon="15.134805"><ele>20.0</ele><time>2026-04-25T14:08:49.924Z</time></trkpt><trkpt lat="40.1918117" lon="15.1349133"><ele>20.0</ele><time>2026-04-25T14:08:50.926Z</time></trkpt><trkpt lat="40.1916617" lon="15.1350233"><ele>20.0</ele><time>2026-04-25T14:08:51.927Z</time></trkpt><trkpt lat="40.191515" lon="15.1351333"><ele>20.0</ele><time>2026-04-25T14:08:52.928Z</time></trkpt><trkpt lat="40.1913717" lon="15.1352333"><ele>19.75</ele><time>2026-04-25T14:08:53.929Z</time></trkpt><trkpt lat="40.191235" lon="15.13533"><ele>19.5</ele><time>2026-04-25T14:08:54.929Z</time></trkpt><trkpt lat="40.19111" lon="15.135415"><ele>19.25</ele><time>2026-04-25T14:08:55.976Z</time></trkpt><trkpt lat="40.190995" lon="15.13548"><ele>19.0</ele><time>2026-04-25T14:08:56.928Z</time></trkpt><trkpt lat="40.1908933" lon="15.1355367"><ele>19.0</ele><time>2026-04-25T14:08:57.926Z</time></trkpt><trkpt lat="40.1908133" lon="15.135575"><ele>19.0</ele><time>2026-04-25T14:08:58.933Z</time></trkpt><trkpt lat="40.1907367" lon="15.1355733"><ele>19.0</ele><time>2026-04-25T14:09:00.924Z</time></trkpt><trkpt lat="40.1907217" lon="15.1354233"><ele>19.0</ele><time>2026-04-25T14:09:02.928Z</time></trkpt><trkpt lat="40.1907317" lon="15.1353267"><ele>19.0</ele><time>2026-04-25T14:09:03.927Z</time></trkpt><trkpt lat="40.190755" lon="15.1351933"><ele>19.0</ele><time>2026-04-25T14:09:05.931Z</time></trkpt><trkpt lat="40.1907917" lon="15.1350733"><ele>19.0</ele><time>2026-04-25T14:09:15.933Z</time></trkpt><trkpt lat="40.19081" lon="15.1349083"><ele>19.0</ele><time>2026-04-25T14:09:17.929Z</time></trkpt><trkpt lat="40.1908183" lon="15.1347883"><ele>19.0</ele><time>2026-04-25T14:09:18.927Z</time></trkpt><trkpt lat="40.1908267" lon="15.134635"><ele>19.0</ele><time>2026-04-25T14:09:19.931Z</time></trkpt><trkpt lat="40.19083" lon="15.13446"><ele>18.666666666666664</ele><time>2026-04-25T14:09:20.937Z</time></trkpt><trkpt lat="40.1908233" lon="15.1342617"><ele>18.333333333333332</ele><time>2026-04-25T14:09:21.925Z</time></trkpt><trkpt lat="40.190805" lon="15.1340483"><ele>18.0</ele><time>2026-04-25T14:09:22.929Z</time></trkpt><trkpt lat="40.1907717" lon="15.1338283"><ele>18.0</ele><time>2026-04-25T14:09:23.933Z</time></trkpt><trkpt lat="40.1907117" lon="15.1336017"><ele>18.0</ele><time>2026-04-25T14:09:24.929Z</time></trkpt><trkpt lat="40.190635" lon="15.1333817"><ele>18.0</ele><time>2026-04-25T14:09:25.965Z</time></trkpt><trkpt lat="40.1905517" lon="15.1331767"><ele>18.333333333333332</ele><time>2026-04-25T14:09:26.925Z</time></trkpt><trkpt lat="40.19046" lon="15.132985"><ele>18.666666666666664</ele><time>2026-04-25T14:09:27.929Z</time></trkpt><trkpt lat="40.1903633" lon="15.1328133"><ele>19.0</ele><time>2026-04-25T14:09:28.93Z</time></trkpt><trkpt lat="40.1902617" lon="15.132665"><ele>19.0</ele><time>2026-04-25T14:09:29.929Z</time></trkpt><trkpt lat="40.1901683" lon="15.1325383"><ele>19.0</ele><time>2026-04-25T14:09:30.927Z</time></trkpt><trkpt lat="40.1901017" lon="15.1324467"><ele>19.0</ele><time>2026-04-25T14:09:32.923Z</time></trkpt><trkpt lat="40.1900617" lon="15.1323717"><ele>19.0</ele><time>2026-04-25T14:09:35.926Z</time></trkpt><trkpt lat="40.19002" lon="15.1324617"><ele>19.0</ele><time>2026-04-25T14:13:08.922Z</time></trkpt><trkpt lat="40.189995" lon="15.1325633"><ele>19.0</ele><time>2026-04-25T14:13:10.925Z</time></trkpt><trkpt lat="40.1899667" lon="15.132695"><ele>19.0</ele><time>2026-04-25T14:13:12.931Z</time></trkpt><trkpt lat="40.189915" lon="15.132825"><ele>19.0</ele><time>2026-04-25T14:13:14.925Z</time></trkpt><trkpt lat="40.18984" lon="15.132965"><ele>19.0</ele><time>2026-04-25T14:13:16.928Z</time></trkpt><trkpt lat="40.1897983" lon="15.133045"><ele>19.0</ele><time>2026-04-25T14:13:17.923Z</time></trkpt><trkpt lat="40.189765" lon="15.133115"><ele>18.599999999999998</ele><time>2026-04-25T14:13:18.926Z</time></trkpt><trkpt lat="40.18971" lon="15.133245"><ele>18.2</ele><time>2026-04-25T14:13:20.923Z</time></trkpt><trkpt lat="40.1896483" lon="15.1333833"><ele>17.799999999999997</ele><time>2026-04-25T14:13:22.928Z</time></trkpt><trkpt lat="40.1896067" lon="15.13346"><ele>17.4</ele><time>2026-04-25T14:13:23.93Z</time></trkpt><trkpt lat="40.1895617" lon="15.1335417"><ele>17.0</ele><time>2026-04-25T14:13:24.929Z</time></trkpt><trkpt lat="40.1895167" lon="15.1336067"><ele>17.0</ele><time>2026-04-25T14:13:25.97Z</time></trkpt><trkpt lat="40.1894417" lon="15.1337133"><ele>17.0</ele><time>2026-04-25T14:13:27.93Z</time></trkpt><trkpt lat="40.1893617" lon="15.13385"><ele>17.0</ele><time>2026-04-25T14:13:29.931Z</time></trkpt><trkpt lat="40.1893183" lon="15.1339333"><ele>17.0</ele><time>2026-04-25T14:13:30.929Z</time></trkpt><trkpt lat="40.1892667" lon="15.1340233"><ele>17.0</ele><time>2026-04-25T14:13:31.974Z</time></trkpt><trkpt lat="40.1892083" lon="15.1341333"><ele>17.0</ele><time>2026-04-25T14:13:32.925Z</time></trkpt><trkpt lat="40.1891483" lon="15.134255"><ele>17.0</ele><time>2026-04-25T14:13:33.926Z</time></trkpt><trkpt lat="40.18908" lon="15.1343817"><ele>17.0</ele><time>2026-04-25T14:13:34.925Z</time></trkpt><trkpt lat="40.189015" lon="15.1345117"><ele>17.0</ele><time>2026-04-25T14:13:35.933Z</time></trkpt><trkpt lat="40.1889483" lon="15.1346517"><ele>16.5</ele><time>2026-04-25T14:13:36.928Z</time></trkpt><trkpt lat="40.1888817" lon="15.1347933"><ele>16.0</ele><time>2026-04-25T14:13:37.95Z</time></trkpt><trkpt lat="40.1888117" lon="15.134925"><ele>15.5</ele><time>2026-04-25T14:13:38.927Z</time></trkpt><trkpt lat="40.1887383" lon="15.1350583"><ele>15.0</ele><time>2026-04-25T14:13:39.927Z</time></trkpt><trkpt lat="40.188665" lon="15.1351867"><ele>15.0</ele><time>2026-04-25T14:13:40.924Z</time></trkpt><trkpt lat="40.18859" lon="15.1353083"><ele>15.0</ele><time>2026-04-25T14:13:41.927Z</time></trkpt><trkpt lat="40.1885083" lon="15.1354267"><ele>15.0</ele><time>2026-04-25T14:13:42.924Z</time></trkpt><trkpt lat="40.18842" lon="15.1355433"><ele>15.0</ele><time>2026-04-25T14:13:43.95Z</time></trkpt><trkpt lat="40.188325" lon="15.1356533"><ele>14.75</ele><time>2026-04-25T14:13:44.921Z</time></trkpt><trkpt lat="40.1882267" lon="15.1357617"><ele>14.5</ele><time>2026-04-25T14:13:45.923Z</time></trkpt><trkpt lat="40.1881283" lon="15.1358617"><ele>14.25</ele><time>2026-04-25T14:13:46.925Z</time></trkpt><trkpt lat="40.1880333" lon="15.135965"><ele>14.0</ele><time>2026-04-25T14:13:47.929Z</time></trkpt><trkpt lat="40.18794" lon="15.1360617"><ele>13.75</ele><time>2026-04-25T14:13:48.927Z</time></trkpt><trkpt lat="40.1878517" lon="15.1361583"><ele>13.5</ele><time>2026-04-25T14:13:49.948Z</time></trkpt><trkpt lat="40.1877667" lon="15.1362517"><ele>13.25</ele><time>2026-04-25T14:13:50.922Z</time></trkpt><trkpt lat="40.1876783" lon="15.1363467"><ele>13.0</ele><time>2026-04-25T14:13:51.93Z</time></trkpt><trkpt lat="40.1875917" lon="15.136445"><ele>13.0</ele><time>2026-04-25T14:13:52.928Z</time></trkpt><trkpt lat="40.1875017" lon="15.1365467"><ele>13.0</ele><time>2026-04-25T14:13:53.932Z</time></trkpt><trkpt lat="40.1874067" lon="15.13665"><ele>13.0</ele><time>2026-04-25T14:13:54.93Z</time></trkpt><trkpt lat="40.1873067" lon="15.136745"><ele>13.0</ele><time>2026-04-25T14:13:55.985Z</time></trkpt><trkpt lat="40.18722" lon="15.1368333"><ele>13.0</ele><time>2026-04-25T14:13:56.927Z</time></trkpt><trkpt lat="40.1871367" lon="15.1369217"><ele>13.0</ele><time>2026-04-25T14:13:57.93Z</time></trkpt><trkpt lat="40.18705" lon="15.13701"><ele>13.0</ele><time>2026-04-25T14:13:58.929Z</time></trkpt><trkpt lat="40.1869633" lon="15.1371"><ele>13.0</ele><time>2026-04-25T14:13:59.928Z</time></trkpt><trkpt lat="40.1868733" lon="15.1371917"><ele>13.0</ele><time>2026-04-25T14:14:00.929Z</time></trkpt><trkpt lat="40.186785" lon="15.137285"><ele>12.75</ele><time>2026-04-25T14:14:01.983Z</time></trkpt><trkpt lat="40.18669" lon="15.1373867"><ele>12.5</ele><time>2026-04-25T14:14:02.924Z</time></trkpt><trkpt lat="40.186595" lon="15.1374917"><ele>12.25</ele><time>2026-04-25T14:14:03.931Z</time></trkpt><trkpt lat="40.186495" lon="15.1376033"><ele>12.0</ele><time>2026-04-25T14:14:04.925Z</time></trkpt><trkpt lat="40.186395" lon="15.1377117"><ele>11.5</ele><time>2026-04-25T14:14:05.931Z</time></trkpt><trkpt lat="40.1862917" lon="15.1378167"><ele>11.0</ele><time>2026-04-25T14:14:06.93Z</time></trkpt><trkpt lat="40.186185" lon="15.13792"><ele>10.5</ele><time>2026-04-25T14:14:07.955Z</time></trkpt><trkpt lat="40.1860833" lon="15.138015"><ele>10.0</ele><time>2026-04-25T14:14:08.93Z</time></trkpt><trkpt lat="40.1859867" lon="15.1381"><ele>10.0</ele><time>2026-04-25T14:14:09.932Z</time></trkpt><trkpt lat="40.185885" lon="15.1381833"><ele>10.0</ele><time>2026-04-25T14:14:10.931Z</time></trkpt><trkpt lat="40.18577" lon="15.1382667"><ele>10.0</ele><time>2026-04-25T14:14:11.932Z</time></trkpt><trkpt lat="40.1856367" lon="15.1383617"><ele>10.0</ele><time>2026-04-25T14:14:12.924Z</time></trkpt><trkpt lat="40.1854883" lon="15.1384633"><ele>9.666666666666668</ele><time>2026-04-25T14:14:13.955Z</time></trkpt><trkpt lat="40.1853333" lon="15.1385633"><ele>9.333333333333334</ele><time>2026-04-25T14:14:14.925Z</time></trkpt><trkpt lat="40.185175" lon="15.1386633"><ele>9.0</ele><time>2026-04-25T14:14:15.93Z</time></trkpt><trkpt lat="40.18502" lon="15.138765"><ele>9.0</ele><time>2026-04-25T14:14:16.932Z</time></trkpt><trkpt lat="40.1848667" lon="15.138865"><ele>9.0</ele><time>2026-04-25T14:14:17.928Z</time></trkpt><trkpt lat="40.1847133" lon="15.1389683"><ele>9.0</ele><time>2026-04-25T14:14:18.929Z</time></trkpt><trkpt lat="40.184565" lon="15.1390767"><ele>8.5</ele><time>2026-04-25T14:14:19.958Z</time></trkpt><trkpt lat="40.1844233" lon="15.1391883"><ele>8.0</ele><time>2026-04-25T14:14:20.923Z</time></trkpt><trkpt lat="40.1842967" lon="15.1392917"><ele>7.5</ele><time>2026-04-25T14:14:21.929Z</time></trkpt><trkpt lat="40.1842167" lon="15.1393533"><ele>7.0</ele><time>2026-04-25T14:14:22.928Z</time></trkpt><trkpt lat="40.1841583" lon="15.13939"><ele>7.0</ele><time>2026-04-25T14:14:23.93Z</time></trkpt><trkpt lat="40.1840783" lon="15.1393683"><ele>6.999999999999999</ele><time>2026-04-25T14:14:25.996Z</time></trkpt><trkpt lat="40.183995" lon="15.139235"><ele>6.999999999999999</ele><time>2026-04-25T14:14:27.928Z</time></trkpt><trkpt lat="40.18395" lon="15.139155"><ele>7.0</ele><time>2026-04-25T14:14:28.927Z</time></trkpt><trkpt lat="40.1839033" lon="15.1390933"><ele>7.0</ele><time>2026-04-25T14:14:29.928Z</time></trkpt><trkpt lat="40.1838" lon="15.139105"><ele>6.75</ele><time>2026-04-25T14:14:31.981Z</time></trkpt><trkpt lat="40.1837333" lon="15.1391383"><ele>6.5</ele><time>2026-04-25T14:14:32.924Z</time></trkpt><trkpt lat="40.1836417" lon="15.1392"><ele>6.25</ele><time>2026-04-25T14:14:33.925Z</time></trkpt><trkpt lat="40.18352" lon="15.1392867"><ele>6.0</ele><time>2026-04-25T14:14:34.932Z</time></trkpt><trkpt lat="40.1833933" lon="15.1393817"><ele>6.0</ele><time>2026-04-25T14:14:35.926Z</time></trkpt><trkpt lat="40.18327" lon="15.1394683"><ele>6.0</ele><time>2026-04-25T14:14:36.925Z</time></trkpt><trkpt lat="40.1831483" lon="15.1395517"><ele>6.0</ele><time>2026-04-25T14:14:37.961Z</time></trkpt><trkpt lat="40.183035" lon="15.1396267"><ele>6.0</ele><time>2026-04-25T14:14:38.926Z</time></trkpt><trkpt lat="40.18293" lon="15.1396983"><ele>6.25</ele><time>2026-04-25T14:14:39.941Z</time></trkpt><trkpt lat="40.182825" lon="15.1397717"><ele>6.5</ele><time>2026-04-25T14:14:40.93Z</time></trkpt><trkpt lat="40.1827183" lon="15.1398433"><ele>6.75</ele><time>2026-04-25T14:14:41.923Z</time></trkpt><trkpt lat="40.18261" lon="15.1399117"><ele>7.0</ele><time>2026-04-25T14:14:42.922Z</time></trkpt><trkpt lat="40.1825" lon="15.1399867"><ele>7.0</ele><time>2026-04-25T14:14:43.953Z</time></trkpt><trkpt lat="40.182385" lon="15.14007"><ele>7.0</ele><time>2026-04-25T14:14:44.927Z</time></trkpt><trkpt lat="40.1822733" lon="15.1401583"><ele>7.0</ele><time>2026-04-25T14:14:45.933Z</time></trkpt><trkpt lat="40.1821633" lon="15.1402417"><ele>7.0</ele><time>2026-04-25T14:14:46.927Z</time></trkpt><trkpt lat="40.1820467" lon="15.1403183"><ele>6.8</ele><time>2026-04-25T14:14:47.934Z</time></trkpt><trkpt lat="40.1819317" lon="15.1403817"><ele>6.6</ele><time>2026-04-25T14:14:48.927Z</time></trkpt><trkpt lat="40.1818217" lon="15.1404283"><ele>6.3999999999999995</ele><time>2026-04-25T14:14:49.957Z</time></trkpt><trkpt lat="40.1817217" lon="15.1404667"><ele>6.199999999999999</ele><time>2026-04-25T14:14:50.93Z</time></trkpt><trkpt lat="40.1816383" lon="15.1404933"><ele>6.0</ele><time>2026-04-25T14:14:51.932Z</time></trkpt><trkpt lat="40.1815583" lon="15.140515"><ele>5.666666666666667</ele><time>2026-04-25T14:14:52.922Z</time></trkpt><trkpt lat="40.1814733" lon="15.14053"><ele>5.333333333333333</ele><time>2026-04-25T14:14:53.929Z</time></trkpt><trkpt lat="40.1813883" lon="15.140535"><ele>5.0</ele><time>2026-04-25T14:14:54.929Z</time></trkpt><trkpt lat="40.1813017" lon="15.1405317"><ele>4.666666666666666</ele><time>2026-04-25T14:14:55.993Z</time></trkpt><trkpt lat="40.1812167" lon="15.1405283"><ele>4.333333333333333</ele><time>2026-04-25T14:14:56.926Z</time></trkpt><trkpt lat="40.18113" lon="15.14052"><ele>4.0</ele><time>2026-04-25T14:14:57.931Z</time></trkpt><trkpt lat="40.1810517" lon="15.140505"><ele>4.0</ele><time>2026-04-25T14:14:58.928Z</time></trkpt><trkpt lat="40.180975" lon="15.1404867"><ele>4.0</ele><time>2026-04-25T14:14:59.928Z</time></trkpt><trkpt lat="40.1808883" lon="15.1404617"><ele>4.0</ele><time>2026-04-25T14:15:00.927Z</time></trkpt><trkpt lat="40.1807917" lon="15.1404333"><ele>4.0</ele><time>2026-04-25T14:15:01.975Z</time></trkpt><trkpt lat="40.1806867" lon="15.1404017"><ele>4.0</ele><time>2026-04-25T14:15:02.924Z</time></trkpt><trkpt lat="40.1805833" lon="15.14037"><ele>3.6</ele><time>2026-04-25T14:15:03.93Z</time></trkpt><trkpt lat="40.1804817" lon="15.1403417"><ele>3.2</ele><time>2026-04-25T14:15:04.929Z</time></trkpt><trkpt lat="40.18038" lon="15.140315"><ele>2.8000000000000003</ele><time>2026-04-25T14:15:05.925Z</time></trkpt><trkpt lat="40.1802767" lon="15.140285"><ele>2.4000000000000004</ele><time>2026-04-25T14:15:06.928Z</time></trkpt><trkpt lat="40.1801767" lon="15.1402567"><ele>2.0</ele><time>2026-04-25T14:15:07.958Z</time></trkpt><trkpt lat="40.1800783" lon="15.1402317"><ele>2.0</ele><time>2026-04-25T14:15:08.927Z</time></trkpt><trkpt lat="40.1799783" lon="15.1402083"><ele>2.0</ele><time>2026-04-25T14:15:09.924Z</time></trkpt><trkpt lat="40.179875" lon="15.1401883"><ele>2.0</ele><time>2026-04-25T14:15:10.926Z</time></trkpt><trkpt lat="40.1797667" lon="15.140165"><ele>2.0</ele><time>2026-04-25T14:15:11.929Z</time></trkpt><trkpt lat="40.17966" lon="15.1401383"><ele>2.0</ele><time>2026-04-25T14:15:12.925Z</time></trkpt><trkpt lat="40.1795583" lon="15.14011"><ele>2.1666666666666665</ele><time>2026-04-25T14:15:13.963Z</time></trkpt><trkpt lat="40.1794633" lon="15.1400833"><ele>2.333333333333333</ele><time>2026-04-25T14:15:14.929Z</time></trkpt><trkpt lat="40.179375" lon="15.140065"><ele>2.5</ele><time>2026-04-25T14:15:15.926Z</time></trkpt><trkpt lat="40.1793" lon="15.140045"><ele>2.6666666666666665</ele><time>2026-04-25T14:15:16.932Z</time></trkpt><trkpt lat="40.1792367" lon="15.1400267"><ele>2.8333333333333335</ele><time>2026-04-25T14:15:17.937Z</time></trkpt><trkpt lat="40.179125" lon="15.139995"><ele>3.0</ele><time>2026-04-25T14:15:19.964Z</time></trkpt><trkpt lat="40.179045" lon="15.13997"><ele>3.0</ele><time>2026-04-25T14:15:21.925Z</time></trkpt><trkpt lat="40.1789633" lon="15.1400117"><ele>3.0</ele><time>2026-04-25T14:15:29.936Z</time></trkpt><trkpt lat="40.17889" lon="15.140065"><ele>3.0</ele><time>2026-04-25T14:15:32.926Z</time></trkpt><trkpt lat="40.178795" lon="15.1400533"><ele>3.0</ele><time>2026-04-25T14:15:34.926Z</time></trkpt><trkpt lat="40.1786583" lon="15.1400217"><ele>3.0</ele><time>2026-04-25T14:15:36.926Z</time></trkpt><trkpt lat="40.1785733" lon="15.1400033"><ele>3.0</ele><time>2026-04-25T14:15:37.956Z</time></trkpt><trkpt lat="40.1784833" lon="15.1399833"><ele>3.0</ele><time>2026-04-25T14:15:38.926Z</time></trkpt><trkpt lat="40.1783933" lon="15.1399583"><ele>3.0</ele><time>2026-04-25T14:15:39.926Z</time></trkpt><trkpt lat="40.1782983" lon="15.1399317"><ele>3.0</ele><time>2026-04-25T14:15:40.929Z</time></trkpt><trkpt lat="40.1782" lon="15.1399083"><ele>3.0</ele><time>2026-04-25T14:15:41.936Z</time></trkpt><trkpt lat="40.1780983" lon="15.1398817"><ele>2.8</ele><time>2026-04-25T14:15:42.93Z</time></trkpt><trkpt lat="40.1779917" lon="15.13985"><ele>2.5999999999999996</ele><time>2026-04-25T14:15:43.959Z</time></trkpt><trkpt lat="40.1778817" lon="15.1398217"><ele>2.4000000000000004</ele><time>2026-04-25T14:15:44.927Z</time></trkpt><trkpt lat="40.1777717" lon="15.139795"><ele>2.2</ele><time>2026-04-25T14:15:45.925Z</time></trkpt><trkpt lat="40.1776617" lon="15.1397667"><ele>2.0</ele><time>2026-04-25T14:15:46.931Z</time></trkpt><trkpt lat="40.1775483" lon="15.1397367"><ele>2.0</ele><time>2026-04-25T14:15:47.926Z</time></trkpt><trkpt lat="40.1774367" lon="15.1397067"><ele>2.0</ele><time>2026-04-25T14:15:48.93Z</time></trkpt><trkpt lat="40.1773333" lon="15.1396833"><ele>2.0</ele><time>2026-04-25T14:15:49.963Z</time></trkpt><trkpt lat="40.1772383" lon="15.1396633"><ele>2.0</ele><time>2026-04-25T14:15:50.928Z</time></trkpt><trkpt lat="40.1771567" lon="15.139635"><ele>2.0</ele><time>2026-04-25T14:15:51.931Z</time></trkpt><trkpt lat="40.177085" lon="15.1395967"><ele>2.2</ele><time>2026-04-25T14:15:52.929Z</time></trkpt><trkpt lat="40.1770133" lon="15.1395033"><ele>2.4000000000000004</ele><time>2026-04-25T14:15:54.927Z</time></trkpt><trkpt lat="40.1769267" lon="15.1394467"><ele>2.5999999999999996</ele><time>2026-04-25T14:15:56.931Z</time></trkpt><trkpt lat="40.176835" lon="15.1394267"><ele>2.8</ele><time>2026-04-25T14:15:57.931Z</time></trkpt><trkpt lat="40.1767267" lon="15.1393983"><ele>3.0</ele><time>2026-04-25T14:15:58.936Z</time></trkpt><trkpt lat="40.176605" lon="15.13936"><ele>3.0</ele><time>2026-04-25T14:15:59.925Z</time></trkpt><trkpt lat="40.1764533" lon="15.1393183"><ele>3.0</ele><time>2026-04-25T14:16:00.927Z</time></trkpt><trkpt lat="40.1762967" lon="15.1392783"><ele>3.0</ele><time>2026-04-25T14:16:01.977Z</time></trkpt><trkpt lat="40.17613" lon="15.1392383"><ele>3.0</ele><time>2026-04-25T14:16:02.925Z</time></trkpt><trkpt lat="40.17596" lon="15.1391983"><ele>3.0</ele><time>2026-04-25T14:16:03.927Z</time></trkpt><trkpt lat="40.1758" lon="15.1391617"><ele>3.0</ele><time>2026-04-25T14:16:04.933Z</time></trkpt><trkpt lat="40.175645" lon="15.1391267"><ele>2.75</ele><time>2026-04-25T14:16:05.929Z</time></trkpt><trkpt lat="40.1754983" lon="15.139095"><ele>2.5</ele><time>2026-04-25T14:16:06.931Z</time></trkpt><trkpt lat="40.1753517" lon="15.1390617"><ele>2.25</ele><time>2026-04-25T14:16:07.954Z</time></trkpt><trkpt lat="40.175205" lon="15.1390233"><ele>2.0</ele><time>2026-04-25T14:16:08.923Z</time></trkpt><trkpt lat="40.175055" lon="15.1389833"><ele>2.0</ele><time>2026-04-25T14:16:09.93Z</time></trkpt><trkpt lat="40.1749" lon="15.138945"><ele>2.0</ele><time>2026-04-25T14:16:10.927Z</time></trkpt><trkpt lat="40.1747483" lon="15.1389083"><ele>2.0</ele><time>2026-04-25T14:16:11.932Z</time></trkpt><trkpt lat="40.174605" lon="15.13887"><ele>2.0</ele><time>2026-04-25T14:16:12.929Z</time></trkpt><trkpt lat="40.17446" lon="15.1388317"><ele>2.0</ele><time>2026-04-25T14:16:13.958Z</time></trkpt><trkpt lat="40.1743067" lon="15.1387933"><ele>2.0</ele><time>2026-04-25T14:16:14.929Z</time></trkpt><trkpt lat="40.174155" lon="15.138755"><ele>2.333333333333333</ele><time>2026-04-25T14:16:15.926Z</time></trkpt><trkpt lat="40.174" lon="15.1387133"><ele>2.6666666666666665</ele><time>2026-04-25T14:16:16.927Z</time></trkpt><trkpt lat="40.1738467" lon="15.1386733"><ele>3.0</ele><time>2026-04-25T14:16:17.929Z</time></trkpt><trkpt lat="40.1736917" lon="15.13864"><ele>3.0</ele><time>2026-04-25T14:16:18.93Z</time></trkpt><trkpt lat="40.1735367" lon="15.1386067"><ele>3.0</ele><time>2026-04-25T14:16:19.962Z</time></trkpt><trkpt lat="40.173385" lon="15.13858"><ele>3.0</ele><time>2026-04-25T14:16:20.926Z</time></trkpt><trkpt lat="40.173245" lon="15.13856"><ele>3.0</ele><time>2026-04-25T14:16:21.928Z</time></trkpt><trkpt lat="40.17312" lon="15.1385517"><ele>3.0</ele><time>2026-04-25T14:16:22.926Z</time></trkpt><trkpt lat="40.1730167" lon="15.13855"><ele>3.0</ele><time>2026-04-25T14:16:23.93Z</time></trkpt><trkpt lat="40.172945" lon="15.1385383"><ele>3.0</ele><time>2026-04-25T14:16:24.925Z</time></trkpt><trkpt lat="40.1729067" lon="15.1384567"><ele>3.0</ele><time>2026-04-25T14:16:27.933Z</time></trkpt><trkpt lat="40.1729483" lon="15.138295"><ele>3.0</ele><time>2026-04-25T14:16:29.93Z</time></trkpt><trkpt lat="40.1729783" lon="15.1381683"><ele>3.0</ele><time>2026-04-25T14:16:30.93Z</time></trkpt><trkpt lat="40.173015" lon="15.1380133"><ele>3.0</ele><time>2026-04-25T14:16:31.979Z</time></trkpt><trkpt lat="40.17306" lon="15.1378333"><ele>3.0</ele><time>2026-04-25T14:16:32.918Z</time></trkpt><trkpt lat="40.1731067" lon="15.1376567"><ele>3.0</ele><time>2026-04-25T14:16:33.931Z</time></trkpt><trkpt lat="40.173155" lon="15.1374817"><ele>3.0</ele><time>2026-04-25T14:16:34.923Z</time></trkpt><trkpt lat="40.1731983" lon="15.1373217"><ele>3.0</ele><time>2026-04-25T14:16:35.925Z</time></trkpt><trkpt lat="40.1732383" lon="15.1371733"><ele>3.0</ele><time>2026-04-25T14:16:36.928Z</time></trkpt><trkpt lat="40.1732733" lon="15.13704"><ele>2.6666666666666665</ele><time>2026-04-25T14:16:37.954Z</time></trkpt><trkpt lat="40.1733" lon="15.1369133"><ele>2.3333333333333335</ele><time>2026-04-25T14:16:38.925Z</time></trkpt><trkpt lat="40.1733267" lon="15.1368017"><ele>2.0</ele><time>2026-04-25T14:16:39.929Z</time></trkpt><trkpt lat="40.1733567" lon="15.1367067"><ele>1.6666666666666665</ele><time>2026-04-25T14:16:40.927Z</time></trkpt><trkpt lat="40.1733867" lon="15.1366267"><ele>1.3333333333333333</ele><time>2026-04-25T14:16:41.929Z</time></trkpt><trkpt lat="40.173445" lon="15.1367"><ele>1.0</ele><time>2026-04-25T14:16:44.925Z</time></trkpt><trkpt lat="40.1734133" lon="15.1368833"><ele>1.0</ele><time>2026-04-25T14:16:46.929Z</time></trkpt><trkpt lat="40.17338" lon="15.1370317"><ele>1.0</ele><time>2026-04-25T14:16:47.928Z</time></trkpt><trkpt lat="40.1733367" lon="15.137205"><ele>1.0</ele><time>2026-04-25T14:16:48.928Z</time></trkpt><trkpt lat="40.173295" lon="15.1373967"><ele>1.0</ele><time>2026-04-25T14:16:49.961Z</time></trkpt><trkpt lat="40.1732533" lon="15.1376"><ele>1.0</ele><time>2026-04-25T14:16:50.925Z</time></trkpt><trkpt lat="40.1732067" lon="15.1378083"><ele>1.0</ele><time>2026-04-25T14:16:51.933Z</time></trkpt><trkpt lat="40.1731583" lon="15.1380117"><ele>1.0</ele><time>2026-04-25T14:16:52.926Z</time></trkpt><trkpt lat="40.1731083" lon="15.1382117"><ele>1.6666666666666665</ele><time>2026-04-25T14:16:53.926Z</time></trkpt><trkpt lat="40.1730633" lon="15.1384033"><ele>2.3333333333333335</ele><time>2026-04-25T14:16:54.926Z</time></trkpt><trkpt lat="40.173015" lon="15.13859"><ele>3.0</ele><time>2026-04-25T14:16:56.001Z</time></trkpt><trkpt lat="40.1729683" lon="15.13878"><ele>3.0</ele><time>2026-04-25T14:16:56.921Z</time></trkpt><trkpt lat="40.1729217" lon="15.1389767"><ele>3.0</ele><time>2026-04-25T14:16:57.923Z</time></trkpt><trkpt lat="40.1728733" lon="15.1391833"><ele>3.0</ele><time>2026-04-25T14:16:58.92Z</time></trkpt><trkpt lat="40.1728233" lon="15.1393967"><ele>3.0</ele><time>2026-04-25T14:16:59.924Z</time></trkpt><trkpt lat="40.17277" lon="15.1396167"><ele>3.0</ele><time>2026-04-25T14:17:00.923Z</time></trkpt><trkpt lat="40.1727183" lon="15.1398333"><ele>3.0</ele><time>2026-04-25T14:17:01.982Z</time></trkpt><trkpt lat="40.1726667" lon="15.14005"><ele>3.0</ele><time>2026-04-25T14:17:02.923Z</time></trkpt><trkpt lat="40.172615" lon="15.1402717"><ele>3.0</ele><time>2026-04-25T14:17:03.928Z</time></trkpt><trkpt lat="40.1725633" lon="15.1404817"><ele>3.0</ele><time>2026-04-25T14:17:04.923Z</time></trkpt><trkpt lat="40.1725167" lon="15.14068"><ele>3.0</ele><time>2026-04-25T14:17:05.922Z</time></trkpt><trkpt lat="40.172475" lon="15.1408617"><ele>3.0</ele><time>2026-04-25T14:17:06.928Z</time></trkpt><trkpt lat="40.17244" lon="15.1410167"><ele>3.0</ele><time>2026-04-25T14:17:07.952Z</time></trkpt><trkpt lat="40.17241" lon="15.14114"><ele>3.0</ele><time>2026-04-25T14:17:08.919Z</time></trkpt><trkpt lat="40.172385" lon="15.1412417"><ele>3.0</ele><time>2026-04-25T14:17:09.93Z</time></trkpt><trkpt lat="40.172365" lon="15.1413267"><ele>3.0</ele><time>2026-04-25T14:17:10.93Z</time></trkpt><trkpt lat="40.1723317" lon="15.1414533"><ele>3.0</ele><time>2026-04-25T14:17:12.926Z</time></trkpt><trkpt lat="40.17228" lon="15.141535"><ele>3.0</ele><time>2026-04-25T14:17:15.924Z</time></trkpt><trkpt lat="40.1722317" lon="15.1414417"><ele>3.0</ele><time>2026-04-25T14:17:18.931Z</time></trkpt><trkpt lat="40.172245" lon="15.1412783"><ele>3.0</ele><time>2026-04-25T14:17:20.924Z</time></trkpt><trkpt lat="40.17229" lon="15.1411733"><ele>3.0</ele><time>2026-04-25T14:17:22.931Z</time></trkpt><trkpt lat="40.1723867" lon="15.1411517"><ele>3.0</ele><time>2026-04-25T14:17:24.928Z</time></trkpt><trkpt lat="40.1724583" lon="15.1411683"><ele>3.0</ele><time>2026-04-25T14:17:25.993Z</time></trkpt><trkpt lat="40.172565" lon="15.141145"><ele>3.0</ele><time>2026-04-25T14:17:27.924Z</time></trkpt><trkpt lat="40.1726133" lon="15.14103"><ele>3.0</ele><time>2026-04-25T14:17:29.934Z</time></trkpt><trkpt lat="40.1726983" lon="15.1409317"><ele>3.0</ele><time>2026-04-25T14:17:31.99Z</time></trkpt><trkpt lat="40.1727683" lon="15.1409133"><ele>3.0</ele><time>2026-04-25T14:17:32.931Z</time></trkpt><trkpt lat="40.1728833" lon="15.140915"><ele>3.0</ele><time>2026-04-25T14:17:33.926Z</time></trkpt><trkpt lat="40.1730133" lon="15.1409167"><ele>3.0</ele><time>2026-04-25T14:17:34.927Z</time></trkpt><trkpt lat="40.173165" lon="15.1409167"><ele>2.6666666666666665</ele><time>2026-04-25T14:17:35.933Z</time></trkpt><trkpt lat="40.173335" lon="15.1409217"><ele>2.333333333333333</ele><time>2026-04-25T14:17:36.925Z</time></trkpt><trkpt lat="40.1735367" lon="15.14095"><ele>2.0</ele><time>2026-04-25T14:17:37.958Z</time></trkpt><trkpt lat="40.173755" lon="15.141005"><ele>2.0</ele><time>2026-04-25T14:17:38.926Z</time></trkpt><trkpt lat="40.17397" lon="15.1410783"><ele>2.0</ele><time>2026-04-25T14:17:39.931Z</time></trkpt><trkpt lat="40.1741683" lon="15.1411567"><ele>2.0</ele><time>2026-04-25T14:17:40.923Z</time></trkpt><trkpt lat="40.1743583" lon="15.1412417"><ele>2.333333333333333</ele><time>2026-04-25T14:17:41.933Z</time></trkpt><trkpt lat="40.17454" lon="15.1413333"><ele>2.6666666666666665</ele><time>2026-04-25T14:17:42.929Z</time></trkpt><trkpt lat="40.174725" lon="15.1414417"><ele>3.0</ele><time>2026-04-25T14:17:43.96Z</time></trkpt><trkpt lat="40.1749117" lon="15.141565"><ele>3.0</ele><time>2026-04-25T14:17:44.926Z</time></trkpt><trkpt lat="40.1750917" lon="15.14169"><ele>3.0</ele><time>2026-04-25T14:17:45.928Z</time></trkpt><trkpt lat="40.1752567" lon="15.1418167"><ele>3.0</ele><time>2026-04-25T14:17:46.927Z</time></trkpt><trkpt lat="40.1754117" lon="15.1419533"><ele>3.0</ele><time>2026-04-25T14:17:47.929Z</time></trkpt><trkpt lat="40.1755617" lon="15.1420967"><ele>3.0</ele><time>2026-04-25T14:17:48.927Z</time></trkpt><trkpt lat="40.175715" lon="15.1422517"><ele>3.0</ele><time>2026-04-25T14:17:49.959Z</time></trkpt><trkpt lat="40.17586" lon="15.1424167"><ele>2.6666666666666665</ele><time>2026-04-25T14:17:50.924Z</time></trkpt><trkpt lat="40.175995" lon="15.1425733"><ele>2.333333333333333</ele><time>2026-04-25T14:17:51.928Z</time></trkpt><trkpt lat="40.1761133" lon="15.1427133"><ele>2.0</ele><time>2026-04-25T14:17:52.926Z</time></trkpt><trkpt lat="40.176215" lon="15.142825"><ele>2.0</ele><time>2026-04-25T14:17:53.924Z</time></trkpt><trkpt lat="40.1763117" lon="15.14293"><ele>2.0</ele><time>2026-04-25T14:17:54.925Z</time></trkpt><trkpt lat="40.1764067" lon="15.1430367"><ele>2.0</ele><time>2026-04-25T14:17:55.992Z</time></trkpt><trkpt lat="40.1765067" lon="15.143155"><ele>2.0</ele><time>2026-04-25T14:17:56.929Z</time></trkpt><trkpt lat="40.17662" lon="15.143275"><ele>2.333333333333333</ele><time>2026-04-25T14:17:57.928Z</time></trkpt><trkpt lat="40.1767433" lon="15.1434083"><ele>2.6666666666666665</ele><time>2026-04-25T14:17:58.923Z</time></trkpt><trkpt lat="40.17688" lon="15.14356"><ele>3.0</ele><time>2026-04-25T14:17:59.923Z</time></trkpt><trkpt lat="40.1770267" lon="15.14372"><ele>3.0</ele><time>2026-04-25T14:18:00.925Z</time></trkpt><trkpt lat="40.1771817" lon="15.1438917"><ele>3.0</ele><time>2026-04-25T14:18:01.982Z</time></trkpt><trkpt lat="40.1773383" lon="15.1440717"><ele>3.0</ele><time>2026-04-25T14:18:02.923Z</time></trkpt><trkpt lat="40.177495" lon="15.1442483"><ele>3.0</ele><time>2026-04-25T14:18:03.93Z</time></trkpt><trkpt lat="40.1776517" lon="15.14442"><ele>3.0</ele><time>2026-04-25T14:18:04.928Z</time></trkpt><trkpt lat="40.1778117" lon="15.144595"><ele>3.0</ele><time>2026-04-25T14:18:05.932Z</time></trkpt><trkpt lat="40.17797" lon="15.1447717"><ele>3.0</ele><time>2026-04-25T14:18:06.925Z</time></trkpt><trkpt lat="40.1781317" lon="15.1449483"><ele>3.0</ele><time>2026-04-25T14:18:07.95Z</time></trkpt><trkpt lat="40.1782917" lon="15.1451233"><ele>3.0</ele><time>2026-04-25T14:18:08.924Z</time></trkpt><trkpt lat="40.1784533" lon="15.1452983"><ele>3.0</ele><time>2026-04-25T14:18:09.927Z</time></trkpt><trkpt lat="40.1786167" lon="15.1454717"><ele>3.0</ele><time>2026-04-25T14:18:10.924Z</time></trkpt><trkpt lat="40.1787783" lon="15.1456417"><ele>3.0</ele><time>2026-04-25T14:18:11.931Z</time></trkpt><trkpt lat="40.178935" lon="15.1458117"><ele>3.0</ele><time>2026-04-25T14:18:12.921Z</time></trkpt><trkpt lat="40.17909" lon="15.1459783"><ele>3.0</ele><time>2026-04-25T14:18:13.954Z</time></trkpt><trkpt lat="40.1792467" lon="15.1461467"><ele>3.0</ele><time>2026-04-25T14:18:14.923Z</time></trkpt><trkpt lat="40.1794033" lon="15.1463133"><ele>3.0</ele><time>2026-04-25T14:18:15.929Z</time></trkpt><trkpt lat="40.1795633" lon="15.1464833"><ele>3.0</ele><time>2026-04-25T14:18:16.93Z</time></trkpt><trkpt lat="40.1797267" lon="15.146655"><ele>3.0</ele><time>2026-04-25T14:18:17.93Z</time></trkpt><trkpt lat="40.1798883" lon="15.14683"><ele>3.0</ele><time>2026-04-25T14:18:18.926Z</time></trkpt><trkpt lat="40.180055" lon="15.14701"><ele>3.0</ele><time>2026-04-25T14:18:19.962Z</time></trkpt><trkpt lat="40.1802267" lon="15.1471967"><ele>3.0</ele><time>2026-04-25T14:18:20.925Z</time></trkpt><trkpt lat="40.1803983" lon="15.147385"><ele>3.0</ele><time>2026-04-25T14:18:21.927Z</time></trkpt><trkpt lat="40.18057" lon="15.1475683"><ele>3.0</ele><time>2026-04-25T14:18:22.927Z</time></trkpt><trkpt lat="40.18074" lon="15.1477517"><ele>3.0</ele><time>2026-04-25T14:18:23.922Z</time></trkpt><trkpt lat="40.1809067" lon="15.1479333"><ele>3.0</ele><time>2026-04-25T14:18:24.926Z</time></trkpt><trkpt lat="40.181065" lon="15.1481117"><ele>3.0</ele><time>2026-04-25T14:18:25.997Z</time></trkpt><trkpt lat="40.181215" lon="15.1482733"><ele>3.0</ele><time>2026-04-25T14:18:26.921Z</time></trkpt><trkpt lat="40.1813583" lon="15.148425"><ele>3.0</ele><time>2026-04-25T14:18:27.923Z</time></trkpt><trkpt lat="40.1814967" lon="15.14857"><ele>3.0</ele><time>2026-04-25T14:18:28.929Z</time></trkpt><trkpt lat="40.181635" lon="15.1487133"><ele>3.0</ele><time>2026-04-25T14:18:29.931Z</time></trkpt><trkpt lat="40.18177" lon="15.1488567"><ele>2.6666666666666665</ele><time>2026-04-25T14:18:30.926Z</time></trkpt><trkpt lat="40.1818967" lon="15.149"><ele>2.333333333333333</ele><time>2026-04-25T14:18:31.985Z</time></trkpt><trkpt lat="40.1820133" lon="15.1491433"><ele>2.0</ele><time>2026-04-25T14:18:32.919Z</time></trkpt><trkpt lat="40.1821117" lon="15.1492867"><ele>2.5</ele><time>2026-04-25T14:18:33.926Z</time></trkpt><trkpt lat="40.1821917" lon="15.1494283"><ele>3.0</ele><time>2026-04-25T14:18:34.922Z</time></trkpt><trkpt lat="40.1822433" lon="15.1495733"><ele>3.5</ele><time>2026-04-25T14:18:35.92Z</time></trkpt><trkpt lat="40.182275" lon="15.1497283"><ele>4.0</ele><time>2026-04-25T14:18:36.929Z</time></trkpt><trkpt lat="40.1822883" lon="15.1498983"><ele>4.25</ele><time>2026-04-25T14:18:37.954Z</time></trkpt><trkpt lat="40.1822883" lon="15.1500683"><ele>4.5</ele><time>2026-04-25T14:18:38.927Z</time></trkpt><trkpt lat="40.1822633" lon="15.15025"><ele>4.75</ele><time>2026-04-25T14:18:39.931Z</time></trkpt><trkpt lat="40.1822183" lon="15.1504367"><ele>5.0</ele><time>2026-04-25T14:18:40.928Z</time></trkpt><trkpt lat="40.1821633" lon="15.15064"><ele>5.0</ele><time>2026-04-25T14:18:41.936Z</time></trkpt><trkpt lat="40.1821067" lon="15.15085"><ele>5.0</ele><time>2026-04-25T14:18:42.924Z</time></trkpt><trkpt lat="40.1820517" lon="15.1510583"><ele>5.0</ele><time>2026-04-25T14:18:43.954Z</time></trkpt><trkpt lat="40.1819967" lon="15.151255"><ele>5.0</ele><time>2026-04-25T14:18:44.921Z</time></trkpt><trkpt lat="40.1819383" lon="15.1514433"><ele>5.0</ele><time>2026-04-25T14:18:45.923Z</time></trkpt><trkpt lat="40.18187" lon="15.15162"><ele>5.0</ele><time>2026-04-25T14:18:46.922Z</time></trkpt><trkpt lat="40.1817883" lon="15.151785"><ele>5.0</ele><time>2026-04-25T14:18:47.92Z</time></trkpt><trkpt lat="40.1816933" lon="15.151935"><ele>5.0</ele><time>2026-04-25T14:18:48.927Z</time></trkpt><trkpt lat="40.1815817" lon="15.1520717"><ele>5.0</ele><time>2026-04-25T14:18:49.961Z</time></trkpt><trkpt lat="40.1814517" lon="15.152185"><ele>5.0</ele><time>2026-04-25T14:18:50.928Z</time></trkpt><trkpt lat="40.181305" lon="15.15228"><ele>5.0</ele><time>2026-04-25T14:18:51.925Z</time></trkpt><trkpt lat="40.1811467" lon="15.1523733"><ele>5.0</ele><time>2026-04-25T14:18:52.923Z</time></trkpt><trkpt lat="40.1809833" lon="15.15246"><ele>5.0</ele><time>2026-04-25T14:18:53.931Z</time></trkpt><trkpt lat="40.1808167" lon="15.15255"><ele>5.0</ele><time>2026-04-25T14:18:54.921Z</time></trkpt><trkpt lat="40.18066" lon="15.1526417"><ele>5.0</ele><time>2026-04-25T14:18:55.994Z</time></trkpt><trkpt lat="40.180515" lon="15.1527467"><ele>5.0</ele><time>2026-04-25T14:18:56.923Z</time></trkpt><trkpt lat="40.180375" lon="15.1528633"><ele>5.0</ele><time>2026-04-25T14:18:57.926Z</time></trkpt><trkpt lat="40.1802367" lon="15.1529967"><ele>5.0</ele><time>2026-04-25T14:18:58.93Z</time></trkpt><trkpt lat="40.1801017" lon="15.15315"><ele>5.0</ele><time>2026-04-25T14:18:59.925Z</time></trkpt><trkpt lat="40.1799833" lon="15.1533133"><ele>5.0</ele><time>2026-04-25T14:19:00.927Z</time></trkpt><trkpt lat="40.1798617" lon="15.1534967"><ele>5.0</ele><time>2026-04-25T14:19:01.984Z</time></trkpt><trkpt lat="40.179755" lon="15.1536967"><ele>5.0</ele><time>2026-04-25T14:19:02.925Z</time></trkpt><trkpt lat="40.1796617" lon="15.1539117"><ele>5.0</ele><time>2026-04-25T14:19:03.932Z</time></trkpt><trkpt lat="40.1795833" lon="15.1541417"><ele>5.0</ele><time>2026-04-25T14:19:04.928Z</time></trkpt><trkpt lat="40.1795217" lon="15.1543733"><ele>5.0</ele><time>2026-04-25T14:19:05.932Z</time></trkpt><trkpt lat="40.179475" lon="15.1546"><ele>5.0</ele><time>2026-04-25T14:19:06.929Z</time></trkpt><trkpt lat="40.179445" lon="15.1548233"><ele>5.0</ele><time>2026-04-25T14:19:07.952Z</time></trkpt><trkpt lat="40.1794233" lon="15.15505"><ele>5.333333333333334</ele><time>2026-04-25T14:19:08.926Z</time></trkpt><trkpt lat="40.17941" lon="15.1552767"><ele>5.666666666666667</ele><time>2026-04-25T14:19:09.927Z</time></trkpt><trkpt lat="40.1794017" lon="15.155505"><ele>6.0</ele><time>2026-04-25T14:19:10.926Z</time></trkpt><trkpt lat="40.1793933" lon="15.1557233"><ele>6.0</ele><time>2026-04-25T14:19:11.928Z</time></trkpt><trkpt lat="40.1793833" lon="15.1559283"><ele>6.0</ele><time>2026-04-25T14:19:12.927Z</time></trkpt><trkpt lat="40.17937" lon="15.1561083"><ele>6.0</ele><time>2026-04-25T14:19:13.956Z</time></trkpt><trkpt lat="40.1793567" lon="15.1562717"><ele>6.0</ele><time>2026-04-25T14:19:14.923Z</time></trkpt><trkpt lat="40.1793483" lon="15.15641"><ele>6.0</ele><time>2026-04-25T14:19:15.922Z</time></trkpt><trkpt lat="40.1793533" lon="15.1565033"><ele>6.0</ele><time>2026-04-25T14:19:16.92Z</time></trkpt><trkpt lat="40.1793783" lon="15.1566067"><ele>6.0</ele><time>2026-04-25T14:19:18.931Z</time></trkpt><trkpt lat="40.1794467" lon="15.1566233"><ele>6.0</ele><time>2026-04-25T14:19:20.927Z</time></trkpt><trkpt lat="40.1795183" lon="15.156645"><ele>6.0</ele><time>2026-04-25T14:19:22.923Z</time></trkpt><trkpt lat="40.179595" lon="15.1567083"><ele>6.0</ele><time>2026-04-25T14:19:25.998Z</time></trkpt><trkpt lat="40.179655" lon="15.1566817"><ele>6.333333333333333</ele><time>2026-04-25T14:19:37.96Z</time></trkpt><trkpt lat="40.1795833" lon="15.1566033"><ele>6.666666666666666</ele><time>2026-04-25T14:20:27.924Z</time></trkpt><trkpt lat="40.17961" lon="15.15668"><ele>7.0</ele><time>2026-04-25T14:21:55.976Z</time></trkpt><trkpt lat="40.1795933" lon="15.1568117"><ele>7.333333333333333</ele><time>2026-04-25T14:21:57.92Z</time></trkpt><trkpt lat="40.1795683" lon="15.1569367"><ele>7.666666666666666</ele><time>2026-04-25T14:21:59.93Z</time></trkpt><trkpt lat="40.179505" lon="15.1570217"><ele>8.0</ele><time>2026-04-25T14:22:01.983Z</time></trkpt><trkpt lat="40.1794167" lon="15.1571"><ele>8.0</ele><time>2026-04-25T14:22:03.924Z</time></trkpt><trkpt lat="40.1793567" lon="15.1571467"><ele>8.0</ele><time>2026-04-25T14:22:04.926Z</time></trkpt><trkpt lat="40.17928" lon="15.157195"><ele>8.0</ele><time>2026-04-25T14:22:05.933Z</time></trkpt><trkpt lat="40.17916" lon="15.157265"><ele>8.0</ele><time>2026-04-25T14:22:06.924Z</time></trkpt><trkpt lat="40.17903" lon="15.1573417"><ele>8.0</ele><time>2026-04-25T14:22:07.958Z</time></trkpt><trkpt lat="40.178905" lon="15.15741"><ele>7.499999999999999</ele><time>2026-04-25T14:22:08.923Z</time></trkpt><trkpt lat="40.1787933" lon="15.1574683"><ele>7.0</ele><time>2026-04-25T14:22:09.919Z</time></trkpt><trkpt lat="40.1787" lon="15.15752"><ele>6.5</ele><time>2026-04-25T14:22:10.925Z</time></trkpt><trkpt lat="40.1786267" lon="15.1575633"><ele>6.0</ele><time>2026-04-25T14:22:11.924Z</time></trkpt><trkpt lat="40.1785833" lon="15.15763"><ele>5.5</ele><time>2026-04-25T14:22:14.923Z</time></trkpt><trkpt lat="40.178605" lon="15.157715"><ele>5.0</ele><time>2026-04-25T14:22:16.927Z</time></trkpt><trkpt lat="40.1786917" lon="15.1578433"><ele>5.0</ele><time>2026-04-25T14:22:18.921Z</time></trkpt><trkpt lat="40.17875" lon="15.1579317"><ele>5.0</ele><time>2026-04-25T14:22:19.958Z</time></trkpt><trkpt lat="40.1788167" lon="15.1580333"><ele>5.0</ele><time>2026-04-25T14:22:20.921Z</time></trkpt><trkpt lat="40.1788883" lon="15.15815"><ele>5.0</ele><time>2026-04-25T14:22:21.929Z</time></trkpt><trkpt lat="40.1789817" lon="15.1583083"><ele>5.666666666666667</ele><time>2026-04-25T14:22:22.927Z</time></trkpt><trkpt lat="40.1790833" lon="15.158485"><ele>6.333333333333334</ele><time>2026-04-25T14:22:23.924Z</time></trkpt><trkpt lat="40.179195" lon="15.15868"><ele>7.0</ele><time>2026-04-25T14:22:24.929Z</time></trkpt><trkpt lat="40.1793167" lon="15.1588933"><ele>7.0</ele><time>2026-04-25T14:22:25.994Z</time></trkpt><trkpt lat="40.1794417" lon="15.159105"><ele>7.0</ele><time>2026-04-25T14:22:26.921Z</time></trkpt><trkpt lat="40.17956" lon="15.1593017"><ele>7.0</ele><time>2026-04-25T14:22:27.924Z</time></trkpt><trkpt lat="40.17967" lon="15.1594833"><ele>7.0</ele><time>2026-04-25T14:22:28.926Z</time></trkpt><trkpt lat="40.1797767" lon="15.159665"><ele>7.0</ele><time>2026-04-25T14:22:29.93Z</time></trkpt><trkpt lat="40.1798783" lon="15.15984"><ele>7.0</ele><time>2026-04-25T14:22:30.924Z</time></trkpt><trkpt lat="40.1799733" lon="15.16001"><ele>7.666666666666667</ele><time>2026-04-25T14:22:31.978Z</time></trkpt><trkpt lat="40.1800667" lon="15.160175"><ele>8.333333333333334</ele><time>2026-04-25T14:22:32.922Z</time></trkpt><trkpt lat="40.18016" lon="15.160335"><ele>9.0</ele><time>2026-04-25T14:22:33.923Z</time></trkpt><trkpt lat="40.18025" lon="15.1604917"><ele>9.0</ele><time>2026-04-25T14:22:34.925Z</time></trkpt><trkpt lat="40.18034" lon="15.1606483"><ele>9.0</ele><time>2026-04-25T14:22:35.921Z</time></trkpt><trkpt lat="40.18043" lon="15.1608083"><ele>9.0</ele><time>2026-04-25T14:22:36.923Z</time></trkpt><trkpt lat="40.18052" lon="15.1609683"><ele>8.75</ele><time>2026-04-25T14:22:37.96Z</time></trkpt><trkpt lat="40.1806067" lon="15.1611233"><ele>8.5</ele><time>2026-04-25T14:22:38.921Z</time></trkpt><trkpt lat="40.1806917" lon="15.1612783"><ele>8.25</ele><time>2026-04-25T14:22:39.926Z</time></trkpt><trkpt lat="40.1807717" lon="15.16142"><ele>8.0</ele><time>2026-04-25T14:22:40.926Z</time></trkpt><trkpt lat="40.1808517" lon="15.1615483"><ele>8.0</ele><time>2026-04-25T14:22:41.927Z</time></trkpt><trkpt lat="40.1809383" lon="15.16166"><ele>8.0</ele><time>2026-04-25T14:22:42.925Z</time></trkpt><trkpt lat="40.1810333" lon="15.16175"><ele>8.0</ele><time>2026-04-25T14:22:43.962Z</time></trkpt><trkpt lat="40.1811467" lon="15.161795"><ele>8.0</ele><time>2026-04-25T14:22:44.923Z</time></trkpt><trkpt lat="40.1812617" lon="15.16182"><ele>8.0</ele><time>2026-04-25T14:22:45.926Z</time></trkpt><trkpt lat="40.1813733" lon="15.1618167"><ele>8.0</ele><time>2026-04-25T14:22:46.932Z</time></trkpt><trkpt lat="40.181485" lon="15.16178"><ele>8.0</ele><time>2026-04-25T14:22:47.929Z</time></trkpt><trkpt lat="40.1815783" lon="15.1616867"><ele>8.0</ele><time>2026-04-25T14:22:48.928Z</time></trkpt><trkpt lat="40.181665" lon="15.161585"><ele>8.25</ele><time>2026-04-25T14:22:49.961Z</time></trkpt><trkpt lat="40.1817483" lon="15.1614633"><ele>8.5</ele><time>2026-04-25T14:22:50.922Z</time></trkpt><trkpt lat="40.1818317" lon="15.1613233"><ele>8.75</ele><time>2026-04-25T14:22:51.924Z</time></trkpt><trkpt lat="40.1819167" lon="15.161185"><ele>9.0</ele><time>2026-04-25T14:22:52.92Z</time></trkpt><trkpt lat="40.182005" lon="15.1610483"><ele>9.0</ele><time>2026-04-25T14:22:53.924Z</time></trkpt><trkpt lat="40.1821" lon="15.160895"><ele>9.0</ele><time>2026-04-25T14:22:54.928Z</time></trkpt><trkpt lat="40.1821883" lon="15.16075"><ele>9.0</ele><time>2026-04-25T14:22:55.979Z</time></trkpt><trkpt lat="40.1822767" lon="15.1606"><ele>9.0</ele><time>2026-04-25T14:22:56.92Z</time></trkpt><trkpt lat="40.1823633" lon="15.1604567"><ele>10.0</ele><time>2026-04-25T14:22:57.924Z</time></trkpt><trkpt lat="40.1824417" lon="15.1603167"><ele>11.0</ele><time>2026-04-25T14:22:58.919Z</time></trkpt><trkpt lat="40.182505" lon="15.1601733"><ele>12.0</ele><time>2026-04-25T14:22:59.935Z</time></trkpt><trkpt lat="40.18254" lon="15.1600217"><ele>13.0</ele><time>2026-04-25T14:23:00.923Z</time></trkpt><trkpt lat="40.18254" lon="15.1598817"><ele>12.25</ele><time>2026-04-25T14:23:01.977Z</time></trkpt><trkpt lat="40.182515" lon="15.15973"><ele>11.5</ele><time>2026-04-25T14:23:02.923Z</time></trkpt><trkpt lat="40.1824683" lon="15.1595733"><ele>10.75</ele><time>2026-04-25T14:23:03.928Z</time></trkpt><trkpt lat="40.1824067" lon="15.1594133"><ele>10.0</ele><time>2026-04-25T14:23:04.922Z</time></trkpt><trkpt lat="40.1823317" lon="15.1592433"><ele>10.0</ele><time>2026-04-25T14:23:05.922Z</time></trkpt><trkpt lat="40.1822567" lon="15.159055"><ele>10.0</ele><time>2026-04-25T14:23:06.929Z</time></trkpt><trkpt lat="40.1821783" lon="15.1588617"><ele>10.0</ele><time>2026-04-25T14:23:07.963Z</time></trkpt><trkpt lat="40.1821033" lon="15.1586733"><ele>10.25</ele><time>2026-04-25T14:23:08.921Z</time></trkpt><trkpt lat="40.1820283" lon="15.1585017"><ele>10.5</ele><time>2026-04-25T14:23:09.934Z</time></trkpt><trkpt lat="40.181965" lon="15.15833"><ele>10.75</ele><time>2026-04-25T14:23:10.919Z</time></trkpt><trkpt lat="40.1819167" lon="15.1581617"><ele>11.0</ele><time>2026-04-25T14:23:11.928Z</time></trkpt><trkpt lat="40.1819" lon="15.1580067"><ele>11.5</ele><time>2026-04-25T14:23:12.922Z</time></trkpt><trkpt lat="40.1818983" lon="15.1578533"><ele>12.0</ele><time>2026-04-25T14:23:13.963Z</time></trkpt><trkpt lat="40.18191" lon="15.1577067"><ele>12.5</ele><time>2026-04-25T14:23:14.924Z</time></trkpt><trkpt lat="40.1819667" lon="15.157575"><ele>13.0</ele><time>2026-04-25T14:23:15.929Z</time></trkpt><trkpt lat="40.1820367" lon="15.1574617"><ele>11.75</ele><time>2026-04-25T14:23:16.925Z</time></trkpt><trkpt lat="40.1821367" lon="15.15736"><ele>10.5</ele><time>2026-04-25T14:23:17.929Z</time></trkpt><trkpt lat="40.182265" lon="15.1573083"><ele>9.25</ele><time>2026-04-25T14:23:18.925Z</time></trkpt><trkpt lat="40.1823967" lon="15.15727"><ele>8.0</ele><time>2026-04-25T14:23:19.964Z</time></trkpt><trkpt lat="40.1825433" lon="15.1572567"><ele>8.0</ele><time>2026-04-25T14:23:20.926Z</time></trkpt><trkpt lat="40.182695" lon="15.15727"><ele>8.0</ele><time>2026-04-25T14:23:21.924Z</time></trkpt><trkpt lat="40.1828467" lon="15.1572983"><ele>8.0</ele><time>2026-04-25T14:23:22.923Z</time></trkpt><trkpt lat="40.1829983" lon="15.1573517"><ele>10.666666666666666</ele><time>2026-04-25T14:23:23.927Z</time></trkpt><trkpt lat="40.1831483" lon="15.1574133"><ele>13.333333333333332</ele><time>2026-04-25T14:23:24.929Z</time></trkpt><trkpt lat="40.1832967" lon="15.1574733"><ele>16.0</ele><time>2026-04-25T14:23:25.974Z</time></trkpt><trkpt lat="40.1834367" lon="15.1575183"><ele>16.25</ele><time>2026-04-25T14:23:26.927Z</time></trkpt><trkpt lat="40.18357" lon="15.1575417"><ele>16.5</ele><time>2026-04-25T14:23:27.927Z</time></trkpt><trkpt lat="40.1836917" lon="15.157545"><ele>16.75</ele><time>2026-04-25T14:23:28.927Z</time></trkpt><trkpt lat="40.1838083" lon="15.1575217"><ele>17.0</ele><time>2026-04-25T14:23:29.927Z</time></trkpt><trkpt lat="40.1839133" lon="15.157445"><ele>14.666666666666668</ele><time>2026-04-25T14:23:30.927Z</time></trkpt><trkpt lat="40.1839933" lon="15.15729"><ele>12.333333333333334</ele><time>2026-04-25T14:23:31.979Z</time></trkpt><trkpt lat="40.18407" lon="15.1571233"><ele>10.0</ele><time>2026-04-25T14:23:32.922Z</time></trkpt><trkpt lat="40.184125" lon="15.1569283"><ele>10.0</ele><time>2026-04-25T14:23:33.922Z</time></trkpt><trkpt lat="40.1841767" lon="15.1567333"><ele>10.0</ele><time>2026-04-25T14:23:34.925Z</time></trkpt><trkpt lat="40.1842283" lon="15.15653"><ele>10.0</ele><time>2026-04-25T14:23:35.926Z</time></trkpt><trkpt lat="40.1842833" lon="15.1563317"><ele>9.333333333333334</ele><time>2026-04-25T14:23:36.928Z</time></trkpt><trkpt lat="40.1843367" lon="15.1561283"><ele>8.666666666666666</ele><time>2026-04-25T14:23:37.964Z</time></trkpt><trkpt lat="40.1843983" lon="15.1559333"><ele>8.0</ele><time>2026-04-25T14:23:38.923Z</time></trkpt><trkpt lat="40.184465" lon="15.155745"><ele>7.333333333333333</ele><time>2026-04-25T14:23:39.926Z</time></trkpt><trkpt lat="40.184535" lon="15.1555533"><ele>6.666666666666666</ele><time>2026-04-25T14:23:40.921Z</time></trkpt><trkpt lat="40.184605" lon="15.1553617"><ele>6.0</ele><time>2026-04-25T14:23:41.929Z</time></trkpt><trkpt lat="40.1846783" lon="15.1551717"><ele>6.0</ele><time>2026-04-25T14:23:42.923Z</time></trkpt><trkpt lat="40.18475" lon="15.1549783"><ele>6.0</ele><time>2026-04-25T14:23:43.958Z</time></trkpt><trkpt lat="40.1848233" lon="15.1547867"><ele>6.0</ele><time>2026-04-25T14:23:44.921Z</time></trkpt><trkpt lat="40.1848983" lon="15.1545967"><ele>5.333333333333333</ele><time>2026-04-25T14:23:45.923Z</time></trkpt><trkpt lat="40.18498" lon="15.15441"><ele>4.666666666666666</ele><time>2026-04-25T14:23:46.92Z</time></trkpt><trkpt lat="40.1850683" lon="15.154225"><ele>4.0</ele><time>2026-04-25T14:23:47.925Z</time></trkpt><trkpt lat="40.18516" lon="15.1540433"><ele>4.0</ele><time>2026-04-25T14:23:48.923Z</time></trkpt><trkpt lat="40.1852533" lon="15.1538633"><ele>4.0</ele><time>2026-04-25T14:23:49.963Z</time></trkpt><trkpt lat="40.185345" lon="15.1536817"><ele>4.0</ele><time>2026-04-25T14:23:50.925Z</time></trkpt><trkpt lat="40.185435" lon="15.1534967"><ele>4.0</ele><time>2026-04-25T14:23:51.929Z</time></trkpt><trkpt lat="40.1855283" lon="15.15331"><ele>4.0</ele><time>2026-04-25T14:23:52.929Z</time></trkpt><trkpt lat="40.1856217" lon="15.1531233"><ele>4.0</ele><time>2026-04-25T14:23:53.929Z</time></trkpt><trkpt lat="40.1857167" lon="15.1529383"><ele>4.333333333333333</ele><time>2026-04-25T14:23:54.928Z</time></trkpt><trkpt lat="40.1858117" lon="15.1527567"><ele>4.666666666666667</ele><time>2026-04-25T14:23:55.983Z</time></trkpt><trkpt lat="40.1859067" lon="15.1525767"><ele>5.0</ele><time>2026-04-25T14:23:56.93Z</time></trkpt><trkpt lat="40.1859967" lon="15.152405"><ele>4.666666666666667</ele><time>2026-04-25T14:23:57.926Z</time></trkpt><trkpt lat="40.1860917" lon="15.1522483"><ele>4.333333333333333</ele><time>2026-04-25T14:23:58.935Z</time></trkpt><trkpt lat="40.1861917" lon="15.152105"><ele>4.0</ele><time>2026-04-25T14:23:59.927Z</time></trkpt><trkpt lat="40.18631" lon="15.15198"><ele>4.0</ele><time>2026-04-25T14:24:00.926Z</time></trkpt><trkpt lat="40.1864467" lon="15.1518683"><ele>4.0</ele><time>2026-04-25T14:24:01.98Z</time></trkpt><trkpt lat="40.186595" lon="15.1517617"><ele>4.0</ele><time>2026-04-25T14:24:02.922Z</time></trkpt><trkpt lat="40.18675" lon="15.15165"><ele>4.333333333333333</ele><time>2026-04-25T14:24:03.936Z</time></trkpt><trkpt lat="40.1869033" lon="15.151525"><ele>4.666666666666667</ele><time>2026-04-25T14:24:04.933Z</time></trkpt><trkpt lat="40.1870583" lon="15.1513933"><ele>5.0</ele><time>2026-04-25T14:24:05.923Z</time></trkpt><trkpt lat="40.1872167" lon="15.1512633"><ele>5.333333333333334</ele><time>2026-04-25T14:24:06.925Z</time></trkpt><trkpt lat="40.187375" lon="15.151135"><ele>5.666666666666667</ele><time>2026-04-25T14:24:07.962Z</time></trkpt><trkpt lat="40.1875217" lon="15.1510183"><ele>6.0</ele><time>2026-04-25T14:24:08.924Z</time></trkpt><trkpt lat="40.18765" lon="15.1509133"><ele>6.0</ele><time>2026-04-25T14:24:09.922Z</time></trkpt><trkpt lat="40.187765" lon="15.1508183"><ele>6.0</ele><time>2026-04-25T14:24:10.924Z</time></trkpt><trkpt lat="40.1878667" lon="15.1507383"><ele>6.0</ele><time>2026-04-25T14:24:11.931Z</time></trkpt><trkpt lat="40.1879583" lon="15.15067"><ele>6.0</ele><time>2026-04-25T14:24:12.921Z</time></trkpt><trkpt lat="40.1880467" lon="15.15061"><ele>6.0</ele><time>2026-04-25T14:24:13.962Z</time></trkpt><trkpt lat="40.1881233" lon="15.150555"><ele>6.0</ele><time>2026-04-25T14:24:14.925Z</time></trkpt><trkpt lat="40.188195" lon="15.15051"><ele>6.0</ele><time>2026-04-25T14:24:15.927Z</time></trkpt><trkpt lat="40.1882583" lon="15.1504683"><ele>6.0</ele><time>2026-04-25T14:24:16.934Z</time></trkpt><trkpt lat="40.1883483" lon="15.1503717"><ele>6.0</ele><time>2026-04-25T14:24:18.926Z</time></trkpt><trkpt lat="40.1882633" lon="15.15039"><ele>6.0</ele><time>2026-04-25T14:25:00.926Z</time></trkpt><trkpt lat="40.188195" lon="15.1503433"><ele>6.0</ele><time>2026-04-25T14:25:03.929Z</time></trkpt><trkpt lat="40.1881283" lon="15.1502767"><ele>6.0</ele><time>2026-04-25T14:25:04.925Z</time></trkpt><trkpt lat="40.1879983" lon="15.1501817"><ele>6.0</ele><time>2026-04-25T14:25:05.927Z</time></trkpt><trkpt lat="40.187875" lon="15.1500783"><ele>6.0</ele><time>2026-04-25T14:25:06.927Z</time></trkpt><trkpt lat="40.1877417" lon="15.14997"><ele>5.666666666666667</ele><time>2026-04-25T14:25:07.965Z</time></trkpt><trkpt lat="40.1875933" lon="15.1498583"><ele>5.333333333333334</ele><time>2026-04-25T14:25:08.927Z</time></trkpt><trkpt lat="40.187435" lon="15.1497467"><ele>5.0</ele><time>2026-04-25T14:25:09.922Z</time></trkpt><trkpt lat="40.1872867" lon="15.1496433"><ele>5.0</ele><time>2026-04-25T14:25:10.92Z</time></trkpt><trkpt lat="40.1871433" lon="15.1495433"><ele>5.0</ele><time>2026-04-25T14:25:11.926Z</time></trkpt><trkpt lat="40.187005" lon="15.1494433"><ele>5.0</ele><time>2026-04-25T14:25:12.921Z</time></trkpt><trkpt lat="40.1868733" lon="15.1493467"><ele>5.0</ele><time>2026-04-25T14:25:13.959Z</time></trkpt><trkpt lat="40.1867417" lon="15.1492517"><ele>5.0</ele><time>2026-04-25T14:25:14.928Z</time></trkpt><trkpt lat="40.1866133" lon="15.14916"><ele>5.0</ele><time>2026-04-25T14:25:15.932Z</time></trkpt><trkpt lat="40.186485" lon="15.14907"><ele>5.0</ele><time>2026-04-25T14:25:16.926Z</time></trkpt><trkpt lat="40.1863583" lon="15.14898"><ele>5.5</ele><time>2026-04-25T14:25:17.923Z</time></trkpt><trkpt lat="40.1862317" lon="15.1488917"><ele>6.0</ele><time>2026-04-25T14:25:18.933Z</time></trkpt><trkpt lat="40.1861083" lon="15.1488"><ele>6.5</ele><time>2026-04-25T14:25:19.955Z</time></trkpt><trkpt lat="40.1859783" lon="15.1487083"><ele>7.0</ele><time>2026-04-25T14:25:20.924Z</time></trkpt><trkpt lat="40.185845" lon="15.1486167"><ele>7.0</ele><time>2026-04-25T14:25:21.92Z</time></trkpt><trkpt lat="40.1857067" lon="15.14852"><ele>7.0</ele><time>2026-04-25T14:25:22.924Z</time></trkpt><trkpt lat="40.185565" lon="15.14842"><ele>7.0</ele><time>2026-04-25T14:25:23.933Z</time></trkpt><trkpt lat="40.1854217" lon="15.1483133"><ele>6.0</ele><time>2026-04-25T14:25:24.922Z</time></trkpt><trkpt lat="40.1852733" lon="15.148205"><ele>5.0</ele><time>2026-04-25T14:25:25.992Z</time></trkpt><trkpt lat="40.1851183" lon="15.148095"><ele>4.0</ele><time>2026-04-25T14:25:26.924Z</time></trkpt><trkpt lat="40.1849583" lon="15.1479783"><ele>4.333333333333333</ele><time>2026-04-25T14:25:27.93Z</time></trkpt><trkpt lat="40.1847867" lon="15.147855"><ele>4.666666666666667</ele><time>2026-04-25T14:25:28.928Z</time></trkpt><trkpt lat="40.1846133" lon="15.1477333"><ele>5.0</ele><time>2026-04-25T14:25:29.923Z</time></trkpt><trkpt lat="40.1844483" lon="15.1476167"><ele>5.0</ele><time>2026-04-25T14:25:30.923Z</time></trkpt><trkpt lat="40.18429" lon="15.1475033"><ele>5.0</ele><time>2026-04-25T14:25:31.981Z</time></trkpt><trkpt lat="40.18414" lon="15.1473967"><ele>5.0</ele><time>2026-04-25T14:25:32.922Z</time></trkpt><trkpt lat="40.1840017" lon="15.1472933"><ele>4.5</ele><time>2026-04-25T14:25:33.923Z</time></trkpt><trkpt lat="40.183875" lon="15.1472017"><ele>4.0</ele><time>2026-04-25T14:25:34.924Z</time></trkpt><trkpt lat="40.1837583" lon="15.1471233"><ele>3.5</ele><time>2026-04-25T14:25:35.926Z</time></trkpt><trkpt lat="40.1836533" lon="15.147065"><ele>3.0</ele><time>2026-04-25T14:25:36.921Z</time></trkpt><trkpt lat="40.183565" lon="15.1470317"><ele>3.0</ele><time>2026-04-25T14:25:37.958Z</time></trkpt><trkpt lat="40.18349" lon="15.1470033"><ele>3.0</ele><time>2026-04-25T14:25:38.922Z</time></trkpt><trkpt lat="40.1834017" lon="15.14692"><ele>3.0</ele><time>2026-04-25T14:25:40.922Z</time></trkpt><trkpt lat="40.1833933" lon="15.1468133"><ele>3.0</ele><time>2026-04-25T14:25:42.921Z</time></trkpt><trkpt lat="40.1834983" lon="15.1466733"><ele>3.0</ele><time>2026-04-25T14:25:44.923Z</time></trkpt><trkpt lat="40.1835767" lon="15.146585"><ele>3.0</ele><time>2026-04-25T14:25:45.925Z</time></trkpt><trkpt lat="40.1836583" lon="15.1464967"><ele>3.0</ele><time>2026-04-25T14:25:46.925Z</time></trkpt><trkpt lat="40.1837467" lon="15.14641"><ele>3.0</ele><time>2026-04-25T14:25:47.925Z</time></trkpt><trkpt lat="40.1838383" lon="15.146325"><ele>3.0</ele><time>2026-04-25T14:25:48.927Z</time></trkpt><trkpt lat="40.1839333" lon="15.1462283"><ele>3.0</ele><time>2026-04-25T14:25:49.957Z</time></trkpt><trkpt lat="40.18403" lon="15.146115"><ele>3.25</ele><time>2026-04-25T14:25:50.924Z</time></trkpt><trkpt lat="40.1841233" lon="15.145995"><ele>3.5</ele><time>2026-04-25T14:25:51.925Z</time></trkpt><trkpt lat="40.1842183" lon="15.145875"><ele>3.75</ele><time>2026-04-25T14:25:52.928Z</time></trkpt><trkpt lat="40.1843133" lon="15.1457617"><ele>4.0</ele><time>2026-04-25T14:25:53.936Z</time></trkpt><trkpt lat="40.1844067" lon="15.1456483"><ele>4.0</ele><time>2026-04-25T14:25:54.922Z</time></trkpt><trkpt lat="40.1845067" lon="15.14554"><ele>4.0</ele><time>2026-04-25T14:25:55.965Z</time></trkpt><trkpt lat="40.18461" lon="15.1454333"><ele>4.0</ele><time>2026-04-25T14:25:56.926Z</time></trkpt><trkpt lat="40.1847167" lon="15.145325"><ele>4.0</ele><time>2026-04-25T14:25:57.93Z</time></trkpt><trkpt lat="40.1848283" lon="15.14522"><ele>4.25</ele><time>2026-04-25T14:25:58.928Z</time></trkpt><trkpt lat="40.18494" lon="15.1451217"><ele>4.5</ele><time>2026-04-25T14:25:59.936Z</time></trkpt><trkpt lat="40.1850533" lon="15.1450317"><ele>4.75</ele><time>2026-04-25T14:26:00.927Z</time></trkpt><trkpt lat="40.1851683" lon="15.144945"><ele>5.0</ele><time>2026-04-25T14:26:01.988Z</time></trkpt><trkpt lat="40.1852867" lon="15.1448633"><ele>5.0</ele><time>2026-04-25T14:26:02.921Z</time></trkpt><trkpt lat="40.1854067" lon="15.1447933"><ele>5.0</ele><time>2026-04-25T14:26:03.921Z</time></trkpt><trkpt lat="40.1855283" lon="15.1447217"><ele>5.0</ele><time>2026-04-25T14:26:04.934Z</time></trkpt><trkpt lat="40.1856517" lon="15.14465"><ele>5.0</ele><time>2026-04-25T14:26:05.928Z</time></trkpt><trkpt lat="40.18578" lon="15.1445767"><ele>5.0</ele><time>2026-04-25T14:26:06.947Z</time></trkpt><trkpt lat="40.185905" lon="15.1445017"><ele>5.0</ele><time>2026-04-25T14:26:07.954Z</time></trkpt><trkpt lat="40.1860267" lon="15.144425"><ele>5.0</ele><time>2026-04-25T14:26:08.923Z</time></trkpt><trkpt lat="40.186155" lon="15.1443483"><ele>5.0</ele><time>2026-04-25T14:26:09.928Z</time></trkpt><trkpt lat="40.1862883" lon="15.1442633"><ele>5.0</ele><time>2026-04-25T14:26:10.924Z</time></trkpt><trkpt lat="40.18642" lon="15.1441717"><ele>5.0</ele><time>2026-04-25T14:26:11.925Z</time></trkpt><trkpt lat="40.1865483" lon="15.1440767"><ele>5.0</ele><time>2026-04-25T14:26:12.922Z</time></trkpt><trkpt lat="40.1866733" lon="15.143975"><ele>5.0</ele><time>2026-04-25T14:26:13.96Z</time></trkpt><trkpt lat="40.1867917" lon="15.14387"><ele>4.75</ele><time>2026-04-25T14:26:14.925Z</time></trkpt><trkpt lat="40.1869" lon="15.14376"><ele>4.5</ele><time>2026-04-25T14:26:15.925Z</time></trkpt><trkpt lat="40.1870017" lon="15.1436417"><ele>4.25</ele><time>2026-04-25T14:26:16.923Z</time></trkpt><trkpt lat="40.1871033" lon="15.1435217"><ele>4.0</ele><time>2026-04-25T14:26:17.919Z</time></trkpt><trkpt lat="40.1872017" lon="15.1433983"><ele>4.0</ele><time>2026-04-25T14:26:18.927Z</time></trkpt><trkpt lat="40.1872967" lon="15.14326"><ele>4.0</ele><time>2026-04-25T14:26:19.967Z</time></trkpt><trkpt lat="40.187385" lon="15.1431117"><ele>4.0</ele><time>2026-04-25T14:26:20.92Z</time></trkpt><trkpt lat="40.1874667" lon="15.1429567"><ele>4.0</ele><time>2026-04-25T14:26:21.932Z</time></trkpt><trkpt lat="40.1875417" lon="15.1428"><ele>4.25</ele><time>2026-04-25T14:26:22.923Z</time></trkpt><trkpt lat="40.18761" lon="15.1426467"><ele>4.5</ele><time>2026-04-25T14:26:23.924Z</time></trkpt><trkpt lat="40.1876717" lon="15.1424917"><ele>4.75</ele><time>2026-04-25T14:26:24.925Z</time></trkpt><trkpt lat="40.1877283" lon="15.1423333"><ele>5.0</ele><time>2026-04-25T14:26:25.999Z</time></trkpt><trkpt lat="40.1877817" lon="15.1421767"><ele>5.0</ele><time>2026-04-25T14:26:26.924Z</time></trkpt><trkpt lat="40.1878317" lon="15.1420167"><ele>5.0</ele><time>2026-04-25T14:26:27.925Z</time></trkpt><trkpt lat="40.1878817" lon="15.1418567"><ele>5.0</ele><time>2026-04-25T14:26:28.923Z</time></trkpt><trkpt lat="40.1879317" lon="15.141705"><ele>5.0</ele><time>2026-04-25T14:26:29.929Z</time></trkpt><trkpt lat="40.1879817" lon="15.1415667"><ele>4.8</ele><time>2026-04-25T14:26:30.925Z</time></trkpt><trkpt lat="40.1880417" lon="15.14144"><ele>4.6</ele><time>2026-04-25T14:26:31.984Z</time></trkpt><trkpt lat="40.1881083" lon="15.1413233"><ele>4.4</ele><time>2026-04-25T14:26:32.92Z</time></trkpt><trkpt lat="40.1881833" lon="15.141215"><ele>4.2</ele><time>2026-04-25T14:26:33.924Z</time></trkpt><trkpt lat="40.1882633" lon="15.1411167"><ele>4.0</ele><time>2026-04-25T14:26:34.923Z</time></trkpt><trkpt lat="40.18835" lon="15.14104"><ele>4.4</ele><time>2026-04-25T14:26:35.923Z</time></trkpt><trkpt lat="40.188445" lon="15.1409683"><ele>4.800000000000001</ele><time>2026-04-25T14:26:36.93Z</time></trkpt><trkpt lat="40.1885467" lon="15.1409217"><ele>5.199999999999999</ele><time>2026-04-25T14:26:37.962Z</time></trkpt><trkpt lat="40.1886533" lon="15.140895"><ele>5.6</ele><time>2026-04-25T14:26:38.925Z</time></trkpt><trkpt lat="40.1887583" lon="15.1408933"><ele>6.0</ele><time>2026-04-25T14:26:39.928Z</time></trkpt><trkpt lat="40.1888617" lon="15.140905"><ele>6.0</ele><time>2026-04-25T14:26:40.926Z</time></trkpt><trkpt lat="40.1889667" lon="15.14093"><ele>6.0</ele><time>2026-04-25T14:26:41.927Z</time></trkpt><trkpt lat="40.1890667" lon="15.14098"><ele>6.0</ele><time>2026-04-25T14:26:42.927Z</time></trkpt><trkpt lat="40.1891683" lon="15.1410517"><ele>6.0</ele><time>2026-04-25T14:26:43.958Z</time></trkpt><trkpt lat="40.1892583" lon="15.141155"><ele>6.0</ele><time>2026-04-25T14:26:44.924Z</time></trkpt><trkpt lat="40.189335" lon="15.141275"><ele>5.75</ele><time>2026-04-25T14:26:45.927Z</time></trkpt><trkpt lat="40.1894" lon="15.1414067"><ele>5.5</ele><time>2026-04-25T14:26:46.921Z</time></trkpt><trkpt lat="40.18945" lon="15.1415517"><ele>5.25</ele><time>2026-04-25T14:26:47.92Z</time></trkpt><trkpt lat="40.1894617" lon="15.14171"><ele>5.0</ele><time>2026-04-25T14:26:48.925Z</time></trkpt><trkpt lat="40.1894583" lon="15.1418683"><ele>5.0</ele><time>2026-04-25T14:26:49.957Z</time></trkpt><trkpt lat="40.1894417" lon="15.1420333"><ele>5.0</ele><time>2026-04-25T14:26:50.923Z</time></trkpt><trkpt lat="40.1894117" lon="15.1422067"><ele>5.0</ele><time>2026-04-25T14:26:51.928Z</time></trkpt><trkpt lat="40.1893717" lon="15.1423917"><ele>5.0</ele><time>2026-04-25T14:26:52.919Z</time></trkpt><trkpt lat="40.1893267" lon="15.14258"><ele>5.25</ele><time>2026-04-25T14:26:53.923Z</time></trkpt><trkpt lat="40.1892833" lon="15.142765"><ele>5.5</ele><time>2026-04-25T14:26:54.929Z</time></trkpt><trkpt lat="40.1892417" lon="15.14295"><ele>5.75</ele><time>2026-04-25T14:26:55.992Z</time></trkpt><trkpt lat="40.1892" lon="15.1431333"><ele>6.0</ele><time>2026-04-25T14:26:56.922Z</time></trkpt><trkpt lat="40.18916" lon="15.1433167"><ele>6.25</ele><time>2026-04-25T14:26:57.926Z</time></trkpt><trkpt lat="40.1891217" lon="15.1435067"><ele>6.5</ele><time>2026-04-25T14:26:58.926Z</time></trkpt><trkpt lat="40.1890817" lon="15.1436917"><ele>6.75</ele><time>2026-04-25T14:26:59.929Z</time></trkpt><trkpt lat="40.18904" lon="15.1438767"><ele>7.0</ele><time>2026-04-25T14:27:00.925Z</time></trkpt><trkpt lat="40.1889983" lon="15.14406"><ele>7.0</ele><time>2026-04-25T14:27:01.985Z</time></trkpt><trkpt lat="40.18896" lon="15.1442367"><ele>7.0</ele><time>2026-04-25T14:27:02.927Z</time></trkpt><trkpt lat="40.1889283" lon="15.144395"><ele>7.0</ele><time>2026-04-25T14:27:03.926Z</time></trkpt><trkpt lat="40.1889" lon="15.1445333"><ele>7.0</ele><time>2026-04-25T14:27:04.923Z</time></trkpt><trkpt lat="40.1888783" lon="15.1446567"><ele>7.000000000000001</ele><time>2026-04-25T14:27:05.924Z</time></trkpt><trkpt lat="40.18887" lon="15.14476"><ele>7.0</ele><time>2026-04-25T14:27:06.933Z</time></trkpt><trkpt lat="40.1888683" lon="15.1448583"><ele>7.0</ele><time>2026-04-25T14:27:07.962Z</time></trkpt><trkpt lat="40.1888733" lon="15.14497"><ele>7.0</ele><time>2026-04-25T14:27:08.921Z</time></trkpt><trkpt lat="40.1888883" lon="15.1450933"><ele>7.000000000000001</ele><time>2026-04-25T14:27:09.922Z</time></trkpt><trkpt lat="40.1889133" lon="15.1452267"><ele>7.0</ele><time>2026-04-25T14:27:10.935Z</time></trkpt><trkpt lat="40.1889517" lon="15.1453617"><ele>7.0</ele><time>2026-04-25T14:27:11.921Z</time></trkpt><trkpt lat="40.1889967" lon="15.145485"><ele>6.999999999999999</ele><time>2026-04-25T14:27:12.925Z</time></trkpt><trkpt lat="40.1890517" lon="15.1455983"><ele>6.999999999999999</ele><time>2026-04-25T14:27:13.962Z</time></trkpt><trkpt lat="40.18912" lon="15.1456817"><ele>7.0</ele><time>2026-04-25T14:27:14.924Z</time></trkpt><trkpt lat="40.1892067" lon="15.1457467"><ele>7.0</ele><time>2026-04-25T14:27:15.926Z</time></trkpt><trkpt lat="40.189305" lon="15.1458117"><ele>7.0</ele><time>2026-04-25T14:27:16.928Z</time></trkpt><trkpt lat="40.1894083" lon="15.1458717"><ele>7.0</ele><time>2026-04-25T14:27:17.931Z</time></trkpt><trkpt lat="40.18952" lon="15.14592"><ele>7.0</ele><time>2026-04-25T14:27:18.928Z</time></trkpt><trkpt lat="40.1896367" lon="15.1459683"><ele>7.0</ele><time>2026-04-25T14:27:19.958Z</time></trkpt><trkpt lat="40.1897583" lon="15.1460217"><ele>6.25</ele><time>2026-04-25T14:27:20.922Z</time></trkpt><trkpt lat="40.189885" lon="15.14608"><ele>5.5</ele><time>2026-04-25T14:27:21.923Z</time></trkpt><trkpt lat="40.1900167" lon="15.1461433"><ele>4.75</ele><time>2026-04-25T14:27:22.921Z</time></trkpt><trkpt lat="40.1901483" lon="15.1462067"><ele>4.0</ele><time>2026-04-25T14:27:23.924Z</time></trkpt><trkpt lat="40.1902833" lon="15.1462767"><ele>4.0</ele><time>2026-04-25T14:27:24.92Z</time></trkpt><trkpt lat="40.1904233" lon="15.1463433"><ele>4.0</ele><time>2026-04-25T14:27:25.992Z</time></trkpt><trkpt lat="40.1905633" lon="15.1464167"><ele>4.0</ele><time>2026-04-25T14:27:26.923Z</time></trkpt><trkpt lat="40.1907033" lon="15.14649"><ele>4.5</ele><time>2026-04-25T14:27:27.925Z</time></trkpt><trkpt lat="40.19084" lon="15.1465617"><ele>5.0</ele><time>2026-04-25T14:27:28.924Z</time></trkpt><trkpt lat="40.1909717" lon="15.1466417"><ele>5.5</ele><time>2026-04-25T14:27:29.928Z</time></trkpt><trkpt lat="40.1911017" lon="15.1467317"><ele>6.0</ele><time>2026-04-25T14:27:30.93Z</time></trkpt><trkpt lat="40.1912167" lon="15.1468467"><ele>6.0</ele><time>2026-04-25T14:27:31.985Z</time></trkpt><trkpt lat="40.1913283" lon="15.1469717"><ele>6.0</ele><time>2026-04-25T14:27:32.924Z</time></trkpt><trkpt lat="40.191425" lon="15.1471033"><ele>6.0</ele><time>2026-04-25T14:27:33.924Z</time></trkpt><trkpt lat="40.1915133" lon="15.1472333"><ele>6.0</ele><time>2026-04-25T14:27:34.931Z</time></trkpt><trkpt lat="40.1915833" lon="15.1473533"><ele>6.0</ele><time>2026-04-25T14:27:35.931Z</time></trkpt><trkpt lat="40.1916317" lon="15.1474667"><ele>6.0</ele><time>2026-04-25T14:27:36.921Z</time></trkpt><trkpt lat="40.1916583" lon="15.1475883"><ele>6.0</ele><time>2026-04-25T14:27:37.96Z</time></trkpt><trkpt lat="40.19167" lon="15.1477067"><ele>6.0</ele><time>2026-04-25T14:27:38.926Z</time></trkpt><trkpt lat="40.1916933" lon="15.1478267"><ele>6.0</ele><time>2026-04-25T14:27:39.927Z</time></trkpt><trkpt lat="40.1917317" lon="15.1479417"><ele>6.0</ele><time>2026-04-25T14:27:40.92Z</time></trkpt><trkpt lat="40.19178" lon="15.14806"><ele>6.0</ele><time>2026-04-25T14:27:41.921Z</time></trkpt><trkpt lat="40.1918467" lon="15.1481783"><ele>6.0</ele><time>2026-04-25T14:27:42.921Z</time></trkpt><trkpt lat="40.19194" lon="15.14831"><ele>6.0</ele><time>2026-04-25T14:27:43.958Z</time></trkpt><trkpt lat="40.1920167" lon="15.1484517"><ele>6.25</ele><time>2026-04-25T14:27:44.922Z</time></trkpt><trkpt lat="40.192085" lon="15.1486133"><ele>6.5</ele><time>2026-04-25T14:27:45.924Z</time></trkpt><trkpt lat="40.19215" lon="15.1487883"><ele>6.75</ele><time>2026-04-25T14:27:46.921Z</time></trkpt><trkpt lat="40.19221" lon="15.1489767"><ele>7.0</ele><time>2026-04-25T14:27:47.932Z</time></trkpt><trkpt lat="40.1922717" lon="15.14917"><ele>7.0</ele><time>2026-04-25T14:27:48.925Z</time></trkpt><trkpt lat="40.1923383" lon="15.1493817"><ele>7.0</ele><time>2026-04-25T14:27:49.961Z</time></trkpt><trkpt lat="40.1924183" lon="15.1496067"><ele>7.0</ele><time>2026-04-25T14:27:50.92Z</time></trkpt><trkpt lat="40.1924983" lon="15.149825"><ele>7.333333333333334</ele><time>2026-04-25T14:27:51.923Z</time></trkpt><trkpt lat="40.1925783" lon="15.1500383"><ele>7.666666666666666</ele><time>2026-04-25T14:27:52.923Z</time></trkpt><trkpt lat="40.1926533" lon="15.1502483"><ele>8.0</ele><time>2026-04-25T14:27:53.925Z</time></trkpt><trkpt lat="40.19272" lon="15.1504467"><ele>8.0</ele><time>2026-04-25T14:27:54.929Z</time></trkpt><trkpt lat="40.1927833" lon="15.1506433"><ele>8.0</ele><time>2026-04-25T14:27:55.994Z</time></trkpt><trkpt lat="40.1928417" lon="15.1508283"><ele>8.0</ele><time>2026-04-25T14:27:56.921Z</time></trkpt><trkpt lat="40.1929" lon="15.150995"><ele>8.25</ele><time>2026-04-25T14:27:57.924Z</time></trkpt><trkpt lat="40.1929567" lon="15.1511567"><ele>8.5</ele><time>2026-04-25T14:27:58.918Z</time></trkpt><trkpt lat="40.1930217" lon="15.1513117"><ele>8.75</ele><time>2026-04-25T14:27:59.926Z</time></trkpt><trkpt lat="40.193095" lon="15.1514467"><ele>9.0</ele><time>2026-04-25T14:28:00.929Z</time></trkpt><trkpt lat="40.1931817" lon="15.1515767"><ele>8.5</ele><time>2026-04-25T14:28:01.984Z</time></trkpt><trkpt lat="40.193275" lon="15.1516983"><ele>8.0</ele><time>2026-04-25T14:28:02.92Z</time></trkpt><trkpt lat="40.1933683" lon="15.15181"><ele>7.5</ele><time>2026-04-25T14:28:03.926Z</time></trkpt><trkpt lat="40.1934633" lon="15.1519117"><ele>7.0</ele><time>2026-04-25T14:28:04.928Z</time></trkpt><trkpt lat="40.1935583" lon="15.1520033"><ele>7.0</ele><time>2026-04-25T14:28:05.926Z</time></trkpt><trkpt lat="40.19366" lon="15.152085"><ele>6.999999999999999</ele><time>2026-04-25T14:28:06.93Z</time></trkpt><trkpt lat="40.1937633" lon="15.1521483"><ele>6.999999999999999</ele><time>2026-04-25T14:28:07.959Z</time></trkpt><trkpt lat="40.1938667" lon="15.1521833"><ele>7.0</ele><time>2026-04-25T14:28:08.919Z</time></trkpt><trkpt lat="40.1939617" lon="15.1521917"><ele>7.0</ele><time>2026-04-25T14:28:09.922Z</time></trkpt><trkpt lat="40.1940517" lon="15.1521783"><ele>7.0</ele><time>2026-04-25T14:28:10.927Z</time></trkpt><trkpt lat="40.19414" lon="15.1521233"><ele>7.0</ele><time>2026-04-25T14:28:11.929Z</time></trkpt><trkpt lat="40.1942283" lon="15.1520433"><ele>7.0</ele><time>2026-04-25T14:28:12.923Z</time></trkpt><trkpt lat="40.1943267" lon="15.151955"><ele>7.0</ele><time>2026-04-25T14:28:13.959Z</time></trkpt><trkpt lat="40.1944333" lon="15.1518567"><ele>7.0</ele><time>2026-04-25T14:28:14.919Z</time></trkpt><trkpt lat="40.19455" lon="15.1517467"><ele>7.0</ele><time>2026-04-25T14:28:15.92Z</time></trkpt><trkpt lat="40.194665" lon="15.1516383"><ele>7.0</ele><time>2026-04-25T14:28:16.927Z</time></trkpt><trkpt lat="40.1947833" lon="15.1515367"><ele>7.0</ele><time>2026-04-25T14:28:17.922Z</time></trkpt><trkpt lat="40.1948933" lon="15.1514467"><ele>7.199999999999999</ele><time>2026-04-25T14:28:18.926Z</time></trkpt><trkpt lat="40.194995" lon="15.1513683"><ele>7.3999999999999995</ele><time>2026-04-25T14:28:19.958Z</time></trkpt><trkpt lat="40.19508" lon="15.151315"><ele>7.6000000000000005</ele><time>2026-04-25T14:28:20.93Z</time></trkpt><trkpt lat="40.1951583" lon="15.1512817"><ele>7.800000000000001</ele><time>2026-04-25T14:28:21.921Z</time></trkpt><trkpt lat="40.1952383" lon="15.1512667"><ele>8.0</ele><time>2026-04-25T14:28:22.924Z</time></trkpt><trkpt lat="40.1953267" lon="15.151315"><ele>8.0</ele><time>2026-04-25T14:28:23.925Z</time></trkpt><trkpt lat="40.1954133" lon="15.1513833"><ele>8.0</ele><time>2026-04-25T14:28:24.922Z</time></trkpt><trkpt lat="40.1954883" lon="15.1514633"><ele>8.0</ele><time>2026-04-25T14:28:25.971Z</time></trkpt><trkpt lat="40.1955567" lon="15.1515517"><ele>8.0</ele><time>2026-04-25T14:28:26.92Z</time></trkpt><trkpt lat="40.1955817" lon="15.1517317"><ele>8.0</ele><time>2026-04-25T14:28:27.929Z</time></trkpt><trkpt lat="40.1956183" lon="15.1518883"><ele>8.0</ele><time>2026-04-25T14:28:28.926Z</time></trkpt><trkpt lat="40.1956483" lon="15.1520617"><ele>8.0</ele><time>2026-04-25T14:28:29.923Z</time></trkpt><trkpt lat="40.1956683" lon="15.15225"><ele>8.0</ele><time>2026-04-25T14:28:30.923Z</time></trkpt><trkpt lat="40.1956883" lon="15.152455"><ele>8.0</ele><time>2026-04-25T14:28:31.985Z</time></trkpt><trkpt lat="40.19571" lon="15.1526733"><ele>8.0</ele><time>2026-04-25T14:28:32.926Z</time></trkpt><trkpt lat="40.1957317" lon="15.1528983"><ele>8.0</ele><time>2026-04-25T14:28:33.923Z</time></trkpt><trkpt lat="40.1957533" lon="15.153115"><ele>8.0</ele><time>2026-04-25T14:28:34.923Z</time></trkpt><trkpt lat="40.1957767" lon="15.1533233"><ele>7.75</ele><time>2026-04-25T14:28:35.925Z</time></trkpt><trkpt lat="40.1957983" lon="15.1535233"><ele>7.5</ele><time>2026-04-25T14:28:36.929Z</time></trkpt><trkpt lat="40.1958233" lon="15.1537033"><ele>7.25</ele><time>2026-04-25T14:28:37.957Z</time></trkpt><trkpt lat="40.1958383" lon="15.15387"><ele>7.0</ele><time>2026-04-25T14:28:38.922Z</time></trkpt><trkpt lat="40.1958467" lon="15.1540267"><ele>7.25</ele><time>2026-04-25T14:28:39.925Z</time></trkpt><trkpt lat="40.1958367" lon="15.154175"><ele>7.5</ele><time>2026-04-25T14:28:40.923Z</time></trkpt><trkpt lat="40.19581" lon="15.1543233"><ele>7.75</ele><time>2026-04-25T14:28:41.925Z</time></trkpt><trkpt lat="40.195765" lon="15.1544767"><ele>8.0</ele><time>2026-04-25T14:28:42.922Z</time></trkpt><trkpt lat="40.1957133" lon="15.15462"><ele>8.4</ele><time>2026-04-25T14:28:43.958Z</time></trkpt><trkpt lat="40.1956617" lon="15.1547583"><ele>8.8</ele><time>2026-04-25T14:28:44.924Z</time></trkpt><trkpt lat="40.1956233" lon="15.1548917"><ele>9.2</ele><time>2026-04-25T14:28:45.926Z</time></trkpt><trkpt lat="40.1956017" lon="15.15503"><ele>9.6</ele><time>2026-04-25T14:28:46.924Z</time></trkpt><trkpt lat="40.1955917" lon="15.1551567"><ele>10.0</ele><time>2026-04-25T14:28:47.924Z</time></trkpt><trkpt lat="40.1956267" lon="15.1552967"><ele>9.666666666666668</ele><time>2026-04-25T14:28:48.922Z</time></trkpt><trkpt lat="40.1956967" lon="15.15544"><ele>9.333333333333334</ele><time>2026-04-25T14:28:49.96Z</time></trkpt><trkpt lat="40.1957917" lon="15.1556067"><ele>9.0</ele><time>2026-04-25T14:28:50.927Z</time></trkpt><trkpt lat="40.1958867" lon="15.1557933"><ele>9.0</ele><time>2026-04-25T14:28:51.92Z</time></trkpt><trkpt lat="40.19597" lon="15.15597"><ele>9.0</ele><time>2026-04-25T14:28:52.919Z</time></trkpt><trkpt lat="40.1960433" lon="15.15615"><ele>9.0</ele><time>2026-04-25T14:28:53.929Z</time></trkpt><trkpt lat="40.1961067" lon="15.1563333"><ele>9.0</ele><time>2026-04-25T14:28:54.923Z</time></trkpt><trkpt lat="40.1961683" lon="15.1565083"><ele>9.0</ele><time>2026-04-25T14:28:55.994Z</time></trkpt><trkpt lat="40.1962283" lon="15.1566633"><ele>9.0</ele><time>2026-04-25T14:28:56.919Z</time></trkpt><trkpt lat="40.1962917" lon="15.1567967"><ele>9.0</ele><time>2026-04-25T14:28:57.926Z</time></trkpt><trkpt lat="40.1963583" lon="15.1569117"><ele>9.2</ele><time>2026-04-25T14:28:58.923Z</time></trkpt><trkpt lat="40.1964333" lon="15.157"><ele>9.4</ele><time>2026-04-25T14:28:59.924Z</time></trkpt><trkpt lat="40.1965183" lon="15.15708"><ele>9.6</ele><time>2026-04-25T14:29:00.922Z</time></trkpt><trkpt lat="40.1966067" lon="15.1571417"><ele>9.8</ele><time>2026-04-25T14:29:01.982Z</time></trkpt><trkpt lat="40.1966967" lon="15.157185"><ele>10.0</ele><time>2026-04-25T14:29:02.926Z</time></trkpt><trkpt lat="40.1967967" lon="15.15721"><ele>9.25</ele><time>2026-04-25T14:29:03.924Z</time></trkpt><trkpt lat="40.19691" lon="15.1572233"><ele>8.5</ele><time>2026-04-25T14:29:04.923Z</time></trkpt><trkpt lat="40.1970283" lon="15.1572283"><ele>7.75</ele><time>2026-04-25T14:29:05.931Z</time></trkpt><trkpt lat="40.1971417" lon="15.1572317"><ele>7.0</ele><time>2026-04-25T14:29:06.925Z</time></trkpt><trkpt lat="40.1972567" lon="15.1572333"><ele>7.25</ele><time>2026-04-25T14:29:07.967Z</time></trkpt><trkpt lat="40.197375" lon="15.1572333"><ele>7.5</ele><time>2026-04-25T14:29:08.923Z</time></trkpt><trkpt lat="40.1974967" lon="15.1572433"><ele>7.75</ele><time>2026-04-25T14:29:09.922Z</time></trkpt><trkpt lat="40.1976267" lon="15.1572533"><ele>8.0</ele><time>2026-04-25T14:29:10.926Z</time></trkpt><trkpt lat="40.1977583" lon="15.15726"><ele>8.0</ele><time>2026-04-25T14:29:11.925Z</time></trkpt><trkpt lat="40.1978867" lon="15.1572667"><ele>8.0</ele><time>2026-04-25T14:29:12.926Z</time></trkpt><trkpt lat="40.19802" lon="15.1572683"><ele>8.0</ele><time>2026-04-25T14:29:13.965Z</time></trkpt><trkpt lat="40.1981483" lon="15.1572767"><ele>8.0</ele><time>2026-04-25T14:29:14.923Z</time></trkpt><trkpt lat="40.1982717" lon="15.1572967"><ele>7.5</ele><time>2026-04-25T14:29:15.927Z</time></trkpt><trkpt lat="40.1983917" lon="15.15733"><ele>7.0</ele><time>2026-04-25T14:29:16.921Z</time></trkpt><trkpt lat="40.19851" lon="15.157365"><ele>6.5</ele><time>2026-04-25T14:29:17.93Z</time></trkpt><trkpt lat="40.1986167" lon="15.1574067"><ele>6.0</ele><time>2026-04-25T14:29:18.925Z</time></trkpt><trkpt lat="40.198725" lon="15.1574483"><ele>6.75</ele><time>2026-04-25T14:29:19.958Z</time></trkpt><trkpt lat="40.1988367" lon="15.1574983"><ele>7.5</ele><time>2026-04-25T14:29:20.924Z</time></trkpt><trkpt lat="40.1989483" lon="15.1575483"><ele>8.25</ele><time>2026-04-25T14:29:21.925Z</time></trkpt><trkpt lat="40.19906" lon="15.157595"><ele>9.0</ele><time>2026-04-25T14:29:22.925Z</time></trkpt><trkpt lat="40.199175" lon="15.1576433"><ele>9.0</ele><time>2026-04-25T14:29:23.934Z</time></trkpt><trkpt lat="40.1992967" lon="15.1576883"><ele>9.0</ele><time>2026-04-25T14:29:24.923Z</time></trkpt><trkpt lat="40.1994117" lon="15.157725"><ele>9.0</ele><time>2026-04-25T14:29:25.988Z</time></trkpt><trkpt lat="40.199525" lon="15.1577617"><ele>9.0</ele><time>2026-04-25T14:29:26.921Z</time></trkpt><trkpt lat="40.199635" lon="15.157805"><ele>9.0</ele><time>2026-04-25T14:29:27.93Z</time></trkpt><trkpt lat="40.1997417" lon="15.15785"><ele>9.0</ele><time>2026-04-25T14:29:28.928Z</time></trkpt><trkpt lat="40.1998467" lon="15.1579"><ele>9.0</ele><time>2026-04-25T14:29:29.921Z</time></trkpt><trkpt lat="40.1999467" lon="15.15796"><ele>9.0</ele><time>2026-04-25T14:29:30.923Z</time></trkpt><trkpt lat="40.2000417" lon="15.15802"><ele>9.0</ele><time>2026-04-25T14:29:31.985Z</time></trkpt><trkpt lat="40.20014" lon="15.158085"><ele>8.6</ele><time>2026-04-25T14:29:32.924Z</time></trkpt><trkpt lat="40.2002283" lon="15.1581517"><ele>8.2</ele><time>2026-04-25T14:29:33.929Z</time></trkpt><trkpt lat="40.2003133" lon="15.1582133"><ele>7.799999999999999</ele><time>2026-04-25T14:29:34.919Z</time></trkpt><trkpt lat="40.20039" lon="15.1582683"><ele>7.3999999999999995</ele><time>2026-04-25T14:29:35.925Z</time></trkpt><trkpt lat="40.2004533" lon="15.1583217"><ele>7.0</ele><time>2026-04-25T14:29:36.927Z</time></trkpt><trkpt lat="40.200475" lon="15.1584417"><ele>7.666666666666667</ele><time>2026-04-25T14:29:38.92Z</time></trkpt><trkpt lat="40.2004883" lon="15.15858"><ele>8.333333333333334</ele><time>2026-04-25T14:29:40.922Z</time></trkpt><trkpt lat="40.2004967" lon="15.1586783"><ele>9.0</ele><time>2026-04-25T14:29:42.927Z</time></trkpt><trkpt lat="40.20046" lon="15.1587633"><ele>9.666666666666666</ele><time>2026-04-25T14:29:45.929Z</time></trkpt><trkpt lat="40.2003983" lon="15.1588283"><ele>10.333333333333332</ele><time>2026-04-25T14:29:47.931Z</time></trkpt><trkpt lat="40.2004067" lon="15.1589333"><ele>11.0</ele><time>2026-04-25T14:29:51.919Z</time></trkpt><trkpt lat="40.2004433" lon="15.159005"><ele>11.142857142857142</ele><time>2026-04-25T14:29:53.927Z</time></trkpt><trkpt lat="40.2005017" lon="15.1590833"><ele>11.285714285714285</ele><time>2026-04-25T14:29:56.923Z</time></trkpt><trkpt lat="40.200565" lon="15.15909"><ele>11.428571428571427</ele><time>2026-04-25T14:29:58.919Z</time></trkpt><trkpt lat="40.20063" lon="15.1590733"><ele>11.571428571428571</ele><time>2026-04-25T14:30:00.928Z</time></trkpt><trkpt lat="40.2006933" lon="15.1590467"><ele>11.714285714285714</ele><time>2026-04-25T14:30:03.928Z</time></trkpt><trkpt lat="40.200765" lon="15.1590517"><ele>11.857142857142856</ele><time>2026-04-25T14:30:08.928Z</time></trkpt><trkpt lat="40.2008617" lon="15.1590367"><ele>12.0</ele><time>2026-04-25T14:30:10.922Z</time></trkpt><trkpt lat="40.200945" lon="15.1590167"><ele>12.0</ele><time>2026-04-25T14:30:11.923Z</time></trkpt><trkpt lat="40.20103" lon="15.1590033"><ele>12.0</ele><time>2026-04-25T14:30:12.924Z</time></trkpt><trkpt lat="40.201125" lon="15.1589783"><ele>12.0</ele><time>2026-04-25T14:30:13.96Z</time></trkpt><trkpt lat="40.2012083" lon="15.15896"><ele>12.0</ele><time>2026-04-25T14:30:14.921Z</time></trkpt><trkpt lat="40.2012833" lon="15.15894"><ele>12.0</ele><time>2026-04-25T14:30:15.923Z</time></trkpt><trkpt lat="40.2013533" lon="15.1589317"><ele>12.0</ele><time>2026-04-25T14:30:16.936Z</time></trkpt><trkpt lat="40.2014183" lon="15.1589167"><ele>11.999999999999998</ele><time>2026-04-25T14:30:17.923Z</time></trkpt><trkpt lat="40.201485" lon="15.1588933"><ele>12.0</ele><time>2026-04-25T14:30:18.93Z</time></trkpt><trkpt lat="40.2015583" lon="15.158875"><ele>12.0</ele><time>2026-04-25T14:30:19.961Z</time></trkpt><trkpt lat="40.20163" lon="15.1588583"><ele>12.0</ele><time>2026-04-25T14:30:20.923Z</time></trkpt><trkpt lat="40.2017033" lon="15.1588433"><ele>12.0</ele><time>2026-04-25T14:30:21.925Z</time></trkpt><trkpt lat="40.201775" lon="15.1588283"><ele>11.999999999999998</ele><time>2026-04-25T14:30:22.923Z</time></trkpt><trkpt lat="40.20184" lon="15.1588183"><ele>12.0</ele><time>2026-04-25T14:30:23.926Z</time></trkpt><trkpt lat="40.20191" lon="15.1588283"><ele>11.8</ele><time>2026-04-25T14:30:24.929Z</time></trkpt><trkpt lat="40.2020333" lon="15.1588383"><ele>11.6</ele><time>2026-04-25T14:30:26.922Z</time></trkpt><trkpt lat="40.2021283" lon="15.1589067"><ele>11.4</ele><time>2026-04-25T14:30:28.927Z</time></trkpt><trkpt lat="40.2021683" lon="15.1589717"><ele>11.200000000000001</ele><time>2026-04-25T14:30:29.928Z</time></trkpt><trkpt lat="40.202215" lon="15.1590567"><ele>11.0</ele><time>2026-04-25T14:30:30.924Z</time></trkpt><trkpt lat="40.202275" lon="15.1591633"><ele>11.5</ele><time>2026-04-25T14:30:31.98Z</time></trkpt><trkpt lat="40.2023367" lon="15.1592783"><ele>12.0</ele><time>2026-04-25T14:30:32.921Z</time></trkpt><trkpt lat="40.2023983" lon="15.159395"><ele>12.5</ele><time>2026-04-25T14:30:33.925Z</time></trkpt><trkpt lat="40.2024533" lon="15.1595267"><ele>13.0</ele><time>2026-04-25T14:30:34.931Z</time></trkpt><trkpt lat="40.2025" lon="15.1596733"><ele>13.0</ele><time>2026-04-25T14:30:35.928Z</time></trkpt><trkpt lat="40.2025317" lon="15.1598283"><ele>13.0</ele><time>2026-04-25T14:30:36.92Z</time></trkpt><trkpt lat="40.2025483" lon="15.1599933"><ele>13.0</ele><time>2026-04-25T14:30:37.958Z</time></trkpt><trkpt lat="40.2025533" lon="15.1601567"><ele>13.0</ele><time>2026-04-25T14:30:38.923Z</time></trkpt><trkpt lat="40.20255" lon="15.1603167"><ele>13.2</ele><time>2026-04-25T14:30:39.927Z</time></trkpt><trkpt lat="40.2025433" lon="15.1604633"><ele>13.4</ele><time>2026-04-25T14:30:40.92Z</time></trkpt><trkpt lat="40.202535" lon="15.1606"><ele>13.599999999999998</ele><time>2026-04-25T14:30:41.928Z</time></trkpt><trkpt lat="40.202525" lon="15.1607217"><ele>13.799999999999999</ele><time>2026-04-25T14:30:42.928Z</time></trkpt><trkpt lat="40.2025167" lon="15.1608383"><ele>14.0</ele><time>2026-04-25T14:30:43.961Z</time></trkpt><trkpt lat="40.20251" lon="15.1609533"><ele>14.000000000000002</ele><time>2026-04-25T14:30:44.921Z</time></trkpt><trkpt lat="40.2025017" lon="15.161065"><ele>14.0</ele><time>2026-04-25T14:30:45.924Z</time></trkpt><trkpt lat="40.2025" lon="15.1611717"><ele>14.0</ele><time>2026-04-25T14:30:46.922Z</time></trkpt><trkpt lat="40.2025083" lon="15.1612817"><ele>14.0</ele><time>2026-04-25T14:30:47.926Z</time></trkpt><trkpt lat="40.2025283" lon="15.1613967"><ele>14.000000000000002</ele><time>2026-04-25T14:30:48.928Z</time></trkpt><trkpt lat="40.20256" lon="15.1615117"><ele>14.0</ele><time>2026-04-25T14:30:49.952Z</time></trkpt><trkpt lat="40.202595" lon="15.1616183"><ele>14.333333333333334</ele><time>2026-04-25T14:30:50.922Z</time></trkpt><trkpt lat="40.202635" lon="15.161715"><ele>14.666666666666668</ele><time>2026-04-25T14:30:51.924Z</time></trkpt><trkpt lat="40.2026783" lon="15.1618017"><ele>15.0</ele><time>2026-04-25T14:30:52.924Z</time></trkpt><trkpt lat="40.202725" lon="15.1618783"><ele>15.333333333333332</ele><time>2026-04-25T14:30:53.922Z</time></trkpt><trkpt lat="40.202775" lon="15.1619433"><ele>15.666666666666666</ele><time>2026-04-25T14:30:54.926Z</time></trkpt><trkpt lat="40.202825" lon="15.162015"><ele>16.0</ele><time>2026-04-25T14:30:55.992Z</time></trkpt><trkpt lat="40.20288" lon="15.1620917"><ele>15.999999999999998</ele><time>2026-04-25T14:30:56.92Z</time></trkpt><trkpt lat="40.2029333" lon="15.1621667"><ele>16.0</ele><time>2026-04-25T14:30:57.923Z</time></trkpt><trkpt lat="40.202995" lon="15.162245"><ele>16.0</ele><time>2026-04-25T14:30:58.922Z</time></trkpt><trkpt lat="40.2030617" lon="15.1623183"><ele>16.0</ele><time>2026-04-25T14:30:59.925Z</time></trkpt><trkpt lat="40.2031367" lon="15.1623983"><ele>15.999999999999998</ele><time>2026-04-25T14:31:00.919Z</time></trkpt><trkpt lat="40.2032133" lon="15.1624767"><ele>16.0</ele><time>2026-04-25T14:31:01.981Z</time></trkpt><trkpt lat="40.20329" lon="15.1625583"><ele>16.0</ele><time>2026-04-25T14:31:02.92Z</time></trkpt><trkpt lat="40.20336" lon="15.162645"><ele>16.0</ele><time>2026-04-25T14:31:03.927Z</time></trkpt><trkpt lat="40.2034417" lon="15.1627233"><ele>16.0</ele><time>2026-04-25T14:31:04.923Z</time></trkpt><trkpt lat="40.203535" lon="15.1627967"><ele>16.0</ele><time>2026-04-25T14:31:05.923Z</time></trkpt><trkpt lat="40.203635" lon="15.162865"><ele>16.0</ele><time>2026-04-25T14:31:06.927Z</time></trkpt><trkpt lat="40.20375" lon="15.162925"><ele>16.0</ele><time>2026-04-25T14:31:07.956Z</time></trkpt><trkpt lat="40.20388" lon="15.162975"><ele>16.0</ele><time>2026-04-25T14:31:08.921Z</time></trkpt><trkpt lat="40.20403" lon="15.16303"><ele>16.0</ele><time>2026-04-25T14:31:09.925Z</time></trkpt><trkpt lat="40.204185" lon="15.1630883"><ele>16.25</ele><time>2026-04-25T14:31:10.92Z</time></trkpt><trkpt lat="40.2043267" lon="15.1631467"><ele>16.5</ele><time>2026-04-25T14:31:11.924Z</time></trkpt><trkpt lat="40.20444" lon="15.1632083"><ele>16.75</ele><time>2026-04-25T14:31:12.92Z</time></trkpt><trkpt lat="40.2045333" lon="15.163275"><ele>17.0</ele><time>2026-04-25T14:31:13.961Z</time></trkpt><trkpt lat="40.204605" lon="15.1633533"><ele>17.0</ele><time>2026-04-25T14:31:14.924Z</time></trkpt><trkpt lat="40.2046683" lon="15.16343"><ele>17.0</ele><time>2026-04-25T14:31:15.92Z</time></trkpt><trkpt lat="40.20467" lon="15.1635717"><ele>17.0</ele><time>2026-04-25T14:31:16.924Z</time></trkpt><trkpt lat="40.2046883" lon="15.1637283"><ele>17.0</ele><time>2026-04-25T14:31:17.925Z</time></trkpt><trkpt lat="40.2047133" lon="15.163905"><ele>17.5</ele><time>2026-04-25T14:31:18.927Z</time></trkpt><trkpt lat="40.2047467" lon="15.1640867"><ele>18.0</ele><time>2026-04-25T14:31:19.961Z</time></trkpt><trkpt lat="40.204775" lon="15.1642733"><ele>18.5</ele><time>2026-04-25T14:31:20.926Z</time></trkpt><trkpt lat="40.204795" lon="15.1644567"><ele>19.0</ele><time>2026-04-25T14:31:21.928Z</time></trkpt><trkpt lat="40.2048117" lon="15.1646333"><ele>19.0</ele><time>2026-04-25T14:31:22.925Z</time></trkpt><trkpt lat="40.20482" lon="15.1648067"><ele>19.0</ele><time>2026-04-25T14:31:23.923Z</time></trkpt><trkpt lat="40.204825" lon="15.1649733"><ele>19.0</ele><time>2026-04-25T14:31:24.924Z</time></trkpt><trkpt lat="40.2048317" lon="15.1651333"><ele>19.0</ele><time>2026-04-25T14:31:25.989Z</time></trkpt><trkpt lat="40.2048367" lon="15.1652917"><ele>19.75</ele><time>2026-04-25T14:31:26.922Z</time></trkpt><trkpt lat="40.2048317" lon="15.16544"><ele>20.5</ele><time>2026-04-25T14:31:27.925Z</time></trkpt><trkpt lat="40.2048033" lon="15.16559"><ele>21.25</ele><time>2026-04-25T14:31:28.929Z</time></trkpt><trkpt lat="40.2047417" lon="15.16574"><ele>22.0</ele><time>2026-04-25T14:31:29.924Z</time></trkpt><trkpt lat="40.2046583" lon="15.1658933"><ele>24.0</ele><time>2026-04-25T14:31:30.928Z</time></trkpt><trkpt lat="40.2045633" lon="15.16605"><ele>26.0</ele><time>2026-04-25T14:31:31.989Z</time></trkpt><trkpt lat="40.20448" lon="15.16622"><ele>28.0</ele><time>2026-04-25T14:31:32.925Z</time></trkpt><trkpt lat="40.204415" lon="15.1664033"><ele>31.0</ele><time>2026-04-25T14:31:33.93Z</time></trkpt><trkpt lat="40.2043717" lon="15.1665783"><ele>34.0</ele><time>2026-04-25T14:31:34.924Z</time></trkpt><trkpt lat="40.204325" lon="15.1667333"><ele>37.0</ele><time>2026-04-25T14:31:35.926Z</time></trkpt><trkpt lat="40.2042767" lon="15.1668533"><ele>40.0</ele><time>2026-04-25T14:31:36.925Z</time></trkpt><trkpt lat="40.2042217" lon="15.16694"><ele>40.0</ele><time>2026-04-25T14:31:37.975Z</time></trkpt><trkpt lat="40.2041517" lon="15.1669867"><ele>40.0</ele><time>2026-04-25T14:31:38.927Z</time></trkpt><trkpt lat="40.20404" lon="15.16699"><ele>40.0</ele><time>2026-04-25T14:31:39.928Z</time></trkpt><trkpt lat="40.203925" lon="15.1669933"><ele>40.0</ele><time>2026-04-25T14:31:40.922Z</time></trkpt><trkpt lat="40.2038183" lon="15.1670067"><ele>40.0</ele><time>2026-04-25T14:31:41.927Z</time></trkpt><trkpt lat="40.20374" lon="15.1670583"><ele>40.0</ele><time>2026-04-25T14:31:42.923Z</time></trkpt><trkpt lat="40.203685" lon="15.1671317"><ele>40.0</ele><time>2026-04-25T14:31:43.958Z</time></trkpt><trkpt lat="40.203655" lon="15.1672317"><ele>40.0</ele><time>2026-04-25T14:31:44.922Z</time></trkpt><trkpt lat="40.2036767" lon="15.1673467"><ele>40.0</ele><time>2026-04-25T14:31:45.922Z</time></trkpt><trkpt lat="40.2037583" lon="15.1674783"><ele>40.0</ele><time>2026-04-25T14:31:46.925Z</time></trkpt><trkpt lat="40.2038667" lon="15.167635"><ele>44.333333333333336</ele><time>2026-04-25T14:31:47.922Z</time></trkpt><trkpt lat="40.2040083" lon="15.1677833"><ele>48.66666666666667</ele><time>2026-04-25T14:31:48.922Z</time></trkpt><trkpt lat="40.204125" lon="15.1679017"><ele>53.0</ele><time>2026-04-25T14:31:49.956Z</time></trkpt><trkpt lat="40.2042183" lon="15.1680167"><ele>53.0</ele><time>2026-04-25T14:31:50.922Z</time></trkpt><trkpt lat="40.2042933" lon="15.168145"><ele>53.0</ele><time>2026-04-25T14:31:51.926Z</time></trkpt><trkpt lat="40.2043367" lon="15.168285"><ele>53.0</ele><time>2026-04-25T14:31:52.92Z</time></trkpt><trkpt lat="40.2043583" lon="15.168455"><ele>53.0</ele><time>2026-04-25T14:31:53.923Z</time></trkpt><trkpt lat="40.2043617" lon="15.168655"><ele>57.333333333333336</ele><time>2026-04-25T14:31:54.924Z</time></trkpt><trkpt lat="40.2043533" lon="15.1688733"><ele>61.66666666666667</ele><time>2026-04-25T14:31:55.996Z</time></trkpt><trkpt lat="40.2043333" lon="15.1691017"><ele>66.0</ele><time>2026-04-25T14:31:56.917Z</time></trkpt><trkpt lat="40.204305" lon="15.16932"><ele>67.75</ele><time>2026-04-25T14:31:57.933Z</time></trkpt><trkpt lat="40.2042717" lon="15.1695"><ele>69.5</ele><time>2026-04-25T14:31:58.918Z</time></trkpt><trkpt lat="40.2042367" lon="15.1696783"><ele>71.25</ele><time>2026-04-25T14:31:59.921Z</time></trkpt><trkpt lat="40.204205" lon="15.1698667"><ele>73.0</ele><time>2026-04-25T14:32:00.92Z</time></trkpt><trkpt lat="40.2041767" lon="15.17006"><ele>73.0</ele><time>2026-04-25T14:32:01.988Z</time></trkpt><trkpt lat="40.2041533" lon="15.1702617"><ele>73.0</ele><time>2026-04-25T14:32:02.922Z</time></trkpt><trkpt lat="40.204125" lon="15.170465"><ele>73.0</ele><time>2026-04-25T14:32:03.923Z</time></trkpt><trkpt lat="40.20409" lon="15.1706733"><ele>72.33333333333333</ele><time>2026-04-25T14:32:04.926Z</time></trkpt><trkpt lat="40.2040433" lon="15.1708683"><ele>71.66666666666667</ele><time>2026-04-25T14:32:05.923Z</time></trkpt><trkpt lat="40.2039783" lon="15.1710517"><ele>71.0</ele><time>2026-04-25T14:32:06.92Z</time></trkpt><trkpt lat="40.20391" lon="15.1712267"><ele>67.66666666666667</ele><time>2026-04-25T14:32:07.964Z</time></trkpt><trkpt lat="40.20384" lon="15.1714083"><ele>64.33333333333333</ele><time>2026-04-25T14:32:08.919Z</time></trkpt><trkpt lat="40.2037683" lon="15.17159"><ele>61.0</ele><time>2026-04-25T14:32:09.923Z</time></trkpt><trkpt lat="40.20369" lon="15.1717667"><ele>61.0</ele><time>2026-04-25T14:32:10.921Z</time></trkpt><trkpt lat="40.2036083" lon="15.171945"><ele>61.0</ele><time>2026-04-25T14:32:11.928Z</time></trkpt><trkpt lat="40.2035267" lon="15.1721267"><ele>61.0</ele><time>2026-04-25T14:32:12.922Z</time></trkpt><trkpt lat="40.2034517" lon="15.1723117"><ele>61.33333333333333</ele><time>2026-04-25T14:32:13.958Z</time></trkpt><trkpt lat="40.2033767" lon="15.172495"><ele>61.66666666666667</ele><time>2026-04-25T14:32:14.921Z</time></trkpt><trkpt lat="40.2032967" lon="15.17268"><ele>62.0</ele><time>2026-04-25T14:32:15.922Z</time></trkpt><trkpt lat="40.2032167" lon="15.1728633"><ele>59.0</ele><time>2026-04-25T14:32:16.928Z</time></trkpt><trkpt lat="40.2031467" lon="15.1730517"><ele>56.0</ele><time>2026-04-25T14:32:17.927Z</time></trkpt><trkpt lat="40.2030883" lon="15.1732383"><ele>53.0</ele><time>2026-04-25T14:32:18.925Z</time></trkpt><trkpt lat="40.2030433" lon="15.1734217"><ele>53.5</ele><time>2026-04-25T14:32:19.955Z</time></trkpt><trkpt lat="40.2030117" lon="15.1735917"><ele>54.0</ele><time>2026-04-25T14:32:20.918Z</time></trkpt><trkpt lat="40.2029833" lon="15.1737517"><ele>54.5</ele><time>2026-04-25T14:32:21.924Z</time></trkpt><trkpt lat="40.2029467" lon="15.1739017"><ele>55.0</ele><time>2026-04-25T14:32:22.92Z</time></trkpt><trkpt lat="40.2028917" lon="15.17403"><ele>55.0</ele><time>2026-04-25T14:32:23.929Z</time></trkpt><trkpt lat="40.2028183" lon="15.174135"><ele>55.0</ele><time>2026-04-25T14:32:24.926Z</time></trkpt><trkpt lat="40.2027033" lon="15.1742083"><ele>55.0</ele><time>2026-04-25T14:32:25.989Z</time></trkpt><trkpt lat="40.2025733" lon="15.17427"><ele>55.0</ele><time>2026-04-25T14:32:26.919Z</time></trkpt><trkpt lat="40.2024317" lon="15.1743417"><ele>51.75</ele><time>2026-04-25T14:32:27.92Z</time></trkpt><trkpt lat="40.2022867" lon="15.1744117"><ele>48.5</ele><time>2026-04-25T14:32:28.923Z</time></trkpt><trkpt lat="40.2021467" lon="15.1744733"><ele>45.25</ele><time>2026-04-25T14:32:29.921Z</time></trkpt><trkpt lat="40.2020083" lon="15.1745383"><ele>42.0</ele><time>2026-04-25T14:32:30.928Z</time></trkpt><trkpt lat="40.2018733" lon="15.174605"><ele>42.0</ele><time>2026-04-25T14:32:31.983Z</time></trkpt><trkpt lat="40.2017383" lon="15.17467"><ele>42.0</ele><time>2026-04-25T14:32:32.918Z</time></trkpt><trkpt lat="40.2016033" lon="15.1747267"><ele>42.0</ele><time>2026-04-25T14:32:33.926Z</time></trkpt><trkpt lat="40.2014683" lon="15.174775"><ele>42.0</ele><time>2026-04-25T14:32:34.923Z</time></trkpt><trkpt lat="40.201335" lon="15.1748117"><ele>41.5</ele><time>2026-04-25T14:32:35.92Z</time></trkpt><trkpt lat="40.2012067" lon="15.1748383"><ele>41.0</ele><time>2026-04-25T14:32:36.922Z</time></trkpt><trkpt lat="40.20108" lon="15.174855"><ele>40.5</ele><time>2026-04-25T14:32:37.963Z</time></trkpt><trkpt lat="40.2009633" lon="15.1748767"><ele>40.0</ele><time>2026-04-25T14:32:38.923Z</time></trkpt><trkpt lat="40.200865" lon="15.174905"><ele>39.0</ele><time>2026-04-25T14:32:39.927Z</time></trkpt><trkpt lat="40.2007983" lon="15.1749433"><ele>38.0</ele><time>2026-04-25T14:32:40.922Z</time></trkpt><trkpt lat="40.2007383" lon="15.17503"><ele>37.0</ele><time>2026-04-25T14:32:42.92Z</time></trkpt><trkpt lat="40.2007283" lon="15.1751383"><ele>36.0</ele><time>2026-04-25T14:32:44.926Z</time></trkpt><trkpt lat="40.2007533" lon="15.1752533"><ele>35.0</ele><time>2026-04-25T14:32:46.923Z</time></trkpt><trkpt lat="40.2007683" lon="15.1753633"><ele>34.0</ele><time>2026-04-25T14:43:28.924Z</time></trkpt><trkpt lat="40.2008133" lon="15.1754817"><ele>34.0</ele><time>2026-04-25T14:43:30.924Z</time></trkpt><trkpt lat="40.2008367" lon="15.175565"><ele>34.0</ele><time>2026-04-25T14:43:31.983Z</time></trkpt><trkpt lat="40.200865" lon="15.175665"><ele>34.0</ele><time>2026-04-25T14:43:32.915Z</time></trkpt><trkpt lat="40.2009033" lon="15.1757683"><ele>34.0</ele><time>2026-04-25T14:43:33.921Z</time></trkpt><trkpt lat="40.200955" lon="15.1758717"><ele>34.0</ele><time>2026-04-25T14:43:34.928Z</time></trkpt><trkpt lat="40.2010183" lon="15.175985"><ele>34.0</ele><time>2026-04-25T14:43:35.924Z</time></trkpt><trkpt lat="40.201095" lon="15.176095"><ele>34.5</ele><time>2026-04-25T14:43:36.919Z</time></trkpt><trkpt lat="40.2011767" lon="15.17621"><ele>35.0</ele><time>2026-04-25T14:43:37.977Z</time></trkpt><trkpt lat="40.2012767" lon="15.1763117"><ele>35.5</ele><time>2026-04-25T14:43:38.918Z</time></trkpt><trkpt lat="40.2013933" lon="15.1764083"><ele>36.0</ele><time>2026-04-25T14:43:39.919Z</time></trkpt><trkpt lat="40.2015233" lon="15.1764983"><ele>35.666666666666664</ele><time>2026-04-25T14:43:40.918Z</time></trkpt><trkpt lat="40.2016683" lon="15.176595"><ele>35.33333333333333</ele><time>2026-04-25T14:43:41.92Z</time></trkpt><trkpt lat="40.201815" lon="15.176705"><ele>35.0</ele><time>2026-04-25T14:43:42.917Z</time></trkpt><trkpt lat="40.201965" lon="15.1768117"><ele>35.0</ele><time>2026-04-25T14:43:43.983Z</time></trkpt><trkpt lat="40.2021067" lon="15.17693"><ele>35.0</ele><time>2026-04-25T14:43:44.916Z</time></trkpt><trkpt lat="40.2022467" lon="15.1770533"><ele>35.0</ele><time>2026-04-25T14:43:45.923Z</time></trkpt><trkpt lat="40.2023683" lon="15.1772017"><ele>36.0</ele><time>2026-04-25T14:43:46.918Z</time></trkpt><trkpt lat="40.202475" lon="15.1773583"><ele>37.0</ele><time>2026-04-25T14:43:47.919Z</time></trkpt><trkpt lat="40.2025633" lon="15.177525"><ele>38.0</ele><time>2026-04-25T14:43:48.919Z</time></trkpt><trkpt lat="40.2026483" lon="15.17769"><ele>38.0</ele><time>2026-04-25T14:43:49.98Z</time></trkpt><trkpt lat="40.2027383" lon="15.1778467"><ele>38.0</ele><time>2026-04-25T14:43:50.916Z</time></trkpt><trkpt lat="40.20284" lon="15.1779883"><ele>38.0</ele><time>2026-04-25T14:43:51.919Z</time></trkpt><trkpt lat="40.2029567" lon="15.1781117"><ele>38.0</ele><time>2026-04-25T14:43:52.919Z</time></trkpt><trkpt lat="40.2030883" lon="15.17821"><ele>38.33333333333333</ele><time>2026-04-25T14:43:53.925Z</time></trkpt><trkpt lat="40.2032267" lon="15.1782967"><ele>38.666666666666664</ele><time>2026-04-25T14:43:54.917Z</time></trkpt><trkpt lat="40.2033667" lon="15.1783833"><ele>39.0</ele><time>2026-04-25T14:43:55.991Z</time></trkpt><trkpt lat="40.2035017" lon="15.1784783"><ele>39.0</ele><time>2026-04-25T14:43:56.92Z</time></trkpt><trkpt lat="40.2036317" lon="15.1785883"><ele>39.0</ele><time>2026-04-25T14:43:57.924Z</time></trkpt><trkpt lat="40.2037567" lon="15.1787067"><ele>39.0</ele><time>2026-04-25T14:43:58.922Z</time></trkpt><trkpt lat="40.2038733" lon="15.1788317"><ele>39.0</ele><time>2026-04-25T14:43:59.921Z</time></trkpt><trkpt lat="40.2039867" lon="15.17896"><ele>39.0</ele><time>2026-04-25T14:44:00.923Z</time></trkpt><trkpt lat="40.2041" lon="15.17909"><ele>39.0</ele><time>2026-04-25T14:44:01.994Z</time></trkpt><trkpt lat="40.2042167" lon="15.179215"><ele>39.5</ele><time>2026-04-25T14:44:02.917Z</time></trkpt><trkpt lat="40.20433" lon="15.1793417"><ele>40.0</ele><time>2026-04-25T14:44:03.919Z</time></trkpt><trkpt lat="40.2044417" lon="15.1794683"><ele>40.5</ele><time>2026-04-25T14:44:04.922Z</time></trkpt><trkpt lat="40.2045467" lon="15.179605"><ele>41.0</ele><time>2026-04-25T14:44:05.923Z</time></trkpt><trkpt lat="40.2046383" lon="15.1797467"><ele>40.25</ele><time>2026-04-25T14:44:06.92Z</time></trkpt><trkpt lat="40.204715" lon="15.1798967"><ele>39.5</ele><time>2026-04-25T14:44:07.978Z</time></trkpt><trkpt lat="40.2047733" lon="15.1800517"><ele>38.75</ele><time>2026-04-25T14:44:08.919Z</time></trkpt><trkpt lat="40.2048117" lon="15.1802133"><ele>38.0</ele><time>2026-04-25T14:44:09.924Z</time></trkpt><trkpt lat="40.20483" lon="15.1803783"><ele>38.0</ele><time>2026-04-25T14:44:10.921Z</time></trkpt><trkpt lat="40.2048333" lon="15.180545"><ele>38.0</ele><time>2026-04-25T14:44:11.919Z</time></trkpt><trkpt lat="40.2048167" lon="15.180715"><ele>38.0</ele><time>2026-04-25T14:44:12.923Z</time></trkpt><trkpt lat="40.2047983" lon="15.180885"><ele>38.0</ele><time>2026-04-25T14:44:13.981Z</time></trkpt><trkpt lat="40.204785" lon="15.1810567"><ele>38.25</ele><time>2026-04-25T14:44:14.918Z</time></trkpt><trkpt lat="40.2047833" lon="15.1812333"><ele>38.5</ele><time>2026-04-25T14:44:15.921Z</time></trkpt><trkpt lat="40.2048" lon="15.1814083"><ele>38.75</ele><time>2026-04-25T14:44:16.92Z</time></trkpt><trkpt lat="40.2048283" lon="15.181595"><ele>39.0</ele><time>2026-04-25T14:44:17.922Z</time></trkpt><trkpt lat="40.2048717" lon="15.1817817"><ele>39.0</ele><time>2026-04-25T14:44:18.929Z</time></trkpt><trkpt lat="40.2049267" lon="15.1819717"><ele>39.0</ele><time>2026-04-25T14:44:19.983Z</time></trkpt><trkpt lat="40.2049933" lon="15.182165"><ele>39.0</ele><time>2026-04-25T14:44:20.919Z</time></trkpt><trkpt lat="40.2050617" lon="15.1823617"><ele>38.666666666666664</ele><time>2026-04-25T14:44:21.922Z</time></trkpt><trkpt lat="40.2051283" lon="15.18256"><ele>38.33333333333333</ele><time>2026-04-25T14:44:22.921Z</time></trkpt><trkpt lat="40.2051867" lon="15.1827567"><ele>38.0</ele><time>2026-04-25T14:44:23.922Z</time></trkpt><trkpt lat="40.2052383" lon="15.1829533"><ele>38.0</ele><time>2026-04-25T14:44:24.921Z</time></trkpt><trkpt lat="40.20528" lon="15.1831383"><ele>38.0</ele><time>2026-04-25T14:44:25.995Z</time></trkpt><trkpt lat="40.2053167" lon="15.1833117"><ele>38.0</ele><time>2026-04-25T14:44:26.922Z</time></trkpt><trkpt lat="40.2053483" lon="15.183465"><ele>38.0</ele><time>2026-04-25T14:44:27.922Z</time></trkpt><trkpt lat="40.2053733" lon="15.1836"><ele>37.83333333333333</ele><time>2026-04-25T14:44:28.919Z</time></trkpt><trkpt lat="40.2053883" lon="15.1837033"><ele>37.666666666666664</ele><time>2026-04-25T14:44:29.926Z</time></trkpt><trkpt lat="40.2053917" lon="15.183795"><ele>37.5</ele><time>2026-04-25T14:44:30.919Z</time></trkpt><trkpt lat="40.2053517" lon="15.1839133"><ele>37.333333333333336</ele><time>2026-04-25T14:44:32.926Z</time></trkpt><trkpt lat="40.2053083" lon="15.183975"><ele>37.16666666666667</ele><time>2026-04-25T14:44:33.923Z</time></trkpt><trkpt lat="40.20526" lon="15.18404"><ele>37.0</ele><time>2026-04-25T14:44:34.918Z</time></trkpt><trkpt lat="40.2052133" lon="15.184105"><ele>36.833333333333336</ele><time>2026-04-25T14:44:35.925Z</time></trkpt><trkpt lat="40.2051667" lon="15.1841833"><ele>36.66666666666667</ele><time>2026-04-25T14:44:36.919Z</time></trkpt><trkpt lat="40.2051183" lon="15.1842583"><ele>36.5</ele><time>2026-04-25T14:44:37.98Z</time></trkpt><trkpt lat="40.20507" lon="15.1843367"><ele>36.333333333333336</ele><time>2026-04-25T14:44:38.916Z</time></trkpt><trkpt lat="40.2050217" lon="15.1844083"><ele>36.166666666666664</ele><time>2026-04-25T14:44:39.923Z</time></trkpt><trkpt lat="40.2049767" lon="15.1844833"><ele>36.0</ele><time>2026-04-25T14:44:40.922Z</time></trkpt><trkpt lat="40.2049017" lon="15.184595"><ele>36.0</ele><time>2026-04-25T14:44:42.924Z</time></trkpt><trkpt lat="40.204835" lon="15.1847067"><ele>36.0</ele><time>2026-04-25T14:44:44.913Z</time></trkpt><trkpt lat="40.2047567" lon="15.1848317"><ele>36.0</ele><time>2026-04-25T14:44:46.914Z</time></trkpt><trkpt lat="40.2047117" lon="15.1849033"><ele>36.0</ele><time>2026-04-25T14:44:47.92Z</time></trkpt><trkpt lat="40.2046667" lon="15.1849783"><ele>36.0</ele><time>2026-04-25T14:44:48.922Z</time></trkpt><trkpt lat="40.2046233" lon="15.1850667"><ele>34.833333333333336</ele><time>2026-04-25T14:44:49.983Z</time></trkpt><trkpt lat="40.2045817" lon="15.185155"><ele>33.666666666666664</ele><time>2026-04-25T14:44:50.923Z</time></trkpt><trkpt lat="40.2045383" lon="15.1852367"><ele>32.5</ele><time>2026-04-25T14:44:51.915Z</time></trkpt><trkpt lat="40.2044883" lon="15.1853167"><ele>31.333333333333332</ele><time>2026-04-25T14:44:52.921Z</time></trkpt><trkpt lat="40.2044283" lon="15.185395"><ele>30.166666666666664</ele><time>2026-04-25T14:44:53.926Z</time></trkpt><trkpt lat="40.2043667" lon="15.1854733"><ele>29.0</ele><time>2026-04-25T14:44:54.917Z</time></trkpt><trkpt lat="40.2043067" lon="15.1855517"><ele>28.999999999999996</ele><time>2026-04-25T14:44:55.994Z</time></trkpt><trkpt lat="40.20425" lon="15.185625"><ele>29.0</ele><time>2026-04-25T14:44:56.919Z</time></trkpt><trkpt lat="40.2042017" lon="15.1856933"><ele>29.0</ele><time>2026-04-25T14:44:57.921Z</time></trkpt><trkpt lat="40.2041217" lon="15.1858067"><ele>29.0</ele><time>2026-04-25T14:44:59.921Z</time></trkpt><trkpt lat="40.2040383" lon="15.185875"><ele>28.999999999999996</ele><time>2026-04-25T14:45:01.988Z</time></trkpt><trkpt lat="40.2039617" lon="15.1858833"><ele>29.0</ele><time>2026-04-25T14:45:03.922Z</time></trkpt><trkpt lat="40.203905" lon="15.1858467"><ele>28.799999999999997</ele><time>2026-04-25T14:45:05.927Z</time></trkpt><trkpt lat="40.2038567" lon="15.1857783"><ele>28.599999999999998</ele><time>2026-04-25T14:45:07.975Z</time></trkpt><trkpt lat="40.2037583" lon="15.1857717"><ele>28.4</ele><time>2026-04-25T14:45:10.922Z</time></trkpt><trkpt lat="40.2036867" lon="15.1858367"><ele>28.2</ele><time>2026-04-25T14:45:12.919Z</time></trkpt><trkpt lat="40.20364" lon="15.1859283"><ele>28.0</ele><time>2026-04-25T14:45:14.927Z</time></trkpt><trkpt lat="40.2036167" lon="15.1860733"><ele>28.000000000000004</ele><time>2026-04-25T14:45:16.914Z</time></trkpt><trkpt lat="40.2036333" lon="15.1862333"><ele>28.0</ele><time>2026-04-25T14:45:18.918Z</time></trkpt><trkpt lat="40.2036567" lon="15.18633"><ele>28.0</ele><time>2026-04-25T14:45:19.98Z</time></trkpt><trkpt lat="40.2036783" lon="15.1864333"><ele>28.0</ele><time>2026-04-25T14:45:20.918Z</time></trkpt><trkpt lat="40.2036917" lon="15.18654"><ele>28.000000000000004</ele><time>2026-04-25T14:45:21.92Z</time></trkpt><trkpt lat="40.2037" lon="15.1866483"><ele>28.0</ele><time>2026-04-25T14:45:22.918Z</time></trkpt><trkpt lat="40.2037" lon="15.1867717"><ele>28.166666666666668</ele><time>2026-04-25T14:45:23.92Z</time></trkpt><trkpt lat="40.2036867" lon="15.18689"><ele>28.333333333333336</ele><time>2026-04-25T14:45:24.919Z</time></trkpt><trkpt lat="40.2036667" lon="15.1870033"><ele>28.5</ele><time>2026-04-25T14:45:25.98Z</time></trkpt><trkpt lat="40.2036467" lon="15.1871133"><ele>28.666666666666664</ele><time>2026-04-25T14:45:26.924Z</time></trkpt><trkpt lat="40.20363" lon="15.1872217"><ele>28.833333333333332</ele><time>2026-04-25T14:45:27.919Z</time></trkpt><trkpt lat="40.2036133" lon="15.1873317"><ele>29.0</ele><time>2026-04-25T14:45:28.919Z</time></trkpt><trkpt lat="40.2035917" lon="15.1874433"><ele>29.4</ele><time>2026-04-25T14:45:29.921Z</time></trkpt><trkpt lat="40.2035633" lon="15.1875667"><ele>29.799999999999997</ele><time>2026-04-25T14:45:30.92Z</time></trkpt><trkpt lat="40.2035333" lon="15.1876883"><ele>30.200000000000003</ele><time>2026-04-25T14:45:31.989Z</time></trkpt><trkpt lat="40.203495" lon="15.1878117"><ele>30.6</ele><time>2026-04-25T14:45:32.918Z</time></trkpt><trkpt lat="40.2034567" lon="15.187935"><ele>31.0</ele><time>2026-04-25T14:45:33.924Z</time></trkpt><trkpt lat="40.2034317" lon="15.188055"><ele>31.0</ele><time>2026-04-25T14:45:34.917Z</time></trkpt><trkpt lat="40.2034117" lon="15.1881567"><ele>31.0</ele><time>2026-04-25T14:45:35.919Z</time></trkpt><trkpt lat="40.203395" lon="15.1882533"><ele>31.0</ele><time>2026-04-25T14:45:36.92Z</time></trkpt><trkpt lat="40.2033883" lon="15.1883517"><ele>31.0</ele><time>2026-04-25T14:45:37.98Z</time></trkpt><trkpt lat="40.2034033" lon="15.1885"><ele>31.0</ele><time>2026-04-25T14:45:39.922Z</time></trkpt><trkpt lat="40.2033917" lon="15.188645"><ele>31.666666666666668</ele><time>2026-04-25T14:45:41.922Z</time></trkpt><trkpt lat="40.2033817" lon="15.188735"><ele>32.333333333333336</ele><time>2026-04-25T14:45:42.92Z</time></trkpt><trkpt lat="40.20337" lon="15.1888333"><ele>33.0</ele><time>2026-04-25T14:45:43.973Z</time></trkpt><trkpt lat="40.20336" lon="15.1889417"><ele>33.666666666666664</ele><time>2026-04-25T14:45:44.917Z</time></trkpt><trkpt lat="40.2033583" lon="15.1890383"><ele>34.33333333333333</ele><time>2026-04-25T14:45:45.919Z</time></trkpt><trkpt lat="40.2033467" lon="15.1891233"><ele>35.0</ele><time>2026-04-25T14:45:46.924Z</time></trkpt><trkpt lat="40.2033" lon="15.1892517"><ele>35.166666666666664</ele><time>2026-04-25T14:45:48.925Z</time></trkpt><trkpt lat="40.2032583" lon="15.1893983"><ele>35.33333333333333</ele><time>2026-04-25T14:45:50.919Z</time></trkpt><trkpt lat="40.203255" lon="15.1894917"><ele>35.5</ele><time>2026-04-25T14:45:51.92Z</time></trkpt><trkpt lat="40.2032783" lon="15.189585"><ele>35.666666666666664</ele><time>2026-04-25T14:45:52.915Z</time></trkpt><trkpt lat="40.2033067" lon="15.1896767"><ele>35.833333333333336</ele><time>2026-04-25T14:45:53.925Z</time></trkpt><trkpt lat="40.2033433" lon="15.18975"><ele>36.0</ele><time>2026-04-25T14:45:54.918Z</time></trkpt><trkpt lat="40.2034" lon="15.1898333"><ele>36.2</ele><time>2026-04-25T14:45:56.914Z</time></trkpt><trkpt lat="40.2035167" lon="15.1898467"><ele>36.400000000000006</ele><time>2026-04-25T14:45:58.916Z</time></trkpt><trkpt lat="40.20361" lon="15.1899433"><ele>36.6</ele><time>2026-04-25T14:46:00.926Z</time></trkpt><trkpt lat="40.2037083" lon="15.1900383"><ele>36.800000000000004</ele><time>2026-04-25T14:46:02.919Z</time></trkpt><trkpt lat="40.2037633" lon="15.1900917"><ele>37.0</ele><time>2026-04-25T14:46:03.927Z</time></trkpt><trkpt lat="40.20381" lon="15.1901667"><ele>37.0</ele><time>2026-04-25T14:46:04.919Z</time></trkpt><trkpt lat="40.2038517" lon="15.1902317"><ele>37.0</ele><time>2026-04-25T14:46:05.927Z</time></trkpt><trkpt lat="40.2038967" lon="15.190305"><ele>37.0</ele><time>2026-04-25T14:46:06.924Z</time></trkpt><trkpt lat="40.20394" lon="15.1903883"><ele>37.0</ele><time>2026-04-25T14:46:07.971Z</time></trkpt><trkpt lat="40.2039717" lon="15.1904733"><ele>37.0</ele><time>2026-04-25T14:46:08.917Z</time></trkpt><trkpt lat="40.203995" lon="15.1905583"><ele>37.0</ele><time>2026-04-25T14:46:09.919Z</time></trkpt><trkpt lat="40.2040433" lon="15.1906917"><ele>36.5</ele><time>2026-04-25T14:46:11.92Z</time></trkpt><trkpt lat="40.2041233" lon="15.190765"><ele>36.0</ele><time>2026-04-25T14:46:13.972Z</time></trkpt><trkpt lat="40.2042" lon="15.1908183"><ele>35.5</ele><time>2026-04-25T14:46:15.924Z</time></trkpt><trkpt lat="40.204275" lon="15.1908767"><ele>35.0</ele><time>2026-04-25T14:46:17.919Z</time></trkpt><trkpt lat="40.20433" lon="15.1909667"><ele>34.5</ele><time>2026-04-25T14:46:19.975Z</time></trkpt><trkpt lat="40.204405" lon="15.191025"><ele>34.0</ele><time>2026-04-25T14:46:21.921Z</time></trkpt><trkpt lat="40.2045017" lon="15.1910967"><ele>34.0</ele><time>2026-04-25T14:46:23.922Z</time></trkpt><trkpt lat="40.2045617" lon="15.19118"><ele>34.0</ele><time>2026-04-25T14:46:25.987Z</time></trkpt><trkpt lat="40.20463" lon="15.191245"><ele>34.0</ele><time>2026-04-25T14:46:27.918Z</time></trkpt><trkpt lat="40.20471" lon="15.191285"><ele>34.0</ele><time>2026-04-25T14:46:29.921Z</time></trkpt><trkpt lat="40.2047783" lon="15.1913433"><ele>34.0</ele><time>2026-04-25T14:46:31.984Z</time></trkpt><trkpt lat="40.2048833" lon="15.1914133"><ele>34.0</ele><time>2026-04-25T14:46:33.924Z</time></trkpt><trkpt lat="40.2049533" lon="15.1914917"><ele>34.0</ele><time>2026-04-25T14:46:35.923Z</time></trkpt><trkpt lat="40.205035" lon="15.1915583"><ele>34.0</ele><time>2026-04-25T14:46:37.979Z</time></trkpt><trkpt lat="40.2051267" lon="15.19158"><ele>34.0</ele><time>2026-04-25T14:46:39.924Z</time></trkpt><trkpt lat="40.2052017" lon="15.19164"><ele>34.0</ele><time>2026-04-25T14:46:41.919Z</time></trkpt><trkpt lat="40.2052817" lon="15.191695"><ele>34.0</ele><time>2026-04-25T14:46:44.915Z</time></trkpt><trkpt lat="40.205375" lon="15.1917383"><ele>34.0</ele><time>2026-04-25T14:46:46.918Z</time></trkpt><trkpt lat="40.2054533" lon="15.1917833"><ele>34.0</ele><time>2026-04-25T14:46:47.923Z</time></trkpt><trkpt lat="40.2055183" lon="15.1918167"><ele>34.0</ele><time>2026-04-25T14:46:48.92Z</time></trkpt><trkpt lat="40.2055867" lon="15.1918467"><ele>34.0</ele><time>2026-04-25T14:46:49.978Z</time></trkpt><trkpt lat="40.2056467" lon="15.1918717"><ele>34.0</ele><time>2026-04-25T14:46:50.921Z</time></trkpt><trkpt lat="40.2057417" lon="15.1919183"><ele>34.0</ele><time>2026-04-25T14:46:52.921Z</time></trkpt><trkpt lat="40.2058333" lon="15.1919867"><ele>34.0</ele><time>2026-04-25T14:46:54.921Z</time></trkpt><trkpt lat="40.2059433" lon="15.1920367"><ele>34.0</ele><time>2026-04-25T14:46:56.919Z</time></trkpt><trkpt lat="40.206025" lon="15.1920733"><ele>34.0</ele><time>2026-04-25T14:46:58.924Z</time></trkpt><trkpt lat="40.206045" lon="15.19216"><ele>34.0</ele><time>2026-04-25T14:47:01.988Z</time></trkpt><trkpt lat="40.206035" lon="15.1922867"><ele>34.4</ele><time>2026-04-25T14:47:04.919Z</time></trkpt><trkpt lat="40.20601" lon="15.1924267"><ele>34.8</ele><time>2026-04-25T14:47:06.918Z</time></trkpt><trkpt lat="40.2059867" lon="15.192525"><ele>35.2</ele><time>2026-04-25T14:47:07.972Z</time></trkpt><trkpt lat="40.2059517" lon="15.1926433"><ele>35.6</ele><time>2026-04-25T14:47:08.919Z</time></trkpt><trkpt lat="40.2058833" lon="15.192825"><ele>36.0</ele><time>2026-04-25T14:47:09.92Z</time></trkpt><trkpt lat="40.2058217" lon="15.192985"><ele>36.0</ele><time>2026-04-25T14:47:10.921Z</time></trkpt><trkpt lat="40.2057517" lon="15.19314"><ele>36.0</ele><time>2026-04-25T14:47:11.923Z</time></trkpt><trkpt lat="40.2056817" lon="15.1932783"><ele>36.0</ele><time>2026-04-25T14:47:12.921Z</time></trkpt><trkpt lat="40.2056233" lon="15.1933867"><ele>36.0</ele><time>2026-04-25T14:47:13.973Z</time></trkpt><trkpt lat="40.2055633" lon="15.1934817"><ele>36.00000000000001</ele><time>2026-04-25T14:47:14.921Z</time></trkpt><trkpt lat="40.205505" lon="15.193555"><ele>36.0</ele><time>2026-04-25T14:47:15.923Z</time></trkpt><trkpt lat="40.205445" lon="15.1935933"><ele>36.0</ele><time>2026-04-25T14:47:16.92Z</time></trkpt><trkpt lat="40.2053783" lon="15.1935867"><ele>36.0</ele><time>2026-04-25T14:47:17.925Z</time></trkpt><trkpt lat="40.205315" lon="15.1935883"><ele>36.0</ele><time>2026-04-25T14:47:19.974Z</time></trkpt><trkpt lat="40.2052317" lon="15.1935417"><ele>36.00000000000001</ele><time>2026-04-25T14:47:23.929Z</time></trkpt><trkpt lat="40.2051633" lon="15.1935233"><ele>36.0</ele><time>2026-04-25T14:47:24.92Z</time></trkpt><trkpt lat="40.2050933" lon="15.1935"><ele>36.0</ele><time>2026-04-25T14:47:25.993Z</time></trkpt><trkpt lat="40.2050217" lon="15.1934783"><ele>36.0</ele><time>2026-04-25T14:47:26.921Z</time></trkpt><trkpt lat="40.2048983" lon="15.19345"><ele>36.0</ele><time>2026-04-25T14:47:28.919Z</time></trkpt><trkpt lat="40.2048017" lon="15.19343"><ele>36.0</ele><time>2026-04-25T14:47:30.917Z</time></trkpt><trkpt lat="40.204685" lon="15.1933983"><ele>36.0</ele><time>2026-04-25T14:47:32.918Z</time></trkpt><trkpt lat="40.204615" lon="15.1933817"><ele>36.333333333333336</ele><time>2026-04-25T14:47:33.923Z</time></trkpt><trkpt lat="40.2045467" lon="15.1933617"><ele>36.666666666666664</ele><time>2026-04-25T14:47:34.924Z</time></trkpt><trkpt lat="40.2044783" lon="15.1933467"><ele>37.0</ele><time>2026-04-25T14:47:35.922Z</time></trkpt><trkpt lat="40.2044" lon="15.1933433"><ele>37.33333333333333</ele><time>2026-04-25T14:47:36.918Z</time></trkpt><trkpt lat="40.2043083" lon="15.1933533"><ele>37.666666666666664</ele><time>2026-04-25T14:47:37.98Z</time></trkpt><trkpt lat="40.2041983" lon="15.193365"><ele>38.0</ele><time>2026-04-25T14:47:38.93Z</time></trkpt><trkpt lat="40.20407" lon="15.1933817"><ele>38.25</ele><time>2026-04-25T14:47:39.918Z</time></trkpt><trkpt lat="40.2039367" lon="15.1934067"><ele>38.5</ele><time>2026-04-25T14:47:40.916Z</time></trkpt><trkpt lat="40.2038033" lon="15.1934283"><ele>38.75</ele><time>2026-04-25T14:47:41.919Z</time></trkpt><trkpt lat="40.2036717" lon="15.1934433"><ele>39.0</ele><time>2026-04-25T14:47:42.922Z</time></trkpt><trkpt lat="40.2035433" lon="15.1934667"><ele>39.0</ele><time>2026-04-25T14:47:43.973Z</time></trkpt><trkpt lat="40.20343" lon="15.1934867"><ele>39.0</ele><time>2026-04-25T14:47:44.916Z</time></trkpt><trkpt lat="40.20333" lon="15.1935133"><ele>39.0</ele><time>2026-04-25T14:47:45.924Z</time></trkpt><trkpt lat="40.2032433" lon="15.1935417"><ele>39.0</ele><time>2026-04-25T14:47:46.917Z</time></trkpt><trkpt lat="40.2031717" lon="15.19358"><ele>39.0</ele><time>2026-04-25T14:47:47.919Z</time></trkpt><trkpt lat="40.2031167" lon="15.19365"><ele>42.5</ele><time>2026-04-25T14:47:48.918Z</time></trkpt><trkpt lat="40.2031017" lon="15.1938133"><ele>46.0</ele><time>2026-04-25T14:47:49.972Z</time></trkpt><trkpt lat="40.2030633" lon="15.19396"><ele>49.5</ele><time>2026-04-25T14:47:50.918Z</time></trkpt><trkpt lat="40.2030233" lon="15.1941017"><ele>53.0</ele><time>2026-04-25T14:47:51.921Z</time></trkpt><trkpt lat="40.202985" lon="15.19423"><ele>53.2</ele><time>2026-04-25T14:47:52.92Z</time></trkpt><trkpt lat="40.20296" lon="15.1943533"><ele>53.4</ele><time>2026-04-25T14:47:53.926Z</time></trkpt><trkpt lat="40.2029383" lon="15.194475"><ele>53.60000000000001</ele><time>2026-04-25T14:47:54.921Z</time></trkpt><trkpt lat="40.2029383" lon="15.1945967"><ele>53.800000000000004</ele><time>2026-04-25T14:47:55.981Z</time></trkpt><trkpt lat="40.2029383" lon="15.19472"><ele>54.0</ele><time>2026-04-25T14:47:56.917Z</time></trkpt><trkpt lat="40.2029233" lon="15.1948483"><ele>53.400000000000006</ele><time>2026-04-25T14:47:57.915Z</time></trkpt><trkpt lat="40.2029017" lon="15.194975"><ele>52.800000000000004</ele><time>2026-04-25T14:47:58.925Z</time></trkpt><trkpt lat="40.20287" lon="15.1950983"><ele>52.2</ele><time>2026-04-25T14:47:59.916Z</time></trkpt><trkpt lat="40.2028033" lon="15.1952233"><ele>51.599999999999994</ele><time>2026-04-25T14:48:00.917Z</time></trkpt><trkpt lat="40.2027217" lon="15.1953383"><ele>51.0</ele><time>2026-04-25T14:48:01.994Z</time></trkpt><trkpt lat="40.2026133" lon="15.1954483"><ele>51.0</ele><time>2026-04-25T14:48:02.915Z</time></trkpt><trkpt lat="40.2025133" lon="15.1955567"><ele>51.0</ele><time>2026-04-25T14:48:03.925Z</time></trkpt><trkpt lat="40.202415" lon="15.19567"><ele>51.0</ele><time>2026-04-25T14:48:04.919Z</time></trkpt><trkpt lat="40.2023367" lon="15.19578"><ele>51.0</ele><time>2026-04-25T14:48:05.918Z</time></trkpt><trkpt lat="40.2022683" lon="15.195885"><ele>51.0</ele><time>2026-04-25T14:48:06.919Z</time></trkpt><trkpt lat="40.202225" lon="15.1959867"><ele>51.0</ele><time>2026-04-25T14:48:07.979Z</time></trkpt><trkpt lat="40.20219" lon="15.1961"><ele>51.0</ele><time>2026-04-25T14:48:08.913Z</time></trkpt><trkpt lat="40.2021483" lon="15.1962183"><ele>51.0</ele><time>2026-04-25T14:48:09.915Z</time></trkpt><trkpt lat="40.20211" lon="15.19633"><ele>51.0</ele><time>2026-04-25T14:48:10.914Z</time></trkpt><trkpt lat="40.2020617" lon="15.1964483"><ele>51.0</ele><time>2026-04-25T14:48:11.917Z</time></trkpt><trkpt lat="40.202005" lon="15.19654"><ele>51.0</ele><time>2026-04-25T14:48:12.919Z</time></trkpt><trkpt lat="40.2019483" lon="15.1966"><ele>51.0</ele><time>2026-04-25T14:48:13.972Z</time></trkpt><trkpt lat="40.201885" lon="15.1966317"><ele>51.0</ele><time>2026-04-25T14:48:14.92Z</time></trkpt><trkpt lat="40.20181" lon="15.196635"><ele>51.0</ele><time>2026-04-25T14:48:15.922Z</time></trkpt><trkpt lat="40.2017167" lon="15.1965783"><ele>51.0</ele><time>2026-04-25T14:48:16.926Z</time></trkpt><trkpt lat="40.2015983" lon="15.1964883"><ele>53.0</ele><time>2026-04-25T14:48:17.922Z</time></trkpt><trkpt lat="40.20148" lon="15.1964467"><ele>55.0</ele><time>2026-04-25T14:48:18.921Z</time></trkpt><trkpt lat="40.20136" lon="15.196415"><ele>57.0</ele><time>2026-04-25T14:48:19.973Z</time></trkpt><trkpt lat="40.201245" lon="15.1964017"><ele>59.0</ele><time>2026-04-25T14:48:20.922Z</time></trkpt><trkpt lat="40.201135" lon="15.1964017"><ele>59.0</ele><time>2026-04-25T14:48:21.922Z</time></trkpt><trkpt lat="40.20103" lon="15.1964233"><ele>59.00000000000001</ele><time>2026-04-25T14:48:22.916Z</time></trkpt><trkpt lat="40.2009433" lon="15.196495"><ele>59.00000000000001</ele><time>2026-04-25T14:48:23.922Z</time></trkpt><trkpt lat="40.2008483" lon="15.1965783"><ele>59.0</ele><time>2026-04-25T14:48:24.918Z</time></trkpt><trkpt lat="40.2007467" lon="15.19667"><ele>59.0</ele><time>2026-04-25T14:48:25.992Z</time></trkpt><trkpt lat="40.20064" lon="15.196765"><ele>63.2</ele><time>2026-04-25T14:48:26.916Z</time></trkpt><trkpt lat="40.2005367" lon="15.1968583"><ele>67.4</ele><time>2026-04-25T14:48:27.925Z</time></trkpt><trkpt lat="40.2004467" lon="15.1969467"><ele>71.6</ele><time>2026-04-25T14:48:28.921Z</time></trkpt><trkpt lat="40.200365" lon="15.1970333"><ele>75.8</ele><time>2026-04-25T14:48:29.928Z</time></trkpt><trkpt lat="40.20029" lon="15.1971267"><ele>80.0</ele><time>2026-04-25T14:48:30.916Z</time></trkpt><trkpt lat="40.20022" lon="15.1972233"><ele>80.0</ele><time>2026-04-25T14:48:31.988Z</time></trkpt><trkpt lat="40.200145" lon="15.19733"><ele>80.0</ele><time>2026-04-25T14:48:32.919Z</time></trkpt><trkpt lat="40.2000633" lon="15.19744"><ele>80.0</ele><time>2026-04-25T14:48:33.916Z</time></trkpt><trkpt lat="40.1999783" lon="15.1975517"><ele>80.0</ele><time>2026-04-25T14:48:34.927Z</time></trkpt><trkpt lat="40.19989" lon="15.1976583"><ele>83.6</ele><time>2026-04-25T14:48:35.917Z</time></trkpt><trkpt lat="40.1998083" lon="15.197755"><ele>87.2</ele><time>2026-04-25T14:48:36.92Z</time></trkpt><trkpt lat="40.1997367" lon="15.1978317"><ele>90.80000000000001</ele><time>2026-04-25T14:48:37.974Z</time></trkpt><trkpt lat="40.1996633" lon="15.1979"><ele>94.4</ele><time>2026-04-25T14:48:38.92Z</time></trkpt><trkpt lat="40.19959" lon="15.1979717"><ele>98.0</ele><time>2026-04-25T14:48:39.919Z</time></trkpt><trkpt lat="40.1995233" lon="15.1980317"><ele>97.99999999999999</ele><time>2026-04-25T14:48:40.918Z</time></trkpt><trkpt lat="40.1994583" lon="15.1980667"><ele>98.0</ele><time>2026-04-25T14:48:41.918Z</time></trkpt><trkpt lat="40.199385" lon="15.19807"><ele>98.0</ele><time>2026-04-25T14:48:42.928Z</time></trkpt><trkpt lat="40.1993117" lon="15.1980767"><ele>98.0</ele><time>2026-04-25T14:48:43.975Z</time></trkpt><trkpt lat="40.199235" lon="15.1980933"><ele>97.99999999999999</ele><time>2026-04-25T14:48:44.914Z</time></trkpt><trkpt lat="40.1991467" lon="15.1981283"><ele>98.0</ele><time>2026-04-25T14:48:45.917Z</time></trkpt><trkpt lat="40.1990583" lon="15.1981667"><ele>100.80000000000001</ele><time>2026-04-25T14:48:46.918Z</time></trkpt><trkpt lat="40.1989767" lon="15.1982"><ele>103.6</ele><time>2026-04-25T14:48:47.914Z</time></trkpt><trkpt lat="40.19889" lon="15.1982367"><ele>106.39999999999999</ele><time>2026-04-25T14:48:48.918Z</time></trkpt><trkpt lat="40.1987967" lon="15.19828"><ele>109.19999999999999</ele><time>2026-04-25T14:48:49.974Z</time></trkpt><trkpt lat="40.1987017" lon="15.1983217"><ele>112.0</ele><time>2026-04-25T14:48:50.917Z</time></trkpt><trkpt lat="40.1986" lon="15.1983633"><ele>112.0</ele><time>2026-04-25T14:48:51.919Z</time></trkpt><trkpt lat="40.1984933" lon="15.1984033"><ele>111.99999999999999</ele><time>2026-04-25T14:48:52.921Z</time></trkpt><trkpt lat="40.1983817" lon="15.1984467"><ele>111.99999999999999</ele><time>2026-04-25T14:48:53.916Z</time></trkpt><trkpt lat="40.1982767" lon="15.1984833"><ele>112.0</ele><time>2026-04-25T14:48:54.923Z</time></trkpt><trkpt lat="40.1981717" lon="15.1985117"><ele>112.0</ele><time>2026-04-25T14:48:55.982Z</time></trkpt><trkpt lat="40.1980683" lon="15.1985383"><ele>116.6</ele><time>2026-04-25T14:48:56.919Z</time></trkpt><trkpt lat="40.1979767" lon="15.1985767"><ele>121.19999999999999</ele><time>2026-04-25T14:48:57.92Z</time></trkpt><trkpt lat="40.1978867" lon="15.1986267"><ele>125.8</ele><time>2026-04-25T14:48:58.92Z</time></trkpt><trkpt lat="40.1978033" lon="15.198705"><ele>130.4</ele><time>2026-04-25T14:48:59.924Z</time></trkpt><trkpt lat="40.197725" lon="15.1987917"><ele>135.0</ele><time>2026-04-25T14:49:00.92Z</time></trkpt><trkpt lat="40.19764" lon="15.19891"><ele>135.75</ele><time>2026-04-25T14:49:01.983Z</time></trkpt><trkpt lat="40.1975717" lon="15.1990667"><ele>136.5</ele><time>2026-04-25T14:49:02.919Z</time></trkpt><trkpt lat="40.197505" lon="15.1992217"><ele>137.25</ele><time>2026-04-25T14:49:03.923Z</time></trkpt><trkpt lat="40.197455" lon="15.199355"><ele>138.0</ele><time>2026-04-25T14:49:04.924Z</time></trkpt><trkpt lat="40.1974183" lon="15.1994883"><ele>138.0</ele><time>2026-04-25T14:49:05.916Z</time></trkpt><trkpt lat="40.1974033" lon="15.19962"><ele>138.0</ele><time>2026-04-25T14:49:06.921Z</time></trkpt><trkpt lat="40.1973933" lon="15.199735"><ele>138.0</ele><time>2026-04-25T14:49:07.973Z</time></trkpt><trkpt lat="40.197355" lon="15.1998383"><ele>138.0</ele><time>2026-04-25T14:49:09.923Z</time></trkpt><trkpt lat="40.1973" lon="15.1997783"><ele>138.0</ele><time>2026-04-25T14:49:11.922Z</time></trkpt><trkpt lat="40.1972667" lon="15.1997083"><ele>138.0</ele><time>2026-04-25T14:49:12.916Z</time></trkpt><trkpt lat="40.1972333" lon="15.1996267"><ele>139.75</ele><time>2026-04-25T14:49:13.969Z</time></trkpt><trkpt lat="40.1971883" lon="15.199515"><ele>141.5</ele><time>2026-04-25T14:49:14.918Z</time></trkpt><trkpt lat="40.19713" lon="15.1993883"><ele>143.25</ele><time>2026-04-25T14:49:15.912Z</time></trkpt><trkpt lat="40.1970633" lon="15.1992467"><ele>145.0</ele><time>2026-04-25T14:49:16.916Z</time></trkpt><trkpt lat="40.196985" lon="15.199105"><ele>145.5</ele><time>2026-04-25T14:49:17.922Z</time></trkpt><trkpt lat="40.1969133" lon="15.1989633"><ele>146.0</ele><time>2026-04-25T14:49:18.917Z</time></trkpt><trkpt lat="40.1968467" lon="15.1988067"><ele>146.5</ele><time>2026-04-25T14:49:19.979Z</time></trkpt><trkpt lat="40.19679" lon="15.1986367"><ele>147.0</ele><time>2026-04-25T14:49:20.921Z</time></trkpt><trkpt lat="40.1967333" lon="15.1984517"><ele>147.0</ele><time>2026-04-25T14:49:21.92Z</time></trkpt><trkpt lat="40.196675" lon="15.1982767"><ele>147.0</ele><time>2026-04-25T14:49:22.914Z</time></trkpt><trkpt lat="40.1966183" lon="15.1981133"><ele>147.0</ele><time>2026-04-25T14:49:23.922Z</time></trkpt><trkpt lat="40.1965567" lon="15.197955"><ele>147.0</ele><time>2026-04-25T14:49:24.916Z</time></trkpt><trkpt lat="40.196495" lon="15.1978017"><ele>145.75</ele><time>2026-04-25T14:49:25.981Z</time></trkpt><trkpt lat="40.1964333" lon="15.197635"><ele>144.5</ele><time>2026-04-25T14:49:26.916Z</time></trkpt><trkpt lat="40.19637" lon="15.1974683"><ele>143.25</ele><time>2026-04-25T14:49:27.921Z</time></trkpt><trkpt lat="40.1963183" lon="15.19729"><ele>142.0</ele><time>2026-04-25T14:49:28.921Z</time></trkpt><trkpt lat="40.1962717" lon="15.1971117"><ele>141.25</ele><time>2026-04-25T14:49:29.929Z</time></trkpt><trkpt lat="40.1962367" lon="15.1969367"><ele>140.5</ele><time>2026-04-25T14:49:30.917Z</time></trkpt><trkpt lat="40.1962117" lon="15.196765"><ele>139.75</ele><time>2026-04-25T14:49:31.982Z</time></trkpt><trkpt lat="40.1961967" lon="15.196585"><ele>139.0</ele><time>2026-04-25T14:49:32.92Z</time></trkpt><trkpt lat="40.1961883" lon="15.1963967"><ele>139.0</ele><time>2026-04-25T14:49:33.912Z</time></trkpt><trkpt lat="40.1961883" lon="15.196215"><ele>139.0</ele><time>2026-04-25T14:49:34.92Z</time></trkpt><trkpt lat="40.196185" lon="15.1960717"><ele>139.0</ele><time>2026-04-25T14:49:35.917Z</time></trkpt><trkpt lat="40.1961917" lon="15.1959733"><ele>139.0</ele><time>2026-04-25T14:49:37.978Z</time></trkpt><trkpt lat="40.1961217" lon="15.19596"><ele>139.0</ele><time>2026-04-25T14:49:52.918Z</time></trkpt><trkpt lat="40.1960083" lon="15.195955"><ele>139.0</ele><time>2026-04-25T14:49:54.917Z</time></trkpt><trkpt lat="40.1959383" lon="15.1959467"><ele>139.0</ele><time>2026-04-25T14:49:55.986Z</time></trkpt><trkpt lat="40.195875" lon="15.1959417"><ele>139.0</ele><time>2026-04-25T14:49:56.915Z</time></trkpt><trkpt lat="40.1957533" lon="15.1959133"><ele>139.0</ele><time>2026-04-25T14:49:58.921Z</time></trkpt><trkpt lat="40.1956917" lon="15.1958683"><ele>139.0</ele><time>2026-04-25T14:49:59.921Z</time></trkpt><trkpt lat="40.1956283" lon="15.195815"><ele>139.0</ele><time>2026-04-25T14:50:00.921Z</time></trkpt><trkpt lat="40.1955617" lon="15.1957517"><ele>136.6</ele><time>2026-04-25T14:50:01.987Z</time></trkpt><trkpt lat="40.1954833" lon="15.1956917"><ele>134.2</ele><time>2026-04-25T14:50:02.917Z</time></trkpt><trkpt lat="40.1953867" lon="15.19564"><ele>131.79999999999998</ele><time>2026-04-25T14:50:03.921Z</time></trkpt><trkpt lat="40.1952683" lon="15.1955933"><ele>129.4</ele><time>2026-04-25T14:50:04.918Z</time></trkpt><trkpt lat="40.1951467" lon="15.19555"><ele>127.0</ele><time>2026-04-25T14:50:05.922Z</time></trkpt><trkpt lat="40.1950233" lon="15.19551"><ele>127.0</ele><time>2026-04-25T14:50:06.92Z</time></trkpt><trkpt lat="40.1948983" lon="15.1954683"><ele>127.0</ele><time>2026-04-25T14:50:07.97Z</time></trkpt><trkpt lat="40.1947733" lon="15.1954283"><ele>127.0</ele><time>2026-04-25T14:50:08.916Z</time></trkpt><trkpt lat="40.1946483" lon="15.19539"><ele>127.0</ele><time>2026-04-25T14:50:09.92Z</time></trkpt><trkpt lat="40.194525" lon="15.19535"><ele>124.83333333333334</ele><time>2026-04-25T14:50:10.922Z</time></trkpt><trkpt lat="40.194405" lon="15.195315"><ele>122.66666666666667</ele><time>2026-04-25T14:50:11.912Z</time></trkpt><trkpt lat="40.194295" lon="15.1952767"><ele>120.5</ele><time>2026-04-25T14:50:12.914Z</time></trkpt><trkpt lat="40.19423" lon="15.1952517"><ele>118.33333333333334</ele><time>2026-04-25T14:50:13.968Z</time></trkpt><trkpt lat="40.1941617" lon="15.19522"><ele>116.16666666666667</ele><time>2026-04-25T14:50:16.921Z</time></trkpt><trkpt lat="40.1942117" lon="15.1951567"><ele>114.0</ele><time>2026-04-25T14:50:26.914Z</time></trkpt><trkpt lat="40.1941917" lon="15.1949833"><ele>114.0</ele><time>2026-04-25T14:50:28.929Z</time></trkpt><trkpt lat="40.1941667" lon="15.1948633"><ele>114.0</ele><time>2026-04-25T14:50:29.921Z</time></trkpt><trkpt lat="40.1941467" lon="15.194735"><ele>114.0</ele><time>2026-04-25T14:50:30.922Z</time></trkpt><trkpt lat="40.194125" lon="15.1946217"><ele>114.0</ele><time>2026-04-25T14:50:31.982Z</time></trkpt><trkpt lat="40.1941083" lon="15.194535"><ele>114.0</ele><time>2026-04-25T14:50:32.919Z</time></trkpt><trkpt lat="40.1940683" lon="15.194405"><ele>110.80000000000001</ele><time>2026-04-25T14:50:34.924Z</time></trkpt><trkpt lat="40.1939917" lon="15.1943117"><ele>107.60000000000001</ele><time>2026-04-25T14:50:37.983Z</time></trkpt><trkpt lat="40.1938867" lon="15.1942367"><ele>104.4</ele><time>2026-04-25T14:50:39.914Z</time></trkpt><trkpt lat="40.19378" lon="15.1941583"><ele>101.2</ele><time>2026-04-25T14:50:41.922Z</time></trkpt><trkpt lat="40.1937233" lon="15.19412"><ele>98.0</ele><time>2026-04-25T14:50:42.919Z</time></trkpt><trkpt lat="40.193665" lon="15.194075"><ele>97.99999999999999</ele><time>2026-04-25T14:50:43.971Z</time></trkpt><trkpt lat="40.1936033" lon="15.194025"><ele>98.0</ele><time>2026-04-25T14:50:44.918Z</time></trkpt><trkpt lat="40.1935417" lon="15.1939667"><ele>98.0</ele><time>2026-04-25T14:50:45.918Z</time></trkpt><trkpt lat="40.1934767" lon="15.193915"><ele>98.0</ele><time>2026-04-25T14:50:46.922Z</time></trkpt><trkpt lat="40.1934083" lon="15.1938517"><ele>97.99999999999999</ele><time>2026-04-25T14:50:47.919Z</time></trkpt><trkpt lat="40.19334" lon="15.1937917"><ele>98.0</ele><time>2026-04-25T14:50:48.918Z</time></trkpt><trkpt lat="40.1932717" lon="15.193725"><ele>98.66666666666666</ele><time>2026-04-25T14:50:49.978Z</time></trkpt><trkpt lat="40.1932083" lon="15.19366"><ele>99.33333333333333</ele><time>2026-04-25T14:50:50.918Z</time></trkpt><trkpt lat="40.1931417" lon="15.193595"><ele>100.0</ele><time>2026-04-25T14:50:51.919Z</time></trkpt><trkpt lat="40.19307" lon="15.193525"><ele>100.66666666666666</ele><time>2026-04-25T14:50:52.923Z</time></trkpt><trkpt lat="40.192995" lon="15.1934517"><ele>101.33333333333333</ele><time>2026-04-25T14:50:53.918Z</time></trkpt><trkpt lat="40.1929183" lon="15.1933783"><ele>102.0</ele><time>2026-04-25T14:50:54.919Z</time></trkpt><trkpt lat="40.1928383" lon="15.1933017"><ele>100.5</ele><time>2026-04-25T14:50:55.961Z</time></trkpt><trkpt lat="40.192765" lon="15.1932317"><ele>99.0</ele><time>2026-04-25T14:50:56.915Z</time></trkpt><trkpt lat="40.1926983" lon="15.1931717"><ele>97.5</ele><time>2026-04-25T14:50:57.922Z</time></trkpt><trkpt lat="40.1926383" lon="15.1931167"><ele>96.0</ele><time>2026-04-25T14:50:58.919Z</time></trkpt><trkpt lat="40.192585" lon="15.193065"><ele>94.5</ele><time>2026-04-25T14:50:59.918Z</time></trkpt><trkpt lat="40.1924967" lon="15.1929833"><ele>93.0</ele><time>2026-04-25T14:51:01.986Z</time></trkpt><trkpt lat="40.1924183" lon="15.1929633"><ele>92.5</ele><time>2026-04-25T14:51:03.921Z</time></trkpt><trkpt lat="40.1923517" lon="15.1930067"><ele>92.0</ele><time>2026-04-25T14:51:05.921Z</time></trkpt><trkpt lat="40.192275" lon="15.1930467"><ele>91.5</ele><time>2026-04-25T14:51:07.974Z</time></trkpt><trkpt lat="40.192195" lon="15.1930867"><ele>91.0</ele><time>2026-04-25T14:51:09.918Z</time></trkpt><trkpt lat="40.192105" lon="15.19313"><ele>90.5</ele><time>2026-04-25T14:51:11.918Z</time></trkpt><trkpt lat="40.192015" lon="15.193165"><ele>90.0</ele><time>2026-04-25T14:51:13.975Z</time></trkpt><trkpt lat="40.1919167" lon="15.1932067"><ele>87.2</ele><time>2026-04-25T14:51:15.918Z</time></trkpt><trkpt lat="40.1918183" lon="15.1932683"><ele>84.4</ele><time>2026-04-25T14:51:17.916Z</time></trkpt><trkpt lat="40.1917217" lon="15.1933283"><ele>81.6</ele><time>2026-04-25T14:51:19.975Z</time></trkpt><trkpt lat="40.1916233" lon="15.1933783"><ele>78.8</ele><time>2026-04-25T14:51:21.917Z</time></trkpt><trkpt lat="40.1915583" lon="15.19342"><ele>76.0</ele><time>2026-04-25T14:51:23.92Z</time></trkpt><trkpt lat="40.1914783" lon="15.1933483"><ele>73.8</ele><time>2026-04-25T14:51:26.915Z</time></trkpt><trkpt lat="40.1914383" lon="15.1932667"><ele>71.6</ele><time>2026-04-25T14:51:27.911Z</time></trkpt><trkpt lat="40.1913917" lon="15.1931633"><ele>69.4</ele><time>2026-04-25T14:51:28.915Z</time></trkpt><trkpt lat="40.1913633" lon="15.1929733"><ele>67.2</ele><time>2026-04-25T14:51:29.923Z</time></trkpt><trkpt lat="40.1913533" lon="15.1928083"><ele>65.0</ele><time>2026-04-25T14:51:30.92Z</time></trkpt><trkpt lat="40.1913467" lon="15.1926483"><ele>64.5</ele><time>2026-04-25T14:51:31.984Z</time></trkpt><trkpt lat="40.1913367" lon="15.1925017"><ele>64.0</ele><time>2026-04-25T14:51:32.918Z</time></trkpt><trkpt lat="40.1913067" lon="15.1923267"><ele>63.5</ele><time>2026-04-25T14:51:33.912Z</time></trkpt><trkpt lat="40.1912667" lon="15.1921367"><ele>63.0</ele><time>2026-04-25T14:51:34.926Z</time></trkpt><trkpt lat="40.19121" lon="15.1918833"><ele>62.0</ele><time>2026-04-25T14:51:35.917Z</time></trkpt><trkpt lat="40.19115" lon="15.1916167"><ele>61.0</ele><time>2026-04-25T14:51:36.922Z</time></trkpt><trkpt lat="40.1910933" lon="15.1913533"><ele>60.0</ele><time>2026-04-25T14:51:37.971Z</time></trkpt><trkpt lat="40.1910433" lon="15.1911083"><ele>59.66666666666667</ele><time>2026-04-25T14:51:38.92Z</time></trkpt><trkpt lat="40.1909933" lon="15.1908783"><ele>59.333333333333336</ele><time>2026-04-25T14:51:39.921Z</time></trkpt><trkpt lat="40.1909517" lon="15.190655"><ele>59.0</ele><time>2026-04-25T14:51:40.914Z</time></trkpt><trkpt lat="40.19092" lon="15.1904383"><ele>59.0</ele><time>2026-04-25T14:51:41.919Z</time></trkpt><trkpt lat="40.1908967" lon="15.19023"><ele>59.0</ele><time>2026-04-25T14:51:42.919Z</time></trkpt><trkpt lat="40.1908733" lon="15.190035"><ele>59.0</ele><time>2026-04-25T14:51:43.976Z</time></trkpt><trkpt lat="40.1908483" lon="15.18984"><ele>58.25</ele><time>2026-04-25T14:51:44.918Z</time></trkpt><trkpt lat="40.19082" lon="15.1896517"><ele>57.5</ele><time>2026-04-25T14:51:45.918Z</time></trkpt><trkpt lat="40.1907833" lon="15.189465"><ele>56.75</ele><time>2026-04-25T14:51:46.931Z</time></trkpt><trkpt lat="40.190745" lon="15.1892917"><ele>56.0</ele><time>2026-04-25T14:51:47.918Z</time></trkpt><trkpt lat="40.1907117" lon="15.1891283"><ele>56.25</ele><time>2026-04-25T14:51:48.917Z</time></trkpt><trkpt lat="40.190695" lon="15.188955"><ele>56.5</ele><time>2026-04-25T14:51:49.967Z</time></trkpt><trkpt lat="40.1906867" lon="15.1887633"><ele>56.75</ele><time>2026-04-25T14:51:50.917Z</time></trkpt><trkpt lat="40.1906833" lon="15.188575"><ele>57.0</ele><time>2026-04-25T14:51:51.915Z</time></trkpt><trkpt lat="40.1906833" lon="15.188395"><ele>57.0</ele><time>2026-04-25T14:51:52.917Z</time></trkpt><trkpt lat="40.1906767" lon="15.1882217"><ele>57.0</ele><time>2026-04-25T14:51:53.92Z</time></trkpt><trkpt lat="40.190655" lon="15.1880467"><ele>57.0</ele><time>2026-04-25T14:51:54.914Z</time></trkpt><trkpt lat="40.1906233" lon="15.1878783"><ele>57.0</ele><time>2026-04-25T14:51:55.992Z</time></trkpt><trkpt lat="40.19059" lon="15.1877283"><ele>55.2</ele><time>2026-04-25T14:51:56.914Z</time></trkpt><trkpt lat="40.1905517" lon="15.1876033"><ele>53.400000000000006</ele><time>2026-04-25T14:51:57.914Z</time></trkpt><trkpt lat="40.190505" lon="15.1875433"><ele>51.599999999999994</ele><time>2026-04-25T14:51:58.918Z</time></trkpt><trkpt lat="40.1903983" lon="15.1874817"><ele>49.8</ele><time>2026-04-25T14:52:00.923Z</time></trkpt><trkpt lat="40.1903" lon="15.18753"><ele>48.0</ele><time>2026-04-25T14:52:01.979Z</time></trkpt><trkpt lat="40.1901917" lon="15.18757"><ele>48.0</ele><time>2026-04-25T14:52:02.919Z</time></trkpt><trkpt lat="40.1900633" lon="15.1875933"><ele>48.0</ele><time>2026-04-25T14:52:03.915Z</time></trkpt><trkpt lat="40.1899233" lon="15.18761"><ele>48.0</ele><time>2026-04-25T14:52:04.917Z</time></trkpt><trkpt lat="40.18977" lon="15.18763"><ele>48.0</ele><time>2026-04-25T14:52:05.918Z</time></trkpt><trkpt lat="40.1896067" lon="15.1876583"><ele>47.25</ele><time>2026-04-25T14:52:06.917Z</time></trkpt><trkpt lat="40.18945" lon="15.1876867"><ele>46.5</ele><time>2026-04-25T14:52:07.969Z</time></trkpt><trkpt lat="40.1893017" lon="15.187715"><ele>45.75</ele><time>2026-04-25T14:52:08.917Z</time></trkpt><trkpt lat="40.1891683" lon="15.1877433"><ele>45.0</ele><time>2026-04-25T14:52:09.919Z</time></trkpt><trkpt lat="40.1890767" lon="15.18774"><ele>45.2</ele><time>2026-04-25T14:52:10.917Z</time></trkpt><trkpt lat="40.1889983" lon="15.1877183"><ele>45.4</ele><time>2026-04-25T14:52:11.919Z</time></trkpt><trkpt lat="40.18894" lon="15.1876667"><ele>45.599999999999994</ele><time>2026-04-25T14:52:12.919Z</time></trkpt><trkpt lat="40.1888983" lon="15.1875433"><ele>45.8</ele><time>2026-04-25T14:52:13.971Z</time></trkpt><trkpt lat="40.1888417" lon="15.18742"><ele>46.0</ele><time>2026-04-25T14:52:14.92Z</time></trkpt><trkpt lat="40.18876" lon="15.1873067"><ele>46.0</ele><time>2026-04-25T14:52:15.921Z</time></trkpt><trkpt lat="40.188665" lon="15.1871967"><ele>46.0</ele><time>2026-04-25T14:52:16.919Z</time></trkpt><trkpt lat="40.1885617" lon="15.18709"><ele>46.0</ele><time>2026-04-25T14:52:17.921Z</time></trkpt><trkpt lat="40.1884667" lon="15.1870017"><ele>46.0</ele><time>2026-04-25T14:52:18.914Z</time></trkpt><trkpt lat="40.18837" lon="15.186945"><ele>46.0</ele><time>2026-04-25T14:52:19.974Z</time></trkpt><trkpt lat="40.1882683" lon="15.1869083"><ele>46.0</ele><time>2026-04-25T14:52:20.916Z</time></trkpt><trkpt lat="40.18818" lon="15.1868817"><ele>46.0</ele><time>2026-04-25T14:52:21.918Z</time></trkpt><trkpt lat="40.1881067" lon="15.18686"><ele>46.0</ele><time>2026-04-25T14:52:22.917Z</time></trkpt><trkpt lat="40.18801" lon="15.1867583"><ele>46.0</ele><time>2026-04-25T14:52:24.916Z</time></trkpt><trkpt lat="40.1879733" lon="15.186685"><ele>47.0</ele><time>2026-04-25T14:52:25.989Z</time></trkpt><trkpt lat="40.1879217" lon="15.1865733"><ele>48.0</ele><time>2026-04-25T14:52:26.915Z</time></trkpt><trkpt lat="40.1879267" lon="15.1864067"><ele>49.0</ele><time>2026-04-25T14:52:27.916Z</time></trkpt><trkpt lat="40.1879417" lon="15.1862083"><ele>50.0</ele><time>2026-04-25T14:52:28.918Z</time></trkpt><trkpt lat="40.1879433" lon="15.185975"><ele>50.0</ele><time>2026-04-25T14:52:29.922Z</time></trkpt><trkpt lat="40.1879233" lon="15.1857033"><ele>50.0</ele><time>2026-04-25T14:52:30.928Z</time></trkpt><trkpt lat="40.1878783" lon="15.1854233"><ele>50.0</ele><time>2026-04-25T14:52:31.98Z</time></trkpt><trkpt lat="40.1878367" lon="15.1851467"><ele>49.0</ele><time>2026-04-25T14:52:32.918Z</time></trkpt><trkpt lat="40.1877867" lon="15.1848717"><ele>48.0</ele><time>2026-04-25T14:52:33.916Z</time></trkpt><trkpt lat="40.1877333" lon="15.18459"><ele>47.0</ele><time>2026-04-25T14:52:34.916Z</time></trkpt><trkpt lat="40.1876767" lon="15.18431"><ele>45.666666666666664</ele><time>2026-04-25T14:52:35.915Z</time></trkpt><trkpt lat="40.18762" lon="15.1840533"><ele>44.333333333333336</ele><time>2026-04-25T14:52:36.916Z</time></trkpt><trkpt lat="40.1875733" lon="15.183825"><ele>43.0</ele><time>2026-04-25T14:52:37.969Z</time></trkpt><trkpt lat="40.1875367" lon="15.18366"><ele>42.8</ele><time>2026-04-25T14:52:38.922Z</time></trkpt><trkpt lat="40.187505" lon="15.1835167"><ele>42.599999999999994</ele><time>2026-04-25T14:52:39.918Z</time></trkpt><trkpt lat="40.18748" lon="15.1834033"><ele>42.400000000000006</ele><time>2026-04-25T14:52:40.917Z</time></trkpt><trkpt lat="40.1874683" lon="15.18331"><ele>42.2</ele><time>2026-04-25T14:52:41.92Z</time></trkpt><trkpt lat="40.1874933" lon="15.18342"><ele>42.0</ele><time>2026-04-25T14:52:51.919Z</time></trkpt><trkpt lat="40.1875367" lon="15.183575"><ele>42.0</ele><time>2026-04-25T14:52:53.926Z</time></trkpt><trkpt lat="40.1875683" lon="15.1837017"><ele>42.0</ele><time>2026-04-25T14:52:54.913Z</time></trkpt><trkpt lat="40.1876" lon="15.1838483"><ele>42.0</ele><time>2026-04-25T14:52:55.986Z</time></trkpt><trkpt lat="40.18763" lon="15.1840167"><ele>42.0</ele><time>2026-04-25T14:52:56.914Z</time></trkpt><trkpt lat="40.18765" lon="15.1841583"><ele>42.2</ele><time>2026-04-25T14:52:57.919Z</time></trkpt><trkpt lat="40.1876767" lon="15.1842933"><ele>42.400000000000006</ele><time>2026-04-25T14:52:58.922Z</time></trkpt><trkpt lat="40.187675" lon="15.1843883"><ele>42.599999999999994</ele><time>2026-04-25T14:52:59.92Z</time></trkpt><trkpt lat="40.1875867" lon="15.1843867"><ele>42.8</ele><time>2026-04-25T14:53:01.987Z</time></trkpt><trkpt lat="40.1874417" lon="15.18436"><ele>43.0</ele><time>2026-04-25T14:53:03.922Z</time></trkpt><trkpt lat="40.1873517" lon="15.1843467"><ele>45.599999999999994</ele><time>2026-04-25T14:53:04.918Z</time></trkpt><trkpt lat="40.1872717" lon="15.184335"><ele>48.199999999999996</ele><time>2026-04-25T14:53:05.92Z</time></trkpt><trkpt lat="40.1871783" lon="15.1843167"><ele>50.8</ele><time>2026-04-25T14:53:07.973Z</time></trkpt><trkpt lat="40.1870767" lon="15.1843317"><ele>53.4</ele><time>2026-04-25T14:53:10.915Z</time></trkpt><trkpt lat="40.1869433" lon="15.1843867"><ele>56.0</ele><time>2026-04-25T14:53:12.92Z</time></trkpt><trkpt lat="40.18685" lon="15.1844267"><ele>56.0</ele><time>2026-04-25T14:53:13.972Z</time></trkpt><trkpt lat="40.18675" lon="15.184475"><ele>55.99999999999999</ele><time>2026-04-25T14:53:14.916Z</time></trkpt><trkpt lat="40.186655" lon="15.1845217"><ele>55.99999999999999</ele><time>2026-04-25T14:53:15.921Z</time></trkpt><trkpt lat="40.1865733" lon="15.1845583"><ele>56.0</ele><time>2026-04-25T14:53:16.917Z</time></trkpt><trkpt lat="40.1865017" lon="15.1845533"><ele>56.0</ele><time>2026-04-25T14:53:17.922Z</time></trkpt><trkpt lat="40.1863867" lon="15.184525"><ele>58.8</ele><time>2026-04-25T14:53:19.973Z</time></trkpt><trkpt lat="40.1863" lon="15.184565"><ele>61.599999999999994</ele><time>2026-04-25T14:53:21.915Z</time></trkpt><trkpt lat="40.18625" lon="15.1846967"><ele>64.4</ele><time>2026-04-25T14:53:23.919Z</time></trkpt><trkpt lat="40.18619" lon="15.1848033"><ele>67.2</ele><time>2026-04-25T14:53:25.972Z</time></trkpt><trkpt lat="40.186105" lon="15.1847883"><ele>70.0</ele><time>2026-04-25T14:53:27.919Z</time></trkpt><trkpt lat="40.186015" lon="15.1847383"><ele>70.0</ele><time>2026-04-25T14:53:29.918Z</time></trkpt><trkpt lat="40.1859367" lon="15.18479"><ele>70.0</ele><time>2026-04-25T14:53:31.984Z</time></trkpt><trkpt lat="40.18591" lon="15.184865"><ele>70.0</ele><time>2026-04-25T14:53:32.915Z</time></trkpt><trkpt lat="40.1858367" lon="15.1849517"><ele>70.0</ele><time>2026-04-25T14:53:34.918Z</time></trkpt><trkpt lat="40.18574" lon="15.1849317"><ele>70.0</ele><time>2026-04-25T14:53:36.925Z</time></trkpt><trkpt lat="40.1856417" lon="15.1849083"><ele>70.0</ele><time>2026-04-25T14:53:38.919Z</time></trkpt><trkpt lat="40.1855717" lon="15.1850117"><ele>75.0</ele><time>2026-04-25T14:53:40.92Z</time></trkpt><trkpt lat="40.185545" lon="15.1851783"><ele>80.0</ele><time>2026-04-25T14:53:42.919Z</time></trkpt><trkpt lat="40.1855" lon="15.185285"><ele>85.0</ele><time>2026-04-25T14:53:44.923Z</time></trkpt><trkpt lat="40.1853967" lon="15.18524"><ele>90.0</ele><time>2026-04-25T14:53:46.924Z</time></trkpt><trkpt lat="40.1852833" lon="15.1852117"><ele>95.0</ele><time>2026-04-25T14:53:48.915Z</time></trkpt><trkpt lat="40.1852283" lon="15.1852633"><ele>95.0</ele><time>2026-04-25T14:53:49.971Z</time></trkpt><trkpt lat="40.1851783" lon="15.1853283"><ele>95.0</ele><time>2026-04-25T14:53:50.92Z</time></trkpt><trkpt lat="40.1851267" lon="15.1853867"><ele>95.0</ele><time>2026-04-25T14:53:51.921Z</time></trkpt><trkpt lat="40.1850217" lon="15.18545"><ele>95.0</ele><time>2026-04-25T14:53:53.922Z</time></trkpt><trkpt lat="40.1849" lon="15.1854267"><ele>95.0</ele><time>2026-04-25T14:53:55.982Z</time></trkpt><trkpt lat="40.1848333" lon="15.18541"><ele>95.0</ele><time>2026-04-25T14:53:56.916Z</time></trkpt><trkpt lat="40.1847683" lon="15.18541"><ele>97.5</ele><time>2026-04-25T14:53:57.918Z</time></trkpt><trkpt lat="40.18471" lon="15.18546"><ele>100.0</ele><time>2026-04-25T14:53:58.919Z</time></trkpt><trkpt lat="40.18466" lon="15.1855317"><ele>102.5</ele><time>2026-04-25T14:53:59.922Z</time></trkpt><trkpt lat="40.1846133" lon="15.1856267"><ele>105.0</ele><time>2026-04-25T14:54:00.92Z</time></trkpt><trkpt lat="40.1845683" lon="15.1857533"><ele>107.49999999999999</ele><time>2026-04-25T14:54:01.982Z</time></trkpt><trkpt lat="40.1845267" lon="15.1858783"><ele>110.0</ele><time>2026-04-25T14:54:02.916Z</time></trkpt><trkpt lat="40.1844883" lon="15.1859867"><ele>111.33333333333333</ele><time>2026-04-25T14:54:03.922Z</time></trkpt><trkpt lat="40.184455" lon="15.18607"><ele>112.66666666666666</ele><time>2026-04-25T14:54:04.921Z</time></trkpt><trkpt lat="40.1843783" lon="15.1861167"><ele>114.0</ele><time>2026-04-25T14:54:06.922Z</time></trkpt><trkpt lat="40.1843133" lon="15.1860033"><ele>115.33333333333334</ele><time>2026-04-25T14:54:08.92Z</time></trkpt><trkpt lat="40.1842817" lon="15.185895"><ele>116.66666666666667</ele><time>2026-04-25T14:54:09.917Z</time></trkpt><trkpt lat="40.1842433" lon="15.1857883"><ele>118.0</ele><time>2026-04-25T14:54:10.922Z</time></trkpt><trkpt lat="40.18419" lon="15.1856867"><ele>119.4</ele><time>2026-04-25T14:54:11.914Z</time></trkpt><trkpt lat="40.1841333" lon="15.185605"><ele>120.80000000000001</ele><time>2026-04-25T14:54:12.916Z</time></trkpt><trkpt lat="40.184055" lon="15.1855783"><ele>122.2</ele><time>2026-04-25T14:54:13.979Z</time></trkpt><trkpt lat="40.1839733" lon="15.18556"><ele>123.6</ele><time>2026-04-25T14:54:14.916Z</time></trkpt><trkpt lat="40.1838767" lon="15.1855767"><ele>125.0</ele><time>2026-04-25T14:54:15.924Z</time></trkpt><trkpt lat="40.1837733" lon="15.185615"><ele>125.0</ele><time>2026-04-25T14:54:16.919Z</time></trkpt><trkpt lat="40.18365" lon="15.1856783"><ele>125.0</ele><time>2026-04-25T14:54:17.92Z</time></trkpt><trkpt lat="40.1835333" lon="15.1857367"><ele>125.0</ele><time>2026-04-25T14:54:18.918Z</time></trkpt><trkpt lat="40.1834267" lon="15.1857817"><ele>125.0</ele><time>2026-04-25T14:54:19.974Z</time></trkpt><trkpt lat="40.1833217" lon="15.1858017"><ele>127.0</ele><time>2026-04-25T14:54:20.919Z</time></trkpt><trkpt lat="40.1832117" lon="15.1858033"><ele>129.0</ele><time>2026-04-25T14:54:21.919Z</time></trkpt><trkpt lat="40.1830917" lon="15.1857967"><ele>131.0</ele><time>2026-04-25T14:54:22.915Z</time></trkpt><trkpt lat="40.18296" lon="15.1857767"><ele>133.0</ele><time>2026-04-25T14:54:23.918Z</time></trkpt><trkpt lat="40.1828283" lon="15.1857483"><ele>133.8</ele><time>2026-04-25T14:54:24.916Z</time></trkpt><trkpt lat="40.1827033" lon="15.1857267"><ele>134.60000000000002</ele><time>2026-04-25T14:54:25.985Z</time></trkpt><trkpt lat="40.1825883" lon="15.1857133"><ele>135.39999999999998</ele><time>2026-04-25T14:54:26.917Z</time></trkpt><trkpt lat="40.1824917" lon="15.1857017"><ele>136.2</ele><time>2026-04-25T14:54:27.916Z</time></trkpt><trkpt lat="40.182415" lon="15.185675"><ele>137.0</ele><time>2026-04-25T14:54:28.912Z</time></trkpt><trkpt lat="40.182355" lon="15.18563"><ele>137.5</ele><time>2026-04-25T14:54:29.92Z</time></trkpt><trkpt lat="40.182305" lon="15.1855667"><ele>138.0</ele><time>2026-04-25T14:54:30.918Z</time></trkpt><trkpt lat="40.1822417" lon="15.1855083"><ele>138.5</ele><time>2026-04-25T14:54:32.915Z</time></trkpt><trkpt lat="40.1821967" lon="15.1856017"><ele>139.0</ele><time>2026-04-25T14:54:34.924Z</time></trkpt><trkpt lat="40.18218" lon="15.1856817"><ele>139.5</ele><time>2026-04-25T14:54:35.926Z</time></trkpt><trkpt lat="40.1821583" lon="15.1857883"><ele>140.0</ele><time>2026-04-25T14:54:36.915Z</time></trkpt><trkpt lat="40.1821233" lon="15.1858833"><ele>141.83333333333331</ele><time>2026-04-25T14:54:37.971Z</time></trkpt><trkpt lat="40.1820733" lon="15.185965"><ele>143.66666666666666</ele><time>2026-04-25T14:54:38.913Z</time></trkpt><trkpt lat="40.1820083" lon="15.18602"><ele>145.5</ele><time>2026-04-25T14:54:39.915Z</time></trkpt><trkpt lat="40.1819233" lon="15.18607"><ele>147.33333333333334</ele><time>2026-04-25T14:54:40.915Z</time></trkpt><trkpt lat="40.18183" lon="15.1861183"><ele>149.16666666666669</ele><time>2026-04-25T14:54:41.926Z</time></trkpt><trkpt lat="40.1817417" lon="15.1861733"><ele>151.0</ele><time>2026-04-25T14:54:42.916Z</time></trkpt><trkpt lat="40.1816617" lon="15.1862317"><ele>151.0</ele><time>2026-04-25T14:54:43.976Z</time></trkpt><trkpt lat="40.1815817" lon="15.1862983"><ele>151.0</ele><time>2026-04-25T14:54:44.917Z</time></trkpt><trkpt lat="40.1814917" lon="15.186375"><ele>151.0</ele><time>2026-04-25T14:54:45.92Z</time></trkpt><trkpt lat="40.1813983" lon="15.18645"><ele>151.0</ele><time>2026-04-25T14:54:46.92Z</time></trkpt><trkpt lat="40.1812983" lon="15.1865217"><ele>151.0</ele><time>2026-04-25T14:54:47.917Z</time></trkpt><trkpt lat="40.1811867" lon="15.186595"><ele>152.25</ele><time>2026-04-25T14:54:48.918Z</time></trkpt><trkpt lat="40.1810617" lon="15.1866833"><ele>153.5</ele><time>2026-04-25T14:54:49.97Z</time></trkpt><trkpt lat="40.1809267" lon="15.1867733"><ele>154.75</ele><time>2026-04-25T14:54:50.912Z</time></trkpt><trkpt lat="40.1808017" lon="15.1868583"><ele>156.0</ele><time>2026-04-25T14:54:51.92Z</time></trkpt><trkpt lat="40.1806933" lon="15.18693"><ele>157.8</ele><time>2026-04-25T14:54:52.917Z</time></trkpt><trkpt lat="40.1805933" lon="15.1869833"><ele>159.6</ele><time>2026-04-25T14:54:53.919Z</time></trkpt><trkpt lat="40.1804967" lon="15.1870283"><ele>161.4</ele><time>2026-04-25T14:54:54.92Z</time></trkpt><trkpt lat="40.1803917" lon="15.187075"><ele>163.2</ele><time>2026-04-25T14:54:55.985Z</time></trkpt><trkpt lat="40.1802883" lon="15.1871317"><ele>165.0</ele><time>2026-04-25T14:54:56.914Z</time></trkpt><trkpt lat="40.1802" lon="15.187195"><ele>165.0</ele><time>2026-04-25T14:54:57.919Z</time></trkpt><trkpt lat="40.1801217" lon="15.1872567"><ele>165.0</ele><time>2026-04-25T14:54:58.921Z</time></trkpt><trkpt lat="40.180065" lon="15.18732"><ele>165.0</ele><time>2026-04-25T14:54:59.919Z</time></trkpt><trkpt lat="40.180025" lon="15.1874133"><ele>165.0</ele><time>2026-04-25T14:55:01.985Z</time></trkpt><trkpt lat="40.180125" lon="15.1874067"><ele>165.0</ele><time>2026-04-25T14:55:21.918Z</time></trkpt><trkpt lat="40.1801567" lon="15.1873017"><ele>165.0</ele><time>2026-04-25T14:55:23.919Z</time></trkpt><trkpt lat="40.180195" lon="15.187235"><ele>165.0</ele><time>2026-04-25T14:55:24.918Z</time></trkpt><trkpt lat="40.1802533" lon="15.1871683"><ele>165.0</ele><time>2026-04-25T14:55:25.987Z</time></trkpt><trkpt lat="40.1803317" lon="15.1871017"><ele>165.0</ele><time>2026-04-25T14:55:26.918Z</time></trkpt><trkpt lat="40.180415" lon="15.1870333"><ele>165.0</ele><time>2026-04-25T14:55:27.915Z</time></trkpt><trkpt lat="40.1805" lon="15.1869933"><ele>165.0</ele><time>2026-04-25T14:55:28.917Z</time></trkpt><trkpt lat="40.1805817" lon="15.1869517"><ele>165.0</ele><time>2026-04-25T14:55:29.918Z</time></trkpt><trkpt lat="40.1806483" lon="15.18692"><ele>165.0</ele><time>2026-04-25T14:55:30.92Z</time></trkpt><trkpt lat="40.1807533" lon="15.18689"><ele>165.0</ele><time>2026-04-25T14:55:32.92Z</time></trkpt><trkpt lat="40.18083" lon="15.18687"><ele>165.0</ele><time>2026-04-25T14:55:35.911Z</time></trkpt><trkpt lat="40.1807467" lon="15.1868817"><ele>165.0</ele><time>2026-04-25T14:55:41.918Z</time></trkpt><trkpt lat="40.1806583" lon="15.1869"><ele>165.0</ele><time>2026-04-25T14:55:43.967Z</time></trkpt><trkpt lat="40.1805367" lon="15.1868883"><ele>165.0</ele><time>2026-04-25T14:55:45.915Z</time></trkpt><trkpt lat="40.1804717" lon="15.1868817"><ele>165.0</ele><time>2026-04-25T14:55:46.914Z</time></trkpt><trkpt lat="40.180405" lon="15.186875"><ele>165.0</ele><time>2026-04-25T14:55:47.922Z</time></trkpt><trkpt lat="40.18034" lon="15.1868633"><ele>165.0</ele><time>2026-04-25T14:55:48.91Z</time></trkpt><trkpt lat="40.180225" lon="15.18683"><ele>165.0</ele><time>2026-04-25T14:55:50.919Z</time></trkpt><trkpt lat="40.1801167" lon="15.186785"><ele>165.0</ele><time>2026-04-25T14:55:52.914Z</time></trkpt><trkpt lat="40.18001" lon="15.1866983"><ele>165.0</ele><time>2026-04-25T14:55:54.916Z</time></trkpt><trkpt lat="40.1798983" lon="15.186625"><ele>165.0</ele><time>2026-04-25T14:55:56.912Z</time></trkpt><trkpt lat="40.1798383" lon="15.1865867"><ele>165.0</ele><time>2026-04-25T14:55:57.917Z</time></trkpt><trkpt lat="40.179775" lon="15.1865517"><ele>165.0</ele><time>2026-04-25T14:55:58.912Z</time></trkpt><trkpt lat="40.1797117" lon="15.1865183"><ele>165.0</ele><time>2026-04-25T14:55:59.922Z</time></trkpt><trkpt lat="40.179655" lon="15.1864817"><ele>165.0</ele><time>2026-04-25T14:56:00.918Z</time></trkpt><trkpt lat="40.1795633" lon="15.1864017"><ele>168.33333333333334</ele><time>2026-04-25T14:56:02.918Z</time></trkpt><trkpt lat="40.1795017" lon="15.1863317"><ele>171.66666666666666</ele><time>2026-04-25T14:56:04.915Z</time></trkpt><trkpt lat="40.1794733" lon="15.1861867"><ele>175.0</ele><time>2026-04-25T14:56:06.916Z</time></trkpt><trkpt lat="40.1794617" lon="15.1860867"><ele>178.33333333333331</ele><time>2026-04-25T14:56:07.978Z</time></trkpt><trkpt lat="40.179455" lon="15.1859917"><ele>181.66666666666666</ele><time>2026-04-25T14:56:08.913Z</time></trkpt><trkpt lat="40.1794333" lon="15.1859117"><ele>185.0</ele><time>2026-04-25T14:56:09.926Z</time></trkpt><trkpt lat="40.1793917" lon="15.18579"><ele>188.25</ele><time>2026-04-25T14:56:11.92Z</time></trkpt><trkpt lat="40.1793533" lon="15.1856517"><ele>191.5</ele><time>2026-04-25T14:56:13.973Z</time></trkpt><trkpt lat="40.17935" lon="15.1855017"><ele>194.75</ele><time>2026-04-25T14:56:15.923Z</time></trkpt><trkpt lat="40.1793783" lon="15.1853467"><ele>198.0</ele><time>2026-04-25T14:56:17.916Z</time></trkpt><trkpt lat="40.1794467" lon="15.1852133"><ele>198.0</ele><time>2026-04-25T14:56:19.979Z</time></trkpt><trkpt lat="40.179505" lon="15.1851583"><ele>198.0</ele><time>2026-04-25T14:56:20.912Z</time></trkpt><trkpt lat="40.17957" lon="15.1851"><ele>198.0</ele><time>2026-04-25T14:56:21.92Z</time></trkpt><trkpt lat="40.1796283" lon="15.1850333"><ele>198.0</ele><time>2026-04-25T14:56:22.915Z</time></trkpt><trkpt lat="40.1796883" lon="15.1849533"><ele>198.0</ele><time>2026-04-25T14:56:23.92Z</time></trkpt><trkpt lat="40.179745" lon="15.18488"><ele>198.0</ele><time>2026-04-25T14:56:24.917Z</time></trkpt><trkpt lat="40.1798017" lon="15.184805"><ele>199.66666666666666</ele><time>2026-04-25T14:56:25.989Z</time></trkpt><trkpt lat="40.179845" lon="15.184725"><ele>201.33333333333331</ele><time>2026-04-25T14:56:26.913Z</time></trkpt><trkpt lat="40.179875" lon="15.184645"><ele>203.0</ele><time>2026-04-25T14:56:27.918Z</time></trkpt><trkpt lat="40.1798983" lon="15.18456"><ele>204.66666666666666</ele><time>2026-04-25T14:56:28.925Z</time></trkpt><trkpt lat="40.1799117" lon="15.1844067"><ele>206.33333333333331</ele><time>2026-04-25T14:56:30.918Z</time></trkpt><trkpt lat="40.179895" lon="15.1842667"><ele>208.0</ele><time>2026-04-25T14:56:32.914Z</time></trkpt><trkpt lat="40.17987" lon="15.18412"><ele>205.83333333333331</ele><time>2026-04-25T14:56:34.913Z</time></trkpt><trkpt lat="40.17986" lon="15.18403"><ele>203.66666666666666</ele><time>2026-04-25T14:56:35.915Z</time></trkpt><trkpt lat="40.179835" lon="15.183935"><ele>201.5</ele><time>2026-04-25T14:56:36.914Z</time></trkpt><trkpt lat="40.1798117" lon="15.1838317"><ele>199.33333333333331</ele><time>2026-04-25T14:56:37.967Z</time></trkpt><trkpt lat="40.1797767" lon="15.1837283"><ele>197.16666666666666</ele><time>2026-04-25T14:56:38.915Z</time></trkpt><trkpt lat="40.17974" lon="15.1836233"><ele>195.0</ele><time>2026-04-25T14:56:39.918Z</time></trkpt><trkpt lat="40.17971" lon="15.183515"><ele>195.0</ele><time>2026-04-25T14:56:40.918Z</time></trkpt><trkpt lat="40.17969" lon="15.183425"><ele>195.0</ele><time>2026-04-25T14:56:41.921Z</time></trkpt><trkpt lat="40.1796467" lon="15.1832967"><ele>195.0</ele><time>2026-04-25T14:56:43.972Z</time></trkpt><trkpt lat="40.17964" lon="15.183205"><ele>195.0</ele><time>2026-04-25T14:56:45.922Z</time></trkpt><trkpt lat="40.17958" lon="15.18325"><ele>195.0</ele><time>2026-04-25T14:57:05.921Z</time></trkpt><trkpt lat="40.17949" lon="15.1832283"><ele>195.0</ele><time>2026-04-25T14:57:07.968Z</time></trkpt><trkpt lat="40.1794183" lon="15.1831933"><ele>191.66666666666666</ele><time>2026-04-25T14:57:08.917Z</time></trkpt><trkpt lat="40.1793417" lon="15.18316"><ele>188.33333333333334</ele><time>2026-04-25T14:57:09.919Z</time></trkpt><trkpt lat="40.179275" lon="15.18313"><ele>185.0</ele><time>2026-04-25T14:57:10.915Z</time></trkpt><trkpt lat="40.1792133" lon="15.183105"><ele>181.66666666666669</ele><time>2026-04-25T14:57:11.923Z</time></trkpt><trkpt lat="40.17914" lon="15.1830617"><ele>178.33333333333334</ele><time>2026-04-25T14:57:13.972Z</time></trkpt><trkpt lat="40.1791233" lon="15.18294"><ele>175.0</ele><time>2026-04-25T14:57:17.924Z</time></trkpt><trkpt lat="40.1790483" lon="15.1828383"><ele>177.33333333333334</ele><time>2026-04-25T14:57:19.974Z</time></trkpt><trkpt lat="40.1789933" lon="15.18276"><ele>179.66666666666669</ele><time>2026-04-25T14:57:20.915Z</time></trkpt><trkpt lat="40.1789367" lon="15.1826933"><ele>182.0</ele><time>2026-04-25T14:57:21.919Z</time></trkpt><trkpt lat="40.1788933" lon="15.1826"><ele>184.33333333333334</ele><time>2026-04-25T14:57:22.919Z</time></trkpt><trkpt lat="40.1788433" lon="15.1824983"><ele>186.66666666666666</ele><time>2026-04-25T14:57:23.923Z</time></trkpt><trkpt lat="40.1787917" lon="15.1823967"><ele>189.0</ele><time>2026-04-25T14:57:24.918Z</time></trkpt><trkpt lat="40.1787233" lon="15.182295"><ele>181.75</ele><time>2026-04-25T14:57:25.991Z</time></trkpt><trkpt lat="40.1786383" lon="15.1821933"><ele>174.5</ele><time>2026-04-25T14:57:26.914Z</time></trkpt><trkpt lat="40.178535" lon="15.18209"><ele>167.25</ele><time>2026-04-25T14:57:27.916Z</time></trkpt><trkpt lat="40.1784183" lon="15.1819967"><ele>160.0</ele><time>2026-04-25T14:57:28.917Z</time></trkpt><trkpt lat="40.178295" lon="15.1819033"><ele>160.0</ele><time>2026-04-25T14:57:29.92Z</time></trkpt><trkpt lat="40.1781917" lon="15.1818133"><ele>160.0</ele><time>2026-04-25T14:57:30.916Z</time></trkpt><trkpt lat="40.178095" lon="15.1817283"><ele>160.0</ele><time>2026-04-25T14:57:31.985Z</time></trkpt><trkpt lat="40.1780117" lon="15.1816267"><ele>160.0</ele><time>2026-04-25T14:57:32.919Z</time></trkpt><trkpt lat="40.1779383" lon="15.1814983"><ele>158.8</ele><time>2026-04-25T14:57:33.915Z</time></trkpt><trkpt lat="40.1778717" lon="15.181365"><ele>157.6</ele><time>2026-04-25T14:57:34.912Z</time></trkpt><trkpt lat="40.17781" lon="15.1812483"><ele>156.4</ele><time>2026-04-25T14:57:35.916Z</time></trkpt><trkpt lat="40.1777583" lon="15.1811467"><ele>155.2</ele><time>2026-04-25T14:57:36.918Z</time></trkpt><trkpt lat="40.1777333" lon="15.1810583"><ele>154.0</ele><time>2026-04-25T14:57:37.975Z</time></trkpt><trkpt lat="40.177725" lon="15.180965"><ele>154.0</ele><time>2026-04-25T14:57:38.915Z</time></trkpt><trkpt lat="40.1777367" lon="15.180855"><ele>154.0</ele><time>2026-04-25T14:57:39.919Z</time></trkpt><trkpt lat="40.1777667" lon="15.1807233"><ele>154.0</ele><time>2026-04-25T14:57:40.913Z</time></trkpt><trkpt lat="40.1778117" lon="15.1805767"><ele>154.0</ele><time>2026-04-25T14:57:41.92Z</time></trkpt><trkpt lat="40.17785" lon="15.18044"><ele>154.0</ele><time>2026-04-25T14:57:42.918Z</time></trkpt><trkpt lat="40.1778883" lon="15.1803217"><ele>151.16666666666669</ele><time>2026-04-25T14:57:43.971Z</time></trkpt><trkpt lat="40.17793" lon="15.1802183"><ele>148.33333333333334</ele><time>2026-04-25T14:57:44.914Z</time></trkpt><trkpt lat="40.1779883" lon="15.1801433"><ele>145.5</ele><time>2026-04-25T14:57:45.922Z</time></trkpt><trkpt lat="40.1780617" lon="15.1801033"><ele>142.66666666666666</ele><time>2026-04-25T14:57:46.915Z</time></trkpt><trkpt lat="40.1781433" lon="15.180085"><ele>139.83333333333331</ele><time>2026-04-25T14:57:47.923Z</time></trkpt><trkpt lat="40.178215" lon="15.18006"><ele>137.0</ele><time>2026-04-25T14:57:48.92Z</time></trkpt><trkpt lat="40.1782517" lon="15.1799617"><ele>137.0</ele><time>2026-04-25T14:57:50.914Z</time></trkpt><trkpt lat="40.1781133" lon="15.179885"><ele>137.0</ele><time>2026-04-25T14:57:52.92Z</time></trkpt><trkpt lat="40.1780117" lon="15.179865"><ele>137.0</ele><time>2026-04-25T14:57:53.915Z</time></trkpt><trkpt lat="40.1779183" lon="15.17984"><ele>137.0</ele><time>2026-04-25T14:57:54.92Z</time></trkpt><trkpt lat="40.1778417" lon="15.1798133"><ele>137.0</ele><time>2026-04-25T14:57:55.99Z</time></trkpt><trkpt lat="40.1777883" lon="15.179675"><ele>134.66666666666666</ele><time>2026-04-25T14:57:57.922Z</time></trkpt><trkpt lat="40.1778133" lon="15.1795633"><ele>132.33333333333331</ele><time>2026-04-25T14:57:58.923Z</time></trkpt><trkpt lat="40.1778517" lon="15.17945"><ele>130.0</ele><time>2026-04-25T14:57:59.92Z</time></trkpt><trkpt lat="40.1778983" lon="15.1793517"><ele>127.66666666666666</ele><time>2026-04-25T14:58:00.918Z</time></trkpt><trkpt lat="40.1779467" lon="15.1792533"><ele>125.33333333333333</ele><time>2026-04-25T14:58:01.986Z</time></trkpt><trkpt lat="40.1779817" lon="15.1791567"><ele>123.0</ele><time>2026-04-25T14:58:02.916Z</time></trkpt><trkpt lat="40.178" lon="15.1790517"><ele>120.66666666666667</ele><time>2026-04-25T14:58:03.919Z</time></trkpt><trkpt lat="40.1779983" lon="15.1789383"><ele>118.33333333333334</ele><time>2026-04-25T14:58:04.925Z</time></trkpt><trkpt lat="40.177985" lon="15.1788283"><ele>116.0</ele><time>2026-04-25T14:58:05.918Z</time></trkpt><trkpt lat="40.1779533" lon="15.1787417"><ele>113.66666666666667</ele><time>2026-04-25T14:58:06.914Z</time></trkpt><trkpt lat="40.1779117" lon="15.1786717"><ele>111.33333333333334</ele><time>2026-04-25T14:58:07.969Z</time></trkpt><trkpt lat="40.177865" lon="15.178615"><ele>109.0</ele><time>2026-04-25T14:58:08.921Z</time></trkpt><trkpt lat="40.1778267" lon="15.1785033"><ele>109.00000000000001</ele><time>2026-04-25T14:58:10.924Z</time></trkpt><trkpt lat="40.1779033" lon="15.1784717"><ele>109.0</ele><time>2026-04-25T14:58:11.919Z</time></trkpt><trkpt lat="40.1779833" lon="15.1784783"><ele>109.0</ele><time>2026-04-25T14:58:12.916Z</time></trkpt><trkpt lat="40.1780667" lon="15.1785017"><ele>109.0</ele><time>2026-04-25T14:58:13.972Z</time></trkpt><trkpt lat="40.1781517" lon="15.1785517"><ele>109.00000000000001</ele><time>2026-04-25T14:58:14.917Z</time></trkpt><trkpt lat="40.1782317" lon="15.1786133"><ele>109.0</ele><time>2026-04-25T14:58:15.922Z</time></trkpt><trkpt lat="40.1782983" lon="15.1787017"><ele>107.2</ele><time>2026-04-25T14:58:16.919Z</time></trkpt><trkpt lat="40.1783617" lon="15.1787717"><ele>105.4</ele><time>2026-04-25T14:58:17.921Z</time></trkpt><trkpt lat="40.1784117" lon="15.17884"><ele>103.6</ele><time>2026-04-25T14:58:18.917Z</time></trkpt><trkpt lat="40.1783967" lon="15.1787317"><ele>101.8</ele><time>2026-04-25T14:58:24.915Z</time></trkpt><trkpt lat="40.17833" lon="15.1786333"><ele>100.0</ele><time>2026-04-25T14:58:25.984Z</time></trkpt><trkpt lat="40.178255" lon="15.178525"><ele>100.0</ele><time>2026-04-25T14:58:26.915Z</time></trkpt><trkpt lat="40.178185" lon="15.1784217"><ele>100.0</ele><time>2026-04-25T14:58:27.917Z</time></trkpt><trkpt lat="40.1781167" lon="15.1783267"><ele>100.0</ele><time>2026-04-25T14:58:28.918Z</time></trkpt><trkpt lat="40.1780383" lon="15.1782533"><ele>100.0</ele><time>2026-04-25T14:58:29.92Z</time></trkpt><trkpt lat="40.1779683" lon="15.1781967"><ele>100.0</ele><time>2026-04-25T14:58:30.917Z</time></trkpt><trkpt lat="40.1778967" lon="15.1781633"><ele>98.50000000000001</ele><time>2026-04-25T14:58:31.984Z</time></trkpt><trkpt lat="40.1778183" lon="15.1781633"><ele>97.0</ele><time>2026-04-25T14:58:32.916Z</time></trkpt><trkpt lat="40.1777417" lon="15.1781783"><ele>95.5</ele><time>2026-04-25T14:58:33.915Z</time></trkpt><trkpt lat="40.1776283" lon="15.1781517"><ele>94.0</ele><time>2026-04-25T14:58:35.916Z</time></trkpt><trkpt lat="40.1775733" lon="15.1781"><ele>92.5</ele><time>2026-04-25T14:58:36.918Z</time></trkpt><trkpt lat="40.1775083" lon="15.1780283"><ele>91.0</ele><time>2026-04-25T14:58:37.969Z</time></trkpt><trkpt lat="40.1774367" lon="15.1779433"><ele>91.0</ele><time>2026-04-25T14:58:38.915Z</time></trkpt><trkpt lat="40.1773683" lon="15.1778617"><ele>91.0</ele><time>2026-04-25T14:58:39.914Z</time></trkpt><trkpt lat="40.17731" lon="15.17777"><ele>91.0</ele><time>2026-04-25T14:58:40.92Z</time></trkpt><trkpt lat="40.1772567" lon="15.1776683"><ele>91.0</ele><time>2026-04-25T14:58:41.918Z</time></trkpt><trkpt lat="40.1772017" lon="15.1775733"><ele>91.0</ele><time>2026-04-25T14:58:42.917Z</time></trkpt><trkpt lat="40.1771467" lon="15.1774833"><ele>92.4</ele><time>2026-04-25T14:58:43.974Z</time></trkpt><trkpt lat="40.1770867" lon="15.1773867"><ele>93.8</ele><time>2026-04-25T14:58:44.915Z</time></trkpt><trkpt lat="40.1770267" lon="15.1772883"><ele>95.2</ele><time>2026-04-25T14:58:45.915Z</time></trkpt><trkpt lat="40.1769667" lon="15.1771883"><ele>96.60000000000001</ele><time>2026-04-25T14:58:46.919Z</time></trkpt><trkpt lat="40.1769083" lon="15.1770867"><ele>98.0</ele><time>2026-04-25T14:58:47.915Z</time></trkpt><trkpt lat="40.1768517" lon="15.1769817"><ele>94.4</ele><time>2026-04-25T14:58:48.918Z</time></trkpt><trkpt lat="40.176795" lon="15.1768833"><ele>90.80000000000001</ele><time>2026-04-25T14:58:49.967Z</time></trkpt><trkpt lat="40.176735" lon="15.1767917"><ele>87.2</ele><time>2026-04-25T14:58:50.921Z</time></trkpt><trkpt lat="40.176675" lon="15.1767033"><ele>83.6</ele><time>2026-04-25T14:58:51.92Z</time></trkpt><trkpt lat="40.1766067" lon="15.1766183"><ele>80.0</ele><time>2026-04-25T14:58:52.919Z</time></trkpt><trkpt lat="40.17653" lon="15.1765433"><ele>79.8</ele><time>2026-04-25T14:58:53.916Z</time></trkpt><trkpt lat="40.1764483" lon="15.17647"><ele>79.6</ele><time>2026-04-25T14:58:54.92Z</time></trkpt><trkpt lat="40.176365" lon="15.1763983"><ele>79.4</ele><time>2026-04-25T14:58:55.985Z</time></trkpt><trkpt lat="40.1762733" lon="15.1763267"><ele>79.2</ele><time>2026-04-25T14:58:56.921Z</time></trkpt><trkpt lat="40.176175" lon="15.1762467"><ele>79.0</ele><time>2026-04-25T14:58:57.919Z</time></trkpt><trkpt lat="40.1760817" lon="15.1761683"><ele>79.0</ele><time>2026-04-25T14:58:58.917Z</time></trkpt><trkpt lat="40.175995" lon="15.1760883"><ele>79.0</ele><time>2026-04-25T14:58:59.919Z</time></trkpt><trkpt lat="40.1759167" lon="15.1760233"><ele>79.0</ele><time>2026-04-25T14:59:00.915Z</time></trkpt><trkpt lat="40.1758567" lon="15.17596"><ele>79.0</ele><time>2026-04-25T14:59:01.982Z</time></trkpt><trkpt lat="40.1758017" lon="15.175915"><ele>79.0</ele><time>2026-04-25T14:59:02.915Z</time></trkpt><trkpt lat="40.1756983" lon="15.1760617"><ele>78.0</ele><time>2026-04-25T14:59:23.919Z</time></trkpt><trkpt lat="40.1756267" lon="15.1760717"><ele>77.0</ele><time>2026-04-25T14:59:24.921Z</time></trkpt><trkpt lat="40.175555" lon="15.17609"><ele>76.0</ele><time>2026-04-25T14:59:25.979Z</time></trkpt><trkpt lat="40.175445" lon="15.176125"><ele>75.0</ele><time>2026-04-25T14:59:27.924Z</time></trkpt><trkpt lat="40.1753783" lon="15.1762117"><ele>74.0</ele><time>2026-04-25T14:59:29.916Z</time></trkpt><trkpt lat="40.1753" lon="15.1763033"><ele>74.0</ele><time>2026-04-25T14:59:31.987Z</time></trkpt><trkpt lat="40.1752233" lon="15.17637"><ele>74.0</ele><time>2026-04-25T14:59:33.908Z</time></trkpt><trkpt lat="40.17516" lon="15.1763683"><ele>74.0</ele><time>2026-04-25T14:59:35.917Z</time></trkpt><trkpt lat="40.1751217" lon="15.17627"><ele>74.0</ele><time>2026-04-25T14:59:37.967Z</time></trkpt><trkpt lat="40.17507" lon="15.1761917"><ele>74.0</ele><time>2026-04-25T14:59:39.93Z</time></trkpt><trkpt lat="40.174995" lon="15.176135"><ele>74.0</ele><time>2026-04-25T14:59:41.918Z</time></trkpt><trkpt lat="40.174895" lon="15.17609"><ele>74.57142857142857</ele><time>2026-04-25T14:59:43.972Z</time></trkpt><trkpt lat="40.1748317" lon="15.1760733"><ele>75.14285714285714</ele><time>2026-04-25T14:59:44.918Z</time></trkpt><trkpt lat="40.1747633" lon="15.1760583"><ele>75.71428571428572</ele><time>2026-04-25T14:59:45.918Z</time></trkpt><trkpt lat="40.17469" lon="15.1760517"><ele>76.28571428571428</ele><time>2026-04-25T14:59:46.916Z</time></trkpt><trkpt lat="40.17461" lon="15.1760633"><ele>76.85714285714285</ele><time>2026-04-25T14:59:47.916Z</time></trkpt><trkpt lat="40.1745367" lon="15.1760733"><ele>77.42857142857143</ele><time>2026-04-25T14:59:48.926Z</time></trkpt><trkpt lat="40.17447" lon="15.17609"><ele>78.0</ele><time>2026-04-25T14:59:49.967Z</time></trkpt><trkpt lat="40.1744017" lon="15.1761017"><ele>78.0</ele><time>2026-04-25T14:59:50.919Z</time></trkpt><trkpt lat="40.174335" lon="15.1760967"><ele>78.0</ele><time>2026-04-25T14:59:51.919Z</time></trkpt><trkpt lat="40.174225" lon="15.1760683"><ele>78.0</ele><time>2026-04-25T14:59:53.919Z</time></trkpt><trkpt lat="40.1741317" lon="15.1760317"><ele>78.0</ele><time>2026-04-25T14:59:55.985Z</time></trkpt><trkpt lat="40.17405" lon="15.1759967"><ele>78.0</ele><time>2026-04-25T14:59:57.919Z</time></trkpt><trkpt lat="40.173955" lon="15.1759933"><ele>80.71428571428572</ele><time>2026-04-25T14:59:59.913Z</time></trkpt><trkpt lat="40.17388" lon="15.1760167"><ele>83.42857142857142</ele><time>2026-04-25T15:00:00.919Z</time></trkpt><trkpt lat="40.1738083" lon="15.176025"><ele>86.14285714285714</ele><time>2026-04-25T15:00:01.991Z</time></trkpt><trkpt lat="40.17374" lon="15.1760183"><ele>88.85714285714286</ele><time>2026-04-25T15:00:02.917Z</time></trkpt><trkpt lat="40.173665" lon="15.1759983"><ele>91.57142857142858</ele><time>2026-04-25T15:00:03.917Z</time></trkpt><trkpt lat="40.1735967" lon="15.1759633"><ele>94.28571428571428</ele><time>2026-04-25T15:00:04.917Z</time></trkpt><trkpt lat="40.173535" lon="15.1759117"><ele>97.0</ele><time>2026-04-25T15:00:05.918Z</time></trkpt><trkpt lat="40.173475" lon="15.1758483"><ele>97.00000000000001</ele><time>2026-04-25T15:00:06.918Z</time></trkpt><trkpt lat="40.1734133" lon="15.1757783"><ele>97.0</ele><time>2026-04-25T15:00:07.971Z</time></trkpt><trkpt lat="40.17336" lon="15.175715"><ele>97.0</ele><time>2026-04-25T15:00:08.915Z</time></trkpt><trkpt lat="40.1733133" lon="15.1756567"><ele>97.0</ele><time>2026-04-25T15:00:09.921Z</time></trkpt><trkpt lat="40.1732583" lon="15.1755817"><ele>97.00000000000001</ele><time>2026-04-25T15:00:13.972Z</time></trkpt><trkpt lat="40.1732233" lon="15.1754783"><ele>97.0</ele><time>2026-04-25T15:00:15.917Z</time></trkpt><trkpt lat="40.1731533" lon="15.1754133"><ele>98.16666666666667</ele><time>2026-04-25T15:00:17.929Z</time></trkpt><trkpt lat="40.1731133" lon="15.17548"><ele>99.33333333333334</ele><time>2026-04-25T15:00:40.922Z</time></trkpt><trkpt lat="40.1730517" lon="15.1755667"><ele>100.5</ele><time>2026-04-25T15:00:41.913Z</time></trkpt><trkpt lat="40.1730183" lon="15.175665"><ele>101.66666666666666</ele><time>2026-04-25T15:00:43.971Z</time></trkpt><trkpt lat="40.1729433" lon="15.17577"><ele>102.83333333333333</ele><time>2026-04-25T15:00:45.914Z</time></trkpt><trkpt lat="40.172865" lon="15.175815"><ele>104.0</ele><time>2026-04-25T15:00:46.914Z</time></trkpt><trkpt lat="40.172795" lon="15.1758533"><ele>105.16666666666666</ele><time>2026-04-25T15:00:47.92Z</time></trkpt><trkpt lat="40.1727183" lon="15.1758867"><ele>106.33333333333333</ele><time>2026-04-25T15:00:48.92Z</time></trkpt><trkpt lat="40.1726283" lon="15.1759017"><ele>107.5</ele><time>2026-04-25T15:00:49.976Z</time></trkpt><trkpt lat="40.1725417" lon="15.175925"><ele>108.66666666666666</ele><time>2026-04-25T15:00:50.915Z</time></trkpt><trkpt lat="40.1724583" lon="15.1759617"><ele>109.83333333333333</ele><time>2026-04-25T15:00:51.913Z</time></trkpt><trkpt lat="40.1723883" lon="15.1760067"><ele>111.0</ele><time>2026-04-25T15:00:52.919Z</time></trkpt><trkpt lat="40.1723233" lon="15.1761033"><ele>115.0</ele><time>2026-04-25T15:00:53.915Z</time></trkpt><trkpt lat="40.1722517" lon="15.1762117"><ele>119.0</ele><time>2026-04-25T15:00:54.915Z</time></trkpt><trkpt lat="40.1721783" lon="15.1762967"><ele>123.0</ele><time>2026-04-25T15:00:55.98Z</time></trkpt><trkpt lat="40.1721083" lon="15.1763667"><ele>127.0</ele><time>2026-04-25T15:00:56.92Z</time></trkpt><trkpt lat="40.172035" lon="15.1764233"><ele>131.0</ele><time>2026-04-25T15:00:57.918Z</time></trkpt><trkpt lat="40.1719667" lon="15.176435"><ele>131.0</ele><time>2026-04-25T15:00:58.916Z</time></trkpt><trkpt lat="40.1719033" lon="15.17639"><ele>131.0</ele><time>2026-04-25T15:00:59.925Z</time></trkpt><trkpt lat="40.1718933" lon="15.1762233"><ele>131.0</ele><time>2026-04-25T15:01:00.92Z</time></trkpt><trkpt lat="40.1718767" lon="15.1761083"><ele>131.0</ele><time>2026-04-25T15:01:01.984Z</time></trkpt><trkpt lat="40.1718483" lon="15.17602"><ele>131.0</ele><time>2026-04-25T15:01:02.921Z</time></trkpt><trkpt lat="40.17181" lon="15.17595"><ele>131.0</ele><time>2026-04-25T15:01:03.92Z</time></trkpt><trkpt lat="40.1717517" lon="15.175895"><ele>131.0</ele><time>2026-04-25T15:01:04.915Z</time></trkpt><trkpt lat="40.1716433" lon="15.1758417"><ele>131.0</ele><time>2026-04-25T15:01:06.919Z</time></trkpt><trkpt lat="40.1715267" lon="15.1758467"><ele>131.0</ele><time>2026-04-25T15:01:08.913Z</time></trkpt><trkpt lat="40.1714517" lon="15.1758717"><ele>131.0</ele><time>2026-04-25T15:01:09.918Z</time></trkpt><trkpt lat="40.1713767" lon="15.175905"><ele>131.0</ele><time>2026-04-25T15:01:10.916Z</time></trkpt><trkpt lat="40.1713017" lon="15.1759533"><ele>132.2</ele><time>2026-04-25T15:01:11.927Z</time></trkpt><trkpt lat="40.1712383" lon="15.1760117"><ele>133.39999999999998</ele><time>2026-04-25T15:01:12.918Z</time></trkpt><trkpt lat="40.171175" lon="15.1760933"><ele>134.6</ele><time>2026-04-25T15:01:13.97Z</time></trkpt><trkpt lat="40.171115" lon="15.1761967"><ele>135.79999999999998</ele><time>2026-04-25T15:01:14.914Z</time></trkpt><trkpt lat="40.171055" lon="15.1763083"><ele>137.0</ele><time>2026-04-25T15:01:15.918Z</time></trkpt><trkpt lat="40.1709917" lon="15.1764267"><ele>140.25</ele><time>2026-04-25T15:01:16.917Z</time></trkpt><trkpt lat="40.1709267" lon="15.176555"><ele>143.5</ele><time>2026-04-25T15:01:17.915Z</time></trkpt><trkpt lat="40.1708617" lon="15.1767117"><ele>146.75</ele><time>2026-04-25T15:01:18.919Z</time></trkpt><trkpt lat="40.1707983" lon="15.176865"><ele>150.0</ele><time>2026-04-25T15:01:19.97Z</time></trkpt><trkpt lat="40.170725" lon="15.1770033"><ele>151.75</ele><time>2026-04-25T15:01:20.922Z</time></trkpt><trkpt lat="40.1706433" lon="15.1771133"><ele>153.5</ele><time>2026-04-25T15:01:21.918Z</time></trkpt><trkpt lat="40.1705517" lon="15.1772"><ele>155.25</ele><time>2026-04-25T15:01:22.92Z</time></trkpt><trkpt lat="40.1704467" lon="15.17725"><ele>157.0</ele><time>2026-04-25T15:01:23.917Z</time></trkpt><trkpt lat="40.17033" lon="15.1772517"><ele>157.0</ele><time>2026-04-25T15:01:24.914Z</time></trkpt><trkpt lat="40.1702133" lon="15.1772283"><ele>157.0</ele><time>2026-04-25T15:01:25.979Z</time></trkpt><trkpt lat="40.170115" lon="15.1772217"><ele>157.0</ele><time>2026-04-25T15:01:26.916Z</time></trkpt><trkpt lat="40.1700383" lon="15.177235"><ele>157.0</ele><time>2026-04-25T15:01:27.913Z</time></trkpt><trkpt lat="40.169975" lon="15.177255"><ele>157.0</ele><time>2026-04-25T15:01:29.921Z</time></trkpt><trkpt lat="40.1700117" lon="15.17734"><ele>157.0</ele><time>2026-04-25T15:01:32.917Z</time></trkpt><trkpt lat="40.17008" lon="15.177415"><ele>161.5</ele><time>2026-04-25T15:01:33.92Z</time></trkpt><trkpt lat="40.1701483" lon="15.1774983"><ele>166.0</ele><time>2026-04-25T15:01:34.915Z</time></trkpt><trkpt lat="40.170225" lon="15.177595"><ele>170.5</ele><time>2026-04-25T15:01:35.914Z</time></trkpt><trkpt lat="40.1703067" lon="15.17772"><ele>175.0</ele><time>2026-04-25T15:01:36.917Z</time></trkpt><trkpt lat="40.1703867" lon="15.1778467"><ele>175.0</ele><time>2026-04-25T15:01:37.975Z</time></trkpt><trkpt lat="40.1704617" lon="15.1779667"><ele>175.0</ele><time>2026-04-25T15:01:38.915Z</time></trkpt><trkpt lat="40.1705333" lon="15.1780783"><ele>175.0</ele><time>2026-04-25T15:01:39.918Z</time></trkpt><trkpt lat="40.1706067" lon="15.1781683"><ele>175.0</ele><time>2026-04-25T15:01:40.919Z</time></trkpt><trkpt lat="40.1706783" lon="15.1782367"><ele>175.0</ele><time>2026-04-25T15:01:41.912Z</time></trkpt><trkpt lat="40.1707583" lon="15.17828"><ele>177.6</ele><time>2026-04-25T15:01:42.921Z</time></trkpt><trkpt lat="40.1708433" lon="15.17835"><ele>180.2</ele><time>2026-04-25T15:01:43.969Z</time></trkpt><trkpt lat="40.1709233" lon="15.1784217"><ele>182.8</ele><time>2026-04-25T15:01:44.919Z</time></trkpt><trkpt lat="40.1709967" lon="15.17852"><ele>185.4</ele><time>2026-04-25T15:01:45.918Z</time></trkpt><trkpt lat="40.1710783" lon="15.1786283"><ele>188.0</ele><time>2026-04-25T15:01:46.915Z</time></trkpt><trkpt lat="40.1711683" lon="15.1787483"><ele>188.0</ele><time>2026-04-25T15:01:47.918Z</time></trkpt><trkpt lat="40.1712717" lon="15.178865"><ele>188.0</ele><time>2026-04-25T15:01:48.916Z</time></trkpt><trkpt lat="40.1713833" lon="15.178975"><ele>188.0</ele><time>2026-04-25T15:01:49.974Z</time></trkpt><trkpt lat="40.1714867" lon="15.179075"><ele>188.0</ele><time>2026-04-25T15:01:50.915Z</time></trkpt><trkpt lat="40.1715867" lon="15.179165"><ele>188.16666666666666</ele><time>2026-04-25T15:01:51.916Z</time></trkpt><trkpt lat="40.1716667" lon="15.179245"><ele>188.33333333333331</ele><time>2026-04-25T15:01:52.921Z</time></trkpt><trkpt lat="40.1717283" lon="15.1793167"><ele>188.5</ele><time>2026-04-25T15:01:53.917Z</time></trkpt><trkpt lat="40.1717667" lon="15.1793933"><ele>188.66666666666666</ele><time>2026-04-25T15:01:54.926Z</time></trkpt><trkpt lat="40.17178" lon="15.1794817"><ele>188.83333333333334</ele><time>2026-04-25T15:01:55.985Z</time></trkpt><trkpt lat="40.171775" lon="15.1795967"><ele>189.0</ele><time>2026-04-25T15:01:56.916Z</time></trkpt><trkpt lat="40.1717733" lon="15.1797167"><ele>189.0</ele><time>2026-04-25T15:01:57.913Z</time></trkpt><trkpt lat="40.1717733" lon="15.17984"><ele>189.0</ele><time>2026-04-25T15:01:58.921Z</time></trkpt><trkpt lat="40.1717833" lon="15.1799633"><ele>189.0</ele><time>2026-04-25T15:01:59.919Z</time></trkpt><trkpt lat="40.171845" lon="15.1800767"><ele>189.0</ele><time>2026-04-25T15:02:00.919Z</time></trkpt><trkpt lat="40.1718933" lon="15.1801833"><ele>189.0</ele><time>2026-04-25T15:02:01.99Z</time></trkpt><trkpt lat="40.1719517" lon="15.1802783"><ele>189.5</ele><time>2026-04-25T15:02:02.921Z</time></trkpt><trkpt lat="40.1720067" lon="15.180355"><ele>190.0</ele><time>2026-04-25T15:02:03.92Z</time></trkpt><trkpt lat="40.1720733" lon="15.1804067"><ele>190.5</ele><time>2026-04-25T15:02:04.921Z</time></trkpt><trkpt lat="40.1721267" lon="15.1804767"><ele>191.0</ele><time>2026-04-25T15:02:05.92Z</time></trkpt><trkpt lat="40.1721683" lon="15.180555"><ele>191.5</ele><time>2026-04-25T15:02:06.915Z</time></trkpt><trkpt lat="40.1721817" lon="15.18067"><ele>192.0</ele><time>2026-04-25T15:02:07.969Z</time></trkpt><trkpt lat="40.172195" lon="15.180805"><ele>191.2</ele><time>2026-04-25T15:02:08.917Z</time></trkpt><trkpt lat="40.17222" lon="15.18097"><ele>190.39999999999998</ele><time>2026-04-25T15:02:09.919Z</time></trkpt><trkpt lat="40.1722533" lon="15.181115"><ele>189.60000000000002</ele><time>2026-04-25T15:02:10.92Z</time></trkpt><trkpt lat="40.1722967" lon="15.181235"><ele>188.8</ele><time>2026-04-25T15:02:11.921Z</time></trkpt><trkpt lat="40.1723483" lon="15.181335"><ele>188.0</ele><time>2026-04-25T15:02:12.918Z</time></trkpt><trkpt lat="40.172405" lon="15.1814017"><ele>188.0</ele><time>2026-04-25T15:02:13.975Z</time></trkpt><trkpt lat="40.1724783" lon="15.1814367"><ele>188.0</ele><time>2026-04-25T15:02:14.915Z</time></trkpt><trkpt lat="40.1725467" lon="15.1814667"><ele>188.0</ele><time>2026-04-25T15:02:15.916Z</time></trkpt><trkpt lat="40.17261" lon="15.181515"><ele>188.0</ele><time>2026-04-25T15:02:16.918Z</time></trkpt><trkpt lat="40.172645" lon="15.181615"><ele>188.0</ele><time>2026-04-25T15:02:18.919Z</time></trkpt><trkpt lat="40.1725833" lon="15.181715"><ele>188.0</ele><time>2026-04-25T15:02:20.92Z</time></trkpt><trkpt lat="40.172535" lon="15.181785"><ele>191.0</ele><time>2026-04-25T15:02:21.917Z</time></trkpt><trkpt lat="40.172505" lon="15.1818633"><ele>194.0</ele><time>2026-04-25T15:02:22.917Z</time></trkpt><trkpt lat="40.172475" lon="15.1819583"><ele>197.0</ele><time>2026-04-25T15:02:23.919Z</time></trkpt><trkpt lat="40.172455" lon="15.182085"><ele>200.0</ele><time>2026-04-25T15:02:24.916Z</time></trkpt><trkpt lat="40.1724583" lon="15.18223"><ele>203.0</ele><time>2026-04-25T15:02:25.989Z</time></trkpt><trkpt lat="40.1724767" lon="15.182395"><ele>205.2</ele><time>2026-04-25T15:02:26.914Z</time></trkpt><trkpt lat="40.1724983" lon="15.18256"><ele>207.4</ele><time>2026-04-25T15:02:27.91Z</time></trkpt><trkpt lat="40.17252" lon="15.182705"><ele>209.59999999999997</ele><time>2026-04-25T15:02:28.921Z</time></trkpt><trkpt lat="40.172535" lon="15.1828333"><ele>211.79999999999998</ele><time>2026-04-25T15:02:29.918Z</time></trkpt><trkpt lat="40.1725583" lon="15.1829517"><ele>214.0</ele><time>2026-04-25T15:02:30.923Z</time></trkpt><trkpt lat="40.1725883" lon="15.18306"><ele>213.99999999999997</ele><time>2026-04-25T15:02:31.98Z</time></trkpt><trkpt lat="40.1726283" lon="15.1831667"><ele>214.0</ele><time>2026-04-25T15:02:32.913Z</time></trkpt><trkpt lat="40.1726567" lon="15.183265"><ele>214.0</ele><time>2026-04-25T15:02:33.912Z</time></trkpt><trkpt lat="40.1726733" lon="15.183355"><ele>214.0</ele><time>2026-04-25T15:02:34.92Z</time></trkpt><trkpt lat="40.1726833" lon="15.18345"><ele>213.99999999999997</ele><time>2026-04-25T15:02:35.919Z</time></trkpt><trkpt lat="40.1726717" lon="15.1835717"><ele>214.0</ele><time>2026-04-25T15:02:36.92Z</time></trkpt><trkpt lat="40.17267" lon="15.1836983"><ele>215.75</ele><time>2026-04-25T15:02:37.978Z</time></trkpt><trkpt lat="40.1726417" lon="15.1838517"><ele>217.5</ele><time>2026-04-25T15:02:38.918Z</time></trkpt><trkpt lat="40.1726117" lon="15.1840017"><ele>219.25</ele><time>2026-04-25T15:02:39.916Z</time></trkpt><trkpt lat="40.172575" lon="15.1841417"><ele>221.0</ele><time>2026-04-25T15:02:40.921Z</time></trkpt><trkpt lat="40.17253" lon="15.1842783"><ele>222.20000000000002</ele><time>2026-04-25T15:02:41.919Z</time></trkpt><trkpt lat="40.1724783" lon="15.184405"><ele>223.40000000000003</ele><time>2026-04-25T15:02:42.92Z</time></trkpt><trkpt lat="40.172435" lon="15.1845117"><ele>224.6</ele><time>2026-04-25T15:02:43.974Z</time></trkpt><trkpt lat="40.1723933" lon="15.1845983"><ele>225.8</ele><time>2026-04-25T15:02:44.919Z</time></trkpt><trkpt lat="40.172345" lon="15.1847183"><ele>227.0</ele><time>2026-04-25T15:02:46.921Z</time></trkpt><trkpt lat="40.1723967" lon="15.1847767"><ele>226.0</ele><time>2026-04-25T15:02:54.917Z</time></trkpt><trkpt lat="40.172515" lon="15.1848567"><ele>225.0</ele><time>2026-04-25T15:02:56.912Z</time></trkpt><trkpt lat="40.172585" lon="15.1849067"><ele>224.0</ele><time>2026-04-25T15:02:57.916Z</time></trkpt><trkpt lat="40.17267" lon="15.1849717"><ele>223.0</ele><time>2026-04-25T15:02:58.916Z</time></trkpt><trkpt lat="40.1727733" lon="15.185045"><ele>222.0</ele><time>2026-04-25T15:02:59.915Z</time></trkpt><trkpt lat="40.1728867" lon="15.1851067"><ele>222.0</ele><time>2026-04-25T15:03:00.919Z</time></trkpt><trkpt lat="40.1730233" lon="15.1851633"><ele>222.0</ele><time>2026-04-25T15:03:01.983Z</time></trkpt><trkpt lat="40.1731683" lon="15.1852233"><ele>222.0</ele><time>2026-04-25T15:03:02.912Z</time></trkpt><trkpt lat="40.1733133" lon="15.1852967"><ele>222.5</ele><time>2026-04-25T15:03:03.916Z</time></trkpt><trkpt lat="40.17345" lon="15.1853783"><ele>223.0</ele><time>2026-04-25T15:03:04.918Z</time></trkpt><trkpt lat="40.17358" lon="15.1854667"><ele>223.5</ele><time>2026-04-25T15:03:05.921Z</time></trkpt><trkpt lat="40.17371" lon="15.1855567"><ele>224.0</ele><time>2026-04-25T15:03:06.91Z</time></trkpt><trkpt lat="40.173845" lon="15.185645"><ele>224.25</ele><time>2026-04-25T15:03:07.961Z</time></trkpt><trkpt lat="40.173975" lon="15.1857267"><ele>224.5</ele><time>2026-04-25T15:03:08.917Z</time></trkpt><trkpt lat="40.1741033" lon="15.1857983"><ele>224.75</ele><time>2026-04-25T15:03:09.914Z</time></trkpt><trkpt lat="40.1742383" lon="15.18586"><ele>225.0</ele><time>2026-04-25T15:03:10.921Z</time></trkpt><trkpt lat="40.1743733" lon="15.1859083"><ele>227.2</ele><time>2026-04-25T15:03:11.915Z</time></trkpt><trkpt lat="40.1744983" lon="15.1859533"><ele>229.4</ele><time>2026-04-25T15:03:12.923Z</time></trkpt><trkpt lat="40.1746133" lon="15.1859817"><ele>231.60000000000002</ele><time>2026-04-25T15:03:13.962Z</time></trkpt><trkpt lat="40.17471" lon="15.1859867"><ele>233.8</ele><time>2026-04-25T15:03:14.929Z</time></trkpt><trkpt lat="40.1747967" lon="15.1859683"><ele>236.0</ele><time>2026-04-25T15:03:15.92Z</time></trkpt><trkpt lat="40.1748683" lon="15.1859467"><ele>237.50000000000003</ele><time>2026-04-25T15:03:16.913Z</time></trkpt><trkpt lat="40.1749433" lon="15.1859467"><ele>239.0</ele><time>2026-04-25T15:03:17.915Z</time></trkpt><trkpt lat="40.17502" lon="15.18596"><ele>240.5</ele><time>2026-04-25T15:03:18.914Z</time></trkpt><trkpt lat="40.1751167" lon="15.1859983"><ele>242.0</ele><time>2026-04-25T15:03:19.959Z</time></trkpt><trkpt lat="40.175205" lon="15.1860217"><ele>243.50000000000003</ele><time>2026-04-25T15:03:20.911Z</time></trkpt><trkpt lat="40.17529" lon="15.18604"><ele>245.0</ele><time>2026-04-25T15:03:21.919Z</time></trkpt><trkpt lat="40.1753583" lon="15.1860483"><ele>245.0</ele><time>2026-04-25T15:03:22.918Z</time></trkpt><trkpt lat="40.1754867" lon="15.1861083"><ele>245.0</ele><time>2026-04-25T15:03:24.913Z</time></trkpt><trkpt lat="40.1755667" lon="15.18616"><ele>245.0</ele><time>2026-04-25T15:03:25.96Z</time></trkpt><trkpt lat="40.175655" lon="15.186225"><ele>245.0</ele><time>2026-04-25T15:03:26.92Z</time></trkpt><trkpt lat="40.175745" lon="15.1862933"><ele>245.0</ele><time>2026-04-25T15:03:27.914Z</time></trkpt><trkpt lat="40.175825" lon="15.186365"><ele>247.50000000000003</ele><time>2026-04-25T15:03:28.916Z</time></trkpt><trkpt lat="40.175895" lon="15.1864383"><ele>250.0</ele><time>2026-04-25T15:03:29.92Z</time></trkpt><trkpt lat="40.17595" lon="15.1865183"><ele>252.5</ele><time>2026-04-25T15:03:30.919Z</time></trkpt><trkpt lat="40.17599" lon="15.186595"><ele>255.0</ele><time>2026-04-25T15:03:31.987Z</time></trkpt><trkpt lat="40.176025" lon="15.186745"><ele>257.5</ele><time>2026-04-25T15:03:33.915Z</time></trkpt><trkpt lat="40.17604" lon="15.1868517"><ele>260.0</ele><time>2026-04-25T15:03:34.912Z</time></trkpt><trkpt lat="40.1760517" lon="15.187"><ele>260.0</ele><time>2026-04-25T15:03:35.919Z</time></trkpt><trkpt lat="40.1760633" lon="15.1871367"><ele>260.0</ele><time>2026-04-25T15:03:36.913Z</time></trkpt><trkpt lat="40.1760767" lon="15.1872683"><ele>260.0</ele><time>2026-04-25T15:03:37.965Z</time></trkpt><trkpt lat="40.1760917" lon="15.1873967"><ele>260.0</ele><time>2026-04-25T15:03:38.915Z</time></trkpt><trkpt lat="40.1761133" lon="15.1875083"><ele>260.0</ele><time>2026-04-25T15:03:39.917Z</time></trkpt><trkpt lat="40.17614" lon="15.1876083"><ele>256.8</ele><time>2026-04-25T15:03:40.919Z</time></trkpt><trkpt lat="40.17618" lon="15.1877017"><ele>253.6</ele><time>2026-04-25T15:03:41.919Z</time></trkpt><trkpt lat="40.1762333" lon="15.1877967"><ele>250.39999999999998</ele><time>2026-04-25T15:03:42.915Z</time></trkpt><trkpt lat="40.1762883" lon="15.1879"><ele>247.2</ele><time>2026-04-25T15:03:43.967Z</time></trkpt><trkpt lat="40.17634" lon="15.1880083"><ele>244.0</ele><time>2026-04-25T15:03:44.915Z</time></trkpt><trkpt lat="40.1763817" lon="15.1881267"><ele>242.66666666666666</ele><time>2026-04-25T15:03:45.92Z</time></trkpt><trkpt lat="40.176405" lon="15.1882367"><ele>241.33333333333331</ele><time>2026-04-25T15:03:46.923Z</time></trkpt><trkpt lat="40.1764117" lon="15.1883433"><ele>240.0</ele><time>2026-04-25T15:03:47.917Z</time></trkpt><trkpt lat="40.1763933" lon="15.1884333"><ele>238.66666666666669</ele><time>2026-04-25T15:03:48.917Z</time></trkpt><trkpt lat="40.1763533" lon="15.1885167"><ele>237.33333333333334</ele><time>2026-04-25T15:03:49.968Z</time></trkpt><trkpt lat="40.1763133" lon="15.1886033"><ele>236.0</ele><time>2026-04-25T15:03:50.912Z</time></trkpt><trkpt lat="40.1762717" lon="15.1887017"><ele>236.0</ele><time>2026-04-25T15:03:51.916Z</time></trkpt><trkpt lat="40.1762283" lon="15.1888083"><ele>236.00000000000003</ele><time>2026-04-25T15:03:52.934Z</time></trkpt><trkpt lat="40.1761883" lon="15.188925"><ele>236.00000000000003</ele><time>2026-04-25T15:03:53.917Z</time></trkpt><trkpt lat="40.1761567" lon="15.189045"><ele>236.0</ele><time>2026-04-25T15:03:54.917Z</time></trkpt><trkpt lat="40.1761333" lon="15.1891783"><ele>236.0</ele><time>2026-04-25T15:03:55.983Z</time></trkpt><trkpt lat="40.1761133" lon="15.1893"><ele>234.4</ele><time>2026-04-25T15:03:56.916Z</time></trkpt><trkpt lat="40.1760867" lon="15.1894183"><ele>232.8</ele><time>2026-04-25T15:03:57.915Z</time></trkpt><trkpt lat="40.176055" lon="15.1895317"><ele>231.20000000000002</ele><time>2026-04-25T15:03:58.918Z</time></trkpt><trkpt lat="40.1760083" lon="15.1896233"><ele>229.60000000000002</ele><time>2026-04-25T15:03:59.919Z</time></trkpt><trkpt lat="40.17594" lon="15.18969"><ele>228.0</ele><time>2026-04-25T15:04:00.917Z</time></trkpt><trkpt lat="40.1758633" lon="15.1897733"><ele>227.4</ele><time>2026-04-25T15:04:01.987Z</time></trkpt><trkpt lat="40.1758" lon="15.189855"><ele>226.8</ele><time>2026-04-25T15:04:02.912Z</time></trkpt><trkpt lat="40.1757433" lon="15.1899433"><ele>226.2</ele><time>2026-04-25T15:04:03.914Z</time></trkpt><trkpt lat="40.175685" lon="15.190045"><ele>225.6</ele><time>2026-04-25T15:04:04.916Z</time></trkpt><trkpt lat="40.175625" lon="15.19016"><ele>225.0</ele><time>2026-04-25T15:04:05.913Z</time></trkpt><trkpt lat="40.1755633" lon="15.1902767"><ele>224.8</ele><time>2026-04-25T15:04:06.915Z</time></trkpt><trkpt lat="40.1755067" lon="15.1903917"><ele>224.6</ele><time>2026-04-25T15:04:07.968Z</time></trkpt><trkpt lat="40.1754667" lon="15.1904983"><ele>224.39999999999998</ele><time>2026-04-25T15:04:08.911Z</time></trkpt><trkpt lat="40.1754317" lon="15.1906"><ele>224.2</ele><time>2026-04-25T15:04:09.922Z</time></trkpt><trkpt lat="40.1754017" lon="15.19071"><ele>224.0</ele><time>2026-04-25T15:04:10.918Z</time></trkpt><trkpt lat="40.1753883" lon="15.19083"><ele>225.5</ele><time>2026-04-25T15:04:11.922Z</time></trkpt><trkpt lat="40.1753883" lon="15.1909583"><ele>227.0</ele><time>2026-04-25T15:04:12.92Z</time></trkpt><trkpt lat="40.1753983" lon="15.1911083"><ele>228.5</ele><time>2026-04-25T15:04:13.975Z</time></trkpt><trkpt lat="40.1754017" lon="15.191265"><ele>230.0</ele><time>2026-04-25T15:04:14.911Z</time></trkpt><trkpt lat="40.1754" lon="15.19143"><ele>228.25</ele><time>2026-04-25T15:04:15.918Z</time></trkpt><trkpt lat="40.1754017" lon="15.19159"><ele>226.5</ele><time>2026-04-25T15:04:16.916Z</time></trkpt><trkpt lat="40.1754033" lon="15.19175"><ele>224.75</ele><time>2026-04-25T15:04:17.915Z</time></trkpt><trkpt lat="40.1754133" lon="15.191895"><ele>223.0</ele><time>2026-04-25T15:04:18.911Z</time></trkpt><trkpt lat="40.1754333" lon="15.1920283"><ele>223.0</ele><time>2026-04-25T15:04:19.974Z</time></trkpt><trkpt lat="40.1754733" lon="15.1921567"><ele>223.0</ele><time>2026-04-25T15:04:20.913Z</time></trkpt><trkpt lat="40.1755283" lon="15.192295"><ele>223.0</ele><time>2026-04-25T15:04:21.915Z</time></trkpt><trkpt lat="40.1755783" lon="15.1924367"><ele>223.0</ele><time>2026-04-25T15:04:22.918Z</time></trkpt><trkpt lat="40.175625" lon="15.1925783"><ele>222.75</ele><time>2026-04-25T15:04:23.916Z</time></trkpt><trkpt lat="40.1756567" lon="15.1927183"><ele>222.5</ele><time>2026-04-25T15:04:24.922Z</time></trkpt><trkpt lat="40.1756767" lon="15.19287"><ele>222.25</ele><time>2026-04-25T15:04:25.98Z</time></trkpt><trkpt lat="40.1756917" lon="15.1930417"><ele>222.0</ele><time>2026-04-25T15:04:26.916Z</time></trkpt><trkpt lat="40.1757067" lon="15.1932217"><ele>224.25</ele><time>2026-04-25T15:04:27.918Z</time></trkpt><trkpt lat="40.1757217" lon="15.1933933"><ele>226.5</ele><time>2026-04-25T15:04:28.916Z</time></trkpt><trkpt lat="40.1757383" lon="15.1935467"><ele>228.75</ele><time>2026-04-25T15:04:29.915Z</time></trkpt><trkpt lat="40.1757533" lon="15.19368"><ele>231.0</ele><time>2026-04-25T15:04:30.915Z</time></trkpt><trkpt lat="40.17576" lon="15.1938067"><ele>231.0</ele><time>2026-04-25T15:04:31.981Z</time></trkpt><trkpt lat="40.1757567" lon="15.1939383"><ele>231.00000000000003</ele><time>2026-04-25T15:04:32.911Z</time></trkpt><trkpt lat="40.1757367" lon="15.1940733"><ele>231.00000000000003</ele><time>2026-04-25T15:04:33.921Z</time></trkpt><trkpt lat="40.1757117" lon="15.1942133"><ele>231.0</ele><time>2026-04-25T15:04:34.92Z</time></trkpt><trkpt lat="40.1756833" lon="15.19435"><ele>231.0</ele><time>2026-04-25T15:04:35.912Z</time></trkpt><trkpt lat="40.1756567" lon="15.19448"><ele>229.0</ele><time>2026-04-25T15:04:36.914Z</time></trkpt><trkpt lat="40.175625" lon="15.1945967"><ele>227.0</ele><time>2026-04-25T15:04:37.966Z</time></trkpt><trkpt lat="40.1756" lon="15.1947"><ele>225.0</ele><time>2026-04-25T15:04:38.923Z</time></trkpt><trkpt lat="40.17558" lon="15.1948033"><ele>223.0</ele><time>2026-04-25T15:04:39.918Z</time></trkpt><trkpt lat="40.1755633" lon="15.1949233"><ele>221.0</ele><time>2026-04-25T15:04:40.915Z</time></trkpt><trkpt lat="40.175545" lon="15.1950467"><ele>219.0</ele><time>2026-04-25T15:04:41.921Z</time></trkpt><trkpt lat="40.1755267" lon="15.1951733"><ele>218.83333333333334</ele><time>2026-04-25T15:04:42.923Z</time></trkpt><trkpt lat="40.17551" lon="15.1952917"><ele>218.66666666666669</ele><time>2026-04-25T15:04:43.964Z</time></trkpt><trkpt lat="40.1754883" lon="15.1953883"><ele>218.5</ele><time>2026-04-25T15:04:44.914Z</time></trkpt><trkpt lat="40.17546" lon="15.195465"><ele>218.33333333333334</ele><time>2026-04-25T15:04:45.917Z</time></trkpt><trkpt lat="40.17542" lon="15.1955317"><ele>218.16666666666669</ele><time>2026-04-25T15:04:46.917Z</time></trkpt><trkpt lat="40.1753467" lon="15.195605"><ele>218.0</ele><time>2026-04-25T15:04:47.918Z</time></trkpt><trkpt lat="40.175265" lon="15.1956817"><ele>218.0</ele><time>2026-04-25T15:04:48.911Z</time></trkpt><trkpt lat="40.1751517" lon="15.1957517"><ele>218.0</ele><time>2026-04-25T15:04:49.972Z</time></trkpt><trkpt lat="40.1750267" lon="15.195825"><ele>218.0</ele><time>2026-04-25T15:04:50.915Z</time></trkpt><trkpt lat="40.1748967" lon="15.195915"><ele>218.0</ele><time>2026-04-25T15:04:51.921Z</time></trkpt><trkpt lat="40.1747733" lon="15.1960167"><ele>215.5</ele><time>2026-04-25T15:04:52.921Z</time></trkpt><trkpt lat="40.174665" lon="15.1961167"><ele>213.0</ele><time>2026-04-25T15:04:53.915Z</time></trkpt><trkpt lat="40.17457" lon="15.1962133"><ele>210.5</ele><time>2026-04-25T15:04:54.916Z</time></trkpt><trkpt lat="40.1744917" lon="15.196305"><ele>208.0</ele><time>2026-04-25T15:04:55.98Z</time></trkpt><trkpt lat="40.1744167" lon="15.1963783"><ele>207.99999999999997</ele><time>2026-04-25T15:04:56.912Z</time></trkpt><trkpt lat="40.1743383" lon="15.19643"><ele>208.0</ele><time>2026-04-25T15:04:57.911Z</time></trkpt><trkpt lat="40.17426" lon="15.1964567"><ele>208.0</ele><time>2026-04-25T15:04:58.916Z</time></trkpt><trkpt lat="40.174185" lon="15.1964733"><ele>208.0</ele><time>2026-04-25T15:04:59.915Z</time></trkpt><trkpt lat="40.174115" lon="15.1964983"><ele>207.99999999999997</ele><time>2026-04-25T15:05:00.917Z</time></trkpt><trkpt lat="40.1740583" lon="15.1965433"><ele>208.0</ele><time>2026-04-25T15:05:01.981Z</time></trkpt><trkpt lat="40.1739983" lon="15.19662"><ele>207.49999999999997</ele><time>2026-04-25T15:05:02.917Z</time></trkpt><trkpt lat="40.1739283" lon="15.1967067"><ele>207.0</ele><time>2026-04-25T15:05:03.914Z</time></trkpt><trkpt lat="40.1738617" lon="15.1967933"><ele>206.5</ele><time>2026-04-25T15:05:04.917Z</time></trkpt><trkpt lat="40.1738" lon="15.1968617"><ele>206.0</ele><time>2026-04-25T15:05:05.916Z</time></trkpt><trkpt lat="40.17374" lon="15.1969133"><ele>205.49999999999997</ele><time>2026-04-25T15:05:06.916Z</time></trkpt><trkpt lat="40.1736733" lon="15.1969467"><ele>205.0</ele><time>2026-04-25T15:05:07.969Z</time></trkpt><trkpt lat="40.1736" lon="15.1969567"><ele>205.0</ele><time>2026-04-25T15:05:08.924Z</time></trkpt><trkpt lat="40.17351" lon="15.196915"><ele>205.0</ele><time>2026-04-25T15:05:09.917Z</time></trkpt><trkpt lat="40.173395" lon="15.196805"><ele>205.0</ele><time>2026-04-25T15:05:10.919Z</time></trkpt><trkpt lat="40.1732433" lon="15.1967067"><ele>205.0</ele><time>2026-04-25T15:05:11.917Z</time></trkpt><trkpt lat="40.1730833" lon="15.1966217"><ele>200.0</ele><time>2026-04-25T15:05:12.916Z</time></trkpt><trkpt lat="40.1728933" lon="15.1965617"><ele>195.0</ele><time>2026-04-25T15:05:13.972Z</time></trkpt><trkpt lat="40.1727233" lon="15.196515"><ele>190.0</ele><time>2026-04-25T15:05:14.911Z</time></trkpt><trkpt lat="40.1725533" lon="15.1964667"><ele>188.25</ele><time>2026-04-25T15:05:15.919Z</time></trkpt><trkpt lat="40.172405" lon="15.1964583"><ele>186.5</ele><time>2026-04-25T15:05:16.916Z</time></trkpt><trkpt lat="40.1722617" lon="15.196485"><ele>184.75</ele><time>2026-04-25T15:05:17.921Z</time></trkpt><trkpt lat="40.1721283" lon="15.1965233"><ele>183.0</ele><time>2026-04-25T15:05:18.919Z</time></trkpt><trkpt lat="40.172005" lon="15.196565"><ele>182.5</ele><time>2026-04-25T15:05:19.974Z</time></trkpt><trkpt lat="40.17189" lon="15.1965867"><ele>182.0</ele><time>2026-04-25T15:05:20.912Z</time></trkpt><trkpt lat="40.1717783" lon="15.196585"><ele>181.5</ele><time>2026-04-25T15:05:21.915Z</time></trkpt><trkpt lat="40.17166" lon="15.1965633"><ele>181.0</ele><time>2026-04-25T15:05:22.916Z</time></trkpt><trkpt lat="40.1715483" lon="15.1965167"><ele>179.20000000000002</ele><time>2026-04-25T15:05:23.919Z</time></trkpt><trkpt lat="40.17144" lon="15.1964683"><ele>177.4</ele><time>2026-04-25T15:05:24.913Z</time></trkpt><trkpt lat="40.1713383" lon="15.1964367"><ele>175.6</ele><time>2026-04-25T15:05:25.984Z</time></trkpt><trkpt lat="40.1712467" lon="15.1964217"><ele>173.8</ele><time>2026-04-25T15:05:26.914Z</time></trkpt><trkpt lat="40.17115" lon="15.1964733"><ele>172.0</ele><time>2026-04-25T15:05:27.91Z</time></trkpt><trkpt lat="40.1710517" lon="15.1965317"><ele>172.0</ele><time>2026-04-25T15:05:28.916Z</time></trkpt><trkpt lat="40.1709367" lon="15.1966067"><ele>172.0</ele><time>2026-04-25T15:05:29.912Z</time></trkpt><trkpt lat="40.1708117" lon="15.196685"><ele>172.0</ele><time>2026-04-25T15:05:30.918Z</time></trkpt><trkpt lat="40.170695" lon="15.1967533"><ele>172.0</ele><time>2026-04-25T15:05:31.989Z</time></trkpt><trkpt lat="40.1705883" lon="15.1968067"><ele>168.5</ele><time>2026-04-25T15:05:32.913Z</time></trkpt><trkpt lat="40.1704883" lon="15.1968317"><ele>165.0</ele><time>2026-04-25T15:05:33.914Z</time></trkpt><trkpt lat="40.1703767" lon="15.196815"><ele>161.5</ele><time>2026-04-25T15:05:34.915Z</time></trkpt><trkpt lat="40.170245" lon="15.19679"><ele>158.0</ele><time>2026-04-25T15:05:35.918Z</time></trkpt><trkpt lat="40.1701117" lon="15.1967767"><ele>158.0</ele><time>2026-04-25T15:05:36.916Z</time></trkpt><trkpt lat="40.169975" lon="15.19678"><ele>158.0</ele><time>2026-04-25T15:05:37.972Z</time></trkpt><trkpt lat="40.1698333" lon="15.1968017"><ele>158.0</ele><time>2026-04-25T15:05:38.917Z</time></trkpt><trkpt lat="40.1696783" lon="15.1968383"><ele>158.0</ele><time>2026-04-25T15:05:39.924Z</time></trkpt><trkpt lat="40.1695083" lon="15.1968817"><ele>154.66666666666666</ele><time>2026-04-25T15:05:40.916Z</time></trkpt><trkpt lat="40.1693167" lon="15.1969483"><ele>151.33333333333334</ele><time>2026-04-25T15:05:41.915Z</time></trkpt><trkpt lat="40.169125" lon="15.19702"><ele>148.0</ele><time>2026-04-25T15:05:42.916Z</time></trkpt><trkpt lat="40.168935" lon="15.1970933"><ele>143.33333333333334</ele><time>2026-04-25T15:05:43.971Z</time></trkpt><trkpt lat="40.1687617" lon="15.1971633"><ele>138.66666666666666</ele><time>2026-04-25T15:05:44.913Z</time></trkpt><trkpt lat="40.1685967" lon="15.19723"><ele>134.0</ele><time>2026-04-25T15:05:45.915Z</time></trkpt><trkpt lat="40.1684383" lon="15.1972933"><ele>134.0</ele><time>2026-04-25T15:05:46.914Z</time></trkpt><trkpt lat="40.1682967" lon="15.1973417"><ele>134.0</ele><time>2026-04-25T15:05:47.915Z</time></trkpt><trkpt lat="40.1681567" lon="15.1973867"><ele>134.0</ele><time>2026-04-25T15:05:48.919Z</time></trkpt><trkpt lat="40.168015" lon="15.1974417"><ele>134.0</ele><time>2026-04-25T15:05:49.971Z</time></trkpt><trkpt lat="40.1678833" lon="15.19749"><ele>132.0</ele><time>2026-04-25T15:05:50.912Z</time></trkpt><trkpt lat="40.1677617" lon="15.1975333"><ele>130.0</ele><time>2026-04-25T15:05:51.916Z</time></trkpt><trkpt lat="40.1676383" lon="15.1975633"><ele>128.0</ele><time>2026-04-25T15:05:52.917Z</time></trkpt><trkpt lat="40.1675283" lon="15.1975667"><ele>126.0</ele><time>2026-04-25T15:05:53.914Z</time></trkpt><trkpt lat="40.16742" lon="15.19757"><ele>123.83333333333333</ele><time>2026-04-25T15:05:54.926Z</time></trkpt><trkpt lat="40.1673333" lon="15.1975717"><ele>121.66666666666666</ele><time>2026-04-25T15:05:55.965Z</time></trkpt><trkpt lat="40.1672967" lon="15.1974967"><ele>119.5</ele><time>2026-04-25T15:05:56.918Z</time></trkpt><trkpt lat="40.16725" lon="15.1974083"><ele>117.33333333333333</ele><time>2026-04-25T15:05:57.92Z</time></trkpt><trkpt lat="40.1672067" lon="15.19731"><ele>115.16666666666666</ele><time>2026-04-25T15:05:58.912Z</time></trkpt><trkpt lat="40.1671617" lon="15.197215"><ele>113.0</ele><time>2026-04-25T15:05:59.923Z</time></trkpt><trkpt lat="40.1671083" lon="15.1971433"><ele>111.4</ele><time>2026-04-25T15:06:00.912Z</time></trkpt><trkpt lat="40.167055" lon="15.19709"><ele>109.80000000000001</ele><time>2026-04-25T15:06:01.983Z</time></trkpt><trkpt lat="40.1669883" lon="15.1970783"><ele>108.2</ele><time>2026-04-25T15:06:02.921Z</time></trkpt><trkpt lat="40.1669017" lon="15.1970933"><ele>106.6</ele><time>2026-04-25T15:06:03.919Z</time></trkpt><trkpt lat="40.16679" lon="15.197125"><ele>105.0</ele><time>2026-04-25T15:06:04.918Z</time></trkpt><trkpt lat="40.1666767" lon="15.1971367"><ele>105.0</ele><time>2026-04-25T15:06:05.913Z</time></trkpt><trkpt lat="40.166575" lon="15.1971267"><ele>105.0</ele><time>2026-04-25T15:06:06.915Z</time></trkpt><trkpt lat="40.1664733" lon="15.1971083"><ele>105.0</ele><time>2026-04-25T15:06:07.964Z</time></trkpt><trkpt lat="40.1663717" lon="15.197065"><ele>105.0</ele><time>2026-04-25T15:06:08.916Z</time></trkpt><trkpt lat="40.1662683" lon="15.1970017"><ele>105.0</ele><time>2026-04-25T15:06:09.917Z</time></trkpt><trkpt lat="40.16615" lon="15.1969217"><ele>103.0</ele><time>2026-04-25T15:06:10.918Z</time></trkpt><trkpt lat="40.1660067" lon="15.196795"><ele>101.0</ele><time>2026-04-25T15:06:11.918Z</time></trkpt><trkpt lat="40.1658633" lon="15.1966683"><ele>99.0</ele><time>2026-04-25T15:06:12.918Z</time></trkpt><trkpt lat="40.16572" lon="15.1965467"><ele>97.75</ele><time>2026-04-25T15:06:13.962Z</time></trkpt><trkpt lat="40.1655833" lon="15.1964333"><ele>96.5</ele><time>2026-04-25T15:06:14.915Z</time></trkpt><trkpt lat="40.1654533" lon="15.196345"><ele>95.25</ele><time>2026-04-25T15:06:15.917Z</time></trkpt><trkpt lat="40.1653217" lon="15.19628"><ele>94.0</ele><time>2026-04-25T15:06:16.912Z</time></trkpt><trkpt lat="40.1651817" lon="15.19623"><ele>94.0</ele><time>2026-04-25T15:06:17.92Z</time></trkpt><trkpt lat="40.1650417" lon="15.1961883"><ele>94.0</ele><time>2026-04-25T15:06:18.914Z</time></trkpt><trkpt lat="40.1648983" lon="15.1961267"><ele>94.0</ele><time>2026-04-25T15:06:19.963Z</time></trkpt><trkpt lat="40.1647633" lon="15.1960583"><ele>94.0</ele><time>2026-04-25T15:06:20.914Z</time></trkpt><trkpt lat="40.16464" lon="15.1960017"><ele>93.25</ele><time>2026-04-25T15:06:21.914Z</time></trkpt><trkpt lat="40.1645233" lon="15.1959617"><ele>92.5</ele><time>2026-04-25T15:06:22.915Z</time></trkpt><trkpt lat="40.164405" lon="15.1959433"><ele>91.75</ele><time>2026-04-25T15:06:23.919Z</time></trkpt><trkpt lat="40.164285" lon="15.1959433"><ele>91.0</ele><time>2026-04-25T15:06:24.913Z</time></trkpt><trkpt lat="40.16416" lon="15.195955"><ele>91.0</ele><time>2026-04-25T15:06:25.978Z</time></trkpt><trkpt lat="40.1640383" lon="15.1959567"><ele>91.0</ele><time>2026-04-25T15:06:26.915Z</time></trkpt><trkpt lat="40.16392" lon="15.195945"><ele>91.0</ele><time>2026-04-25T15:06:27.918Z</time></trkpt><trkpt lat="40.1638183" lon="15.1959217"><ele>91.0</ele><time>2026-04-25T15:06:28.912Z</time></trkpt><trkpt lat="40.1637217" lon="15.1958867"><ele>91.0</ele><time>2026-04-25T15:06:29.913Z</time></trkpt><trkpt lat="40.1636267" lon="15.19583"><ele>89.6</ele><time>2026-04-25T15:06:30.918Z</time></trkpt><trkpt lat="40.1635383" lon="15.1957567"><ele>88.19999999999999</ele><time>2026-04-25T15:06:31.984Z</time></trkpt><trkpt lat="40.16347" lon="15.1956633"><ele>86.80000000000001</ele><time>2026-04-25T15:06:32.914Z</time></trkpt><trkpt lat="40.163405" lon="15.1955467"><ele>85.4</ele><time>2026-04-25T15:06:33.911Z</time></trkpt><trkpt lat="40.1633533" lon="15.1954"><ele>84.0</ele><time>2026-04-25T15:06:34.914Z</time></trkpt><trkpt lat="40.1633117" lon="15.19524"><ele>84.0</ele><time>2026-04-25T15:06:35.917Z</time></trkpt><trkpt lat="40.1632817" lon="15.195075"><ele>84.0</ele><time>2026-04-25T15:06:36.922Z</time></trkpt><trkpt lat="40.1632433" lon="15.194905"><ele>84.0</ele><time>2026-04-25T15:06:37.963Z</time></trkpt><trkpt lat="40.16321" lon="15.194705"><ele>84.0</ele><time>2026-04-25T15:06:38.915Z</time></trkpt><trkpt lat="40.1631817" lon="15.194485"><ele>77.0</ele><time>2026-04-25T15:06:39.914Z</time></trkpt><trkpt lat="40.1631583" lon="15.1942667"><ele>70.0</ele><time>2026-04-25T15:06:40.913Z</time></trkpt><trkpt lat="40.16314" lon="15.1940567"><ele>63.0</ele><time>2026-04-25T15:06:41.919Z</time></trkpt><trkpt lat="40.1631333" lon="15.193855"><ele>61.75</ele><time>2026-04-25T15:06:42.915Z</time></trkpt><trkpt lat="40.1631383" lon="15.1936667"><ele>60.5</ele><time>2026-04-25T15:06:43.96Z</time></trkpt><trkpt lat="40.1631667" lon="15.1934767"><ele>59.25</ele><time>2026-04-25T15:06:44.914Z</time></trkpt><trkpt lat="40.16321" lon="15.193305"><ele>58.0</ele><time>2026-04-25T15:06:45.913Z</time></trkpt><trkpt lat="40.16326" lon="15.1931633"><ele>57.99999999999999</ele><time>2026-04-25T15:06:46.913Z</time></trkpt><trkpt lat="40.1632867" lon="15.1930683"><ele>58.0</ele><time>2026-04-25T15:06:47.916Z</time></trkpt><trkpt lat="40.1632833" lon="15.1929633"><ele>58.0</ele><time>2026-04-25T15:06:49.964Z</time></trkpt><trkpt lat="40.1631967" lon="15.193045"><ele>58.0</ele><time>2026-04-25T15:06:53.918Z</time></trkpt><trkpt lat="40.163135" lon="15.19309"><ele>57.99999999999999</ele><time>2026-04-25T15:06:54.918Z</time></trkpt><trkpt lat="40.1630633" lon="15.19314"><ele>58.0</ele><time>2026-04-25T15:06:55.986Z</time></trkpt><trkpt lat="40.1629883" lon="15.1932033"><ele>58.0</ele><time>2026-04-25T15:06:56.912Z</time></trkpt><trkpt lat="40.1629217" lon="15.19328"><ele>58.0</ele><time>2026-04-25T15:06:57.917Z</time></trkpt><trkpt lat="40.162865" lon="15.1933867"><ele>58.0</ele><time>2026-04-25T15:06:58.916Z</time></trkpt><trkpt lat="40.1628067" lon="15.1935167"><ele>58.0</ele><time>2026-04-25T15:06:59.92Z</time></trkpt><trkpt lat="40.16273" lon="15.19367"><ele>58.0</ele><time>2026-04-25T15:07:00.913Z</time></trkpt><trkpt lat="40.1626467" lon="15.1938217"><ele>58.0</ele><time>2026-04-25T15:07:01.985Z</time></trkpt><trkpt lat="40.1625667" lon="15.1939617"><ele>58.0</ele><time>2026-04-25T15:07:02.913Z</time></trkpt><trkpt lat="40.162495" lon="15.1941"><ele>58.0</ele><time>2026-04-25T15:07:03.91Z</time></trkpt><trkpt lat="40.1624333" lon="15.19423"><ele>58.0</ele><time>2026-04-25T15:07:04.914Z</time></trkpt><trkpt lat="40.1623867" lon="15.1943567"><ele>56.5</ele><time>2026-04-25T15:07:05.908Z</time></trkpt><trkpt lat="40.16235" lon="15.194485"><ele>55.0</ele><time>2026-04-25T15:07:06.915Z</time></trkpt><trkpt lat="40.1623283" lon="15.1946267"><ele>53.5</ele><time>2026-04-25T15:07:07.958Z</time></trkpt><trkpt lat="40.16231" lon="15.1948"><ele>52.0</ele><time>2026-04-25T15:07:08.913Z</time></trkpt><trkpt lat="40.162305" lon="15.1949967"><ele>52.0</ele><time>2026-04-25T15:07:09.912Z</time></trkpt><trkpt lat="40.1623167" lon="15.195205"><ele>52.0</ele><time>2026-04-25T15:07:10.922Z</time></trkpt><trkpt lat="40.1623367" lon="15.195415"><ele>52.0</ele><time>2026-04-25T15:07:11.918Z</time></trkpt><trkpt lat="40.1623667" lon="15.195625"><ele>56.33333333333333</ele><time>2026-04-25T15:07:12.912Z</time></trkpt><trkpt lat="40.1624033" lon="15.19582"><ele>60.66666666666667</ele><time>2026-04-25T15:07:13.955Z</time></trkpt><trkpt lat="40.1624517" lon="15.1960117"><ele>65.0</ele><time>2026-04-25T15:07:14.909Z</time></trkpt><trkpt lat="40.1625133" lon="15.196205"><ele>65.0</ele><time>2026-04-25T15:07:15.915Z</time></trkpt><trkpt lat="40.162585" lon="15.1963933"><ele>65.0</ele><time>2026-04-25T15:07:16.909Z</time></trkpt><trkpt lat="40.162655" lon="15.1965883"><ele>65.0</ele><time>2026-04-25T15:07:17.914Z</time></trkpt><trkpt lat="40.1627233" lon="15.1967883"><ele>64.33333333333334</ele><time>2026-04-25T15:07:18.91Z</time></trkpt><trkpt lat="40.162795" lon="15.1969833"><ele>63.66666666666667</ele><time>2026-04-25T15:07:19.956Z</time></trkpt><trkpt lat="40.162865" lon="15.1971717"><ele>63.0</ele><time>2026-04-25T15:07:20.909Z</time></trkpt><trkpt lat="40.162935" lon="15.19735"><ele>61.75</ele><time>2026-04-25T15:07:21.914Z</time></trkpt><trkpt lat="40.1629983" lon="15.1975167"><ele>60.5</ele><time>2026-04-25T15:07:22.914Z</time></trkpt><trkpt lat="40.1630567" lon="15.1976667"><ele>59.25</ele><time>2026-04-25T15:07:23.914Z</time></trkpt><trkpt lat="40.1631217" lon="15.1978117"><ele>58.0</ele><time>2026-04-25T15:07:24.914Z</time></trkpt><trkpt lat="40.1631983" lon="15.19796"><ele>58.25</ele><time>2026-04-25T15:07:25.979Z</time></trkpt><trkpt lat="40.1632717" lon="15.198105"><ele>58.5</ele><time>2026-04-25T15:07:26.915Z</time></trkpt><trkpt lat="40.1633467" lon="15.198245"><ele>58.75</ele><time>2026-04-25T15:07:27.911Z</time></trkpt><trkpt lat="40.1634133" lon="15.1983733"><ele>59.0</ele><time>2026-04-25T15:07:28.921Z</time></trkpt><trkpt lat="40.163465" lon="15.1984967"><ele>59.0</ele><time>2026-04-25T15:07:29.918Z</time></trkpt><trkpt lat="40.1635033" lon="15.1986233"><ele>59.0</ele><time>2026-04-25T15:07:30.917Z</time></trkpt><trkpt lat="40.1635317" lon="15.1987617"><ele>59.0</ele><time>2026-04-25T15:07:31.983Z</time></trkpt><trkpt lat="40.16356" lon="15.1989117"><ele>59.0</ele><time>2026-04-25T15:07:32.913Z</time></trkpt><trkpt lat="40.1635983" lon="15.1990733"><ele>58.6</ele><time>2026-04-25T15:07:33.913Z</time></trkpt><trkpt lat="40.1636367" lon="15.1992283"><ele>58.2</ele><time>2026-04-25T15:07:34.91Z</time></trkpt><trkpt lat="40.1636783" lon="15.1993717"><ele>57.800000000000004</ele><time>2026-04-25T15:07:35.913Z</time></trkpt><trkpt lat="40.16372" lon="15.1994967"><ele>57.400000000000006</ele><time>2026-04-25T15:07:36.911Z</time></trkpt><trkpt lat="40.1637667" lon="15.1996067"><ele>57.0</ele><time>2026-04-25T15:07:37.959Z</time></trkpt><trkpt lat="40.1638117" lon="15.1997133"><ele>57.0</ele><time>2026-04-25T15:07:38.911Z</time></trkpt><trkpt lat="40.1638483" lon="15.1998133"><ele>57.0</ele><time>2026-04-25T15:07:39.914Z</time></trkpt><trkpt lat="40.1638683" lon="15.1999067"><ele>57.0</ele><time>2026-04-25T15:07:40.918Z</time></trkpt><trkpt lat="40.1638733" lon="15.1999983"><ele>57.0</ele><time>2026-04-25T15:07:41.921Z</time></trkpt><trkpt lat="40.1638567" lon="15.200095"><ele>57.0</ele><time>2026-04-25T15:07:42.912Z</time></trkpt><trkpt lat="40.1638283" lon="15.2002233"><ele>57.0</ele><time>2026-04-25T15:07:43.959Z</time></trkpt><trkpt lat="40.16376" lon="15.200425"><ele>57.25</ele><time>2026-04-25T15:07:44.912Z</time></trkpt><trkpt lat="40.1637017" lon="15.2006133"><ele>57.5</ele><time>2026-04-25T15:07:45.916Z</time></trkpt><trkpt lat="40.1636433" lon="15.2007833"><ele>57.75</ele><time>2026-04-25T15:07:46.912Z</time></trkpt><trkpt lat="40.16358" lon="15.2009317"><ele>58.0</ele><time>2026-04-25T15:07:47.913Z</time></trkpt><trkpt lat="40.1635067" lon="15.201065"><ele>60.25</ele><time>2026-04-25T15:07:48.911Z</time></trkpt><trkpt lat="40.163435" lon="15.201185"><ele>62.5</ele><time>2026-04-25T15:07:49.962Z</time></trkpt><trkpt lat="40.1633617" lon="15.2013"><ele>64.75</ele><time>2026-04-25T15:07:50.914Z</time></trkpt><trkpt lat="40.1633" lon="15.201455"><ele>67.0</ele><time>2026-04-25T15:07:51.912Z</time></trkpt><trkpt lat="40.163245" lon="15.2016083"><ele>66.25</ele><time>2026-04-25T15:07:52.913Z</time></trkpt><trkpt lat="40.1631983" lon="15.20174"><ele>65.5</ele><time>2026-04-25T15:07:53.917Z</time></trkpt><trkpt lat="40.1631467" lon="15.2018817"><ele>64.75</ele><time>2026-04-25T15:07:54.916Z</time></trkpt><trkpt lat="40.1630917" lon="15.2020183"><ele>64.0</ele><time>2026-04-25T15:07:55.976Z</time></trkpt><trkpt lat="40.163045" lon="15.2021533"><ele>64.0</ele><time>2026-04-25T15:07:56.907Z</time></trkpt><trkpt lat="40.16301" lon="15.20227"><ele>64.0</ele><time>2026-04-25T15:07:57.924Z</time></trkpt><trkpt lat="40.1629883" lon="15.20239"><ele>64.0</ele><time>2026-04-25T15:07:58.911Z</time></trkpt><trkpt lat="40.1629783" lon="15.2025167"><ele>64.0</ele><time>2026-04-25T15:07:59.912Z</time></trkpt><trkpt lat="40.16298" lon="15.2026533"><ele>64.0</ele><time>2026-04-25T15:08:00.909Z</time></trkpt><trkpt lat="40.16299" lon="15.2027983"><ele>63.0</ele><time>2026-04-25T15:08:01.982Z</time></trkpt><trkpt lat="40.163015" lon="15.202975"><ele>62.0</ele><time>2026-04-25T15:08:02.91Z</time></trkpt><trkpt lat="40.16303" lon="15.2031567"><ele>61.0</ele><time>2026-04-25T15:08:03.915Z</time></trkpt><trkpt lat="40.1630467" lon="15.2033467"><ele>60.0</ele><time>2026-04-25T15:08:04.918Z</time></trkpt><trkpt lat="40.16306" lon="15.2035283"><ele>59.0</ele><time>2026-04-25T15:08:05.909Z</time></trkpt><trkpt lat="40.163075" lon="15.20371"><ele>58.0</ele><time>2026-04-25T15:08:06.915Z</time></trkpt><trkpt lat="40.163095" lon="15.20389"><ele>57.0</ele><time>2026-04-25T15:08:07.962Z</time></trkpt><trkpt lat="40.16312" lon="15.2040783"><ele>56.0</ele><time>2026-04-25T15:08:08.912Z</time></trkpt><trkpt lat="40.1631483" lon="15.20427"><ele>55.25</ele><time>2026-04-25T15:08:09.915Z</time></trkpt><trkpt lat="40.1631717" lon="15.2044533"><ele>54.5</ele><time>2026-04-25T15:08:10.92Z</time></trkpt><trkpt lat="40.1632017" lon="15.20463"><ele>53.75</ele><time>2026-04-25T15:08:11.915Z</time></trkpt><trkpt lat="40.1632167" lon="15.204805"><ele>53.0</ele><time>2026-04-25T15:08:12.913Z</time></trkpt><trkpt lat="40.1632317" lon="15.2049517"><ele>55.0</ele><time>2026-04-25T15:08:13.966Z</time></trkpt><trkpt lat="40.163245" lon="15.2050933"><ele>57.0</ele><time>2026-04-25T15:08:14.912Z</time></trkpt><trkpt lat="40.1632633" lon="15.205245"><ele>59.0</ele><time>2026-04-25T15:08:15.912Z</time></trkpt><trkpt lat="40.1632833" lon="15.20541"><ele>61.0</ele><time>2026-04-25T15:08:16.913Z</time></trkpt><trkpt lat="40.1632917" lon="15.205575"><ele>60.5</ele><time>2026-04-25T15:08:17.916Z</time></trkpt><trkpt lat="40.163285" lon="15.20573"><ele>60.0</ele><time>2026-04-25T15:08:18.909Z</time></trkpt><trkpt lat="40.16326" lon="15.2058783"><ele>59.5</ele><time>2026-04-25T15:08:19.967Z</time></trkpt><trkpt lat="40.1632183" lon="15.20602"><ele>59.0</ele><time>2026-04-25T15:08:20.911Z</time></trkpt><trkpt lat="40.16317" lon="15.2061567"><ele>59.0</ele><time>2026-04-25T15:08:21.914Z</time></trkpt><trkpt lat="40.163115" lon="15.2062867"><ele>59.00000000000001</ele><time>2026-04-25T15:08:22.917Z</time></trkpt><trkpt lat="40.1630533" lon="15.2064117"><ele>59.00000000000001</ele><time>2026-04-25T15:08:23.914Z</time></trkpt><trkpt lat="40.16299" lon="15.2065167"><ele>59.0</ele><time>2026-04-25T15:08:24.914Z</time></trkpt><trkpt lat="40.1629267" lon="15.2066333"><ele>59.0</ele><time>2026-04-25T15:08:25.979Z</time></trkpt><trkpt lat="40.1628833" lon="15.2067533"><ele>59.00000000000001</ele><time>2026-04-25T15:08:26.908Z</time></trkpt><trkpt lat="40.1628567" lon="15.2068717"><ele>59.0</ele><time>2026-04-25T15:08:27.914Z</time></trkpt><trkpt lat="40.1628217" lon="15.20697"><ele>59.0</ele><time>2026-04-25T15:08:28.918Z</time></trkpt><trkpt lat="40.16278" lon="15.20704"><ele>59.0</ele><time>2026-04-25T15:08:29.918Z</time></trkpt><trkpt lat="40.1627183" lon="15.2070733"><ele>59.00000000000001</ele><time>2026-04-25T15:08:30.917Z</time></trkpt><trkpt lat="40.1626267" lon="15.2070783"><ele>59.0</ele><time>2026-04-25T15:08:31.983Z</time></trkpt><trkpt lat="40.162545" lon="15.20709"><ele>59.0</ele><time>2026-04-25T15:08:32.915Z</time></trkpt><trkpt lat="40.1624783" lon="15.2071067"><ele>59.00000000000001</ele><time>2026-04-25T15:08:33.913Z</time></trkpt><trkpt lat="40.1623867" lon="15.2071767"><ele>59.00000000000001</ele><time>2026-04-25T15:08:35.912Z</time></trkpt><trkpt lat="40.16233" lon="15.2073167"><ele>59.0</ele><time>2026-04-25T15:08:37.964Z</time></trkpt><trkpt lat="40.1622933" lon="15.207415"><ele>59.0</ele><time>2026-04-25T15:08:38.911Z</time></trkpt><trkpt lat="40.1622433" lon="15.2075217"><ele>60.25</ele><time>2026-04-25T15:08:39.914Z</time></trkpt><trkpt lat="40.1621883" lon="15.20765"><ele>61.5</ele><time>2026-04-25T15:08:40.919Z</time></trkpt><trkpt lat="40.1621483" lon="15.2078"><ele>62.75</ele><time>2026-04-25T15:08:41.91Z</time></trkpt><trkpt lat="40.1621433" lon="15.2079733"><ele>64.0</ele><time>2026-04-25T15:08:42.909Z</time></trkpt><trkpt lat="40.1621433" lon="15.2081483"><ele>65.5</ele><time>2026-04-25T15:08:43.963Z</time></trkpt><trkpt lat="40.1621383" lon="15.208335"><ele>67.0</ele><time>2026-04-25T15:08:44.913Z</time></trkpt><trkpt lat="40.1621367" lon="15.20852"><ele>68.5</ele><time>2026-04-25T15:08:45.91Z</time></trkpt><trkpt lat="40.162145" lon="15.2086983"><ele>70.0</ele><time>2026-04-25T15:08:46.917Z</time></trkpt><trkpt lat="40.1621967" lon="15.2088883"><ele>71.25</ele><time>2026-04-25T15:08:47.911Z</time></trkpt><trkpt lat="40.1622367" lon="15.20908"><ele>72.5</ele><time>2026-04-25T15:08:48.912Z</time></trkpt><trkpt lat="40.1622817" lon="15.2092467"><ele>73.75</ele><time>2026-04-25T15:08:49.965Z</time></trkpt><trkpt lat="40.1623317" lon="15.2093883"><ele>75.0</ele><time>2026-04-25T15:08:50.917Z</time></trkpt><trkpt lat="40.1623983" lon="15.2094667"><ele>75.66666666666667</ele><time>2026-04-25T15:08:51.91Z</time></trkpt><trkpt lat="40.16246" lon="15.2095317"><ele>76.33333333333333</ele><time>2026-04-25T15:08:52.907Z</time></trkpt><trkpt lat="40.16252" lon="15.2096"><ele>77.0</ele><time>2026-04-25T15:08:53.916Z</time></trkpt><trkpt lat="40.1625767" lon="15.2096483"><ele>77.66666666666666</ele><time>2026-04-25T15:08:54.914Z</time></trkpt><trkpt lat="40.162595" lon="15.2097617"><ele>78.33333333333333</ele><time>2026-04-25T15:08:59.914Z</time></trkpt><trkpt lat="40.162605" lon="15.2098967"><ele>79.0</ele><time>2026-04-25T15:09:01.979Z</time></trkpt><trkpt lat="40.162625" lon="15.2099933"><ele>80.25</ele><time>2026-04-25T15:09:02.909Z</time></trkpt><trkpt lat="40.1626683" lon="15.2101083"><ele>81.5</ele><time>2026-04-25T15:09:03.914Z</time></trkpt><trkpt lat="40.1627267" lon="15.21024"><ele>82.75</ele><time>2026-04-25T15:09:04.914Z</time></trkpt><trkpt lat="40.162825" lon="15.21037"><ele>84.0</ele><time>2026-04-25T15:09:05.921Z</time></trkpt><trkpt lat="40.1628883" lon="15.2104883"><ele>84.0</ele><time>2026-04-25T15:09:06.912Z</time></trkpt><trkpt lat="40.1629483" lon="15.2105983"><ele>84.0</ele><time>2026-04-25T15:09:07.973Z</time></trkpt><trkpt lat="40.1629967" lon="15.2106967"><ele>84.0</ele><time>2026-04-25T15:09:08.911Z</time></trkpt><trkpt lat="40.16305" lon="15.2107733"><ele>84.0</ele><time>2026-04-25T15:09:09.913Z</time></trkpt><trkpt lat="40.1630933" lon="15.2108433"><ele>84.0</ele><time>2026-04-25T15:09:10.915Z</time></trkpt><trkpt lat="40.1631533" lon="15.2109733"><ele>85.2</ele><time>2026-04-25T15:09:12.917Z</time></trkpt><trkpt lat="40.1631833" lon="15.2110567"><ele>86.4</ele><time>2026-04-25T15:09:13.967Z</time></trkpt><trkpt lat="40.1631917" lon="15.211165"><ele>87.6</ele><time>2026-04-25T15:09:14.911Z</time></trkpt><trkpt lat="40.1631417" lon="15.2113233"><ele>88.8</ele><time>2026-04-25T15:09:15.917Z</time></trkpt><trkpt lat="40.1631267" lon="15.2114533"><ele>90.0</ele><time>2026-04-25T15:09:16.918Z</time></trkpt><trkpt lat="40.163135" lon="15.2115817"><ele>90.8</ele><time>2026-04-25T15:09:17.915Z</time></trkpt><trkpt lat="40.1631617" lon="15.2117083"><ele>91.6</ele><time>2026-04-25T15:09:18.912Z</time></trkpt><trkpt lat="40.1631833" lon="15.21184"><ele>92.4</ele><time>2026-04-25T15:09:19.965Z</time></trkpt><trkpt lat="40.1632133" lon="15.211975"><ele>93.2</ele><time>2026-04-25T15:09:20.914Z</time></trkpt><trkpt lat="40.1632583" lon="15.2121317"><ele>94.0</ele><time>2026-04-25T15:09:21.915Z</time></trkpt><trkpt lat="40.16329" lon="15.2122533"><ele>95.5</ele><time>2026-04-25T15:09:22.911Z</time></trkpt><trkpt lat="40.1633017" lon="15.212355"><ele>97.0</ele><time>2026-04-25T15:09:23.921Z</time></trkpt><trkpt lat="40.1633133" lon="15.212465"><ele>98.5</ele><time>2026-04-25T15:09:24.913Z</time></trkpt><trkpt lat="40.1632733" lon="15.21254"><ele>100.0</ele><time>2026-04-25T15:09:25.984Z</time></trkpt><trkpt lat="40.1632133" lon="15.2126483"><ele>101.50000000000001</ele><time>2026-04-25T15:09:27.912Z</time></trkpt><trkpt lat="40.16315" lon="15.21265"><ele>103.0</ele><time>2026-04-25T15:09:28.916Z</time></trkpt><trkpt lat="40.163065" lon="15.2126467"><ele>104.25</ele><time>2026-04-25T15:09:29.914Z</time></trkpt><trkpt lat="40.16295" lon="15.2126283"><ele>105.5</ele><time>2026-04-25T15:09:30.912Z</time></trkpt><trkpt lat="40.16283" lon="15.2126267"><ele>106.75</ele><time>2026-04-25T15:09:31.981Z</time></trkpt><trkpt lat="40.1627083" lon="15.2126433"><ele>108.0</ele><time>2026-04-25T15:09:32.907Z</time></trkpt><trkpt lat="40.1625917" lon="15.212675"><ele>108.0</ele><time>2026-04-25T15:09:33.91Z</time></trkpt><trkpt lat="40.16248" lon="15.2127167"><ele>108.0</ele><time>2026-04-25T15:09:34.912Z</time></trkpt><trkpt lat="40.1623817" lon="15.212765"><ele>108.0</ele><time>2026-04-25T15:09:35.918Z</time></trkpt><trkpt lat="40.162305" lon="15.2128167"><ele>108.0</ele><time>2026-04-25T15:09:36.915Z</time></trkpt><trkpt lat="40.1622483" lon="15.2128733"><ele>108.0</ele><time>2026-04-25T15:09:37.96Z</time></trkpt><trkpt lat="40.1622033" lon="15.2129333"><ele>108.0</ele><time>2026-04-25T15:09:38.912Z</time></trkpt><trkpt lat="40.16219" lon="15.2130567"><ele>108.4</ele><time>2026-04-25T15:09:40.92Z</time></trkpt><trkpt lat="40.162335" lon="15.2131283"><ele>108.80000000000001</ele><time>2026-04-25T15:09:41.911Z</time></trkpt><trkpt lat="40.1623833" lon="15.2132217"><ele>109.2</ele><time>2026-04-25T15:09:42.92Z</time></trkpt><trkpt lat="40.162425" lon="15.213315"><ele>109.6</ele><time>2026-04-25T15:09:43.959Z</time></trkpt><trkpt lat="40.162455" lon="15.213415"><ele>110.0</ele><time>2026-04-25T15:09:44.919Z</time></trkpt><trkpt lat="40.1624767" lon="15.21351"><ele>112.0</ele><time>2026-04-25T15:09:45.915Z</time></trkpt><trkpt lat="40.16248" lon="15.2136"><ele>114.0</ele><time>2026-04-25T15:09:46.916Z</time></trkpt><trkpt lat="40.1624267" lon="15.21373"><ele>116.0</ele><time>2026-04-25T15:09:48.918Z</time></trkpt><trkpt lat="40.1623467" lon="15.2137533"><ele>118.0</ele><time>2026-04-25T15:09:49.962Z</time></trkpt><trkpt lat="40.16222" lon="15.2137717"><ele>120.0</ele><time>2026-04-25T15:09:50.911Z</time></trkpt><trkpt lat="40.1621083" lon="15.2138033"><ele>121.25</ele><time>2026-04-25T15:09:51.915Z</time></trkpt><trkpt lat="40.1619867" lon="15.2138417"><ele>122.5</ele><time>2026-04-25T15:09:52.915Z</time></trkpt><trkpt lat="40.1618533" lon="15.2138767"><ele>123.75</ele><time>2026-04-25T15:09:53.919Z</time></trkpt><trkpt lat="40.1617133" lon="15.2139"><ele>125.0</ele><time>2026-04-25T15:09:54.916Z</time></trkpt><trkpt lat="40.1615883" lon="15.2139117"><ele>125.6</ele><time>2026-04-25T15:09:55.986Z</time></trkpt><trkpt lat="40.161495" lon="15.213925"><ele>126.2</ele><time>2026-04-25T15:09:56.912Z</time></trkpt><trkpt lat="40.1614033" lon="15.213955"><ele>126.80000000000001</ele><time>2026-04-25T15:09:57.915Z</time></trkpt><trkpt lat="40.1612967" lon="15.214"><ele>127.4</ele><time>2026-04-25T15:09:58.915Z</time></trkpt><trkpt lat="40.161185" lon="15.2140483"><ele>128.0</ele><time>2026-04-25T15:09:59.913Z</time></trkpt><trkpt lat="40.1610733" lon="15.2141"><ele>131.0</ele><time>2026-04-25T15:10:00.916Z</time></trkpt><trkpt lat="40.1609717" lon="15.214145"><ele>134.0</ele><time>2026-04-25T15:10:01.981Z</time></trkpt><trkpt lat="40.1608717" lon="15.2141683"><ele>137.0</ele><time>2026-04-25T15:10:02.911Z</time></trkpt><trkpt lat="40.1607817" lon="15.2141917"><ele>140.0</ele><time>2026-04-25T15:10:03.914Z</time></trkpt><trkpt lat="40.1607083" lon="15.2142267"><ele>143.0</ele><time>2026-04-25T15:10:04.916Z</time></trkpt><trkpt lat="40.1606433" lon="15.2142817"><ele>143.0</ele><time>2026-04-25T15:10:05.918Z</time></trkpt><trkpt lat="40.1606083" lon="15.2143767"><ele>143.0</ele><time>2026-04-25T15:10:06.915Z</time></trkpt><trkpt lat="40.16058" lon="15.2144967"><ele>143.0</ele><time>2026-04-25T15:10:07.965Z</time></trkpt><trkpt lat="40.16058" lon="15.2146317"><ele>143.0</ele><time>2026-04-25T15:10:08.911Z</time></trkpt><trkpt lat="40.160595" lon="15.214775"><ele>143.0</ele><time>2026-04-25T15:10:09.914Z</time></trkpt><trkpt lat="40.160615" lon="15.214935"><ele>147.2</ele><time>2026-04-25T15:10:10.91Z</time></trkpt><trkpt lat="40.16063" lon="15.2150967"><ele>151.4</ele><time>2026-04-25T15:10:11.915Z</time></trkpt><trkpt lat="40.1606383" lon="15.2152283"><ele>155.6</ele><time>2026-04-25T15:10:12.918Z</time></trkpt><trkpt lat="40.1606467" lon="15.2153483"><ele>159.79999999999998</ele><time>2026-04-25T15:10:13.959Z</time></trkpt><trkpt lat="40.1606467" lon="15.2154567"><ele>164.0</ele><time>2026-04-25T15:10:14.912Z</time></trkpt><trkpt lat="40.1606267" lon="15.215555"><ele>164.0</ele><time>2026-04-25T15:10:15.911Z</time></trkpt><trkpt lat="40.16058" lon="15.2156433"><ele>164.0</ele><time>2026-04-25T15:10:16.915Z</time></trkpt><trkpt lat="40.16051" lon="15.2157217"><ele>164.0</ele><time>2026-04-25T15:10:17.917Z</time></trkpt><trkpt lat="40.1604217" lon="15.2157967"><ele>164.0</ele><time>2026-04-25T15:10:18.912Z</time></trkpt><trkpt lat="40.1603433" lon="15.2158583"><ele>164.0</ele><time>2026-04-25T15:10:19.956Z</time></trkpt><trkpt lat="40.1602683" lon="15.21591"><ele>165.33333333333331</ele><time>2026-04-25T15:10:20.909Z</time></trkpt><trkpt lat="40.1601917" lon="15.2159417"><ele>166.66666666666666</ele><time>2026-04-25T15:10:21.918Z</time></trkpt><trkpt lat="40.16011" lon="15.2159117"><ele>168.0</ele><time>2026-04-25T15:10:22.916Z</time></trkpt><trkpt lat="40.1600283" lon="15.2159133"><ele>169.33333333333334</ele><time>2026-04-25T15:10:23.909Z</time></trkpt><trkpt lat="40.159955" lon="15.2159383"><ele>170.66666666666669</ele><time>2026-04-25T15:10:24.914Z</time></trkpt><trkpt lat="40.159885" lon="15.216005"><ele>172.0</ele><time>2026-04-25T15:10:25.978Z</time></trkpt><trkpt lat="40.1598133" lon="15.2160967"><ele>172.0</ele><time>2026-04-25T15:10:26.909Z</time></trkpt><trkpt lat="40.1597333" lon="15.21621"><ele>172.0</ele><time>2026-04-25T15:10:27.916Z</time></trkpt><trkpt lat="40.1596483" lon="15.21632"><ele>172.0</ele><time>2026-04-25T15:10:28.915Z</time></trkpt><trkpt lat="40.1595667" lon="15.2164183"><ele>172.0</ele><time>2026-04-25T15:10:29.913Z</time></trkpt><trkpt lat="40.1594967" lon="15.2165083"><ele>172.0</ele><time>2026-04-25T15:10:30.917Z</time></trkpt><trkpt lat="40.1594517" lon="15.2165833"><ele>176.0</ele><time>2026-04-25T15:10:31.979Z</time></trkpt><trkpt lat="40.1594167" lon="15.216665"><ele>180.0</ele><time>2026-04-25T15:10:32.912Z</time></trkpt><trkpt lat="40.15938" lon="15.21676"><ele>184.0</ele><time>2026-04-25T15:10:33.916Z</time></trkpt><trkpt lat="40.1593333" lon="15.216865"><ele>188.0</ele><time>2026-04-25T15:10:34.918Z</time></trkpt><trkpt lat="40.1592683" lon="15.2169717"><ele>192.0</ele><time>2026-04-25T15:10:35.92Z</time></trkpt><trkpt lat="40.159195" lon="15.2170633"><ele>192.0</ele><time>2026-04-25T15:10:36.914Z</time></trkpt><trkpt lat="40.1591133" lon="15.2171083"><ele>192.0</ele><time>2026-04-25T15:10:37.96Z</time></trkpt><trkpt lat="40.159025" lon="15.217135"><ele>192.0</ele><time>2026-04-25T15:10:38.911Z</time></trkpt><trkpt lat="40.1589317" lon="15.2171567"><ele>192.0</ele><time>2026-04-25T15:10:39.916Z</time></trkpt><trkpt lat="40.15883" lon="15.2171767"><ele>192.0</ele><time>2026-04-25T15:10:40.911Z</time></trkpt><trkpt lat="40.15873" lon="15.2172083"><ele>192.8</ele><time>2026-04-25T15:10:41.914Z</time></trkpt><trkpt lat="40.1586217" lon="15.217235"><ele>193.6</ele><time>2026-04-25T15:10:42.914Z</time></trkpt><trkpt lat="40.15851" lon="15.2172567"><ele>194.4</ele><time>2026-04-25T15:10:43.959Z</time></trkpt><trkpt lat="40.1584117" lon="15.217275"><ele>195.20000000000002</ele><time>2026-04-25T15:10:44.914Z</time></trkpt><trkpt lat="40.1583283" lon="15.217295"><ele>196.0</ele><time>2026-04-25T15:10:45.915Z</time></trkpt><trkpt lat="40.1582567" lon="15.217315"><ele>194.8</ele><time>2026-04-25T15:10:46.915Z</time></trkpt><trkpt lat="40.1581317" lon="15.2172517"><ele>193.60000000000002</ele><time>2026-04-25T15:10:48.913Z</time></trkpt><trkpt lat="40.158045" lon="15.2172633"><ele>192.4</ele><time>2026-04-25T15:10:49.957Z</time></trkpt><trkpt lat="40.157955" lon="15.217275"><ele>191.2</ele><time>2026-04-25T15:10:50.915Z</time></trkpt><trkpt lat="40.1578817" lon="15.2172767"><ele>190.0</ele><time>2026-04-25T15:10:51.911Z</time></trkpt><trkpt lat="40.1577583" lon="15.2173117"><ele>193.25</ele><time>2026-04-25T15:10:53.911Z</time></trkpt><trkpt lat="40.1576517" lon="15.217385"><ele>196.5</ele><time>2026-04-25T15:10:55.979Z</time></trkpt><trkpt lat="40.1575533" lon="15.2175"><ele>199.75</ele><time>2026-04-25T15:10:57.915Z</time></trkpt><trkpt lat="40.1575033" lon="15.2176133"><ele>203.0</ele><time>2026-04-25T15:10:58.911Z</time></trkpt><trkpt lat="40.157455" lon="15.2177533"><ele>203.0</ele><time>2026-04-25T15:10:59.915Z</time></trkpt><trkpt lat="40.15741" lon="15.2178933"><ele>203.0</ele><time>2026-04-25T15:11:00.911Z</time></trkpt><trkpt lat="40.1573533" lon="15.2180083"><ele>203.0</ele><time>2026-04-25T15:11:01.98Z</time></trkpt><trkpt lat="40.15728" lon="15.2181217"><ele>203.0</ele><time>2026-04-25T15:11:02.914Z</time></trkpt><trkpt lat="40.1572067" lon="15.218185"><ele>203.0</ele><time>2026-04-25T15:11:03.914Z</time></trkpt><trkpt lat="40.1571317" lon="15.2182233"><ele>202.50000000000003</ele><time>2026-04-25T15:11:04.92Z</time></trkpt><trkpt lat="40.1570583" lon="15.2182317"><ele>202.0</ele><time>2026-04-25T15:11:05.921Z</time></trkpt><trkpt lat="40.1569867" lon="15.2182017"><ele>201.5</ele><time>2026-04-25T15:11:06.912Z</time></trkpt><trkpt lat="40.1569317" lon="15.2181167"><ele>201.0</ele><time>2026-04-25T15:11:07.966Z</time></trkpt><trkpt lat="40.1568883" lon="15.2180067"><ele>200.50000000000003</ele><time>2026-04-25T15:11:08.917Z</time></trkpt><trkpt lat="40.156825" lon="15.2178733"><ele>200.0</ele><time>2026-04-25T15:11:09.918Z</time></trkpt><trkpt lat="40.1567417" lon="15.2176667"><ele>200.0</ele><time>2026-04-25T15:11:10.917Z</time></trkpt><trkpt lat="40.1566467" lon="15.2175233"><ele>200.0</ele><time>2026-04-25T15:11:11.921Z</time></trkpt><trkpt lat="40.1565417" lon="15.2174083"><ele>200.0</ele><time>2026-04-25T15:11:12.913Z</time></trkpt><trkpt lat="40.156445" lon="15.2173333"><ele>200.0</ele><time>2026-04-25T15:11:13.96Z</time></trkpt><trkpt lat="40.156355" lon="15.21726"><ele>199.16666666666669</ele><time>2026-04-25T15:11:14.92Z</time></trkpt><trkpt lat="40.1562833" lon="15.2172"><ele>198.33333333333334</ele><time>2026-04-25T15:11:15.912Z</time></trkpt><trkpt lat="40.1562417" lon="15.217135"><ele>197.5</ele><time>2026-04-25T15:11:16.921Z</time></trkpt><trkpt lat="40.1561683" lon="15.21711"><ele>196.66666666666669</ele><time>2026-04-25T15:11:19.963Z</time></trkpt><trkpt lat="40.1560417" lon="15.2171283"><ele>195.83333333333334</ele><time>2026-04-25T15:11:22.913Z</time></trkpt><trkpt lat="40.155975" lon="15.2171383"><ele>195.0</ele><time>2026-04-25T15:11:23.916Z</time></trkpt><trkpt lat="40.1558867" lon="15.21719"><ele>195.0</ele><time>2026-04-25T15:11:24.914Z</time></trkpt><trkpt lat="40.1557867" lon="15.2172717"><ele>195.0</ele><time>2026-04-25T15:11:25.973Z</time></trkpt><trkpt lat="40.1556867" lon="15.2173583"><ele>195.0</ele><time>2026-04-25T15:11:26.918Z</time></trkpt><trkpt lat="40.15556" lon="15.2174683"><ele>195.0</ele><time>2026-04-25T15:11:27.913Z</time></trkpt><trkpt lat="40.1554583" lon="15.2175233"><ele>198.4</ele><time>2026-04-25T15:11:28.915Z</time></trkpt><trkpt lat="40.1553583" lon="15.2175567"><ele>201.8</ele><time>2026-04-25T15:11:29.915Z</time></trkpt><trkpt lat="40.1552533" lon="15.2175883"><ele>205.2</ele><time>2026-04-25T15:11:30.92Z</time></trkpt><trkpt lat="40.1551533" lon="15.217575"><ele>208.6</ele><time>2026-04-25T15:11:31.975Z</time></trkpt><trkpt lat="40.155035" lon="15.21756"><ele>212.0</ele><time>2026-04-25T15:11:32.913Z</time></trkpt><trkpt lat="40.1549017" lon="15.2174833"><ele>207.66666666666669</ele><time>2026-04-25T15:11:33.919Z</time></trkpt><trkpt lat="40.1547717" lon="15.2173483"><ele>203.33333333333331</ele><time>2026-04-25T15:11:34.921Z</time></trkpt><trkpt lat="40.15463" lon="15.2172367"><ele>199.0</ele><time>2026-04-25T15:11:35.91Z</time></trkpt><trkpt lat="40.1544933" lon="15.2171167"><ele>199.0</ele><time>2026-04-25T15:11:36.912Z</time></trkpt><trkpt lat="40.1543717" lon="15.216965"><ele>199.0</ele><time>2026-04-25T15:11:37.96Z</time></trkpt><trkpt lat="40.1542683" lon="15.2167967"><ele>199.0</ele><time>2026-04-25T15:11:38.916Z</time></trkpt><trkpt lat="40.1541667" lon="15.2166217"><ele>194.5</ele><time>2026-04-25T15:11:39.913Z</time></trkpt><trkpt lat="40.1540683" lon="15.2164667"><ele>190.0</ele><time>2026-04-25T15:11:40.917Z</time></trkpt><trkpt lat="40.1539783" lon="15.2163283"><ele>185.5</ele><time>2026-04-25T15:11:41.918Z</time></trkpt><trkpt lat="40.1538717" lon="15.2162317"><ele>181.0</ele><time>2026-04-25T15:11:42.918Z</time></trkpt><trkpt lat="40.1537817" lon="15.2161533"><ele>181.0</ele><time>2026-04-25T15:11:43.959Z</time></trkpt><trkpt lat="40.1536517" lon="15.2161217"><ele>181.0</ele><time>2026-04-25T15:11:44.916Z</time></trkpt><trkpt lat="40.153555" lon="15.2161083"><ele>181.0</ele><time>2026-04-25T15:11:45.918Z</time></trkpt><trkpt lat="40.153445" lon="15.216155"><ele>181.0</ele><time>2026-04-25T15:11:46.916Z</time></trkpt><trkpt lat="40.1532967" lon="15.216295"><ele>181.0</ele><time>2026-04-25T15:11:47.916Z</time></trkpt><trkpt lat="40.1532083" lon="15.2164567"><ele>181.0</ele><time>2026-04-25T15:11:48.918Z</time></trkpt><trkpt lat="40.1531117" lon="15.2165417"><ele>181.0</ele><time>2026-04-25T15:11:49.96Z</time></trkpt><trkpt lat="40.15301" lon="15.216615"><ele>181.0</ele><time>2026-04-25T15:11:50.916Z</time></trkpt><trkpt lat="40.1529083" lon="15.2166533"><ele>185.5</ele><time>2026-04-25T15:11:51.915Z</time></trkpt><trkpt lat="40.1528133" lon="15.2166667"><ele>190.0</ele><time>2026-04-25T15:11:52.916Z</time></trkpt><trkpt lat="40.152765" lon="15.2165967"><ele>194.5</ele><time>2026-04-25T15:11:53.912Z</time></trkpt><trkpt lat="40.1527033" lon="15.2165467"><ele>199.0</ele><time>2026-04-25T15:11:54.909Z</time></trkpt><trkpt lat="40.1526267" lon="15.2164283"><ele>203.49999999999997</ele><time>2026-04-25T15:11:56.909Z</time></trkpt><trkpt lat="40.1526117" lon="15.2163333"><ele>208.0</ele><time>2026-04-25T15:11:57.917Z</time></trkpt><trkpt lat="40.15261" lon="15.21621"><ele>208.0</ele><time>2026-04-25T15:11:58.91Z</time></trkpt><trkpt lat="40.1526117" lon="15.216085"><ele>208.0</ele><time>2026-04-25T15:11:59.91Z</time></trkpt><trkpt lat="40.1525917" lon="15.2159567"><ele>208.0</ele><time>2026-04-25T15:12:00.92Z</time></trkpt><trkpt lat="40.1525733" lon="15.215845"><ele>208.0</ele><time>2026-04-25T15:12:01.976Z</time></trkpt><trkpt lat="40.1525733" lon="15.2157217"><ele>208.0</ele><time>2026-04-25T15:12:02.911Z</time></trkpt><trkpt lat="40.1525767" lon="15.215595"><ele>205.99999999999997</ele><time>2026-04-25T15:12:03.906Z</time></trkpt><trkpt lat="40.15261" lon="15.2154683"><ele>204.0</ele><time>2026-04-25T15:12:04.915Z</time></trkpt><trkpt lat="40.15263" lon="15.215365"><ele>202.0</ele><time>2026-04-25T15:12:05.91Z</time></trkpt><trkpt lat="40.1526333" lon="15.2152733"><ele>200.0</ele><time>2026-04-25T15:12:06.914Z</time></trkpt><trkpt lat="40.1526333" lon="15.21519"><ele>197.99999999999997</ele><time>2026-04-25T15:12:07.959Z</time></trkpt><trkpt lat="40.152605" lon="15.2150333"><ele>196.0</ele><time>2026-04-25T15:12:09.919Z</time></trkpt><trkpt lat="40.1525883" lon="15.2149467"><ele>196.0</ele><time>2026-04-25T15:12:10.911Z</time></trkpt><trkpt lat="40.15258" lon="15.214865"><ele>196.0</ele><time>2026-04-25T15:12:13.961Z</time></trkpt><trkpt lat="40.1526483" lon="15.21506"><ele>196.0</ele><time>2026-04-25T15:12:20.914Z</time></trkpt><trkpt lat="40.1526917" lon="15.21515"><ele>196.0</ele><time>2026-04-25T15:12:21.912Z</time></trkpt><trkpt lat="40.1527333" lon="15.21524"><ele>196.0</ele><time>2026-04-25T15:12:22.917Z</time></trkpt><trkpt lat="40.1527767" lon="15.21534"><ele>195.99999999999997</ele><time>2026-04-25T15:12:23.911Z</time></trkpt><trkpt lat="40.1527867" lon="15.215445"><ele>196.0</ele><time>2026-04-25T15:12:24.913Z</time></trkpt><trkpt lat="40.1527583" lon="15.215535"><ele>196.0</ele><time>2026-04-25T15:12:25.978Z</time></trkpt><trkpt lat="40.1527183" lon="15.21567"><ele>196.0</ele><time>2026-04-25T15:12:27.919Z</time></trkpt><trkpt lat="40.1526933" lon="15.21575"><ele>195.99999999999997</ele><time>2026-04-25T15:12:29.923Z</time></trkpt><trkpt lat="40.1526617" lon="15.2158767"><ele>196.0</ele><time>2026-04-25T15:12:32.915Z</time></trkpt><trkpt lat="40.1526817" lon="15.215995"><ele>198.4</ele><time>2026-04-25T15:12:34.925Z</time></trkpt><trkpt lat="40.1527183" lon="15.2161217"><ele>200.8</ele><time>2026-04-25T15:12:36.916Z</time></trkpt><trkpt lat="40.15272" lon="15.2162333"><ele>203.20000000000002</ele><time>2026-04-25T15:12:38.914Z</time></trkpt><trkpt lat="40.1526633" lon="15.2163317"><ele>205.60000000000002</ele><time>2026-04-25T15:12:40.914Z</time></trkpt><trkpt lat="40.15259" lon="15.2164367"><ele>208.0</ele><time>2026-04-25T15:12:42.916Z</time></trkpt><trkpt lat="40.1525383" lon="15.21649"><ele>207.99999999999997</ele><time>2026-04-25T15:12:44.915Z</time></trkpt><trkpt lat="40.15247" lon="15.2164433"><ele>208.0</ele><time>2026-04-25T15:12:51.913Z</time></trkpt><trkpt lat="40.1524633" lon="15.216345"><ele>208.0</ele><time>2026-04-25T15:12:53.916Z</time></trkpt><trkpt lat="40.1523817" lon="15.2162617"><ele>208.0</ele><time>2026-04-25T15:12:56.911Z</time></trkpt><trkpt lat="40.1523067" lon="15.2162667"><ele>207.99999999999997</ele><time>2026-04-25T15:12:58.91Z</time></trkpt><trkpt lat="40.1522367" lon="15.2163367"><ele>208.0</ele><time>2026-04-25T15:13:00.913Z</time></trkpt><trkpt lat="40.1521733" lon="15.2164133"><ele>216.60000000000002</ele><time>2026-04-25T15:13:02.911Z</time></trkpt><trkpt lat="40.1520633" lon="15.2164967"><ele>225.20000000000002</ele><time>2026-04-25T15:13:04.91Z</time></trkpt><trkpt lat="40.1519833" lon="15.2165467"><ele>233.8</ele><time>2026-04-25T15:13:05.915Z</time></trkpt><trkpt lat="40.1518983" lon="15.216595"><ele>242.4</ele><time>2026-04-25T15:13:06.917Z</time></trkpt><trkpt lat="40.1518283" lon="15.21664"><ele>251.0</ele><time>2026-04-25T15:13:07.962Z</time></trkpt><trkpt lat="40.1517517" lon="15.21668"><ele>251.0</ele><time>2026-04-25T15:13:08.916Z</time></trkpt><trkpt lat="40.1516467" lon="15.2167317"><ele>251.00000000000003</ele><time>2026-04-25T15:13:09.918Z</time></trkpt><trkpt lat="40.1515567" lon="15.2167883"><ele>251.00000000000003</ele><time>2026-04-25T15:13:10.917Z</time></trkpt><trkpt lat="40.1514833" lon="15.2168433"><ele>251.0</ele><time>2026-04-25T15:13:11.914Z</time></trkpt><trkpt lat="40.1514117" lon="15.2168967"><ele>251.0</ele><time>2026-04-25T15:13:12.907Z</time></trkpt><trkpt lat="40.151335" lon="15.2169533"><ele>256.0</ele><time>2026-04-25T15:13:13.96Z</time></trkpt><trkpt lat="40.1512633" lon="15.217"><ele>261.0</ele><time>2026-04-25T15:13:14.913Z</time></trkpt><trkpt lat="40.1511933" lon="15.21703"><ele>266.0</ele><time>2026-04-25T15:13:15.915Z</time></trkpt><trkpt lat="40.1511067" lon="15.2170833"><ele>271.0</ele><time>2026-04-25T15:13:17.916Z</time></trkpt><trkpt lat="40.1511867" lon="15.2170783"><ele>276.0</ele><time>2026-04-25T15:13:18.915Z</time></trkpt><trkpt lat="40.1513117" lon="15.2170133"><ele>276.0</ele><time>2026-04-25T15:13:22.912Z</time></trkpt><trkpt lat="40.1513533" lon="15.2169017"><ele>276.0</ele><time>2026-04-25T15:13:24.914Z</time></trkpt><trkpt lat="40.1513867" lon="15.2167983"><ele>276.0</ele><time>2026-04-25T15:13:25.981Z</time></trkpt><trkpt lat="40.151355" lon="15.21667"><ele>276.0</ele><time>2026-04-25T15:13:27.915Z</time></trkpt><trkpt lat="40.1513467" lon="15.216565"><ele>276.0</ele><time>2026-04-25T15:13:29.925Z</time></trkpt><trkpt lat="40.1512567" lon="15.2164917"><ele>276.0</ele><time>2026-04-25T15:13:31.986Z</time></trkpt><trkpt lat="40.15116" lon="15.2164433"><ele>276.0</ele><time>2026-04-25T15:13:33.917Z</time></trkpt><trkpt lat="40.1510483" lon="15.216415"><ele>276.0</ele><time>2026-04-25T15:13:35.913Z</time></trkpt><trkpt lat="40.1509567" lon="15.2164133"><ele>276.0</ele><time>2026-04-25T15:13:37.962Z</time></trkpt><trkpt lat="40.1510833" lon="15.216435"><ele>276.0</ele><time>2026-04-25T15:13:38.916Z</time></trkpt><trkpt lat="40.1510683" lon="15.216525"><ele>276.0</ele><time>2026-04-25T15:13:42.919Z</time></trkpt><trkpt lat="40.15111" lon="15.2166067"><ele>276.0</ele><time>2026-04-25T15:13:44.911Z</time></trkpt><trkpt lat="40.151135" lon="15.2166933"><ele>276.0</ele><time>2026-04-25T15:13:46.917Z</time></trkpt><trkpt lat="40.1511017" lon="15.2167867"><ele>276.0</ele><time>2026-04-25T15:13:49.965Z</time></trkpt><trkpt lat="40.1509867" lon="15.2167617"><ele>276.0</ele><time>2026-04-25T15:14:30.918Z</time></trkpt><trkpt lat="40.1509183" lon="15.2167467"><ele>276.0</ele><time>2026-04-25T15:14:31.976Z</time></trkpt><trkpt lat="40.1508533" lon="15.2167483"><ele>276.0</ele><time>2026-04-25T15:14:32.913Z</time></trkpt><trkpt lat="40.1507317" lon="15.21676"><ele>276.0</ele><time>2026-04-25T15:14:34.913Z</time></trkpt><trkpt lat="40.1506567" lon="15.2167783"><ele>276.0</ele><time>2026-04-25T15:14:35.91Z</time></trkpt><trkpt lat="40.1505767" lon="15.2168117"><ele>276.0</ele><time>2026-04-25T15:14:36.912Z</time></trkpt><trkpt lat="40.1505017" lon="15.2168533"><ele>276.0</ele><time>2026-04-25T15:14:37.958Z</time></trkpt><trkpt lat="40.150425" lon="15.2168983"><ele>276.0</ele><time>2026-04-25T15:14:38.905Z</time></trkpt><trkpt lat="40.150345" lon="15.2169467"><ele>277.8333333333333</ele><time>2026-04-25T15:14:39.91Z</time></trkpt><trkpt lat="40.1502683" lon="15.21699"><ele>279.6666666666667</ele><time>2026-04-25T15:14:40.913Z</time></trkpt><trkpt lat="40.150185" lon="15.217035"><ele>281.5</ele><time>2026-04-25T15:14:41.918Z</time></trkpt><trkpt lat="40.1501083" lon="15.2170733"><ele>283.33333333333337</ele><time>2026-04-25T15:14:42.916Z</time></trkpt><trkpt lat="40.1500317" lon="15.2171017"><ele>285.1666666666667</ele><time>2026-04-25T15:14:43.959Z</time></trkpt><trkpt lat="40.1499533" lon="15.217125"><ele>287.0</ele><time>2026-04-25T15:14:44.91Z</time></trkpt><trkpt lat="40.149875" lon="15.2171467"><ele>289.2</ele><time>2026-04-25T15:14:45.912Z</time></trkpt><trkpt lat="40.14979" lon="15.2171683"><ele>291.4</ele><time>2026-04-25T15:14:46.911Z</time></trkpt><trkpt lat="40.1497067" lon="15.2171883"><ele>293.6</ele><time>2026-04-25T15:14:47.913Z</time></trkpt><trkpt lat="40.149625" lon="15.2172133"><ele>295.8</ele><time>2026-04-25T15:14:48.913Z</time></trkpt><trkpt lat="40.1495383" lon="15.21725"><ele>298.0</ele><time>2026-04-25T15:14:49.961Z</time></trkpt><trkpt lat="40.1494367" lon="15.2173017"><ele>303.0</ele><time>2026-04-25T15:14:50.913Z</time></trkpt><trkpt lat="40.14933" lon="15.217365"><ele>308.0</ele><time>2026-04-25T15:14:51.913Z</time></trkpt><trkpt lat="40.149215" lon="15.217435"><ele>313.0</ele><time>2026-04-25T15:14:52.917Z</time></trkpt><trkpt lat="40.14911" lon="15.2174983"><ele>318.0</ele><time>2026-04-25T15:14:53.914Z</time></trkpt><trkpt lat="40.1490117" lon="15.2175517"><ele>322.2</ele><time>2026-04-25T15:14:54.909Z</time></trkpt><trkpt lat="40.1489317" lon="15.21759"><ele>326.4</ele><time>2026-04-25T15:14:55.985Z</time></trkpt><trkpt lat="40.14882" lon="15.2176117"><ele>330.59999999999997</ele><time>2026-04-25T15:14:57.918Z</time></trkpt><trkpt lat="40.1487083" lon="15.2175817"><ele>334.8</ele><time>2026-04-25T15:14:59.918Z</time></trkpt><trkpt lat="40.1486333" lon="15.2175533"><ele>339.0</ele><time>2026-04-25T15:15:00.914Z</time></trkpt><trkpt lat="40.1485483" lon="15.2175283"><ele>339.0</ele><time>2026-04-25T15:15:01.983Z</time></trkpt><trkpt lat="40.1484617" lon="15.2175"><ele>339.0</ele><time>2026-04-25T15:15:02.91Z</time></trkpt><trkpt lat="40.1483733" lon="15.2174667"><ele>339.0</ele><time>2026-04-25T15:15:03.917Z</time></trkpt><trkpt lat="40.1482983" lon="15.2174367"><ele>339.0</ele><time>2026-04-25T15:15:04.92Z</time></trkpt><trkpt lat="40.1482167" lon="15.2174133"><ele>339.0</ele><time>2026-04-25T15:15:06.912Z</time></trkpt><trkpt lat="40.1481617" lon="15.217455"><ele>339.0</ele><time>2026-04-25T15:15:08.915Z</time></trkpt><trkpt lat="40.1482233" lon="15.217525"><ele>339.0</ele><time>2026-04-25T15:15:09.915Z</time></trkpt><trkpt lat="40.1482683" lon="15.2175983"><ele>339.0</ele><time>2026-04-25T15:15:10.921Z</time></trkpt><trkpt lat="40.1483017" lon="15.217675"><ele>339.0</ele><time>2026-04-25T15:15:11.915Z</time></trkpt><trkpt lat="40.14831" lon="15.2177967"><ele>339.0</ele><time>2026-04-25T15:15:13.963Z</time></trkpt><trkpt lat="40.1482533" lon="15.2178383"><ele>339.0</ele><time>2026-04-25T15:15:15.911Z</time></trkpt><trkpt lat="40.1481783" lon="15.2178"><ele>339.0</ele><time>2026-04-25T15:15:17.911Z</time></trkpt><trkpt lat="40.1480867" lon="15.2177517"><ele>342.6666666666667</ele><time>2026-04-25T15:15:19.959Z</time></trkpt><trkpt lat="40.1479883" lon="15.21778"><ele>346.3333333333333</ele><time>2026-04-25T15:15:21.913Z</time></trkpt><trkpt lat="40.1479083" lon="15.2178983"><ele>350.0</ele><time>2026-04-25T15:15:23.916Z</time></trkpt><trkpt lat="40.1478633" lon="15.21796"><ele>353.66666666666663</ele><time>2026-04-25T15:15:24.917Z</time></trkpt><trkpt lat="40.1478133" lon="15.2180167"><ele>357.3333333333333</ele><time>2026-04-25T15:15:25.981Z</time></trkpt><trkpt lat="40.1477583" lon="15.218075"><ele>361.0</ele><time>2026-04-25T15:15:26.91Z</time></trkpt><trkpt lat="40.1477017" lon="15.218125"><ele>363.0</ele><time>2026-04-25T15:15:27.91Z</time></trkpt><trkpt lat="40.1476367" lon="15.2181667"><ele>365.0</ele><time>2026-04-25T15:15:28.916Z</time></trkpt><trkpt lat="40.147565" lon="15.2182067"><ele>367.0</ele><time>2026-04-25T15:15:29.916Z</time></trkpt><trkpt lat="40.1474983" lon="15.2182483"><ele>369.0</ele><time>2026-04-25T15:15:30.911Z</time></trkpt><trkpt lat="40.1474367" lon="15.2182817"><ele>371.0</ele><time>2026-04-25T15:15:31.98Z</time></trkpt><trkpt lat="40.1473733" lon="15.2183167"><ele>373.0</ele><time>2026-04-25T15:15:32.909Z</time></trkpt><trkpt lat="40.14731" lon="15.2183467"><ele>375.0</ele><time>2026-04-25T15:15:33.913Z</time></trkpt><trkpt lat="40.1471917" lon="15.21839"><ele>378.2857142857143</ele><time>2026-04-25T15:15:35.911Z</time></trkpt><trkpt lat="40.14712" lon="15.2184183"><ele>381.57142857142856</ele><time>2026-04-25T15:15:36.91Z</time></trkpt><trkpt lat="40.1470533" lon="15.2184333"><ele>384.85714285714283</ele><time>2026-04-25T15:15:37.962Z</time></trkpt><trkpt lat="40.1469833" lon="15.21845"><ele>388.1428571428571</ele><time>2026-04-25T15:15:38.91Z</time></trkpt><trkpt lat="40.1469167" lon="15.2184767"><ele>391.42857142857144</ele><time>2026-04-25T15:15:39.911Z</time></trkpt><trkpt lat="40.14685" lon="15.218515"><ele>394.71428571428567</ele><time>2026-04-25T15:15:40.91Z</time></trkpt><trkpt lat="40.146775" lon="15.21855"><ele>398.0</ele><time>2026-04-25T15:15:41.917Z</time></trkpt><trkpt lat="40.1467" lon="15.218595"><ele>397.99999999999994</ele><time>2026-04-25T15:15:42.916Z</time></trkpt><trkpt lat="40.146625" lon="15.218635"><ele>398.0</ele><time>2026-04-25T15:15:43.959Z</time></trkpt><trkpt lat="40.1465533" lon="15.2186767"><ele>398.0</ele><time>2026-04-25T15:15:44.917Z</time></trkpt><trkpt lat="40.1464783" lon="15.2187217"><ele>398.0</ele><time>2026-04-25T15:15:45.914Z</time></trkpt><trkpt lat="40.14641" lon="15.218765"><ele>397.99999999999994</ele><time>2026-04-25T15:15:46.91Z</time></trkpt><trkpt lat="40.146345" lon="15.2188083"><ele>398.0</ele><time>2026-04-25T15:15:47.911Z</time></trkpt><trkpt lat="40.1462833" lon="15.2188467"><ele>399.99999999999994</ele><time>2026-04-25T15:15:48.914Z</time></trkpt><trkpt lat="40.1462217" lon="15.2188817"><ele>402.0</ele><time>2026-04-25T15:15:49.959Z</time></trkpt><trkpt lat="40.14616" lon="15.2189033"><ele>404.0</ele><time>2026-04-25T15:15:50.914Z</time></trkpt><trkpt lat="40.1460883" lon="15.2189117"><ele>406.0</ele><time>2026-04-25T15:15:51.912Z</time></trkpt><trkpt lat="40.1460233" lon="15.2188983"><ele>408.0</ele><time>2026-04-25T15:15:52.912Z</time></trkpt><trkpt lat="40.1459467" lon="15.21884"><ele>409.99999999999994</ele><time>2026-04-25T15:15:54.92Z</time></trkpt><trkpt lat="40.1458767" lon="15.2187833"><ele>412.0</ele><time>2026-04-25T15:15:56.911Z</time></trkpt><trkpt lat="40.145765" lon="15.218765"><ele>417.83333333333337</ele><time>2026-04-25T15:15:58.917Z</time></trkpt><trkpt lat="40.1457" lon="15.21877"><ele>423.6666666666667</ele><time>2026-04-25T15:15:59.912Z</time></trkpt><trkpt lat="40.1456233" lon="15.2187733"><ele>429.5</ele><time>2026-04-25T15:16:00.914Z</time></trkpt><trkpt lat="40.1455567" lon="15.21877"><ele>435.33333333333337</ele><time>2026-04-25T15:16:01.985Z</time></trkpt><trkpt lat="40.14546" lon="15.21878"><ele>441.1666666666667</ele><time>2026-04-25T15:16:03.908Z</time></trkpt><trkpt lat="40.14556" lon="15.2187833"><ele>447.0</ele><time>2026-04-25T15:16:05.908Z</time></trkpt><trkpt lat="40.145585" lon="15.2186867"><ele>447.0</ele><time>2026-04-25T15:16:20.907Z</time></trkpt><trkpt lat="40.1455483" lon="15.2185617"><ele>447.0</ele><time>2026-04-25T15:16:23.916Z</time></trkpt><trkpt lat="40.1454683" lon="15.2184017"><ele>447.0</ele><time>2026-04-25T15:16:25.979Z</time></trkpt><trkpt lat="40.1453383" lon="15.218235"><ele>447.0</ele><time>2026-04-25T15:16:26.908Z</time></trkpt><trkpt lat="40.1452667" lon="15.2181"><ele>447.0</ele><time>2026-04-25T15:16:27.912Z</time></trkpt><trkpt lat="40.14523" lon="15.2179783"><ele>447.0</ele><time>2026-04-25T15:16:28.91Z</time></trkpt><trkpt lat="40.1452217" lon="15.217865"><ele>447.0</ele><time>2026-04-25T15:16:29.913Z</time></trkpt><trkpt lat="40.1452133" lon="15.21777"><ele>447.0</ele><time>2026-04-25T15:16:30.913Z</time></trkpt><trkpt lat="40.14522" lon="15.217675"><ele>447.0</ele><time>2026-04-25T15:16:31.983Z</time></trkpt><trkpt lat="40.1452467" lon="15.2175783"><ele>447.0</ele><time>2026-04-25T15:16:32.91Z</time></trkpt><trkpt lat="40.1453283" lon="15.2174483"><ele>446.0</ele><time>2026-04-25T15:16:33.916Z</time></trkpt><trkpt lat="40.1454083" lon="15.217315"><ele>445.00000000000006</ele><time>2026-04-25T15:16:34.913Z</time></trkpt><trkpt lat="40.14546" lon="15.21718"><ele>444.00000000000006</ele><time>2026-04-25T15:16:35.913Z</time></trkpt><trkpt lat="40.1454633" lon="15.2170683"><ele>443.0</ele><time>2026-04-25T15:16:36.906Z</time></trkpt><trkpt lat="40.1454567" lon="15.2169433"><ele>442.0</ele><time>2026-04-25T15:16:37.962Z</time></trkpt><trkpt lat="40.1454233" lon="15.2168333"><ele>442.00000000000006</ele><time>2026-04-25T15:16:38.905Z</time></trkpt><trkpt lat="40.1453733" lon="15.2167417"><ele>442.0</ele><time>2026-04-25T15:16:39.915Z</time></trkpt><trkpt lat="40.1453617" lon="15.21664"><ele>442.0</ele><time>2026-04-25T15:16:40.91Z</time></trkpt><trkpt lat="40.1453633" lon="15.2165383"><ele>442.0</ele><time>2026-04-25T15:16:41.913Z</time></trkpt><trkpt lat="40.14536" lon="15.2164267"><ele>442.00000000000006</ele><time>2026-04-25T15:16:42.906Z</time></trkpt><trkpt lat="40.1453683" lon="15.2163083"><ele>442.0</ele><time>2026-04-25T15:16:43.958Z</time></trkpt><trkpt lat="40.1453633" lon="15.2161917"><ele>442.6666666666667</ele><time>2026-04-25T15:16:44.908Z</time></trkpt><trkpt lat="40.1453367" lon="15.216085"><ele>443.33333333333337</ele><time>2026-04-25T15:16:45.914Z</time></trkpt><trkpt lat="40.1452983" lon="15.2159883"><ele>444.0</ele><time>2026-04-25T15:16:46.91Z</time></trkpt><trkpt lat="40.1452633" lon="15.215905"><ele>444.66666666666663</ele><time>2026-04-25T15:16:47.918Z</time></trkpt><trkpt lat="40.1452317" lon="15.2158283"><ele>445.3333333333333</ele><time>2026-04-25T15:16:48.91Z</time></trkpt><trkpt lat="40.14523" lon="15.2157433"><ele>446.0</ele><time>2026-04-25T15:16:50.906Z</time></trkpt><trkpt lat="40.1452667" lon="15.215645"><ele>447.4</ele><time>2026-04-25T15:16:52.906Z</time></trkpt><trkpt lat="40.1453283" lon="15.2154867"><ele>448.8</ele><time>2026-04-25T15:16:54.909Z</time></trkpt><trkpt lat="40.14535" lon="15.2153783"><ele>450.19999999999993</ele><time>2026-04-25T15:16:55.977Z</time></trkpt><trkpt lat="40.1453667" lon="15.215255"><ele>451.59999999999997</ele><time>2026-04-25T15:16:56.911Z</time></trkpt><trkpt lat="40.14537" lon="15.2151217"><ele>453.0</ele><time>2026-04-25T15:16:57.909Z</time></trkpt><trkpt lat="40.1453517" lon="15.21498"><ele>453.0</ele><time>2026-04-25T15:16:58.912Z</time></trkpt><trkpt lat="40.1453217" lon="15.214825"><ele>452.99999999999994</ele><time>2026-04-25T15:16:59.915Z</time></trkpt><trkpt lat="40.1453017" lon="15.21469"><ele>452.99999999999994</ele><time>2026-04-25T15:17:00.917Z</time></trkpt><trkpt lat="40.1452717" lon="15.2145683"><ele>453.0</ele><time>2026-04-25T15:17:01.975Z</time></trkpt><trkpt lat="40.1452417" lon="15.2144583"><ele>453.0</ele><time>2026-04-25T15:17:02.907Z</time></trkpt><trkpt lat="40.1452133" lon="15.21437"><ele>453.6666666666667</ele><time>2026-04-25T15:17:03.918Z</time></trkpt><trkpt lat="40.145165" lon="15.21425"><ele>454.33333333333337</ele><time>2026-04-25T15:17:05.913Z</time></trkpt><trkpt lat="40.14514" lon="15.2141683"><ele>455.0</ele><time>2026-04-25T15:17:07.958Z</time></trkpt><trkpt lat="40.1451467" lon="15.21404"><ele>455.6666666666667</ele><time>2026-04-25T15:17:09.913Z</time></trkpt><trkpt lat="40.1451617" lon="15.213955"><ele>456.33333333333337</ele><time>2026-04-25T15:17:10.914Z</time></trkpt><trkpt lat="40.14519" lon="15.2138533"><ele>457.0</ele><time>2026-04-25T15:17:11.91Z</time></trkpt><trkpt lat="40.1452167" lon="15.21375"><ele>456.8</ele><time>2026-04-25T15:17:12.91Z</time></trkpt><trkpt lat="40.1452267" lon="15.2136283"><ele>456.6</ele><time>2026-04-25T15:17:13.955Z</time></trkpt><trkpt lat="40.1452233" lon="15.2135033"><ele>456.40000000000003</ele><time>2026-04-25T15:17:14.913Z</time></trkpt><trkpt lat="40.1452133" lon="15.21337"><ele>456.20000000000005</ele><time>2026-04-25T15:17:15.91Z</time></trkpt><trkpt lat="40.1452067" lon="15.2132483"><ele>456.0</ele><time>2026-04-25T15:17:16.911Z</time></trkpt><trkpt lat="40.1451867" lon="15.2131367"><ele>456.0</ele><time>2026-04-25T15:17:17.918Z</time></trkpt><trkpt lat="40.1451567" lon="15.2130317"><ele>456.0</ele><time>2026-04-25T15:17:18.91Z</time></trkpt><trkpt lat="40.14513" lon="15.2129333"><ele>456.0</ele><time>2026-04-25T15:17:19.963Z</time></trkpt><trkpt lat="40.1450983" lon="15.2128417"><ele>456.0</ele><time>2026-04-25T15:17:20.912Z</time></trkpt><trkpt lat="40.14506" lon="15.21276"><ele>456.0</ele><time>2026-04-25T15:17:21.914Z</time></trkpt><trkpt lat="40.1450117" lon="15.2126933"><ele>456.0</ele><time>2026-04-25T15:17:22.913Z</time></trkpt><trkpt lat="40.1449483" lon="15.21263"><ele>456.0</ele><time>2026-04-25T15:17:23.913Z</time></trkpt><trkpt lat="40.1448883" lon="15.212575"><ele>456.0</ele><time>2026-04-25T15:17:24.912Z</time></trkpt><trkpt lat="40.1448333" lon="15.2125317"><ele>456.0</ele><time>2026-04-25T15:17:25.982Z</time></trkpt><trkpt lat="40.14477" lon="15.2125267"><ele>456.0</ele><time>2026-04-25T15:17:27.908Z</time></trkpt><trkpt lat="40.1447717" lon="15.2126283"><ele>456.0</ele><time>2026-04-25T15:17:29.912Z</time></trkpt><trkpt lat="40.1448017" lon="15.212775"><ele>456.0</ele><time>2026-04-25T15:17:31.975Z</time></trkpt><trkpt lat="40.1447917" lon="15.2129233"><ele>456.1666666666667</ele><time>2026-04-25T15:17:33.912Z</time></trkpt><trkpt lat="40.144765" lon="15.2130667"><ele>456.33333333333337</ele><time>2026-04-25T15:17:35.916Z</time></trkpt><trkpt lat="40.1447533" lon="15.2131483"><ele>456.5</ele><time>2026-04-25T15:17:36.912Z</time></trkpt><trkpt lat="40.1447333" lon="15.21324"><ele>456.6666666666667</ele><time>2026-04-25T15:17:37.96Z</time></trkpt><trkpt lat="40.1447067" lon="15.2133333"><ele>456.83333333333337</ele><time>2026-04-25T15:17:38.917Z</time></trkpt><trkpt lat="40.1446733" lon="15.2134267"><ele>457.0</ele><time>2026-04-25T15:17:39.906Z</time></trkpt><trkpt lat="40.1446367" lon="15.2135183"><ele>457.00000000000006</ele><time>2026-04-25T15:17:40.912Z</time></trkpt><trkpt lat="40.1445917" lon="15.21361"><ele>457.0</ele><time>2026-04-25T15:17:41.911Z</time></trkpt><trkpt lat="40.14454" lon="15.213705"><ele>457.0</ele><time>2026-04-25T15:17:42.918Z</time></trkpt><trkpt lat="40.144485" lon="15.2137917"><ele>457.0</ele><time>2026-04-25T15:17:43.961Z</time></trkpt><trkpt lat="40.1444483" lon="15.2138833"><ele>457.00000000000006</ele><time>2026-04-25T15:17:44.918Z</time></trkpt><trkpt lat="40.1444217" lon="15.2139817"><ele>457.0</ele><time>2026-04-25T15:17:45.908Z</time></trkpt><trkpt lat="40.1443933" lon="15.21408"><ele>459.1666666666667</ele><time>2026-04-25T15:17:46.914Z</time></trkpt><trkpt lat="40.14436" lon="15.2141733"><ele>461.33333333333337</ele><time>2026-04-25T15:17:47.91Z</time></trkpt><trkpt lat="40.1443317" lon="15.2142733"><ele>463.5</ele><time>2026-04-25T15:17:48.911Z</time></trkpt><trkpt lat="40.144305" lon="15.2143783"><ele>465.66666666666663</ele><time>2026-04-25T15:17:49.964Z</time></trkpt><trkpt lat="40.1442767" lon="15.21449"><ele>467.8333333333333</ele><time>2026-04-25T15:17:50.91Z</time></trkpt><trkpt lat="40.1442433" lon="15.214595"><ele>470.0</ele><time>2026-04-25T15:17:51.912Z</time></trkpt><trkpt lat="40.1442" lon="15.214685"><ele>469.99999999999994</ele><time>2026-04-25T15:17:52.918Z</time></trkpt><trkpt lat="40.1441517" lon="15.21476"><ele>470.0</ele><time>2026-04-25T15:17:53.909Z</time></trkpt><trkpt lat="40.1440933" lon="15.214835"><ele>470.0</ele><time>2026-04-25T15:17:54.915Z</time></trkpt><trkpt lat="40.14404" lon="15.2149133"><ele>470.0</ele><time>2026-04-25T15:17:55.98Z</time></trkpt><trkpt lat="40.143995" lon="15.2149933"><ele>469.99999999999994</ele><time>2026-04-25T15:17:56.915Z</time></trkpt><trkpt lat="40.14395" lon="15.21507"><ele>470.0</ele><time>2026-04-25T15:17:57.913Z</time></trkpt><trkpt lat="40.14391" lon="15.21515"><ele>471.71428571428567</ele><time>2026-04-25T15:17:58.913Z</time></trkpt><trkpt lat="40.14387" lon="15.215225"><ele>473.4285714285714</ele><time>2026-04-25T15:17:59.916Z</time></trkpt><trkpt lat="40.143825" lon="15.2152917"><ele>475.1428571428571</ele><time>2026-04-25T15:18:00.918Z</time></trkpt><trkpt lat="40.14377" lon="15.2153583"><ele>476.8571428571429</ele><time>2026-04-25T15:18:01.978Z</time></trkpt><trkpt lat="40.14371" lon="15.2154283"><ele>478.5714285714286</ele><time>2026-04-25T15:18:02.914Z</time></trkpt><trkpt lat="40.1436483" lon="15.2154967"><ele>480.28571428571433</ele><time>2026-04-25T15:18:03.915Z</time></trkpt><trkpt lat="40.14359" lon="15.2155567"><ele>482.0</ele><time>2026-04-25T15:18:04.912Z</time></trkpt><trkpt lat="40.14353" lon="15.21561"><ele>484.66666666666663</ele><time>2026-04-25T15:18:05.914Z</time></trkpt><trkpt lat="40.1434783" lon="15.2156633"><ele>487.3333333333333</ele><time>2026-04-25T15:18:06.914Z</time></trkpt><trkpt lat="40.1434383" lon="15.2157283"><ele>490.0</ele><time>2026-04-25T15:18:07.961Z</time></trkpt><trkpt lat="40.143415" lon="15.2158067"><ele>492.66666666666663</ele><time>2026-04-25T15:18:08.916Z</time></trkpt><trkpt lat="40.1434067" lon="15.215905"><ele>495.3333333333333</ele><time>2026-04-25T15:18:09.911Z</time></trkpt><trkpt lat="40.1434" lon="15.2160217"><ele>498.0</ele><time>2026-04-25T15:18:10.911Z</time></trkpt><trkpt lat="40.1433933" lon="15.216145"><ele>498.0</ele><time>2026-04-25T15:18:11.912Z</time></trkpt><trkpt lat="40.1433833" lon="15.21626"><ele>498.0</ele><time>2026-04-25T15:18:12.911Z</time></trkpt><trkpt lat="40.1433733" lon="15.216375"><ele>498.0</ele><time>2026-04-25T15:18:13.965Z</time></trkpt><trkpt lat="40.1433667" lon="15.2164967"><ele>498.0</ele><time>2026-04-25T15:18:14.911Z</time></trkpt><trkpt lat="40.1433583" lon="15.2166133"><ele>498.0</ele><time>2026-04-25T15:18:15.909Z</time></trkpt><trkpt lat="40.143345" lon="15.2167183"><ele>498.0</ele><time>2026-04-25T15:18:16.913Z</time></trkpt><trkpt lat="40.1433167" lon="15.216825"><ele>499.3333333333333</ele><time>2026-04-25T15:18:17.909Z</time></trkpt><trkpt lat="40.1432983" lon="15.2169367"><ele>500.66666666666663</ele><time>2026-04-25T15:18:18.909Z</time></trkpt><trkpt lat="40.143275" lon="15.21705"><ele>502.0</ele><time>2026-04-25T15:18:19.959Z</time></trkpt><trkpt lat="40.1432533" lon="15.2171617"><ele>503.3333333333333</ele><time>2026-04-25T15:18:20.913Z</time></trkpt><trkpt lat="40.1432267" lon="15.217265"><ele>504.66666666666663</ele><time>2026-04-25T15:18:21.91Z</time></trkpt><trkpt lat="40.1432033" lon="15.2173717"><ele>506.0</ele><time>2026-04-25T15:18:22.909Z</time></trkpt><trkpt lat="40.14318" lon="15.2174867"><ele>506.20000000000005</ele><time>2026-04-25T15:18:23.911Z</time></trkpt><trkpt lat="40.1431617" lon="15.217615"><ele>506.40000000000003</ele><time>2026-04-25T15:18:24.915Z</time></trkpt><trkpt lat="40.1431417" lon="15.2177417"><ele>506.6</ele><time>2026-04-25T15:18:25.949Z</time></trkpt><trkpt lat="40.14312" lon="15.2178717"><ele>506.8</ele><time>2026-04-25T15:18:26.913Z</time></trkpt><trkpt lat="40.143095" lon="15.2179967"><ele>507.0</ele><time>2026-04-25T15:18:27.917Z</time></trkpt><trkpt lat="40.1430783" lon="15.218115"><ele>509.6666666666667</ele><time>2026-04-25T15:18:28.917Z</time></trkpt><trkpt lat="40.1430667" lon="15.2182317"><ele>512.3333333333334</ele><time>2026-04-25T15:18:29.91Z</time></trkpt><trkpt lat="40.143055" lon="15.2183417"><ele>515.0</ele><time>2026-04-25T15:18:30.917Z</time></trkpt><trkpt lat="40.1430383" lon="15.2184383"><ele>517.6666666666667</ele><time>2026-04-25T15:18:31.974Z</time></trkpt><trkpt lat="40.1430117" lon="15.2185283"><ele>520.3333333333334</ele><time>2026-04-25T15:18:32.912Z</time></trkpt><trkpt lat="40.1429717" lon="15.2186183"><ele>523.0</ele><time>2026-04-25T15:18:33.918Z</time></trkpt><trkpt lat="40.14292" lon="15.21872"><ele>523.0</ele><time>2026-04-25T15:18:34.913Z</time></trkpt><trkpt lat="40.1428633" lon="15.218835"><ele>523.0</ele><time>2026-04-25T15:18:35.914Z</time></trkpt><trkpt lat="40.1428033" lon="15.218955"><ele>523.0</ele><time>2026-04-25T15:18:36.915Z</time></trkpt><trkpt lat="40.142745" lon="15.2190683"><ele>523.0</ele><time>2026-04-25T15:18:37.963Z</time></trkpt><trkpt lat="40.142685" lon="15.2191733"><ele>523.0</ele><time>2026-04-25T15:18:38.907Z</time></trkpt><trkpt lat="40.14263" lon="15.21928"><ele>523.4</ele><time>2026-04-25T15:18:39.917Z</time></trkpt><trkpt lat="40.14257" lon="15.2193833"><ele>523.8</ele><time>2026-04-25T15:18:40.91Z</time></trkpt><trkpt lat="40.1425083" lon="15.219485"><ele>524.2</ele><time>2026-04-25T15:18:41.909Z</time></trkpt><trkpt lat="40.14245" lon="15.2195867"><ele>524.6</ele><time>2026-04-25T15:18:42.918Z</time></trkpt><trkpt lat="40.1423917" lon="15.2196917"><ele>525.0</ele><time>2026-04-25T15:18:43.957Z</time></trkpt><trkpt lat="40.1423333" lon="15.2197917"><ele>529.0</ele><time>2026-04-25T15:18:44.908Z</time></trkpt><trkpt lat="40.14228" lon="15.2198867"><ele>533.0</ele><time>2026-04-25T15:18:45.912Z</time></trkpt><trkpt lat="40.1422333" lon="15.2199717"><ele>537.0</ele><time>2026-04-25T15:18:46.911Z</time></trkpt><trkpt lat="40.1421817" lon="15.2200533"><ele>541.0</ele><time>2026-04-25T15:18:47.909Z</time></trkpt><trkpt lat="40.1421283" lon="15.22014"><ele>545.0</ele><time>2026-04-25T15:18:48.913Z</time></trkpt><trkpt lat="40.1420717" lon="15.22023"><ele>549.0</ele><time>2026-04-25T15:18:49.958Z</time></trkpt><trkpt lat="40.1420167" lon="15.2203217"><ele>549.0</ele><time>2026-04-25T15:18:50.911Z</time></trkpt><trkpt lat="40.1419683" lon="15.220415"><ele>549.0</ele><time>2026-04-25T15:18:51.908Z</time></trkpt><trkpt lat="40.141925" lon="15.2205217"><ele>549.0</ele><time>2026-04-25T15:18:52.916Z</time></trkpt><trkpt lat="40.1418833" lon="15.220635"><ele>549.0</ele><time>2026-04-25T15:18:53.914Z</time></trkpt><trkpt lat="40.1418467" lon="15.2207433"><ele>549.0</ele><time>2026-04-25T15:18:54.915Z</time></trkpt><trkpt lat="40.141815" lon="15.2208417"><ele>549.0</ele><time>2026-04-25T15:18:55.982Z</time></trkpt><trkpt lat="40.14179" lon="15.2209267"><ele>550.5</ele><time>2026-04-25T15:18:56.912Z</time></trkpt><trkpt lat="40.14177" lon="15.2210233"><ele>552.0</ele><time>2026-04-25T15:18:57.916Z</time></trkpt><trkpt lat="40.1417433" lon="15.221135"><ele>553.5</ele><time>2026-04-25T15:18:58.912Z</time></trkpt><trkpt lat="40.1417183" lon="15.221245"><ele>555.0</ele><time>2026-04-25T15:18:59.916Z</time></trkpt><trkpt lat="40.1416833" lon="15.2213533"><ele>556.5</ele><time>2026-04-25T15:19:00.911Z</time></trkpt><trkpt lat="40.1416417" lon="15.221465"><ele>558.0</ele><time>2026-04-25T15:19:01.976Z</time></trkpt><trkpt lat="40.1416017" lon="15.2215633"><ele>558.5</ele><time>2026-04-25T15:19:02.909Z</time></trkpt><trkpt lat="40.1415667" lon="15.2216517"><ele>559.0</ele><time>2026-04-25T15:19:03.908Z</time></trkpt><trkpt lat="40.1415383" lon="15.2217433"><ele>559.5</ele><time>2026-04-25T15:19:04.91Z</time></trkpt><trkpt lat="40.1415167" lon="15.2218217"><ele>560.0</ele><time>2026-04-25T15:19:05.91Z</time></trkpt><trkpt lat="40.1414983" lon="15.2219033"><ele>560.5</ele><time>2026-04-25T15:19:06.91Z</time></trkpt><trkpt lat="40.141455" lon="15.2220367"><ele>561.0</ele><time>2026-04-25T15:19:08.913Z</time></trkpt><trkpt lat="40.1414517" lon="15.2221467"><ele>561.0</ele><time>2026-04-25T15:19:11.916Z</time></trkpt><trkpt lat="40.1414617" lon="15.222055"><ele>561.0</ele><time>2026-04-25T15:19:30.914Z</time></trkpt><trkpt lat="40.1414917" lon="15.2219433"><ele>561.0</ele><time>2026-04-25T15:19:33.916Z</time></trkpt><trkpt lat="40.1415283" lon="15.2218217"><ele>561.0</ele><time>2026-04-25T15:19:35.914Z</time></trkpt><trkpt lat="40.1415717" lon="15.2217133"><ele>561.0</ele><time>2026-04-25T15:19:37.96Z</time></trkpt><trkpt lat="40.1414917" lon="15.22168"><ele>561.0</ele><time>2026-04-25T15:19:49.962Z</time></trkpt><trkpt lat="40.141375" lon="15.2218417"><ele>558.1666666666666</ele><time>2026-04-25T15:19:51.909Z</time></trkpt><trkpt lat="40.1413233" lon="15.2219183"><ele>555.3333333333334</ele><time>2026-04-25T15:19:52.917Z</time></trkpt><trkpt lat="40.1412867" lon="15.2220017"><ele>552.5</ele><time>2026-04-25T15:19:53.912Z</time></trkpt><trkpt lat="40.1412567" lon="15.2220933"><ele>549.6666666666667</ele><time>2026-04-25T15:19:54.914Z</time></trkpt><trkpt lat="40.141245" lon="15.2222533"><ele>546.8333333333334</ele><time>2026-04-25T15:19:56.905Z</time></trkpt><trkpt lat="40.1412717" lon="15.2223583"><ele>544.0</ele><time>2026-04-25T15:19:57.906Z</time></trkpt><trkpt lat="40.1413083" lon="15.2224717"><ele>544.0</ele><time>2026-04-25T15:19:58.906Z</time></trkpt><trkpt lat="40.141345" lon="15.222575"><ele>544.0</ele><time>2026-04-25T15:19:59.909Z</time></trkpt><trkpt lat="40.1413833" lon="15.2226867"><ele>544.0</ele><time>2026-04-25T15:20:00.912Z</time></trkpt><trkpt lat="40.1414217" lon="15.2228017"><ele>544.0</ele><time>2026-04-25T15:20:01.984Z</time></trkpt><trkpt lat="40.1414633" lon="15.222915"><ele>544.0</ele><time>2026-04-25T15:20:02.905Z</time></trkpt><trkpt lat="40.141515" lon="15.2230267"><ele>549.1666666666667</ele><time>2026-04-25T15:20:03.907Z</time></trkpt><trkpt lat="40.141565" lon="15.22314"><ele>554.3333333333334</ele><time>2026-04-25T15:20:04.911Z</time></trkpt><trkpt lat="40.1416067" lon="15.2232483"><ele>559.5</ele><time>2026-04-25T15:20:05.918Z</time></trkpt><trkpt lat="40.1416267" lon="15.2233517"><ele>564.6666666666666</ele><time>2026-04-25T15:20:06.91Z</time></trkpt><trkpt lat="40.1416417" lon="15.22345"><ele>569.8333333333333</ele><time>2026-04-25T15:20:07.97Z</time></trkpt><trkpt lat="40.1416617" lon="15.223545"><ele>575.0</ele><time>2026-04-25T15:20:08.913Z</time></trkpt><trkpt lat="40.1416833" lon="15.2236467"><ele>575.4</ele><time>2026-04-25T15:20:09.916Z</time></trkpt><trkpt lat="40.141705" lon="15.2237533"><ele>575.8</ele><time>2026-04-25T15:20:10.914Z</time></trkpt><trkpt lat="40.1417217" lon="15.2238683"><ele>576.2</ele><time>2026-04-25T15:20:11.916Z</time></trkpt><trkpt lat="40.141735" lon="15.2239833"><ele>576.6</ele><time>2026-04-25T15:20:12.911Z</time></trkpt><trkpt lat="40.14175" lon="15.2241133"><ele>577.0</ele><time>2026-04-25T15:20:13.966Z</time></trkpt><trkpt lat="40.1417633" lon="15.2242333"><ele>577.8333333333334</ele><time>2026-04-25T15:20:14.909Z</time></trkpt><trkpt lat="40.141775" lon="15.2243433"><ele>578.6666666666667</ele><time>2026-04-25T15:20:15.909Z</time></trkpt><trkpt lat="40.141785" lon="15.224445"><ele>579.5</ele><time>2026-04-25T15:20:16.909Z</time></trkpt><trkpt lat="40.1417883" lon="15.224545"><ele>580.3333333333334</ele><time>2026-04-25T15:20:17.913Z</time></trkpt><trkpt lat="40.14179" lon="15.2246367"><ele>581.1666666666666</ele><time>2026-04-25T15:20:18.913Z</time></trkpt><trkpt lat="40.1417783" lon="15.2247367"><ele>582.0</ele><time>2026-04-25T15:20:19.964Z</time></trkpt><trkpt lat="40.1417383" lon="15.2248467"><ele>582.7142857142857</ele><time>2026-04-25T15:20:20.914Z</time></trkpt><trkpt lat="40.1416817" lon="15.22494"><ele>583.4285714285713</ele><time>2026-04-25T15:20:21.915Z</time></trkpt><trkpt lat="40.141635" lon="15.22502"><ele>584.1428571428571</ele><time>2026-04-25T15:20:22.912Z</time></trkpt><trkpt lat="40.1415933" lon="15.2250983"><ele>584.8571428571429</ele><time>2026-04-25T15:20:23.915Z</time></trkpt><trkpt lat="40.1415633" lon="15.2251783"><ele>585.5714285714287</ele><time>2026-04-25T15:20:24.915Z</time></trkpt><trkpt lat="40.1415567" lon="15.2252633"><ele>586.2857142857143</ele><time>2026-04-25T15:20:25.974Z</time></trkpt><trkpt lat="40.1415633" lon="15.2253583"><ele>587.0</ele><time>2026-04-25T15:20:26.913Z</time></trkpt><trkpt lat="40.1415617" lon="15.2254583"><ele>587.0</ele><time>2026-04-25T15:20:27.914Z</time></trkpt><trkpt lat="40.141555" lon="15.225555"><ele>587.0</ele><time>2026-04-25T15:20:28.916Z</time></trkpt><trkpt lat="40.1415367" lon="15.2256483"><ele>587.0</ele><time>2026-04-25T15:20:29.916Z</time></trkpt><trkpt lat="40.1415233" lon="15.225745"><ele>587.0</ele><time>2026-04-25T15:20:30.909Z</time></trkpt><trkpt lat="40.14152" lon="15.2258567"><ele>587.0</ele><time>2026-04-25T15:20:31.977Z</time></trkpt><trkpt lat="40.1415283" lon="15.2259717"><ele>587.0</ele><time>2026-04-25T15:20:32.908Z</time></trkpt><trkpt lat="40.14154" lon="15.226105"><ele>587.0</ele><time>2026-04-25T15:20:33.907Z</time></trkpt><trkpt lat="40.1415483" lon="15.2262333"><ele>587.0</ele><time>2026-04-25T15:20:34.91Z</time></trkpt><trkpt lat="40.141555" lon="15.2263517"><ele>587.0</ele><time>2026-04-25T15:20:35.909Z</time></trkpt><trkpt lat="40.1415483" lon="15.2264617"><ele>587.0</ele><time>2026-04-25T15:20:36.916Z</time></trkpt><trkpt lat="40.1415283" lon="15.22656"><ele>587.0</ele><time>2026-04-25T15:20:37.959Z</time></trkpt><trkpt lat="40.1415" lon="15.226645"><ele>587.0</ele><time>2026-04-25T15:20:38.911Z</time></trkpt><trkpt lat="40.1414683" lon="15.226785"><ele>585.0</ele><time>2026-04-25T15:20:40.916Z</time></trkpt><trkpt lat="40.1414883" lon="15.2269317"><ele>583.0</ele><time>2026-04-25T15:20:42.914Z</time></trkpt><trkpt lat="40.14151" lon="15.227025"><ele>581.0</ele><time>2026-04-25T15:20:43.964Z</time></trkpt><trkpt lat="40.141525" lon="15.22713"><ele>579.0</ele><time>2026-04-25T15:20:44.91Z</time></trkpt><trkpt lat="40.1415367" lon="15.2272383"><ele>577.0</ele><time>2026-04-25T15:20:45.924Z</time></trkpt><trkpt lat="40.1415467" lon="15.2273467"><ele>575.0</ele><time>2026-04-25T15:20:46.915Z</time></trkpt><trkpt lat="40.141555" lon="15.22745"><ele>575.0</ele><time>2026-04-25T15:20:47.915Z</time></trkpt><trkpt lat="40.1415667" lon="15.227545"><ele>575.0</ele><time>2026-04-25T15:20:48.91Z</time></trkpt><trkpt lat="40.14159" lon="15.2276267"><ele>575.0</ele><time>2026-04-25T15:20:49.966Z</time></trkpt><trkpt lat="40.1416133" lon="15.227705"><ele>575.0</ele><time>2026-04-25T15:20:50.909Z</time></trkpt><trkpt lat="40.1416267" lon="15.2277917"><ele>575.0</ele><time>2026-04-25T15:20:51.916Z</time></trkpt><trkpt lat="40.1416183" lon="15.2279483"><ele>575.0</ele><time>2026-04-25T15:20:53.913Z</time></trkpt><trkpt lat="40.1416117" lon="15.2280383"><ele>575.0</ele><time>2026-04-25T15:20:54.916Z</time></trkpt><trkpt lat="40.1416117" lon="15.228135"><ele>575.0</ele><time>2026-04-25T15:20:55.976Z</time></trkpt><trkpt lat="40.14161" lon="15.2282417"><ele>575.0</ele><time>2026-04-25T15:20:56.906Z</time></trkpt><trkpt lat="40.141605" lon="15.2283533"><ele>575.0</ele><time>2026-04-25T15:20:57.911Z</time></trkpt><trkpt lat="40.141595" lon="15.228465"><ele>575.0</ele><time>2026-04-25T15:20:58.91Z</time></trkpt><trkpt lat="40.1415733" lon="15.2286017"><ele>575.0</ele><time>2026-04-25T15:20:59.923Z</time></trkpt><trkpt lat="40.14155" lon="15.228735"><ele>569.8333333333333</ele><time>2026-04-25T15:21:00.915Z</time></trkpt><trkpt lat="40.141515" lon="15.22886"><ele>564.6666666666666</ele><time>2026-04-25T15:21:01.974Z</time></trkpt><trkpt lat="40.14148" lon="15.228965"><ele>559.5</ele><time>2026-04-25T15:21:02.907Z</time></trkpt><trkpt lat="40.1414567" lon="15.22911"><ele>554.3333333333334</ele><time>2026-04-25T15:21:04.906Z</time></trkpt><trkpt lat="40.1414517" lon="15.2291933"><ele>549.1666666666667</ele><time>2026-04-25T15:21:05.912Z</time></trkpt><trkpt lat="40.1414433" lon="15.229285"><ele>544.0</ele><time>2026-04-25T15:21:06.91Z</time></trkpt><trkpt lat="40.1414267" lon="15.2293783"><ele>543.8</ele><time>2026-04-25T15:21:07.968Z</time></trkpt><trkpt lat="40.1414083" lon="15.22949"><ele>543.5999999999999</ele><time>2026-04-25T15:21:08.912Z</time></trkpt><trkpt lat="40.14139" lon="15.2296183"><ele>543.4</ele><time>2026-04-25T15:21:09.909Z</time></trkpt><trkpt lat="40.1413733" lon="15.229765"><ele>543.1999999999999</ele><time>2026-04-25T15:21:10.918Z</time></trkpt><trkpt lat="40.141355" lon="15.2299117"><ele>543.0</ele><time>2026-04-25T15:21:11.91Z</time></trkpt><trkpt lat="40.1413383" lon="15.23005"><ele>544.6666666666666</ele><time>2026-04-25T15:21:12.907Z</time></trkpt><trkpt lat="40.14133" lon="15.23018"><ele>546.3333333333334</ele><time>2026-04-25T15:21:13.959Z</time></trkpt><trkpt lat="40.1413383" lon="15.230295"><ele>548.0</ele><time>2026-04-25T15:21:14.911Z</time></trkpt><trkpt lat="40.1413533" lon="15.2303983"><ele>549.6666666666667</ele><time>2026-04-25T15:21:15.913Z</time></trkpt><trkpt lat="40.1413683" lon="15.2305133"><ele>551.3333333333334</ele><time>2026-04-25T15:21:16.911Z</time></trkpt><trkpt lat="40.1413883" lon="15.2306283"><ele>553.0</ele><time>2026-04-25T15:21:17.916Z</time></trkpt><trkpt lat="40.141405" lon="15.2307467"><ele>554.6666666666667</ele><time>2026-04-25T15:21:18.919Z</time></trkpt><trkpt lat="40.141425" lon="15.2308583"><ele>556.3333333333334</ele><time>2026-04-25T15:21:19.96Z</time></trkpt><trkpt lat="40.1414517" lon="15.2309633"><ele>558.0</ele><time>2026-04-25T15:21:20.909Z</time></trkpt><trkpt lat="40.1414817" lon="15.23107"><ele>559.6666666666666</ele><time>2026-04-25T15:21:21.908Z</time></trkpt><trkpt lat="40.1415133" lon="15.231165"><ele>561.3333333333333</ele><time>2026-04-25T15:21:22.909Z</time></trkpt><trkpt lat="40.14155" lon="15.23126"><ele>563.0</ele><time>2026-04-25T15:21:23.912Z</time></trkpt><trkpt lat="40.141595" lon="15.23136"><ele>566.6666666666666</ele><time>2026-04-25T15:21:24.912Z</time></trkpt><trkpt lat="40.141645" lon="15.2314533"><ele>570.3333333333333</ele><time>2026-04-25T15:21:25.98Z</time></trkpt><trkpt lat="40.1416983" lon="15.2315383"><ele>574.0</ele><time>2026-04-25T15:21:26.906Z</time></trkpt><trkpt lat="40.14175" lon="15.2316133"><ele>577.6666666666666</ele><time>2026-04-25T15:21:27.911Z</time></trkpt><trkpt lat="40.141805" lon="15.231675"><ele>581.3333333333334</ele><time>2026-04-25T15:21:28.913Z</time></trkpt><trkpt lat="40.1418633" lon="15.23172"><ele>585.0</ele><time>2026-04-25T15:21:29.914Z</time></trkpt><trkpt lat="40.1419317" lon="15.2317567"><ele>586.5</ele><time>2026-04-25T15:21:30.915Z</time></trkpt><trkpt lat="40.1420167" lon="15.23178"><ele>588.0</ele><time>2026-04-25T15:21:31.978Z</time></trkpt><trkpt lat="40.1421117" lon="15.23181"><ele>589.5</ele><time>2026-04-25T15:21:32.908Z</time></trkpt><trkpt lat="40.1422" lon="15.2318483"><ele>591.0</ele><time>2026-04-25T15:21:33.912Z</time></trkpt><trkpt lat="40.1422833" lon="15.2318983"><ele>592.5</ele><time>2026-04-25T15:21:34.914Z</time></trkpt><trkpt lat="40.142335" lon="15.2319483"><ele>594.0</ele><time>2026-04-25T15:21:35.909Z</time></trkpt><trkpt lat="40.1424167" lon="15.23207"><ele>596.6666666666666</ele><time>2026-04-25T15:21:37.959Z</time></trkpt><trkpt lat="40.1424467" lon="15.232145"><ele>599.3333333333334</ele><time>2026-04-25T15:21:38.909Z</time></trkpt><trkpt lat="40.1424667" lon="15.2322383"><ele>602.0</ele><time>2026-04-25T15:21:39.911Z</time></trkpt><trkpt lat="40.14249" lon="15.23234"><ele>604.6666666666667</ele><time>2026-04-25T15:21:40.91Z</time></trkpt><trkpt lat="40.1425117" lon="15.2324333"><ele>607.3333333333334</ele><time>2026-04-25T15:21:41.922Z</time></trkpt><trkpt lat="40.1425367" lon="15.232515"><ele>610.0</ele><time>2026-04-25T15:21:42.909Z</time></trkpt><trkpt lat="40.1425583" lon="15.232645"><ele>610.3333333333334</ele><time>2026-04-25T15:21:44.912Z</time></trkpt><trkpt lat="40.1425517" lon="15.2327683"><ele>610.6666666666667</ele><time>2026-04-25T15:21:46.916Z</time></trkpt><trkpt lat="40.1425417" lon="15.2328767"><ele>611.0</ele><time>2026-04-25T15:21:48.909Z</time></trkpt><trkpt lat="40.1425117" lon="15.2329783"><ele>611.3333333333334</ele><time>2026-04-25T15:21:50.913Z</time></trkpt><trkpt lat="40.1424667" lon="15.2330733"><ele>611.6666666666666</ele><time>2026-04-25T15:21:52.91Z</time></trkpt><trkpt lat="40.1424267" lon="15.233165"><ele>612.0</ele><time>2026-04-25T15:21:54.91Z</time></trkpt><trkpt lat="40.1423783" lon="15.2333"><ele>610.6</ele><time>2026-04-25T15:21:56.913Z</time></trkpt><trkpt lat="40.1423467" lon="15.2333717"><ele>609.2</ele><time>2026-04-25T15:21:57.905Z</time></trkpt><trkpt lat="40.1423033" lon="15.2335183"><ele>607.8</ele><time>2026-04-25T15:21:59.912Z</time></trkpt><trkpt lat="40.1422967" lon="15.2336017"><ele>606.4</ele><time>2026-04-25T15:22:00.915Z</time></trkpt><trkpt lat="40.1422933" lon="15.2337567"><ele>605.0</ele><time>2026-04-25T15:22:02.912Z</time></trkpt><trkpt lat="40.1422567" lon="15.2338883"><ele>605.0</ele><time>2026-04-25T15:22:04.911Z</time></trkpt><trkpt lat="40.1421833" lon="15.2339683"><ele>605.0</ele><time>2026-04-25T15:22:06.915Z</time></trkpt><trkpt lat="40.1421033" lon="15.2340467"><ele>605.0</ele><time>2026-04-25T15:22:08.915Z</time></trkpt><trkpt lat="40.1420567" lon="15.2341067"><ele>605.0</ele><time>2026-04-25T15:22:09.911Z</time></trkpt><trkpt lat="40.1420133" lon="15.23417"><ele>605.0</ele><time>2026-04-25T15:22:10.908Z</time></trkpt><trkpt lat="40.1419667" lon="15.2342433"><ele>605.0</ele><time>2026-04-25T15:22:11.908Z</time></trkpt><trkpt lat="40.1419167" lon="15.2343233"><ele>609.3333333333333</ele><time>2026-04-25T15:22:12.91Z</time></trkpt><trkpt lat="40.141865" lon="15.2344033"><ele>613.6666666666666</ele><time>2026-04-25T15:22:13.966Z</time></trkpt><trkpt lat="40.14181" lon="15.2344867"><ele>618.0</ele><time>2026-04-25T15:22:14.909Z</time></trkpt><trkpt lat="40.14176" lon="15.2345617"><ele>622.3333333333334</ele><time>2026-04-25T15:22:15.908Z</time></trkpt><trkpt lat="40.1417067" lon="15.2346333"><ele>626.6666666666667</ele><time>2026-04-25T15:22:16.909Z</time></trkpt><trkpt lat="40.1416517" lon="15.2347033"><ele>631.0</ele><time>2026-04-25T15:22:17.914Z</time></trkpt><trkpt lat="40.14159" lon="15.2347683"><ele>633.5</ele><time>2026-04-25T15:22:18.916Z</time></trkpt><trkpt lat="40.141525" lon="15.23483"><ele>636.0</ele><time>2026-04-25T15:22:19.956Z</time></trkpt><trkpt lat="40.1414667" lon="15.234895"><ele>638.5</ele><time>2026-04-25T15:22:20.911Z</time></trkpt><trkpt lat="40.1414167" lon="15.2349533"><ele>641.0</ele><time>2026-04-25T15:22:21.913Z</time></trkpt><trkpt lat="40.141335" lon="15.23506"><ele>643.5</ele><time>2026-04-25T15:22:23.913Z</time></trkpt><trkpt lat="40.1412917" lon="15.23517"><ele>646.0</ele><time>2026-04-25T15:22:25.976Z</time></trkpt><trkpt lat="40.14131" lon="15.23526"><ele>646.0</ele><time>2026-04-25T15:22:27.91Z</time></trkpt><trkpt lat="40.141365" lon="15.235325"><ele>646.0</ele><time>2026-04-25T15:22:29.914Z</time></trkpt><trkpt lat="40.1414217" lon="15.2354383"><ele>646.0</ele><time>2026-04-25T15:22:31.978Z</time></trkpt><trkpt lat="40.1415083" lon="15.23561"><ele>646.0</ele><time>2026-04-25T15:22:33.911Z</time></trkpt><trkpt lat="40.14151" lon="15.2357783"><ele>647.1999999999999</ele><time>2026-04-25T15:22:35.913Z</time></trkpt><trkpt lat="40.1414917" lon="15.2359167"><ele>648.4</ele><time>2026-04-25T15:22:37.959Z</time></trkpt><trkpt lat="40.1414883" lon="15.2360283"><ele>649.6</ele><time>2026-04-25T15:22:39.913Z</time></trkpt><trkpt lat="40.1415367" lon="15.2361317"><ele>650.8</ele><time>2026-04-25T15:22:41.909Z</time></trkpt><trkpt lat="40.1415933" lon="15.2361883"><ele>652.0</ele><time>2026-04-25T15:22:42.912Z</time></trkpt><trkpt lat="40.1417083" lon="15.2362717"><ele>652.0</ele><time>2026-04-25T15:22:43.96Z</time></trkpt><trkpt lat="40.1418" lon="15.23636"><ele>652.0</ele><time>2026-04-25T15:22:44.909Z</time></trkpt><trkpt lat="40.1418867" lon="15.236445"><ele>652.0</ele><time>2026-04-25T15:22:45.913Z</time></trkpt><trkpt lat="40.141965" lon="15.23653"><ele>652.0</ele><time>2026-04-25T15:22:46.912Z</time></trkpt><trkpt lat="40.1420467" lon="15.2366133"><ele>652.0</ele><time>2026-04-25T15:22:47.916Z</time></trkpt><trkpt lat="40.1421233" lon="15.2367"><ele>653.4000000000001</ele><time>2026-04-25T15:22:48.906Z</time></trkpt><trkpt lat="40.1421983" lon="15.236785"><ele>654.8000000000001</ele><time>2026-04-25T15:22:49.961Z</time></trkpt><trkpt lat="40.1422817" lon="15.2368717"><ele>656.2</ele><time>2026-04-25T15:22:50.91Z</time></trkpt><trkpt lat="40.142365" lon="15.2369617"><ele>657.6</ele><time>2026-04-25T15:22:51.909Z</time></trkpt><trkpt lat="40.1424433" lon="15.23705"><ele>659.0</ele><time>2026-04-25T15:22:52.905Z</time></trkpt><trkpt lat="40.1425217" lon="15.2371367"><ele>660.2</ele><time>2026-04-25T15:22:53.905Z</time></trkpt><trkpt lat="40.1425933" lon="15.237225"><ele>661.4000000000001</ele><time>2026-04-25T15:22:54.908Z</time></trkpt><trkpt lat="40.1426683" lon="15.2373133"><ele>662.6</ele><time>2026-04-25T15:22:55.978Z</time></trkpt><trkpt lat="40.1427417" lon="15.2374033"><ele>663.8</ele><time>2026-04-25T15:22:56.908Z</time></trkpt><trkpt lat="40.142815" lon="15.2375"><ele>665.0</ele><time>2026-04-25T15:22:57.906Z</time></trkpt><trkpt lat="40.1428817" lon="15.2375983"><ele>665.6</ele><time>2026-04-25T15:22:58.907Z</time></trkpt><trkpt lat="40.1429417" lon="15.23771"><ele>666.2</ele><time>2026-04-25T15:22:59.91Z</time></trkpt><trkpt lat="40.143" lon="15.237825"><ele>666.8</ele><time>2026-04-25T15:23:00.909Z</time></trkpt><trkpt lat="40.14306" lon="15.23794"><ele>667.4</ele><time>2026-04-25T15:23:01.973Z</time></trkpt><trkpt lat="40.1431233" lon="15.2380467"><ele>668.0</ele><time>2026-04-25T15:23:02.904Z</time></trkpt><trkpt lat="40.1431867" lon="15.23815"><ele>670.0</ele><time>2026-04-25T15:23:03.909Z</time></trkpt><trkpt lat="40.1432517" lon="15.2382533"><ele>672.0</ele><time>2026-04-25T15:23:04.908Z</time></trkpt><trkpt lat="40.14331" lon="15.2383483"><ele>674.0</ele><time>2026-04-25T15:23:05.91Z</time></trkpt><trkpt lat="40.14337" lon="15.238425"><ele>676.0</ele><time>2026-04-25T15:23:06.912Z</time></trkpt><trkpt lat="40.1434267" lon="15.238485"><ele>678.0</ele><time>2026-04-25T15:23:07.959Z</time></trkpt><trkpt lat="40.1434917" lon="15.238535"><ele>680.0</ele><time>2026-04-25T15:23:08.909Z</time></trkpt><trkpt lat="40.143555" lon="15.23859"><ele>680.0</ele><time>2026-04-25T15:23:09.913Z</time></trkpt><trkpt lat="40.1436183" lon="15.23864"><ele>680.0</ele><time>2026-04-25T15:23:10.907Z</time></trkpt><trkpt lat="40.1436817" lon="15.2386783"><ele>680.0</ele><time>2026-04-25T15:23:11.915Z</time></trkpt><trkpt lat="40.143725" lon="15.2386133"><ele>680.0</ele><time>2026-04-25T15:23:15.917Z</time></trkpt><trkpt lat="40.143725" lon="15.2384683"><ele>680.0</ele><time>2026-04-25T15:23:17.919Z</time></trkpt><trkpt lat="40.1437533" lon="15.2383683"><ele>680.0</ele><time>2026-04-25T15:23:18.912Z</time></trkpt><trkpt lat="40.1437883" lon="15.2382817"><ele>680.0</ele><time>2026-04-25T15:23:19.953Z</time></trkpt><trkpt lat="40.1438383" lon="15.2382083"><ele>680.0</ele><time>2026-04-25T15:23:20.911Z</time></trkpt><trkpt lat="40.1439083" lon="15.2381133"><ele>680.0</ele><time>2026-04-25T15:23:21.913Z</time></trkpt><trkpt lat="40.1439783" lon="15.238025"><ele>680.0</ele><time>2026-04-25T15:23:22.911Z</time></trkpt><trkpt lat="40.1440417" lon="15.2379233"><ele>680.0</ele><time>2026-04-25T15:23:23.915Z</time></trkpt><trkpt lat="40.144105" lon="15.23783"><ele>678.8</ele><time>2026-04-25T15:23:24.914Z</time></trkpt><trkpt lat="40.1441617" lon="15.2377267"><ele>677.6</ele><time>2026-04-25T15:23:25.977Z</time></trkpt><trkpt lat="40.1442117" lon="15.237605"><ele>676.4000000000001</ele><time>2026-04-25T15:23:26.911Z</time></trkpt><trkpt lat="40.1442517" lon="15.2374767"><ele>675.2</ele><time>2026-04-25T15:23:27.913Z</time></trkpt><trkpt lat="40.1442683" lon="15.2373317"><ele>674.0</ele><time>2026-04-25T15:23:28.91Z</time></trkpt><trkpt lat="40.144275" lon="15.2371933"><ele>673.1666666666666</ele><time>2026-04-25T15:23:29.913Z</time></trkpt><trkpt lat="40.1442933" lon="15.2370683"><ele>672.3333333333333</ele><time>2026-04-25T15:23:30.917Z</time></trkpt><trkpt lat="40.144325" lon="15.2369767"><ele>671.5</ele><time>2026-04-25T15:23:31.974Z</time></trkpt><trkpt lat="40.1444383" lon="15.23693"><ele>670.6666666666666</ele><time>2026-04-25T15:23:33.917Z</time></trkpt><trkpt lat="40.1445033" lon="15.2369167"><ele>669.8333333333334</ele><time>2026-04-25T15:23:34.913Z</time></trkpt><trkpt lat="40.1445683" lon="15.236895"><ele>669.0</ele><time>2026-04-25T15:23:35.909Z</time></trkpt><trkpt lat="40.1446767" lon="15.2368267"><ele>669.0</ele><time>2026-04-25T15:23:37.957Z</time></trkpt><trkpt lat="40.1447283" lon="15.2367783"><ele>669.0</ele><time>2026-04-25T15:23:38.907Z</time></trkpt><trkpt lat="40.1447817" lon="15.2367183"><ele>669.0</ele><time>2026-04-25T15:23:39.916Z</time></trkpt><trkpt lat="40.1448433" lon="15.2366733"><ele>669.0</ele><time>2026-04-25T15:23:40.909Z</time></trkpt><trkpt lat="40.1449117" lon="15.236625"><ele>669.0</ele><time>2026-04-25T15:23:41.916Z</time></trkpt><trkpt lat="40.1449867" lon="15.2365783"><ele>669.0</ele><time>2026-04-25T15:23:42.915Z</time></trkpt><trkpt lat="40.14506" lon="15.2365083"><ele>669.0</ele><time>2026-04-25T15:23:43.96Z</time></trkpt><trkpt lat="40.1451283" lon="15.23642"><ele>669.0</ele><time>2026-04-25T15:23:44.906Z</time></trkpt><trkpt lat="40.1451917" lon="15.2363317"><ele>669.0</ele><time>2026-04-25T15:23:45.91Z</time></trkpt><trkpt lat="40.1452683" lon="15.2362417"><ele>669.0</ele><time>2026-04-25T15:23:46.911Z</time></trkpt><trkpt lat="40.1453467" lon="15.23616"><ele>669.0</ele><time>2026-04-25T15:23:47.911Z</time></trkpt><trkpt lat="40.1454233" lon="15.2360967"><ele>669.0</ele><time>2026-04-25T15:23:48.911Z</time></trkpt><trkpt lat="40.145505" lon="15.2360517"><ele>669.0</ele><time>2026-04-25T15:23:49.96Z</time></trkpt><trkpt lat="40.145595" lon="15.2360283"><ele>669.0</ele><time>2026-04-25T15:23:50.909Z</time></trkpt><trkpt lat="40.14569" lon="15.2360017"><ele>669.0</ele><time>2026-04-25T15:23:51.908Z</time></trkpt><trkpt lat="40.1457933" lon="15.2359683"><ele>669.0</ele><time>2026-04-25T15:23:52.914Z</time></trkpt><trkpt lat="40.1458983" lon="15.2359283"><ele>667.6</ele><time>2026-04-25T15:23:53.912Z</time></trkpt><trkpt lat="40.1459967" lon="15.2358867"><ele>666.2</ele><time>2026-04-25T15:23:54.916Z</time></trkpt><trkpt lat="40.146095" lon="15.235835"><ele>664.8000000000001</ele><time>2026-04-25T15:23:55.976Z</time></trkpt><trkpt lat="40.146195" lon="15.2357567"><ele>663.4000000000001</ele><time>2026-04-25T15:23:56.91Z</time></trkpt><trkpt lat="40.1462867" lon="15.2356767"><ele>662.0</ele><time>2026-04-25T15:23:57.912Z</time></trkpt><trkpt lat="40.14637" lon="15.2356083"><ele>662.0</ele><time>2026-04-25T15:23:58.908Z</time></trkpt><trkpt lat="40.1464533" lon="15.2355617"><ele>662.0</ele><time>2026-04-25T15:23:59.915Z</time></trkpt><trkpt lat="40.1465283" lon="15.235505"><ele>662.0</ele><time>2026-04-25T15:24:00.91Z</time></trkpt><trkpt lat="40.14661" lon="15.2354383"><ele>662.0</ele><time>2026-04-25T15:24:01.978Z</time></trkpt><trkpt lat="40.1466867" lon="15.235365"><ele>662.0</ele><time>2026-04-25T15:24:02.91Z</time></trkpt><trkpt lat="40.1467617" lon="15.2352867"><ele>663.4000000000001</ele><time>2026-04-25T15:24:03.909Z</time></trkpt><trkpt lat="40.1468367" lon="15.2352033"><ele>664.8000000000001</ele><time>2026-04-25T15:24:04.91Z</time></trkpt><trkpt lat="40.1469167" lon="15.2351117"><ele>666.2</ele><time>2026-04-25T15:24:05.914Z</time></trkpt><trkpt lat="40.147" lon="15.2350133"><ele>667.6</ele><time>2026-04-25T15:24:06.913Z</time></trkpt><trkpt lat="40.1470867" lon="15.2349017"><ele>669.0</ele><time>2026-04-25T15:24:07.958Z</time></trkpt><trkpt lat="40.14717" lon="15.2347867"><ele>669.0</ele><time>2026-04-25T15:24:08.907Z</time></trkpt><trkpt lat="40.147245" lon="15.2346717"><ele>669.0</ele><time>2026-04-25T15:24:09.913Z</time></trkpt><trkpt lat="40.1473033" lon="15.2345617"><ele>669.0</ele><time>2026-04-25T15:24:10.908Z</time></trkpt><trkpt lat="40.14734" lon="15.23443"><ele>669.0</ele><time>2026-04-25T15:24:11.908Z</time></trkpt><trkpt lat="40.1473467" lon="15.2342667"><ele>669.0</ele><time>2026-04-25T15:24:12.91Z</time></trkpt><trkpt lat="40.1473633" lon="15.2341067"><ele>669.0</ele><time>2026-04-25T15:24:13.956Z</time></trkpt><trkpt lat="40.1473733" lon="15.2339383"><ele>669.0</ele><time>2026-04-25T15:24:14.912Z</time></trkpt><trkpt lat="40.14739" lon="15.23378"><ele>669.0</ele><time>2026-04-25T15:24:15.908Z</time></trkpt><trkpt lat="40.147415" lon="15.2336333"><ele>672.2</ele><time>2026-04-25T15:24:16.907Z</time></trkpt><trkpt lat="40.1474317" lon="15.2335017"><ele>675.4000000000001</ele><time>2026-04-25T15:24:17.91Z</time></trkpt><trkpt lat="40.14745" lon="15.2333917"><ele>678.6</ele><time>2026-04-25T15:24:18.912Z</time></trkpt><trkpt lat="40.1474783" lon="15.2332783"><ele>681.8</ele><time>2026-04-25T15:24:19.954Z</time></trkpt><trkpt lat="40.1475133" lon="15.233155"><ele>685.0</ele><time>2026-04-25T15:24:20.91Z</time></trkpt><trkpt lat="40.1475467" lon="15.2330333"><ele>685.0</ele><time>2026-04-25T15:24:21.91Z</time></trkpt><trkpt lat="40.1475767" lon="15.2328917"><ele>685.0</ele><time>2026-04-25T15:24:22.912Z</time></trkpt><trkpt lat="40.1476" lon="15.2327367"><ele>685.0</ele><time>2026-04-25T15:24:23.911Z</time></trkpt><trkpt lat="40.147595" lon="15.2325733"><ele>685.0</ele><time>2026-04-25T15:24:24.911Z</time></trkpt><trkpt lat="40.1475567" lon="15.2324"><ele>681.5</ele><time>2026-04-25T15:24:25.971Z</time></trkpt><trkpt lat="40.1475217" lon="15.2322417"><ele>678.0</ele><time>2026-04-25T15:24:26.908Z</time></trkpt><trkpt lat="40.1475133" lon="15.2320833"><ele>674.5</ele><time>2026-04-25T15:24:27.917Z</time></trkpt><trkpt lat="40.1474867" lon="15.2319433"><ele>671.0</ele><time>2026-04-25T15:24:28.913Z</time></trkpt><trkpt lat="40.1474667" lon="15.231815"><ele>671.0</ele><time>2026-04-25T15:24:29.918Z</time></trkpt><trkpt lat="40.147455" lon="15.2316917"><ele>671.0</ele><time>2026-04-25T15:24:30.91Z</time></trkpt><trkpt lat="40.1474317" lon="15.2315817"><ele>671.0</ele><time>2026-04-25T15:24:31.981Z</time></trkpt><trkpt lat="40.1473633" lon="15.2315"><ele>671.0</ele><time>2026-04-25T15:24:32.911Z</time></trkpt><trkpt lat="40.1472783" lon="15.2314267"><ele>671.0</ele><time>2026-04-25T15:24:33.908Z</time></trkpt><trkpt lat="40.14719" lon="15.231395"><ele>667.0</ele><time>2026-04-25T15:24:34.91Z</time></trkpt><trkpt lat="40.1471083" lon="15.2313783"><ele>663.0</ele><time>2026-04-25T15:24:35.908Z</time></trkpt><trkpt lat="40.1470217" lon="15.2313183"><ele>659.0</ele><time>2026-04-25T15:24:37.957Z</time></trkpt><trkpt lat="40.147125" lon="15.23133"><ele>655.0</ele><time>2026-04-25T15:24:39.916Z</time></trkpt><trkpt lat="40.1472767" lon="15.2313217"><ele>651.0</ele><time>2026-04-25T15:24:41.909Z</time></trkpt><trkpt lat="40.1473967" lon="15.2312883"><ele>649.0</ele><time>2026-04-25T15:24:42.914Z</time></trkpt><trkpt lat="40.1475283" lon="15.2311933"><ele>647.0</ele><time>2026-04-25T15:24:43.953Z</time></trkpt><trkpt lat="40.1476483" lon="15.2311233"><ele>645.0</ele><time>2026-04-25T15:24:44.909Z</time></trkpt><trkpt lat="40.1477517" lon="15.2310383"><ele>643.0</ele><time>2026-04-25T15:24:45.914Z</time></trkpt><trkpt lat="40.1478167" lon="15.2310233"><ele>643.0</ele><time>2026-04-25T15:24:46.911Z</time></trkpt><trkpt lat="40.147885" lon="15.231015"><ele>643.0</ele><time>2026-04-25T15:24:47.919Z</time></trkpt><trkpt lat="40.1479533" lon="15.2310167"><ele>643.0</ele><time>2026-04-25T15:24:48.911Z</time></trkpt><trkpt lat="40.14802" lon="15.2310017"><ele>643.0</ele><time>2026-04-25T15:24:49.959Z</time></trkpt><trkpt lat="40.14808" lon="15.230965"><ele>643.0</ele><time>2026-04-25T15:24:50.908Z</time></trkpt><trkpt lat="40.148115" lon="15.2308583"><ele>643.0</ele><time>2026-04-25T15:24:51.915Z</time></trkpt><trkpt lat="40.1481367" lon="15.2307617"><ele>643.0</ele><time>2026-04-25T15:24:52.91Z</time></trkpt><trkpt lat="40.14813" lon="15.2306633"><ele>638.1666666666667</ele><time>2026-04-25T15:24:53.914Z</time></trkpt><trkpt lat="40.1480917" lon="15.2305867"><ele>633.3333333333334</ele><time>2026-04-25T15:24:54.915Z</time></trkpt><trkpt lat="40.1480267" lon="15.2305733"><ele>628.5</ele><time>2026-04-25T15:24:55.973Z</time></trkpt><trkpt lat="40.147965" lon="15.2304667"><ele>623.6666666666666</ele><time>2026-04-25T15:24:57.907Z</time></trkpt><trkpt lat="40.1479783" lon="15.230345"><ele>618.8333333333333</ele><time>2026-04-25T15:24:59.911Z</time></trkpt><trkpt lat="40.14801" lon="15.2302633"><ele>614.0</ele><time>2026-04-25T15:25:00.916Z</time></trkpt><trkpt lat="40.14809" lon="15.2301967"><ele>614.0</ele><time>2026-04-25T15:25:01.968Z</time></trkpt><trkpt lat="40.1481867" lon="15.2301767"><ele>614.0</ele><time>2026-04-25T15:25:02.907Z</time></trkpt><trkpt lat="40.1482983" lon="15.230205"><ele>614.0</ele><time>2026-04-25T15:25:03.91Z</time></trkpt><trkpt lat="40.14841" lon="15.23023"><ele>614.0</ele><time>2026-04-25T15:25:04.909Z</time></trkpt><trkpt lat="40.1485333" lon="15.230275"><ele>613.8</ele><time>2026-04-25T15:25:05.914Z</time></trkpt><trkpt lat="40.1486483" lon="15.2303167"><ele>613.5999999999999</ele><time>2026-04-25T15:25:06.908Z</time></trkpt><trkpt lat="40.1487417" lon="15.2303583"><ele>613.4</ele><time>2026-04-25T15:25:07.96Z</time></trkpt><trkpt lat="40.148795" lon="15.2304383"><ele>613.1999999999999</ele><time>2026-04-25T15:25:08.909Z</time></trkpt><trkpt lat="40.1488383" lon="15.230525"><ele>613.0</ele><time>2026-04-25T15:25:09.909Z</time></trkpt><trkpt lat="40.1488717" lon="15.230635"><ele>618.0</ele><time>2026-04-25T15:25:10.908Z</time></trkpt><trkpt lat="40.1489017" lon="15.2307633"><ele>623.0</ele><time>2026-04-25T15:25:11.916Z</time></trkpt><trkpt lat="40.1489317" lon="15.2309083"><ele>628.0</ele><time>2026-04-25T15:25:12.91Z</time></trkpt><trkpt lat="40.1489533" lon="15.231065"><ele>633.0</ele><time>2026-04-25T15:25:13.957Z</time></trkpt><trkpt lat="40.14896" lon="15.2312133"><ele>633.0</ele><time>2026-04-25T15:25:14.913Z</time></trkpt><trkpt lat="40.148955" lon="15.2313567"><ele>633.0</ele><time>2026-04-25T15:25:15.908Z</time></trkpt><trkpt lat="40.1489483" lon="15.2314983"><ele>633.0</ele><time>2026-04-25T15:25:16.908Z</time></trkpt><trkpt lat="40.14895" lon="15.2316317"><ele>633.0</ele><time>2026-04-25T15:25:17.906Z</time></trkpt><trkpt lat="40.148965" lon="15.231765"><ele>633.0</ele><time>2026-04-25T15:25:18.91Z</time></trkpt><trkpt lat="40.148975" lon="15.2318883"><ele>635.5999999999999</ele><time>2026-04-25T15:25:19.959Z</time></trkpt><trkpt lat="40.14901" lon="15.2320017"><ele>638.1999999999999</ele><time>2026-04-25T15:25:20.907Z</time></trkpt><trkpt lat="40.1490767" lon="15.2321083"><ele>640.8</ele><time>2026-04-25T15:25:21.907Z</time></trkpt><trkpt lat="40.1491517" lon="15.23221"><ele>643.4</ele><time>2026-04-25T15:25:22.91Z</time></trkpt><trkpt lat="40.1492283" lon="15.2322683"><ele>646.0</ele><time>2026-04-25T15:25:23.91Z</time></trkpt><trkpt lat="40.1492983" lon="15.232325"><ele>640.1999999999999</ele><time>2026-04-25T15:25:24.908Z</time></trkpt><trkpt lat="40.1493617" lon="15.2323883"><ele>634.4</ele><time>2026-04-25T15:25:25.975Z</time></trkpt><trkpt lat="40.1494133" lon="15.2324667"><ele>628.6</ele><time>2026-04-25T15:25:26.906Z</time></trkpt><trkpt lat="40.1494533" lon="15.2325517"><ele>622.8</ele><time>2026-04-25T15:25:27.909Z</time></trkpt><trkpt lat="40.1494867" lon="15.232705"><ele>617.0</ele><time>2026-04-25T15:25:29.909Z</time></trkpt><trkpt lat="40.1495517" lon="15.2328433"><ele>617.0</ele><time>2026-04-25T15:25:31.984Z</time></trkpt><trkpt lat="40.149625" lon="15.2328983"><ele>617.0</ele><time>2026-04-25T15:25:32.909Z</time></trkpt><trkpt lat="40.1497083" lon="15.2329617"><ele>617.0</ele><time>2026-04-25T15:25:33.911Z</time></trkpt><trkpt lat="40.1497983" lon="15.23303"><ele>617.0</ele><time>2026-04-25T15:25:34.91Z</time></trkpt><trkpt lat="40.149905" lon="15.2330967"><ele>617.0</ele><time>2026-04-25T15:25:35.91Z</time></trkpt><trkpt lat="40.150025" lon="15.2331667"><ele>614.5</ele><time>2026-04-25T15:25:36.914Z</time></trkpt><trkpt lat="40.1501683" lon="15.2332167"><ele>612.0</ele><time>2026-04-25T15:25:37.959Z</time></trkpt><trkpt lat="40.1502983" lon="15.2332617"><ele>609.5</ele><time>2026-04-25T15:25:38.907Z</time></trkpt><trkpt lat="40.1504167" lon="15.2333017"><ele>607.0</ele><time>2026-04-25T15:25:39.907Z</time></trkpt><trkpt lat="40.15052" lon="15.2333433"><ele>607.0</ele><time>2026-04-25T15:25:40.914Z</time></trkpt><trkpt lat="40.1506117" lon="15.2333967"><ele>607.0</ele><time>2026-04-25T15:25:41.912Z</time></trkpt><trkpt lat="40.1506817" lon="15.2334667"><ele>607.0</ele><time>2026-04-25T15:25:42.907Z</time></trkpt><trkpt lat="40.1507383" lon="15.2335333"><ele>607.0</ele><time>2026-04-25T15:25:43.969Z</time></trkpt><trkpt lat="40.1508033" lon="15.2336433"><ele>607.0</ele><time>2026-04-25T15:25:45.91Z</time></trkpt><trkpt lat="40.150865" lon="15.2336617"><ele>607.0</ele><time>2026-04-25T15:25:48.91Z</time></trkpt><trkpt lat="40.1507717" lon="15.233465"><ele>607.0</ele><time>2026-04-25T15:25:50.914Z</time></trkpt><trkpt lat="40.15074" lon="15.2333533"><ele>607.0</ele><time>2026-04-25T15:25:51.911Z</time></trkpt><trkpt lat="40.1506833" lon="15.2332367"><ele>607.0</ele><time>2026-04-25T15:25:52.91Z</time></trkpt><trkpt lat="40.1506267" lon="15.2331167"><ele>607.0</ele><time>2026-04-25T15:25:53.909Z</time></trkpt><trkpt lat="40.1505633" lon="15.2329867"><ele>607.0</ele><time>2026-04-25T15:25:54.911Z</time></trkpt><trkpt lat="40.150475" lon="15.2328667"><ele>601.5</ele><time>2026-04-25T15:25:55.98Z</time></trkpt><trkpt lat="40.1503683" lon="15.23275"><ele>596.0</ele><time>2026-04-25T15:25:56.911Z</time></trkpt><trkpt lat="40.1502733" lon="15.23265"><ele>590.5</ele><time>2026-04-25T15:25:57.911Z</time></trkpt><trkpt lat="40.1501767" lon="15.2325633"><ele>585.0</ele><time>2026-04-25T15:25:58.913Z</time></trkpt><trkpt lat="40.1501083" lon="15.2325067"><ele>585.0</ele><time>2026-04-25T15:25:59.918Z</time></trkpt><trkpt lat="40.1500133" lon="15.2324883"><ele>585.0</ele><time>2026-04-25T15:26:01.973Z</time></trkpt><trkpt lat="40.1500367" lon="15.232575"><ele>585.0</ele><time>2026-04-25T15:26:03.909Z</time></trkpt><trkpt lat="40.1501767" lon="15.23272"><ele>585.0</ele><time>2026-04-25T15:26:04.912Z</time></trkpt><trkpt lat="40.15033" lon="15.2328817"><ele>585.0</ele><time>2026-04-25T15:26:05.913Z</time></trkpt><trkpt lat="40.150435" lon="15.2330017"><ele>585.0</ele><time>2026-04-25T15:26:06.911Z</time></trkpt><trkpt lat="40.150515" lon="15.23311"><ele>585.0</ele><time>2026-04-25T15:26:07.968Z</time></trkpt><trkpt lat="40.1505767" lon="15.233225"><ele>585.0</ele><time>2026-04-25T15:26:08.906Z</time></trkpt><trkpt lat="40.1506267" lon="15.23335"><ele>585.4</ele><time>2026-04-25T15:26:09.904Z</time></trkpt><trkpt lat="40.1506667" lon="15.23348"><ele>585.8</ele><time>2026-04-25T15:26:10.911Z</time></trkpt><trkpt lat="40.1507117" lon="15.2336"><ele>586.2</ele><time>2026-04-25T15:26:11.907Z</time></trkpt><trkpt lat="40.1507533" lon="15.2336967"><ele>586.6</ele><time>2026-04-25T15:26:12.91Z</time></trkpt><trkpt lat="40.1507533" lon="15.233785"><ele>587.0</ele><time>2026-04-25T15:26:14.908Z</time></trkpt><trkpt lat="40.1507267" lon="15.2339533"><ele>586.8000000000001</ele><time>2026-04-25T15:26:17.91Z</time></trkpt><trkpt lat="40.1506983" lon="15.234045"><ele>586.6</ele><time>2026-04-25T15:26:18.911Z</time></trkpt><trkpt lat="40.1506967" lon="15.2341967"><ele>586.4000000000001</ele><time>2026-04-25T15:26:19.951Z</time></trkpt><trkpt lat="40.1507017" lon="15.23434"><ele>586.2</ele><time>2026-04-25T15:26:20.908Z</time></trkpt><trkpt lat="40.1507117" lon="15.2344617"><ele>586.0</ele><time>2026-04-25T15:26:21.906Z</time></trkpt><trkpt lat="40.150715" lon="15.23456"><ele>586.0</ele><time>2026-04-25T15:26:22.91Z</time></trkpt><trkpt lat="40.150725" lon="15.2346967"><ele>586.0</ele><time>2026-04-25T15:26:24.91Z</time></trkpt><trkpt lat="40.1507333" lon="15.234795"><ele>586.0</ele><time>2026-04-25T15:26:26.912Z</time></trkpt><trkpt lat="40.1507" lon="15.2346067"><ele>586.0</ele><time>2026-04-25T15:26:30.912Z</time></trkpt><trkpt lat="40.1506867" lon="15.234485"><ele>586.0</ele><time>2026-04-25T15:26:31.973Z</time></trkpt><trkpt lat="40.1506783" lon="15.2344033"><ele>591.25</ele><time>2026-04-25T15:26:32.91Z</time></trkpt><trkpt lat="40.15065" lon="15.2342433"><ele>596.5</ele><time>2026-04-25T15:26:34.914Z</time></trkpt><trkpt lat="40.1506433" lon="15.2341"><ele>601.75</ele><time>2026-04-25T15:26:36.909Z</time></trkpt><trkpt lat="40.15064" lon="15.2339433"><ele>607.0</ele><time>2026-04-25T15:26:38.908Z</time></trkpt><trkpt lat="40.1506767" lon="15.233785"><ele>603.6666666666667</ele><time>2026-04-25T15:26:40.913Z</time></trkpt><trkpt lat="40.1507083" lon="15.2336983"><ele>600.3333333333334</ele><time>2026-04-25T15:26:41.913Z</time></trkpt><trkpt lat="40.1507567" lon="15.23362"><ele>597.0</ele><time>2026-04-25T15:26:42.911Z</time></trkpt><trkpt lat="40.1508117" lon="15.2335417"><ele>593.6666666666666</ele><time>2026-04-25T15:26:43.958Z</time></trkpt><trkpt lat="40.150875" lon="15.2334733"><ele>590.3333333333333</ele><time>2026-04-25T15:26:44.907Z</time></trkpt><trkpt lat="40.1509317" lon="15.2334183"><ele>587.0</ele><time>2026-04-25T15:26:45.907Z</time></trkpt><trkpt lat="40.1510017" lon="15.233365"><ele>587.0</ele><time>2026-04-25T15:26:47.908Z</time></trkpt><trkpt lat="40.1510433" lon="15.2332917"><ele>587.0</ele><time>2026-04-25T15:26:49.956Z</time></trkpt><trkpt lat="40.151085" lon="15.2331483"><ele>587.0</ele><time>2026-04-25T15:26:51.906Z</time></trkpt><trkpt lat="40.1511133" lon="15.2330633"><ele>587.0</ele><time>2026-04-25T15:26:52.907Z</time></trkpt><trkpt lat="40.1511067" lon="15.2329233"><ele>587.0</ele><time>2026-04-25T15:26:54.916Z</time></trkpt><trkpt lat="40.1510417" lon="15.2328167"><ele>583.8000000000001</ele><time>2026-04-25T15:26:56.908Z</time></trkpt><trkpt lat="40.151" lon="15.2327467"><ele>580.6</ele><time>2026-04-25T15:26:58.917Z</time></trkpt><trkpt lat="40.151065" lon="15.2326733"><ele>577.4000000000001</ele><time>2026-04-25T15:27:01.965Z</time></trkpt><trkpt lat="40.1511417" lon="15.2326967"><ele>574.2</ele><time>2026-04-25T15:27:02.905Z</time></trkpt><trkpt lat="40.15122" lon="15.2327417"><ele>571.0</ele><time>2026-04-25T15:27:03.903Z</time></trkpt><trkpt lat="40.1513817" lon="15.232945"><ele>571.0</ele><time>2026-04-25T15:27:04.915Z</time></trkpt><trkpt lat="40.1514433" lon="15.2330633"><ele>571.0</ele><time>2026-04-25T15:27:05.919Z</time></trkpt><trkpt lat="40.1515017" lon="15.2331883"><ele>571.0</ele><time>2026-04-25T15:27:06.91Z</time></trkpt><trkpt lat="40.1515433" lon="15.233305"><ele>571.0</ele><time>2026-04-25T15:27:07.958Z</time></trkpt><trkpt lat="40.1515817" lon="15.2334133"><ele>571.0</ele><time>2026-04-25T15:27:08.911Z</time></trkpt><trkpt lat="40.1516133" lon="15.23351"><ele>569.2</ele><time>2026-04-25T15:27:09.912Z</time></trkpt><trkpt lat="40.1517" lon="15.2334533"><ele>567.4000000000001</ele><time>2026-04-25T15:27:11.906Z</time></trkpt><trkpt lat="40.1516967" lon="15.2333367"><ele>565.6</ele><time>2026-04-25T15:27:13.963Z</time></trkpt><trkpt lat="40.151655" lon="15.2331567"><ele>563.8000000000001</ele><time>2026-04-25T15:27:15.91Z</time></trkpt><trkpt lat="40.1516167" lon="15.2330217"><ele>562.0</ele><time>2026-04-25T15:27:16.911Z</time></trkpt><trkpt lat="40.1515567" lon="15.2328583"><ele>564.25</ele><time>2026-04-25T15:27:17.908Z</time></trkpt><trkpt lat="40.151525" lon="15.2326883"><ele>566.5</ele><time>2026-04-25T15:27:18.916Z</time></trkpt><trkpt lat="40.1515" lon="15.232525"><ele>568.75</ele><time>2026-04-25T15:27:19.957Z</time></trkpt><trkpt lat="40.15147" lon="15.2323817"><ele>571.0</ele><time>2026-04-25T15:27:20.91Z</time></trkpt><trkpt lat="40.1514383" lon="15.232265"><ele>565.0</ele><time>2026-04-25T15:27:21.913Z</time></trkpt><trkpt lat="40.1513783" lon="15.2320833"><ele>559.0</ele><time>2026-04-25T15:27:23.91Z</time></trkpt><trkpt lat="40.1513167" lon="15.2319933"><ele>553.0</ele><time>2026-04-25T15:27:25.977Z</time></trkpt><trkpt lat="40.1512533" lon="15.2319867"><ele>547.0</ele><time>2026-04-25T15:27:27.913Z</time></trkpt><trkpt lat="40.151385" lon="15.2321483"><ele>547.0</ele><time>2026-04-25T15:27:31.968Z</time></trkpt><trkpt lat="40.1514383" lon="15.2322417"><ele>547.0</ele><time>2026-04-25T15:27:32.907Z</time></trkpt><trkpt lat="40.1515083" lon="15.2323733"><ele>547.0</ele><time>2026-04-25T15:27:33.913Z</time></trkpt><trkpt lat="40.1515667" lon="15.2325183"><ele>547.0</ele><time>2026-04-25T15:27:34.908Z</time></trkpt><trkpt lat="40.1516083" lon="15.2327867"><ele>548.0</ele><time>2026-04-25T15:27:35.91Z</time></trkpt><trkpt lat="40.1516483" lon="15.2329617"><ele>549.0</ele><time>2026-04-25T15:27:36.914Z</time></trkpt><trkpt lat="40.1516917" lon="15.23311"><ele>550.0</ele><time>2026-04-25T15:27:37.959Z</time></trkpt><trkpt lat="40.1517033" lon="15.2332083"><ele>551.0</ele><time>2026-04-25T15:27:38.91Z</time></trkpt><trkpt lat="40.1517283" lon="15.233355"><ele>553.2</ele><time>2026-04-25T15:27:40.909Z</time></trkpt><trkpt lat="40.1517767" lon="15.2334717"><ele>555.4000000000001</ele><time>2026-04-25T15:27:42.912Z</time></trkpt><trkpt lat="40.1518717" lon="15.2335783"><ele>557.6</ele><time>2026-04-25T15:27:44.904Z</time></trkpt><trkpt lat="40.1519317" lon="15.2336317"><ele>559.8000000000001</ele><time>2026-04-25T15:27:45.909Z</time></trkpt><trkpt lat="40.1519917" lon="15.233715"><ele>562.0</ele><time>2026-04-25T15:27:46.911Z</time></trkpt><trkpt lat="40.152045" lon="15.2337983"><ele>562.0</ele><time>2026-04-25T15:27:47.913Z</time></trkpt><trkpt lat="40.1521083" lon="15.2338817"><ele>562.0</ele><time>2026-04-25T15:27:48.911Z</time></trkpt><trkpt lat="40.152185" lon="15.233965"><ele>562.0</ele><time>2026-04-25T15:27:49.95Z</time></trkpt><trkpt lat="40.1522783" lon="15.2340533"><ele>562.0</ele><time>2026-04-25T15:27:50.907Z</time></trkpt><trkpt lat="40.15238" lon="15.23414"><ele>562.0</ele><time>2026-04-25T15:27:51.911Z</time></trkpt><trkpt lat="40.152485" lon="15.23422"><ele>557.75</ele><time>2026-04-25T15:27:52.908Z</time></trkpt><trkpt lat="40.152595" lon="15.2342917"><ele>553.5</ele><time>2026-04-25T15:27:53.91Z</time></trkpt><trkpt lat="40.1527083" lon="15.2343483"><ele>549.25</ele><time>2026-04-25T15:27:54.913Z</time></trkpt><trkpt lat="40.1528217" lon="15.2343917"><ele>545.0</ele><time>2026-04-25T15:27:55.973Z</time></trkpt><trkpt lat="40.1529233" lon="15.234425"><ele>545.0</ele><time>2026-04-25T15:27:56.908Z</time></trkpt><trkpt lat="40.1530233" lon="15.234465"><ele>545.0</ele><time>2026-04-25T15:27:57.911Z</time></trkpt><trkpt lat="40.1531333" lon="15.2345083"><ele>545.0</ele><time>2026-04-25T15:27:58.912Z</time></trkpt><trkpt lat="40.153245" lon="15.23456"><ele>545.0</ele><time>2026-04-25T15:27:59.911Z</time></trkpt><trkpt lat="40.1533533" lon="15.2346183"><ele>542.8</ele><time>2026-04-25T15:28:00.91Z</time></trkpt><trkpt lat="40.15346" lon="15.2346733"><ele>540.6</ele><time>2026-04-25T15:28:01.975Z</time></trkpt><trkpt lat="40.1535617" lon="15.2347233"><ele>538.4</ele><time>2026-04-25T15:28:02.911Z</time></trkpt><trkpt lat="40.153655" lon="15.234745"><ele>536.2</ele><time>2026-04-25T15:28:03.908Z</time></trkpt><trkpt lat="40.1537533" lon="15.2347517"><ele>534.0</ele><time>2026-04-25T15:28:04.911Z</time></trkpt><trkpt lat="40.15386" lon="15.2347467"><ele>534.0</ele><time>2026-04-25T15:28:05.906Z</time></trkpt><trkpt lat="40.1539667" lon="15.234745"><ele>534.0</ele><time>2026-04-25T15:28:06.914Z</time></trkpt><trkpt lat="40.1540833" lon="15.234745"><ele>534.0</ele><time>2026-04-25T15:28:07.959Z</time></trkpt><trkpt lat="40.15421" lon="15.2347583"><ele>534.0</ele><time>2026-04-25T15:28:08.914Z</time></trkpt><trkpt lat="40.1543333" lon="15.2347767"><ele>533.0</ele><time>2026-04-25T15:28:09.912Z</time></trkpt><trkpt lat="40.15445" lon="15.2348017"><ele>532.0</ele><time>2026-04-25T15:28:10.905Z</time></trkpt><trkpt lat="40.1545617" lon="15.2348183"><ele>531.0</ele><time>2026-04-25T15:28:11.917Z</time></trkpt><trkpt lat="40.1546583" lon="15.2348267"><ele>530.0</ele><time>2026-04-25T15:28:12.915Z</time></trkpt><trkpt lat="40.1547583" lon="15.2348233"><ele>529.0</ele><time>2026-04-25T15:28:13.954Z</time></trkpt><trkpt lat="40.15486" lon="15.234805"><ele>523.75</ele><time>2026-04-25T15:28:14.909Z</time></trkpt><trkpt lat="40.15496" lon="15.2347833"><ele>518.5</ele><time>2026-04-25T15:28:15.911Z</time></trkpt><trkpt lat="40.1550733" lon="15.2347567"><ele>513.25</ele><time>2026-04-25T15:28:16.918Z</time></trkpt><trkpt lat="40.15519" lon="15.234725"><ele>508.0</ele><time>2026-04-25T15:28:17.911Z</time></trkpt><trkpt lat="40.1553033" lon="15.2346867"><ele>508.0</ele><time>2026-04-25T15:28:18.911Z</time></trkpt><trkpt lat="40.1554183" lon="15.2346367"><ele>508.0</ele><time>2026-04-25T15:28:19.957Z</time></trkpt><trkpt lat="40.1555367" lon="15.234585"><ele>508.0</ele><time>2026-04-25T15:28:20.905Z</time></trkpt><trkpt lat="40.15564" lon="15.23453"><ele>508.0</ele><time>2026-04-25T15:28:21.911Z</time></trkpt><trkpt lat="40.155735" lon="15.2344917"><ele>507.79999999999995</ele><time>2026-04-25T15:28:22.912Z</time></trkpt><trkpt lat="40.1558317" lon="15.2344667"><ele>507.59999999999997</ele><time>2026-04-25T15:28:23.912Z</time></trkpt><trkpt lat="40.1559317" lon="15.2344467"><ele>507.40000000000003</ele><time>2026-04-25T15:28:24.911Z</time></trkpt><trkpt lat="40.1560267" lon="15.2344167"><ele>507.20000000000005</ele><time>2026-04-25T15:28:25.948Z</time></trkpt><trkpt lat="40.1561233" lon="15.2343733"><ele>507.0</ele><time>2026-04-25T15:28:26.909Z</time></trkpt><trkpt lat="40.1562083" lon="15.23431"><ele>507.0</ele><time>2026-04-25T15:28:27.91Z</time></trkpt><trkpt lat="40.156285" lon="15.2342217"><ele>507.00000000000006</ele><time>2026-04-25T15:28:28.909Z</time></trkpt><trkpt lat="40.1563483" lon="15.2341183"><ele>507.00000000000006</ele><time>2026-04-25T15:28:29.912Z</time></trkpt><trkpt lat="40.15641" lon="15.2340017"><ele>507.0</ele><time>2026-04-25T15:28:30.912Z</time></trkpt><trkpt lat="40.1564583" lon="15.233865"><ele>507.0</ele><time>2026-04-25T15:28:31.976Z</time></trkpt><trkpt lat="40.1565117" lon="15.2337433"><ele>502.5</ele><time>2026-04-25T15:28:32.909Z</time></trkpt><trkpt lat="40.156565" lon="15.2336383"><ele>498.0</ele><time>2026-04-25T15:28:33.906Z</time></trkpt><trkpt lat="40.1565967" lon="15.2335383"><ele>493.5</ele><time>2026-04-25T15:28:34.911Z</time></trkpt><trkpt lat="40.1566283" lon="15.23346"><ele>489.0</ele><time>2026-04-25T15:28:35.916Z</time></trkpt><trkpt lat="40.15666" lon="15.2333883"><ele>484.5</ele><time>2026-04-25T15:28:36.907Z</time></trkpt><trkpt lat="40.1566567" lon="15.2335133"><ele>480.0</ele><time>2026-04-25T15:28:39.906Z</time></trkpt><trkpt lat="40.156655" lon="15.2336483"><ele>480.0</ele><time>2026-04-25T15:28:41.909Z</time></trkpt><trkpt lat="40.1566583" lon="15.2337533"><ele>480.0</ele><time>2026-04-25T15:28:42.913Z</time></trkpt><trkpt lat="40.15667" lon="15.2338717"><ele>480.0</ele><time>2026-04-25T15:28:43.961Z</time></trkpt><trkpt lat="40.156675" lon="15.2339817"><ele>480.0</ele><time>2026-04-25T15:28:44.906Z</time></trkpt><trkpt lat="40.156695" lon="15.2340833"><ele>480.0</ele><time>2026-04-25T15:28:45.91Z</time></trkpt><trkpt lat="40.1567317" lon="15.2341783"><ele>480.0</ele><time>2026-04-25T15:28:46.91Z</time></trkpt><trkpt lat="40.15676" lon="15.2342633"><ele>480.57142857142856</ele><time>2026-04-25T15:28:47.911Z</time></trkpt><trkpt lat="40.15679" lon="15.23435"><ele>481.1428571428571</ele><time>2026-04-25T15:28:48.909Z</time></trkpt><trkpt lat="40.1567917" lon="15.2344417"><ele>481.71428571428567</ele><time>2026-04-25T15:28:49.955Z</time></trkpt><trkpt lat="40.156795" lon="15.2345333"><ele>482.2857142857143</ele><time>2026-04-25T15:28:50.905Z</time></trkpt><trkpt lat="40.1568" lon="15.2346267"><ele>482.8571428571428</ele><time>2026-04-25T15:28:51.91Z</time></trkpt><trkpt lat="40.156795" lon="15.2347267"><ele>483.4285714285714</ele><time>2026-04-25T15:28:52.914Z</time></trkpt><trkpt lat="40.1567733" lon="15.23483"><ele>484.0</ele><time>2026-04-25T15:28:53.909Z</time></trkpt><trkpt lat="40.1567183" lon="15.234935"><ele>481.6</ele><time>2026-04-25T15:28:54.906Z</time></trkpt><trkpt lat="40.1566667" lon="15.2350433"><ele>479.2</ele><time>2026-04-25T15:28:55.979Z</time></trkpt><trkpt lat="40.1565967" lon="15.2351417"><ele>476.80000000000007</ele><time>2026-04-25T15:28:56.909Z</time></trkpt><trkpt lat="40.1565033" lon="15.235225"><ele>474.40000000000003</ele><time>2026-04-25T15:28:57.911Z</time></trkpt><trkpt lat="40.1564183" lon="15.2353267"><ele>472.0</ele><time>2026-04-25T15:28:58.914Z</time></trkpt><trkpt lat="40.1563167" lon="15.235425"><ele>473.5</ele><time>2026-04-25T15:28:59.914Z</time></trkpt><trkpt lat="40.1562167" lon="15.2355317"><ele>475.0</ele><time>2026-04-25T15:29:00.908Z</time></trkpt><trkpt lat="40.1560883" lon="15.2356267"><ele>476.5</ele><time>2026-04-25T15:29:01.965Z</time></trkpt><trkpt lat="40.1559783" lon="15.235725"><ele>478.0</ele><time>2026-04-25T15:29:02.909Z</time></trkpt><trkpt lat="40.15588" lon="15.2358417"><ele>478.0</ele><time>2026-04-25T15:29:03.907Z</time></trkpt><trkpt lat="40.1557883" lon="15.2359517"><ele>477.99999999999994</ele><time>2026-04-25T15:29:04.909Z</time></trkpt><trkpt lat="40.1557083" lon="15.2360467"><ele>477.99999999999994</ele><time>2026-04-25T15:29:05.914Z</time></trkpt><trkpt lat="40.1556483" lon="15.2361267"><ele>478.0</ele><time>2026-04-25T15:29:06.911Z</time></trkpt><trkpt lat="40.1555933" lon="15.2362167"><ele>478.0</ele><time>2026-04-25T15:29:07.964Z</time></trkpt><trkpt lat="40.1555467" lon="15.2362933"><ele>478.59999999999997</ele><time>2026-04-25T15:29:08.911Z</time></trkpt><trkpt lat="40.1554917" lon="15.236385"><ele>479.19999999999993</ele><time>2026-04-25T15:29:09.909Z</time></trkpt><trkpt lat="40.1554417" lon="15.2364983"><ele>479.8</ele><time>2026-04-25T15:29:10.914Z</time></trkpt><trkpt lat="40.15542" lon="15.2366583"><ele>480.4</ele><time>2026-04-25T15:29:11.912Z</time></trkpt><trkpt lat="40.15536" lon="15.2367983"><ele>481.0</ele><time>2026-04-25T15:29:12.91Z</time></trkpt><trkpt lat="40.1553067" lon="15.2369217"><ele>481.0</ele><time>2026-04-25T15:29:13.956Z</time></trkpt><trkpt lat="40.1552583" lon="15.23704"><ele>481.0</ele><time>2026-04-25T15:29:14.913Z</time></trkpt><trkpt lat="40.1551983" lon="15.2371467"><ele>481.0</ele><time>2026-04-25T15:29:15.907Z</time></trkpt><trkpt lat="40.1551333" lon="15.2372583"><ele>481.0</ele><time>2026-04-25T15:29:16.914Z</time></trkpt><trkpt lat="40.1550783" lon="15.2373733"><ele>481.0</ele><time>2026-04-25T15:29:17.912Z</time></trkpt><trkpt lat="40.155025" lon="15.2374817"><ele>479.0</ele><time>2026-04-25T15:29:18.909Z</time></trkpt><trkpt lat="40.154975" lon="15.23759"><ele>477.0</ele><time>2026-04-25T15:29:19.958Z</time></trkpt><trkpt lat="40.1549317" lon="15.2376933"><ele>475.0</ele><time>2026-04-25T15:29:20.904Z</time></trkpt><trkpt lat="40.1549" lon="15.2378067"><ele>473.0</ele><time>2026-04-25T15:29:21.911Z</time></trkpt><trkpt lat="40.154885" lon="15.2379183"><ele>471.0</ele><time>2026-04-25T15:29:22.91Z</time></trkpt><trkpt lat="40.1550017" lon="15.2380583"><ele>469.1666666666667</ele><time>2026-04-25T15:29:23.91Z</time></trkpt><trkpt lat="40.1550533" lon="15.2381833"><ele>467.33333333333337</ele><time>2026-04-25T15:29:24.92Z</time></trkpt><trkpt lat="40.155085" lon="15.2383083"><ele>465.5</ele><time>2026-04-25T15:29:25.975Z</time></trkpt><trkpt lat="40.1551" lon="15.23842"><ele>463.6666666666667</ele><time>2026-04-25T15:29:26.905Z</time></trkpt><trkpt lat="40.15512" lon="15.238525"><ele>461.83333333333337</ele><time>2026-04-25T15:29:27.912Z</time></trkpt><trkpt lat="40.1551117" lon="15.2386133"><ele>460.0</ele><time>2026-04-25T15:29:28.912Z</time></trkpt><trkpt lat="40.1550667" lon="15.2387317"><ele>460.00000000000006</ele><time>2026-04-25T15:29:30.913Z</time></trkpt><trkpt lat="40.155" lon="15.2387717"><ele>460.0</ele><time>2026-04-25T15:29:32.91Z</time></trkpt><trkpt lat="40.1549317" lon="15.238755"><ele>460.0</ele><time>2026-04-25T15:29:34.91Z</time></trkpt><trkpt lat="40.155005" lon="15.2387517"><ele>460.0</ele><time>2026-04-25T15:29:52.917Z</time></trkpt><trkpt lat="40.155065" lon="15.2388217"><ele>460.00000000000006</ele><time>2026-04-25T15:29:58.908Z</time></trkpt><trkpt lat="40.1551083" lon="15.238895"><ele>460.0</ele><time>2026-04-25T15:30:00.917Z</time></trkpt><trkpt lat="40.1550733" lon="15.2390167"><ele>456.6</ele><time>2026-04-25T15:30:03.91Z</time></trkpt><trkpt lat="40.1549867" lon="15.2391183"><ele>453.2</ele><time>2026-04-25T15:30:05.912Z</time></trkpt><trkpt lat="40.1548933" lon="15.2391983"><ele>449.79999999999995</ele><time>2026-04-25T15:30:07.958Z</time></trkpt><trkpt lat="40.1547983" lon="15.2392567"><ele>446.4</ele><time>2026-04-25T15:30:09.912Z</time></trkpt><trkpt lat="40.1546983" lon="15.239285"><ele>443.0</ele><time>2026-04-25T15:30:11.914Z</time></trkpt><trkpt lat="40.1546" lon="15.23925"><ele>442.16666666666663</ele><time>2026-04-25T15:30:13.958Z</time></trkpt><trkpt lat="40.154505" lon="15.2392183"><ele>441.3333333333333</ele><time>2026-04-25T15:30:15.908Z</time></trkpt><trkpt lat="40.1544117" lon="15.239195"><ele>440.5</ele><time>2026-04-25T15:30:17.912Z</time></trkpt><trkpt lat="40.1543467" lon="15.2392267"><ele>439.66666666666663</ele><time>2026-04-25T15:30:21.907Z</time></trkpt><trkpt lat="40.15434" lon="15.2393133"><ele>438.8333333333333</ele><time>2026-04-25T15:30:24.907Z</time></trkpt><trkpt lat="40.1543917" lon="15.2393683"><ele>438.0</ele><time>2026-04-25T15:30:28.91Z</time></trkpt><trkpt lat="40.1544767" lon="15.2393583"><ele>438.0</ele><time>2026-04-25T15:30:30.909Z</time></trkpt><trkpt lat="40.15458" lon="15.2393683"><ele>438.0</ele><time>2026-04-25T15:30:32.906Z</time></trkpt><trkpt lat="40.1546917" lon="15.2393483"><ele>438.0</ele><time>2026-04-25T15:30:34.907Z</time></trkpt><trkpt lat="40.1547583" lon="15.23932"><ele>438.0</ele><time>2026-04-25T15:30:35.915Z</time></trkpt><trkpt lat="40.15483" lon="15.2392733"><ele>438.0</ele><time>2026-04-25T15:30:36.913Z</time></trkpt><trkpt lat="40.154895" lon="15.2392117"><ele>438.0</ele><time>2026-04-25T15:30:37.963Z</time></trkpt><trkpt lat="40.154965" lon="15.2391433"><ele>438.8333333333333</ele><time>2026-04-25T15:30:38.91Z</time></trkpt><trkpt lat="40.15503" lon="15.2390717"><ele>439.66666666666663</ele><time>2026-04-25T15:30:39.912Z</time></trkpt><trkpt lat="40.1550817" lon="15.2390033"><ele>440.5</ele><time>2026-04-25T15:30:40.911Z</time></trkpt><trkpt lat="40.1550983" lon="15.238885"><ele>441.3333333333333</ele><time>2026-04-25T15:30:42.911Z</time></trkpt><trkpt lat="40.1550917" lon="15.2388"><ele>442.16666666666663</ele><time>2026-04-25T15:30:44.916Z</time></trkpt><trkpt lat="40.1550733" lon="15.23868"><ele>443.0</ele><time>2026-04-25T15:30:47.908Z</time></trkpt><trkpt lat="40.1550817" lon="15.238535"><ele>443.0</ele><time>2026-04-25T15:30:49.953Z</time></trkpt><trkpt lat="40.155135" lon="15.23859"><ele>442.99999999999994</ele><time>2026-04-25T15:30:56.911Z</time></trkpt><trkpt lat="40.1551817" lon="15.238745"><ele>442.99999999999994</ele><time>2026-04-25T15:30:58.911Z</time></trkpt><trkpt lat="40.1552" lon="15.2388283"><ele>443.0</ele><time>2026-04-25T15:30:59.91Z</time></trkpt><trkpt lat="40.1552017" lon="15.23898"><ele>443.0</ele><time>2026-04-25T15:31:01.969Z</time></trkpt><trkpt lat="40.1551683" lon="15.2391167"><ele>443.0</ele><time>2026-04-25T15:31:03.912Z</time></trkpt><trkpt lat="40.15515" lon="15.2392367"><ele>442.99999999999994</ele><time>2026-04-25T15:31:05.911Z</time></trkpt><trkpt lat="40.1552583" lon="15.23923"><ele>442.99999999999994</ele><time>2026-04-25T15:31:08.904Z</time></trkpt><trkpt lat="40.1553517" lon="15.2391383"><ele>443.0</ele><time>2026-04-25T15:31:10.91Z</time></trkpt><trkpt lat="40.15539" lon="15.2390617"><ele>443.0</ele><time>2026-04-25T15:31:11.916Z</time></trkpt><trkpt lat="40.1554433" lon="15.2389583"><ele>446.4</ele><time>2026-04-25T15:31:12.91Z</time></trkpt><trkpt lat="40.15548" lon="15.238805"><ele>449.79999999999995</ele><time>2026-04-25T15:31:13.962Z</time></trkpt><trkpt lat="40.155515" lon="15.2386933"><ele>453.2</ele><time>2026-04-25T15:31:14.912Z</time></trkpt><trkpt lat="40.1555367" lon="15.2385833"><ele>456.6</ele><time>2026-04-25T15:31:15.905Z</time></trkpt><trkpt lat="40.1555183" lon="15.2384733"><ele>460.0</ele><time>2026-04-25T15:31:16.91Z</time></trkpt><trkpt lat="40.15552" lon="15.23838"><ele>460.00000000000006</ele><time>2026-04-25T15:31:17.906Z</time></trkpt><trkpt lat="40.1555183" lon="15.2385"><ele>460.0</ele><time>2026-04-25T15:31:37.958Z</time></trkpt><trkpt lat="40.1555683" lon="15.23859"><ele>460.0</ele><time>2026-04-25T15:31:38.905Z</time></trkpt><trkpt lat="40.1556283" lon="15.23867"><ele>460.0</ele><time>2026-04-25T15:31:39.908Z</time></trkpt><trkpt lat="40.1556933" lon="15.23874"><ele>460.00000000000006</ele><time>2026-04-25T15:31:40.912Z</time></trkpt><trkpt lat="40.1557617" lon="15.2387983"><ele>460.0</ele><time>2026-04-25T15:31:41.905Z</time></trkpt><trkpt lat="40.15584" lon="15.2388467"><ele>454.33333333333337</ele><time>2026-04-25T15:31:42.916Z</time></trkpt><trkpt lat="40.1559117" lon="15.2388833"><ele>448.6666666666667</ele><time>2026-04-25T15:31:43.962Z</time></trkpt><trkpt lat="40.1559717" lon="15.2389183"><ele>443.0</ele><time>2026-04-25T15:31:44.911Z</time></trkpt><trkpt lat="40.1560517" lon="15.2390067"><ele>437.33333333333337</ele><time>2026-04-25T15:31:46.911Z</time></trkpt><trkpt lat="40.1560467" lon="15.2391667"><ele>431.6666666666667</ele><time>2026-04-25T15:31:48.917Z</time></trkpt><trkpt lat="40.1560417" lon="15.239265"><ele>426.0</ele><time>2026-04-25T15:31:49.961Z</time></trkpt><trkpt lat="40.156045" lon="15.23937"><ele>425.6666666666667</ele><time>2026-04-25T15:31:50.906Z</time></trkpt><trkpt lat="40.1560467" lon="15.2394733"><ele>425.33333333333337</ele><time>2026-04-25T15:31:51.909Z</time></trkpt><trkpt lat="40.15605" lon="15.23957"><ele>425.0</ele><time>2026-04-25T15:31:52.909Z</time></trkpt><trkpt lat="40.156045" lon="15.2396733"><ele>424.6666666666667</ele><time>2026-04-25T15:31:53.912Z</time></trkpt><trkpt lat="40.1560267" lon="15.2397783"><ele>424.33333333333337</ele><time>2026-04-25T15:31:54.91Z</time></trkpt><trkpt lat="40.1560067" lon="15.2398817"><ele>424.0</ele><time>2026-04-25T15:31:55.972Z</time></trkpt><trkpt lat="40.1559783" lon="15.2399767"><ele>422.83333333333337</ele><time>2026-04-25T15:31:56.91Z</time></trkpt><trkpt lat="40.1559217" lon="15.240055"><ele>421.6666666666667</ele><time>2026-04-25T15:31:57.908Z</time></trkpt><trkpt lat="40.15587" lon="15.2401267"><ele>420.5</ele><time>2026-04-25T15:31:58.91Z</time></trkpt><trkpt lat="40.15581" lon="15.2401867"><ele>419.33333333333337</ele><time>2026-04-25T15:31:59.914Z</time></trkpt><trkpt lat="40.1557533" lon="15.240245"><ele>418.1666666666667</ele><time>2026-04-25T15:32:00.905Z</time></trkpt><trkpt lat="40.1556933" lon="15.2403033"><ele>417.0</ele><time>2026-04-25T15:32:01.971Z</time></trkpt><trkpt lat="40.1556267" lon="15.240355"><ele>417.0</ele><time>2026-04-25T15:32:02.915Z</time></trkpt><trkpt lat="40.1555733" lon="15.2404183"><ele>417.0</ele><time>2026-04-25T15:32:03.911Z</time></trkpt><trkpt lat="40.1555417" lon="15.2405"><ele>417.0</ele><time>2026-04-25T15:32:04.911Z</time></trkpt><trkpt lat="40.1555033" lon="15.24057"><ele>417.0</ele><time>2026-04-25T15:32:05.914Z</time></trkpt><trkpt lat="40.1554533" lon="15.2406267"><ele>417.0</ele><time>2026-04-25T15:32:06.912Z</time></trkpt><trkpt lat="40.1553633" lon="15.240745"><ele>417.0</ele><time>2026-04-25T15:32:08.91Z</time></trkpt><trkpt lat="40.1553033" lon="15.2407983"><ele>414.0</ele><time>2026-04-25T15:32:09.911Z</time></trkpt><trkpt lat="40.1552433" lon="15.2408517"><ele>411.0</ele><time>2026-04-25T15:32:10.912Z</time></trkpt><trkpt lat="40.1551833" lon="15.2409167"><ele>408.0</ele><time>2026-04-25T15:32:11.909Z</time></trkpt><trkpt lat="40.155125" lon="15.2409933"><ele>405.0</ele><time>2026-04-25T15:32:12.912Z</time></trkpt><trkpt lat="40.1550733" lon="15.241065"><ele>402.0</ele><time>2026-04-25T15:32:13.954Z</time></trkpt><trkpt lat="40.15503" lon="15.24114"><ele>399.0</ele><time>2026-04-25T15:32:14.908Z</time></trkpt><trkpt lat="40.1549933" lon="15.24121"><ele>396.0</ele><time>2026-04-25T15:32:15.91Z</time></trkpt><trkpt lat="40.154965" lon="15.2412883"><ele>396.0</ele><time>2026-04-25T15:32:16.909Z</time></trkpt><trkpt lat="40.1549433" lon="15.241385"><ele>396.0</ele><time>2026-04-25T15:32:17.91Z</time></trkpt><trkpt lat="40.154935" lon="15.2414983"><ele>396.0</ele><time>2026-04-25T15:32:18.91Z</time></trkpt><trkpt lat="40.15493" lon="15.2416"><ele>396.0</ele><time>2026-04-25T15:32:19.958Z</time></trkpt><trkpt lat="40.15493" lon="15.241705"><ele>396.0</ele><time>2026-04-25T15:32:20.905Z</time></trkpt><trkpt lat="40.1549417" lon="15.2418133"><ele>396.0</ele><time>2026-04-25T15:32:21.913Z</time></trkpt><trkpt lat="40.15498" lon="15.241935"><ele>392.8333333333333</ele><time>2026-04-25T15:32:22.914Z</time></trkpt><trkpt lat="40.1550167" lon="15.2420533"><ele>389.6666666666667</ele><time>2026-04-25T15:32:23.917Z</time></trkpt><trkpt lat="40.1550483" lon="15.242165"><ele>386.5</ele><time>2026-04-25T15:32:24.908Z</time></trkpt><trkpt lat="40.1550683" lon="15.2422667"><ele>383.33333333333337</ele><time>2026-04-25T15:32:25.984Z</time></trkpt><trkpt lat="40.1550833" lon="15.2423667"><ele>380.1666666666667</ele><time>2026-04-25T15:32:26.908Z</time></trkpt><trkpt lat="40.155105" lon="15.2424633"><ele>377.0</ele><time>2026-04-25T15:32:27.904Z</time></trkpt><trkpt lat="40.1550983" lon="15.2425617"><ele>374.6666666666667</ele><time>2026-04-25T15:32:29.908Z</time></trkpt><trkpt lat="40.1550133" lon="15.242575"><ele>372.33333333333337</ele><time>2026-04-25T15:32:31.968Z</time></trkpt><trkpt lat="40.154945" lon="15.242525"><ele>370.0</ele><time>2026-04-25T15:32:32.908Z</time></trkpt><trkpt lat="40.1548467" lon="15.24246"><ele>367.6666666666667</ele><time>2026-04-25T15:32:34.911Z</time></trkpt><trkpt lat="40.1547633" lon="15.2424517"><ele>365.3333333333333</ele><time>2026-04-25T15:32:36.906Z</time></trkpt><trkpt lat="40.1547417" lon="15.2425383"><ele>363.0</ele><time>2026-04-25T15:32:38.911Z</time></trkpt><trkpt lat="40.1547617" lon="15.2426383"><ele>363.0</ele><time>2026-04-25T15:32:40.916Z</time></trkpt><trkpt lat="40.1548133" lon="15.2427067"><ele>363.0</ele><time>2026-04-25T15:32:41.914Z</time></trkpt><trkpt lat="40.1548717" lon="15.24276"><ele>363.0</ele><time>2026-04-25T15:32:42.908Z</time></trkpt><trkpt lat="40.154925" lon="15.2428067"><ele>363.0</ele><time>2026-04-25T15:32:43.957Z</time></trkpt><trkpt lat="40.1550117" lon="15.2428633"><ele>363.0</ele><time>2026-04-25T15:32:44.91Z</time></trkpt><trkpt lat="40.155085" lon="15.242895"><ele>363.0</ele><time>2026-04-25T15:32:45.909Z</time></trkpt><trkpt lat="40.1551883" lon="15.2429283"><ele>363.0</ele><time>2026-04-25T15:32:46.909Z</time></trkpt><trkpt lat="40.15529" lon="15.24295"><ele>363.0</ele><time>2026-04-25T15:32:47.912Z</time></trkpt><trkpt lat="40.1553883" lon="15.2429533"><ele>363.0</ele><time>2026-04-25T15:32:48.913Z</time></trkpt><trkpt lat="40.155475" lon="15.24294"><ele>363.0</ele><time>2026-04-25T15:32:49.956Z</time></trkpt><trkpt lat="40.1555217" lon="15.2428283"><ele>363.0</ele><time>2026-04-25T15:32:51.911Z</time></trkpt><trkpt lat="40.15557" lon="15.242765"><ele>363.0</ele><time>2026-04-25T15:32:53.909Z</time></trkpt><trkpt lat="40.1555467" lon="15.24267"><ele>363.0</ele><time>2026-04-25T15:33:27.908Z</time></trkpt><trkpt lat="40.1555717" lon="15.2425417"><ele>363.0</ele><time>2026-04-25T15:33:29.911Z</time></trkpt><trkpt lat="40.15561" lon="15.2424667"><ele>363.0</ele><time>2026-04-25T15:33:30.912Z</time></trkpt><trkpt lat="40.15565" lon="15.2423967"><ele>363.0</ele><time>2026-04-25T15:33:31.974Z</time></trkpt><trkpt lat="40.155705" lon="15.2423317"><ele>363.0</ele><time>2026-04-25T15:33:32.907Z</time></trkpt><trkpt lat="40.15577" lon="15.242275"><ele>362.2857142857143</ele><time>2026-04-25T15:33:33.907Z</time></trkpt><trkpt lat="40.1558317" lon="15.2422217"><ele>361.57142857142856</ele><time>2026-04-25T15:33:34.911Z</time></trkpt><trkpt lat="40.1558917" lon="15.2421767"><ele>360.8571428571429</ele><time>2026-04-25T15:33:35.916Z</time></trkpt><trkpt lat="40.15596" lon="15.2421333"><ele>360.1428571428571</ele><time>2026-04-25T15:33:36.909Z</time></trkpt><trkpt lat="40.1560267" lon="15.2421033"><ele>359.42857142857144</ele><time>2026-04-25T15:33:37.951Z</time></trkpt><trkpt lat="40.1560967" lon="15.2421033"><ele>358.7142857142857</ele><time>2026-04-25T15:33:38.906Z</time></trkpt><trkpt lat="40.1561783" lon="15.2420983"><ele>358.0</ele><time>2026-04-25T15:33:39.912Z</time></trkpt><trkpt lat="40.1562467" lon="15.2420917"><ele>358.0</ele><time>2026-04-25T15:33:40.91Z</time></trkpt><trkpt lat="40.1563533" lon="15.2420267"><ele>358.0</ele><time>2026-04-25T15:33:42.916Z</time></trkpt><trkpt lat="40.1564133" lon="15.24198"><ele>358.0</ele><time>2026-04-25T15:33:43.962Z</time></trkpt><trkpt lat="40.15644" lon="15.2418983"><ele>358.0</ele><time>2026-04-25T15:33:44.911Z</time></trkpt><trkpt lat="40.1564767" lon="15.241825"><ele>358.0</ele><time>2026-04-25T15:33:45.909Z</time></trkpt><trkpt lat="40.1565517" lon="15.24173"><ele>358.0</ele><time>2026-04-25T15:33:47.91Z</time></trkpt><trkpt lat="40.1566417" lon="15.2416417"><ele>358.0</ele><time>2026-04-25T15:33:49.954Z</time></trkpt><trkpt lat="40.1567383" lon="15.24159"><ele>358.0</ele><time>2026-04-25T15:33:51.91Z</time></trkpt><trkpt lat="40.1568467" lon="15.2415333"><ele>358.0</ele><time>2026-04-25T15:33:53.912Z</time></trkpt><trkpt lat="40.15695" lon="15.24146"><ele>358.0</ele><time>2026-04-25T15:33:55.973Z</time></trkpt><trkpt lat="40.1570017" lon="15.2413983"><ele>358.0</ele><time>2026-04-25T15:33:56.907Z</time></trkpt><trkpt lat="40.1570533" lon="15.24132"><ele>358.0</ele><time>2026-04-25T15:33:57.91Z</time></trkpt><trkpt lat="40.1571033" lon="15.2412333"><ele>358.0</ele><time>2026-04-25T15:33:58.91Z</time></trkpt><trkpt lat="40.1571817" lon="15.2411583"><ele>358.0</ele><time>2026-04-25T15:33:59.909Z</time></trkpt><trkpt lat="40.1572417" lon="15.24109"><ele>358.0</ele><time>2026-04-25T15:34:00.912Z</time></trkpt><trkpt lat="40.15729" lon="15.2410267"><ele>358.0</ele><time>2026-04-25T15:34:01.968Z</time></trkpt><trkpt lat="40.157395" lon="15.2409333"><ele>352.66666666666663</ele><time>2026-04-25T15:34:03.912Z</time></trkpt><trkpt lat="40.1574683" lon="15.2409033"><ele>347.3333333333333</ele><time>2026-04-25T15:34:04.911Z</time></trkpt><trkpt lat="40.15754" lon="15.2408917"><ele>342.0</ele><time>2026-04-25T15:34:05.909Z</time></trkpt><trkpt lat="40.1576233" lon="15.2408917"><ele>336.6666666666667</ele><time>2026-04-25T15:34:06.904Z</time></trkpt><trkpt lat="40.1577183" lon="15.2408683"><ele>331.33333333333337</ele><time>2026-04-25T15:34:07.961Z</time></trkpt><trkpt lat="40.1577967" lon="15.2408433"><ele>326.0</ele><time>2026-04-25T15:34:08.909Z</time></trkpt><trkpt lat="40.1578817" lon="15.2408133"><ele>326.0</ele><time>2026-04-25T15:34:09.91Z</time></trkpt><trkpt lat="40.1579517" lon="15.240775"><ele>326.0</ele><time>2026-04-25T15:34:10.913Z</time></trkpt><trkpt lat="40.1580133" lon="15.2407283"><ele>326.0</ele><time>2026-04-25T15:34:11.906Z</time></trkpt><trkpt lat="40.158105" lon="15.2406583"><ele>326.0</ele><time>2026-04-25T15:34:13.954Z</time></trkpt><trkpt lat="40.1580933" lon="15.2407517"><ele>326.0</ele><time>2026-04-25T15:34:18.912Z</time></trkpt><trkpt lat="40.15805" lon="15.24084"><ele>326.0</ele><time>2026-04-25T15:34:20.91Z</time></trkpt><trkpt lat="40.1579933" lon="15.2409517"><ele>326.0</ele><time>2026-04-25T15:34:22.914Z</time></trkpt><trkpt lat="40.1579183" lon="15.2410617"><ele>326.0</ele><time>2026-04-25T15:34:24.911Z</time></trkpt><trkpt lat="40.15788" lon="15.2411383"><ele>326.0</ele><time>2026-04-25T15:34:26.904Z</time></trkpt><trkpt lat="40.1578383" lon="15.241255"><ele>326.0</ele><time>2026-04-25T15:35:01.965Z</time></trkpt><trkpt lat="40.1578017" lon="15.2413267"><ele>326.0</ele><time>2026-04-25T15:35:04.909Z</time></trkpt><trkpt lat="40.1577383" lon="15.2414333"><ele>322.0</ele><time>2026-04-25T15:35:06.909Z</time></trkpt><trkpt lat="40.1576833" lon="15.241585"><ele>318.0</ele><time>2026-04-25T15:35:08.905Z</time></trkpt><trkpt lat="40.1576267" lon="15.2417267"><ele>314.0</ele><time>2026-04-25T15:35:10.907Z</time></trkpt><trkpt lat="40.1576133" lon="15.2418583"><ele>310.0</ele><time>2026-04-25T15:35:12.906Z</time></trkpt><trkpt lat="40.1576133" lon="15.24196"><ele>306.0</ele><time>2026-04-25T15:35:14.906Z</time></trkpt><trkpt lat="40.1576817" lon="15.2420383"><ele>306.0</ele><time>2026-04-25T15:35:16.914Z</time></trkpt><trkpt lat="40.157725" lon="15.2421033"><ele>306.0</ele><time>2026-04-25T15:35:17.91Z</time></trkpt><trkpt lat="40.15777" lon="15.2421817"><ele>306.0</ele><time>2026-04-25T15:35:18.91Z</time></trkpt><trkpt lat="40.1578833" lon="15.2423083"><ele>306.0</ele><time>2026-04-25T15:35:20.907Z</time></trkpt><trkpt lat="40.15796" lon="15.242345"><ele>306.0</ele><time>2026-04-25T15:35:21.91Z</time></trkpt><trkpt lat="40.1580317" lon="15.2423583"><ele>306.0</ele><time>2026-04-25T15:35:22.909Z</time></trkpt><trkpt lat="40.1580967" lon="15.2423683"><ele>304.1666666666667</ele><time>2026-04-25T15:35:23.907Z</time></trkpt><trkpt lat="40.1581633" lon="15.2423917"><ele>302.3333333333333</ele><time>2026-04-25T15:35:24.92Z</time></trkpt><trkpt lat="40.15828" lon="15.24242"><ele>300.5</ele><time>2026-04-25T15:35:26.905Z</time></trkpt><trkpt lat="40.1583567" lon="15.2424633"><ele>298.66666666666663</ele><time>2026-04-25T15:35:28.905Z</time></trkpt><trkpt lat="40.158415" lon="15.242505"><ele>296.8333333333333</ele><time>2026-04-25T15:35:32.912Z</time></trkpt><trkpt lat="40.1583283" lon="15.242505"><ele>295.0</ele><time>2026-04-25T15:35:43.955Z</time></trkpt><trkpt lat="40.1582533" lon="15.2425367"><ele>295.0</ele><time>2026-04-25T15:35:45.913Z</time></trkpt><trkpt lat="40.158135" lon="15.2425567"><ele>295.0</ele><time>2026-04-25T15:35:47.909Z</time></trkpt><trkpt lat="40.1580667" lon="15.2425783"><ele>295.0</ele><time>2026-04-25T15:35:48.91Z</time></trkpt><trkpt lat="40.1579933" lon="15.2426083"><ele>295.0</ele><time>2026-04-25T15:35:49.952Z</time></trkpt><trkpt lat="40.15792" lon="15.2426583"><ele>295.0</ele><time>2026-04-25T15:35:50.907Z</time></trkpt><trkpt lat="40.1578517" lon="15.242705"><ele>295.0</ele><time>2026-04-25T15:35:51.905Z</time></trkpt><trkpt lat="40.1577817" lon="15.2427567"><ele>295.0</ele><time>2026-04-25T15:35:52.909Z</time></trkpt><trkpt lat="40.1577017" lon="15.242815"><ele>295.0</ele><time>2026-04-25T15:35:53.909Z</time></trkpt><trkpt lat="40.1575967" lon="15.2428933"><ele>295.0</ele><time>2026-04-25T15:35:54.915Z</time></trkpt><trkpt lat="40.1575067" lon="15.2429667"><ele>295.0</ele><time>2026-04-25T15:35:55.969Z</time></trkpt><trkpt lat="40.1574283" lon="15.2430433"><ele>295.0</ele><time>2026-04-25T15:35:56.908Z</time></trkpt><trkpt lat="40.1573417" lon="15.2431283"><ele>296.4</ele><time>2026-04-25T15:35:57.907Z</time></trkpt><trkpt lat="40.15726" lon="15.2432183"><ele>297.8</ele><time>2026-04-25T15:35:58.914Z</time></trkpt><trkpt lat="40.15717" lon="15.243295"><ele>299.2</ele><time>2026-04-25T15:35:59.915Z</time></trkpt><trkpt lat="40.15709" lon="15.2433817"><ele>300.6</ele><time>2026-04-25T15:36:00.906Z</time></trkpt><trkpt lat="40.15702" lon="15.2434667"><ele>302.0</ele><time>2026-04-25T15:36:01.967Z</time></trkpt><trkpt lat="40.1569517" lon="15.2435483"><ele>302.0</ele><time>2026-04-25T15:36:02.905Z</time></trkpt><trkpt lat="40.15688" lon="15.2436333"><ele>302.0</ele><time>2026-04-25T15:36:03.909Z</time></trkpt><trkpt lat="40.1567967" lon="15.2437"><ele>302.0</ele><time>2026-04-25T15:36:04.91Z</time></trkpt><trkpt lat="40.1567167" lon="15.2437367"><ele>302.0</ele><time>2026-04-25T15:36:05.908Z</time></trkpt><trkpt lat="40.1566517" lon="15.2438"><ele>302.0</ele><time>2026-04-25T15:36:06.904Z</time></trkpt><trkpt lat="40.1565867" lon="15.2438617"><ele>302.0</ele><time>2026-04-25T15:36:07.953Z</time></trkpt><trkpt lat="40.1565367" lon="15.243955"><ele>303.8571428571429</ele><time>2026-04-25T15:36:08.905Z</time></trkpt><trkpt lat="40.1564783" lon="15.2440033"><ele>305.7142857142857</ele><time>2026-04-25T15:36:09.906Z</time></trkpt><trkpt lat="40.1564183" lon="15.24405"><ele>307.57142857142856</ele><time>2026-04-25T15:36:10.912Z</time></trkpt><trkpt lat="40.1563417" lon="15.2440617"><ele>309.42857142857144</ele><time>2026-04-25T15:36:11.91Z</time></trkpt><trkpt lat="40.1562833" lon="15.2441167"><ele>311.2857142857143</ele><time>2026-04-25T15:36:12.911Z</time></trkpt><trkpt lat="40.1562183" lon="15.2441767"><ele>313.14285714285717</ele><time>2026-04-25T15:36:13.968Z</time></trkpt><trkpt lat="40.1561617" lon="15.2442317"><ele>315.0</ele><time>2026-04-25T15:36:14.91Z</time></trkpt><trkpt lat="40.1561017" lon="15.2442833"><ele>315.0</ele><time>2026-04-25T15:36:15.918Z</time></trkpt><trkpt lat="40.1559933" lon="15.2443433"><ele>315.0</ele><time>2026-04-25T15:36:17.906Z</time></trkpt><trkpt lat="40.155935" lon="15.244385"><ele>315.0</ele><time>2026-04-25T15:36:18.911Z</time></trkpt><trkpt lat="40.1558783" lon="15.2444267"><ele>315.0</ele><time>2026-04-25T15:36:19.956Z</time></trkpt><trkpt lat="40.1558083" lon="15.2444633"><ele>315.0</ele><time>2026-04-25T15:36:20.907Z</time></trkpt><trkpt lat="40.1557283" lon="15.2444817"><ele>315.0</ele><time>2026-04-25T15:36:21.906Z</time></trkpt><trkpt lat="40.155645" lon="15.244485"><ele>315.6666666666667</ele><time>2026-04-25T15:36:22.908Z</time></trkpt><trkpt lat="40.1555467" lon="15.2444883"><ele>316.3333333333333</ele><time>2026-04-25T15:36:23.909Z</time></trkpt><trkpt lat="40.1554517" lon="15.24449"><ele>317.0</ele><time>2026-04-25T15:36:24.904Z</time></trkpt><trkpt lat="40.1553633" lon="15.244495"><ele>317.66666666666663</ele><time>2026-04-25T15:36:25.967Z</time></trkpt><trkpt lat="40.1552833" lon="15.2444983"><ele>318.3333333333333</ele><time>2026-04-25T15:36:26.911Z</time></trkpt><trkpt lat="40.1552117" lon="15.2445183"><ele>319.0</ele><time>2026-04-25T15:36:27.904Z</time></trkpt><trkpt lat="40.1551433" lon="15.244535"><ele>319.0</ele><time>2026-04-25T15:36:28.913Z</time></trkpt><trkpt lat="40.15509" lon="15.2445867"><ele>319.0</ele><time>2026-04-25T15:36:29.909Z</time></trkpt><trkpt lat="40.1550333" lon="15.2446533"><ele>319.0</ele><time>2026-04-25T15:36:30.909Z</time></trkpt><trkpt lat="40.1549683" lon="15.2447067"><ele>319.0</ele><time>2026-04-25T15:36:31.974Z</time></trkpt><trkpt lat="40.1548967" lon="15.2447333"><ele>319.0</ele><time>2026-04-25T15:36:32.911Z</time></trkpt><trkpt lat="40.1548183" lon="15.2447667"><ele>319.0</ele><time>2026-04-25T15:36:33.908Z</time></trkpt><trkpt lat="40.1547517" lon="15.244825"><ele>322.16666666666663</ele><time>2026-04-25T15:36:34.909Z</time></trkpt><trkpt lat="40.15468" lon="15.2448717"><ele>325.3333333333333</ele><time>2026-04-25T15:36:35.909Z</time></trkpt><trkpt lat="40.154605" lon="15.2449167"><ele>328.5</ele><time>2026-04-25T15:36:36.909Z</time></trkpt><trkpt lat="40.1545133" lon="15.24494"><ele>331.6666666666667</ele><time>2026-04-25T15:36:37.955Z</time></trkpt><trkpt lat="40.154425" lon="15.2449633"><ele>334.83333333333337</ele><time>2026-04-25T15:36:38.905Z</time></trkpt><trkpt lat="40.1543233" lon="15.244975"><ele>338.0</ele><time>2026-04-25T15:36:39.908Z</time></trkpt><trkpt lat="40.1542017" lon="15.2449617"><ele>338.0</ele><time>2026-04-25T15:36:40.909Z</time></trkpt><trkpt lat="40.1541067" lon="15.24498"><ele>338.0</ele><time>2026-04-25T15:36:41.909Z</time></trkpt><trkpt lat="40.1540117" lon="15.2450083"><ele>338.0</ele><time>2026-04-25T15:36:42.91Z</time></trkpt><trkpt lat="40.153915" lon="15.2450483"><ele>338.0</ele><time>2026-04-25T15:36:43.959Z</time></trkpt><trkpt lat="40.1538233" lon="15.245085"><ele>338.0</ele><time>2026-04-25T15:36:44.906Z</time></trkpt><trkpt lat="40.1537367" lon="15.24515"><ele>337.4</ele><time>2026-04-25T15:36:45.909Z</time></trkpt><trkpt lat="40.1536533" lon="15.2452383"><ele>336.79999999999995</ele><time>2026-04-25T15:36:46.905Z</time></trkpt><trkpt lat="40.153565" lon="15.24532"><ele>336.2</ele><time>2026-04-25T15:36:47.91Z</time></trkpt><trkpt lat="40.1534833" lon="15.2453933"><ele>335.6</ele><time>2026-04-25T15:36:48.912Z</time></trkpt><trkpt lat="40.15339" lon="15.2454217"><ele>335.0</ele><time>2026-04-25T15:36:49.963Z</time></trkpt><trkpt lat="40.1532983" lon="15.2454117"><ele>335.8</ele><time>2026-04-25T15:36:50.905Z</time></trkpt><trkpt lat="40.1531983" lon="15.2453783"><ele>336.6</ele><time>2026-04-25T15:36:51.906Z</time></trkpt><trkpt lat="40.1530933" lon="15.2453383"><ele>337.4</ele><time>2026-04-25T15:36:52.908Z</time></trkpt><trkpt lat="40.152985" lon="15.245315"><ele>338.2</ele><time>2026-04-25T15:36:53.905Z</time></trkpt><trkpt lat="40.15289" lon="15.245315"><ele>339.0</ele><time>2026-04-25T15:36:54.911Z</time></trkpt><trkpt lat="40.1527983" lon="15.2453267"><ele>339.0</ele><time>2026-04-25T15:36:55.967Z</time></trkpt><trkpt lat="40.1526983" lon="15.24532"><ele>339.0</ele><time>2026-04-25T15:36:56.907Z</time></trkpt><trkpt lat="40.1526117" lon="15.245315"><ele>339.0</ele><time>2026-04-25T15:36:57.905Z</time></trkpt><trkpt lat="40.1525317" lon="15.245335"><ele>339.0</ele><time>2026-04-25T15:36:58.908Z</time></trkpt><trkpt lat="40.1524567" lon="15.2453733"><ele>339.0</ele><time>2026-04-25T15:36:59.913Z</time></trkpt><trkpt lat="40.1523883" lon="15.2454133"><ele>339.0</ele><time>2026-04-25T15:37:00.905Z</time></trkpt><trkpt lat="40.1523183" lon="15.2454533"><ele>341.0</ele><time>2026-04-25T15:37:01.965Z</time></trkpt><trkpt lat="40.1522467" lon="15.2454817"><ele>343.0</ele><time>2026-04-25T15:37:02.914Z</time></trkpt><trkpt lat="40.152195" lon="15.2455317"><ele>345.0</ele><time>2026-04-25T15:37:03.905Z</time></trkpt><trkpt lat="40.1521367" lon="15.2456167"><ele>347.0</ele><time>2026-04-25T15:37:04.912Z</time></trkpt><trkpt lat="40.152075" lon="15.2456983"><ele>349.0</ele><time>2026-04-25T15:37:05.908Z</time></trkpt><trkpt lat="40.1520067" lon="15.2457817"><ele>351.0</ele><time>2026-04-25T15:37:06.909Z</time></trkpt><trkpt lat="40.151935" lon="15.2458567"><ele>351.0</ele><time>2026-04-25T15:37:07.961Z</time></trkpt><trkpt lat="40.15187" lon="15.2459367"><ele>351.0</ele><time>2026-04-25T15:37:08.909Z</time></trkpt><trkpt lat="40.1518017" lon="15.2460183"><ele>351.0</ele><time>2026-04-25T15:37:09.909Z</time></trkpt><trkpt lat="40.1517317" lon="15.2461217"><ele>351.0</ele><time>2026-04-25T15:37:10.911Z</time></trkpt><trkpt lat="40.151665" lon="15.2462583"><ele>351.0</ele><time>2026-04-25T15:37:11.911Z</time></trkpt><trkpt lat="40.1516067" lon="15.246395"><ele>354.8333333333333</ele><time>2026-04-25T15:37:12.91Z</time></trkpt><trkpt lat="40.1515533" lon="15.2465083"><ele>358.6666666666667</ele><time>2026-04-25T15:37:13.953Z</time></trkpt><trkpt lat="40.151515" lon="15.2466217"><ele>362.5</ele><time>2026-04-25T15:37:14.907Z</time></trkpt><trkpt lat="40.1514817" lon="15.24672"><ele>366.33333333333337</ele><time>2026-04-25T15:37:15.913Z</time></trkpt><trkpt lat="40.151455" lon="15.246815"><ele>370.1666666666667</ele><time>2026-04-25T15:37:16.907Z</time></trkpt><trkpt lat="40.151445" lon="15.246905"><ele>374.0</ele><time>2026-04-25T15:37:17.909Z</time></trkpt><trkpt lat="40.151495" lon="15.2469917"><ele>374.0</ele><time>2026-04-25T15:37:20.904Z</time></trkpt><trkpt lat="40.1515533" lon="15.2469283"><ele>374.0</ele><time>2026-04-25T15:37:21.911Z</time></trkpt><trkpt lat="40.151625" lon="15.2468367"><ele>374.0</ele><time>2026-04-25T15:37:22.91Z</time></trkpt><trkpt lat="40.15168" lon="15.2467883"><ele>374.0</ele><time>2026-04-25T15:37:23.905Z</time></trkpt><trkpt lat="40.1518033" lon="15.2467167"><ele>374.0</ele><time>2026-04-25T15:37:25.974Z</time></trkpt><trkpt lat="40.1518833" lon="15.246685"><ele>374.0</ele><time>2026-04-25T15:37:26.91Z</time></trkpt><trkpt lat="40.151975" lon="15.24664"><ele>374.0</ele><time>2026-04-25T15:37:27.91Z</time></trkpt><trkpt lat="40.1520583" lon="15.2465767"><ele>374.0</ele><time>2026-04-25T15:37:28.912Z</time></trkpt><trkpt lat="40.1521333" lon="15.2465183"><ele>374.0</ele><time>2026-04-25T15:37:29.909Z</time></trkpt><trkpt lat="40.1522133" lon="15.2465117"><ele>374.0</ele><time>2026-04-25T15:37:30.913Z</time></trkpt><trkpt lat="40.1522933" lon="15.2465167"><ele>374.0</ele><time>2026-04-25T15:37:31.968Z</time></trkpt><trkpt lat="40.1523817" lon="15.24655"><ele>377.6</ele><time>2026-04-25T15:37:32.907Z</time></trkpt><trkpt lat="40.15246" lon="15.2465567"><ele>381.2</ele><time>2026-04-25T15:37:33.909Z</time></trkpt><trkpt lat="40.1525333" lon="15.246585"><ele>384.8</ele><time>2026-04-25T15:37:34.906Z</time></trkpt><trkpt lat="40.152605" lon="15.246605"><ele>388.40000000000003</ele><time>2026-04-25T15:37:35.907Z</time></trkpt><trkpt lat="40.1526833" lon="15.246635"><ele>392.0</ele><time>2026-04-25T15:37:36.914Z</time></trkpt><trkpt lat="40.1528233" lon="15.2466767"><ele>392.0</ele><time>2026-04-25T15:37:37.957Z</time></trkpt><trkpt lat="40.1529467" lon="15.2466917"><ele>392.0</ele><time>2026-04-25T15:37:38.909Z</time></trkpt><trkpt lat="40.1530833" lon="15.24673"><ele>392.0</ele><time>2026-04-25T15:37:39.904Z</time></trkpt><trkpt lat="40.1532167" lon="15.2467517"><ele>392.0</ele><time>2026-04-25T15:37:40.913Z</time></trkpt><trkpt lat="40.1533383" lon="15.2467633"><ele>394.20000000000005</ele><time>2026-04-25T15:37:41.912Z</time></trkpt><trkpt lat="40.15345" lon="15.2468067"><ele>396.4</ele><time>2026-04-25T15:37:42.908Z</time></trkpt><trkpt lat="40.1535517" lon="15.246855"><ele>398.6</ele><time>2026-04-25T15:37:43.962Z</time></trkpt><trkpt lat="40.153635" lon="15.2468717"><ele>400.79999999999995</ele><time>2026-04-25T15:37:44.906Z</time></trkpt><trkpt lat="40.1537" lon="15.246895"><ele>403.0</ele><time>2026-04-25T15:37:45.91Z</time></trkpt><trkpt lat="40.1538383" lon="15.2468633"><ele>403.0</ele><time>2026-04-25T15:37:47.914Z</time></trkpt><trkpt lat="40.1539167" lon="15.2468583"><ele>403.0</ele><time>2026-04-25T15:37:48.91Z</time></trkpt><trkpt lat="40.1540267" lon="15.246825"><ele>403.0</ele><time>2026-04-25T15:37:49.955Z</time></trkpt><trkpt lat="40.1541417" lon="15.2467733"><ele>403.0</ele><time>2026-04-25T15:37:50.906Z</time></trkpt><trkpt lat="40.1542717" lon="15.24671"><ele>404.79999999999995</ele><time>2026-04-25T15:37:51.913Z</time></trkpt><trkpt lat="40.15438" lon="15.246675"><ele>406.6</ele><time>2026-04-25T15:37:52.914Z</time></trkpt><trkpt lat="40.1544767" lon="15.2466217"><ele>408.4</ele><time>2026-04-25T15:37:53.909Z</time></trkpt><trkpt lat="40.154565" lon="15.2465683"><ele>410.20000000000005</ele><time>2026-04-25T15:37:54.91Z</time></trkpt><trkpt lat="40.154655" lon="15.2465133"><ele>412.0</ele><time>2026-04-25T15:37:55.969Z</time></trkpt><trkpt lat="40.1547133" lon="15.2464083"><ele>406.50000000000006</ele><time>2026-04-25T15:37:56.903Z</time></trkpt><trkpt lat="40.1547817" lon="15.2463233"><ele>401.0</ele><time>2026-04-25T15:37:57.908Z</time></trkpt><trkpt lat="40.1548383" lon="15.2462467"><ele>395.5</ele><time>2026-04-25T15:37:58.904Z</time></trkpt><trkpt lat="40.1548967" lon="15.2461867"><ele>390.0</ele><time>2026-04-25T15:37:59.906Z</time></trkpt><trkpt lat="40.1549667" lon="15.2462"><ele>384.5</ele><time>2026-04-25T15:38:00.913Z</time></trkpt><trkpt lat="40.15503" lon="15.2462133"><ele>379.0</ele><time>2026-04-25T15:38:01.969Z</time></trkpt><trkpt lat="40.1551017" lon="15.246245"><ele>379.0</ele><time>2026-04-25T15:38:02.907Z</time></trkpt><trkpt lat="40.15518" lon="15.2462933"><ele>379.0</ele><time>2026-04-25T15:38:03.911Z</time></trkpt><trkpt lat="40.1552767" lon="15.2463533"><ele>379.0</ele><time>2026-04-25T15:38:04.908Z</time></trkpt><trkpt lat="40.1553533" lon="15.2463817"><ele>379.0</ele><time>2026-04-25T15:38:05.905Z</time></trkpt><trkpt lat="40.1554433" lon="15.2463217"><ele>379.0</ele><time>2026-04-25T15:38:07.951Z</time></trkpt><trkpt lat="40.1555" lon="15.2462667"><ele>379.0</ele><time>2026-04-25T15:38:08.906Z</time></trkpt><trkpt lat="40.1555833" lon="15.2461633"><ele>379.0</ele><time>2026-04-25T15:38:09.911Z</time></trkpt><trkpt lat="40.1556567" lon="15.24607"><ele>379.0</ele><time>2026-04-25T15:38:10.907Z</time></trkpt><trkpt lat="40.1557367" lon="15.24596"><ele>379.0</ele><time>2026-04-25T15:38:11.915Z</time></trkpt><trkpt lat="40.1558283" lon="15.2458983"><ele>379.0</ele><time>2026-04-25T15:38:12.916Z</time></trkpt><trkpt lat="40.1559267" lon="15.24587"><ele>379.0</ele><time>2026-04-25T15:38:13.954Z</time></trkpt><trkpt lat="40.1560283" lon="15.2458517"><ele>384.5</ele><time>2026-04-25T15:38:14.912Z</time></trkpt><trkpt lat="40.1561333" lon="15.2458283"><ele>390.0</ele><time>2026-04-25T15:38:15.909Z</time></trkpt><trkpt lat="40.156255" lon="15.2458"><ele>395.5</ele><time>2026-04-25T15:38:16.905Z</time></trkpt><trkpt lat="40.1563683" lon="15.2457667"><ele>401.0</ele><time>2026-04-25T15:38:17.914Z</time></trkpt><trkpt lat="40.15648" lon="15.2457433"><ele>404.49999999999994</ele><time>2026-04-25T15:38:18.913Z</time></trkpt><trkpt lat="40.156565" lon="15.2457433"><ele>408.0</ele><time>2026-04-25T15:38:19.957Z</time></trkpt><trkpt lat="40.1566417" lon="15.2457467"><ele>411.5</ele><time>2026-04-25T15:38:20.9Z</time></trkpt><trkpt lat="40.1567133" lon="15.2457683"><ele>415.0</ele><time>2026-04-25T15:38:21.909Z</time></trkpt><trkpt lat="40.15679" lon="15.2457717"><ele>418.49999999999994</ele><time>2026-04-25T15:38:22.907Z</time></trkpt><trkpt lat="40.1568617" lon="15.2457417"><ele>422.0</ele><time>2026-04-25T15:38:23.911Z</time></trkpt><trkpt lat="40.156935" lon="15.24571"><ele>421.99999999999994</ele><time>2026-04-25T15:38:24.912Z</time></trkpt><trkpt lat="40.1570117" lon="15.24564"><ele>422.0</ele><time>2026-04-25T15:38:25.97Z</time></trkpt><trkpt lat="40.15709" lon="15.2455733"><ele>422.0</ele><time>2026-04-25T15:38:26.903Z</time></trkpt><trkpt lat="40.15717" lon="15.2455233"><ele>422.0</ele><time>2026-04-25T15:38:27.911Z</time></trkpt><trkpt lat="40.1572433" lon="15.2454983"><ele>421.99999999999994</ele><time>2026-04-25T15:38:28.909Z</time></trkpt><trkpt lat="40.1573217" lon="15.2455067"><ele>422.0</ele><time>2026-04-25T15:38:29.908Z</time></trkpt><trkpt lat="40.15739" lon="15.2454717"><ele>417.8</ele><time>2026-04-25T15:38:30.91Z</time></trkpt><trkpt lat="40.15745" lon="15.2455167"><ele>413.6</ele><time>2026-04-25T15:38:31.969Z</time></trkpt><trkpt lat="40.1575783" lon="15.245515"><ele>409.40000000000003</ele><time>2026-04-25T15:38:33.913Z</time></trkpt><trkpt lat="40.15766" lon="15.245495"><ele>405.20000000000005</ele><time>2026-04-25T15:38:34.909Z</time></trkpt><trkpt lat="40.1577383" lon="15.2454367"><ele>401.0</ele><time>2026-04-25T15:38:35.91Z</time></trkpt><trkpt lat="40.15782" lon="15.24536"><ele>401.0</ele><time>2026-04-25T15:38:36.911Z</time></trkpt><trkpt lat="40.1579033" lon="15.24527"><ele>401.0</ele><time>2026-04-25T15:38:37.954Z</time></trkpt><trkpt lat="40.1579917" lon="15.2451933"><ele>401.0</ele><time>2026-04-25T15:38:38.907Z</time></trkpt><trkpt lat="40.15808" lon="15.2451317"><ele>401.0</ele><time>2026-04-25T15:38:39.911Z</time></trkpt><trkpt lat="40.1581717" lon="15.2450917"><ele>401.0</ele><time>2026-04-25T15:38:40.91Z</time></trkpt><trkpt lat="40.1582633" lon="15.2450683"><ele>402.49999999999994</ele><time>2026-04-25T15:38:41.906Z</time></trkpt><trkpt lat="40.15836" lon="15.2450833"><ele>404.0</ele><time>2026-04-25T15:38:42.913Z</time></trkpt><trkpt lat="40.1584433" lon="15.2450967"><ele>405.5</ele><time>2026-04-25T15:38:43.954Z</time></trkpt><trkpt lat="40.1585" lon="15.245185"><ele>407.0</ele><time>2026-04-25T15:38:45.909Z</time></trkpt><trkpt lat="40.1585483" lon="15.2452633"><ele>408.49999999999994</ele><time>2026-04-25T15:38:46.907Z</time></trkpt><trkpt lat="40.158585" lon="15.2453817"><ele>410.0</ele><time>2026-04-25T15:38:47.909Z</time></trkpt><trkpt lat="40.158605" lon="15.2457383"><ele>416.5</ele><time>2026-04-25T15:38:48.905Z</time></trkpt><trkpt lat="40.15863" lon="15.24592"><ele>423.0</ele><time>2026-04-25T15:38:49.961Z</time></trkpt><trkpt lat="40.1586367" lon="15.2461"><ele>429.5</ele><time>2026-04-25T15:38:50.912Z</time></trkpt><trkpt lat="40.1586333" lon="15.246265"><ele>436.0</ele><time>2026-04-25T15:38:51.91Z</time></trkpt><trkpt lat="40.158625" lon="15.2464217"><ele>438.8</ele><time>2026-04-25T15:38:52.91Z</time></trkpt><trkpt lat="40.1586117" lon="15.246565"><ele>441.6</ele><time>2026-04-25T15:38:53.908Z</time></trkpt><trkpt lat="40.1586083" lon="15.2467067"><ele>444.4</ele><time>2026-04-25T15:38:54.905Z</time></trkpt><trkpt lat="40.1585817" lon="15.2467983"><ele>447.2</ele><time>2026-04-25T15:38:55.966Z</time></trkpt><trkpt lat="40.1585333" lon="15.2469"><ele>450.0</ele><time>2026-04-25T15:38:56.905Z</time></trkpt><trkpt lat="40.1585033" lon="15.247025"><ele>450.0</ele><time>2026-04-25T15:38:57.913Z</time></trkpt><trkpt lat="40.15846" lon="15.2471417"><ele>450.0</ele><time>2026-04-25T15:38:58.908Z</time></trkpt><trkpt lat="40.1584467" lon="15.2472633"><ele>450.0</ele><time>2026-04-25T15:38:59.911Z</time></trkpt><trkpt lat="40.1584533" lon="15.2473683"><ele>450.0</ele><time>2026-04-25T15:39:00.906Z</time></trkpt><trkpt lat="40.15845" lon="15.2474667"><ele>450.0</ele><time>2026-04-25T15:39:01.969Z</time></trkpt><trkpt lat="40.1584217" lon="15.247565"><ele>450.0</ele><time>2026-04-25T15:39:02.911Z</time></trkpt><trkpt lat="40.1583783" lon="15.2476567"><ele>449.75</ele><time>2026-04-25T15:39:03.908Z</time></trkpt><trkpt lat="40.1583133" lon="15.2477417"><ele>449.5</ele><time>2026-04-25T15:39:04.908Z</time></trkpt><trkpt lat="40.1582067" lon="15.2478233"><ele>449.25</ele><time>2026-04-25T15:39:05.906Z</time></trkpt><trkpt lat="40.1581117" lon="15.2479167"><ele>449.0</ele><time>2026-04-25T15:39:06.913Z</time></trkpt><trkpt lat="40.1579867" lon="15.2480183"><ele>454.25</ele><time>2026-04-25T15:39:07.964Z</time></trkpt><trkpt lat="40.1578667" lon="15.2481217"><ele>459.5</ele><time>2026-04-25T15:39:08.905Z</time></trkpt><trkpt lat="40.1577617" lon="15.2482217"><ele>464.75</ele><time>2026-04-25T15:39:09.911Z</time></trkpt><trkpt lat="40.1576533" lon="15.2483067"><ele>470.0</ele><time>2026-04-25T15:39:10.905Z</time></trkpt><trkpt lat="40.157565" lon="15.248385"><ele>470.0</ele><time>2026-04-25T15:39:11.913Z</time></trkpt><trkpt lat="40.15749" lon="15.248455"><ele>470.0</ele><time>2026-04-25T15:39:12.906Z</time></trkpt><trkpt lat="40.1574167" lon="15.24851"><ele>470.0</ele><time>2026-04-25T15:39:13.954Z</time></trkpt><trkpt lat="40.1572967" lon="15.2484933"><ele>470.0</ele><time>2026-04-25T15:39:15.905Z</time></trkpt><trkpt lat="40.15721" lon="15.24847"><ele>470.0</ele><time>2026-04-25T15:39:16.911Z</time></trkpt><trkpt lat="40.157075" lon="15.24841"><ele>472.2</ele><time>2026-04-25T15:39:17.909Z</time></trkpt><trkpt lat="40.1569617" lon="15.2483633"><ele>474.4</ele><time>2026-04-25T15:39:18.953Z</time></trkpt><trkpt lat="40.15685" lon="15.2483183"><ele>476.6</ele><time>2026-04-25T15:39:19.955Z</time></trkpt><trkpt lat="40.1567467" lon="15.248295"><ele>478.8</ele><time>2026-04-25T15:39:20.909Z</time></trkpt><trkpt lat="40.1566533" lon="15.248285"><ele>481.0</ele><time>2026-04-25T15:39:21.906Z</time></trkpt><trkpt lat="40.15658" lon="15.24828"><ele>481.83333333333337</ele><time>2026-04-25T15:39:22.906Z</time></trkpt><trkpt lat="40.1564967" lon="15.2482833"><ele>482.6666666666667</ele><time>2026-04-25T15:39:23.916Z</time></trkpt><trkpt lat="40.156415" lon="15.2482583"><ele>483.5</ele><time>2026-04-25T15:39:24.912Z</time></trkpt><trkpt lat="40.1563317" lon="15.24822"><ele>484.33333333333337</ele><time>2026-04-25T15:39:25.964Z</time></trkpt><trkpt lat="40.1562617" lon="15.2481817"><ele>485.1666666666667</ele><time>2026-04-25T15:39:26.91Z</time></trkpt><trkpt lat="40.156195" lon="15.24816"><ele>486.0</ele><time>2026-04-25T15:39:27.907Z</time></trkpt><trkpt lat="40.1561033" lon="15.2481317"><ele>486.0</ele><time>2026-04-25T15:39:29.911Z</time></trkpt><trkpt lat="40.1560433" lon="15.2481617"><ele>486.0</ele><time>2026-04-25T15:39:30.928Z</time></trkpt><trkpt lat="40.1559733" lon="15.2482"><ele>486.0</ele><time>2026-04-25T15:39:31.966Z</time></trkpt><trkpt lat="40.1558733" lon="15.2483217"><ele>486.0</ele><time>2026-04-25T15:39:32.909Z</time></trkpt><trkpt lat="40.1557817" lon="15.248495"><ele>486.0</ele><time>2026-04-25T15:39:33.913Z</time></trkpt><trkpt lat="40.1557183" lon="15.2486517"><ele>487.6</ele><time>2026-04-25T15:39:34.907Z</time></trkpt><trkpt lat="40.15565" lon="15.2487733"><ele>489.20000000000005</ele><time>2026-04-25T15:39:35.906Z</time></trkpt><trkpt lat="40.1555883" lon="15.248885"><ele>490.79999999999995</ele><time>2026-04-25T15:39:36.909Z</time></trkpt><trkpt lat="40.155525" lon="15.24897"><ele>492.4</ele><time>2026-04-25T15:39:37.961Z</time></trkpt><trkpt lat="40.1554467" lon="15.249035"><ele>494.0</ele><time>2026-04-25T15:39:38.902Z</time></trkpt><trkpt lat="40.1553667" lon="15.24908"><ele>494.49999999999994</ele><time>2026-04-25T15:39:39.904Z</time></trkpt><trkpt lat="40.1552917" lon="15.2491267"><ele>495.0</ele><time>2026-04-25T15:39:40.91Z</time></trkpt><trkpt lat="40.1552067" lon="15.249165"><ele>495.5</ele><time>2026-04-25T15:39:41.91Z</time></trkpt><trkpt lat="40.15512" lon="15.2492033"><ele>496.0</ele><time>2026-04-25T15:39:42.906Z</time></trkpt><trkpt lat="40.155045" lon="15.2492483"><ele>496.49999999999994</ele><time>2026-04-25T15:39:43.957Z</time></trkpt><trkpt lat="40.15498" lon="15.2493"><ele>497.0</ele><time>2026-04-25T15:39:44.91Z</time></trkpt><trkpt lat="40.1549033" lon="15.2493517"><ele>498.8333333333333</ele><time>2026-04-25T15:39:45.906Z</time></trkpt><trkpt lat="40.1548283" lon="15.2493933"><ele>500.66666666666663</ele><time>2026-04-25T15:39:46.908Z</time></trkpt><trkpt lat="40.154755" lon="15.24942"><ele>502.5</ele><time>2026-04-25T15:39:47.904Z</time></trkpt><trkpt lat="40.1546633" lon="15.2494233"><ele>504.33333333333337</ele><time>2026-04-25T15:39:48.906Z</time></trkpt><trkpt lat="40.1545783" lon="15.2494267"><ele>506.1666666666667</ele><time>2026-04-25T15:39:49.953Z</time></trkpt><trkpt lat="40.1544833" lon="15.2494217"><ele>508.0</ele><time>2026-04-25T15:39:50.91Z</time></trkpt><trkpt lat="40.1543933" lon="15.2494317"><ele>508.00000000000006</ele><time>2026-04-25T15:39:51.905Z</time></trkpt><trkpt lat="40.1543017" lon="15.249445"><ele>508.0</ele><time>2026-04-25T15:39:52.91Z</time></trkpt><trkpt lat="40.1542183" lon="15.2494717"><ele>508.0</ele><time>2026-04-25T15:39:53.911Z</time></trkpt><trkpt lat="40.154155" lon="15.2495067"><ele>508.0</ele><time>2026-04-25T15:39:54.931Z</time></trkpt><trkpt lat="40.1540733" lon="15.2495467"><ele>508.00000000000006</ele><time>2026-04-25T15:39:55.967Z</time></trkpt><trkpt lat="40.154" lon="15.2495783"><ele>508.0</ele><time>2026-04-25T15:39:56.901Z</time></trkpt><trkpt lat="40.15393" lon="15.249635"><ele>506.2</ele><time>2026-04-25T15:39:57.906Z</time></trkpt><trkpt lat="40.153865" lon="15.249735"><ele>504.4</ele><time>2026-04-25T15:39:58.901Z</time></trkpt><trkpt lat="40.1537917" lon="15.2498217"><ele>502.59999999999997</ele><time>2026-04-25T15:39:59.909Z</time></trkpt><trkpt lat="40.153725" lon="15.2498967"><ele>500.79999999999995</ele><time>2026-04-25T15:40:00.909Z</time></trkpt><trkpt lat="40.1536517" lon="15.250015"><ele>499.0</ele><time>2026-04-25T15:40:02.904Z</time></trkpt><trkpt lat="40.153575" lon="15.250105"><ele>499.0</ele><time>2026-04-25T15:40:04.905Z</time></trkpt><trkpt lat="40.1535" lon="15.250215"><ele>499.0</ele><time>2026-04-25T15:40:06.911Z</time></trkpt><trkpt lat="40.15345" lon="15.25028"><ele>499.0</ele><time>2026-04-25T15:40:07.957Z</time></trkpt><trkpt lat="40.1534067" lon="15.2503717"><ele>499.0</ele><time>2026-04-25T15:40:08.909Z</time></trkpt><trkpt lat="40.1533567" lon="15.2504733"><ele>499.0</ele><time>2026-04-25T15:40:09.911Z</time></trkpt><trkpt lat="40.1533067" lon="15.2505983"><ele>501.4</ele><time>2026-04-25T15:40:10.909Z</time></trkpt><trkpt lat="40.153255" lon="15.2507183"><ele>503.79999999999995</ele><time>2026-04-25T15:40:11.908Z</time></trkpt><trkpt lat="40.1531967" lon="15.25083"><ele>506.20000000000005</ele><time>2026-04-25T15:40:12.908Z</time></trkpt><trkpt lat="40.15314" lon="15.2509317"><ele>508.6</ele><time>2026-04-25T15:40:13.963Z</time></trkpt><trkpt lat="40.1530783" lon="15.25102"><ele>511.0</ele><time>2026-04-25T15:40:14.903Z</time></trkpt><trkpt lat="40.1530117" lon="15.2511033"><ele>511.00000000000006</ele><time>2026-04-25T15:40:15.912Z</time></trkpt><trkpt lat="40.1529483" lon="15.2511767"><ele>511.0</ele><time>2026-04-25T15:40:16.91Z</time></trkpt><trkpt lat="40.1528817" lon="15.2512317"><ele>511.0</ele><time>2026-04-25T15:40:17.913Z</time></trkpt><trkpt lat="40.1529683" lon="15.2512317"><ele>511.0</ele><time>2026-04-25T15:40:34.904Z</time></trkpt><trkpt lat="40.15307" lon="15.251175"><ele>511.00000000000006</ele><time>2026-04-25T15:40:36.911Z</time></trkpt><trkpt lat="40.1531217" lon="15.2511267"><ele>511.0</ele><time>2026-04-25T15:40:37.959Z</time></trkpt><trkpt lat="40.1531767" lon="15.25107"><ele>511.33333333333337</ele><time>2026-04-25T15:40:38.901Z</time></trkpt><trkpt lat="40.153225" lon="15.251005"><ele>511.6666666666667</ele><time>2026-04-25T15:40:39.914Z</time></trkpt><trkpt lat="40.1532667" lon="15.2509333"><ele>512.0</ele><time>2026-04-25T15:40:40.905Z</time></trkpt><trkpt lat="40.1533" lon="15.2508367"><ele>512.3333333333334</ele><time>2026-04-25T15:40:41.911Z</time></trkpt><trkpt lat="40.1533383" lon="15.2507267"><ele>512.6666666666666</ele><time>2026-04-25T15:40:42.903Z</time></trkpt><trkpt lat="40.1533917" lon="15.25061"><ele>513.0</ele><time>2026-04-25T15:40:43.969Z</time></trkpt><trkpt lat="40.1534383" lon="15.25051"><ele>510.6666666666667</ele><time>2026-04-25T15:40:44.902Z</time></trkpt><trkpt lat="40.1534783" lon="15.25042"><ele>508.33333333333337</ele><time>2026-04-25T15:40:45.91Z</time></trkpt><trkpt lat="40.153515" lon="15.25033"><ele>506.0</ele><time>2026-04-25T15:40:46.912Z</time></trkpt><trkpt lat="40.153555" lon="15.2502"><ele>503.6666666666667</ele><time>2026-04-25T15:40:48.906Z</time></trkpt><trkpt lat="40.1536083" lon="15.2501433"><ele>501.33333333333337</ele><time>2026-04-25T15:40:51.903Z</time></trkpt><trkpt lat="40.153515" lon="15.2501667"><ele>499.0</ele><time>2026-04-25T15:40:55.943Z</time></trkpt><trkpt lat="40.1534633" lon="15.2502517"><ele>499.0</ele><time>2026-04-25T15:40:56.906Z</time></trkpt><trkpt lat="40.1534133" lon="15.250315"><ele>499.0</ele><time>2026-04-25T15:40:57.912Z</time></trkpt><trkpt lat="40.1533767" lon="15.2503933"><ele>499.0</ele><time>2026-04-25T15:40:58.907Z</time></trkpt><trkpt lat="40.1533417" lon="15.2505317"><ele>499.0</ele><time>2026-04-25T15:40:59.908Z</time></trkpt><trkpt lat="40.1532883" lon="15.2506483"><ele>499.0</ele><time>2026-04-25T15:41:00.906Z</time></trkpt><trkpt lat="40.1532117" lon="15.25073"><ele>502.0</ele><time>2026-04-25T15:41:01.967Z</time></trkpt><trkpt lat="40.1531167" lon="15.2508067"><ele>505.0</ele><time>2026-04-25T15:41:02.909Z</time></trkpt><trkpt lat="40.1529883" lon="15.25088"><ele>508.0</ele><time>2026-04-25T15:41:03.907Z</time></trkpt><trkpt lat="40.1528733" lon="15.2509467"><ele>511.0</ele><time>2026-04-25T15:41:04.911Z</time></trkpt><trkpt lat="40.1527417" lon="15.2509883"><ele>511.0</ele><time>2026-04-25T15:41:05.914Z</time></trkpt><trkpt lat="40.1526133" lon="15.2510467"><ele>511.0</ele><time>2026-04-25T15:41:06.914Z</time></trkpt><trkpt lat="40.1524667" lon="15.2510683"><ele>511.0</ele><time>2026-04-25T15:41:07.956Z</time></trkpt><trkpt lat="40.1523283" lon="15.2511117"><ele>511.0</ele><time>2026-04-25T15:41:08.907Z</time></trkpt><trkpt lat="40.1521917" lon="15.2511767"><ele>508.0</ele><time>2026-04-25T15:41:09.906Z</time></trkpt><trkpt lat="40.1520467" lon="15.251225"><ele>505.0</ele><time>2026-04-25T15:41:10.907Z</time></trkpt><trkpt lat="40.1519083" lon="15.2512717"><ele>502.0</ele><time>2026-04-25T15:41:11.909Z</time></trkpt><trkpt lat="40.1517917" lon="15.2513283"><ele>499.0</ele><time>2026-04-25T15:41:12.911Z</time></trkpt><trkpt lat="40.151685" lon="15.251385"><ele>499.0</ele><time>2026-04-25T15:41:13.951Z</time></trkpt><trkpt lat="40.1515967" lon="15.251435"><ele>499.0</ele><time>2026-04-25T15:41:14.905Z</time></trkpt><trkpt lat="40.151525" lon="15.2515183"><ele>499.0</ele><time>2026-04-25T15:41:15.907Z</time></trkpt><trkpt lat="40.1514533" lon="15.2515933"><ele>499.0</ele><time>2026-04-25T15:41:16.905Z</time></trkpt><trkpt lat="40.1513917" lon="15.2516917"><ele>499.0</ele><time>2026-04-25T15:41:17.914Z</time></trkpt><trkpt lat="40.151325" lon="15.25178"><ele>500.6</ele><time>2026-04-25T15:41:18.907Z</time></trkpt><trkpt lat="40.151245" lon="15.251855"><ele>502.2</ele><time>2026-04-25T15:41:19.961Z</time></trkpt><trkpt lat="40.1511967" lon="15.25196"><ele>503.80000000000007</ele><time>2026-04-25T15:41:20.904Z</time></trkpt><trkpt lat="40.1511467" lon="15.2520617"><ele>505.40000000000003</ele><time>2026-04-25T15:41:21.908Z</time></trkpt><trkpt lat="40.1511167" lon="15.2521633"><ele>507.0</ele><time>2026-04-25T15:41:22.907Z</time></trkpt><trkpt lat="40.1510867" lon="15.252265"><ele>511.0</ele><time>2026-04-25T15:41:23.911Z</time></trkpt><trkpt lat="40.1510633" lon="15.2523783"><ele>515.0</ele><time>2026-04-25T15:41:24.912Z</time></trkpt><trkpt lat="40.1510633" lon="15.25248"><ele>519.0</ele><time>2026-04-25T15:41:25.972Z</time></trkpt><trkpt lat="40.1509667" lon="15.2525933"><ele>523.0</ele><time>2026-04-25T15:41:27.909Z</time></trkpt><trkpt lat="40.1509017" lon="15.2526383"><ele>527.0</ele><time>2026-04-25T15:41:28.91Z</time></trkpt><trkpt lat="40.15084" lon="15.25271"><ele>527.0</ele><time>2026-04-25T15:41:29.904Z</time></trkpt><trkpt lat="40.1507833" lon="15.2527867"><ele>527.0</ele><time>2026-04-25T15:41:30.908Z</time></trkpt><trkpt lat="40.150745" lon="15.2529"><ele>527.0</ele><time>2026-04-25T15:41:31.966Z</time></trkpt><trkpt lat="40.15071" lon="15.2530067"><ele>527.0</ele><time>2026-04-25T15:41:32.909Z</time></trkpt><trkpt lat="40.150675" lon="15.25311"><ele>527.0</ele><time>2026-04-25T15:41:33.916Z</time></trkpt><trkpt lat="40.1506267" lon="15.2531933"><ele>527.0</ele><time>2026-04-25T15:41:34.909Z</time></trkpt><trkpt lat="40.15057" lon="15.2532617"><ele>524.5</ele><time>2026-04-25T15:41:35.907Z</time></trkpt><trkpt lat="40.1504867" lon="15.2532633"><ele>522.0</ele><time>2026-04-25T15:41:36.905Z</time></trkpt><trkpt lat="40.1503717" lon="15.25314"><ele>519.5</ele><time>2026-04-25T15:41:37.953Z</time></trkpt><trkpt lat="40.1502883" lon="15.2531183"><ele>517.0</ele><time>2026-04-25T15:41:38.908Z</time></trkpt><trkpt lat="40.149935" lon="15.25329"><ele>525.0</ele><time>2026-04-25T15:41:43.954Z</time></trkpt><trkpt lat="40.1498767" lon="15.2533783"><ele>533.0</ele><time>2026-04-25T15:41:44.9Z</time></trkpt><trkpt lat="40.1496033" lon="15.253685"><ele>541.0</ele><time>2026-04-25T15:41:49.957Z</time></trkpt><trkpt lat="40.14955" lon="15.253625"><ele>547.0</ele><time>2026-04-25T15:41:50.908Z</time></trkpt><trkpt lat="40.1494883" lon="15.2532467"><ele>553.0</ele><time>2026-04-25T15:41:51.904Z</time></trkpt><trkpt lat="40.1493717" lon="15.25299"><ele>553.0</ele><time>2026-04-25T15:41:52.907Z</time></trkpt><trkpt lat="40.1493083" lon="15.252775"><ele>553.0</ele><time>2026-04-25T15:41:53.906Z</time></trkpt><trkpt lat="40.1492417" lon="15.252535"><ele>553.0</ele><time>2026-04-25T15:41:54.912Z</time></trkpt><trkpt lat="40.1491833" lon="15.2522717"><ele>548.5</ele><time>2026-04-25T15:41:55.979Z</time></trkpt><trkpt lat="40.1491333" lon="15.251955"><ele>544.0</ele><time>2026-04-25T15:41:56.903Z</time></trkpt><trkpt lat="40.1490733" lon="15.2516133"><ele>540.0</ele><time>2026-04-25T15:41:57.908Z</time></trkpt><trkpt lat="40.1490583" lon="15.2513017"><ele>536.0</ele><time>2026-04-25T15:41:58.907Z</time></trkpt><trkpt lat="40.1490317" lon="15.25102"><ele>532.3333333333333</ele><time>2026-04-25T15:41:59.908Z</time></trkpt><trkpt lat="40.1490267" lon="15.250785"><ele>528.6666666666666</ele><time>2026-04-25T15:42:00.909Z</time></trkpt><trkpt lat="40.1490533" lon="15.2505867"><ele>525.0</ele><time>2026-04-25T15:42:01.974Z</time></trkpt><trkpt lat="40.1491" lon="15.25044"><ele>525.0</ele><time>2026-04-25T15:42:02.906Z</time></trkpt><trkpt lat="40.1491967" lon="15.25038"><ele>525.0</ele><time>2026-04-25T15:42:03.903Z</time></trkpt><trkpt lat="40.1492667" lon="15.2503767"><ele>525.0</ele><time>2026-04-25T15:42:04.909Z</time></trkpt><trkpt lat="40.1492" lon="15.2504317"><ele>525.0</ele><time>2026-04-25T15:42:07.957Z</time></trkpt><trkpt lat="40.14912" lon="15.2506583"><ele>525.0</ele><time>2026-04-25T15:42:09.912Z</time></trkpt><trkpt lat="40.1490917" lon="15.2508033"><ele>526.8333333333334</ele><time>2026-04-25T15:42:10.906Z</time></trkpt><trkpt lat="40.1490783" lon="15.2509333"><ele>528.6666666666666</ele><time>2026-04-25T15:42:11.909Z</time></trkpt><trkpt lat="40.149075" lon="15.2510417"><ele>530.5</ele><time>2026-04-25T15:42:12.909Z</time></trkpt><trkpt lat="40.1490717" lon="15.2511417"><ele>532.3333333333333</ele><time>2026-04-25T15:42:14.905Z</time></trkpt><trkpt lat="40.1490733" lon="15.2510433"><ele>534.1666666666666</ele><time>2026-04-25T15:42:23.918Z</time></trkpt><trkpt lat="40.1491133" lon="15.2509533"><ele>536.0</ele><time>2026-04-25T15:42:50.907Z</time></trkpt><trkpt lat="40.1491267" lon="15.25084"><ele>536.0</ele><time>2026-04-25T15:42:53.912Z</time></trkpt><trkpt lat="40.1491317" lon="15.25071"><ele>536.0</ele><time>2026-04-25T15:42:55.977Z</time></trkpt><trkpt lat="40.1491167" lon="15.2505817"><ele>536.0</ele><time>2026-04-25T15:42:57.906Z</time></trkpt><trkpt lat="40.1490733" lon="15.250515"><ele>536.0</ele><time>2026-04-25T15:42:59.909Z</time></trkpt><trkpt lat="40.1490233" lon="15.2505783"><ele>536.0</ele><time>2026-04-25T15:43:02.907Z</time></trkpt><trkpt lat="40.1490017" lon="15.250745"><ele>531.5</ele><time>2026-04-25T15:43:04.905Z</time></trkpt><trkpt lat="40.1489967" lon="15.25083"><ele>527.0</ele><time>2026-04-25T15:43:05.914Z</time></trkpt><trkpt lat="40.1489867" lon="15.2509317"><ele>522.5</ele><time>2026-04-25T15:43:06.91Z</time></trkpt><trkpt lat="40.148965" lon="15.251045"><ele>518.0</ele><time>2026-04-25T15:43:07.957Z</time></trkpt><trkpt lat="40.1489383" lon="15.2511583"><ele>513.5</ele><time>2026-04-25T15:43:08.902Z</time></trkpt><trkpt lat="40.1488933" lon="15.25125"><ele>509.0</ele><time>2026-04-25T15:43:09.909Z</time></trkpt><trkpt lat="40.148835" lon="15.2513433"><ele>509.0</ele><time>2026-04-25T15:43:10.912Z</time></trkpt><trkpt lat="40.1487617" lon="15.2514367"><ele>509.0</ele><time>2026-04-25T15:43:11.907Z</time></trkpt><trkpt lat="40.1486817" lon="15.25154"><ele>509.0</ele><time>2026-04-25T15:43:12.903Z</time></trkpt><trkpt lat="40.1486017" lon="15.2516367"><ele>509.0</ele><time>2026-04-25T15:43:13.949Z</time></trkpt><trkpt lat="40.14852" lon="15.25174"><ele>509.0</ele><time>2026-04-25T15:43:14.903Z</time></trkpt><trkpt lat="40.1484383" lon="15.2518583"><ele>507.25</ele><time>2026-04-25T15:43:15.909Z</time></trkpt><trkpt lat="40.14835" lon="15.251995"><ele>505.5</ele><time>2026-04-25T15:43:16.906Z</time></trkpt><trkpt lat="40.1482683" lon="15.2521333"><ele>503.75</ele><time>2026-04-25T15:43:17.906Z</time></trkpt><trkpt lat="40.1481867" lon="15.2522633"><ele>502.0</ele><time>2026-04-25T15:43:18.904Z</time></trkpt><trkpt lat="40.1481067" lon="15.25238"><ele>507.5</ele><time>2026-04-25T15:43:19.96Z</time></trkpt><trkpt lat="40.14804" lon="15.2525217"><ele>513.0</ele><time>2026-04-25T15:43:20.911Z</time></trkpt><trkpt lat="40.14798" lon="15.2526567"><ele>518.5</ele><time>2026-04-25T15:43:21.906Z</time></trkpt><trkpt lat="40.1479167" lon="15.2527683"><ele>524.0</ele><time>2026-04-25T15:43:22.902Z</time></trkpt><trkpt lat="40.1478533" lon="15.25289"><ele>524.0</ele><time>2026-04-25T15:43:23.906Z</time></trkpt><trkpt lat="40.1478083" lon="15.2530033"><ele>524.0</ele><time>2026-04-25T15:43:24.91Z</time></trkpt><trkpt lat="40.1477533" lon="15.2531117"><ele>524.0</ele><time>2026-04-25T15:43:25.95Z</time></trkpt><trkpt lat="40.147695" lon="15.2532267"><ele>524.0</ele><time>2026-04-25T15:43:26.906Z</time></trkpt><trkpt lat="40.1476417" lon="15.2533483"><ele>524.0</ele><time>2026-04-25T15:43:27.903Z</time></trkpt><trkpt lat="40.1475883" lon="15.25348"><ele>530.0</ele><time>2026-04-25T15:43:28.911Z</time></trkpt><trkpt lat="40.1475617" lon="15.2536467"><ele>536.0</ele><time>2026-04-25T15:43:29.913Z</time></trkpt><trkpt lat="40.1475933" lon="15.2538733"><ele>542.0</ele><time>2026-04-25T15:43:30.91Z</time></trkpt><trkpt lat="40.14757" lon="15.2540583"><ele>542.5</ele><time>2026-04-25T15:43:31.974Z</time></trkpt><trkpt lat="40.1475333" lon="15.254215"><ele>543.0</ele><time>2026-04-25T15:43:32.903Z</time></trkpt><trkpt lat="40.147485" lon="15.2543583"><ele>543.5</ele><time>2026-04-25T15:43:33.908Z</time></trkpt><trkpt lat="40.1474267" lon="15.2545083"><ele>544.0</ele><time>2026-04-25T15:43:34.908Z</time></trkpt><trkpt lat="40.147365" lon="15.2546717"><ele>546.25</ele><time>2026-04-25T15:43:35.913Z</time></trkpt><trkpt lat="40.1473133" lon="15.2548333"><ele>548.5</ele><time>2026-04-25T15:43:36.91Z</time></trkpt><trkpt lat="40.147265" lon="15.2549983"><ele>550.75</ele><time>2026-04-25T15:43:37.958Z</time></trkpt><trkpt lat="40.147205" lon="15.255145"><ele>553.0</ele><time>2026-04-25T15:43:38.903Z</time></trkpt><trkpt lat="40.147145" lon="15.2552783"><ele>553.0</ele><time>2026-04-25T15:43:39.912Z</time></trkpt><trkpt lat="40.147085" lon="15.255405"><ele>553.0</ele><time>2026-04-25T15:43:40.906Z</time></trkpt><trkpt lat="40.147005" lon="15.255515"><ele>553.0</ele><time>2026-04-25T15:43:41.912Z</time></trkpt><trkpt lat="40.1469283" lon="15.2556317"><ele>553.0</ele><time>2026-04-25T15:43:42.903Z</time></trkpt><trkpt lat="40.14685" lon="15.2557483"><ele>555.6</ele><time>2026-04-25T15:43:43.957Z</time></trkpt><trkpt lat="40.1467767" lon="15.2558667"><ele>558.1999999999999</ele><time>2026-04-25T15:43:44.898Z</time></trkpt><trkpt lat="40.1466967" lon="15.2559617"><ele>560.8</ele><time>2026-04-25T15:43:45.909Z</time></trkpt><trkpt lat="40.14662" lon="15.25603"><ele>563.4</ele><time>2026-04-25T15:43:46.904Z</time></trkpt><trkpt lat="40.14656" lon="15.256075"><ele>566.0</ele><time>2026-04-25T15:43:47.911Z</time></trkpt><trkpt lat="40.1465317" lon="15.2559917"><ele>574.25</ele><time>2026-04-25T15:43:50.903Z</time></trkpt><trkpt lat="40.146515" lon="15.2558933"><ele>582.5</ele><time>2026-04-25T15:43:51.911Z</time></trkpt><trkpt lat="40.1465" lon="15.2558083"><ele>590.75</ele><time>2026-04-25T15:43:52.912Z</time></trkpt><trkpt lat="40.1464533" lon="15.255635"><ele>599.0</ele><time>2026-04-25T15:43:53.908Z</time></trkpt><trkpt lat="40.1464017" lon="15.2554167"><ele>597.0</ele><time>2026-04-25T15:43:54.911Z</time></trkpt><trkpt lat="40.1463933" lon="15.255205"><ele>595.0</ele><time>2026-04-25T15:43:55.979Z</time></trkpt><trkpt lat="40.1463633" lon="15.2549667"><ele>593.0</ele><time>2026-04-25T15:43:56.906Z</time></trkpt><trkpt lat="40.14633" lon="15.2547183"><ele>593.0</ele><time>2026-04-25T15:43:57.908Z</time></trkpt><trkpt lat="40.1463" lon="15.2544417"><ele>593.0</ele><time>2026-04-25T15:43:58.905Z</time></trkpt><trkpt lat="40.1462483" lon="15.25421"><ele>593.0</ele><time>2026-04-25T15:43:59.903Z</time></trkpt><trkpt lat="40.1461333" lon="15.2539433"><ele>586.0</ele><time>2026-04-25T15:44:00.909Z</time></trkpt><trkpt lat="40.1460283" lon="15.253725"><ele>579.0</ele><time>2026-04-25T15:44:01.968Z</time></trkpt><trkpt lat="40.145935" lon="15.2535183"><ele>572.0</ele><time>2026-04-25T15:44:02.904Z</time></trkpt><trkpt lat="40.1458317" lon="15.2533333"><ele>572.0</ele><time>2026-04-25T15:44:03.909Z</time></trkpt><trkpt lat="40.1457733" lon="15.25315"><ele>572.0</ele><time>2026-04-25T15:44:04.903Z</time></trkpt><trkpt lat="40.1457567" lon="15.253005"><ele>572.0</ele><time>2026-04-25T15:44:05.905Z</time></trkpt><trkpt lat="40.145755" lon="15.25286"><ele>572.0</ele><time>2026-04-25T15:44:06.911Z</time></trkpt><trkpt lat="40.1457617" lon="15.252735"><ele>572.0</ele><time>2026-04-25T15:44:07.959Z</time></trkpt><trkpt lat="40.14579" lon="15.25263"><ele>572.0</ele><time>2026-04-25T15:44:08.904Z</time></trkpt><trkpt lat="40.145815" lon="15.25255"><ele>572.0</ele><time>2026-04-25T15:44:09.91Z</time></trkpt><trkpt lat="40.1458567" lon="15.252435"><ele>572.0</ele><time>2026-04-25T15:44:11.911Z</time></trkpt><trkpt lat="40.1458683" lon="15.252345"><ele>572.0</ele><time>2026-04-25T15:44:14.906Z</time></trkpt><trkpt lat="40.1458917" lon="15.2525167"><ele>572.0</ele><time>2026-04-25T15:44:19.964Z</time></trkpt><trkpt lat="40.14591" lon="15.2526317"><ele>572.0</ele><time>2026-04-25T15:44:20.907Z</time></trkpt><trkpt lat="40.1459183" lon="15.252755"><ele>572.0</ele><time>2026-04-25T15:44:21.912Z</time></trkpt><trkpt lat="40.1458967" lon="15.252885"><ele>572.0</ele><time>2026-04-25T15:44:22.907Z</time></trkpt><trkpt lat="40.1458833" lon="15.253005"><ele>572.0</ele><time>2026-04-25T15:44:23.91Z</time></trkpt><trkpt lat="40.1458767" lon="15.253125"><ele>572.0</ele><time>2026-04-25T15:44:24.907Z</time></trkpt><trkpt lat="40.1458733" lon="15.2532417"><ele>572.0</ele><time>2026-04-25T15:44:25.974Z</time></trkpt><trkpt lat="40.145885" lon="15.2533517"><ele>572.0</ele><time>2026-04-25T15:44:26.908Z</time></trkpt><trkpt lat="40.1459133" lon="15.2534517"><ele>572.0</ele><time>2026-04-25T15:44:27.907Z</time></trkpt><trkpt lat="40.1459867" lon="15.2535867"><ele>572.0</ele><time>2026-04-25T15:44:29.908Z</time></trkpt><trkpt lat="40.1460583" lon="15.2536467"><ele>572.0</ele><time>2026-04-25T15:44:31.972Z</time></trkpt><trkpt lat="40.1459567" lon="15.2536633"><ele>572.0</ele><time>2026-04-25T15:44:36.909Z</time></trkpt><trkpt lat="40.1458933" lon="15.25362"><ele>572.0</ele><time>2026-04-25T15:44:37.96Z</time></trkpt><trkpt lat="40.1458283" lon="15.2535617"><ele>572.0</ele><time>2026-04-25T15:44:38.905Z</time></trkpt><trkpt lat="40.1457617" lon="15.25349"><ele>572.0</ele><time>2026-04-25T15:44:39.913Z</time></trkpt><trkpt lat="40.1457033" lon="15.253405"><ele>572.0</ele><time>2026-04-25T15:44:40.908Z</time></trkpt><trkpt lat="40.1456517" lon="15.2533167"><ele>578.0</ele><time>2026-04-25T15:44:41.911Z</time></trkpt><trkpt lat="40.1456167" lon="15.2532317"><ele>584.0</ele><time>2026-04-25T15:44:42.903Z</time></trkpt><trkpt lat="40.14558" lon="15.2531367"><ele>590.0</ele><time>2026-04-25T15:44:43.956Z</time></trkpt><trkpt lat="40.1455533" lon="15.2530367"><ele>596.0</ele><time>2026-04-25T15:44:44.902Z</time></trkpt><trkpt lat="40.1455967" lon="15.2529167"><ele>602.0</ele><time>2026-04-25T15:44:45.905Z</time></trkpt><trkpt lat="40.1455833" lon="15.25279"><ele>608.0</ele><time>2026-04-25T15:44:46.909Z</time></trkpt><trkpt lat="40.1455433" lon="15.2526783"><ele>608.0</ele><time>2026-04-25T15:44:47.906Z</time></trkpt><trkpt lat="40.145525" lon="15.2525617"><ele>608.0</ele><time>2026-04-25T15:44:48.909Z</time></trkpt><trkpt lat="40.145505" lon="15.2524333"><ele>608.0</ele><time>2026-04-25T15:44:49.955Z</time></trkpt><trkpt lat="40.145485" lon="15.25229"><ele>608.0</ele><time>2026-04-25T15:44:50.903Z</time></trkpt><trkpt lat="40.1454733" lon="15.2521383"><ele>608.0</ele><time>2026-04-25T15:44:51.904Z</time></trkpt><trkpt lat="40.14546" lon="15.25198"><ele>606.1999999999999</ele><time>2026-04-25T15:44:52.906Z</time></trkpt><trkpt lat="40.1454467" lon="15.2518233"><ele>604.4</ele><time>2026-04-25T15:44:53.912Z</time></trkpt><trkpt lat="40.1454383" lon="15.2516767"><ele>602.5999999999999</ele><time>2026-04-25T15:44:54.904Z</time></trkpt><trkpt lat="40.1454567" lon="15.25155"><ele>600.8</ele><time>2026-04-25T15:44:55.974Z</time></trkpt><trkpt lat="40.1454833" lon="15.2514167"><ele>599.0</ele><time>2026-04-25T15:44:56.903Z</time></trkpt><trkpt lat="40.1455133" lon="15.2512983"><ele>595.7142857142858</ele><time>2026-04-25T15:44:57.906Z</time></trkpt><trkpt lat="40.145525" lon="15.2512083"><ele>592.4285714285714</ele><time>2026-04-25T15:44:58.903Z</time></trkpt><trkpt lat="40.1455317" lon="15.2511233"><ele>589.1428571428571</ele><time>2026-04-25T15:44:59.915Z</time></trkpt><trkpt lat="40.14547" lon="15.251055"><ele>585.8571428571429</ele><time>2026-04-25T15:45:01.998Z</time></trkpt><trkpt lat="40.1454067" lon="15.2510617"><ele>582.5714285714286</ele><time>2026-04-25T15:45:03.914Z</time></trkpt><trkpt lat="40.1453633" lon="15.2511717"><ele>579.2857142857143</ele><time>2026-04-25T15:45:05.906Z</time></trkpt><trkpt lat="40.1453583" lon="15.251255"><ele>576.0</ele><time>2026-04-25T15:45:06.906Z</time></trkpt><trkpt lat="40.1453683" lon="15.2513467"><ele>580.6</ele><time>2026-04-25T15:45:07.953Z</time></trkpt><trkpt lat="40.14537" lon="15.2515067"><ele>585.2</ele><time>2026-04-25T15:45:09.904Z</time></trkpt><trkpt lat="40.1453167" lon="15.25166"><ele>589.8</ele><time>2026-04-25T15:45:11.907Z</time></trkpt><trkpt lat="40.1452817" lon="15.2517417"><ele>594.4</ele><time>2026-04-25T15:45:12.911Z</time></trkpt><trkpt lat="40.1452433" lon="15.2518367"><ele>599.0</ele><time>2026-04-25T15:45:13.957Z</time></trkpt><trkpt lat="40.1451967" lon="15.2519683"><ele>599.0</ele><time>2026-04-25T15:45:14.901Z</time></trkpt><trkpt lat="40.1451533" lon="15.2520767"><ele>599.0</ele><time>2026-04-25T15:45:15.911Z</time></trkpt><trkpt lat="40.1450983" lon="15.2521867"><ele>599.0</ele><time>2026-04-25T15:45:16.903Z</time></trkpt><trkpt lat="40.1450467" lon="15.2522383"><ele>599.0</ele><time>2026-04-25T15:45:17.913Z</time></trkpt><trkpt lat="40.144965" lon="15.2522367"><ele>599.0</ele><time>2026-04-25T15:45:19.955Z</time></trkpt><trkpt lat="40.1448483" lon="15.252175"><ele>598.1666666666666</ele><time>2026-04-25T15:45:21.904Z</time></trkpt><trkpt lat="40.1447683" lon="15.252155"><ele>597.3333333333333</ele><time>2026-04-25T15:45:22.919Z</time></trkpt><trkpt lat="40.1446917" lon="15.25215"><ele>596.5</ele><time>2026-04-25T15:45:23.912Z</time></trkpt><trkpt lat="40.14462" lon="15.2521567"><ele>595.6666666666666</ele><time>2026-04-25T15:45:24.908Z</time></trkpt><trkpt lat="40.1445317" lon="15.2521817"><ele>594.8333333333334</ele><time>2026-04-25T15:45:25.978Z</time></trkpt><trkpt lat="40.1444467" lon="15.2522333"><ele>594.0</ele><time>2026-04-25T15:45:26.901Z</time></trkpt><trkpt lat="40.1443533" lon="15.2522633"><ele>594.0</ele><time>2026-04-25T15:45:27.91Z</time></trkpt><trkpt lat="40.1442683" lon="15.25228"><ele>594.0</ele><time>2026-04-25T15:45:28.91Z</time></trkpt><trkpt lat="40.1441917" lon="15.2522917"><ele>594.0</ele><time>2026-04-25T15:45:29.911Z</time></trkpt><trkpt lat="40.1441267" lon="15.2523133"><ele>594.0</ele><time>2026-04-25T15:45:30.909Z</time></trkpt><trkpt lat="40.1440583" lon="15.2523583"><ele>594.0</ele><time>2026-04-25T15:45:31.96Z</time></trkpt><trkpt lat="40.143985" lon="15.2524167"><ele>594.0</ele><time>2026-04-25T15:45:32.907Z</time></trkpt><trkpt lat="40.1439067" lon="15.2524767"><ele>598.2</ele><time>2026-04-25T15:45:33.914Z</time></trkpt><trkpt lat="40.14383" lon="15.2525567"><ele>602.4</ele><time>2026-04-25T15:45:34.909Z</time></trkpt><trkpt lat="40.1437617" lon="15.2526517"><ele>606.6</ele><time>2026-04-25T15:45:35.914Z</time></trkpt><trkpt lat="40.1437083" lon="15.2527767"><ele>610.8</ele><time>2026-04-25T15:45:36.904Z</time></trkpt><trkpt lat="40.1436583" lon="15.2529133"><ele>615.0</ele><time>2026-04-25T15:45:37.956Z</time></trkpt><trkpt lat="40.1436083" lon="15.2530533"><ele>621.0</ele><time>2026-04-25T15:45:38.908Z</time></trkpt><trkpt lat="40.14356" lon="15.2531967"><ele>627.0</ele><time>2026-04-25T15:45:39.91Z</time></trkpt><trkpt lat="40.14352" lon="15.25334"><ele>633.0</ele><time>2026-04-25T15:45:40.908Z</time></trkpt><trkpt lat="40.1434817" lon="15.253465"><ele>639.0</ele><time>2026-04-25T15:45:41.907Z</time></trkpt><trkpt lat="40.1434467" lon="15.2535917"><ele>645.0</ele><time>2026-04-25T15:45:42.907Z</time></trkpt><trkpt lat="40.1434" lon="15.2536733"><ele>645.0</ele><time>2026-04-25T15:45:43.957Z</time></trkpt><trkpt lat="40.1433517" lon="15.2537533"><ele>645.0</ele><time>2026-04-25T15:45:44.906Z</time></trkpt><trkpt lat="40.1432833" lon="15.2537883"><ele>645.0</ele><time>2026-04-25T15:45:45.913Z</time></trkpt><trkpt lat="40.1432133" lon="15.253835"><ele>645.0</ele><time>2026-04-25T15:45:46.905Z</time></trkpt><trkpt lat="40.143145" lon="15.253885"><ele>645.0</ele><time>2026-04-25T15:45:47.912Z</time></trkpt><trkpt lat="40.1430767" lon="15.2539483"><ele>645.0</ele><time>2026-04-25T15:45:48.907Z</time></trkpt><trkpt lat="40.14302" lon="15.2540217"><ele>650.6666666666666</ele><time>2026-04-25T15:45:49.953Z</time></trkpt><trkpt lat="40.1429617" lon="15.2541033"><ele>656.3333333333334</ele><time>2026-04-25T15:45:50.903Z</time></trkpt><trkpt lat="40.142895" lon="15.2541633"><ele>662.0</ele><time>2026-04-25T15:45:51.909Z</time></trkpt><trkpt lat="40.1428267" lon="15.2542"><ele>667.6666666666667</ele><time>2026-04-25T15:45:52.904Z</time></trkpt><trkpt lat="40.1427567" lon="15.2542383"><ele>673.3333333333334</ele><time>2026-04-25T15:45:53.906Z</time></trkpt><trkpt lat="40.1426717" lon="15.254235"><ele>679.0</ele><time>2026-04-25T15:45:54.909Z</time></trkpt><trkpt lat="40.1425833" lon="15.2542433"><ele>679.0</ele><time>2026-04-25T15:45:55.988Z</time></trkpt><trkpt lat="40.142485" lon="15.25423"><ele>679.0</ele><time>2026-04-25T15:45:56.901Z</time></trkpt><trkpt lat="40.1423883" lon="15.2542167"><ele>679.0</ele><time>2026-04-25T15:45:57.906Z</time></trkpt><trkpt lat="40.1422917" lon="15.2542417"><ele>679.0</ele><time>2026-04-25T15:45:58.911Z</time></trkpt><trkpt lat="40.1422033" lon="15.2542933"><ele>679.0</ele><time>2026-04-25T15:45:59.908Z</time></trkpt><trkpt lat="40.14211" lon="15.25433"><ele>682.8333333333334</ele><time>2026-04-25T15:46:00.907Z</time></trkpt><trkpt lat="40.1420367" lon="15.25434"><ele>686.6666666666667</ele><time>2026-04-25T15:46:01.967Z</time></trkpt><trkpt lat="40.1419667" lon="15.2543233"><ele>690.5</ele><time>2026-04-25T15:46:02.903Z</time></trkpt><trkpt lat="40.1418983" lon="15.2542883"><ele>694.3333333333334</ele><time>2026-04-25T15:46:03.909Z</time></trkpt><trkpt lat="40.141845" lon="15.254225"><ele>698.1666666666666</ele><time>2026-04-25T15:46:04.906Z</time></trkpt><trkpt lat="40.1418" lon="15.2541517"><ele>702.0</ele><time>2026-04-25T15:46:05.907Z</time></trkpt><trkpt lat="40.1417317" lon="15.2540567"><ele>702.0</ele><time>2026-04-25T15:46:07.951Z</time></trkpt><trkpt lat="40.141635" lon="15.2540067"><ele>702.0</ele><time>2026-04-25T15:46:09.906Z</time></trkpt><trkpt lat="40.1415683" lon="15.2540133"><ele>702.0</ele><time>2026-04-25T15:46:10.903Z</time></trkpt><trkpt lat="40.1415033" lon="15.2540117"><ele>702.0</ele><time>2026-04-25T15:46:11.918Z</time></trkpt><trkpt lat="40.1413817" lon="15.2539817"><ele>702.0</ele><time>2026-04-25T15:46:13.954Z</time></trkpt><trkpt lat="40.1413183" lon="15.25394"><ele>702.0</ele><time>2026-04-25T15:46:14.905Z</time></trkpt><trkpt lat="40.14124" lon="15.25389"><ele>700.1666666666666</ele><time>2026-04-25T15:46:15.903Z</time></trkpt><trkpt lat="40.141175" lon="15.25388"><ele>698.3333333333334</ele><time>2026-04-25T15:46:16.905Z</time></trkpt><trkpt lat="40.1411017" lon="15.253885"><ele>696.5</ele><time>2026-04-25T15:46:17.908Z</time></trkpt><trkpt lat="40.14102" lon="15.2538883"><ele>694.6666666666667</ele><time>2026-04-25T15:46:18.906Z</time></trkpt><trkpt lat="40.1409383" lon="15.2538717"><ele>692.8333333333334</ele><time>2026-04-25T15:46:19.955Z</time></trkpt><trkpt lat="40.1408583" lon="15.253835"><ele>691.0</ele><time>2026-04-25T15:46:20.909Z</time></trkpt><trkpt lat="40.1407833" lon="15.2537717"><ele>693.1666666666667</ele><time>2026-04-25T15:46:21.913Z</time></trkpt><trkpt lat="40.140695" lon="15.25371"><ele>695.3333333333334</ele><time>2026-04-25T15:46:22.913Z</time></trkpt><trkpt lat="40.1406117" lon="15.2536633"><ele>697.5</ele><time>2026-04-25T15:46:23.909Z</time></trkpt><trkpt lat="40.140535" lon="15.25363"><ele>699.6666666666666</ele><time>2026-04-25T15:46:24.914Z</time></trkpt><trkpt lat="40.1404617" lon="15.2536267"><ele>701.8333333333333</ele><time>2026-04-25T15:46:25.968Z</time></trkpt><trkpt lat="40.14039" lon="15.2536133"><ele>704.0</ele><time>2026-04-25T15:46:26.903Z</time></trkpt><trkpt lat="40.1403033" lon="15.2535833"><ele>704.0</ele><time>2026-04-25T15:46:28.909Z</time></trkpt><trkpt lat="40.14027" lon="15.253675"><ele>704.0</ele><time>2026-04-25T15:46:32.899Z</time></trkpt><trkpt lat="40.1402733" lon="15.2537583"><ele>704.0</ele><time>2026-04-25T15:46:33.908Z</time></trkpt><trkpt lat="40.1402817" lon="15.2538767"><ele>704.0</ele><time>2026-04-25T15:46:34.905Z</time></trkpt><trkpt lat="40.1402883" lon="15.2539917"><ele>704.0</ele><time>2026-04-25T15:46:35.915Z</time></trkpt><trkpt lat="40.1403183" lon="15.2541733"><ele>703.4000000000001</ele><time>2026-04-25T15:46:36.904Z</time></trkpt><trkpt lat="40.1403367" lon="15.254315"><ele>702.8</ele><time>2026-04-25T15:46:37.953Z</time></trkpt><trkpt lat="40.140345" lon="15.2544467"><ele>702.2</ele><time>2026-04-25T15:46:38.906Z</time></trkpt><trkpt lat="40.14034" lon="15.2545683"><ele>701.5999999999999</ele><time>2026-04-25T15:46:39.902Z</time></trkpt><trkpt lat="40.1403283" lon="15.25468"><ele>701.0</ele><time>2026-04-25T15:46:40.905Z</time></trkpt><trkpt lat="40.14031" lon="15.2548133"><ele>704.0</ele><time>2026-04-25T15:46:41.903Z</time></trkpt><trkpt lat="40.1402817" lon="15.254975"><ele>707.0</ele><time>2026-04-25T15:46:42.905Z</time></trkpt><trkpt lat="40.1402167" lon="15.2551283"><ele>710.0</ele><time>2026-04-25T15:46:43.947Z</time></trkpt><trkpt lat="40.1401583" lon="15.2552883"><ele>713.0</ele><time>2026-04-25T15:46:44.902Z</time></trkpt><trkpt lat="40.140105" lon="15.2554433"><ele>713.0</ele><time>2026-04-25T15:46:45.909Z</time></trkpt><trkpt lat="40.1400533" lon="15.2555783"><ele>713.0</ele><time>2026-04-25T15:46:46.904Z</time></trkpt><trkpt lat="40.14001" lon="15.2557117"><ele>713.0</ele><time>2026-04-25T15:46:47.911Z</time></trkpt><trkpt lat="40.1399717" lon="15.2558267"><ele>713.0</ele><time>2026-04-25T15:46:48.917Z</time></trkpt><trkpt lat="40.1399733" lon="15.25601"><ele>715.3333333333333</ele><time>2026-04-25T15:46:50.906Z</time></trkpt><trkpt lat="40.1399933" lon="15.256095"><ele>717.6666666666666</ele><time>2026-04-25T15:46:51.9Z</time></trkpt><trkpt lat="40.1400267" lon="15.256175"><ele>720.0</ele><time>2026-04-25T15:46:52.906Z</time></trkpt><trkpt lat="40.140075" lon="15.2562633"><ele>722.3333333333334</ele><time>2026-04-25T15:46:53.909Z</time></trkpt><trkpt lat="40.14014" lon="15.2563667"><ele>724.6666666666667</ele><time>2026-04-25T15:46:54.911Z</time></trkpt><trkpt lat="40.1402083" lon="15.2564733"><ele>727.0</ele><time>2026-04-25T15:46:55.972Z</time></trkpt><trkpt lat="40.14025" lon="15.25658"><ele>727.0</ele><time>2026-04-25T15:46:56.901Z</time></trkpt><trkpt lat="40.1402933" lon="15.2567033"><ele>727.0</ele><time>2026-04-25T15:46:57.906Z</time></trkpt><trkpt lat="40.140325" lon="15.256825"><ele>727.0</ele><time>2026-04-25T15:46:58.903Z</time></trkpt><trkpt lat="40.1403483" lon="15.2569567"><ele>727.0</ele><time>2026-04-25T15:46:59.908Z</time></trkpt><trkpt lat="40.1403633" lon="15.25709"><ele>727.0</ele><time>2026-04-25T15:47:00.904Z</time></trkpt><trkpt lat="40.1403517" lon="15.2572067"><ele>727.6</ele><time>2026-04-25T15:47:01.977Z</time></trkpt><trkpt lat="40.1403383" lon="15.2573267"><ele>728.2</ele><time>2026-04-25T15:47:02.906Z</time></trkpt><trkpt lat="40.1403383" lon="15.2574467"><ele>728.8</ele><time>2026-04-25T15:47:03.905Z</time></trkpt><trkpt lat="40.1403533" lon="15.2575583"><ele>729.4</ele><time>2026-04-25T15:47:04.901Z</time></trkpt><trkpt lat="40.140385" lon="15.2576783"><ele>730.0</ele><time>2026-04-25T15:47:05.914Z</time></trkpt><trkpt lat="40.140425" lon="15.25779"><ele>701.0</ele><time>2026-04-25T15:47:06.914Z</time></trkpt><trkpt lat="40.1403183" lon="15.2541733"><ele>701.0</ele><time>2026-04-25T15:46:36.904Z</time></trkpt><trkpt lat="40.1403367" lon="15.254315"><ele>701.0</ele><time>2026-04-25T15:46:37.953Z</time></trkpt><trkpt lat="40.140345" lon="15.2544467"><ele>701.0</ele><time>2026-04-25T15:46:38.906Z</time></trkpt><trkpt lat="40.14034" lon="15.2545683"><ele>701.0</ele><time>2026-04-25T15:46:39.902Z</time></trkpt><trkpt lat="40.1403283" lon="15.25468"><ele>701.0</ele><time>2026-04-25T15:46:40.905Z</time></trkpt><trkpt lat="40.14031" lon="15.2548133"><ele>704.0</ele><time>2026-04-25T15:46:41.903Z</time></trkpt><trkpt lat="40.1402817" lon="15.254975"><ele>707.0</ele><time>2026-04-25T15:46:42.905Z</time></trkpt><trkpt lat="40.1402167" lon="15.2551283"><ele>710.0</ele><time>2026-04-25T15:46:43.947Z</time></trkpt><trkpt lat="40.1401583" lon="15.2552883"><ele>713.0</ele><time>2026-04-25T15:46:44.902Z</time></trkpt><trkpt lat="40.140105" lon="15.2554433"><ele>713.0</ele><time>2026-04-25T15:46:45.909Z</time></trkpt><trkpt lat="40.1400533" lon="15.2555783"><ele>713.0</ele><time>2026-04-25T15:46:46.904Z</time></trkpt><trkpt lat="40.14001" lon="15.2557117"><ele>713.0</ele><time>2026-04-25T15:46:47.911Z</time></trkpt><trkpt lat="40.1399717" lon="15.2558267"><ele>713.0</ele><time>2026-04-25T15:46:48.917Z</time></trkpt><trkpt lat="40.1399733" lon="15.25601"><ele>715.3333333333333</ele><time>2026-04-25T15:46:50.906Z</time></trkpt><trkpt lat="40.1399933" lon="15.256095"><ele>717.6666666666666</ele><time>2026-04-25T15:46:51.9Z</time></trkpt><trkpt lat="40.1400267" lon="15.256175"><ele>720.0</ele><time>2026-04-25T15:46:52.906Z</time></trkpt><trkpt lat="40.140075" lon="15.2562633"><ele>722.3333333333334</ele><time>2026-04-25T15:46:53.909Z</time></trkpt><trkpt lat="40.14014" lon="15.2563667"><ele>724.6666666666667</ele><time>2026-04-25T15:46:54.911Z</time></trkpt><trkpt lat="40.1402083" lon="15.2564733"><ele>727.0</ele><time>2026-04-25T15:46:55.972Z</time></trkpt><trkpt lat="40.14025" lon="15.25658"><ele>727.0</ele><time>2026-04-25T15:46:56.901Z</time></trkpt><trkpt lat="40.1402933" lon="15.2567033"><ele>727.0</ele><time>2026-04-25T15:46:57.906Z</time></trkpt><trkpt lat="40.140325" lon="15.256825"><ele>727.0</ele><time>2026-04-25T15:46:58.903Z</time></trkpt><trkpt lat="40.1403483" lon="15.2569567"><ele>727.0</ele><time>2026-04-25T15:46:59.908Z</time></trkpt><trkpt lat="40.1403633" lon="15.25709"><ele>727.0</ele><time>2026-04-25T15:47:00.904Z</time></trkpt><trkpt lat="40.1403517" lon="15.2572067"><ele>727.6</ele><time>2026-04-25T15:47:01.977Z</time></trkpt><trkpt lat="40.1403383" lon="15.2573267"><ele>728.2</ele><time>2026-04-25T15:47:02.906Z</time></trkpt><trkpt lat="40.1403383" lon="15.2574467"><ele>728.8</ele><time>2026-04-25T15:47:03.905Z</time></trkpt><trkpt lat="40.1403533" lon="15.2575583"><ele>729.4</ele><time>2026-04-25T15:47:04.901Z</time></trkpt><trkpt lat="40.140385" lon="15.2576783"><ele>730.0</ele><time>2026-04-25T15:47:05.914Z</time></trkpt><trkpt lat="40.140425" lon="15.25779"><ele>730.0</ele><time>2026-04-25T15:47:06.914Z</time></trkpt><trkpt lat="40.1404783" lon="15.2579183"><ele>730.0</ele><time>2026-04-25T15:47:07.955Z</time></trkpt><trkpt lat="40.1405183" lon="15.2580417"><ele>730.0</ele><time>2026-04-25T15:47:08.91Z</time></trkpt><trkpt lat="40.140555" lon="15.2581717"><ele>730.0</ele><time>2026-04-25T15:47:09.913Z</time></trkpt><trkpt lat="40.1406" lon="15.2582867"><ele>730.0</ele><time>2026-04-25T15:47:10.898Z</time></trkpt><trkpt lat="40.1406533" lon="15.2584017"><ele>732.2</ele><time>2026-04-25T15:47:11.908Z</time></trkpt><trkpt lat="40.1407017" lon="15.2585367"><ele>734.4</ele><time>2026-04-25T15:47:12.909Z</time></trkpt><trkpt lat="40.1407433" lon="15.2586383"><ele>736.5999999999999</ele><time>2026-04-25T15:47:13.967Z</time></trkpt><trkpt lat="40.1407983" lon="15.2587283"><ele>738.8</ele><time>2026-04-25T15:47:14.911Z</time></trkpt><trkpt lat="40.1408317" lon="15.2588383"><ele>741.0</ele><time>2026-04-25T15:47:15.907Z</time></trkpt><trkpt lat="40.140855" lon="15.2589467"><ele>746.4</ele><time>2026-04-25T15:47:16.901Z</time></trkpt><trkpt lat="40.1408517" lon="15.2590683"><ele>751.8</ele><time>2026-04-25T15:47:17.905Z</time></trkpt><trkpt lat="40.1408183" lon="15.2591733"><ele>757.1999999999999</ele><time>2026-04-25T15:47:18.902Z</time></trkpt><trkpt lat="40.1407783" lon="15.259285"><ele>762.5999999999999</ele><time>2026-04-25T15:47:19.958Z</time></trkpt><trkpt lat="40.14074" lon="15.25938"><ele>768.0</ele><time>2026-04-25T15:47:20.904Z</time></trkpt><trkpt lat="40.1406817" lon="15.2594767"><ele>768.0</ele><time>2026-04-25T15:47:21.902Z</time></trkpt><trkpt lat="40.1406367" lon="15.2596117"><ele>768.0</ele><time>2026-04-25T15:47:22.903Z</time></trkpt><trkpt lat="40.1405917" lon="15.2597183"><ele>768.0</ele><time>2026-04-25T15:47:23.912Z</time></trkpt><trkpt lat="40.1405467" lon="15.2598333"><ele>768.0</ele><time>2026-04-25T15:47:24.907Z</time></trkpt><trkpt lat="40.1405017" lon="15.259965"><ele>768.0</ele><time>2026-04-25T15:47:25.987Z</time></trkpt><trkpt lat="40.1404683" lon="15.260095"><ele>771.4</ele><time>2026-04-25T15:47:26.905Z</time></trkpt><trkpt lat="40.1404317" lon="15.260215"><ele>774.8</ele><time>2026-04-25T15:47:27.908Z</time></trkpt><trkpt lat="40.1403933" lon="15.260345"><ele>778.2</ele><time>2026-04-25T15:47:28.919Z</time></trkpt><trkpt lat="40.1403317" lon="15.2604983"><ele>781.6</ele><time>2026-04-25T15:47:29.909Z</time></trkpt><trkpt lat="40.1402817" lon="15.2606133"><ele>785.0</ele><time>2026-04-25T15:47:30.907Z</time></trkpt><trkpt lat="40.1402267" lon="15.2607217"><ele>786.5</ele><time>2026-04-25T15:47:31.961Z</time></trkpt><trkpt lat="40.1401583" lon="15.2608317"><ele>788.0</ele><time>2026-04-25T15:47:32.903Z</time></trkpt><trkpt lat="40.1400917" lon="15.2609733"><ele>789.5</ele><time>2026-04-25T15:47:33.907Z</time></trkpt><trkpt lat="40.1400317" lon="15.2611067"><ele>791.0</ele><time>2026-04-25T15:47:34.906Z</time></trkpt><trkpt lat="40.1399833" lon="15.2612317"><ele>791.0</ele><time>2026-04-25T15:47:35.91Z</time></trkpt><trkpt lat="40.1399367" lon="15.2613633"><ele>791.0</ele><time>2026-04-25T15:47:36.906Z</time></trkpt><trkpt lat="40.1398883" lon="15.261515"><ele>791.0</ele><time>2026-04-25T15:47:37.961Z</time></trkpt><trkpt lat="40.13985" lon="15.2616783"><ele>791.0</ele><time>2026-04-25T15:47:38.901Z</time></trkpt><trkpt lat="40.13982" lon="15.2618417"><ele>787.25</ele><time>2026-04-25T15:47:39.909Z</time></trkpt><trkpt lat="40.139795" lon="15.2620067"><ele>783.5</ele><time>2026-04-25T15:47:40.907Z</time></trkpt><trkpt lat="40.139745" lon="15.2622"><ele>779.75</ele><time>2026-04-25T15:47:41.908Z</time></trkpt><trkpt lat="40.1397117" lon="15.2623817"><ele>776.0</ele><time>2026-04-25T15:47:42.912Z</time></trkpt><trkpt lat="40.1396983" lon="15.262535"><ele>776.0</ele><time>2026-04-25T15:47:43.956Z</time></trkpt><trkpt lat="40.1397217" lon="15.2626617"><ele>776.0</ele><time>2026-04-25T15:47:44.902Z</time></trkpt><trkpt lat="40.139765" lon="15.26279"><ele>776.0</ele><time>2026-04-25T15:47:45.912Z</time></trkpt><trkpt lat="40.139795" lon="15.262905"><ele>776.0</ele><time>2026-04-25T15:47:46.912Z</time></trkpt><trkpt lat="40.13981" lon="15.26301"><ele>776.0</ele><time>2026-04-25T15:47:47.904Z</time></trkpt><trkpt lat="40.1398133" lon="15.2631133"><ele>777.0</ele><time>2026-04-25T15:47:48.904Z</time></trkpt><trkpt lat="40.139815" lon="15.263215"><ele>778.0</ele><time>2026-04-25T15:47:49.952Z</time></trkpt><trkpt lat="40.1398067" lon="15.2633283"><ele>779.0</ele><time>2026-04-25T15:47:50.903Z</time></trkpt><trkpt lat="40.1397883" lon="15.263455"><ele>780.0</ele><time>2026-04-25T15:47:51.912Z</time></trkpt><trkpt lat="40.1397633" lon="15.26359"><ele>781.0</ele><time>2026-04-25T15:47:52.903Z</time></trkpt><trkpt lat="40.1397283" lon="15.26372"><ele>781.0</ele><time>2026-04-25T15:47:53.905Z</time></trkpt><trkpt lat="40.1396883" lon="15.2638467"><ele>781.0</ele><time>2026-04-25T15:47:54.908Z</time></trkpt><trkpt lat="40.13965" lon="15.2639583"><ele>781.0</ele><time>2026-04-25T15:47:55.97Z</time></trkpt><trkpt lat="40.1396417" lon="15.2640483"><ele>781.0</ele><time>2026-04-25T15:47:56.904Z</time></trkpt><trkpt lat="40.1396783" lon="15.2641617"><ele>781.0</ele><time>2026-04-25T15:47:57.908Z</time></trkpt><trkpt lat="40.1397033" lon="15.26428"><ele>783.6666666666666</ele><time>2026-04-25T15:47:58.903Z</time></trkpt><trkpt lat="40.1397383" lon="15.2643967"><ele>786.3333333333333</ele><time>2026-04-25T15:47:59.909Z</time></trkpt><trkpt lat="40.1397717" lon="15.2644883"><ele>789.0</ele><time>2026-04-25T15:48:00.904Z</time></trkpt><trkpt lat="40.1398" lon="15.264565"><ele>791.6666666666667</ele><time>2026-04-25T15:48:01.962Z</time></trkpt><trkpt lat="40.1398067" lon="15.26471"><ele>794.3333333333334</ele><time>2026-04-25T15:48:03.913Z</time></trkpt><trkpt lat="40.1397867" lon="15.2647883"><ele>797.0</ele><time>2026-04-25T15:48:04.905Z</time></trkpt><trkpt lat="40.13977" lon="15.2649483"><ele>797.2</ele><time>2026-04-25T15:48:06.904Z</time></trkpt><trkpt lat="40.1397717" lon="15.2650417"><ele>797.4000000000001</ele><time>2026-04-25T15:48:07.959Z</time></trkpt><trkpt lat="40.1397867" lon="15.2651433"><ele>797.5999999999999</ele><time>2026-04-25T15:48:08.902Z</time></trkpt><trkpt lat="40.1398133" lon="15.2652533"><ele>797.8</ele><time>2026-04-25T15:48:09.905Z</time></trkpt><trkpt lat="40.139855" lon="15.2653783"><ele>798.0</ele><time>2026-04-25T15:48:10.903Z</time></trkpt><trkpt lat="40.1399267" lon="15.265525"><ele>798.0</ele><time>2026-04-25T15:48:11.91Z</time></trkpt><trkpt lat="40.1400067" lon="15.26568"><ele>798.0</ele><time>2026-04-25T15:48:12.902Z</time></trkpt><trkpt lat="40.140075" lon="15.2658233"><ele>798.0</ele><time>2026-04-25T15:48:13.959Z</time></trkpt><trkpt lat="40.1401433" lon="15.26595"><ele>798.0</ele><time>2026-04-25T15:48:14.905Z</time></trkpt><trkpt lat="40.1402083" lon="15.2660533"><ele>798.0</ele><time>2026-04-25T15:48:15.901Z</time></trkpt><trkpt lat="40.1402717" lon="15.2661533"><ele>798.0</ele><time>2026-04-25T15:48:16.904Z</time></trkpt><trkpt lat="40.1403283" lon="15.266265"><ele>798.0</ele><time>2026-04-25T15:48:17.904Z</time></trkpt><trkpt lat="40.14039" lon="15.2663883"><ele>798.0</ele><time>2026-04-25T15:48:18.909Z</time></trkpt><trkpt lat="40.1404517" lon="15.2665283"><ele>798.0</ele><time>2026-04-25T15:48:19.95Z</time></trkpt><trkpt lat="40.1405083" lon="15.2666783"><ele>796.4</ele><time>2026-04-25T15:48:20.907Z</time></trkpt><trkpt lat="40.140555" lon="15.2668183"><ele>794.8</ele><time>2026-04-25T15:48:21.901Z</time></trkpt><trkpt lat="40.1405967" lon="15.2669467"><ele>793.2</ele><time>2026-04-25T15:48:22.905Z</time></trkpt><trkpt lat="40.1406383" lon="15.2670633"><ele>791.6</ele><time>2026-04-25T15:48:23.903Z</time></trkpt><trkpt lat="40.140565" lon="15.2670967"><ele>790.0</ele><time>2026-04-25T15:48:27.902Z</time></trkpt><trkpt lat="40.1404433" lon="15.2670117"><ele>790.0</ele><time>2026-04-25T15:48:29.91Z</time></trkpt><trkpt lat="40.14032" lon="15.26693"><ele>790.0</ele><time>2026-04-25T15:48:30.903Z</time></trkpt><trkpt lat="40.1402267" lon="15.266865"><ele>790.0</ele><time>2026-04-25T15:48:31.965Z</time></trkpt><trkpt lat="40.140135" lon="15.2667933"><ele>790.0</ele><time>2026-04-25T15:48:32.9Z</time></trkpt><trkpt lat="40.1400533" lon="15.26673"><ele>790.0</ele><time>2026-04-25T15:48:33.902Z</time></trkpt><trkpt lat="40.13998" lon="15.2666717"><ele>789.9999999999999</ele><time>2026-04-25T15:48:34.903Z</time></trkpt><trkpt lat="40.13991" lon="15.266605"><ele>790.0</ele><time>2026-04-25T15:48:35.912Z</time></trkpt><trkpt lat="40.1398467" lon="15.26653"><ele>790.0</ele><time>2026-04-25T15:48:36.912Z</time></trkpt><trkpt lat="40.139785" lon="15.2664483"><ele>790.0</ele><time>2026-04-25T15:48:37.952Z</time></trkpt><trkpt lat="40.13973" lon="15.2663617"><ele>789.9999999999999</ele><time>2026-04-25T15:48:38.905Z</time></trkpt><trkpt lat="40.1396783" lon="15.2662683"><ele>790.0</ele><time>2026-04-25T15:48:39.907Z</time></trkpt><trkpt lat="40.1396367" lon="15.2661767"><ele>787.6666666666666</ele><time>2026-04-25T15:48:40.903Z</time></trkpt><trkpt lat="40.13961" lon="15.2660867"><ele>785.3333333333333</ele><time>2026-04-25T15:48:41.909Z</time></trkpt><trkpt lat="40.1395867" lon="15.2660067"><ele>783.0</ele><time>2026-04-25T15:48:42.907Z</time></trkpt><trkpt lat="40.1395383" lon="15.2659183"><ele>780.6666666666667</ele><time>2026-04-25T15:48:44.908Z</time></trkpt><trkpt lat="40.1394967" lon="15.2659817"><ele>778.3333333333334</ele><time>2026-04-25T15:48:46.903Z</time></trkpt><trkpt lat="40.1394833" lon="15.2661817"><ele>776.0</ele><time>2026-04-25T15:48:48.903Z</time></trkpt><trkpt lat="40.139475" lon="15.2663133"><ele>776.0</ele><time>2026-04-25T15:48:49.967Z</time></trkpt><trkpt lat="40.1394683" lon="15.26643"><ele>776.0</ele><time>2026-04-25T15:48:50.903Z</time></trkpt><trkpt lat="40.1394917" lon="15.2665617"><ele>776.0</ele><time>2026-04-25T15:48:51.905Z</time></trkpt><trkpt lat="40.1395333" lon="15.266705"><ele>776.0</ele><time>2026-04-25T15:48:52.911Z</time></trkpt><trkpt lat="40.1395733" lon="15.2668383"><ele>776.0</ele><time>2026-04-25T15:48:53.913Z</time></trkpt><trkpt lat="40.1396017" lon="15.2669483"><ele>773.6666666666667</ele><time>2026-04-25T15:48:54.908Z</time></trkpt><trkpt lat="40.139625" lon="15.2670433"><ele>771.3333333333334</ele><time>2026-04-25T15:48:55.966Z</time></trkpt><trkpt lat="40.1396267" lon="15.2671367"><ele>769.0</ele><time>2026-04-25T15:48:56.904Z</time></trkpt><trkpt lat="40.139595" lon="15.2672117"><ele>766.6666666666667</ele><time>2026-04-25T15:48:57.91Z</time></trkpt><trkpt lat="40.1394967" lon="15.2672117"><ele>764.3333333333334</ele><time>2026-04-25T15:48:58.901Z</time></trkpt><trkpt lat="40.1394233" lon="15.2672233"><ele>762.0</ele><time>2026-04-25T15:48:59.906Z</time></trkpt><trkpt lat="40.1393367" lon="15.267215"><ele>762.0</ele><time>2026-04-25T15:49:00.905Z</time></trkpt><trkpt lat="40.1392467" lon="15.267215"><ele>762.0</ele><time>2026-04-25T15:49:01.965Z</time></trkpt><trkpt lat="40.13917" lon="15.2672317"><ele>762.0</ele><time>2026-04-25T15:49:02.898Z</time></trkpt><trkpt lat="40.1390967" lon="15.2672633"><ele>762.0</ele><time>2026-04-25T15:49:03.903Z</time></trkpt><trkpt lat="40.1390283" lon="15.2673217"><ele>762.0</ele><time>2026-04-25T15:49:04.909Z</time></trkpt><trkpt lat="40.138955" lon="15.2674083"><ele>762.0</ele><time>2026-04-25T15:49:05.911Z</time></trkpt><trkpt lat="40.1388883" lon="15.267515"><ele>757.0</ele><time>2026-04-25T15:49:06.906Z</time></trkpt><trkpt lat="40.1388183" lon="15.267615"><ele>752.0</ele><time>2026-04-25T15:49:07.951Z</time></trkpt><trkpt lat="40.138745" lon="15.2677033"><ele>747.0</ele><time>2026-04-25T15:49:08.905Z</time></trkpt><trkpt lat="40.1386817" lon="15.2677917"><ele>742.0</ele><time>2026-04-25T15:49:09.905Z</time></trkpt><trkpt lat="40.13863" lon="15.2679017"><ele>737.0</ele><time>2026-04-25T15:49:10.905Z</time></trkpt><trkpt lat="40.1385767" lon="15.2679983"><ele>737.0</ele><time>2026-04-25T15:49:11.909Z</time></trkpt><trkpt lat="40.1385233" lon="15.26809"><ele>737.0</ele><time>2026-04-25T15:49:12.906Z</time></trkpt><trkpt lat="40.138465" lon="15.268165"><ele>737.0</ele><time>2026-04-25T15:49:13.957Z</time></trkpt><trkpt lat="40.1383967" lon="15.2682383"><ele>737.0</ele><time>2026-04-25T15:49:14.899Z</time></trkpt><trkpt lat="40.1383283" lon="15.2683017"><ele>737.0</ele><time>2026-04-25T15:49:15.909Z</time></trkpt><trkpt lat="40.1382633" lon="15.268355"><ele>737.0</ele><time>2026-04-25T15:49:16.902Z</time></trkpt><trkpt lat="40.1381933" lon="15.2684083"><ele>735.6</ele><time>2026-04-25T15:49:17.91Z</time></trkpt><trkpt lat="40.138115" lon="15.2684567"><ele>734.2</ele><time>2026-04-25T15:49:18.903Z</time></trkpt><trkpt lat="40.138035" lon="15.2684883"><ele>732.8</ele><time>2026-04-25T15:49:19.951Z</time></trkpt><trkpt lat="40.13795" lon="15.2685083"><ele>731.4</ele><time>2026-04-25T15:49:20.903Z</time></trkpt><trkpt lat="40.137845" lon="15.2685267"><ele>730.0</ele><time>2026-04-25T15:49:21.909Z</time></trkpt><trkpt lat="40.1377433" lon="15.2685633"><ele>730.0</ele><time>2026-04-25T15:49:22.903Z</time></trkpt><trkpt lat="40.1376383" lon="15.2686067"><ele>730.0</ele><time>2026-04-25T15:49:23.905Z</time></trkpt><trkpt lat="40.1375083" lon="15.268635"><ele>730.0</ele><time>2026-04-25T15:49:24.903Z</time></trkpt><trkpt lat="40.1373833" lon="15.268665"><ele>730.0</ele><time>2026-04-25T15:49:25.964Z</time></trkpt><trkpt lat="40.1372667" lon="15.268695"><ele>726.8</ele><time>2026-04-25T15:49:26.905Z</time></trkpt><trkpt lat="40.13718" lon="15.268735"><ele>723.6</ele><time>2026-04-25T15:49:27.912Z</time></trkpt><trkpt lat="40.13709" lon="15.2687717"><ele>720.4000000000001</ele><time>2026-04-25T15:49:28.902Z</time></trkpt><trkpt lat="40.1370017" lon="15.2688083"><ele>717.2</ele><time>2026-04-25T15:49:29.908Z</time></trkpt><trkpt lat="40.1369167" lon="15.268845"><ele>714.0</ele><time>2026-04-25T15:49:30.906Z</time></trkpt><trkpt lat="40.13683" lon="15.268865"><ele>714.0</ele><time>2026-04-25T15:49:31.959Z</time></trkpt><trkpt lat="40.136745" lon="15.2688983"><ele>714.0</ele><time>2026-04-25T15:49:32.905Z</time></trkpt><trkpt lat="40.1366717" lon="15.2689317"><ele>714.0</ele><time>2026-04-25T15:49:33.9Z</time></trkpt><trkpt lat="40.1365983" lon="15.2689683"><ele>714.0</ele><time>2026-04-25T15:49:34.905Z</time></trkpt><trkpt lat="40.1365267" lon="15.269005"><ele>714.0</ele><time>2026-04-25T15:49:35.908Z</time></trkpt><trkpt lat="40.1364417" lon="15.269035"><ele>714.0</ele><time>2026-04-25T15:49:36.909Z</time></trkpt><trkpt lat="40.1363483" lon="15.2690267"><ele>719.0</ele><time>2026-04-25T15:49:37.96Z</time></trkpt><trkpt lat="40.13625" lon="15.26902"><ele>724.0</ele><time>2026-04-25T15:49:38.902Z</time></trkpt><trkpt lat="40.13615" lon="15.2690167"><ele>729.0</ele><time>2026-04-25T15:49:39.905Z</time></trkpt><trkpt lat="40.1360483" lon="15.26903"><ele>734.0</ele><time>2026-04-25T15:49:40.904Z</time></trkpt><trkpt lat="40.13594" lon="15.2690417"><ele>739.0</ele><time>2026-04-25T15:49:41.907Z</time></trkpt><trkpt lat="40.1358283" lon="15.2690433"><ele>739.0</ele><time>2026-04-25T15:49:42.923Z</time></trkpt><trkpt lat="40.1357333" lon="15.2690633"><ele>739.0</ele><time>2026-04-25T15:49:43.954Z</time></trkpt><trkpt lat="40.1356583" lon="15.269065"><ele>739.0</ele><time>2026-04-25T15:49:44.903Z</time></trkpt><trkpt lat="40.1355883" lon="15.2690733"><ele>739.0</ele><time>2026-04-25T15:49:45.909Z</time></trkpt><trkpt lat="40.1355133" lon="15.2690783"><ele>739.0</ele><time>2026-04-25T15:49:46.903Z</time></trkpt><trkpt lat="40.13544" lon="15.2691"><ele>739.0</ele><time>2026-04-25T15:49:47.921Z</time></trkpt><trkpt lat="40.135345" lon="15.26911"><ele>739.0</ele><time>2026-04-25T15:49:48.91Z</time></trkpt><trkpt lat="40.1352567" lon="15.2691133"><ele>739.0</ele><time>2026-04-25T15:49:49.958Z</time></trkpt><trkpt lat="40.135175" lon="15.2691267"><ele>739.0</ele><time>2026-04-25T15:49:50.907Z</time></trkpt><trkpt lat="40.1350933" lon="15.26913"><ele>739.0</ele><time>2026-04-25T15:49:51.91Z</time></trkpt><trkpt lat="40.1349917" lon="15.2690733"><ele>739.0</ele><time>2026-04-25T15:49:52.902Z</time></trkpt><trkpt lat="40.1349167" lon="15.269035"><ele>739.0</ele><time>2026-04-25T15:49:53.902Z</time></trkpt><trkpt lat="40.1348417" lon="15.2689533"><ele>731.6</ele><time>2026-04-25T15:49:54.903Z</time></trkpt><trkpt lat="40.1347633" lon="15.26886"><ele>724.2</ele><time>2026-04-25T15:49:55.972Z</time></trkpt><trkpt lat="40.1347017" lon="15.268785"><ele>716.8000000000001</ele><time>2026-04-25T15:49:56.901Z</time></trkpt><trkpt lat="40.134645" lon="15.268715"><ele>709.4000000000001</ele><time>2026-04-25T15:49:57.901Z</time></trkpt><trkpt lat="40.1347333" lon="15.2687483"><ele>702.0</ele><time>2026-04-25T15:50:29.905Z</time></trkpt><trkpt lat="40.1348283" lon="15.2687517"><ele>703.6</ele><time>2026-04-25T15:50:31.964Z</time></trkpt><trkpt lat="40.134955" lon="15.2687633"><ele>705.2</ele><time>2026-04-25T15:50:33.906Z</time></trkpt><trkpt lat="40.1350383" lon="15.2687917"><ele>706.8</ele><time>2026-04-25T15:50:34.906Z</time></trkpt><trkpt lat="40.13514" lon="15.2688433"><ele>708.4</ele><time>2026-04-25T15:50:35.902Z</time></trkpt><trkpt lat="40.13523" lon="15.2688717"><ele>710.0</ele><time>2026-04-25T15:50:36.904Z</time></trkpt><trkpt lat="40.1353267" lon="15.268905"><ele>710.0</ele><time>2026-04-25T15:50:37.949Z</time></trkpt><trkpt lat="40.13542" lon="15.2689267"><ele>710.0</ele><time>2026-04-25T15:50:38.906Z</time></trkpt><trkpt lat="40.13551" lon="15.2689417"><ele>710.0</ele><time>2026-04-25T15:50:39.911Z</time></trkpt><trkpt lat="40.13559" lon="15.2689567"><ele>710.0</ele><time>2026-04-25T15:50:40.9Z</time></trkpt><trkpt lat="40.1356617" lon="15.2689567"><ele>710.0</ele><time>2026-04-25T15:50:41.903Z</time></trkpt><trkpt lat="40.1357283" lon="15.2689733"><ele>710.0</ele><time>2026-04-25T15:50:43.953Z</time></trkpt><trkpt lat="40.1357167" lon="15.26908"><ele>714.8333333333333</ele><time>2026-04-25T15:50:48.906Z</time></trkpt><trkpt lat="40.135625" lon="15.2691217"><ele>719.6666666666666</ele><time>2026-04-25T15:50:49.945Z</time></trkpt><trkpt lat="40.13554" lon="15.2691467"><ele>724.5</ele><time>2026-04-25T15:50:50.903Z</time></trkpt><trkpt lat="40.13548" lon="15.2691917"><ele>729.3333333333334</ele><time>2026-04-25T15:50:51.905Z</time></trkpt><trkpt lat="40.1353933" lon="15.2692383"><ele>734.1666666666667</ele><time>2026-04-25T15:50:52.906Z</time></trkpt><trkpt lat="40.1353" lon="15.2692717"><ele>739.0</ele><time>2026-04-25T15:50:53.899Z</time></trkpt><trkpt lat="40.13519" lon="15.2693067"><ele>739.0</ele><time>2026-04-25T15:50:54.902Z</time></trkpt><trkpt lat="40.135095" lon="15.2693517"><ele>739.0</ele><time>2026-04-25T15:50:55.951Z</time></trkpt><trkpt lat="40.1350083" lon="15.269385"><ele>739.0</ele><time>2026-04-25T15:50:56.902Z</time></trkpt><trkpt lat="40.134925" lon="15.269415"><ele>739.0</ele><time>2026-04-25T15:50:57.907Z</time></trkpt><trkpt lat="40.1348317" lon="15.269445"><ele>739.0</ele><time>2026-04-25T15:50:58.908Z</time></trkpt><trkpt lat="40.13475" lon="15.269485"><ele>738.5</ele><time>2026-04-25T15:50:59.906Z</time></trkpt><trkpt lat="40.1346633" lon="15.2695083"><ele>738.0</ele><time>2026-04-25T15:51:00.906Z</time></trkpt><trkpt lat="40.1346017" lon="15.2695633"><ele>737.5</ele><time>2026-04-25T15:51:01.963Z</time></trkpt><trkpt lat="40.134555" lon="15.26964"><ele>737.0</ele><time>2026-04-25T15:51:02.9Z</time></trkpt><trkpt lat="40.13452" lon="15.2697467"><ele>736.5</ele><time>2026-04-25T15:51:03.9Z</time></trkpt><trkpt lat="40.134435" lon="15.2698617"><ele>736.0</ele><time>2026-04-25T15:51:05.905Z</time></trkpt><trkpt lat="40.1344033" lon="15.26994"><ele>736.0</ele><time>2026-04-25T15:51:06.902Z</time></trkpt><trkpt lat="40.1343517" lon="15.2699983"><ele>736.0</ele><time>2026-04-25T15:51:08.908Z</time></trkpt><trkpt lat="40.134365" lon="15.27008"><ele>736.0</ele><time>2026-04-25T15:51:11.905Z</time></trkpt><trkpt lat="40.134335" lon="15.270285"><ele>736.0</ele><time>2026-04-25T15:51:29.909Z</time></trkpt><trkpt lat="40.1343067" lon="15.2703883"><ele>736.0</ele><time>2026-04-25T15:51:31.964Z</time></trkpt><trkpt lat="40.134265" lon="15.2705067"><ele>736.0</ele><time>2026-04-25T15:51:33.911Z</time></trkpt><trkpt lat="40.1341867" lon="15.2705967"><ele>736.0</ele><time>2026-04-25T15:51:35.908Z</time></trkpt><trkpt lat="40.1341217" lon="15.2706983"><ele>736.0</ele><time>2026-04-25T15:51:37.952Z</time></trkpt><trkpt lat="40.1340567" lon="15.2708383"><ele>736.0</ele><time>2026-04-25T15:51:39.905Z</time></trkpt><trkpt lat="40.1340183" lon="15.27092"><ele>736.0</ele><time>2026-04-25T15:51:40.908Z</time></trkpt><trkpt lat="40.133975" lon="15.2709983"><ele>733.6666666666667</ele><time>2026-04-25T15:51:41.905Z</time></trkpt><trkpt lat="40.1339267" lon="15.2710767"><ele>731.3333333333334</ele><time>2026-04-25T15:51:42.903Z</time></trkpt><trkpt lat="40.133875" lon="15.2711433"><ele>729.0</ele><time>2026-04-25T15:51:43.948Z</time></trkpt><trkpt lat="40.13382" lon="15.2711883"><ele>726.6666666666666</ele><time>2026-04-25T15:51:44.906Z</time></trkpt><trkpt lat="40.1337233" lon="15.271275"><ele>724.3333333333333</ele><time>2026-04-25T15:51:46.904Z</time></trkpt><trkpt lat="40.1336633" lon="15.2713383"><ele>722.0</ele><time>2026-04-25T15:51:48.91Z</time></trkpt><trkpt lat="40.1336033" lon="15.2714367"><ele>726.0</ele><time>2026-04-25T15:51:51.909Z</time></trkpt><trkpt lat="40.1335083" lon="15.27151"><ele>730.0</ele><time>2026-04-25T15:51:53.908Z</time></trkpt><trkpt lat="40.133435" lon="15.2715933"><ele>734.0</ele><time>2026-04-25T15:51:55.961Z</time></trkpt><trkpt lat="40.1333617" lon="15.27164"><ele>738.0</ele><time>2026-04-25T15:51:57.91Z</time></trkpt><trkpt lat="40.1332833" lon="15.27166"><ele>742.0</ele><time>2026-04-25T15:51:59.904Z</time></trkpt><trkpt lat="40.133215" lon="15.2716883"><ele>746.0</ele><time>2026-04-25T15:52:01.956Z</time></trkpt><trkpt lat="40.13316" lon="15.2717583"><ele>746.0</ele><time>2026-04-25T15:52:03.904Z</time></trkpt><trkpt lat="40.1331083" lon="15.2718617"><ele>746.0</ele><time>2026-04-25T15:52:05.907Z</time></trkpt><trkpt lat="40.133" lon="15.2720183"><ele>746.0</ele><time>2026-04-25T15:52:56.905Z</time></trkpt><trkpt lat="40.1329233" lon="15.272045"><ele>746.0</ele><time>2026-04-25T15:53:05.91Z</time></trkpt><trkpt lat="40.132875" lon="15.2721033"><ele>746.0</ele><time>2026-04-25T15:53:07.961Z</time></trkpt><trkpt lat="40.1327567" lon="15.272125"><ele>746.0</ele><time>2026-04-25T15:53:20.903Z</time></trkpt><trkpt lat="40.1326433" lon="15.2721133"><ele>746.0</ele><time>2026-04-25T15:53:22.907Z</time></trkpt><trkpt lat="40.1325433" lon="15.27212"><ele>746.0</ele><time>2026-04-25T15:53:24.909Z</time></trkpt><trkpt lat="40.1324117" lon="15.2721367"><ele>746.0</ele><time>2026-04-25T15:53:26.902Z</time></trkpt><trkpt lat="40.1323283" lon="15.2721517"><ele>746.0</ele><time>2026-04-25T15:53:27.903Z</time></trkpt><trkpt lat="40.1322433" lon="15.2721733"><ele>745.4</ele><time>2026-04-25T15:53:28.904Z</time></trkpt><trkpt lat="40.1321633" lon="15.2721967"><ele>744.8</ele><time>2026-04-25T15:53:29.904Z</time></trkpt><trkpt lat="40.1320817" lon="15.2722233"><ele>744.1999999999999</ele><time>2026-04-25T15:53:30.906Z</time></trkpt><trkpt lat="40.1319933" lon="15.2722533"><ele>743.5999999999999</ele><time>2026-04-25T15:53:31.961Z</time></trkpt><trkpt lat="40.131895" lon="15.2722783"><ele>743.0</ele><time>2026-04-25T15:53:32.908Z</time></trkpt><trkpt lat="40.1317917" lon="15.272305"><ele>745.2</ele><time>2026-04-25T15:53:33.903Z</time></trkpt><trkpt lat="40.1316933" lon="15.272335"><ele>747.4</ele><time>2026-04-25T15:53:34.908Z</time></trkpt><trkpt lat="40.131585" lon="15.27236"><ele>749.6</ele><time>2026-04-25T15:53:35.906Z</time></trkpt><trkpt lat="40.1314883" lon="15.272385"><ele>751.8000000000001</ele><time>2026-04-25T15:53:36.907Z</time></trkpt><trkpt lat="40.1314" lon="15.2724"><ele>754.0</ele><time>2026-04-25T15:53:37.948Z</time></trkpt><trkpt lat="40.1313317" lon="15.27241"><ele>754.0</ele><time>2026-04-25T15:53:38.903Z</time></trkpt><trkpt lat="40.1312567" lon="15.272415"><ele>754.0</ele><time>2026-04-25T15:53:40.906Z</time></trkpt><trkpt lat="40.1311717" lon="15.272485"><ele>754.0</ele><time>2026-04-25T15:53:53.907Z</time></trkpt><trkpt lat="40.1310967" lon="15.27251"><ele>754.0</ele><time>2026-04-25T15:53:54.905Z</time></trkpt><trkpt lat="40.1310183" lon="15.2725267"><ele>754.0</ele><time>2026-04-25T15:53:55.978Z</time></trkpt><trkpt lat="40.1309333" lon="15.27254"><ele>754.0</ele><time>2026-04-25T15:53:56.901Z</time></trkpt><trkpt lat="40.1308517" lon="15.27255"><ele>754.0</ele><time>2026-04-25T15:53:57.901Z</time></trkpt><trkpt lat="40.130755" lon="15.2725567"><ele>754.0</ele><time>2026-04-25T15:53:58.902Z</time></trkpt><trkpt lat="40.1306467" lon="15.2725717"><ele>754.0</ele><time>2026-04-25T15:53:59.901Z</time></trkpt><trkpt lat="40.1305633" lon="15.2725967"><ele>754.0</ele><time>2026-04-25T15:54:00.902Z</time></trkpt><trkpt lat="40.13048" lon="15.2726233"><ele>754.0</ele><time>2026-04-25T15:54:01.961Z</time></trkpt><trkpt lat="40.1303967" lon="15.2726733"><ele>753.6</ele><time>2026-04-25T15:54:02.901Z</time></trkpt><trkpt lat="40.1303233" lon="15.2727117"><ele>753.2</ele><time>2026-04-25T15:54:03.901Z</time></trkpt><trkpt lat="40.13025" lon="15.2727667"><ele>752.8000000000001</ele><time>2026-04-25T15:54:04.901Z</time></trkpt><trkpt lat="40.1301683" lon="15.2728467"><ele>752.4000000000001</ele><time>2026-04-25T15:54:05.903Z</time></trkpt><trkpt lat="40.1300933" lon="15.2729133"><ele>752.0</ele><time>2026-04-25T15:54:06.905Z</time></trkpt><trkpt lat="40.1299733" lon="15.2730367"><ele>745.6</ele><time>2026-04-25T15:54:07.96Z</time></trkpt><trkpt lat="40.1298817" lon="15.2731183"><ele>739.2</ele><time>2026-04-25T15:54:08.903Z</time></trkpt><trkpt lat="40.1298033" lon="15.2731933"><ele>732.8</ele><time>2026-04-25T15:54:09.912Z</time></trkpt><trkpt lat="40.12973" lon="15.273275"><ele>726.4</ele><time>2026-04-25T15:54:10.902Z</time></trkpt><trkpt lat="40.1296683" lon="15.273365"><ele>720.0</ele><time>2026-04-25T15:54:11.906Z</time></trkpt><trkpt lat="40.1296233" lon="15.2734233"><ele>720.0</ele><time>2026-04-25T15:54:12.908Z</time></trkpt><trkpt lat="40.1295767" lon="15.2735"><ele>720.0</ele><time>2026-04-25T15:54:13.952Z</time></trkpt><trkpt lat="40.1295417" lon="15.2735767"><ele>720.0</ele><time>2026-04-25T15:54:14.9Z</time></trkpt><trkpt lat="40.1295067" lon="15.2736683"><ele>720.0</ele><time>2026-04-25T15:54:15.909Z</time></trkpt><trkpt lat="40.1294617" lon="15.2737833"><ele>720.0</ele><time>2026-04-25T15:54:16.905Z</time></trkpt><trkpt lat="40.1294183" lon="15.2739"><ele>720.0</ele><time>2026-04-25T15:54:17.908Z</time></trkpt><trkpt lat="40.1293667" lon="15.2740117"><ele>718.8333333333334</ele><time>2026-04-25T15:54:18.901Z</time></trkpt><trkpt lat="40.1293217" lon="15.27412"><ele>717.6666666666666</ele><time>2026-04-25T15:54:19.95Z</time></trkpt><trkpt lat="40.1292783" lon="15.2742117"><ele>716.5</ele><time>2026-04-25T15:54:20.902Z</time></trkpt><trkpt lat="40.1292233" lon="15.2743067"><ele>715.3333333333333</ele><time>2026-04-25T15:54:21.906Z</time></trkpt><trkpt lat="40.1291733" lon="15.2743933"><ele>714.1666666666666</ele><time>2026-04-25T15:54:22.907Z</time></trkpt><trkpt lat="40.129125" lon="15.274475"><ele>713.0</ele><time>2026-04-25T15:54:23.904Z</time></trkpt><trkpt lat="40.1290833" lon="15.27454"><ele>708.6666666666666</ele><time>2026-04-25T15:54:24.904Z</time></trkpt><trkpt lat="40.12904" lon="15.274605"><ele>704.3333333333333</ele><time>2026-04-25T15:54:25.974Z</time></trkpt><trkpt lat="40.1289933" lon="15.27467"><ele>700.0</ele><time>2026-04-25T15:54:26.903Z</time></trkpt><trkpt lat="40.1289333" lon="15.2747283"><ele>695.6666666666666</ele><time>2026-04-25T15:54:27.909Z</time></trkpt><trkpt lat="40.1288583" lon="15.2747883"><ele>691.3333333333334</ele><time>2026-04-25T15:54:28.904Z</time></trkpt><trkpt lat="40.1287667" lon="15.2748517"><ele>687.0</ele><time>2026-04-25T15:54:29.912Z</time></trkpt><trkpt lat="40.12868" lon="15.2749083"><ele>687.0</ele><time>2026-04-25T15:54:30.9Z</time></trkpt><trkpt lat="40.1285883" lon="15.2749717"><ele>687.0</ele><time>2026-04-25T15:54:31.966Z</time></trkpt><trkpt lat="40.1285017" lon="15.2750367"><ele>687.0</ele><time>2026-04-25T15:54:32.901Z</time></trkpt><trkpt lat="40.12842" lon="15.2750967"><ele>687.0</ele><time>2026-04-25T15:54:33.899Z</time></trkpt><trkpt lat="40.1283433" lon="15.2751633"><ele>687.0</ele><time>2026-04-25T15:54:34.9Z</time></trkpt><trkpt lat="40.1282667" lon="15.2752267"><ele>681.6</ele><time>2026-04-25T15:54:35.903Z</time></trkpt><trkpt lat="40.1281967" lon="15.275285"><ele>676.2</ele><time>2026-04-25T15:54:36.906Z</time></trkpt><trkpt lat="40.1281267" lon="15.2753333"><ele>670.8</ele><time>2026-04-25T15:54:37.951Z</time></trkpt><trkpt lat="40.1280483" lon="15.2753817"><ele>665.4</ele><time>2026-04-25T15:54:38.903Z</time></trkpt><trkpt lat="40.1279617" lon="15.2754283"><ele>660.0</ele><time>2026-04-25T15:54:39.91Z</time></trkpt><trkpt lat="40.127865" lon="15.2754967"><ele>660.0</ele><time>2026-04-25T15:54:40.9Z</time></trkpt><trkpt lat="40.1277733" lon="15.2755683"><ele>660.0</ele><time>2026-04-25T15:54:41.904Z</time></trkpt><trkpt lat="40.12769" lon="15.2756483"><ele>660.0</ele><time>2026-04-25T15:54:42.903Z</time></trkpt><trkpt lat="40.127605" lon="15.275715"><ele>660.0</ele><time>2026-04-25T15:54:43.954Z</time></trkpt><trkpt lat="40.127525" lon="15.2757867"><ele>660.0</ele><time>2026-04-25T15:54:44.908Z</time></trkpt><trkpt lat="40.1274433" lon="15.2758633"><ele>652.0</ele><time>2026-04-25T15:54:45.906Z</time></trkpt><trkpt lat="40.1273533" lon="15.2759683"><ele>644.0</ele><time>2026-04-25T15:54:46.907Z</time></trkpt><trkpt lat="40.127265" lon="15.27608"><ele>636.0</ele><time>2026-04-25T15:54:47.906Z</time></trkpt><trkpt lat="40.12716" lon="15.276215"><ele>628.0</ele><time>2026-04-25T15:54:48.904Z</time></trkpt><trkpt lat="40.1270517" lon="15.2763533"><ele>630.5</ele><time>2026-04-25T15:54:49.953Z</time></trkpt><trkpt lat="40.1269533" lon="15.2764967"><ele>633.0</ele><time>2026-04-25T15:54:50.901Z</time></trkpt><trkpt lat="40.1268567" lon="15.2766333"><ele>635.5</ele><time>2026-04-25T15:54:51.909Z</time></trkpt><trkpt lat="40.1267583" lon="15.2767933"><ele>638.0</ele><time>2026-04-25T15:54:52.905Z</time></trkpt><trkpt lat="40.1266733" lon="15.2769567"><ele>638.0</ele><time>2026-04-25T15:54:53.908Z</time></trkpt><trkpt lat="40.12659" lon="15.2771167"><ele>638.0</ele><time>2026-04-25T15:54:54.908Z</time></trkpt><trkpt lat="40.1265233" lon="15.2772483"><ele>638.0</ele><time>2026-04-25T15:54:55.968Z</time></trkpt><trkpt lat="40.1264733" lon="15.27739"><ele>638.0</ele><time>2026-04-25T15:54:56.902Z</time></trkpt><trkpt lat="40.1264117" lon="15.2775233"><ele>631.5</ele><time>2026-04-25T15:54:57.905Z</time></trkpt><trkpt lat="40.1263367" lon="15.2776517"><ele>625.0</ele><time>2026-04-25T15:54:58.905Z</time></trkpt><trkpt lat="40.126265" lon="15.2777617"><ele>618.5</ele><time>2026-04-25T15:54:59.906Z</time></trkpt><trkpt lat="40.1261933" lon="15.2778567"><ele>612.0</ele><time>2026-04-25T15:55:00.903Z</time></trkpt><trkpt lat="40.1260683" lon="15.2779067"><ele>612.0</ele><time>2026-04-25T15:55:01.965Z</time></trkpt><trkpt lat="40.1259667" lon="15.2779833"><ele>612.0</ele><time>2026-04-25T15:55:02.903Z</time></trkpt><trkpt lat="40.125845" lon="15.2780483"><ele>612.0</ele><time>2026-04-25T15:55:03.911Z</time></trkpt><trkpt lat="40.125725" lon="15.2781283"><ele>612.0</ele><time>2026-04-25T15:55:04.901Z</time></trkpt><trkpt lat="40.1256033" lon="15.278225"><ele>608.25</ele><time>2026-04-25T15:55:05.904Z</time></trkpt><trkpt lat="40.1254883" lon="15.2783083"><ele>604.5</ele><time>2026-04-25T15:55:06.902Z</time></trkpt><trkpt lat="40.1253833" lon="15.2784167"><ele>600.75</ele><time>2026-04-25T15:55:07.956Z</time></trkpt><trkpt lat="40.1253617" lon="15.2785633"><ele>597.0</ele><time>2026-04-25T15:55:08.904Z</time></trkpt><trkpt lat="40.1253317" lon="15.2786617"><ele>597.0</ele><time>2026-04-25T15:55:09.906Z</time></trkpt><trkpt lat="40.1253833" lon="15.278855"><ele>597.0</ele><time>2026-04-25T15:55:10.908Z</time></trkpt><trkpt lat="40.1253667" lon="15.2790317"><ele>597.0</ele><time>2026-04-25T15:55:12.906Z</time></trkpt><trkpt lat="40.125355" lon="15.2791433"><ele>597.0</ele><time>2026-04-25T15:55:13.949Z</time></trkpt><trkpt lat="40.1253667" lon="15.2792717"><ele>596.25</ele><time>2026-04-25T15:55:14.905Z</time></trkpt><trkpt lat="40.1253533" lon="15.2794183"><ele>595.5</ele><time>2026-04-25T15:55:15.903Z</time></trkpt><trkpt lat="40.1253317" lon="15.279575"><ele>594.75</ele><time>2026-04-25T15:55:16.902Z</time></trkpt><trkpt lat="40.1253017" lon="15.2797283"><ele>594.0</ele><time>2026-04-25T15:55:17.904Z</time></trkpt><trkpt lat="40.12526" lon="15.279895"><ele>593.5</ele><time>2026-04-25T15:55:18.904Z</time></trkpt><trkpt lat="40.1252133" lon="15.2800617"><ele>593.0</ele><time>2026-04-25T15:55:19.953Z</time></trkpt><trkpt lat="40.1251667" lon="15.280225"><ele>592.5</ele><time>2026-04-25T15:55:20.9Z</time></trkpt><trkpt lat="40.1251117" lon="15.280385"><ele>592.0</ele><time>2026-04-25T15:55:21.904Z</time></trkpt><trkpt lat="40.1250483" lon="15.2805567"><ele>594.25</ele><time>2026-04-25T15:55:22.901Z</time></trkpt><trkpt lat="40.1250033" lon="15.2807233"><ele>596.5</ele><time>2026-04-25T15:55:23.925Z</time></trkpt><trkpt lat="40.1249683" lon="15.2809017"><ele>598.75</ele><time>2026-04-25T15:55:24.909Z</time></trkpt><trkpt lat="40.12492" lon="15.2810633"><ele>601.0</ele><time>2026-04-25T15:55:25.971Z</time></trkpt><trkpt lat="40.1249" lon="15.28123"><ele>601.0</ele><time>2026-04-25T15:55:26.907Z</time></trkpt><trkpt lat="40.1249033" lon="15.28138"><ele>601.0</ele><time>2026-04-25T15:55:27.901Z</time></trkpt><trkpt lat="40.1249017" lon="15.281515"><ele>601.0</ele><time>2026-04-25T15:55:28.903Z</time></trkpt><trkpt lat="40.1248933" lon="15.2816583"><ele>601.0</ele><time>2026-04-25T15:55:29.903Z</time></trkpt><trkpt lat="40.1248983" lon="15.2818083"><ele>601.0</ele><time>2026-04-25T15:55:30.903Z</time></trkpt><trkpt lat="40.1248933" lon="15.2819667"><ele>600.0</ele><time>2026-04-25T15:55:31.973Z</time></trkpt><trkpt lat="40.1249083" lon="15.2821367"><ele>599.0</ele><time>2026-04-25T15:55:32.904Z</time></trkpt><trkpt lat="40.1249333" lon="15.2822983"><ele>598.0</ele><time>2026-04-25T15:55:33.904Z</time></trkpt><trkpt lat="40.1249817" lon="15.2824417"><ele>597.0</ele><time>2026-04-25T15:55:34.908Z</time></trkpt><trkpt lat="40.1250317" lon="15.2825917"><ele>594.0</ele><time>2026-04-25T15:55:35.906Z</time></trkpt><trkpt lat="40.1250683" lon="15.2827533"><ele>591.0</ele><time>2026-04-25T15:55:36.903Z</time></trkpt><trkpt lat="40.1250967" lon="15.282905"><ele>588.0</ele><time>2026-04-25T15:55:37.957Z</time></trkpt><trkpt lat="40.125105" lon="15.2830483"><ele>585.0</ele><time>2026-04-25T15:55:38.9Z</time></trkpt><trkpt lat="40.1251017" lon="15.28318"><ele>582.8</ele><time>2026-04-25T15:55:39.901Z</time></trkpt><trkpt lat="40.125095" lon="15.283315"><ele>580.6</ele><time>2026-04-25T15:55:40.906Z</time></trkpt><trkpt lat="40.1250683" lon="15.2834383"><ele>578.4</ele><time>2026-04-25T15:55:41.904Z</time></trkpt><trkpt lat="40.1250417" lon="15.2835717"><ele>576.2</ele><time>2026-04-25T15:55:42.902Z</time></trkpt><trkpt lat="40.12499" lon="15.2836917"><ele>574.0</ele><time>2026-04-25T15:55:43.96Z</time></trkpt><trkpt lat="40.1249367" lon="15.28381"><ele>574.2</ele><time>2026-04-25T15:55:44.906Z</time></trkpt><trkpt lat="40.12487" lon="15.2839217"><ele>574.4</ele><time>2026-04-25T15:55:45.907Z</time></trkpt><trkpt lat="40.1248183" lon="15.2840233"><ele>574.6</ele><time>2026-04-25T15:55:46.905Z</time></trkpt><trkpt lat="40.124775" lon="15.2841433"><ele>574.8</ele><time>2026-04-25T15:55:47.907Z</time></trkpt><trkpt lat="40.1247233" lon="15.284245"><ele>575.0</ele><time>2026-04-25T15:55:48.908Z</time></trkpt><trkpt lat="40.1246717" lon="15.284345"><ele>572.6</ele><time>2026-04-25T15:55:49.955Z</time></trkpt><trkpt lat="40.124615" lon="15.2844367"><ele>570.2</ele><time>2026-04-25T15:55:50.904Z</time></trkpt><trkpt lat="40.1245617" lon="15.28454"><ele>567.8</ele><time>2026-04-25T15:55:51.906Z</time></trkpt><trkpt lat="40.12452" lon="15.28464"><ele>565.4</ele><time>2026-04-25T15:55:52.9Z</time></trkpt><trkpt lat="40.1244733" lon="15.2847467"><ele>563.0</ele><time>2026-04-25T15:55:53.905Z</time></trkpt><trkpt lat="40.1244283" lon="15.28487"><ele>559.75</ele><time>2026-04-25T15:55:54.906Z</time></trkpt><trkpt lat="40.1243967" lon="15.2850033"><ele>556.5</ele><time>2026-04-25T15:55:55.949Z</time></trkpt><trkpt lat="40.1243833" lon="15.28516"><ele>553.25</ele><time>2026-04-25T15:55:56.904Z</time></trkpt><trkpt lat="40.1243867" lon="15.2853267"><ele>550.0</ele><time>2026-04-25T15:55:57.902Z</time></trkpt><trkpt lat="40.124425" lon="15.2854467"><ele>550.0</ele><time>2026-04-25T15:55:58.905Z</time></trkpt><trkpt lat="40.1244367" lon="15.285565"><ele>550.0</ele><time>2026-04-25T15:55:59.907Z</time></trkpt><trkpt lat="40.12444" lon="15.2856883"><ele>550.0</ele><time>2026-04-25T15:56:00.899Z</time></trkpt><trkpt lat="40.124435" lon="15.2858117"><ele>550.0</ele><time>2026-04-25T15:56:01.962Z</time></trkpt><trkpt lat="40.1244283" lon="15.2859333"><ele>550.0</ele><time>2026-04-25T15:56:02.9Z</time></trkpt><trkpt lat="40.1244067" lon="15.28605"><ele>547.0</ele><time>2026-04-25T15:56:03.902Z</time></trkpt><trkpt lat="40.124375" lon="15.2861583"><ele>544.0</ele><time>2026-04-25T15:56:04.905Z</time></trkpt><trkpt lat="40.1243433" lon="15.2862517"><ele>541.0</ele><time>2026-04-25T15:56:05.91Z</time></trkpt><trkpt lat="40.1243033" lon="15.2863417"><ele>538.0</ele><time>2026-04-25T15:56:06.901Z</time></trkpt><trkpt lat="40.1242633" lon="15.28646"><ele>535.0</ele><time>2026-04-25T15:56:07.951Z</time></trkpt><trkpt lat="40.12424" lon="15.2866033"><ele>529.25</ele><time>2026-04-25T15:56:08.902Z</time></trkpt><trkpt lat="40.1242167" lon="15.28675"><ele>523.5</ele><time>2026-04-25T15:56:09.903Z</time></trkpt><trkpt lat="40.12418" lon="15.2868917"><ele>517.75</ele><time>2026-04-25T15:56:10.907Z</time></trkpt><trkpt lat="40.1241517" lon="15.2870433"><ele>512.0</ele><time>2026-04-25T15:56:11.908Z</time></trkpt><trkpt lat="40.124125" lon="15.2872033"><ele>505.5</ele><time>2026-04-25T15:56:12.907Z</time></trkpt><trkpt lat="40.1241117" lon="15.2873667"><ele>499.0</ele><time>2026-04-25T15:56:13.952Z</time></trkpt><trkpt lat="40.1240983" lon="15.2875283"><ele>492.5</ele><time>2026-04-25T15:56:14.906Z</time></trkpt><trkpt lat="40.12409" lon="15.2876933"><ele>486.0</ele><time>2026-04-25T15:56:15.903Z</time></trkpt><trkpt lat="40.1240783" lon="15.2878517"><ele>485.20000000000005</ele><time>2026-04-25T15:56:16.905Z</time></trkpt><trkpt lat="40.1240533" lon="15.2880067"><ele>484.40000000000003</ele><time>2026-04-25T15:56:17.905Z</time></trkpt><trkpt lat="40.1240317" lon="15.2881517"><ele>483.6</ele><time>2026-04-25T15:56:18.902Z</time></trkpt><trkpt lat="40.1239967" lon="15.2882867"><ele>482.8</ele><time>2026-04-25T15:56:19.962Z</time></trkpt><trkpt lat="40.12396" lon="15.2883917"><ele>482.0</ele><time>2026-04-25T15:56:20.904Z</time></trkpt><trkpt lat="40.1239117" lon="15.28848"><ele>481.99999999999994</ele><time>2026-04-25T15:56:21.905Z</time></trkpt><trkpt lat="40.12387" lon="15.2885733"><ele>482.0</ele><time>2026-04-25T15:56:22.907Z</time></trkpt><trkpt lat="40.1237783" lon="15.288645"><ele>482.0</ele><time>2026-04-25T15:56:23.908Z</time></trkpt><trkpt lat="40.12374" lon="15.28874"><ele>482.0</ele><time>2026-04-25T15:56:24.902Z</time></trkpt><trkpt lat="40.1236867" lon="15.2888083"><ele>481.99999999999994</ele><time>2026-04-25T15:56:25.975Z</time></trkpt><trkpt lat="40.123615" lon="15.2888533"><ele>482.0</ele><time>2026-04-25T15:56:26.901Z</time></trkpt><trkpt lat="40.12359" lon="15.2889617"><ele>478.6</ele><time>2026-04-25T15:56:29.907Z</time></trkpt><trkpt lat="40.1236133" lon="15.2891"><ele>475.20000000000005</ele><time>2026-04-25T15:56:31.96Z</time></trkpt><trkpt lat="40.12367" lon="15.289235"><ele>471.8</ele><time>2026-04-25T15:56:32.901Z</time></trkpt><trkpt lat="40.1237317" lon="15.2893717"><ele>468.4</ele><time>2026-04-25T15:56:33.903Z</time></trkpt><trkpt lat="40.1237633" lon="15.2894883"><ele>465.0</ele><time>2026-04-25T15:56:34.906Z</time></trkpt><trkpt lat="40.1238017" lon="15.2896"><ele>465.0</ele><time>2026-04-25T15:56:35.907Z</time></trkpt><trkpt lat="40.1238333" lon="15.2897117"><ele>465.0</ele><time>2026-04-25T15:56:36.908Z</time></trkpt><trkpt lat="40.1238567" lon="15.2898167"><ele>465.0</ele><time>2026-04-25T15:56:37.967Z</time></trkpt><trkpt lat="40.123875" lon="15.2899183"><ele>465.0</ele><time>2026-04-25T15:56:38.905Z</time></trkpt><trkpt lat="40.1238717" lon="15.2900233"><ele>465.0</ele><time>2026-04-25T15:56:39.906Z</time></trkpt><trkpt lat="40.1238683" lon="15.2901283"><ele>465.0</ele><time>2026-04-25T15:56:40.903Z</time></trkpt><trkpt lat="40.12386" lon="15.2902817"><ele>462.4</ele><time>2026-04-25T15:56:42.905Z</time></trkpt><trkpt lat="40.1238733" lon="15.290395"><ele>459.8</ele><time>2026-04-25T15:56:44.91Z</time></trkpt><trkpt lat="40.1238967" lon="15.290505"><ele>457.20000000000005</ele><time>2026-04-25T15:56:46.907Z</time></trkpt><trkpt lat="40.123915" lon="15.290595"><ele>454.6</ele><time>2026-04-25T15:56:48.904Z</time></trkpt><trkpt lat="40.1239183" lon="15.2907017"><ele>452.0</ele><time>2026-04-25T15:56:50.907Z</time></trkpt><trkpt lat="40.1238717" lon="15.2908567"><ele>451.3333333333333</ele><time>2026-04-25T15:56:52.9Z</time></trkpt><trkpt lat="40.12384" lon="15.2909417"><ele>450.66666666666663</ele><time>2026-04-25T15:56:53.903Z</time></trkpt><trkpt lat="40.123795" lon="15.2910267"><ele>450.0</ele><time>2026-04-25T15:56:54.905Z</time></trkpt><trkpt lat="40.12374" lon="15.291105"><ele>449.33333333333337</ele><time>2026-04-25T15:56:55.966Z</time></trkpt><trkpt lat="40.1236817" lon="15.2911883"><ele>448.6666666666667</ele><time>2026-04-25T15:56:56.9Z</time></trkpt><trkpt lat="40.1236367" lon="15.29129"><ele>448.0</ele><time>2026-04-25T15:56:57.903Z</time></trkpt><trkpt lat="40.1235417" lon="15.2913417"><ele>448.0</ele><time>2026-04-25T15:56:58.901Z</time></trkpt><trkpt lat="40.1234417" lon="15.2914067"><ele>447.99999999999994</ele><time>2026-04-25T15:56:59.906Z</time></trkpt><trkpt lat="40.1233417" lon="15.2914883"><ele>447.99999999999994</ele><time>2026-04-25T15:57:00.905Z</time></trkpt><trkpt lat="40.123255" lon="15.291575"><ele>448.0</ele><time>2026-04-25T15:57:01.958Z</time></trkpt><trkpt lat="40.1231883" lon="15.291675"><ele>448.0</ele><time>2026-04-25T15:57:02.897Z</time></trkpt><trkpt lat="40.123145" lon="15.2917933"><ele>445.2</ele><time>2026-04-25T15:57:03.905Z</time></trkpt><trkpt lat="40.12312" lon="15.291945"><ele>442.4</ele><time>2026-04-25T15:57:04.905Z</time></trkpt><trkpt lat="40.12311" lon="15.2920967"><ele>439.59999999999997</ele><time>2026-04-25T15:57:05.903Z</time></trkpt><trkpt lat="40.1230867" lon="15.2922333"><ele>436.79999999999995</ele><time>2026-04-25T15:57:06.905Z</time></trkpt><trkpt lat="40.1230467" lon="15.2923533"><ele>434.0</ele><time>2026-04-25T15:57:07.951Z</time></trkpt><trkpt lat="40.123005" lon="15.2924583"><ele>434.0</ele><time>2026-04-25T15:57:08.9Z</time></trkpt><trkpt lat="40.1229717" lon="15.2925567"><ele>434.0</ele><time>2026-04-25T15:57:09.91Z</time></trkpt><trkpt lat="40.1229483" lon="15.2926733"><ele>434.0</ele><time>2026-04-25T15:57:10.904Z</time></trkpt><trkpt lat="40.1229417" lon="15.2927983"><ele>434.0</ele><time>2026-04-25T15:57:11.905Z</time></trkpt><trkpt lat="40.1229633" lon="15.292925"><ele>434.0</ele><time>2026-04-25T15:57:12.904Z</time></trkpt><trkpt lat="40.122995" lon="15.2930667"><ele>434.2</ele><time>2026-04-25T15:57:13.949Z</time></trkpt><trkpt lat="40.12301" lon="15.293215"><ele>434.4</ele><time>2026-04-25T15:57:14.902Z</time></trkpt><trkpt lat="40.1230183" lon="15.2933567"><ele>434.6</ele><time>2026-04-25T15:57:15.904Z</time></trkpt><trkpt lat="40.1229983" lon="15.2935"><ele>434.8</ele><time>2026-04-25T15:57:16.898Z</time></trkpt><trkpt lat="40.1229717" lon="15.2936267"><ele>435.0</ele><time>2026-04-25T15:57:17.903Z</time></trkpt><trkpt lat="40.1229533" lon="15.29376"><ele>435.0</ele><time>2026-04-25T15:57:18.909Z</time></trkpt><trkpt lat="40.1229417" lon="15.2939067"><ele>435.0</ele><time>2026-04-25T15:57:19.953Z</time></trkpt><trkpt lat="40.1229283" lon="15.29405"><ele>435.0</ele><time>2026-04-25T15:57:20.902Z</time></trkpt><trkpt lat="40.12291" lon="15.2941983"><ele>435.0</ele><time>2026-04-25T15:57:21.908Z</time></trkpt><trkpt lat="40.1228783" lon="15.2943417"><ele>436.0</ele><time>2026-04-25T15:57:22.909Z</time></trkpt><trkpt lat="40.1228367" lon="15.29447"><ele>437.0</ele><time>2026-04-25T15:57:23.907Z</time></trkpt><trkpt lat="40.12278" lon="15.2945783"><ele>438.0</ele><time>2026-04-25T15:57:24.903Z</time></trkpt><trkpt lat="40.122705" lon="15.29468"><ele>439.0</ele><time>2026-04-25T15:57:25.969Z</time></trkpt><trkpt lat="40.122625" lon="15.29477"><ele>440.0</ele><time>2026-04-25T15:57:26.901Z</time></trkpt><trkpt lat="40.1225667" lon="15.29486"><ele>440.4</ele><time>2026-04-25T15:57:27.903Z</time></trkpt><trkpt lat="40.1225267" lon="15.2949517"><ele>440.8</ele><time>2026-04-25T15:57:28.906Z</time></trkpt><trkpt lat="40.122565" lon="15.2950783"><ele>441.20000000000005</ele><time>2026-04-25T15:57:29.909Z</time></trkpt><trkpt lat="40.122605" lon="15.2952167"><ele>441.6</ele><time>2026-04-25T15:57:30.907Z</time></trkpt><trkpt lat="40.122655" lon="15.2953717"><ele>442.0</ele><time>2026-04-25T15:57:31.953Z</time></trkpt><trkpt lat="40.122705" lon="15.2955383"><ele>441.25</ele><time>2026-04-25T15:57:32.908Z</time></trkpt><trkpt lat="40.122755" lon="15.2957217"><ele>440.5</ele><time>2026-04-25T15:57:33.903Z</time></trkpt><trkpt lat="40.1228" lon="15.2958967"><ele>439.75</ele><time>2026-04-25T15:57:34.905Z</time></trkpt><trkpt lat="40.1228433" lon="15.296055"><ele>439.0</ele><time>2026-04-25T15:57:35.908Z</time></trkpt><trkpt lat="40.12289" lon="15.296195"><ele>439.0</ele><time>2026-04-25T15:57:36.908Z</time></trkpt><trkpt lat="40.1229483" lon="15.2963233"><ele>439.0</ele><time>2026-04-25T15:57:37.958Z</time></trkpt><trkpt lat="40.12302" lon="15.2964467"><ele>439.0</ele><time>2026-04-25T15:57:38.899Z</time></trkpt><trkpt lat="40.1231083" lon="15.2965683"><ele>439.0</ele><time>2026-04-25T15:57:39.905Z</time></trkpt><trkpt lat="40.1231983" lon="15.2966917"><ele>438.25</ele><time>2026-04-25T15:57:40.904Z</time></trkpt><trkpt lat="40.1232867" lon="15.2968183"><ele>437.5</ele><time>2026-04-25T15:57:41.9Z</time></trkpt><trkpt lat="40.1233667" lon="15.2969383"><ele>436.75</ele><time>2026-04-25T15:57:42.903Z</time></trkpt><trkpt lat="40.1234383" lon="15.297035"><ele>436.0</ele><time>2026-04-25T15:57:43.952Z</time></trkpt><trkpt lat="40.123515" lon="15.29712"><ele>436.0</ele><time>2026-04-25T15:57:44.906Z</time></trkpt><trkpt lat="40.123595" lon="15.2971783"><ele>436.0</ele><time>2026-04-25T15:57:45.909Z</time></trkpt><trkpt lat="40.1237" lon="15.29719"><ele>436.0</ele><time>2026-04-25T15:57:46.91Z</time></trkpt><trkpt lat="40.1238167" lon="15.2971967"><ele>436.0</ele><time>2026-04-25T15:57:47.908Z</time></trkpt><trkpt lat="40.1239433" lon="15.2971867"><ele>436.0</ele><time>2026-04-25T15:57:48.904Z</time></trkpt><trkpt lat="40.1240633" lon="15.297155"><ele>434.20000000000005</ele><time>2026-04-25T15:57:49.952Z</time></trkpt><trkpt lat="40.1241733" lon="15.2970983"><ele>432.40000000000003</ele><time>2026-04-25T15:57:50.906Z</time></trkpt><trkpt lat="40.1242667" lon="15.2970233"><ele>430.6</ele><time>2026-04-25T15:57:51.9Z</time></trkpt><trkpt lat="40.1243583" lon="15.29696"><ele>428.8</ele><time>2026-04-25T15:57:52.902Z</time></trkpt><trkpt lat="40.12445" lon="15.29692"><ele>427.0</ele><time>2026-04-25T15:57:53.903Z</time></trkpt><trkpt lat="40.1245583" lon="15.2969433"><ele>427.0</ele><time>2026-04-25T15:57:54.904Z</time></trkpt><trkpt lat="40.124655" lon="15.2969633"><ele>427.00000000000006</ele><time>2026-04-25T15:57:55.974Z</time></trkpt><trkpt lat="40.1247333" lon="15.2969967"><ele>427.00000000000006</ele><time>2026-04-25T15:57:56.9Z</time></trkpt><trkpt lat="40.124775" lon="15.2971283"><ele>427.0</ele><time>2026-04-25T15:57:58.905Z</time></trkpt><trkpt lat="40.124745" lon="15.2972583"><ele>427.0</ele><time>2026-04-25T15:57:59.907Z</time></trkpt><trkpt lat="40.1247233" lon="15.2973933"><ele>427.6</ele><time>2026-04-25T15:58:00.902Z</time></trkpt><trkpt lat="40.1246917" lon="15.2975183"><ele>428.20000000000005</ele><time>2026-04-25T15:58:01.956Z</time></trkpt><trkpt lat="40.1246483" lon="15.2976333"><ele>428.8</ele><time>2026-04-25T15:58:02.902Z</time></trkpt><trkpt lat="40.124615" lon="15.297755"><ele>429.4</ele><time>2026-04-25T15:58:03.902Z</time></trkpt><trkpt lat="40.1246" lon="15.2978733"><ele>430.0</ele><time>2026-04-25T15:58:04.908Z</time></trkpt><trkpt lat="40.1245967" lon="15.29799"><ele>427.6</ele><time>2026-04-25T15:58:05.909Z</time></trkpt><trkpt lat="40.1246133" lon="15.2980983"><ele>425.2</ele><time>2026-04-25T15:58:06.905Z</time></trkpt><trkpt lat="40.124655" lon="15.2981933"><ele>422.79999999999995</ele><time>2026-04-25T15:58:07.949Z</time></trkpt><trkpt lat="40.1247083" lon="15.2982983"><ele>420.4</ele><time>2026-04-25T15:58:08.901Z</time></trkpt><trkpt lat="40.1247517" lon="15.298425"><ele>418.0</ele><time>2026-04-25T15:58:09.907Z</time></trkpt><trkpt lat="40.1247883" lon="15.2985633"><ele>418.00000000000006</ele><time>2026-04-25T15:58:10.903Z</time></trkpt><trkpt lat="40.1248183" lon="15.2986983"><ele>418.0</ele><time>2026-04-25T15:58:11.908Z</time></trkpt><trkpt lat="40.1248183" lon="15.29881"><ele>418.0</ele><time>2026-04-25T15:58:12.906Z</time></trkpt><trkpt lat="40.1248033" lon="15.2989117"><ele>418.0</ele><time>2026-04-25T15:58:13.938Z</time></trkpt><trkpt lat="40.1247733" lon="15.2989917"><ele>418.00000000000006</ele><time>2026-04-25T15:58:14.901Z</time></trkpt><trkpt lat="40.1246917" lon="15.29905"><ele>418.0</ele><time>2026-04-25T15:58:16.905Z</time></trkpt><trkpt lat="40.1246267" lon="15.29899"><ele>418.00000000000006</ele><time>2026-04-25T15:58:17.904Z</time></trkpt><trkpt lat="40.12458" lon="15.2989167"><ele>418.0</ele><time>2026-04-25T15:58:18.9Z</time></trkpt><trkpt lat="40.1245417" lon="15.29884"><ele>418.0</ele><time>2026-04-25T15:58:19.953Z</time></trkpt><trkpt lat="40.1245117" lon="15.29876"><ele>418.0</ele><time>2026-04-25T15:58:20.9Z</time></trkpt><trkpt lat="40.1244533" lon="15.29863"><ele>418.00000000000006</ele><time>2026-04-25T15:58:22.908Z</time></trkpt><trkpt lat="40.1243967" lon="15.29853"><ele>418.0</ele><time>2026-04-25T15:58:24.899Z</time></trkpt><trkpt lat="40.124325" lon="15.2984917"><ele>418.00000000000006</ele><time>2026-04-25T15:58:27.904Z</time></trkpt><trkpt lat="40.124375" lon="15.29858"><ele>418.0</ele><time>2026-04-25T15:58:30.901Z</time></trkpt><trkpt lat="40.1244467" lon="15.2986567"><ele>418.0</ele><time>2026-04-25T15:58:32.911Z</time></trkpt><trkpt lat="40.1244983" lon="15.298725"><ele>418.0</ele><time>2026-04-25T15:58:33.901Z</time></trkpt><trkpt lat="40.12455" lon="15.2988033"><ele>418.00000000000006</ele><time>2026-04-25T15:58:34.897Z</time></trkpt><trkpt lat="40.1246" lon="15.2988967"><ele>418.0</ele><time>2026-04-25T15:58:35.906Z</time></trkpt><trkpt lat="40.1246483" lon="15.29898"><ele>415.33333333333337</ele><time>2026-04-25T15:58:36.902Z</time></trkpt><trkpt lat="40.1247333" lon="15.2991"><ele>412.6666666666667</ele><time>2026-04-25T15:58:38.901Z</time></trkpt><trkpt lat="40.1247767" lon="15.29917"><ele>410.0</ele><time>2026-04-25T15:58:39.897Z</time></trkpt><trkpt lat="40.1248167" lon="15.2992583"><ele>407.33333333333337</ele><time>2026-04-25T15:58:40.904Z</time></trkpt><trkpt lat="40.1248433" lon="15.29935"><ele>404.6666666666667</ele><time>2026-04-25T15:58:41.905Z</time></trkpt><trkpt lat="40.1248667" lon="15.2994383"><ele>402.0</ele><time>2026-04-25T15:58:42.908Z</time></trkpt><trkpt lat="40.1248883" lon="15.29954"><ele>402.5</ele><time>2026-04-25T15:58:43.952Z</time></trkpt><trkpt lat="40.12491" lon="15.2996533"><ele>403.0</ele><time>2026-04-25T15:58:44.911Z</time></trkpt><trkpt lat="40.124935" lon="15.299775"><ele>403.5</ele><time>2026-04-25T15:58:45.904Z</time></trkpt><trkpt lat="40.124965" lon="15.299885"><ele>404.0</ele><time>2026-04-25T15:58:46.907Z</time></trkpt><trkpt lat="40.124995" lon="15.2999717"><ele>404.5</ele><time>2026-04-25T15:58:47.911Z</time></trkpt><trkpt lat="40.1250333" lon="15.30005"><ele>405.0</ele><time>2026-04-25T15:58:48.905Z</time></trkpt><trkpt lat="40.1250867" lon="15.3001267"><ele>403.5</ele><time>2026-04-25T15:58:49.951Z</time></trkpt><trkpt lat="40.1251483" lon="15.3002117"><ele>402.0</ele><time>2026-04-25T15:58:50.901Z</time></trkpt><trkpt lat="40.125215" lon="15.3003"><ele>400.5</ele><time>2026-04-25T15:58:51.904Z</time></trkpt><trkpt lat="40.12528" lon="15.3003867"><ele>399.0</ele><time>2026-04-25T15:58:52.905Z</time></trkpt><trkpt lat="40.1253417" lon="15.3004667"><ele>397.5</ele><time>2026-04-25T15:58:53.903Z</time></trkpt><trkpt lat="40.1253917" lon="15.30054"><ele>396.0</ele><time>2026-04-25T15:58:54.912Z</time></trkpt><trkpt lat="40.1254217" lon="15.3006617"><ele>394.3333333333333</ele><time>2026-04-25T15:58:56.903Z</time></trkpt><trkpt lat="40.125395" lon="15.3007883"><ele>392.66666666666663</ele><time>2026-04-25T15:58:58.907Z</time></trkpt><trkpt lat="40.125365" lon="15.3009217"><ele>391.0</ele><time>2026-04-25T15:59:00.9Z</time></trkpt><trkpt lat="40.1253733" lon="15.30101"><ele>389.3333333333333</ele><time>2026-04-25T15:59:01.958Z</time></trkpt><trkpt lat="40.1253983" lon="15.3011083"><ele>387.66666666666663</ele><time>2026-04-25T15:59:02.906Z</time></trkpt><trkpt lat="40.1254117" lon="15.301215"><ele>386.0</ele><time>2026-04-25T15:59:03.909Z</time></trkpt><trkpt lat="40.1254367" lon="15.30131"><ele>386.0</ele><time>2026-04-25T15:59:04.904Z</time></trkpt><trkpt lat="40.125475" lon="15.3014083"><ele>386.0</ele><time>2026-04-25T15:59:05.905Z</time></trkpt><trkpt lat="40.125535" lon="15.3014967"><ele>386.0</ele><time>2026-04-25T15:59:06.902Z</time></trkpt><trkpt lat="40.125605" lon="15.3015767"><ele>386.0</ele><time>2026-04-25T15:59:07.963Z</time></trkpt><trkpt lat="40.12568" lon="15.3016617"><ele>386.0</ele><time>2026-04-25T15:59:08.902Z</time></trkpt><trkpt lat="40.1257467" lon="15.3017333"><ele>384.0</ele><time>2026-04-25T15:59:09.904Z</time></trkpt><trkpt lat="40.1258067" lon="15.3018933"><ele>382.0</ele><time>2026-04-25T15:59:11.903Z</time></trkpt><trkpt lat="40.1258233" lon="15.30199"><ele>380.0</ele><time>2026-04-25T15:59:12.9Z</time></trkpt><trkpt lat="40.1258183" lon="15.30209"><ele>378.0</ele><time>2026-04-25T15:59:13.962Z</time></trkpt><trkpt lat="40.12576" lon="15.3022017"><ele>376.0</ele><time>2026-04-25T15:59:14.905Z</time></trkpt><trkpt lat="40.1257" lon="15.302315"><ele>374.0</ele><time>2026-04-25T15:59:15.905Z</time></trkpt><trkpt lat="40.125635" lon="15.30244"><ele>372.0</ele><time>2026-04-25T15:59:16.901Z</time></trkpt><trkpt lat="40.12556" lon="15.30257"><ele>370.0</ele><time>2026-04-25T15:59:17.904Z</time></trkpt><trkpt lat="40.12548" lon="15.3027133"><ele>368.0</ele><time>2026-04-25T15:59:18.903Z</time></trkpt><trkpt lat="40.1254" lon="15.30286"><ele>368.0</ele><time>2026-04-25T15:59:19.947Z</time></trkpt><trkpt lat="40.1253267" lon="15.3029933"><ele>368.0</ele><time>2026-04-25T15:59:20.899Z</time></trkpt><trkpt lat="40.1252533" lon="15.30311"><ele>368.0</ele><time>2026-04-25T15:59:21.903Z</time></trkpt><trkpt lat="40.1251733" lon="15.303205"><ele>368.0</ele><time>2026-04-25T15:59:22.901Z</time></trkpt><trkpt lat="40.125085" lon="15.3032883"><ele>367.83333333333337</ele><time>2026-04-25T15:59:23.907Z</time></trkpt><trkpt lat="40.124995" lon="15.3033417"><ele>367.6666666666667</ele><time>2026-04-25T15:59:24.905Z</time></trkpt><trkpt lat="40.1249233" lon="15.3033867"><ele>367.5</ele><time>2026-04-25T15:59:25.973Z</time></trkpt><trkpt lat="40.124865" lon="15.3034433"><ele>367.3333333333333</ele><time>2026-04-25T15:59:26.9Z</time></trkpt><trkpt lat="40.1248133" lon="15.3035117"><ele>367.16666666666663</ele><time>2026-04-25T15:59:27.901Z</time></trkpt><trkpt lat="40.1247667" lon="15.30359"><ele>367.0</ele><time>2026-04-25T15:59:28.902Z</time></trkpt><trkpt lat="40.1247267" lon="15.3036833"><ele>365.1428571428571</ele><time>2026-04-25T15:59:29.902Z</time></trkpt><trkpt lat="40.1246917" lon="15.30378"><ele>363.28571428571433</ele><time>2026-04-25T15:59:30.903Z</time></trkpt><trkpt lat="40.1246583" lon="15.3038717"><ele>361.42857142857144</ele><time>2026-04-25T15:59:31.973Z</time></trkpt><trkpt lat="40.1246283" lon="15.3039533"><ele>359.57142857142856</ele><time>2026-04-25T15:59:32.9Z</time></trkpt><trkpt lat="40.124605" lon="15.30403"><ele>357.71428571428567</ele><time>2026-04-25T15:59:33.909Z</time></trkpt><trkpt lat="40.1245867" lon="15.3041117"><ele>355.8571428571429</ele><time>2026-04-25T15:59:34.906Z</time></trkpt><trkpt lat="40.1245733" lon="15.304195"><ele>354.0</ele><time>2026-04-25T15:59:35.902Z</time></trkpt><trkpt lat="40.1245567" lon="15.30428"><ele>354.0</ele><time>2026-04-25T15:59:36.9Z</time></trkpt><trkpt lat="40.12454" lon="15.30436"><ele>354.0</ele><time>2026-04-25T15:59:37.903Z</time></trkpt><trkpt lat="40.1245133" lon="15.3045133"><ele>354.0</ele><time>2026-04-25T15:59:39.903Z</time></trkpt><trkpt lat="40.1245317" lon="15.3046467"><ele>354.0</ele><time>2026-04-25T15:59:41.906Z</time></trkpt><trkpt lat="40.1245683" lon="15.3047433"><ele>354.0</ele><time>2026-04-25T15:59:43.9Z</time></trkpt><trkpt lat="40.1246183" lon="15.3048133"><ele>354.0</ele><time>2026-04-25T15:59:45.906Z</time></trkpt><trkpt lat="40.124725" lon="15.3048367"><ele>353.0</ele><time>2026-04-25T15:59:47.907Z</time></trkpt><trkpt lat="40.12481" lon="15.3048533"><ele>352.0</ele><time>2026-04-25T15:59:48.912Z</time></trkpt><trkpt lat="40.124895" lon="15.30486"><ele>351.0</ele><time>2026-04-25T15:59:49.913Z</time></trkpt><trkpt lat="40.12497" lon="15.304885"><ele>350.0</ele><time>2026-04-25T15:59:50.904Z</time></trkpt><trkpt lat="40.125045" lon="15.3049167"><ele>349.0</ele><time>2026-04-25T15:59:51.903Z</time></trkpt><trkpt lat="40.1251233" lon="15.3049683"><ele>348.0</ele><time>2026-04-25T15:59:52.903Z</time></trkpt><trkpt lat="40.1251917" lon="15.3050417"><ele>348.0</ele><time>2026-04-25T15:59:53.906Z</time></trkpt><trkpt lat="40.1252533" lon="15.3051167"><ele>348.0</ele><time>2026-04-25T15:59:54.907Z</time></trkpt><trkpt lat="40.125305" lon="15.3052"><ele>348.0</ele><time>2026-04-25T15:59:55.97Z</time></trkpt><trkpt lat="40.1253433" lon="15.3052767"><ele>348.0</ele><time>2026-04-25T15:59:56.901Z</time></trkpt><trkpt lat="40.1254033" lon="15.3053867"><ele>348.0</ele><time>2026-04-25T15:59:58.908Z</time></trkpt><trkpt lat="40.1254617" lon="15.3054417"><ele>348.0</ele><time>2026-04-25T16:00:00.907Z</time></trkpt><trkpt lat="40.1255267" lon="15.30545"><ele>348.0</ele><time>2026-04-25T16:00:14.91Z</time></trkpt><trkpt lat="40.12564" lon="15.305465"><ele>348.0</ele><time>2026-04-25T16:00:16.903Z</time></trkpt><trkpt lat="40.12572" lon="15.3055167"><ele>348.0</ele><time>2026-04-25T16:00:17.906Z</time></trkpt><trkpt lat="40.1257933" lon="15.3055667"><ele>348.0</ele><time>2026-04-25T16:00:18.906Z</time></trkpt><trkpt lat="40.1258667" lon="15.3056067"><ele>348.0</ele><time>2026-04-25T16:00:19.901Z</time></trkpt><trkpt lat="40.1259417" lon="15.30565"><ele>348.0</ele><time>2026-04-25T16:00:20.904Z</time></trkpt><trkpt lat="40.1260233" lon="15.3056967"><ele>346.3333333333333</ele><time>2026-04-25T16:00:21.904Z</time></trkpt><trkpt lat="40.1260967" lon="15.3057417"><ele>344.6666666666667</ele><time>2026-04-25T16:00:22.907Z</time></trkpt><trkpt lat="40.12616" lon="15.3057917"><ele>343.0</ele><time>2026-04-25T16:00:23.908Z</time></trkpt><trkpt lat="40.126215" lon="15.3058433"><ele>341.33333333333337</ele><time>2026-04-25T16:00:24.906Z</time></trkpt><trkpt lat="40.1263" lon="15.305925"><ele>339.6666666666667</ele><time>2026-04-25T16:00:26.897Z</time></trkpt><trkpt lat="40.1263783" lon="15.3059767"><ele>338.0</ele><time>2026-04-25T16:00:28.906Z</time></trkpt><trkpt lat="40.1264283" lon="15.3060283"><ele>338.0</ele><time>2026-04-25T16:00:33.904Z</time></trkpt><trkpt lat="40.12635" lon="15.3061133"><ele>338.0</ele><time>2026-04-25T16:00:44.905Z</time></trkpt><trkpt lat="40.1262733" lon="15.306175"><ele>338.0</ele><time>2026-04-25T16:00:46.912Z</time></trkpt><trkpt lat="40.1262067" lon="15.30623"><ele>338.0</ele><time>2026-04-25T16:00:47.904Z</time></trkpt><trkpt lat="40.1261133" lon="15.3063133"><ele>338.0</ele><time>2026-04-25T16:00:48.901Z</time></trkpt><trkpt lat="40.1259867" lon="15.3063983"><ele>333.0</ele><time>2026-04-25T16:00:49.911Z</time></trkpt><trkpt lat="40.1258617" lon="15.3064867"><ele>328.0</ele><time>2026-04-25T16:00:50.907Z</time></trkpt><trkpt lat="40.1257333" lon="15.3065683"><ele>323.0</ele><time>2026-04-25T16:00:51.902Z</time></trkpt><trkpt lat="40.1256067" lon="15.3066433"><ele>318.0</ele><time>2026-04-25T16:00:52.903Z</time></trkpt><trkpt lat="40.1254467" lon="15.3066733"><ele>317.3333333333333</ele><time>2026-04-25T16:00:53.903Z</time></trkpt><trkpt lat="40.1253" lon="15.30673"><ele>316.66666666666663</ele><time>2026-04-25T16:00:54.905Z</time></trkpt><trkpt lat="40.1251483" lon="15.3067817"><ele>316.0</ele><time>2026-04-25T16:00:55.962Z</time></trkpt><trkpt lat="40.124995" lon="15.3068433"><ele>314.75</ele><time>2026-04-25T16:00:56.906Z</time></trkpt><trkpt lat="40.12485" lon="15.306925"><ele>313.5</ele><time>2026-04-25T16:00:57.902Z</time></trkpt><trkpt lat="40.1247217" lon="15.3070017"><ele>312.25</ele><time>2026-04-25T16:00:58.903Z</time></trkpt><trkpt lat="40.1246083" lon="15.3070633"><ele>311.0</ele><time>2026-04-25T16:00:59.901Z</time></trkpt><trkpt lat="40.124495" lon="15.3071067"><ele>311.0</ele><time>2026-04-25T16:01:00.903Z</time></trkpt><trkpt lat="40.12437" lon="15.3071317"><ele>311.0</ele><time>2026-04-25T16:01:01.958Z</time></trkpt><trkpt lat="40.1242517" lon="15.30713"><ele>311.0</ele><time>2026-04-25T16:01:02.9Z</time></trkpt><trkpt lat="40.12415" lon="15.307115"><ele>311.0</ele><time>2026-04-25T16:01:03.903Z</time></trkpt><trkpt lat="40.1240633" lon="15.3071"><ele>311.0</ele><time>2026-04-25T16:01:04.909Z</time></trkpt><trkpt lat="40.1239817" lon="15.3070767"><ele>308.8</ele><time>2026-04-25T16:01:05.908Z</time></trkpt><trkpt lat="40.12389" lon="15.3070483"><ele>306.6</ele><time>2026-04-25T16:01:06.902Z</time></trkpt><trkpt lat="40.1237917" lon="15.30702"><ele>304.4</ele><time>2026-04-25T16:01:07.902Z</time></trkpt><trkpt lat="40.1236817" lon="15.3069817"><ele>302.2</ele><time>2026-04-25T16:01:08.908Z</time></trkpt><trkpt lat="40.1235617" lon="15.3069333"><ele>300.0</ele><time>2026-04-25T16:01:09.906Z</time></trkpt><trkpt lat="40.1234283" lon="15.3068833"><ele>300.0</ele><time>2026-04-25T16:01:10.905Z</time></trkpt><trkpt lat="40.1232983" lon="15.3068383"><ele>300.0</ele><time>2026-04-25T16:01:11.903Z</time></trkpt><trkpt lat="40.1231733" lon="15.3067883"><ele>300.0</ele><time>2026-04-25T16:01:12.918Z</time></trkpt><trkpt lat="40.1230767" lon="15.30675"><ele>300.0</ele><time>2026-04-25T16:01:13.908Z</time></trkpt><trkpt lat="40.1231383" lon="15.3068283"><ele>300.0</ele><time>2026-04-25T16:01:20.906Z</time></trkpt><trkpt lat="40.123225" lon="15.3069333"><ele>300.0</ele><time>2026-04-25T16:01:22.902Z</time></trkpt><trkpt lat="40.1232767" lon="15.3070017"><ele>300.0</ele><time>2026-04-25T16:01:24.904Z</time></trkpt><trkpt lat="40.123275" lon="15.307115"><ele>300.0</ele><time>2026-04-25T16:01:28.907Z</time></trkpt><trkpt lat="40.1232217" lon="15.307195"><ele>300.0</ele><time>2026-04-25T16:01:30.907Z</time></trkpt><trkpt lat="40.123145" lon="15.3072417"><ele>300.0</ele><time>2026-04-25T16:01:32.908Z</time></trkpt><trkpt lat="40.1230267" lon="15.307285"><ele>296.0</ele><time>2026-04-25T16:01:34.907Z</time></trkpt><trkpt lat="40.1229533" lon="15.3073083"><ele>292.0</ele><time>2026-04-25T16:01:35.9Z</time></trkpt><trkpt lat="40.1228783" lon="15.307335"><ele>288.0</ele><time>2026-04-25T16:01:36.906Z</time></trkpt><trkpt lat="40.1228083" lon="15.3073567"><ele>284.0</ele><time>2026-04-25T16:01:37.903Z</time></trkpt><trkpt lat="40.1227433" lon="15.3073617"><ele>280.0</ele><time>2026-04-25T16:01:38.902Z</time></trkpt><trkpt lat="40.1226317" lon="15.3073183"><ele>276.0</ele><time>2026-04-25T16:01:40.905Z</time></trkpt><trkpt lat="40.1225683" lon="15.30727"><ele>278.8</ele><time>2026-04-25T16:01:41.9Z</time></trkpt><trkpt lat="40.122465" lon="15.307225"><ele>281.6</ele><time>2026-04-25T16:01:43.907Z</time></trkpt><trkpt lat="40.1223633" lon="15.307245"><ele>284.4</ele><time>2026-04-25T16:01:45.902Z</time></trkpt><trkpt lat="40.1222817" lon="15.3073383"><ele>287.2</ele><time>2026-04-25T16:01:47.899Z</time></trkpt><trkpt lat="40.12221" lon="15.3074233"><ele>290.0</ele><time>2026-04-25T16:01:49.904Z</time></trkpt><trkpt lat="40.1220933" lon="15.307485"><ele>285.33333333333337</ele><time>2026-04-25T16:01:51.906Z</time></trkpt><trkpt lat="40.1220233" lon="15.3075217"><ele>280.6666666666667</ele><time>2026-04-25T16:01:52.903Z</time></trkpt><trkpt lat="40.1219467" lon="15.30757"><ele>276.0</ele><time>2026-04-25T16:01:53.903Z</time></trkpt><trkpt lat="40.1218767" lon="15.3076117"><ele>271.3333333333333</ele><time>2026-04-25T16:01:54.905Z</time></trkpt><trkpt lat="40.121815" lon="15.30765"><ele>266.66666666666663</ele><time>2026-04-25T16:01:55.96Z</time></trkpt><trkpt lat="40.1217283" lon="15.307625"><ele>262.0</ele><time>2026-04-25T16:01:57.895Z</time></trkpt><trkpt lat="40.1216317" lon="15.3075183"><ele>262.0</ele><time>2026-04-25T16:01:59.907Z</time></trkpt><trkpt lat="40.1215933" lon="15.3074283"><ele>262.0</ele><time>2026-04-25T16:02:00.903Z</time></trkpt><trkpt lat="40.1215533" lon="15.3073333"><ele>262.0</ele><time>2026-04-25T16:02:01.952Z</time></trkpt><trkpt lat="40.12151" lon="15.30725"><ele>262.0</ele><time>2026-04-25T16:02:02.903Z</time></trkpt><trkpt lat="40.1214617" lon="15.3071817"><ele>262.0</ele><time>2026-04-25T16:02:03.902Z</time></trkpt><trkpt lat="40.1213717" lon="15.3071017"><ele>262.0</ele><time>2026-04-25T16:02:05.909Z</time></trkpt><trkpt lat="40.12133" lon="15.30723"><ele>261.0</ele><time>2026-04-25T16:02:07.901Z</time></trkpt><trkpt lat="40.121295" lon="15.3073183"><ele>260.0</ele><time>2026-04-25T16:02:08.912Z</time></trkpt><trkpt lat="40.121245" lon="15.3074167"><ele>259.0</ele><time>2026-04-25T16:02:09.907Z</time></trkpt><trkpt lat="40.121175" lon="15.3074983"><ele>258.0</ele><time>2026-04-25T16:02:10.905Z</time></trkpt><trkpt lat="40.1211017" lon="15.3075817"><ele>257.0</ele><time>2026-04-25T16:02:11.899Z</time></trkpt><trkpt lat="40.1210267" lon="15.3076467"><ele>256.0</ele><time>2026-04-25T16:02:12.902Z</time></trkpt><trkpt lat="40.12094" lon="15.3077083"><ele>256.0</ele><time>2026-04-25T16:02:13.903Z</time></trkpt><trkpt lat="40.1208583" lon="15.3077783"><ele>256.0</ele><time>2026-04-25T16:02:14.906Z</time></trkpt><trkpt lat="40.12077" lon="15.3078533"><ele>256.0</ele><time>2026-04-25T16:02:15.906Z</time></trkpt><trkpt lat="40.1206767" lon="15.3079233"><ele>256.0</ele><time>2026-04-25T16:02:16.901Z</time></trkpt><trkpt lat="40.1205917" lon="15.307985"><ele>256.0</ele><time>2026-04-25T16:02:17.905Z</time></trkpt><trkpt lat="40.12051" lon="15.3080333"><ele>252.83333333333331</ele><time>2026-04-25T16:02:18.904Z</time></trkpt><trkpt lat="40.1204333" lon="15.3080783"><ele>249.66666666666666</ele><time>2026-04-25T16:02:19.911Z</time></trkpt><trkpt lat="40.1203583" lon="15.3081183"><ele>246.5</ele><time>2026-04-25T16:02:20.902Z</time></trkpt><trkpt lat="40.1202867" lon="15.3081617"><ele>243.33333333333331</ele><time>2026-04-25T16:02:21.907Z</time></trkpt><trkpt lat="40.1202233" lon="15.3082033"><ele>240.16666666666666</ele><time>2026-04-25T16:02:22.905Z</time></trkpt><trkpt lat="40.1201617" lon="15.308245"><ele>237.0</ele><time>2026-04-25T16:02:23.905Z</time></trkpt><trkpt lat="40.120095" lon="15.3082933"><ele>237.0</ele><time>2026-04-25T16:02:24.908Z</time></trkpt><trkpt lat="40.1200283" lon="15.3083433"><ele>237.0</ele><time>2026-04-25T16:02:25.966Z</time></trkpt><trkpt lat="40.11997" lon="15.3084"><ele>237.0</ele><time>2026-04-25T16:02:26.9Z</time></trkpt><trkpt lat="40.1199133" lon="15.3084767"><ele>237.0</ele><time>2026-04-25T16:02:27.902Z</time></trkpt><trkpt lat="40.119865" lon="15.3085633"><ele>237.0</ele><time>2026-04-25T16:02:28.903Z</time></trkpt><trkpt lat="40.1198117" lon="15.3086583"><ele>237.0</ele><time>2026-04-25T16:02:29.905Z</time></trkpt><trkpt lat="40.1197667" lon="15.3087567"><ele>235.4285714285714</ele><time>2026-04-25T16:02:30.902Z</time></trkpt><trkpt lat="40.1197217" lon="15.3088467"><ele>233.85714285714283</ele><time>2026-04-25T16:02:31.958Z</time></trkpt><trkpt lat="40.11968" lon="15.3089217"><ele>232.28571428571428</ele><time>2026-04-25T16:02:32.9Z</time></trkpt><trkpt lat="40.119625" lon="15.308965"><ele>230.7142857142857</ele><time>2026-04-25T16:02:33.905Z</time></trkpt><trkpt lat="40.1195667" lon="15.3090033"><ele>229.1428571428571</ele><time>2026-04-25T16:02:34.901Z</time></trkpt><trkpt lat="40.1195067" lon="15.3090483"><ele>227.57142857142858</ele><time>2026-04-25T16:02:35.904Z</time></trkpt><trkpt lat="40.1194467" lon="15.309095"><ele>226.0</ele><time>2026-04-25T16:02:36.906Z</time></trkpt><trkpt lat="40.1193883" lon="15.3091617"><ele>224.83333333333331</ele><time>2026-04-25T16:02:37.904Z</time></trkpt><trkpt lat="40.119325" lon="15.3092433"><ele>223.66666666666666</ele><time>2026-04-25T16:02:38.906Z</time></trkpt><trkpt lat="40.1192617" lon="15.3093233"><ele>222.5</ele><time>2026-04-25T16:02:39.904Z</time></trkpt><trkpt lat="40.1191983" lon="15.3094033"><ele>221.33333333333331</ele><time>2026-04-25T16:02:40.901Z</time></trkpt><trkpt lat="40.11914" lon="15.3094817"><ele>220.16666666666666</ele><time>2026-04-25T16:02:41.906Z</time></trkpt><trkpt lat="40.1190883" lon="15.3095467"><ele>219.0</ele><time>2026-04-25T16:02:42.903Z</time></trkpt><trkpt lat="40.1190017" lon="15.3096417"><ele>215.66666666666666</ele><time>2026-04-25T16:02:44.911Z</time></trkpt><trkpt lat="40.118955" lon="15.3097667"><ele>212.33333333333331</ele><time>2026-04-25T16:02:46.901Z</time></trkpt><trkpt lat="40.1189333" lon="15.309855"><ele>209.0</ele><time>2026-04-25T16:02:47.906Z</time></trkpt><trkpt lat="40.118905" lon="15.3099467"><ele>205.66666666666666</ele><time>2026-04-25T16:02:48.898Z</time></trkpt><trkpt lat="40.1188717" lon="15.3100383"><ele>202.33333333333331</ele><time>2026-04-25T16:02:49.911Z</time></trkpt><trkpt lat="40.1188317" lon="15.3101233"><ele>199.0</ele><time>2026-04-25T16:02:50.904Z</time></trkpt><trkpt lat="40.1187833" lon="15.3102033"><ele>198.99999999999997</ele><time>2026-04-25T16:02:51.903Z</time></trkpt><trkpt lat="40.118725" lon="15.3102733"><ele>199.0</ele><time>2026-04-25T16:02:52.898Z</time></trkpt><trkpt lat="40.1186717" lon="15.31034"><ele>199.0</ele><time>2026-04-25T16:02:53.901Z</time></trkpt><trkpt lat="40.118625" lon="15.31042"><ele>199.0</ele><time>2026-04-25T16:02:54.905Z</time></trkpt><trkpt lat="40.1185767" lon="15.310515"><ele>198.99999999999997</ele><time>2026-04-25T16:02:55.957Z</time></trkpt><trkpt lat="40.1185317" lon="15.310625"><ele>199.0</ele><time>2026-04-25T16:02:56.905Z</time></trkpt><trkpt lat="40.1184933" lon="15.310735"><ele>197.83333333333331</ele><time>2026-04-25T16:02:57.903Z</time></trkpt><trkpt lat="40.1184617" lon="15.31083"><ele>196.66666666666666</ele><time>2026-04-25T16:02:58.905Z</time></trkpt><trkpt lat="40.1184267" lon="15.3109133"><ele>195.5</ele><time>2026-04-25T16:02:59.902Z</time></trkpt><trkpt lat="40.1183867" lon="15.3109833"><ele>194.33333333333331</ele><time>2026-04-25T16:03:00.903Z</time></trkpt><trkpt lat="40.1183367" lon="15.311045"><ele>193.16666666666666</ele><time>2026-04-25T16:03:01.96Z</time></trkpt><trkpt lat="40.1182383" lon="15.3111383"><ele>192.0</ele><time>2026-04-25T16:03:03.909Z</time></trkpt><trkpt lat="40.1181867" lon="15.3111967"><ele>189.83333333333334</ele><time>2026-04-25T16:03:04.908Z</time></trkpt><trkpt lat="40.11813" lon="15.3112683"><ele>187.66666666666666</ele><time>2026-04-25T16:03:05.904Z</time></trkpt><trkpt lat="40.11807" lon="15.3113433"><ele>185.5</ele><time>2026-04-25T16:03:06.901Z</time></trkpt><trkpt lat="40.11801" lon="15.3114167"><ele>183.33333333333331</ele><time>2026-04-25T16:03:07.905Z</time></trkpt><trkpt lat="40.1179517" lon="15.3114883"><ele>181.16666666666666</ele><time>2026-04-25T16:03:08.906Z</time></trkpt><trkpt lat="40.1178933" lon="15.3115467"><ele>179.0</ele><time>2026-04-25T16:03:09.9Z</time></trkpt><trkpt lat="40.1178467" lon="15.3116067"><ele>178.33333333333331</ele><time>2026-04-25T16:03:10.904Z</time></trkpt><trkpt lat="40.1177967" lon="15.311675"><ele>177.66666666666666</ele><time>2026-04-25T16:03:11.902Z</time></trkpt><trkpt lat="40.117755" lon="15.3117467"><ele>177.0</ele><time>2026-04-25T16:03:12.903Z</time></trkpt><trkpt lat="40.1177067" lon="15.3118233"><ele>176.33333333333334</ele><time>2026-04-25T16:03:13.908Z</time></trkpt><trkpt lat="40.1176467" lon="15.311905"><ele>175.66666666666669</ele><time>2026-04-25T16:03:14.908Z</time></trkpt><trkpt lat="40.1175783" lon="15.31199"><ele>175.0</ele><time>2026-04-25T16:03:15.905Z</time></trkpt><trkpt lat="40.11751" lon="15.312075"><ele>175.0</ele><time>2026-04-25T16:03:16.904Z</time></trkpt><trkpt lat="40.1174383" lon="15.3121583"><ele>175.0</ele><time>2026-04-25T16:03:17.903Z</time></trkpt><trkpt lat="40.117365" lon="15.312235"><ele>175.0</ele><time>2026-04-25T16:03:18.918Z</time></trkpt><trkpt lat="40.1172933" lon="15.3123067"><ele>175.0</ele><time>2026-04-25T16:03:19.904Z</time></trkpt><trkpt lat="40.1172267" lon="15.3123733"><ele>175.0</ele><time>2026-04-25T16:03:20.907Z</time></trkpt><trkpt lat="40.117165" lon="15.3124433"><ele>175.0</ele><time>2026-04-25T16:03:21.899Z</time></trkpt><trkpt lat="40.1171017" lon="15.3125233"><ele>172.5</ele><time>2026-04-25T16:03:22.903Z</time></trkpt><trkpt lat="40.117045" lon="15.3126067"><ele>170.0</ele><time>2026-04-25T16:03:23.904Z</time></trkpt><trkpt lat="40.1169883" lon="15.3126883"><ele>167.5</ele><time>2026-04-25T16:03:24.906Z</time></trkpt><trkpt lat="40.116935" lon="15.3127667"><ele>165.0</ele><time>2026-04-25T16:03:25.954Z</time></trkpt><trkpt lat="40.116885" lon="15.31284"><ele>162.5</ele><time>2026-04-25T16:03:26.899Z</time></trkpt><trkpt lat="40.116825" lon="15.3129083"><ele>160.0</ele><time>2026-04-25T16:03:27.902Z</time></trkpt><trkpt lat="40.116765" lon="15.3129733"><ele>160.0</ele><time>2026-04-25T16:03:28.901Z</time></trkpt><trkpt lat="40.1167033" lon="15.3130317"><ele>160.0</ele><time>2026-04-25T16:03:29.903Z</time></trkpt><trkpt lat="40.11664" lon="15.313095"><ele>160.0</ele><time>2026-04-25T16:03:30.907Z</time></trkpt><trkpt lat="40.1165733" lon="15.313155"><ele>160.0</ele><time>2026-04-25T16:03:31.965Z</time></trkpt><trkpt lat="40.116525" lon="15.3132267"><ele>160.0</ele><time>2026-04-25T16:03:32.907Z</time></trkpt><trkpt lat="40.116475" lon="15.3132983"><ele>160.0</ele><time>2026-04-25T16:03:33.905Z</time></trkpt><trkpt lat="40.116425" lon="15.313375"><ele>157.5</ele><time>2026-04-25T16:03:34.903Z</time></trkpt><trkpt lat="40.11638" lon="15.313455"><ele>155.0</ele><time>2026-04-25T16:03:35.908Z</time></trkpt><trkpt lat="40.11634" lon="15.31353"><ele>152.5</ele><time>2026-04-25T16:03:36.902Z</time></trkpt><trkpt lat="40.11627" lon="15.31363"><ele>150.0</ele><time>2026-04-25T16:03:38.907Z</time></trkpt><trkpt lat="40.1161933" lon="15.3136433"><ele>147.5</ele><time>2026-04-25T16:03:40.902Z</time></trkpt><trkpt lat="40.1161217" lon="15.3135533"><ele>145.0</ele><time>2026-04-25T16:03:42.904Z</time></trkpt><trkpt lat="40.1160833" lon="15.3134583"><ele>145.0</ele><time>2026-04-25T16:03:43.903Z</time></trkpt><trkpt lat="40.1160383" lon="15.31337"><ele>145.0</ele><time>2026-04-25T16:03:44.904Z</time></trkpt><trkpt lat="40.1159983" lon="15.3132983"><ele>145.0</ele><time>2026-04-25T16:03:45.901Z</time></trkpt><trkpt lat="40.11596" lon="15.31315"><ele>145.0</ele><time>2026-04-25T16:03:47.901Z</time></trkpt><trkpt lat="40.1159633" lon="15.3130617"><ele>145.0</ele><time>2026-04-25T16:03:48.904Z</time></trkpt><trkpt lat="40.1159717" lon="15.3129317"><ele>145.0</ele><time>2026-04-25T16:03:50.902Z</time></trkpt><trkpt lat="40.1159467" lon="15.3128333"><ele>145.66666666666669</ele><time>2026-04-25T16:03:53.907Z</time></trkpt><trkpt lat="40.1158733" lon="15.3128017"><ele>146.33333333333334</ele><time>2026-04-25T16:03:55.965Z</time></trkpt><trkpt lat="40.115785" lon="15.3128183"><ele>147.0</ele><time>2026-04-25T16:03:57.902Z</time></trkpt><trkpt lat="40.115735" lon="15.3128717"><ele>147.66666666666666</ele><time>2026-04-25T16:03:58.908Z</time></trkpt><trkpt lat="40.1156883" lon="15.312935"><ele>148.33333333333331</ele><time>2026-04-25T16:03:59.904Z</time></trkpt><trkpt lat="40.1156417" lon="15.313085"><ele>149.0</ele><time>2026-04-25T16:04:01.956Z</time></trkpt><trkpt lat="40.1156033" lon="15.3132183"><ele>149.0</ele><time>2026-04-25T16:04:03.906Z</time></trkpt><trkpt lat="40.1154867" lon="15.3132"><ele>149.0</ele><time>2026-04-25T16:04:14.908Z</time></trkpt><trkpt lat="40.1154833" lon="15.3131117"><ele>149.0</ele><time>2026-04-25T16:04:20.903Z</time></trkpt><trkpt lat="40.1155117" lon="15.31303"><ele>149.0</ele><time>2026-04-25T16:04:22.904Z</time></trkpt><trkpt lat="40.1155267" lon="15.3129317"><ele>149.0</ele><time>2026-04-25T16:04:24.902Z</time></trkpt><trkpt lat="40.11552" lon="15.3127983"><ele>149.0</ele><time>2026-04-25T16:04:26.908Z</time></trkpt><trkpt lat="40.1155117" lon="15.3126483"><ele>149.0</ele><time>2026-04-25T16:04:28.902Z</time></trkpt><trkpt lat="40.1155317" lon="15.312525"><ele>149.0</ele><time>2026-04-25T16:04:30.905Z</time></trkpt><trkpt lat="40.1155733" lon="15.312435"><ele>149.0</ele><time>2026-04-25T16:04:32.901Z</time></trkpt><trkpt lat="40.1156283" lon="15.3123683"><ele>149.0</ele><time>2026-04-25T16:04:34.905Z</time></trkpt><trkpt lat="40.115675" lon="15.3122717"><ele>149.0</ele><time>2026-04-25T16:04:36.907Z</time></trkpt><trkpt lat="40.11569" lon="15.3121783"><ele>149.0</ele><time>2026-04-25T16:04:38.902Z</time></trkpt><trkpt lat="40.1157167" lon="15.3121017"><ele>149.83333333333331</ele><time>2026-04-25T16:04:40.909Z</time></trkpt><trkpt lat="40.1157283" lon="15.3120167"><ele>150.66666666666666</ele><time>2026-04-25T16:04:42.903Z</time></trkpt><trkpt lat="40.1157467" lon="15.3119"><ele>151.5</ele><time>2026-04-25T16:04:44.904Z</time></trkpt><trkpt lat="40.1157567" lon="15.31175"><ele>152.33333333333334</ele><time>2026-04-25T16:04:46.908Z</time></trkpt><trkpt lat="40.11576" lon="15.31166"><ele>153.16666666666669</ele><time>2026-04-25T16:04:47.905Z</time></trkpt><trkpt lat="40.1157767" lon="15.3115717"><ele>154.0</ele><time>2026-04-25T16:04:48.905Z</time></trkpt><trkpt lat="40.1157917" lon="15.3114817"><ele>157.0</ele><time>2026-04-25T16:04:49.906Z</time></trkpt><trkpt lat="40.1158183" lon="15.3113983"><ele>160.0</ele><time>2026-04-25T16:04:50.905Z</time></trkpt><trkpt lat="40.11588" lon="15.3112883"><ele>163.0</ele><time>2026-04-25T16:04:52.9Z</time></trkpt><trkpt lat="40.1159317" lon="15.3112333"><ele>166.0</ele><time>2026-04-25T16:04:53.908Z</time></trkpt><trkpt lat="40.1159933" lon="15.31116"><ele>169.0</ele><time>2026-04-25T16:04:54.903Z</time></trkpt><trkpt lat="40.1160467" lon="15.3110733"><ele>172.0</ele><time>2026-04-25T16:04:55.97Z</time></trkpt><trkpt lat="40.1160967" lon="15.3109817"><ele>172.0</ele><time>2026-04-25T16:04:56.904Z</time></trkpt><trkpt lat="40.1161433" lon="15.3108767"><ele>172.0</ele><time>2026-04-25T16:04:57.904Z</time></trkpt><trkpt lat="40.1161883" lon="15.3107783"><ele>172.0</ele><time>2026-04-25T16:04:58.908Z</time></trkpt><trkpt lat="40.1162267" lon="15.310695"><ele>172.0</ele><time>2026-04-25T16:04:59.905Z</time></trkpt><trkpt lat="40.1162483" lon="15.310615"><ele>172.0</ele><time>2026-04-25T16:05:00.906Z</time></trkpt><trkpt lat="40.116275" lon="15.3105383"><ele>172.0</ele><time>2026-04-25T16:05:01.957Z</time></trkpt><trkpt lat="40.1163117" lon="15.3104583"><ele>173.2</ele><time>2026-04-25T16:05:02.905Z</time></trkpt><trkpt lat="40.1163517" lon="15.3103767"><ele>174.39999999999998</ele><time>2026-04-25T16:05:03.899Z</time></trkpt><trkpt lat="40.1164033" lon="15.3103117"><ele>175.60000000000002</ele><time>2026-04-25T16:05:04.904Z</time></trkpt><trkpt lat="40.1165033" lon="15.3102417"><ele>176.8</ele><time>2026-04-25T16:05:06.904Z</time></trkpt><trkpt lat="40.1166033" lon="15.3102217"><ele>178.0</ele><time>2026-04-25T16:05:08.901Z</time></trkpt><trkpt lat="40.1167083" lon="15.3101417"><ele>180.16666666666669</ele><time>2026-04-25T16:05:10.906Z</time></trkpt><trkpt lat="40.1167667" lon="15.310065"><ele>182.33333333333334</ele><time>2026-04-25T16:05:11.901Z</time></trkpt><trkpt lat="40.1168283" lon="15.3099783"><ele>184.5</ele><time>2026-04-25T16:05:12.906Z</time></trkpt><trkpt lat="40.1168883" lon="15.309905"><ele>186.66666666666666</ele><time>2026-04-25T16:05:13.906Z</time></trkpt><trkpt lat="40.1169433" lon="15.3098517"><ele>188.83333333333331</ele><time>2026-04-25T16:05:14.902Z</time></trkpt><trkpt lat="40.1170367" lon="15.3097917"><ele>191.0</ele><time>2026-04-25T16:05:16.903Z</time></trkpt><trkpt lat="40.1171217" lon="15.309705"><ele>192.5</ele><time>2026-04-25T16:05:18.905Z</time></trkpt><trkpt lat="40.1171867" lon="15.3095633"><ele>194.0</ele><time>2026-04-25T16:05:20.905Z</time></trkpt><trkpt lat="40.1172083" lon="15.3094833"><ele>195.5</ele><time>2026-04-25T16:05:21.903Z</time></trkpt><trkpt lat="40.1172133" lon="15.3094"><ele>197.0</ele><time>2026-04-25T16:05:22.904Z</time></trkpt><trkpt lat="40.1172083" lon="15.309265"><ele>198.50000000000003</ele><time>2026-04-25T16:05:24.902Z</time></trkpt><trkpt lat="40.1171567" lon="15.309205"><ele>200.0</ele><time>2026-04-25T16:05:26.902Z</time></trkpt><trkpt lat="40.1171033" lon="15.3091133"><ele>200.0</ele><time>2026-04-25T16:05:28.903Z</time></trkpt><trkpt lat="40.117075" lon="15.3089783"><ele>200.0</ele><time>2026-04-25T16:05:30.905Z</time></trkpt><trkpt lat="40.1170817" lon="15.308885"><ele>200.0</ele><time>2026-04-25T16:05:31.956Z</time></trkpt><trkpt lat="40.117135" lon="15.3087583"><ele>200.0</ele><time>2026-04-25T16:05:33.901Z</time></trkpt><trkpt lat="40.1172333" lon="15.3086517"><ele>200.0</ele><time>2026-04-25T16:05:35.899Z</time></trkpt><trkpt lat="40.1172917" lon="15.308575"><ele>201.83333333333334</ele><time>2026-04-25T16:05:36.904Z</time></trkpt><trkpt lat="40.117345" lon="15.3084983"><ele>203.66666666666669</ele><time>2026-04-25T16:05:37.9Z</time></trkpt><trkpt lat="40.1173933" lon="15.3084417"><ele>205.5</ele><time>2026-04-25T16:05:38.899Z</time></trkpt><trkpt lat="40.11747" lon="15.3083333"><ele>207.33333333333331</ele><time>2026-04-25T16:05:40.905Z</time></trkpt><trkpt lat="40.117415" lon="15.30828"><ele>209.16666666666666</ele><time>2026-04-25T16:05:42.903Z</time></trkpt><trkpt lat="40.1173233" lon="15.3082067"><ele>211.0</ele><time>2026-04-25T16:05:44.9Z</time></trkpt><trkpt lat="40.1172217" lon="15.30808"><ele>212.49999999999997</ele><time>2026-04-25T16:05:46.904Z</time></trkpt><trkpt lat="40.11717" lon="15.3080017"><ele>214.0</ele><time>2026-04-25T16:05:47.901Z</time></trkpt><trkpt lat="40.1171183" lon="15.30792"><ele>215.5</ele><time>2026-04-25T16:05:48.9Z</time></trkpt><trkpt lat="40.1170717" lon="15.30785"><ele>217.0</ele><time>2026-04-25T16:05:49.905Z</time></trkpt><trkpt lat="40.1170283" lon="15.30778"><ele>218.49999999999997</ele><time>2026-04-25T16:05:50.905Z</time></trkpt><trkpt lat="40.1169867" lon="15.307705"><ele>220.0</ele><time>2026-04-25T16:05:51.903Z</time></trkpt><trkpt lat="40.1169433" lon="15.3076083"><ele>219.99999999999997</ele><time>2026-04-25T16:05:52.903Z</time></trkpt><trkpt lat="40.1169033" lon="15.3075167"><ele>220.0</ele><time>2026-04-25T16:05:53.904Z</time></trkpt><trkpt lat="40.1168683" lon="15.3074233"><ele>220.0</ele><time>2026-04-25T16:05:54.903Z</time></trkpt><trkpt lat="40.1168267" lon="15.3073433"><ele>220.0</ele><time>2026-04-25T16:05:55.946Z</time></trkpt><trkpt lat="40.1167783" lon="15.307275"><ele>219.99999999999997</ele><time>2026-04-25T16:05:56.904Z</time></trkpt><trkpt lat="40.1167317" lon="15.30713"><ele>220.0</ele><time>2026-04-25T16:05:58.9Z</time></trkpt><trkpt lat="40.1167483" lon="15.30698"><ele>221.4</ele><time>2026-04-25T16:06:00.902Z</time></trkpt><trkpt lat="40.1168467" lon="15.3068617"><ele>222.8</ele><time>2026-04-25T16:06:02.902Z</time></trkpt><trkpt lat="40.116945" lon="15.3067783"><ele>224.2</ele><time>2026-04-25T16:06:04.904Z</time></trkpt><trkpt lat="40.1170233" lon="15.3067383"><ele>225.6</ele><time>2026-04-25T16:06:06.904Z</time></trkpt><trkpt lat="40.1171017" lon="15.3067117"><ele>227.0</ele><time>2026-04-25T16:06:08.915Z</time></trkpt><trkpt lat="40.1172033" lon="15.306645"><ele>227.0</ele><time>2026-04-25T16:06:10.905Z</time></trkpt><trkpt lat="40.1172867" lon="15.3065533"><ele>227.0</ele><time>2026-04-25T16:06:12.902Z</time></trkpt><trkpt lat="40.1173417" lon="15.306435"><ele>227.0</ele><time>2026-04-25T16:06:14.906Z</time></trkpt><trkpt lat="40.1173567" lon="15.30628"><ele>227.0</ele><time>2026-04-25T16:06:16.907Z</time></trkpt><trkpt lat="40.1173867" lon="15.306145"><ele>227.0</ele><time>2026-04-25T16:06:18.905Z</time></trkpt><trkpt lat="40.1174567" lon="15.3060567"><ele>232.2</ele><time>2026-04-25T16:06:20.902Z</time></trkpt><trkpt lat="40.11755" lon="15.3059883"><ele>237.39999999999998</ele><time>2026-04-25T16:06:22.904Z</time></trkpt><trkpt lat="40.1176483" lon="15.305925"><ele>242.60000000000002</ele><time>2026-04-25T16:06:24.905Z</time></trkpt><trkpt lat="40.1177633" lon="15.3058933"><ele>247.8</ele><time>2026-04-25T16:06:26.9Z</time></trkpt><trkpt lat="40.11783" lon="15.30589"><ele>253.0</ele><time>2026-04-25T16:06:27.904Z</time></trkpt><trkpt lat="40.1179033" lon="15.3058867"><ele>252.99999999999997</ele><time>2026-04-25T16:06:28.904Z</time></trkpt><trkpt lat="40.1179783" lon="15.305885"><ele>253.0</ele><time>2026-04-25T16:06:29.902Z</time></trkpt><trkpt lat="40.1180567" lon="15.305885"><ele>253.0</ele><time>2026-04-25T16:06:30.904Z</time></trkpt><trkpt lat="40.1181383" lon="15.3058867"><ele>253.0</ele><time>2026-04-25T16:06:31.958Z</time></trkpt><trkpt lat="40.1182233" lon="15.3058933"><ele>252.99999999999997</ele><time>2026-04-25T16:06:32.904Z</time></trkpt><trkpt lat="40.1182983" lon="15.3059017"><ele>253.0</ele><time>2026-04-25T16:06:33.905Z</time></trkpt><trkpt lat="40.1184" lon="15.305905"><ele>253.0</ele><time>2026-04-25T16:06:35.903Z</time></trkpt><trkpt lat="40.11836" lon="15.305815"><ele>253.0</ele><time>2026-04-25T16:06:38.909Z</time></trkpt><trkpt lat="40.11829" lon="15.3057317"><ele>253.0</ele><time>2026-04-25T16:06:39.901Z</time></trkpt><trkpt lat="40.1181917" lon="15.305615"><ele>253.0</ele><time>2026-04-25T16:06:40.907Z</time></trkpt><trkpt lat="40.1180883" lon="15.3054833"><ele>255.0</ele><time>2026-04-25T16:06:41.903Z</time></trkpt><trkpt lat="40.1179817" lon="15.3053567"><ele>257.0</ele><time>2026-04-25T16:06:42.909Z</time></trkpt><trkpt lat="40.1178817" lon="15.3052367"><ele>259.0</ele><time>2026-04-25T16:06:43.905Z</time></trkpt><trkpt lat="40.1177967" lon="15.3051117"><ele>261.0</ele><time>2026-04-25T16:06:44.908Z</time></trkpt><trkpt lat="40.1177167" lon="15.304975"><ele>261.0</ele><time>2026-04-25T16:06:45.903Z</time></trkpt><trkpt lat="40.1176533" lon="15.3048233"><ele>261.0</ele><time>2026-04-25T16:06:46.906Z</time></trkpt><trkpt lat="40.11759" lon="15.3046617"><ele>261.0</ele><time>2026-04-25T16:06:47.904Z</time></trkpt><trkpt lat="40.1175217" lon="15.3045133"><ele>261.0</ele><time>2026-04-25T16:06:48.901Z</time></trkpt><trkpt lat="40.1174417" lon="15.3043883"><ele>263.40000000000003</ele><time>2026-04-25T16:06:49.909Z</time></trkpt><trkpt lat="40.1173667" lon="15.304345"><ele>265.8</ele><time>2026-04-25T16:06:50.9Z</time></trkpt><trkpt lat="40.1172733" lon="15.3042983"><ele>268.20000000000005</ele><time>2026-04-25T16:06:51.906Z</time></trkpt><trkpt lat="40.117165" lon="15.3042617"><ele>270.6</ele><time>2026-04-25T16:06:52.908Z</time></trkpt><trkpt lat="40.1170433" lon="15.304245"><ele>273.0</ele><time>2026-04-25T16:06:53.906Z</time></trkpt><trkpt lat="40.1169167" lon="15.3042567"><ele>273.0</ele><time>2026-04-25T16:06:54.904Z</time></trkpt><trkpt lat="40.116795" lon="15.30429"><ele>273.0</ele><time>2026-04-25T16:06:55.972Z</time></trkpt><trkpt lat="40.1166867" lon="15.3043283"><ele>273.0</ele><time>2026-04-25T16:06:56.904Z</time></trkpt><trkpt lat="40.1165883" lon="15.3043633"><ele>273.0</ele><time>2026-04-25T16:06:57.9Z</time></trkpt><trkpt lat="40.1164967" lon="15.3044"><ele>273.0</ele><time>2026-04-25T16:06:58.903Z</time></trkpt><trkpt lat="40.1164167" lon="15.3044317"><ele>271.1666666666667</ele><time>2026-04-25T16:06:59.905Z</time></trkpt><trkpt lat="40.1163333" lon="15.3044517"><ele>269.3333333333333</ele><time>2026-04-25T16:07:00.902Z</time></trkpt><trkpt lat="40.1162567" lon="15.3044817"><ele>267.5</ele><time>2026-04-25T16:07:01.958Z</time></trkpt><trkpt lat="40.1161733" lon="15.3045167"><ele>265.66666666666663</ele><time>2026-04-25T16:07:02.903Z</time></trkpt><trkpt lat="40.1160933" lon="15.3045517"><ele>263.8333333333333</ele><time>2026-04-25T16:07:03.898Z</time></trkpt><trkpt lat="40.1160117" lon="15.30459"><ele>262.0</ele><time>2026-04-25T16:07:04.898Z</time></trkpt><trkpt lat="40.1159233" lon="15.3046367"><ele>262.0</ele><time>2026-04-25T16:07:05.907Z</time></trkpt><trkpt lat="40.1158367" lon="15.30469"><ele>262.0</ele><time>2026-04-25T16:07:06.902Z</time></trkpt><trkpt lat="40.115755" lon="15.30475"><ele>262.0</ele><time>2026-04-25T16:07:07.905Z</time></trkpt><trkpt lat="40.1156767" lon="15.3048217"><ele>262.0</ele><time>2026-04-25T16:07:08.908Z</time></trkpt><trkpt lat="40.1156117" lon="15.3048983"><ele>262.0</ele><time>2026-04-25T16:07:09.906Z</time></trkpt><trkpt lat="40.115565" lon="15.3049733"><ele>262.0</ele><time>2026-04-25T16:07:10.9Z</time></trkpt><trkpt lat="40.1155267" lon="15.3050533"><ele>258.66666666666663</ele><time>2026-04-25T16:07:11.902Z</time></trkpt><trkpt lat="40.115505" lon="15.3051383"><ele>255.33333333333331</ele><time>2026-04-25T16:07:12.901Z</time></trkpt><trkpt lat="40.1155033" lon="15.3052333"><ele>252.0</ele><time>2026-04-25T16:07:13.904Z</time></trkpt><trkpt lat="40.1155133" lon="15.3053267"><ele>248.66666666666669</ele><time>2026-04-25T16:07:14.901Z</time></trkpt><trkpt lat="40.1155317" lon="15.3054083"><ele>245.33333333333334</ele><time>2026-04-25T16:07:15.906Z</time></trkpt><trkpt lat="40.1155217" lon="15.3055517"><ele>242.0</ele><time>2026-04-25T16:07:17.904Z</time></trkpt><trkpt lat="40.1154667" lon="15.3056383"><ele>242.0</ele><time>2026-04-25T16:07:19.904Z</time></trkpt><trkpt lat="40.1153767" lon="15.30559"><ele>242.0</ele><time>2026-04-25T16:07:22.903Z</time></trkpt><trkpt lat="40.1152983" lon="15.3054117"><ele>242.0</ele><time>2026-04-25T16:07:24.904Z</time></trkpt><trkpt lat="40.1152433" lon="15.3052933"><ele>242.0</ele><time>2026-04-25T16:07:25.969Z</time></trkpt><trkpt lat="40.1151733" lon="15.3051683"><ele>242.0</ele><time>2026-04-25T16:07:26.9Z</time></trkpt><trkpt lat="40.1150933" lon="15.3050467"><ele>242.0</ele><time>2026-04-25T16:07:27.903Z</time></trkpt><trkpt lat="40.11501" lon="15.3049367"><ele>242.0</ele><time>2026-04-25T16:07:28.905Z</time></trkpt><trkpt lat="40.1149217" lon="15.3048417"><ele>242.0</ele><time>2026-04-25T16:07:29.903Z</time></trkpt><trkpt lat="40.1148283" lon="15.30476"><ele>238.8</ele><time>2026-04-25T16:07:30.906Z</time></trkpt><trkpt lat="40.1147367" lon="15.30468"><ele>235.6</ele><time>2026-04-25T16:07:31.957Z</time></trkpt><trkpt lat="40.1146483" lon="15.3045983"><ele>232.40000000000003</ele><time>2026-04-25T16:07:32.899Z</time></trkpt><trkpt lat="40.11458" lon="15.304505"><ele>229.20000000000002</ele><time>2026-04-25T16:07:33.903Z</time></trkpt><trkpt lat="40.1145167" lon="15.3044017"><ele>226.0</ele><time>2026-04-25T16:07:34.903Z</time></trkpt><trkpt lat="40.1144583" lon="15.3043017"><ele>225.99999999999997</ele><time>2026-04-25T16:07:35.902Z</time></trkpt><trkpt lat="40.1143983" lon="15.3042117"><ele>226.0</ele><time>2026-04-25T16:07:36.902Z</time></trkpt><trkpt lat="40.1143383" lon="15.304135"><ele>226.0</ele><time>2026-04-25T16:07:37.901Z</time></trkpt><trkpt lat="40.1142867" lon="15.3040783"><ele>226.0</ele><time>2026-04-25T16:07:38.912Z</time></trkpt><trkpt lat="40.1142133" lon="15.3040717"><ele>225.99999999999997</ele><time>2026-04-25T16:07:41.903Z</time></trkpt><trkpt lat="40.114115" lon="15.3041217"><ele>226.0</ele><time>2026-04-25T16:07:43.902Z</time></trkpt><trkpt lat="40.1140383" lon="15.3042033"><ele>222.8</ele><time>2026-04-25T16:07:45.904Z</time></trkpt><trkpt lat="40.113955" lon="15.3042917"><ele>219.60000000000002</ele><time>2026-04-25T16:07:47.906Z</time></trkpt><trkpt lat="40.1139017" lon="15.3043467"><ele>216.4</ele><time>2026-04-25T16:07:48.906Z</time></trkpt><trkpt lat="40.11383" lon="15.3044117"><ele>213.2</ele><time>2026-04-25T16:07:49.902Z</time></trkpt><trkpt lat="40.1137467" lon="15.3044867"><ele>210.0</ele><time>2026-04-25T16:07:50.901Z</time></trkpt><trkpt lat="40.11366" lon="15.3045617"><ele>210.0</ele><time>2026-04-25T16:07:51.905Z</time></trkpt><trkpt lat="40.113565" lon="15.3046317"><ele>210.0</ele><time>2026-04-25T16:07:52.9Z</time></trkpt><trkpt lat="40.1134717" lon="15.3047033"><ele>210.0</ele><time>2026-04-25T16:07:53.903Z</time></trkpt><trkpt lat="40.11338" lon="15.30476"><ele>210.0</ele><time>2026-04-25T16:07:54.904Z</time></trkpt><trkpt lat="40.1132883" lon="15.304805"><ele>210.0</ele><time>2026-04-25T16:07:55.968Z</time></trkpt><trkpt lat="40.1131933" lon="15.3048483"><ele>206.66666666666666</ele><time>2026-04-25T16:07:56.898Z</time></trkpt><trkpt lat="40.1131117" lon="15.3048933"><ele>203.33333333333334</ele><time>2026-04-25T16:07:57.899Z</time></trkpt><trkpt lat="40.11303" lon="15.30494"><ele>200.0</ele><time>2026-04-25T16:07:58.904Z</time></trkpt><trkpt lat="40.1129533" lon="15.3049883"><ele>196.66666666666669</ele><time>2026-04-25T16:07:59.9Z</time></trkpt><trkpt lat="40.1128833" lon="15.3050383"><ele>193.33333333333334</ele><time>2026-04-25T16:08:00.9Z</time></trkpt><trkpt lat="40.1128133" lon="15.3050967"><ele>190.0</ele><time>2026-04-25T16:08:01.956Z</time></trkpt><trkpt lat="40.1127417" lon="15.3051467"><ele>190.0</ele><time>2026-04-25T16:08:02.902Z</time></trkpt><trkpt lat="40.112675" lon="15.30519"><ele>190.0</ele><time>2026-04-25T16:08:03.897Z</time></trkpt><trkpt lat="40.1126017" lon="15.30523"><ele>190.0</ele><time>2026-04-25T16:08:04.906Z</time></trkpt><trkpt lat="40.11252" lon="15.3052683"><ele>190.0</ele><time>2026-04-25T16:08:05.901Z</time></trkpt><trkpt lat="40.1124367" lon="15.3052933"><ele>190.0</ele><time>2026-04-25T16:08:06.906Z</time></trkpt><trkpt lat="40.1123517" lon="15.305315"><ele>190.0</ele><time>2026-04-25T16:08:07.9Z</time></trkpt><trkpt lat="40.1122633" lon="15.3053367"><ele>186.8</ele><time>2026-04-25T16:08:08.906Z</time></trkpt><trkpt lat="40.1121817" lon="15.3053567"><ele>183.6</ele><time>2026-04-25T16:08:09.898Z</time></trkpt><trkpt lat="40.11211" lon="15.3053717"><ele>180.39999999999998</ele><time>2026-04-25T16:08:10.9Z</time></trkpt><trkpt lat="40.11201" lon="15.305355"><ele>177.2</ele><time>2026-04-25T16:08:12.905Z</time></trkpt><trkpt lat="40.1119283" lon="15.3052367"><ele>174.0</ele><time>2026-04-25T16:08:14.899Z</time></trkpt><trkpt lat="40.1118833" lon="15.305145"><ele>174.0</ele><time>2026-04-25T16:08:15.895Z</time></trkpt><trkpt lat="40.1118317" lon="15.3050517"><ele>174.0</ele><time>2026-04-25T16:08:16.899Z</time></trkpt><trkpt lat="40.1117767" lon="15.304945"><ele>174.0</ele><time>2026-04-25T16:08:17.899Z</time></trkpt><trkpt lat="40.1117133" lon="15.3048367"><ele>174.0</ele><time>2026-04-25T16:08:18.9Z</time></trkpt><trkpt lat="40.1116567" lon="15.304755"><ele>174.0</ele><time>2026-04-25T16:08:19.901Z</time></trkpt><trkpt lat="40.1116017" lon="15.3047017"><ele>174.0</ele><time>2026-04-25T16:08:20.907Z</time></trkpt><trkpt lat="40.1115317" lon="15.3046367"><ele>175.33333333333334</ele><time>2026-04-25T16:08:21.905Z</time></trkpt><trkpt lat="40.1114733" lon="15.3045717"><ele>176.66666666666666</ele><time>2026-04-25T16:08:22.902Z</time></trkpt><trkpt lat="40.111415" lon="15.3045283"><ele>178.0</ele><time>2026-04-25T16:08:23.903Z</time></trkpt><trkpt lat="40.1113483" lon="15.3044883"><ele>179.33333333333331</ele><time>2026-04-25T16:08:24.9Z</time></trkpt><trkpt lat="40.1112733" lon="15.3044733"><ele>180.66666666666666</ele><time>2026-04-25T16:08:25.94Z</time></trkpt><trkpt lat="40.11121" lon="15.3044733"><ele>182.0</ele><time>2026-04-25T16:08:26.898Z</time></trkpt><trkpt lat="40.111115" lon="15.3045467"><ele>182.0</ele><time>2026-04-25T16:08:28.901Z</time></trkpt><trkpt lat="40.1110583" lon="15.3046183"><ele>182.0</ele><time>2026-04-25T16:08:29.901Z</time></trkpt><trkpt lat="40.1109933" lon="15.3047133"><ele>182.0</ele><time>2026-04-25T16:08:30.902Z</time></trkpt><trkpt lat="40.1109183" lon="15.3048133"><ele>182.0</ele><time>2026-04-25T16:08:31.95Z</time></trkpt><trkpt lat="40.1108433" lon="15.3049183"><ele>182.0</ele><time>2026-04-25T16:08:32.903Z</time></trkpt><trkpt lat="40.1107767" lon="15.3050317"><ele>179.0</ele><time>2026-04-25T16:08:33.902Z</time></trkpt><trkpt lat="40.1107167" lon="15.3051583"><ele>176.0</ele><time>2026-04-25T16:08:34.901Z</time></trkpt><trkpt lat="40.1106583" lon="15.3052817"><ele>173.0</ele><time>2026-04-25T16:08:35.9Z</time></trkpt><trkpt lat="40.110595" lon="15.3053983"><ele>170.0</ele><time>2026-04-25T16:08:36.899Z</time></trkpt><trkpt lat="40.1105333" lon="15.3055117"><ele>167.0</ele><time>2026-04-25T16:08:37.905Z</time></trkpt><trkpt lat="40.1104683" lon="15.3056183"><ele>164.2</ele><time>2026-04-25T16:08:38.899Z</time></trkpt><trkpt lat="40.110395" lon="15.305725"><ele>161.39999999999998</ele><time>2026-04-25T16:08:39.904Z</time></trkpt><trkpt lat="40.110315" lon="15.3058333"><ele>158.60000000000002</ele><time>2026-04-25T16:08:40.904Z</time></trkpt><trkpt lat="40.1102367" lon="15.3059367"><ele>155.8</ele><time>2026-04-25T16:08:41.9Z</time></trkpt><trkpt lat="40.11016" lon="15.3060383"><ele>153.0</ele><time>2026-04-25T16:08:42.9Z</time></trkpt><trkpt lat="40.1100833" lon="15.3061417"><ele>153.0</ele><time>2026-04-25T16:08:43.899Z</time></trkpt><trkpt lat="40.110005" lon="15.3062383"><ele>153.0</ele><time>2026-04-25T16:08:44.9Z</time></trkpt><trkpt lat="40.1099317" lon="15.3063233"><ele>153.0</ele><time>2026-04-25T16:08:45.902Z</time></trkpt><trkpt lat="40.1098517" lon="15.306395"><ele>153.0</ele><time>2026-04-25T16:08:46.909Z</time></trkpt><trkpt lat="40.109765" lon="15.3064517"><ele>153.0</ele><time>2026-04-25T16:08:47.902Z</time></trkpt><trkpt lat="40.1096667" lon="15.3065017"><ele>149.6</ele><time>2026-04-25T16:08:48.901Z</time></trkpt><trkpt lat="40.1095667" lon="15.30655"><ele>146.20000000000002</ele><time>2026-04-25T16:08:49.902Z</time></trkpt><trkpt lat="40.10947" lon="15.3065983"><ele>142.8</ele><time>2026-04-25T16:08:50.901Z</time></trkpt><trkpt lat="40.1093783" lon="15.3066433"><ele>139.4</ele><time>2026-04-25T16:08:51.899Z</time></trkpt><trkpt lat="40.1092917" lon="15.3066767"><ele>136.0</ele><time>2026-04-25T16:08:52.9Z</time></trkpt><trkpt lat="40.10921" lon="15.30669"><ele>136.0</ele><time>2026-04-25T16:08:53.909Z</time></trkpt><trkpt lat="40.1091267" lon="15.3066933"><ele>136.0</ele><time>2026-04-25T16:08:54.905Z</time></trkpt><trkpt lat="40.1090383" lon="15.306675"><ele>136.0</ele><time>2026-04-25T16:08:55.97Z</time></trkpt><trkpt lat="40.1089333" lon="15.3066467"><ele>136.0</ele><time>2026-04-25T16:08:56.904Z</time></trkpt><trkpt lat="40.1088083" lon="15.3066133"><ele>136.0</ele><time>2026-04-25T16:08:57.901Z</time></trkpt><trkpt lat="40.1086833" lon="15.30659"><ele>134.25</ele><time>2026-04-25T16:08:58.909Z</time></trkpt><trkpt lat="40.1085567" lon="15.306575"><ele>132.5</ele><time>2026-04-25T16:08:59.899Z</time></trkpt><trkpt lat="40.10843" lon="15.306555"><ele>130.75</ele><time>2026-04-25T16:09:00.905Z</time></trkpt><trkpt lat="40.1082917" lon="15.3065167"><ele>129.0</ele><time>2026-04-25T16:09:01.958Z</time></trkpt><trkpt lat="40.1081267" lon="15.30646"><ele>128.33333333333334</ele><time>2026-04-25T16:09:02.899Z</time></trkpt><trkpt lat="40.1079667" lon="15.30641"><ele>127.66666666666667</ele><time>2026-04-25T16:09:03.902Z</time></trkpt><trkpt lat="40.1078183" lon="15.3063667"><ele>127.0</ele><time>2026-04-25T16:09:04.904Z</time></trkpt><trkpt lat="40.1076833" lon="15.3063217"><ele>127.0</ele><time>2026-04-25T16:09:05.902Z</time></trkpt><trkpt lat="40.1075617" lon="15.3062667"><ele>126.99999999999999</ele><time>2026-04-25T16:09:06.899Z</time></trkpt><trkpt lat="40.1074533" lon="15.30621"><ele>126.99999999999999</ele><time>2026-04-25T16:09:07.901Z</time></trkpt><trkpt lat="40.107365" lon="15.3061467"><ele>127.0</ele><time>2026-04-25T16:09:08.901Z</time></trkpt><trkpt lat="40.107295" lon="15.3060733"><ele>127.0</ele><time>2026-04-25T16:09:09.909Z</time></trkpt><trkpt lat="40.1072333" lon="15.3059917"><ele>124.33333333333334</ele><time>2026-04-25T16:09:10.902Z</time></trkpt><trkpt lat="40.1071817" lon="15.305915"><ele>121.66666666666667</ele><time>2026-04-25T16:09:11.901Z</time></trkpt><trkpt lat="40.1071283" lon="15.30585"><ele>119.0</ele><time>2026-04-25T16:09:12.9Z</time></trkpt><trkpt lat="40.1070567" lon="15.3058317"><ele>116.33333333333334</ele><time>2026-04-25T16:09:14.903Z</time></trkpt><trkpt lat="40.107005" lon="15.3059433"><ele>113.66666666666667</ele><time>2026-04-25T16:09:16.899Z</time></trkpt><trkpt lat="40.1069283" lon="15.30597"><ele>111.0</ele><time>2026-04-25T16:09:18.9Z</time></trkpt><trkpt lat="40.1069083" lon="15.3058783"><ele>111.0</ele><time>2026-04-25T16:09:20.904Z</time></trkpt><trkpt lat="40.10696" lon="15.30573"><ele>111.0</ele><time>2026-04-25T16:09:21.9Z</time></trkpt><trkpt lat="40.10697" lon="15.305635"><ele>111.0</ele><time>2026-04-25T16:09:22.898Z</time></trkpt><trkpt lat="40.1069633" lon="15.305505"><ele>111.0</ele><time>2026-04-25T16:09:24.903Z</time></trkpt><trkpt lat="40.1069067" lon="15.3054083"><ele>111.0</ele><time>2026-04-25T16:09:26.903Z</time></trkpt><trkpt lat="40.1067717" lon="15.305405"><ele>112.66666666666666</ele><time>2026-04-25T16:09:28.906Z</time></trkpt><trkpt lat="40.106635" lon="15.3054433"><ele>114.33333333333333</ele><time>2026-04-25T16:09:29.901Z</time></trkpt><trkpt lat="40.1064667" lon="15.305495"><ele>116.0</ele><time>2026-04-25T16:09:30.901Z</time></trkpt><trkpt lat="40.1063133" lon="15.3055733"><ele>113.6</ele><time>2026-04-25T16:09:31.951Z</time></trkpt><trkpt lat="40.10619" lon="15.3056317"><ele>111.19999999999999</ele><time>2026-04-25T16:09:32.897Z</time></trkpt><trkpt lat="40.1060917" lon="15.3056767"><ele>108.80000000000001</ele><time>2026-04-25T16:09:33.901Z</time></trkpt><trkpt lat="40.106" lon="15.3057067"><ele>106.4</ele><time>2026-04-25T16:09:34.902Z</time></trkpt><trkpt lat="40.1058933" lon="15.3056967"><ele>104.0</ele><time>2026-04-25T16:09:35.902Z</time></trkpt><trkpt lat="40.1057817" lon="15.3056667"><ele>101.4</ele><time>2026-04-25T16:09:36.905Z</time></trkpt><trkpt lat="40.105685" lon="15.3056417"><ele>98.80000000000001</ele><time>2026-04-25T16:09:37.904Z</time></trkpt><trkpt lat="40.1055883" lon="15.3056267"><ele>96.19999999999999</ele><time>2026-04-25T16:09:38.901Z</time></trkpt><trkpt lat="40.1055" lon="15.305655"><ele>93.6</ele><time>2026-04-25T16:09:39.903Z</time></trkpt><trkpt lat="40.1054133" lon="15.3057117"><ele>91.0</ele><time>2026-04-25T16:09:40.905Z</time></trkpt><trkpt lat="40.1053383" lon="15.3057767"><ele>91.0</ele><time>2026-04-25T16:09:41.909Z</time></trkpt><trkpt lat="40.105275" lon="15.30584"><ele>91.0</ele><time>2026-04-25T16:09:42.904Z</time></trkpt><trkpt lat="40.1051667" lon="15.3059283"><ele>91.0</ele><time>2026-04-25T16:09:44.901Z</time></trkpt><trkpt lat="40.1050633" lon="15.3059933"><ele>91.0</ele><time>2026-04-25T16:09:46.905Z</time></trkpt><trkpt lat="40.1050033" lon="15.3060183"><ele>91.0</ele><time>2026-04-25T16:09:48.905Z</time></trkpt><trkpt lat="40.1049717" lon="15.3061017"><ele>91.0</ele><time>2026-04-25T16:09:50.904Z</time></trkpt><trkpt lat="40.1049817" lon="15.3061883"><ele>91.0</ele><time>2026-04-25T16:09:51.904Z</time></trkpt><trkpt lat="40.1050067" lon="15.3063"><ele>91.0</ele><time>2026-04-25T16:09:52.901Z</time></trkpt><trkpt lat="40.1050433" lon="15.306445"><ele>91.0</ele><time>2026-04-25T16:09:53.904Z</time></trkpt><trkpt lat="40.10508" lon="15.3065983"><ele>91.0</ele><time>2026-04-25T16:09:54.902Z</time></trkpt><trkpt lat="40.105135" lon="15.3068"><ele>88.66666666666666</ele><time>2026-04-25T16:09:55.969Z</time></trkpt><trkpt lat="40.1051783" lon="15.3070017"><ele>86.33333333333333</ele><time>2026-04-25T16:09:56.904Z</time></trkpt><trkpt lat="40.1052" lon="15.3071983"><ele>84.0</ele><time>2026-04-25T16:09:57.904Z</time></trkpt><trkpt lat="40.1051917" lon="15.3074017"><ele>83.66666666666667</ele><time>2026-04-25T16:09:58.909Z</time></trkpt><trkpt lat="40.10513" lon="15.307635"><ele>83.33333333333334</ele><time>2026-04-25T16:09:59.916Z</time></trkpt><trkpt lat="40.105075" lon="15.3078633"><ele>83.0</ele><time>2026-04-25T16:10:00.905Z</time></trkpt><trkpt lat="40.1050183" lon="15.3080767"><ele>83.5</ele><time>2026-04-25T16:10:01.957Z</time></trkpt><trkpt lat="40.1049767" lon="15.3082617"><ele>84.0</ele><time>2026-04-25T16:10:02.898Z</time></trkpt><trkpt lat="40.1049283" lon="15.308435"><ele>84.5</ele><time>2026-04-25T16:10:03.899Z</time></trkpt><trkpt lat="40.1048567" lon="15.30858"><ele>85.0</ele><time>2026-04-25T16:10:04.904Z</time></trkpt><trkpt lat="40.1047683" lon="15.3086983"><ele>86.0</ele><time>2026-04-25T16:10:05.904Z</time></trkpt><trkpt lat="40.1046467" lon="15.3087783"><ele>87.0</ele><time>2026-04-25T16:10:06.909Z</time></trkpt><trkpt lat="40.1045" lon="15.3088267"><ele>88.0</ele><time>2026-04-25T16:10:07.902Z</time></trkpt><trkpt lat="40.1043267" lon="15.30886"><ele>88.0</ele><time>2026-04-25T16:10:08.9Z</time></trkpt><trkpt lat="40.104085" lon="15.3088167"><ele>88.0</ele><time>2026-04-25T16:10:09.901Z</time></trkpt><trkpt lat="40.1038517" lon="15.30882"><ele>89.5</ele><time>2026-04-25T16:10:10.905Z</time></trkpt><trkpt lat="40.1036233" lon="15.3088517"><ele>91.0</ele><time>2026-04-25T16:10:11.907Z</time></trkpt><trkpt lat="40.1034017" lon="15.3088867"><ele>95.0</ele><time>2026-04-25T16:10:12.901Z</time></trkpt><trkpt lat="40.103195" lon="15.30892"><ele>99.0</ele><time>2026-04-25T16:10:13.903Z</time></trkpt><trkpt lat="40.1029783" lon="15.3089317"><ele>103.0</ele><time>2026-04-25T16:10:14.902Z</time></trkpt><trkpt lat="40.10277" lon="15.3089367"><ele>103.0</ele><time>2026-04-25T16:10:15.896Z</time></trkpt><trkpt lat="40.1025717" lon="15.3089533"><ele>103.0</ele><time>2026-04-25T16:10:16.911Z</time></trkpt><trkpt lat="40.1023817" lon="15.308995"><ele>103.0</ele><time>2026-04-25T16:10:17.897Z</time></trkpt><trkpt lat="40.1022017" lon="15.3090467"><ele>104.66666666666667</ele><time>2026-04-25T16:10:18.907Z</time></trkpt><trkpt lat="40.102035" lon="15.3090967"><ele>106.33333333333334</ele><time>2026-04-25T16:10:19.911Z</time></trkpt><trkpt lat="40.10188" lon="15.3091433"><ele>108.0</ele><time>2026-04-25T16:10:20.899Z</time></trkpt><trkpt lat="40.1017267" lon="15.309175"><ele>110.33333333333334</ele><time>2026-04-25T16:10:21.91Z</time></trkpt><trkpt lat="40.10156" lon="15.30919"><ele>112.66666666666667</ele><time>2026-04-25T16:10:22.903Z</time></trkpt><trkpt lat="40.10138" lon="15.3091933"><ele>115.0</ele><time>2026-04-25T16:10:23.898Z</time></trkpt><trkpt lat="40.1012083" lon="15.309195"><ele>115.0</ele><time>2026-04-25T16:10:24.902Z</time></trkpt><trkpt lat="40.1010467" lon="15.30918"><ele>115.0</ele><time>2026-04-25T16:10:25.965Z</time></trkpt><trkpt lat="40.1008967" lon="15.3091617"><ele>115.0</ele><time>2026-04-25T16:10:26.9Z</time></trkpt><trkpt lat="40.1007983" lon="15.3090983"><ele>115.0</ele><time>2026-04-25T16:10:27.903Z</time></trkpt><trkpt lat="40.1006983" lon="15.3090033"><ele>115.25</ele><time>2026-04-25T16:10:28.906Z</time></trkpt><trkpt lat="40.1006" lon="15.3088917"><ele>115.5</ele><time>2026-04-25T16:10:29.91Z</time></trkpt><trkpt lat="40.1005317" lon="15.30874"><ele>115.75</ele><time>2026-04-25T16:10:30.901Z</time></trkpt><trkpt lat="40.1004817" lon="15.3085833"><ele>116.0</ele><time>2026-04-25T16:10:31.956Z</time></trkpt><trkpt lat="40.1004267" lon="15.3084583"><ele>116.0</ele><time>2026-04-25T16:10:32.898Z</time></trkpt><trkpt lat="40.1003633" lon="15.30836"><ele>116.0</ele><time>2026-04-25T16:10:33.903Z</time></trkpt><trkpt lat="40.10027" lon="15.308375"><ele>116.0</ele><time>2026-04-25T16:10:34.9Z</time></trkpt><trkpt lat="40.10017" lon="15.3083983"><ele>116.0</ele><time>2026-04-25T16:10:35.905Z</time></trkpt><trkpt lat="40.1000633" lon="15.3084383"><ele>116.0</ele><time>2026-04-25T16:10:36.901Z</time></trkpt><trkpt lat="40.0999483" lon="15.3085083"><ele>116.25</ele><time>2026-04-25T16:10:37.899Z</time></trkpt><trkpt lat="40.0998267" lon="15.3085633"><ele>116.5</ele><time>2026-04-25T16:10:38.905Z</time></trkpt><trkpt lat="40.0997033" lon="15.3086083"><ele>116.75</ele><time>2026-04-25T16:10:39.905Z</time></trkpt><trkpt lat="40.0995617" lon="15.308625"><ele>117.0</ele><time>2026-04-25T16:10:40.904Z</time></trkpt><trkpt lat="40.0994333" lon="15.30864"><ele>117.0</ele><time>2026-04-25T16:10:41.904Z</time></trkpt><trkpt lat="40.09931" lon="15.3086817"><ele>117.0</ele><time>2026-04-25T16:10:42.904Z</time></trkpt><trkpt lat="40.0991833" lon="15.3087383"><ele>117.0</ele><time>2026-04-25T16:10:43.901Z</time></trkpt><trkpt lat="40.099065" lon="15.3088317"><ele>117.0</ele><time>2026-04-25T16:10:44.905Z</time></trkpt><trkpt lat="40.0989633" lon="15.3089633"><ele>119.5</ele><time>2026-04-25T16:10:45.908Z</time></trkpt><trkpt lat="40.0988867" lon="15.3091317"><ele>122.0</ele><time>2026-04-25T16:10:46.907Z</time></trkpt><trkpt lat="40.0987933" lon="15.3092833"><ele>124.5</ele><time>2026-04-25T16:10:47.904Z</time></trkpt><trkpt lat="40.0986883" lon="15.3094117"><ele>127.0</ele><time>2026-04-25T16:10:48.903Z</time></trkpt><trkpt lat="40.0985467" lon="15.3095083"><ele>127.0</ele><time>2026-04-25T16:10:49.902Z</time></trkpt><trkpt lat="40.0984017" lon="15.30959"><ele>127.0</ele><time>2026-04-25T16:10:50.902Z</time></trkpt><trkpt lat="40.0982483" lon="15.3096467"><ele>127.0</ele><time>2026-04-25T16:10:51.9Z</time></trkpt><trkpt lat="40.0981" lon="15.3096833"><ele>129.0</ele><time>2026-04-25T16:10:52.905Z</time></trkpt><trkpt lat="40.0979567" lon="15.3096917"><ele>131.0</ele><time>2026-04-25T16:10:53.903Z</time></trkpt><trkpt lat="40.09782" lon="15.30966"><ele>133.0</ele><time>2026-04-25T16:10:54.899Z</time></trkpt><trkpt lat="40.0976833" lon="15.30959"><ele>135.0</ele><time>2026-04-25T16:10:55.97Z</time></trkpt><trkpt lat="40.09752" lon="15.3094733"><ele>135.5</ele><time>2026-04-25T16:10:56.904Z</time></trkpt><trkpt lat="40.09738" lon="15.30938"><ele>136.0</ele><time>2026-04-25T16:10:57.909Z</time></trkpt><trkpt lat="40.0972383" lon="15.3092833"><ele>136.5</ele><time>2026-04-25T16:10:58.901Z</time></trkpt><trkpt lat="40.0971133" lon="15.3092433"><ele>137.0</ele><time>2026-04-25T16:10:59.906Z</time></trkpt><trkpt lat="40.096985" lon="15.309255"><ele>137.0</ele><time>2026-04-25T16:11:00.904Z</time></trkpt><trkpt lat="40.0968717" lon="15.30936"><ele>137.0</ele><time>2026-04-25T16:11:01.958Z</time></trkpt><trkpt lat="40.0967367" lon="15.30947"><ele>137.0</ele><time>2026-04-25T16:11:02.903Z</time></trkpt><trkpt lat="40.09659" lon="15.3095933"><ele>137.66666666666666</ele><time>2026-04-25T16:11:03.9Z</time></trkpt><trkpt lat="40.09643" lon="15.30973"><ele>138.33333333333334</ele><time>2026-04-25T16:11:04.902Z</time></trkpt><trkpt lat="40.0962733" lon="15.3098717"><ele>139.0</ele><time>2026-04-25T16:11:05.902Z</time></trkpt><trkpt lat="40.0961183" lon="15.31001"><ele>141.66666666666669</ele><time>2026-04-25T16:11:06.905Z</time></trkpt><trkpt lat="40.0959667" lon="15.31013"><ele>144.33333333333334</ele><time>2026-04-25T16:11:07.904Z</time></trkpt><trkpt lat="40.0958267" lon="15.31023"><ele>147.0</ele><time>2026-04-25T16:11:08.904Z</time></trkpt><trkpt lat="40.0956933" lon="15.3102983"><ele>149.0</ele><time>2026-04-25T16:11:09.901Z</time></trkpt><trkpt lat="40.0955733" lon="15.3103233"><ele>151.0</ele><time>2026-04-25T16:11:10.897Z</time></trkpt><trkpt lat="40.0954683" lon="15.31028"><ele>153.0</ele><time>2026-04-25T16:11:11.904Z</time></trkpt><trkpt lat="40.0953533" lon="15.3102317"><ele>155.0</ele><time>2026-04-25T16:11:12.905Z</time></trkpt><trkpt lat="40.0952133" lon="15.3101583"><ele>155.0</ele><time>2026-04-25T16:11:13.907Z</time></trkpt><trkpt lat="40.09506" lon="15.310105"><ele>155.0</ele><time>2026-04-25T16:11:14.899Z</time></trkpt><trkpt lat="40.0948883" lon="15.3100833"><ele>155.0</ele><time>2026-04-25T16:11:15.897Z</time></trkpt><trkpt lat="40.0946967" lon="15.3100667"><ele>157.33333333333331</ele><time>2026-04-25T16:11:16.9Z</time></trkpt><trkpt lat="40.0945083" lon="15.310045"><ele>159.66666666666666</ele><time>2026-04-25T16:11:17.905Z</time></trkpt><trkpt lat="40.094335" lon="15.3100233"><ele>162.0</ele><time>2026-04-25T16:11:18.905Z</time></trkpt><trkpt lat="40.0941733" lon="15.309985"><ele>162.75</ele><time>2026-04-25T16:11:19.903Z</time></trkpt><trkpt lat="40.094025" lon="15.3099517"><ele>163.5</ele><time>2026-04-25T16:11:20.899Z</time></trkpt><trkpt lat="40.0938933" lon="15.3099417"><ele>164.25</ele><time>2026-04-25T16:11:21.913Z</time></trkpt><trkpt lat="40.0937717" lon="15.3099567"><ele>165.0</ele><time>2026-04-25T16:11:22.909Z</time></trkpt><trkpt lat="40.093685" lon="15.310005"><ele>165.0</ele><time>2026-04-25T16:11:23.904Z</time></trkpt><trkpt lat="40.0936933" lon="15.3101467"><ele>165.0</ele><time>2026-04-25T16:11:24.903Z</time></trkpt><trkpt lat="40.0937117" lon="15.31028"><ele>165.0</ele><time>2026-04-25T16:11:25.967Z</time></trkpt><trkpt lat="40.093755" lon="15.3104083"><ele>165.0</ele><time>2026-04-25T16:11:26.896Z</time></trkpt><trkpt lat="40.0938283" lon="15.3105233"><ele>165.0</ele><time>2026-04-25T16:11:27.898Z</time></trkpt><trkpt lat="40.094005" lon="15.3106417"><ele>166.0</ele><time>2026-04-25T16:11:28.903Z</time></trkpt><trkpt lat="40.0941267" lon="15.3107517"><ele>167.0</ele><time>2026-04-25T16:11:29.898Z</time></trkpt><trkpt lat="40.0942367" lon="15.3108617"><ele>168.0</ele><time>2026-04-25T16:11:30.905Z</time></trkpt><trkpt lat="40.0942467" lon="15.3109883"><ele>169.0</ele><time>2026-04-25T16:11:32.902Z</time></trkpt><trkpt lat="40.0941833" lon="15.3110667"><ele>169.0</ele><time>2026-04-25T16:11:35.907Z</time></trkpt><trkpt lat="40.0940933" lon="15.3110367"><ele>169.0</ele><time>2026-04-25T16:11:36.902Z</time></trkpt><trkpt lat="40.0939967" lon="15.31102"><ele>169.0</ele><time>2026-04-25T16:11:37.898Z</time></trkpt><trkpt lat="40.093885" lon="15.311015"><ele>169.0</ele><time>2026-04-25T16:11:38.909Z</time></trkpt><trkpt lat="40.0937767" lon="15.311025"><ele>169.0</ele><time>2026-04-25T16:11:39.904Z</time></trkpt><trkpt lat="40.0936683" lon="15.3110517"><ele>169.6</ele><time>2026-04-25T16:11:40.905Z</time></trkpt><trkpt lat="40.09358" lon="15.3111233"><ele>170.2</ele><time>2026-04-25T16:11:41.907Z</time></trkpt><trkpt lat="40.0935" lon="15.3111817"><ele>170.79999999999998</ele><time>2026-04-25T16:11:42.903Z</time></trkpt><trkpt lat="40.0934233" lon="15.311225"><ele>171.39999999999998</ele><time>2026-04-25T16:11:43.904Z</time></trkpt><trkpt lat="40.0933317" lon="15.3112383"><ele>172.0</ele><time>2026-04-25T16:11:44.901Z</time></trkpt><trkpt lat="40.0932267" lon="15.311255"><ele>172.0</ele><time>2026-04-25T16:11:45.91Z</time></trkpt><trkpt lat="40.0931117" lon="15.31129"><ele>172.0</ele><time>2026-04-25T16:11:46.903Z</time></trkpt><trkpt lat="40.092985" lon="15.3113517"><ele>172.0</ele><time>2026-04-25T16:11:47.903Z</time></trkpt><trkpt lat="40.0928467" lon="15.31142"><ele>172.0</ele><time>2026-04-25T16:11:48.908Z</time></trkpt><trkpt lat="40.0927033" lon="15.3114933"><ele>174.5</ele><time>2026-04-25T16:11:49.903Z</time></trkpt><trkpt lat="40.0925717" lon="15.311575"><ele>177.0</ele><time>2026-04-25T16:11:50.908Z</time></trkpt><trkpt lat="40.092455" lon="15.3116783"><ele>179.5</ele><time>2026-04-25T16:11:51.908Z</time></trkpt><trkpt lat="40.092345" lon="15.3117883"><ele>182.0</ele><time>2026-04-25T16:11:52.9Z</time></trkpt><trkpt lat="40.0922383" lon="15.3118917"><ele>182.39999999999998</ele><time>2026-04-25T16:11:53.905Z</time></trkpt><trkpt lat="40.0921517" lon="15.3119967"><ele>182.79999999999998</ele><time>2026-04-25T16:11:54.901Z</time></trkpt><trkpt lat="40.09207" lon="15.31209"><ele>183.2</ele><time>2026-04-25T16:11:55.967Z</time></trkpt><trkpt lat="40.09202" lon="15.3121683"><ele>183.6</ele><time>2026-04-25T16:11:56.905Z</time></trkpt><trkpt lat="40.09198" lon="15.3122833"><ele>184.0</ele><time>2026-04-25T16:11:57.906Z</time></trkpt><trkpt lat="40.09193" lon="15.3124117"><ele>185.39999999999998</ele><time>2026-04-25T16:11:58.905Z</time></trkpt><trkpt lat="40.091885" lon="15.31254"><ele>186.8</ele><time>2026-04-25T16:11:59.903Z</time></trkpt><trkpt lat="40.0918367" lon="15.3126333"><ele>188.2</ele><time>2026-04-25T16:12:00.897Z</time></trkpt><trkpt lat="40.0917833" lon="15.3127167"><ele>189.60000000000002</ele><time>2026-04-25T16:12:01.967Z</time></trkpt><trkpt lat="40.0916883" lon="15.3127833"><ele>191.0</ele><time>2026-04-25T16:12:03.904Z</time></trkpt><trkpt lat="40.09153" lon="15.31269"><ele>192.4</ele><time>2026-04-25T16:12:05.899Z</time></trkpt><trkpt lat="40.0914183" lon="15.3126117"><ele>193.8</ele><time>2026-04-25T16:12:06.9Z</time></trkpt><trkpt lat="40.0913267" lon="15.3125517"><ele>195.20000000000002</ele><time>2026-04-25T16:12:07.903Z</time></trkpt><trkpt lat="40.0912367" lon="15.312475"><ele>196.60000000000002</ele><time>2026-04-25T16:12:08.905Z</time></trkpt><trkpt lat="40.0911667" lon="15.3124017"><ele>198.0</ele><time>2026-04-25T16:12:09.902Z</time></trkpt><trkpt lat="40.0911067" lon="15.3123183"><ele>197.4</ele><time>2026-04-25T16:12:10.905Z</time></trkpt><trkpt lat="40.09106" lon="15.31221"><ele>196.8</ele><time>2026-04-25T16:12:11.902Z</time></trkpt><trkpt lat="40.0910233" lon="15.3120733"><ele>196.2</ele><time>2026-04-25T16:12:12.909Z</time></trkpt><trkpt lat="40.0909783" lon="15.3119383"><ele>195.6</ele><time>2026-04-25T16:12:13.896Z</time></trkpt><trkpt lat="40.0909367" lon="15.311825"><ele>195.0</ele><time>2026-04-25T16:12:14.903Z</time></trkpt><trkpt lat="40.09089" lon="15.3117283"><ele>195.0</ele><time>2026-04-25T16:12:15.901Z</time></trkpt><trkpt lat="40.090815" lon="15.3117217"><ele>195.0</ele><time>2026-04-25T16:12:16.901Z</time></trkpt><trkpt lat="40.0907333" lon="15.31175"><ele>195.0</ele><time>2026-04-25T16:12:17.905Z</time></trkpt><trkpt lat="40.0906333" lon="15.3117917"><ele>195.0</ele><time>2026-04-25T16:12:18.915Z</time></trkpt><trkpt lat="40.090525" lon="15.31183"><ele>195.0</ele><time>2026-04-25T16:12:19.909Z</time></trkpt><trkpt lat="40.0904183" lon="15.3118533"><ele>196.75</ele><time>2026-04-25T16:12:20.904Z</time></trkpt><trkpt lat="40.0903067" lon="15.3118667"><ele>198.5</ele><time>2026-04-25T16:12:21.9Z</time></trkpt><trkpt lat="40.0901933" lon="15.311885"><ele>200.25</ele><time>2026-04-25T16:12:22.902Z</time></trkpt><trkpt lat="40.09008" lon="15.3119217"><ele>202.0</ele><time>2026-04-25T16:12:23.906Z</time></trkpt><trkpt lat="40.089975" lon="15.31197"><ele>204.49999999999997</ele><time>2026-04-25T16:12:24.904Z</time></trkpt><trkpt lat="40.089875" lon="15.3120117"><ele>207.0</ele><time>2026-04-25T16:12:25.975Z</time></trkpt><trkpt lat="40.0897833" lon="15.3120433"><ele>209.5</ele><time>2026-04-25T16:12:26.899Z</time></trkpt><trkpt lat="40.0896967" lon="15.3120567"><ele>212.0</ele><time>2026-04-25T16:12:27.902Z</time></trkpt><trkpt lat="40.089625" lon="15.312045"><ele>214.49999999999997</ele><time>2026-04-25T16:12:28.901Z</time></trkpt><trkpt lat="40.08956" lon="15.3120133"><ele>217.0</ele><time>2026-04-25T16:12:29.908Z</time></trkpt><trkpt lat="40.089515" lon="15.3119533"><ele>216.99999999999997</ele><time>2026-04-25T16:12:30.902Z</time></trkpt><trkpt lat="40.0894817" lon="15.31188"><ele>217.0</ele><time>2026-04-25T16:12:31.958Z</time></trkpt><trkpt lat="40.0894333" lon="15.3117583"><ele>217.0</ele><time>2026-04-25T16:12:33.898Z</time></trkpt><trkpt lat="40.0894283" lon="15.311675"><ele>217.0</ele><time>2026-04-25T16:12:34.9Z</time></trkpt><trkpt lat="40.0894717" lon="15.31156"><ele>216.99999999999997</ele><time>2026-04-25T16:12:35.903Z</time></trkpt><trkpt lat="40.0894683" lon="15.31146"><ele>217.0</ele><time>2026-04-25T16:12:36.903Z</time></trkpt><trkpt lat="40.08943" lon="15.3113583"><ele>217.6</ele><time>2026-04-25T16:12:37.901Z</time></trkpt><trkpt lat="40.08939" lon="15.3112817"><ele>218.2</ele><time>2026-04-25T16:12:38.9Z</time></trkpt><trkpt lat="40.0893267" lon="15.31118"><ele>218.8</ele><time>2026-04-25T16:12:39.919Z</time></trkpt><trkpt lat="40.089245" lon="15.31107"><ele>219.4</ele><time>2026-04-25T16:12:40.904Z</time></trkpt><trkpt lat="40.0891933" lon="15.310975"><ele>220.0</ele><time>2026-04-25T16:12:41.903Z</time></trkpt><trkpt lat="40.08917" lon="15.3108783"><ele>220.0</ele><time>2026-04-25T16:12:42.903Z</time></trkpt><trkpt lat="40.0891667" lon="15.3107633"><ele>220.0</ele><time>2026-04-25T16:12:43.907Z</time></trkpt><trkpt lat="40.08919" lon="15.3106317"><ele>220.0</ele><time>2026-04-25T16:12:44.9Z</time></trkpt><trkpt lat="40.089195" lon="15.3105067"><ele>220.0</ele><time>2026-04-25T16:12:45.902Z</time></trkpt><trkpt lat="40.089185" lon="15.3103917"><ele>220.0</ele><time>2026-04-25T16:12:46.904Z</time></trkpt><trkpt lat="40.08916" lon="15.3102933"><ele>221.0</ele><time>2026-04-25T16:12:47.905Z</time></trkpt><trkpt lat="40.0890483" lon="15.310285"><ele>222.0</ele><time>2026-04-25T16:12:49.899Z</time></trkpt><trkpt lat="40.0889933" lon="15.3103633"><ele>223.0</ele><time>2026-04-25T16:12:51.9Z</time></trkpt><trkpt lat="40.0889333" lon="15.3104567"><ele>224.0</ele><time>2026-04-25T16:12:53.905Z</time></trkpt><trkpt lat="40.0888567" lon="15.3105983"><ele>225.0</ele><time>2026-04-25T16:12:55.955Z</time></trkpt><trkpt lat="40.0888617" lon="15.31074"><ele>226.2</ele><time>2026-04-25T16:12:56.901Z</time></trkpt><trkpt lat="40.0888683" lon="15.3108817"><ele>227.4</ele><time>2026-04-25T16:12:57.905Z</time></trkpt><trkpt lat="40.0888683" lon="15.3110283"><ele>228.60000000000002</ele><time>2026-04-25T16:12:58.905Z</time></trkpt><trkpt lat="40.088855" lon="15.3111717"><ele>229.8</ele><time>2026-04-25T16:12:59.908Z</time></trkpt><trkpt lat="40.0888083" lon="15.31128"><ele>231.0</ele><time>2026-04-25T16:13:00.906Z</time></trkpt><trkpt lat="40.0887467" lon="15.3113883"><ele>231.5</ele><time>2026-04-25T16:13:01.961Z</time></trkpt><trkpt lat="40.0886767" lon="15.3114917"><ele>232.0</ele><time>2026-04-25T16:13:02.893Z</time></trkpt><trkpt lat="40.0885983" lon="15.31158"><ele>232.5</ele><time>2026-04-25T16:13:03.906Z</time></trkpt><trkpt lat="40.0884933" lon="15.31165"><ele>233.0</ele><time>2026-04-25T16:13:04.905Z</time></trkpt><trkpt lat="40.088375" lon="15.3117217"><ele>235.75</ele><time>2026-04-25T16:13:05.9Z</time></trkpt><trkpt lat="40.0882417" lon="15.311775"><ele>238.5</ele><time>2026-04-25T16:13:06.906Z</time></trkpt><trkpt lat="40.0881317" lon="15.3118417"><ele>241.25</ele><time>2026-04-25T16:13:07.901Z</time></trkpt><trkpt lat="40.0880233" lon="15.3118983"><ele>244.0</ele><time>2026-04-25T16:13:08.904Z</time></trkpt><trkpt lat="40.0879283" lon="15.3119567"><ele>244.0</ele><time>2026-04-25T16:13:09.905Z</time></trkpt><trkpt lat="40.087855" lon="15.312025"><ele>243.99999999999997</ele><time>2026-04-25T16:13:10.906Z</time></trkpt><trkpt lat="40.0877933" lon="15.31211"><ele>243.99999999999997</ele><time>2026-04-25T16:13:11.904Z</time></trkpt><trkpt lat="40.0877617" lon="15.312225"><ele>244.0</ele><time>2026-04-25T16:13:12.907Z</time></trkpt><trkpt lat="40.0877733" lon="15.3123833"><ele>244.0</ele><time>2026-04-25T16:13:13.904Z</time></trkpt><trkpt lat="40.0877883" lon="15.3125433"><ele>244.75</ele><time>2026-04-25T16:13:14.9Z</time></trkpt><trkpt lat="40.0878233" lon="15.3127183"><ele>245.5</ele><time>2026-04-25T16:13:15.901Z</time></trkpt><trkpt lat="40.08786" lon="15.3129067"><ele>246.25</ele><time>2026-04-25T16:13:16.899Z</time></trkpt><trkpt lat="40.0879133" lon="15.3130967"><ele>247.0</ele><time>2026-04-25T16:13:17.904Z</time></trkpt><trkpt lat="40.08798" lon="15.313305"><ele>249.0</ele><time>2026-04-25T16:13:18.9Z</time></trkpt><trkpt lat="40.088055" lon="15.3134967"><ele>251.0</ele><time>2026-04-25T16:13:19.904Z</time></trkpt><trkpt lat="40.0881333" lon="15.313655"><ele>253.0</ele><time>2026-04-25T16:13:20.922Z</time></trkpt><trkpt lat="40.08821" lon="15.3137783"><ele>255.0</ele><time>2026-04-25T16:13:21.902Z</time></trkpt><trkpt lat="40.08831" lon="15.3138833"><ele>253.0</ele><time>2026-04-25T16:13:22.9Z</time></trkpt><trkpt lat="40.088425" lon="15.3139683"><ele>251.0</ele><time>2026-04-25T16:13:23.918Z</time></trkpt><trkpt lat="40.088515" lon="15.3140583"><ele>249.0</ele><time>2026-04-25T16:13:24.9Z</time></trkpt><trkpt lat="40.088615" lon="15.3141667"><ele>247.0</ele><time>2026-04-25T16:13:25.968Z</time></trkpt><trkpt lat="40.0886883" lon="15.3142917"><ele>247.0</ele><time>2026-04-25T16:13:26.896Z</time></trkpt><trkpt lat="40.08878" lon="15.3144333"><ele>247.0</ele><time>2026-04-25T16:13:27.908Z</time></trkpt><trkpt lat="40.0888667" lon="15.3145683"><ele>247.0</ele><time>2026-04-25T16:13:28.905Z</time></trkpt><trkpt lat="40.0889383" lon="15.3146967"><ele>247.0</ele><time>2026-04-25T16:13:29.905Z</time></trkpt><trkpt lat="40.0889933" lon="15.3148317"><ele>246.5</ele><time>2026-04-25T16:13:30.904Z</time></trkpt><trkpt lat="40.08904" lon="15.314975"><ele>246.0</ele><time>2026-04-25T16:13:31.957Z</time></trkpt><trkpt lat="40.0890733" lon="15.3151267"><ele>245.5</ele><time>2026-04-25T16:13:32.896Z</time></trkpt><trkpt lat="40.0891" lon="15.3152917"><ele>245.0</ele><time>2026-04-25T16:13:33.903Z</time></trkpt><trkpt lat="40.0891133" lon="15.3154567"><ele>246.25</ele><time>2026-04-25T16:13:34.902Z</time></trkpt><trkpt lat="40.0891117" lon="15.315635"><ele>247.5</ele><time>2026-04-25T16:13:35.903Z</time></trkpt><trkpt lat="40.0891083" lon="15.3158117"><ele>248.75</ele><time>2026-04-25T16:13:36.905Z</time></trkpt><trkpt lat="40.0891117" lon="15.3159833"><ele>250.0</ele><time>2026-04-25T16:13:37.904Z</time></trkpt><trkpt lat="40.0891067" lon="15.3161433"><ele>256.0</ele><time>2026-04-25T16:13:38.899Z</time></trkpt><trkpt lat="40.0890867" lon="15.3162967"><ele>262.0</ele><time>2026-04-25T16:13:39.902Z</time></trkpt><trkpt lat="40.089045" lon="15.3164467"><ele>268.0</ele><time>2026-04-25T16:13:40.905Z</time></trkpt><trkpt lat="40.0889967" lon="15.316585"><ele>274.0</ele><time>2026-04-25T16:13:41.902Z</time></trkpt><trkpt lat="40.0889567" lon="15.31672"><ele>274.0</ele><time>2026-04-25T16:13:42.9Z</time></trkpt><trkpt lat="40.0889317" lon="15.3168567"><ele>274.0</ele><time>2026-04-25T16:13:43.907Z</time></trkpt><trkpt lat="40.08891" lon="15.3169917"><ele>274.0</ele><time>2026-04-25T16:13:44.906Z</time></trkpt><trkpt lat="40.088875" lon="15.317115"><ele>274.0</ele><time>2026-04-25T16:13:45.899Z</time></trkpt><trkpt lat="40.0888333" lon="15.3172433"><ele>274.0</ele><time>2026-04-25T16:13:46.901Z</time></trkpt><trkpt lat="40.0887733" lon="15.3173483"><ele>274.0</ele><time>2026-04-25T16:13:47.903Z</time></trkpt><trkpt lat="40.0887" lon="15.3174233"><ele>274.0</ele><time>2026-04-25T16:13:48.899Z</time></trkpt><trkpt lat="40.0886333" lon="15.3174717"><ele>274.0</ele><time>2026-04-25T16:13:49.908Z</time></trkpt><trkpt lat="40.08859" lon="15.3173933"><ele>274.0</ele><time>2026-04-25T16:13:51.902Z</time></trkpt><trkpt lat="40.08867" lon="15.3172117"><ele>274.0</ele><time>2026-04-25T16:13:52.899Z</time></trkpt><trkpt lat="40.088715" lon="15.3170983"><ele>274.0</ele><time>2026-04-25T16:13:53.9Z</time></trkpt><trkpt lat="40.0887383" lon="15.3169967"><ele>274.0</ele><time>2026-04-25T16:13:54.906Z</time></trkpt><trkpt lat="40.08873" lon="15.3168783"><ele>274.0</ele><time>2026-04-25T16:13:55.956Z</time></trkpt><trkpt lat="40.0887017" lon="15.3167417"><ele>274.0</ele><time>2026-04-25T16:13:56.9Z</time></trkpt><trkpt lat="40.0886567" lon="15.316575"><ele>274.0</ele><time>2026-04-25T16:13:57.902Z</time></trkpt><trkpt lat="40.0885967" lon="15.3163533"><ele>274.0</ele><time>2026-04-25T16:13:58.9Z</time></trkpt><trkpt lat="40.0885517" lon="15.31617"><ele>274.0</ele><time>2026-04-25T16:13:59.905Z</time></trkpt><trkpt lat="40.0885067" lon="15.3160017"><ele>274.0</ele><time>2026-04-25T16:14:00.906Z</time></trkpt><trkpt lat="40.0884417" lon="15.31584"><ele>274.0</ele><time>2026-04-25T16:14:01.957Z</time></trkpt><trkpt lat="40.0883617" lon="15.3156883"><ele>273.75</ele><time>2026-04-25T16:14:02.897Z</time></trkpt><trkpt lat="40.0882733" lon="15.3155533"><ele>273.5</ele><time>2026-04-25T16:14:03.9Z</time></trkpt><trkpt lat="40.0881817" lon="15.3154467"><ele>273.25</ele><time>2026-04-25T16:14:04.901Z</time></trkpt><trkpt lat="40.0880967" lon="15.315365"><ele>273.0</ele><time>2026-04-25T16:14:05.9Z</time></trkpt><trkpt lat="40.0880133" lon="15.3152967"><ele>273.0</ele><time>2026-04-25T16:14:06.898Z</time></trkpt><trkpt lat="40.0879383" lon="15.3152767"><ele>273.0</ele><time>2026-04-25T16:14:07.91Z</time></trkpt><trkpt lat="40.087865" lon="15.3152983"><ele>273.0</ele><time>2026-04-25T16:14:08.895Z</time></trkpt><trkpt lat="40.087785" lon="15.31536"><ele>273.0</ele><time>2026-04-25T16:14:09.902Z</time></trkpt><trkpt lat="40.0877067" lon="15.3154567"><ele>273.0</ele><time>2026-04-25T16:14:10.9Z</time></trkpt><trkpt lat="40.0876283" lon="15.31552"><ele>273.0</ele><time>2026-04-25T16:14:11.901Z</time></trkpt><trkpt lat="40.0875533" lon="15.31557"><ele>275.1666666666667</ele><time>2026-04-25T16:14:12.901Z</time></trkpt><trkpt lat="40.0874767" lon="15.3155783"><ele>277.3333333333333</ele><time>2026-04-25T16:14:13.901Z</time></trkpt><trkpt lat="40.0874" lon="15.3155667"><ele>279.5</ele><time>2026-04-25T16:14:14.901Z</time></trkpt><trkpt lat="40.08732" lon="15.3155417"><ele>281.66666666666663</ele><time>2026-04-25T16:14:15.907Z</time></trkpt><trkpt lat="40.0872433" lon="15.3155417"><ele>283.8333333333333</ele><time>2026-04-25T16:14:16.9Z</time></trkpt><trkpt lat="40.0871583" lon="15.3155717"><ele>286.0</ele><time>2026-04-25T16:14:17.907Z</time></trkpt><trkpt lat="40.0870633" lon="15.31561"><ele>286.0</ele><time>2026-04-25T16:14:18.896Z</time></trkpt><trkpt lat="40.086965" lon="15.315645"><ele>286.0</ele><time>2026-04-25T16:14:19.901Z</time></trkpt><trkpt lat="40.0868733" lon="15.31567"><ele>286.0</ele><time>2026-04-25T16:14:20.901Z</time></trkpt><trkpt lat="40.086785" lon="15.3156567"><ele>286.0</ele><time>2026-04-25T16:14:21.897Z</time></trkpt><trkpt lat="40.0866983" lon="15.315605"><ele>286.0</ele><time>2026-04-25T16:14:22.899Z</time></trkpt><trkpt lat="40.086615" lon="15.3155267"><ele>289.25</ele><time>2026-04-25T16:14:23.903Z</time></trkpt><trkpt lat="40.0865333" lon="15.3154217"><ele>292.5</ele><time>2026-04-25T16:14:24.895Z</time></trkpt><trkpt lat="40.0864517" lon="15.3153083"><ele>295.75</ele><time>2026-04-25T16:14:25.956Z</time></trkpt><trkpt lat="40.08636" lon="15.3151767"><ele>299.0</ele><time>2026-04-25T16:14:26.899Z</time></trkpt><trkpt lat="40.0862517" lon="15.31503"><ele>299.0</ele><time>2026-04-25T16:14:27.902Z</time></trkpt><trkpt lat="40.0861467" lon="15.314895"><ele>299.0</ele><time>2026-04-25T16:14:28.898Z</time></trkpt><trkpt lat="40.0860433" lon="15.3147783"><ele>299.0</ele><time>2026-04-25T16:14:29.901Z</time></trkpt><trkpt lat="40.08594" lon="15.314665"><ele>299.0</ele><time>2026-04-25T16:14:30.9Z</time></trkpt><trkpt lat="40.0858367" lon="15.314585"><ele>298.0</ele><time>2026-04-25T16:14:31.95Z</time></trkpt><trkpt lat="40.0857233" lon="15.3145533"><ele>297.0</ele><time>2026-04-25T16:14:32.899Z</time></trkpt><trkpt lat="40.0855933" lon="15.3145417"><ele>296.0</ele><time>2026-04-25T16:14:33.901Z</time></trkpt><trkpt lat="40.085455" lon="15.3145433"><ele>295.0</ele><time>2026-04-25T16:14:34.898Z</time></trkpt><trkpt lat="40.0853283" lon="15.314545"><ele>295.0</ele><time>2026-04-25T16:14:35.901Z</time></trkpt><trkpt lat="40.0852033" lon="15.3145517"><ele>295.0</ele><time>2026-04-25T16:14:36.902Z</time></trkpt><trkpt lat="40.0850883" lon="15.3145733"><ele>295.0</ele><time>2026-04-25T16:14:37.899Z</time></trkpt><trkpt lat="40.0849767" lon="15.314645"><ele>295.0</ele><time>2026-04-25T16:14:38.905Z</time></trkpt><trkpt lat="40.0848683" lon="15.3147383"><ele>296.3333333333333</ele><time>2026-04-25T16:14:39.908Z</time></trkpt><trkpt lat="40.0847783" lon="15.3148867"><ele>297.6666666666667</ele><time>2026-04-25T16:14:40.902Z</time></trkpt><trkpt lat="40.0847033" lon="15.3150667"><ele>299.0</ele><time>2026-04-25T16:14:41.905Z</time></trkpt><trkpt lat="40.08464" lon="15.3152417"><ele>299.0</ele><time>2026-04-25T16:14:42.902Z</time></trkpt><trkpt lat="40.0845917" lon="15.3154067"><ele>299.0</ele><time>2026-04-25T16:14:43.911Z</time></trkpt><trkpt lat="40.0845633" lon="15.3155933"><ele>299.0</ele><time>2026-04-25T16:14:44.904Z</time></trkpt><trkpt lat="40.0845217" lon="15.31576"><ele>299.0</ele><time>2026-04-25T16:14:45.901Z</time></trkpt><trkpt lat="40.0844783" lon="15.315905"><ele>301.0</ele><time>2026-04-25T16:14:46.902Z</time></trkpt><trkpt lat="40.0844367" lon="15.3160383"><ele>303.0</ele><time>2026-04-25T16:14:47.899Z</time></trkpt><trkpt lat="40.0844067" lon="15.3161633"><ele>305.0</ele><time>2026-04-25T16:14:48.903Z</time></trkpt><trkpt lat="40.084385" lon="15.3162817"><ele>307.0</ele><time>2026-04-25T16:14:49.902Z</time></trkpt><trkpt lat="40.0843733" lon="15.31641"><ele>309.0</ele><time>2026-04-25T16:14:50.903Z</time></trkpt><trkpt lat="40.0843583" lon="15.3165267"><ele>310.5</ele><time>2026-04-25T16:14:51.898Z</time></trkpt><trkpt lat="40.0843433" lon="15.316625"><ele>312.0</ele><time>2026-04-25T16:14:52.903Z</time></trkpt><trkpt lat="40.0842883" lon="15.3167533"><ele>313.5</ele><time>2026-04-25T16:14:54.9Z</time></trkpt><trkpt lat="40.0842233" lon="15.3167383"><ele>315.0</ele><time>2026-04-25T16:14:55.964Z</time></trkpt><trkpt lat="40.084135" lon="15.3167417"><ele>316.5</ele><time>2026-04-25T16:14:57.896Z</time></trkpt><trkpt lat="40.08406" lon="15.3167067"><ele>318.0</ele><time>2026-04-25T16:14:59.906Z</time></trkpt><trkpt lat="40.0840017" lon="15.3166683"><ele>318.0</ele><time>2026-04-25T16:15:01.965Z</time></trkpt><trkpt lat="40.084075" lon="15.31668"><ele>318.0</ele><time>2026-04-25T16:15:06.897Z</time></trkpt><trkpt lat="40.0841517" lon="15.3166883"><ele>318.0</ele><time>2026-04-25T16:15:07.899Z</time></trkpt><trkpt lat="40.0842267" lon="15.3166933"><ele>318.0</ele><time>2026-04-25T16:15:08.9Z</time></trkpt><trkpt lat="40.084295" lon="15.31668"><ele>318.0</ele><time>2026-04-25T16:15:09.904Z</time></trkpt><trkpt lat="40.0843567" lon="15.3166617"><ele>318.0</ele><time>2026-04-25T16:15:10.899Z</time></trkpt><trkpt lat="40.08442" lon="15.31662"><ele>318.0</ele><time>2026-04-25T16:15:11.901Z</time></trkpt><trkpt lat="40.0844667" lon="15.3165483"><ele>318.0</ele><time>2026-04-25T16:15:12.9Z</time></trkpt><trkpt lat="40.0844933" lon="15.3164533"><ele>318.0</ele><time>2026-04-25T16:15:13.897Z</time></trkpt><trkpt lat="40.0845133" lon="15.31634"><ele>318.0</ele><time>2026-04-25T16:15:14.898Z</time></trkpt><trkpt lat="40.084525" lon="15.3162183"><ele>318.0</ele><time>2026-04-25T16:15:15.902Z</time></trkpt><trkpt lat="40.08451" lon="15.316065"><ele>318.0</ele><time>2026-04-25T16:15:16.902Z</time></trkpt><trkpt lat="40.0845317" lon="15.315965"><ele>316.5</ele><time>2026-04-25T16:15:17.898Z</time></trkpt><trkpt lat="40.0845533" lon="15.315885"><ele>315.0</ele><time>2026-04-25T16:15:18.9Z</time></trkpt><trkpt lat="40.0845733" lon="15.31578"><ele>313.5</ele><time>2026-04-25T16:15:20.901Z</time></trkpt><trkpt lat="40.0846" lon="15.3158667"><ele>312.0</ele><time>2026-04-25T16:15:31.948Z</time></trkpt><trkpt lat="40.0845883" lon="15.31596"><ele>310.5</ele><time>2026-04-25T16:15:33.9Z</time></trkpt><trkpt lat="40.084585" lon="15.3161083"><ele>309.0</ele><time>2026-04-25T16:15:35.901Z</time></trkpt><trkpt lat="40.0846083" lon="15.31625"><ele>309.0</ele><time>2026-04-25T16:15:37.905Z</time></trkpt><trkpt lat="40.0846367" lon="15.3163517"><ele>309.0</ele><time>2026-04-25T16:15:39.902Z</time></trkpt><trkpt lat="40.0847133" lon="15.31635"><ele>309.0</ele><time>2026-04-25T16:15:42.906Z</time></trkpt><trkpt lat="40.0847983" lon="15.3163433"><ele>309.0</ele><time>2026-04-25T16:15:45.901Z</time></trkpt><trkpt lat="40.084885" lon="15.3163483"><ele>309.0</ele><time>2026-04-25T16:15:48.903Z</time></trkpt><trkpt lat="40.08491" lon="15.316425"><ele>309.0</ele><time>2026-04-25T16:15:52.904Z</time></trkpt><trkpt lat="40.0848267" lon="15.3165067"><ele>310.8</ele><time>2026-04-25T16:15:54.905Z</time></trkpt><trkpt lat="40.08478" lon="15.3165633"><ele>312.59999999999997</ele><time>2026-04-25T16:15:55.959Z</time></trkpt><trkpt lat="40.0847367" lon="15.3166417"><ele>314.4</ele><time>2026-04-25T16:15:56.898Z</time></trkpt><trkpt lat="40.0847283" lon="15.31678"><ele>316.2</ele><time>2026-04-25T16:15:57.897Z</time></trkpt><trkpt lat="40.08471" lon="15.3169233"><ele>318.0</ele><time>2026-04-25T16:15:58.901Z</time></trkpt><trkpt lat="40.0846967" lon="15.3170983"><ele>320.25</ele><time>2026-04-25T16:15:59.904Z</time></trkpt><trkpt lat="40.0846833" lon="15.31728"><ele>322.5</ele><time>2026-04-25T16:16:00.898Z</time></trkpt><trkpt lat="40.0846767" lon="15.3174533"><ele>324.75</ele><time>2026-04-25T16:16:01.952Z</time></trkpt><trkpt lat="40.0846733" lon="15.3176083"><ele>327.0</ele><time>2026-04-25T16:16:02.904Z</time></trkpt><trkpt lat="40.0846717" lon="15.3177567"><ele>327.0</ele><time>2026-04-25T16:16:03.902Z</time></trkpt><trkpt lat="40.084665" lon="15.3179033"><ele>327.0</ele><time>2026-04-25T16:16:04.905Z</time></trkpt><trkpt lat="40.0846667" lon="15.3180417"><ele>327.0</ele><time>2026-04-25T16:16:05.905Z</time></trkpt><trkpt lat="40.084675" lon="15.3181817"><ele>327.0</ele><time>2026-04-25T16:16:06.899Z</time></trkpt><trkpt lat="40.0847067" lon="15.31833"><ele>327.0</ele><time>2026-04-25T16:16:07.901Z</time></trkpt><trkpt lat="40.0847617" lon="15.3184983"><ele>329.5</ele><time>2026-04-25T16:16:08.904Z</time></trkpt><trkpt lat="40.0848283" lon="15.318685"><ele>332.0</ele><time>2026-04-25T16:16:09.899Z</time></trkpt><trkpt lat="40.0848867" lon="15.3188633"><ele>334.5</ele><time>2026-04-25T16:16:10.898Z</time></trkpt><trkpt lat="40.0849433" lon="15.3190283"><ele>337.0</ele><time>2026-04-25T16:16:11.902Z</time></trkpt><trkpt lat="40.0849967" lon="15.3191783"><ele>337.0</ele><time>2026-04-25T16:16:12.902Z</time></trkpt><trkpt lat="40.0850317" lon="15.3193083"><ele>337.0</ele><time>2026-04-25T16:16:13.9Z</time></trkpt><trkpt lat="40.0850483" lon="15.3194067"><ele>337.0</ele><time>2026-04-25T16:16:14.903Z</time></trkpt><trkpt lat="40.0850267" lon="15.3195383"><ele>337.0</ele><time>2026-04-25T16:16:16.899Z</time></trkpt><trkpt lat="40.084935" lon="15.3196267"><ele>337.0</ele><time>2026-04-25T16:16:18.902Z</time></trkpt><trkpt lat="40.0846517" lon="15.31943"><ele>339.75</ele><time>2026-04-25T16:16:19.907Z</time></trkpt><trkpt lat="40.0845317" lon="15.319425"><ele>342.5</ele><time>2026-04-25T16:16:20.906Z</time></trkpt><trkpt lat="40.08441" lon="15.3194317"><ele>345.25</ele><time>2026-04-25T16:16:21.905Z</time></trkpt><trkpt lat="40.08428" lon="15.3194533"><ele>348.0</ele><time>2026-04-25T16:16:22.899Z</time></trkpt><trkpt lat="40.0841433" lon="15.3194933"><ele>349.75</ele><time>2026-04-25T16:16:23.902Z</time></trkpt><trkpt lat="40.0840067" lon="15.31956"><ele>351.5</ele><time>2026-04-25T16:16:24.9Z</time></trkpt><trkpt lat="40.0838767" lon="15.31963"><ele>353.25</ele><time>2026-04-25T16:16:25.954Z</time></trkpt><trkpt lat="40.083745" lon="15.319685"><ele>355.0</ele><time>2026-04-25T16:16:26.896Z</time></trkpt><trkpt lat="40.083615" lon="15.3197233"><ele>355.0</ele><time>2026-04-25T16:16:27.9Z</time></trkpt><trkpt lat="40.083495" lon="15.31973"><ele>355.0</ele><time>2026-04-25T16:16:28.904Z</time></trkpt><trkpt lat="40.0833767" lon="15.3197117"><ele>355.0</ele><time>2026-04-25T16:16:29.902Z</time></trkpt><trkpt lat="40.0832767" lon="15.3197017"><ele>355.0</ele><time>2026-04-25T16:16:30.902Z</time></trkpt><trkpt lat="40.0831983" lon="15.3197183"><ele>355.0</ele><time>2026-04-25T16:16:31.954Z</time></trkpt><trkpt lat="40.0831567" lon="15.3197867"><ele>356.4</ele><time>2026-04-25T16:16:32.899Z</time></trkpt><trkpt lat="40.0830983" lon="15.3198617"><ele>357.8</ele><time>2026-04-25T16:16:33.9Z</time></trkpt><trkpt lat="40.0830367" lon="15.3199467"><ele>359.20000000000005</ele><time>2026-04-25T16:16:34.899Z</time></trkpt><trkpt lat="40.0829817" lon="15.3200617"><ele>360.6</ele><time>2026-04-25T16:16:35.895Z</time></trkpt><trkpt lat="40.0829367" lon="15.3202017"><ele>362.0</ele><time>2026-04-25T16:16:36.897Z</time></trkpt><trkpt lat="40.0828883" lon="15.3203617"><ele>362.0</ele><time>2026-04-25T16:16:37.9Z</time></trkpt><trkpt lat="40.0828367" lon="15.3205583"><ele>362.0</ele><time>2026-04-25T16:16:38.901Z</time></trkpt><trkpt lat="40.08278" lon="15.3207567"><ele>362.0</ele><time>2026-04-25T16:16:39.904Z</time></trkpt><trkpt lat="40.08272" lon="15.3209617"><ele>364.6666666666667</ele><time>2026-04-25T16:16:40.895Z</time></trkpt><trkpt lat="40.0826667" lon="15.3211483"><ele>367.3333333333333</ele><time>2026-04-25T16:16:41.9Z</time></trkpt><trkpt lat="40.0826133" lon="15.321345"><ele>370.0</ele><time>2026-04-25T16:16:42.902Z</time></trkpt><trkpt lat="40.0825517" lon="15.321545"><ele>371.66666666666663</ele><time>2026-04-25T16:16:43.903Z</time></trkpt><trkpt lat="40.08248" lon="15.3217417"><ele>373.3333333333333</ele><time>2026-04-25T16:16:44.903Z</time></trkpt><trkpt lat="40.08241" lon="15.321935"><ele>375.0</ele><time>2026-04-25T16:16:45.903Z</time></trkpt><trkpt lat="40.0823433" lon="15.322115"><ele>377.0</ele><time>2026-04-25T16:16:46.901Z</time></trkpt><trkpt lat="40.0822833" lon="15.3222867"><ele>379.0</ele><time>2026-04-25T16:16:47.904Z</time></trkpt><trkpt lat="40.082235" lon="15.3224333"><ele>381.0</ele><time>2026-04-25T16:16:48.9Z</time></trkpt><trkpt lat="40.0821967" lon="15.3225567"><ele>383.0</ele><time>2026-04-25T16:16:49.905Z</time></trkpt><trkpt lat="40.0821633" lon="15.32265"><ele>385.0</ele><time>2026-04-25T16:16:50.901Z</time></trkpt><trkpt lat="40.0821467" lon="15.3227717"><ele>385.0</ele><time>2026-04-25T16:16:52.896Z</time></trkpt><trkpt lat="40.0822517" lon="15.322825"><ele>385.0</ele><time>2026-04-25T16:16:55.954Z</time></trkpt><trkpt lat="40.082345" lon="15.322875"><ele>385.0</ele><time>2026-04-25T16:16:56.895Z</time></trkpt><trkpt lat="40.0824367" lon="15.32293"><ele>385.0</ele><time>2026-04-25T16:16:57.902Z</time></trkpt><trkpt lat="40.0825383" lon="15.322995"><ele>385.0</ele><time>2026-04-25T16:16:58.895Z</time></trkpt><trkpt lat="40.0826417" lon="15.323055"><ele>383.75</ele><time>2026-04-25T16:16:59.895Z</time></trkpt><trkpt lat="40.082755" lon="15.3231083"><ele>382.5</ele><time>2026-04-25T16:17:00.898Z</time></trkpt><trkpt lat="40.08287" lon="15.3231583"><ele>381.25</ele><time>2026-04-25T16:17:01.957Z</time></trkpt><trkpt lat="40.082985" lon="15.3232017"><ele>380.0</ele><time>2026-04-25T16:17:02.899Z</time></trkpt><trkpt lat="40.0830967" lon="15.3232317"><ele>380.0</ele><time>2026-04-25T16:17:03.901Z</time></trkpt><trkpt lat="40.0832067" lon="15.3232633"><ele>380.0</ele><time>2026-04-25T16:17:04.904Z</time></trkpt><trkpt lat="40.08331" lon="15.3233017"><ele>380.0</ele><time>2026-04-25T16:17:05.9Z</time></trkpt><trkpt lat="40.083405" lon="15.3233417"><ele>380.0</ele><time>2026-04-25T16:17:06.895Z</time></trkpt><trkpt lat="40.0835017" lon="15.3233883"><ele>380.0</ele><time>2026-04-25T16:17:07.897Z</time></trkpt><trkpt lat="40.083595" lon="15.3234217"><ele>376.6</ele><time>2026-04-25T16:17:08.903Z</time></trkpt><trkpt lat="40.0837" lon="15.3234583"><ele>373.2</ele><time>2026-04-25T16:17:09.898Z</time></trkpt><trkpt lat="40.0838017" lon="15.3234917"><ele>369.79999999999995</ele><time>2026-04-25T16:17:10.903Z</time></trkpt><trkpt lat="40.0838967" lon="15.3235183"><ele>366.4</ele><time>2026-04-25T16:17:11.911Z</time></trkpt><trkpt lat="40.0839933" lon="15.3235517"><ele>363.0</ele><time>2026-04-25T16:17:12.896Z</time></trkpt><trkpt lat="40.0840783" lon="15.3235783"><ele>361.0</ele><time>2026-04-25T16:17:13.9Z</time></trkpt><trkpt lat="40.0841583" lon="15.3236283"><ele>359.0</ele><time>2026-04-25T16:17:14.901Z</time></trkpt><trkpt lat="40.0842633" lon="15.3236817"><ele>357.0</ele><time>2026-04-25T16:17:16.903Z</time></trkpt><trkpt lat="40.084325" lon="15.32371"><ele>355.0</ele><time>2026-04-25T16:17:17.903Z</time></trkpt><trkpt lat="40.0843883" lon="15.3237333"><ele>353.0</ele><time>2026-04-25T16:17:18.9Z</time></trkpt><trkpt lat="40.084495" lon="15.3237083"><ele>351.0</ele><time>2026-04-25T16:17:20.902Z</time></trkpt><trkpt lat="40.0845783" lon="15.3237183"><ele>351.0</ele><time>2026-04-25T16:17:21.903Z</time></trkpt><trkpt lat="40.08465" lon="15.3237167"><ele>351.0</ele><time>2026-04-25T16:17:22.899Z</time></trkpt><trkpt lat="40.0847267" lon="15.323725"><ele>351.0</ele><time>2026-04-25T16:17:23.901Z</time></trkpt><trkpt lat="40.0848133" lon="15.3237417"><ele>351.0</ele><time>2026-04-25T16:17:24.903Z</time></trkpt><trkpt lat="40.0849017" lon="15.3237517"><ele>351.0</ele><time>2026-04-25T16:17:25.971Z</time></trkpt><trkpt lat="40.084995" lon="15.3237567"><ele>351.0</ele><time>2026-04-25T16:17:26.899Z</time></trkpt><trkpt lat="40.085085" lon="15.3237483"><ele>349.6666666666667</ele><time>2026-04-25T16:17:27.9Z</time></trkpt><trkpt lat="40.0851717" lon="15.3237417"><ele>348.3333333333333</ele><time>2026-04-25T16:17:28.901Z</time></trkpt><trkpt lat="40.0852533" lon="15.3237283"><ele>347.0</ele><time>2026-04-25T16:17:29.902Z</time></trkpt><trkpt lat="40.0853233" lon="15.323705"><ele>345.66666666666663</ele><time>2026-04-25T16:17:30.901Z</time></trkpt><trkpt lat="40.0853917" lon="15.3236817"><ele>344.3333333333333</ele><time>2026-04-25T16:17:31.959Z</time></trkpt><trkpt lat="40.08545" lon="15.32364"><ele>343.0</ele><time>2026-04-25T16:17:32.899Z</time></trkpt><trkpt lat="40.0855217" lon="15.3235883"><ele>343.0</ele><time>2026-04-25T16:17:33.898Z</time></trkpt><trkpt lat="40.0856" lon="15.3235367"><ele>343.0</ele><time>2026-04-25T16:17:34.903Z</time></trkpt><trkpt lat="40.0856933" lon="15.3234917"><ele>343.0</ele><time>2026-04-25T16:17:35.899Z</time></trkpt><trkpt lat="40.08581" lon="15.3234533"><ele>343.0</ele><time>2026-04-25T16:17:36.903Z</time></trkpt><trkpt lat="40.0859567" lon="15.3234333"><ele>341.59999999999997</ele><time>2026-04-25T16:17:37.9Z</time></trkpt><trkpt lat="40.0861017" lon="15.32342"><ele>340.2</ele><time>2026-04-25T16:17:38.901Z</time></trkpt><trkpt lat="40.0862367" lon="15.32341"><ele>338.8</ele><time>2026-04-25T16:17:39.901Z</time></trkpt><trkpt lat="40.08631" lon="15.3234267"><ele>337.4</ele><time>2026-04-25T16:17:40.902Z</time></trkpt><trkpt lat="40.086385" lon="15.3234517"><ele>336.0</ele><time>2026-04-25T16:17:41.905Z</time></trkpt><trkpt lat="40.08645" lon="15.3234933"><ele>336.0</ele><time>2026-04-25T16:17:42.902Z</time></trkpt><trkpt lat="40.0865067" lon="15.323535"><ele>336.0</ele><time>2026-04-25T16:17:43.898Z</time></trkpt><trkpt lat="40.0865683" lon="15.3236233"><ele>336.0</ele><time>2026-04-25T16:17:44.901Z</time></trkpt><trkpt lat="40.0866217" lon="15.3237217"><ele>336.0</ele><time>2026-04-25T16:17:45.901Z</time></trkpt><trkpt lat="40.08667" lon="15.3238083"><ele>336.0</ele><time>2026-04-25T16:17:46.901Z</time></trkpt><trkpt lat="40.0867117" lon="15.3239133"><ele>336.0</ele><time>2026-04-25T16:17:48.898Z</time></trkpt><trkpt lat="40.0867817" lon="15.3240867"><ele>336.5</ele><time>2026-04-25T16:18:02.904Z</time></trkpt><trkpt lat="40.0868067" lon="15.32417"><ele>337.0</ele><time>2026-04-25T16:18:03.899Z</time></trkpt><trkpt lat="40.0868417" lon="15.3242717"><ele>337.5</ele><time>2026-04-25T16:18:04.899Z</time></trkpt><trkpt lat="40.0868833" lon="15.3243717"><ele>338.0</ele><time>2026-04-25T16:18:05.915Z</time></trkpt><trkpt lat="40.0869267" lon="15.32448"><ele>338.5</ele><time>2026-04-25T16:18:06.904Z</time></trkpt><trkpt lat="40.0869617" lon="15.32459"><ele>339.0</ele><time>2026-04-25T16:18:07.901Z</time></trkpt><trkpt lat="40.0869767" lon="15.32469"><ele>338.0</ele><time>2026-04-25T16:18:08.905Z</time></trkpt><trkpt lat="40.08698" lon="15.324795"><ele>337.0</ele><time>2026-04-25T16:18:09.897Z</time></trkpt><trkpt lat="40.08698" lon="15.3248983"><ele>336.0</ele><time>2026-04-25T16:18:10.9Z</time></trkpt><trkpt lat="40.086975" lon="15.3249967"><ele>335.0</ele><time>2026-04-25T16:18:11.895Z</time></trkpt><trkpt lat="40.0869667" lon="15.3250817"><ele>334.0</ele><time>2026-04-25T16:18:12.898Z</time></trkpt><trkpt lat="40.0869533" lon="15.325165"><ele>333.0</ele><time>2026-04-25T16:18:13.899Z</time></trkpt><trkpt lat="40.0869383" lon="15.32525"><ele>332.0</ele><time>2026-04-25T16:18:14.898Z</time></trkpt><trkpt lat="40.086905" lon="15.325375"><ele>332.0</ele><time>2026-04-25T16:18:16.904Z</time></trkpt><trkpt lat="40.0869133" lon="15.325465"><ele>332.0</ele><time>2026-04-25T16:18:18.902Z</time></trkpt><trkpt lat="40.0869433" lon="15.325585"><ele>332.0</ele><time>2026-04-25T16:18:20.904Z</time></trkpt><trkpt lat="40.08697" lon="15.3256717"><ele>332.0</ele><time>2026-04-25T16:18:21.903Z</time></trkpt><trkpt lat="40.08703" lon="15.3258333"><ele>332.0</ele><time>2026-04-25T16:18:23.896Z</time></trkpt><trkpt lat="40.08707" lon="15.3259283"><ele>329.83333333333337</ele><time>2026-04-25T16:18:24.902Z</time></trkpt><trkpt lat="40.087105" lon="15.3260267"><ele>327.6666666666667</ele><time>2026-04-25T16:18:25.943Z</time></trkpt><trkpt lat="40.0871333" lon="15.3261167"><ele>325.5</ele><time>2026-04-25T16:18:26.899Z</time></trkpt><trkpt lat="40.08716" lon="15.3262083"><ele>323.3333333333333</ele><time>2026-04-25T16:18:27.899Z</time></trkpt><trkpt lat="40.087185" lon="15.3263033"><ele>321.16666666666663</ele><time>2026-04-25T16:18:28.899Z</time></trkpt><trkpt lat="40.0872117" lon="15.3264083"><ele>319.0</ele><time>2026-04-25T16:18:29.907Z</time></trkpt><trkpt lat="40.0872367" lon="15.3265033"><ele>317.16666666666663</ele><time>2026-04-25T16:18:30.898Z</time></trkpt><trkpt lat="40.0872617" lon="15.3266017"><ele>315.3333333333333</ele><time>2026-04-25T16:18:31.954Z</time></trkpt><trkpt lat="40.0872883" lon="15.3266917"><ele>313.5</ele><time>2026-04-25T16:18:32.9Z</time></trkpt><trkpt lat="40.0873383" lon="15.32683"><ele>311.6666666666667</ele><time>2026-04-25T16:18:34.9Z</time></trkpt><trkpt lat="40.0873917" lon="15.3269133"><ele>309.83333333333337</ele><time>2026-04-25T16:18:36.899Z</time></trkpt><trkpt lat="40.0874483" lon="15.3268683"><ele>308.0</ele><time>2026-04-25T16:18:39.9Z</time></trkpt><trkpt lat="40.0875483" lon="15.3268333"><ele>308.0</ele><time>2026-04-25T16:18:41.905Z</time></trkpt><trkpt lat="40.087635" lon="15.32682"><ele>308.0</ele><time>2026-04-25T16:18:42.901Z</time></trkpt><trkpt lat="40.0877067" lon="15.3268033"><ele>308.0</ele><time>2026-04-25T16:18:43.9Z</time></trkpt><trkpt lat="40.087775" lon="15.3267783"><ele>308.0</ele><time>2026-04-25T16:18:44.905Z</time></trkpt><trkpt lat="40.0878483" lon="15.3267533"><ele>308.0</ele><time>2026-04-25T16:18:45.901Z</time></trkpt><trkpt lat="40.0879283" lon="15.326715"><ele>308.0</ele><time>2026-04-25T16:18:46.904Z</time></trkpt><trkpt lat="40.0880083" lon="15.3266767"><ele>308.0</ele><time>2026-04-25T16:18:47.901Z</time></trkpt><trkpt lat="40.08809" lon="15.32664"><ele>308.0</ele><time>2026-04-25T16:18:48.903Z</time></trkpt><trkpt lat="40.0881617" lon="15.3265917"><ele>308.0</ele><time>2026-04-25T16:18:49.9Z</time></trkpt><trkpt lat="40.088235" lon="15.3265367"><ele>308.0</ele><time>2026-04-25T16:18:50.901Z</time></trkpt><trkpt lat="40.0882933" lon="15.32648"><ele>308.0</ele><time>2026-04-25T16:18:51.897Z</time></trkpt><trkpt lat="40.0883467" lon="15.32643"><ele>308.0</ele><time>2026-04-25T16:18:52.902Z</time></trkpt><trkpt lat="40.088435" lon="15.3263917"><ele>306.4</ele><time>2026-04-25T16:18:54.899Z</time></trkpt><trkpt lat="40.0885383" lon="15.3263583"><ele>304.8</ele><time>2026-04-25T16:18:56.9Z</time></trkpt><trkpt lat="40.0886483" lon="15.3263183"><ele>303.2</ele><time>2026-04-25T16:18:58.902Z</time></trkpt><trkpt lat="40.0887183" lon="15.326315"><ele>301.6</ele><time>2026-04-25T16:18:59.907Z</time></trkpt><trkpt lat="40.0887967" lon="15.3263017"><ele>300.0</ele><time>2026-04-25T16:19:00.9Z</time></trkpt><trkpt lat="40.08888" lon="15.3262783"><ele>300.0</ele><time>2026-04-25T16:19:01.977Z</time></trkpt><trkpt lat="40.0889583" lon="15.3262617"><ele>300.0</ele><time>2026-04-25T16:19:02.902Z</time></trkpt><trkpt lat="40.08903" lon="15.3262483"><ele>300.0</ele><time>2026-04-25T16:19:03.906Z</time></trkpt><trkpt lat="40.0890967" lon="15.3262567"><ele>300.0</ele><time>2026-04-25T16:19:04.897Z</time></trkpt><trkpt lat="40.089165" lon="15.3262767"><ele>300.0</ele><time>2026-04-25T16:19:05.896Z</time></trkpt><trkpt lat="40.0892333" lon="15.3263167"><ele>300.0</ele><time>2026-04-25T16:19:06.901Z</time></trkpt><trkpt lat="40.089305" lon="15.326385"><ele>296.8333333333333</ele><time>2026-04-25T16:19:07.906Z</time></trkpt><trkpt lat="40.0893633" lon="15.3264767"><ele>293.6666666666667</ele><time>2026-04-25T16:19:08.895Z</time></trkpt><trkpt lat="40.0894167" lon="15.3265533"><ele>290.5</ele><time>2026-04-25T16:19:09.9Z</time></trkpt><trkpt lat="40.0894667" lon="15.32663"><ele>287.33333333333337</ele><time>2026-04-25T16:19:11.901Z</time></trkpt><trkpt lat="40.08945" lon="15.3267183"><ele>284.1666666666667</ele><time>2026-04-25T16:19:14.898Z</time></trkpt><trkpt lat="40.0894517" lon="15.3268583"><ele>281.0</ele><time>2026-04-25T16:19:16.903Z</time></trkpt><trkpt lat="40.089485" lon="15.326945"><ele>281.0</ele><time>2026-04-25T16:19:17.893Z</time></trkpt><trkpt lat="40.089535" lon="15.3270267"><ele>281.0</ele><time>2026-04-25T16:19:18.897Z</time></trkpt><trkpt lat="40.089595" lon="15.3270983"><ele>281.0</ele><time>2026-04-25T16:19:19.898Z</time></trkpt><trkpt lat="40.0896633" lon="15.3271617"><ele>281.0</ele><time>2026-04-25T16:19:20.896Z</time></trkpt><trkpt lat="40.0897383" lon="15.3272017"><ele>281.0</ele><time>2026-04-25T16:19:21.901Z</time></trkpt><trkpt lat="40.0898033" lon="15.3271967"><ele>281.0</ele><time>2026-04-25T16:19:22.899Z</time></trkpt><trkpt lat="40.0898617" lon="15.3271633"><ele>280.2</ele><time>2026-04-25T16:19:23.902Z</time></trkpt><trkpt lat="40.089965" lon="15.3271683"><ele>279.40000000000003</ele><time>2026-04-25T16:19:25.963Z</time></trkpt><trkpt lat="40.0900067" lon="15.3272883"><ele>278.6</ele><time>2026-04-25T16:19:28.906Z</time></trkpt><trkpt lat="40.09005" lon="15.32743"><ele>277.8</ele><time>2026-04-25T16:19:30.899Z</time></trkpt><trkpt lat="40.0900867" lon="15.3275433"><ele>277.0</ele><time>2026-04-25T16:19:32.896Z</time></trkpt><trkpt lat="40.0901183" lon="15.3276333"><ele>275.16666666666663</ele><time>2026-04-25T16:19:34.9Z</time></trkpt><trkpt lat="40.090145" lon="15.3277217"><ele>273.3333333333333</ele><time>2026-04-25T16:19:36.9Z</time></trkpt><trkpt lat="40.0901667" lon="15.3278333"><ele>271.5</ele><time>2026-04-25T16:19:38.9Z</time></trkpt><trkpt lat="40.0901917" lon="15.3279633"><ele>269.6666666666667</ele><time>2026-04-25T16:19:40.901Z</time></trkpt><trkpt lat="40.090215" lon="15.3280717"><ele>267.83333333333337</ele><time>2026-04-25T16:19:42.901Z</time></trkpt><trkpt lat="40.0902267" lon="15.3281617"><ele>266.0</ele><time>2026-04-25T16:19:45.906Z</time></trkpt><trkpt lat="40.0901633" lon="15.328255"><ele>264.8</ele><time>2026-04-25T16:20:11.904Z</time></trkpt><trkpt lat="40.0900667" lon="15.3283067"><ele>263.6</ele><time>2026-04-25T16:20:13.9Z</time></trkpt><trkpt lat="40.0899683" lon="15.3283617"><ele>262.4</ele><time>2026-04-25T16:20:15.903Z</time></trkpt><trkpt lat="40.0898783" lon="15.3283517"><ele>261.2</ele><time>2026-04-25T16:20:17.904Z</time></trkpt><trkpt lat="40.0898167" lon="15.3283017"><ele>260.0</ele><time>2026-04-25T16:20:18.903Z</time></trkpt><trkpt lat="40.0897033" lon="15.3281567"><ele>260.0</ele><time>2026-04-25T16:20:19.899Z</time></trkpt><trkpt lat="40.0896167" lon="15.3280667"><ele>260.0</ele><time>2026-04-25T16:20:20.903Z</time></trkpt><trkpt lat="40.0895133" lon="15.3279867"><ele>260.0</ele><time>2026-04-25T16:20:21.9Z</time></trkpt><trkpt lat="40.08942" lon="15.327975"><ele>260.0</ele><time>2026-04-25T16:20:22.909Z</time></trkpt><trkpt lat="40.0893267" lon="15.327995"><ele>260.0</ele><time>2026-04-25T16:20:23.904Z</time></trkpt><trkpt lat="40.089265" lon="15.3280633"><ele>260.0</ele><time>2026-04-25T16:20:24.905Z</time></trkpt><trkpt lat="40.0892217" lon="15.3281733"><ele>260.0</ele><time>2026-04-25T16:20:25.967Z</time></trkpt><trkpt lat="40.0891833" lon="15.3282817"><ele>260.0</ele><time>2026-04-25T16:20:26.901Z</time></trkpt><trkpt lat="40.089175" lon="15.3284283"><ele>260.0</ele><time>2026-04-25T16:20:27.904Z</time></trkpt><trkpt lat="40.0891733" lon="15.3285767"><ele>260.0</ele><time>2026-04-25T16:20:28.905Z</time></trkpt><trkpt lat="40.0891967" lon="15.3287433"><ele>259.0</ele><time>2026-04-25T16:20:29.905Z</time></trkpt><trkpt lat="40.0892167" lon="15.3288933"><ele>258.0</ele><time>2026-04-25T16:20:30.9Z</time></trkpt><trkpt lat="40.089285" lon="15.32903"><ele>257.0</ele><time>2026-04-25T16:20:31.96Z</time></trkpt><trkpt lat="40.0893517" lon="15.32916"><ele>256.0</ele><time>2026-04-25T16:20:32.899Z</time></trkpt><trkpt lat="40.089455" lon="15.32927"><ele>256.0</ele><time>2026-04-25T16:20:33.909Z</time></trkpt><trkpt lat="40.08955" lon="15.3293683"><ele>256.0</ele><time>2026-04-25T16:20:34.902Z</time></trkpt><trkpt lat="40.0896317" lon="15.3294667"><ele>256.0</ele><time>2026-04-25T16:20:35.907Z</time></trkpt><trkpt lat="40.08967" lon="15.329565"><ele>256.0</ele><time>2026-04-25T16:20:36.901Z</time></trkpt><trkpt lat="40.0897033" lon="15.32968"><ele>256.0</ele><time>2026-04-25T16:20:37.904Z</time></trkpt><trkpt lat="40.08971" lon="15.3297833"><ele>254.99999999999997</ele><time>2026-04-25T16:20:38.903Z</time></trkpt><trkpt lat="40.0897083" lon="15.3298967"><ele>254.0</ele><time>2026-04-25T16:20:39.901Z</time></trkpt><trkpt lat="40.0897083" lon="15.3300017"><ele>253.0</ele><time>2026-04-25T16:20:40.901Z</time></trkpt><trkpt lat="40.0897083" lon="15.3301083"><ele>252.0</ele><time>2026-04-25T16:20:41.899Z</time></trkpt><trkpt lat="40.0897083" lon="15.33022"><ele>250.99999999999997</ele><time>2026-04-25T16:20:42.895Z</time></trkpt><trkpt lat="40.08971" lon="15.33033"><ele>250.0</ele><time>2026-04-25T16:20:43.896Z</time></trkpt><trkpt lat="40.0896967" lon="15.33043"><ele>250.0</ele><time>2026-04-25T16:20:44.894Z</time></trkpt><trkpt lat="40.0896167" lon="15.3304867"><ele>250.0</ele><time>2026-04-25T16:20:45.899Z</time></trkpt><trkpt lat="40.0895317" lon="15.3305367"><ele>250.0</ele><time>2026-04-25T16:20:46.899Z</time></trkpt><trkpt lat="40.0894283" lon="15.3305767"><ele>250.0</ele><time>2026-04-25T16:20:47.899Z</time></trkpt><trkpt lat="40.0893133" lon="15.3306017"><ele>250.0</ele><time>2026-04-25T16:20:48.904Z</time></trkpt><trkpt lat="40.0891933" lon="15.330615"><ele>247.75</ele><time>2026-04-25T16:20:49.899Z</time></trkpt><trkpt lat="40.0890717" lon="15.3306133"><ele>245.5</ele><time>2026-04-25T16:20:50.903Z</time></trkpt><trkpt lat="40.0889533" lon="15.3306067"><ele>243.25</ele><time>2026-04-25T16:20:51.901Z</time></trkpt><trkpt lat="40.0888417" lon="15.3305833"><ele>241.0</ele><time>2026-04-25T16:20:52.908Z</time></trkpt><trkpt lat="40.0887317" lon="15.3304983"><ele>241.0</ele><time>2026-04-25T16:20:53.904Z</time></trkpt><trkpt lat="40.0886033" lon="15.33044"><ele>241.0</ele><time>2026-04-25T16:20:54.899Z</time></trkpt><trkpt lat="40.0884767" lon="15.3303917"><ele>241.0</ele><time>2026-04-25T16:20:55.945Z</time></trkpt><trkpt lat="40.0883283" lon="15.3303533"><ele>241.0</ele><time>2026-04-25T16:20:56.896Z</time></trkpt><trkpt lat="40.08817" lon="15.3303383"><ele>240.66666666666666</ele><time>2026-04-25T16:20:57.901Z</time></trkpt><trkpt lat="40.0880033" lon="15.3303333"><ele>240.33333333333331</ele><time>2026-04-25T16:20:58.903Z</time></trkpt><trkpt lat="40.0878333" lon="15.3303233"><ele>240.0</ele><time>2026-04-25T16:20:59.902Z</time></trkpt><trkpt lat="40.0876683" lon="15.3303183"><ele>240.0</ele><time>2026-04-25T16:21:00.897Z</time></trkpt><trkpt lat="40.0875117" lon="15.33031"><ele>240.0</ele><time>2026-04-25T16:21:01.948Z</time></trkpt><trkpt lat="40.0873733" lon="15.3303083"><ele>240.0</ele><time>2026-04-25T16:21:02.9Z</time></trkpt><trkpt lat="40.0872467" lon="15.3303333"><ele>240.0</ele><time>2026-04-25T16:21:03.9Z</time></trkpt><trkpt lat="40.0871533" lon="15.3303683"><ele>241.25</ele><time>2026-04-25T16:21:04.903Z</time></trkpt><trkpt lat="40.0871" lon="15.3304283"><ele>242.5</ele><time>2026-04-25T16:21:05.908Z</time></trkpt><trkpt lat="40.0871067" lon="15.33062"><ele>243.75</ele><time>2026-04-25T16:21:07.906Z</time></trkpt><trkpt lat="40.087125" lon="15.3307867"><ele>245.0</ele><time>2026-04-25T16:21:08.899Z</time></trkpt><trkpt lat="40.087175" lon="15.3310133"><ele>245.0</ele><time>2026-04-25T16:21:09.897Z</time></trkpt><trkpt lat="40.0872033" lon="15.3312417"><ele>245.0</ele><time>2026-04-25T16:21:10.903Z</time></trkpt><trkpt lat="40.0872033" lon="15.3314567"><ele>245.0</ele><time>2026-04-25T16:21:11.9Z</time></trkpt><trkpt lat="40.0872117" lon="15.331695"><ele>244.75</ele><time>2026-04-25T16:21:12.9Z</time></trkpt><trkpt lat="40.0871933" lon="15.3319067"><ele>244.5</ele><time>2026-04-25T16:21:13.903Z</time></trkpt><trkpt lat="40.0871483" lon="15.3320467"><ele>244.25</ele><time>2026-04-25T16:21:14.897Z</time></trkpt><trkpt lat="40.0870783" lon="15.3321567"><ele>244.0</ele><time>2026-04-25T16:21:15.9Z</time></trkpt><trkpt lat="40.0869967" lon="15.3322517"><ele>243.0</ele><time>2026-04-25T16:21:16.902Z</time></trkpt><trkpt lat="40.0869217" lon="15.332345"><ele>241.99999999999997</ele><time>2026-04-25T16:21:17.899Z</time></trkpt><trkpt lat="40.0868467" lon="15.33243"><ele>240.99999999999997</ele><time>2026-04-25T16:21:18.897Z</time></trkpt><trkpt lat="40.0867933" lon="15.33252"><ele>240.0</ele><time>2026-04-25T16:21:19.906Z</time></trkpt><trkpt lat="40.08677" lon="15.3326183"><ele>239.0</ele><time>2026-04-25T16:21:20.902Z</time></trkpt><trkpt lat="40.086775" lon="15.3327367"><ele>239.0</ele><time>2026-04-25T16:21:21.9Z</time></trkpt><trkpt lat="40.08682" lon="15.3328667"><ele>239.0</ele><time>2026-04-25T16:21:22.907Z</time></trkpt><trkpt lat="40.0868867" lon="15.3330267"><ele>239.0</ele><time>2026-04-25T16:21:23.903Z</time></trkpt><trkpt lat="40.0869483" lon="15.33321"><ele>239.0</ele><time>2026-04-25T16:21:24.899Z</time></trkpt><trkpt lat="40.0869967" lon="15.3334033"><ele>238.0</ele><time>2026-04-25T16:21:25.972Z</time></trkpt><trkpt lat="40.0870233" lon="15.3335883"><ele>237.0</ele><time>2026-04-25T16:21:26.897Z</time></trkpt><trkpt lat="40.0870183" lon="15.3337617"><ele>236.0</ele><time>2026-04-25T16:21:27.901Z</time></trkpt><trkpt lat="40.0870017" lon="15.3339267"><ele>235.0</ele><time>2026-04-25T16:21:28.901Z</time></trkpt><trkpt lat="40.0869483" lon="15.334065"><ele>232.5</ele><time>2026-04-25T16:21:29.903Z</time></trkpt><trkpt lat="40.086875" lon="15.3341933"><ele>230.0</ele><time>2026-04-25T16:21:30.899Z</time></trkpt><trkpt lat="40.086785" lon="15.3343167"><ele>227.5</ele><time>2026-04-25T16:21:31.949Z</time></trkpt><trkpt lat="40.0866933" lon="15.3344567"><ele>225.0</ele><time>2026-04-25T16:21:32.901Z</time></trkpt><trkpt lat="40.0866017" lon="15.3346067"><ele>230.5</ele><time>2026-04-25T16:21:33.898Z</time></trkpt><trkpt lat="40.08653" lon="15.334775"><ele>236.0</ele><time>2026-04-25T16:21:34.895Z</time></trkpt><trkpt lat="40.0864733" lon="15.334945"><ele>241.5</ele><time>2026-04-25T16:21:35.902Z</time></trkpt><trkpt lat="40.08645" lon="15.3351267"><ele>247.0</ele><time>2026-04-25T16:21:36.901Z</time></trkpt><trkpt lat="40.08646" lon="15.3353133"><ele>247.0</ele><time>2026-04-25T16:21:37.908Z</time></trkpt><trkpt lat="40.0865317" lon="15.3354767"><ele>247.0</ele><time>2026-04-25T16:21:38.9Z</time></trkpt><trkpt lat="40.0865533" lon="15.3356333"><ele>247.0</ele><time>2026-04-25T16:21:39.905Z</time></trkpt><trkpt lat="40.0865683" lon="15.33579"><ele>247.0</ele><time>2026-04-25T16:21:40.898Z</time></trkpt><trkpt lat="40.0865717" lon="15.33595"><ele>242.75</ele><time>2026-04-25T16:21:41.901Z</time></trkpt><trkpt lat="40.0864883" lon="15.3360917"><ele>238.5</ele><time>2026-04-25T16:21:42.899Z</time></trkpt><trkpt lat="40.0864167" lon="15.3362433"><ele>234.25</ele><time>2026-04-25T16:21:43.906Z</time></trkpt><trkpt lat="40.0863333" lon="15.336395"><ele>230.0</ele><time>2026-04-25T16:21:44.9Z</time></trkpt><trkpt lat="40.0862483" lon="15.336525"><ele>225.75</ele><time>2026-04-25T16:21:45.898Z</time></trkpt><trkpt lat="40.0861517" lon="15.33664"><ele>221.5</ele><time>2026-04-25T16:21:46.9Z</time></trkpt><trkpt lat="40.0860267" lon="15.3367167"><ele>217.25</ele><time>2026-04-25T16:21:47.894Z</time></trkpt><trkpt lat="40.0859083" lon="15.336795"><ele>213.0</ele><time>2026-04-25T16:21:48.897Z</time></trkpt><trkpt lat="40.0857967" lon="15.3368883"><ele>214.25</ele><time>2026-04-25T16:21:49.9Z</time></trkpt><trkpt lat="40.0856983" lon="15.336995"><ele>215.5</ele><time>2026-04-25T16:21:50.893Z</time></trkpt><trkpt lat="40.0856217" lon="15.3371167"><ele>216.75</ele><time>2026-04-25T16:21:51.909Z</time></trkpt><trkpt lat="40.0855633" lon="15.337245"><ele>218.0</ele><time>2026-04-25T16:21:52.896Z</time></trkpt><trkpt lat="40.0855383" lon="15.3374017"><ele>218.0</ele><time>2026-04-25T16:21:53.904Z</time></trkpt><trkpt lat="40.0855317" lon="15.3375583"><ele>218.0</ele><time>2026-04-25T16:21:54.903Z</time></trkpt><trkpt lat="40.0855517" lon="15.337715"><ele>218.0</ele><time>2026-04-25T16:21:55.969Z</time></trkpt><trkpt lat="40.0855567" lon="15.337855"><ele>218.0</ele><time>2026-04-25T16:21:56.894Z</time></trkpt><trkpt lat="40.0855317" lon="15.3379667"><ele>218.0</ele><time>2026-04-25T16:21:57.901Z</time></trkpt><trkpt lat="40.0854733" lon="15.3380683"><ele>217.2</ele><time>2026-04-25T16:21:58.902Z</time></trkpt><trkpt lat="40.0853883" lon="15.3381533"><ele>216.4</ele><time>2026-04-25T16:21:59.911Z</time></trkpt><trkpt lat="40.085305" lon="15.3382467"><ele>215.59999999999997</ele><time>2026-04-25T16:22:00.891Z</time></trkpt><trkpt lat="40.0852267" lon="15.33834"><ele>214.79999999999998</ele><time>2026-04-25T16:22:01.938Z</time></trkpt><trkpt lat="40.0851567" lon="15.338445"><ele>214.0</ele><time>2026-04-25T16:22:02.893Z</time></trkpt><trkpt lat="40.0851133" lon="15.3385867"><ele>214.0</ele><time>2026-04-25T16:22:03.898Z</time></trkpt><trkpt lat="40.085075" lon="15.33875"><ele>214.0</ele><time>2026-04-25T16:22:04.902Z</time></trkpt><trkpt lat="40.0850233" lon="15.3389117"><ele>214.0</ele><time>2026-04-25T16:22:05.904Z</time></trkpt><trkpt lat="40.0849667" lon="15.339055"><ele>214.0</ele><time>2026-04-25T16:22:06.902Z</time></trkpt><trkpt lat="40.084925" lon="15.3391883"><ele>213.2</ele><time>2026-04-25T16:22:07.897Z</time></trkpt><trkpt lat="40.084895" lon="15.3393133"><ele>212.39999999999998</ele><time>2026-04-25T16:22:08.902Z</time></trkpt><trkpt lat="40.0849" lon="15.3394433"><ele>211.6</ele><time>2026-04-25T16:22:09.903Z</time></trkpt><trkpt lat="40.0849133" lon="15.3395517"><ele>210.8</ele><time>2026-04-25T16:22:10.898Z</time></trkpt><trkpt lat="40.0849383" lon="15.3396517"><ele>210.0</ele><time>2026-04-25T16:22:11.901Z</time></trkpt><trkpt lat="40.0849883" lon="15.3397533"><ele>210.0</ele><time>2026-04-25T16:22:12.896Z</time></trkpt><trkpt lat="40.085065" lon="15.3398467"><ele>210.0</ele><time>2026-04-25T16:22:13.907Z</time></trkpt><trkpt lat="40.08519" lon="15.3399733"><ele>210.0</ele><time>2026-04-25T16:22:14.899Z</time></trkpt><trkpt lat="40.0853217" lon="15.340105"><ele>210.0</ele><time>2026-04-25T16:22:15.903Z</time></trkpt><trkpt lat="40.085465" lon="15.3402483"><ele>210.0</ele><time>2026-04-25T16:22:16.896Z</time></trkpt><trkpt lat="40.0855767" lon="15.3403917"><ele>210.0</ele><time>2026-04-25T16:22:17.906Z</time></trkpt><trkpt lat="40.085675" lon="15.34054"><ele>210.0</ele><time>2026-04-25T16:22:18.898Z</time></trkpt><trkpt lat="40.085755" lon="15.3407"><ele>205.25</ele><time>2026-04-25T16:22:19.898Z</time></trkpt><trkpt lat="40.0858183" lon="15.3408683"><ele>200.5</ele><time>2026-04-25T16:22:20.901Z</time></trkpt><trkpt lat="40.08585" lon="15.341035"><ele>195.75</ele><time>2026-04-25T16:22:21.902Z</time></trkpt><trkpt lat="40.0858983" lon="15.3411917"><ele>191.0</ele><time>2026-04-25T16:22:22.904Z</time></trkpt><trkpt lat="40.0859583" lon="15.3413417"><ele>192.4</ele><time>2026-04-25T16:22:23.905Z</time></trkpt><trkpt lat="40.0860217" lon="15.3414717"><ele>193.8</ele><time>2026-04-25T16:22:24.9Z</time></trkpt><trkpt lat="40.0861017" lon="15.3415833"><ele>195.20000000000002</ele><time>2026-04-25T16:22:25.969Z</time></trkpt><trkpt lat="40.086165" lon="15.3416917"><ele>196.60000000000002</ele><time>2026-04-25T16:22:26.9Z</time></trkpt><trkpt lat="40.086215" lon="15.3418017"><ele>198.0</ele><time>2026-04-25T16:22:27.902Z</time></trkpt><trkpt lat="40.0862433" lon="15.3419083"><ele>198.0</ele><time>2026-04-25T16:22:28.902Z</time></trkpt><trkpt lat="40.086235" lon="15.34202"><ele>198.0</ele><time>2026-04-25T16:22:29.902Z</time></trkpt><trkpt lat="40.08623" lon="15.3421083"><ele>198.0</ele><time>2026-04-25T16:22:30.899Z</time></trkpt><trkpt lat="40.0862533" lon="15.3421883"><ele>198.0</ele><time>2026-04-25T16:22:31.949Z</time></trkpt><trkpt lat="40.0863267" lon="15.3422517"><ele>198.0</ele><time>2026-04-25T16:22:33.907Z</time></trkpt><trkpt lat="40.0863933" lon="15.3421283"><ele>198.0</ele><time>2026-04-25T16:22:35.902Z</time></trkpt><trkpt lat="40.0864217" lon="15.3420067"><ele>198.0</ele><time>2026-04-25T16:22:36.901Z</time></trkpt><trkpt lat="40.0864683" lon="15.3419217"><ele>198.0</ele><time>2026-04-25T16:22:37.904Z</time></trkpt><trkpt lat="40.08653" lon="15.3418567"><ele>198.0</ele><time>2026-04-25T16:22:38.902Z</time></trkpt><trkpt lat="40.0866083" lon="15.3418067"><ele>198.0</ele><time>2026-04-25T16:22:39.905Z</time></trkpt><trkpt lat="40.0866817" lon="15.3417617"><ele>198.0</ele><time>2026-04-25T16:22:40.903Z</time></trkpt><trkpt lat="40.0867767" lon="15.3417067"><ele>198.0</ele><time>2026-04-25T16:22:42.902Z</time></trkpt><trkpt lat="40.0866983" lon="15.341725"><ele>198.0</ele><time>2026-04-25T16:22:48.905Z</time></trkpt><trkpt lat="40.0866217" lon="15.3417867"><ele>198.0</ele><time>2026-04-25T16:22:49.906Z</time></trkpt><trkpt lat="40.0865417" lon="15.3418867"><ele>198.0</ele><time>2026-04-25T16:22:51.902Z</time></trkpt><trkpt lat="40.0864767" lon="15.342"><ele>198.0</ele><time>2026-04-25T16:22:53.912Z</time></trkpt><trkpt lat="40.08645" lon="15.3420783"><ele>198.0</ele><time>2026-04-25T16:22:54.898Z</time></trkpt><trkpt lat="40.0864283" lon="15.342165"><ele>198.0</ele><time>2026-04-25T16:22:55.966Z</time></trkpt><trkpt lat="40.086415" lon="15.3422533"><ele>201.4</ele><time>2026-04-25T16:22:56.896Z</time></trkpt><trkpt lat="40.0864117" lon="15.34234"><ele>204.8</ele><time>2026-04-25T16:22:57.896Z</time></trkpt><trkpt lat="40.0864217" lon="15.342425"><ele>208.2</ele><time>2026-04-25T16:22:58.904Z</time></trkpt><trkpt lat="40.086495" lon="15.3425783"><ele>211.6</ele><time>2026-04-25T16:23:00.9Z</time></trkpt><trkpt lat="40.0865467" lon="15.34267"><ele>215.0</ele><time>2026-04-25T16:23:01.946Z</time></trkpt><trkpt lat="40.0866" lon="15.34278"><ele>205.6</ele><time>2026-04-25T16:23:02.901Z</time></trkpt><trkpt lat="40.086645" lon="15.3429083"><ele>196.2</ele><time>2026-04-25T16:23:03.901Z</time></trkpt><trkpt lat="40.086695" lon="15.3430283"><ele>186.8</ele><time>2026-04-25T16:23:04.899Z</time></trkpt><trkpt lat="40.08674" lon="15.343135"><ele>177.4</ele><time>2026-04-25T16:23:05.906Z</time></trkpt><trkpt lat="40.086775" lon="15.3432367"><ele>168.0</ele><time>2026-04-25T16:23:06.901Z</time></trkpt><trkpt lat="40.0867983" lon="15.34334"><ele>167.66666666666666</ele><time>2026-04-25T16:23:07.902Z</time></trkpt><trkpt lat="40.08681" lon="15.3434433"><ele>167.33333333333334</ele><time>2026-04-25T16:23:08.895Z</time></trkpt><trkpt lat="40.0868033" lon="15.34354"><ele>167.0</ele><time>2026-04-25T16:23:09.9Z</time></trkpt><trkpt lat="40.086785" lon="15.3436333"><ele>166.66666666666669</ele><time>2026-04-25T16:23:10.901Z</time></trkpt><trkpt lat="40.0867533" lon="15.3437317"><ele>166.33333333333334</ele><time>2026-04-25T16:23:11.904Z</time></trkpt><trkpt lat="40.0867167" lon="15.3438233"><ele>166.0</ele><time>2026-04-25T16:23:12.891Z</time></trkpt><trkpt lat="40.0866833" lon="15.3439067"><ele>165.16666666666669</ele><time>2026-04-25T16:23:13.905Z</time></trkpt><trkpt lat="40.0866583" lon="15.3439833"><ele>164.33333333333334</ele><time>2026-04-25T16:23:14.899Z</time></trkpt><trkpt lat="40.0866433" lon="15.344145"><ele>163.5</ele><time>2026-04-25T16:23:16.903Z</time></trkpt><trkpt lat="40.08664" lon="15.3442333"><ele>162.66666666666666</ele><time>2026-04-25T16:23:17.899Z</time></trkpt><trkpt lat="40.086635" lon="15.3443483"><ele>161.83333333333331</ele><time>2026-04-25T16:23:18.904Z</time></trkpt><trkpt lat="40.086635" lon="15.344475"><ele>161.0</ele><time>2026-04-25T16:23:19.902Z</time></trkpt><trkpt lat="40.08664" lon="15.3446033"><ele>159.4</ele><time>2026-04-25T16:23:20.901Z</time></trkpt><trkpt lat="40.0866467" lon="15.3447333"><ele>157.8</ele><time>2026-04-25T16:23:21.902Z</time></trkpt><trkpt lat="40.0866533" lon="15.3448633"><ele>156.20000000000002</ele><time>2026-04-25T16:23:22.901Z</time></trkpt><trkpt lat="40.0866567" lon="15.344985"><ele>154.60000000000002</ele><time>2026-04-25T16:23:23.904Z</time></trkpt><trkpt lat="40.0866533" lon="15.3450933"><ele>153.0</ele><time>2026-04-25T16:23:24.896Z</time></trkpt><trkpt lat="40.08664" lon="15.3451983"><ele>153.0</ele><time>2026-04-25T16:23:25.97Z</time></trkpt><trkpt lat="40.0866183" lon="15.345295"><ele>153.0</ele><time>2026-04-25T16:23:26.898Z</time></trkpt><trkpt lat="40.0865983" lon="15.3453967"><ele>153.0</ele><time>2026-04-25T16:23:27.898Z</time></trkpt><trkpt lat="40.0865783" lon="15.3455117"><ele>153.0</ele><time>2026-04-25T16:23:28.893Z</time></trkpt><trkpt lat="40.08656" lon="15.345615"><ele>153.0</ele><time>2026-04-25T16:23:29.898Z</time></trkpt><trkpt lat="40.086545" lon="15.3457067"><ele>153.0</ele><time>2026-04-25T16:23:30.898Z</time></trkpt><trkpt lat="40.0865117" lon="15.3458117"><ele>164.0</ele><time>2026-04-25T16:23:32.9Z</time></trkpt><trkpt lat="40.0864533" lon="15.3456733"><ele>175.0</ele><time>2026-04-25T16:23:39.902Z</time></trkpt><trkpt lat="40.086425" lon="15.34554"><ele>186.0</ele><time>2026-04-25T16:23:42.903Z</time></trkpt><trkpt lat="40.0864483" lon="15.3454183"><ele>197.0</ele><time>2026-04-25T16:23:44.897Z</time></trkpt><trkpt lat="40.086505" lon="15.34535"><ele>208.0</ele><time>2026-04-25T16:23:46.901Z</time></trkpt><trkpt lat="40.0865717" lon="15.3453117"><ele>198.83333333333331</ele><time>2026-04-25T16:23:48.904Z</time></trkpt><trkpt lat="40.0866483" lon="15.3452317"><ele>189.66666666666666</ele><time>2026-04-25T16:23:50.901Z</time></trkpt><trkpt lat="40.0867" lon="15.3451667"><ele>180.5</ele><time>2026-04-25T16:23:51.899Z</time></trkpt><trkpt lat="40.0867533" lon="15.3450967"><ele>171.33333333333331</ele><time>2026-04-25T16:23:52.904Z</time></trkpt><trkpt lat="40.0868017" lon="15.34503"><ele>162.16666666666666</ele><time>2026-04-25T16:23:53.904Z</time></trkpt><trkpt lat="40.0868733" lon="15.3449217"><ele>153.0</ele><time>2026-04-25T16:23:55.967Z</time></trkpt><trkpt lat="40.0869517" lon="15.3448267"><ele>153.0</ele><time>2026-04-25T16:23:57.901Z</time></trkpt><trkpt lat="40.087055" lon="15.3447533"><ele>153.0</ele><time>2026-04-25T16:23:59.9Z</time></trkpt><trkpt lat="40.0871683" lon="15.3446867"><ele>153.0</ele><time>2026-04-25T16:24:01.945Z</time></trkpt><trkpt lat="40.0872317" lon="15.3446633"><ele>153.0</ele><time>2026-04-25T16:24:02.897Z</time></trkpt><trkpt lat="40.0872967" lon="15.3446333"><ele>153.0</ele><time>2026-04-25T16:24:03.899Z</time></trkpt><trkpt lat="40.08737" lon="15.344605"><ele>150.66666666666666</ele><time>2026-04-25T16:24:04.905Z</time></trkpt><trkpt lat="40.0874417" lon="15.3445883"><ele>148.33333333333334</ele><time>2026-04-25T16:24:05.907Z</time></trkpt><trkpt lat="40.0875233" lon="15.3445717"><ele>146.0</ele><time>2026-04-25T16:24:06.899Z</time></trkpt><trkpt lat="40.0876133" lon="15.34457"><ele>143.66666666666669</ele><time>2026-04-25T16:24:07.897Z</time></trkpt><trkpt lat="40.0877" lon="15.3445717"><ele>141.33333333333334</ele><time>2026-04-25T16:24:08.904Z</time></trkpt><trkpt lat="40.087785" lon="15.3445767"><ele>139.0</ele><time>2026-04-25T16:24:09.901Z</time></trkpt><trkpt lat="40.0878683" lon="15.3445917"><ele>139.0</ele><time>2026-04-25T16:24:10.9Z</time></trkpt><trkpt lat="40.0879517" lon="15.3446183"><ele>139.0</ele><time>2026-04-25T16:24:11.908Z</time></trkpt><trkpt lat="40.08803" lon="15.3446333"><ele>139.0</ele><time>2026-04-25T16:24:12.901Z</time></trkpt><trkpt lat="40.0881133" lon="15.34466"><ele>139.0</ele><time>2026-04-25T16:24:13.9Z</time></trkpt><trkpt lat="40.0881933" lon="15.34468"><ele>139.0</ele><time>2026-04-25T16:24:14.899Z</time></trkpt><trkpt lat="40.088255" lon="15.3446967"><ele>139.0</ele><time>2026-04-25T16:24:15.897Z</time></trkpt><trkpt lat="40.0883383" lon="15.34475"><ele>136.33333333333334</ele><time>2026-04-25T16:24:17.894Z</time></trkpt><trkpt lat="40.0883967" lon="15.3448033"><ele>133.66666666666669</ele><time>2026-04-25T16:24:19.898Z</time></trkpt><trkpt lat="40.0884517" lon="15.3448567"><ele>131.0</ele><time>2026-04-25T16:24:21.9Z</time></trkpt><trkpt lat="40.088545" lon="15.3449167"><ele>128.33333333333334</ele><time>2026-04-25T16:24:23.895Z</time></trkpt><trkpt lat="40.0886" lon="15.3449617"><ele>125.66666666666667</ele><time>2026-04-25T16:24:24.898Z</time></trkpt><trkpt lat="40.0886617" lon="15.3450367"><ele>123.0</ele><time>2026-04-25T16:24:25.966Z</time></trkpt><trkpt lat="40.0887167" lon="15.34512"><ele>123.0</ele><time>2026-04-25T16:24:26.896Z</time></trkpt><trkpt lat="40.088755" lon="15.345205"><ele>123.0</ele><time>2026-04-25T16:24:27.902Z</time></trkpt><trkpt lat="40.0887783" lon="15.3452967"><ele>123.0</ele><time>2026-04-25T16:24:28.9Z</time></trkpt><trkpt lat="40.0887867" lon="15.3453833"><ele>123.0</ele><time>2026-04-25T16:24:29.903Z</time></trkpt><trkpt lat="40.0887517" lon="15.3455233"><ele>123.0</ele><time>2026-04-25T16:24:31.963Z</time></trkpt><trkpt lat="40.088675" lon="15.34562"><ele>123.0</ele><time>2026-04-25T16:24:33.893Z</time></trkpt><trkpt lat="40.0886" lon="15.34571"><ele>123.0</ele><time>2026-04-25T16:24:35.899Z</time></trkpt><trkpt lat="40.0885333" lon="15.3457167"><ele>123.0</ele><time>2026-04-25T16:24:36.899Z</time></trkpt><trkpt lat="40.0884183" lon="15.3456383"><ele>123.0</ele><time>2026-04-25T16:24:37.9Z</time></trkpt><trkpt lat="40.0882667" lon="15.345505"><ele>123.0</ele><time>2026-04-25T16:24:38.899Z</time></trkpt><trkpt lat="40.0880983" lon="15.345365"><ele>124.0</ele><time>2026-04-25T16:24:39.899Z</time></trkpt><trkpt lat="40.0879733" lon="15.3453033"><ele>125.00000000000001</ele><time>2026-04-25T16:24:40.896Z</time></trkpt><trkpt lat="40.0878633" lon="15.34525"><ele>126.00000000000001</ele><time>2026-04-25T16:24:41.899Z</time></trkpt><trkpt lat="40.08776" lon="15.345215"><ele>127.0</ele><time>2026-04-25T16:24:42.903Z</time></trkpt><trkpt lat="40.08768" lon="15.345235"><ele>128.0</ele><time>2026-04-25T16:24:43.898Z</time></trkpt><trkpt lat="40.0875833" lon="15.3452517"><ele>128.0</ele><time>2026-04-25T16:24:44.9Z</time></trkpt><trkpt lat="40.0874833" lon="15.345265"><ele>128.0</ele><time>2026-04-25T16:24:45.899Z</time></trkpt><trkpt lat="40.0873867" lon="15.3452883"><ele>128.0</ele><time>2026-04-25T16:24:46.9Z</time></trkpt><trkpt lat="40.087315" lon="15.3453533"><ele>128.0</ele><time>2026-04-25T16:24:47.902Z</time></trkpt><trkpt lat="40.087255" lon="15.3454217"><ele>128.0</ele><time>2026-04-25T16:24:48.905Z</time></trkpt><trkpt lat="40.08725" lon="15.3455317"><ele>125.4</ele><time>2026-04-25T16:24:49.906Z</time></trkpt><trkpt lat="40.0872433" lon="15.3456433"><ele>122.80000000000001</ele><time>2026-04-25T16:24:50.91Z</time></trkpt><trkpt lat="40.0872667" lon="15.3457683"><ele>120.2</ele><time>2026-04-25T16:24:51.898Z</time></trkpt><trkpt lat="40.0873133" lon="15.34592"><ele>117.6</ele><time>2026-04-25T16:24:52.901Z</time></trkpt><trkpt lat="40.08737" lon="15.3460867"><ele>115.0</ele><time>2026-04-25T16:24:53.901Z</time></trkpt><trkpt lat="40.0874283" lon="15.3462617"><ele>114.0</ele><time>2026-04-25T16:24:54.895Z</time></trkpt><trkpt lat="40.0874783" lon="15.3464383"><ele>113.0</ele><time>2026-04-25T16:24:55.968Z</time></trkpt><trkpt lat="40.0875133" lon="15.3466033"><ele>112.0</ele><time>2026-04-25T16:24:56.899Z</time></trkpt><trkpt lat="40.0875317" lon="15.3467683"><ele>111.0</ele><time>2026-04-25T16:24:57.899Z</time></trkpt><trkpt lat="40.08754" lon="15.3469467"><ele>111.0</ele><time>2026-04-25T16:24:58.895Z</time></trkpt><trkpt lat="40.0875433" lon="15.3471217"><ele>111.0</ele><time>2026-04-25T16:24:59.907Z</time></trkpt><trkpt lat="40.0875383" lon="15.3472967"><ele>111.0</ele><time>2026-04-25T16:25:00.895Z</time></trkpt><trkpt lat="40.0875233" lon="15.3474717"><ele>111.0</ele><time>2026-04-25T16:25:01.95Z</time></trkpt><trkpt lat="40.0874933" lon="15.3476483"><ele>109.25</ele><time>2026-04-25T16:25:02.899Z</time></trkpt><trkpt lat="40.0874517" lon="15.3478217"><ele>107.5</ele><time>2026-04-25T16:25:03.9Z</time></trkpt><trkpt lat="40.0874" lon="15.34799"><ele>105.75</ele><time>2026-04-25T16:25:04.902Z</time></trkpt><trkpt lat="40.0873467" lon="15.348155"><ele>104.0</ele><time>2026-04-25T16:25:05.896Z</time></trkpt><trkpt lat="40.087295" lon="15.3483017"><ele>109.49999999999999</ele><time>2026-04-25T16:25:06.898Z</time></trkpt><trkpt lat="40.0872483" lon="15.34843"><ele>115.0</ele><time>2026-04-25T16:25:07.9Z</time></trkpt><trkpt lat="40.0872083" lon="15.3485383"><ele>120.5</ele><time>2026-04-25T16:25:08.898Z</time></trkpt><trkpt lat="40.087185" lon="15.34864"><ele>126.0</ele><time>2026-04-25T16:25:09.899Z</time></trkpt><trkpt lat="40.08717" lon="15.34873"><ele>131.5</ele><time>2026-04-25T16:25:10.903Z</time></trkpt><trkpt lat="40.0871967" lon="15.34882"><ele>137.0</ele><time>2026-04-25T16:25:12.899Z</time></trkpt><trkpt lat="40.0872567" lon="15.34873"><ele>137.0</ele><time>2026-04-25T16:25:13.899Z</time></trkpt><trkpt lat="40.087295" lon="15.3486417"><ele>137.0</ele><time>2026-04-25T16:25:14.904Z</time></trkpt><trkpt lat="40.08732" lon="15.3485383"><ele>137.0</ele><time>2026-04-25T16:25:15.901Z</time></trkpt><trkpt lat="40.0873433" lon="15.348415"><ele>137.0</ele><time>2026-04-25T16:25:16.901Z</time></trkpt><trkpt lat="40.0873817" lon="15.34829"><ele>137.0</ele><time>2026-04-25T16:25:17.911Z</time></trkpt><trkpt lat="40.0874417" lon="15.3481683"><ele>128.75</ele><time>2026-04-25T16:25:18.9Z</time></trkpt><trkpt lat="40.0875183" lon="15.348055"><ele>120.5</ele><time>2026-04-25T16:25:19.903Z</time></trkpt><trkpt lat="40.08761" lon="15.3479433"><ele>112.25</ele><time>2026-04-25T16:25:20.9Z</time></trkpt><trkpt lat="40.0877017" lon="15.3478333"><ele>104.0</ele><time>2026-04-25T16:25:21.9Z</time></trkpt><trkpt lat="40.087795" lon="15.3477183"><ele>104.0</ele><time>2026-04-25T16:25:22.898Z</time></trkpt><trkpt lat="40.08788" lon="15.3475967"><ele>104.0</ele><time>2026-04-25T16:25:23.899Z</time></trkpt><trkpt lat="40.087955" lon="15.3474683"><ele>104.0</ele><time>2026-04-25T16:25:24.905Z</time></trkpt><trkpt lat="40.0880183" lon="15.3473367"><ele>104.0</ele><time>2026-04-25T16:25:25.948Z</time></trkpt><trkpt lat="40.088075" lon="15.347205"><ele>105.4</ele><time>2026-04-25T16:25:26.894Z</time></trkpt><trkpt lat="40.0881267" lon="15.3470833"><ele>106.80000000000001</ele><time>2026-04-25T16:25:27.902Z</time></trkpt><trkpt lat="40.0881817" lon="15.3469883"><ele>108.19999999999999</ele><time>2026-04-25T16:25:28.901Z</time></trkpt><trkpt lat="40.0882283" lon="15.3468983"><ele>109.6</ele><time>2026-04-25T16:25:29.895Z</time></trkpt><trkpt lat="40.0882767" lon="15.3468267"><ele>111.0</ele><time>2026-04-25T16:25:30.901Z</time></trkpt><trkpt lat="40.0883917" lon="15.3467733"><ele>108.16666666666667</ele><time>2026-04-25T16:25:32.899Z</time></trkpt><trkpt lat="40.08846" lon="15.3467667"><ele>105.33333333333333</ele><time>2026-04-25T16:25:33.899Z</time></trkpt><trkpt lat="40.0885683" lon="15.34675"><ele>102.5</ele><time>2026-04-25T16:25:35.901Z</time></trkpt><trkpt lat="40.08865" lon="15.34674"><ele>99.66666666666666</ele><time>2026-04-25T16:25:37.901Z</time></trkpt><trkpt lat="40.0885917" lon="15.3466967"><ele>96.83333333333333</ele><time>2026-04-25T16:25:42.902Z</time></trkpt><trkpt lat="40.08852" lon="15.3466783"><ele>94.0</ele><time>2026-04-25T16:25:44.904Z</time></trkpt><trkpt lat="40.08846" lon="15.3467233"><ele>94.0</ele><time>2026-04-25T16:25:47.904Z</time></trkpt><trkpt lat="40.08857" lon="15.3467483"><ele>94.0</ele><time>2026-04-25T16:25:50.894Z</time></trkpt><trkpt lat="40.0886317" lon="15.3467767"><ele>94.0</ele><time>2026-04-25T16:25:51.894Z</time></trkpt><trkpt lat="40.0886933" lon="15.3468333"><ele>94.0</ele><time>2026-04-25T16:25:52.898Z</time></trkpt><trkpt lat="40.08876" lon="15.346925"><ele>94.0</ele><time>2026-04-25T16:25:53.893Z</time></trkpt><trkpt lat="40.0888467" lon="15.3470417"><ele>94.0</ele><time>2026-04-25T16:25:54.894Z</time></trkpt><trkpt lat="40.08895" lon="15.34719"><ele>94.0</ele><time>2026-04-25T16:25:55.947Z</time></trkpt><trkpt lat="40.089045" lon="15.347315"><ele>94.0</ele><time>2026-04-25T16:25:56.896Z</time></trkpt><trkpt lat="40.0891367" lon="15.3474417"><ele>94.0</ele><time>2026-04-25T16:25:57.901Z</time></trkpt><trkpt lat="40.08922" lon="15.3475567"><ele>91.2</ele><time>2026-04-25T16:25:58.898Z</time></trkpt><trkpt lat="40.0892883" lon="15.3476717"><ele>88.4</ele><time>2026-04-25T16:25:59.902Z</time></trkpt><trkpt lat="40.089335" lon="15.3477917"><ele>85.6</ele><time>2026-04-25T16:26:00.898Z</time></trkpt><trkpt lat="40.0893633" lon="15.3479133"><ele>82.8</ele><time>2026-04-25T16:26:01.949Z</time></trkpt><trkpt lat="40.0893733" lon="15.3480433"><ele>80.0</ele><time>2026-04-25T16:26:02.898Z</time></trkpt><trkpt lat="40.089355" lon="15.3481767"><ele>79.75</ele><time>2026-04-25T16:26:03.897Z</time></trkpt><trkpt lat="40.0892933" lon="15.34829"><ele>79.5</ele><time>2026-04-25T16:26:04.899Z</time></trkpt><trkpt lat="40.0891783" lon="15.3483967"><ele>79.25</ele><time>2026-04-25T16:26:05.9Z</time></trkpt><trkpt lat="40.0890967" lon="15.3484933"><ele>79.0</ele><time>2026-04-25T16:26:06.9Z</time></trkpt><trkpt lat="40.0890233" lon="15.348575"><ele>79.0</ele><time>2026-04-25T16:26:07.899Z</time></trkpt><trkpt lat="40.0889533" lon="15.3486383"><ele>79.0</ele><time>2026-04-25T16:26:08.9Z</time></trkpt><trkpt lat="40.0891" lon="15.348555"><ele>79.0</ele><time>2026-04-25T16:26:13.901Z</time></trkpt><trkpt lat="40.0891617" lon="15.3485"><ele>79.0</ele><time>2026-04-25T16:26:14.9Z</time></trkpt><trkpt lat="40.089265" lon="15.3484133"><ele>79.0</ele><time>2026-04-25T16:26:16.899Z</time></trkpt><trkpt lat="40.089335" lon="15.3483467"><ele>79.25</ele><time>2026-04-25T16:26:18.9Z</time></trkpt><trkpt lat="40.0893567" lon="15.3481917"><ele>79.5</ele><time>2026-04-25T16:26:27.904Z</time></trkpt><trkpt lat="40.0894233" lon="15.34806"><ele>79.75</ele><time>2026-04-25T16:26:29.903Z</time></trkpt><trkpt lat="40.0894767" lon="15.3479517"><ele>80.0</ele><time>2026-04-25T16:26:30.899Z</time></trkpt><trkpt lat="40.08955" lon="15.3478417"><ele>80.0</ele><time>2026-04-25T16:26:31.947Z</time></trkpt><trkpt lat="40.0896417" lon="15.3477167"><ele>80.0</ele><time>2026-04-25T16:26:32.897Z</time></trkpt><trkpt lat="40.0897483" lon="15.3475817"><ele>80.0</ele><time>2026-04-25T16:26:33.901Z</time></trkpt><trkpt lat="40.0898467" lon="15.34744"><ele>80.0</ele><time>2026-04-25T16:26:34.901Z</time></trkpt><trkpt lat="40.090035" lon="15.3471567"><ele>78.0</ele><time>2026-04-25T16:26:36.901Z</time></trkpt><trkpt lat="40.090115" lon="15.3470183"><ele>76.0</ele><time>2026-04-25T16:26:37.898Z</time></trkpt><trkpt lat="40.0901867" lon="15.3468917"><ele>74.0</ele><time>2026-04-25T16:26:38.902Z</time></trkpt><trkpt lat="40.0902533" lon="15.346775"><ele>72.0</ele><time>2026-04-25T16:26:39.901Z</time></trkpt><trkpt lat="40.090325" lon="15.3466683"><ele>72.0</ele><time>2026-04-25T16:26:40.901Z</time></trkpt><trkpt lat="40.09039" lon="15.3465533"><ele>72.0</ele><time>2026-04-25T16:26:41.901Z</time></trkpt><trkpt lat="40.090515" lon="15.34632"><ele>72.0</ele><time>2026-04-25T16:26:43.903Z</time></trkpt><trkpt lat="40.0905733" lon="15.3462033"><ele>72.0</ele><time>2026-04-25T16:26:44.898Z</time></trkpt><trkpt lat="40.09063" lon="15.346095"><ele>70.83333333333333</ele><time>2026-04-25T16:26:45.898Z</time></trkpt><trkpt lat="40.0906833" lon="15.34601"><ele>69.66666666666667</ele><time>2026-04-25T16:26:46.9Z</time></trkpt><trkpt lat="40.0907317" lon="15.3459383"><ele>68.5</ele><time>2026-04-25T16:26:47.898Z</time></trkpt><trkpt lat="40.0908067" lon="15.3458683"><ele>67.33333333333334</ele><time>2026-04-25T16:26:49.901Z</time></trkpt><trkpt lat="40.0908483" lon="15.3458017"><ele>66.16666666666667</ele><time>2026-04-25T16:26:51.906Z</time></trkpt><trkpt lat="40.0907517" lon="15.3458233"><ele>65.0</ele><time>2026-04-25T16:26:55.946Z</time></trkpt><trkpt lat="40.0907067" lon="15.3458917"><ele>66.16666666666667</ele><time>2026-04-25T16:26:56.9Z</time></trkpt><trkpt lat="40.09066" lon="15.3459717"><ele>67.33333333333334</ele><time>2026-04-25T16:26:57.903Z</time></trkpt><trkpt lat="40.0906133" lon="15.3460583"><ele>68.5</ele><time>2026-04-25T16:26:58.911Z</time></trkpt><trkpt lat="40.0905667" lon="15.3461483"><ele>69.66666666666667</ele><time>2026-04-25T16:26:59.905Z</time></trkpt><trkpt lat="40.09052" lon="15.346245"><ele>70.83333333333333</ele><time>2026-04-25T16:27:00.897Z</time></trkpt><trkpt lat="40.0904783" lon="15.3463467"><ele>72.0</ele><time>2026-04-25T16:27:01.95Z</time></trkpt><trkpt lat="40.090435" lon="15.3464417"><ele>72.0</ele><time>2026-04-25T16:27:02.903Z</time></trkpt><trkpt lat="40.0903917" lon="15.3465383"><ele>72.0</ele><time>2026-04-25T16:27:03.897Z</time></trkpt><trkpt lat="40.09035" lon="15.3466333"><ele>72.0</ele><time>2026-04-25T16:27:04.9Z</time></trkpt><trkpt lat="40.0903117" lon="15.34673"><ele>72.0</ele><time>2026-04-25T16:27:05.896Z</time></trkpt><trkpt lat="40.090285" lon="15.3468283"><ele>72.0</ele><time>2026-04-25T16:27:06.904Z</time></trkpt><trkpt lat="40.090275" lon="15.3469233"><ele>72.0</ele><time>2026-04-25T16:27:07.9Z</time></trkpt><trkpt lat="40.0902833" lon="15.3470133"><ele>72.0</ele><time>2026-04-25T16:27:08.901Z</time></trkpt><trkpt lat="40.0903017" lon="15.3471583"><ele>72.0</ele><time>2026-04-25T16:27:10.9Z</time></trkpt><trkpt lat="40.09027" lon="15.3473167"><ele>72.0</ele><time>2026-04-25T16:27:12.908Z</time></trkpt><trkpt lat="40.0902383" lon="15.34741"><ele>72.0</ele><time>2026-04-25T16:27:13.9Z</time></trkpt><trkpt lat="40.09021" lon="15.347515"><ele>72.0</ele><time>2026-04-25T16:27:14.896Z</time></trkpt><trkpt lat="40.090185" lon="15.347605"><ele>70.4</ele><time>2026-04-25T16:27:15.901Z</time></trkpt><trkpt lat="40.09017" lon="15.3477267"><ele>68.80000000000001</ele><time>2026-04-25T16:27:17.897Z</time></trkpt><trkpt lat="40.0901617" lon="15.3478117"><ele>67.2</ele><time>2026-04-25T16:27:19.899Z</time></trkpt><trkpt lat="40.0902417" lon="15.3477867"><ele>65.60000000000001</ele><time>2026-04-25T16:27:20.898Z</time></trkpt><trkpt lat="40.0903433" lon="15.3477217"><ele>64.0</ele><time>2026-04-25T16:27:21.903Z</time></trkpt><trkpt lat="40.0904817" lon="15.3477033"><ele>64.0</ele><time>2026-04-25T16:27:22.901Z</time></trkpt><trkpt lat="40.0905583" lon="15.3476517"><ele>64.0</ele><time>2026-04-25T16:27:23.904Z</time></trkpt><trkpt lat="40.0905917" lon="15.34753"><ele>64.0</ele><time>2026-04-25T16:27:24.901Z</time></trkpt><trkpt lat="40.0906233" lon="15.347425"><ele>64.0</ele><time>2026-04-25T16:27:25.963Z</time></trkpt><trkpt lat="40.0906367" lon="15.3472767"><ele>64.0</ele><time>2026-04-25T16:27:26.895Z</time></trkpt><trkpt lat="40.09067" lon="15.3471483"><ele>63.0</ele><time>2026-04-25T16:27:27.9Z</time></trkpt><trkpt lat="40.0907033" lon="15.34702"><ele>62.00000000000001</ele><time>2026-04-25T16:27:28.904Z</time></trkpt><trkpt lat="40.0907467" lon="15.34689"><ele>61.00000000000001</ele><time>2026-04-25T16:27:29.905Z</time></trkpt><trkpt lat="40.0907867" lon="15.34677"><ele>60.0</ele><time>2026-04-25T16:27:30.898Z</time></trkpt><trkpt lat="40.09083" lon="15.346655"><ele>59.0</ele><time>2026-04-25T16:27:31.947Z</time></trkpt><trkpt lat="40.090875" lon="15.346545"><ele>59.0</ele><time>2026-04-25T16:27:32.899Z</time></trkpt><trkpt lat="40.0909083" lon="15.3464383"><ele>59.00000000000001</ele><time>2026-04-25T16:27:33.903Z</time></trkpt><trkpt lat="40.09094" lon="15.3462833"><ele>59.00000000000001</ele><time>2026-04-25T16:27:35.903Z</time></trkpt><trkpt lat="40.09096" lon="15.3461967"><ele>59.0</ele><time>2026-04-25T16:27:44.9Z</time></trkpt><trkpt lat="40.0909083" lon="15.34629"><ele>59.0</ele><time>2026-04-25T16:27:47.898Z</time></trkpt><trkpt lat="40.0908467" lon="15.3464467"><ele>59.00000000000001</ele><time>2026-04-25T16:27:49.904Z</time></trkpt><trkpt lat="40.0908117" lon="15.3465467"><ele>59.0</ele><time>2026-04-25T16:27:50.905Z</time></trkpt><trkpt lat="40.0907767" lon="15.3466517"><ele>59.0</ele><time>2026-04-25T16:27:51.896Z</time></trkpt><trkpt lat="40.0907483" lon="15.3467517"><ele>59.0</ele><time>2026-04-25T16:27:52.899Z</time></trkpt><trkpt lat="40.0907217" lon="15.3468417"><ele>59.00000000000001</ele><time>2026-04-25T16:27:53.899Z</time></trkpt><trkpt lat="40.0907067" lon="15.3469233"><ele>59.0</ele><time>2026-04-25T16:27:54.898Z</time></trkpt><trkpt lat="40.0906767" lon="15.34708"><ele>60.25</ele><time>2026-04-25T16:27:56.902Z</time></trkpt><trkpt lat="40.0906617" lon="15.347165"><ele>61.5</ele><time>2026-04-25T16:27:57.896Z</time></trkpt><trkpt lat="40.09063" lon="15.34735"><ele>62.75</ele><time>2026-04-25T16:27:59.903Z</time></trkpt><trkpt lat="40.0905967" lon="15.3475583"><ele>64.0</ele><time>2026-04-25T16:28:01.946Z</time></trkpt><trkpt lat="40.0905717" lon="15.3477333"><ele>63.99999999999999</ele><time>2026-04-25T16:28:03.898Z</time></trkpt><trkpt lat="40.0905383" lon="15.34784"><ele>64.0</ele><time>2026-04-25T16:28:05.897Z</time></trkpt><trkpt lat="40.0904783" lon="15.34787"><ele>64.0</ele><time>2026-04-25T16:28:07.903Z</time></trkpt><trkpt lat="40.0904" lon="15.3478433"><ele>64.0</ele><time>2026-04-25T16:28:09.901Z</time></trkpt><trkpt lat="40.090355" lon="15.34775"><ele>63.99999999999999</ele><time>2026-04-25T16:28:10.9Z</time></trkpt><trkpt lat="40.0903267" lon="15.347645"><ele>64.0</ele><time>2026-04-25T16:28:11.899Z</time></trkpt><trkpt lat="40.0903033" lon="15.34754"><ele>63.99999999999999</ele><time>2026-04-25T16:28:12.899Z</time></trkpt><trkpt lat="40.0903067" lon="15.3474317"><ele>64.0</ele><time>2026-04-25T16:28:13.897Z</time></trkpt><trkpt lat="40.090335" lon="15.34731"><ele>64.0</ele><time>2026-04-25T16:28:14.896Z</time></trkpt><trkpt lat="40.0903583" lon="15.3471967"><ele>64.0</ele><time>2026-04-25T16:28:15.9Z</time></trkpt><trkpt lat="40.0903783" lon="15.3471067"><ele>63.99999999999999</ele><time>2026-04-25T16:28:16.901Z</time></trkpt><trkpt lat="40.090375" lon="15.3470067"><ele>64.0</ele><time>2026-04-25T16:28:18.905Z</time></trkpt><trkpt lat="40.0903933" lon="15.3468417"><ele>66.0</ele><time>2026-04-25T16:29:07.907Z</time></trkpt><trkpt lat="40.0903983" lon="15.3466883"><ele>68.0</ele><time>2026-04-25T16:29:09.9Z</time></trkpt><trkpt lat="40.09037" lon="15.3466017"><ele>70.0</ele><time>2026-04-25T16:29:11.902Z</time></trkpt><trkpt lat="40.0902717" lon="15.3467183"><ele>72.0</ele><time>2026-04-25T16:29:14.9Z</time></trkpt><trkpt lat="40.0901883" lon="15.3468667"><ele>72.0</ele><time>2026-04-25T16:29:15.904Z</time></trkpt><trkpt lat="40.0901167" lon="15.346985"><ele>72.0</ele><time>2026-04-25T16:29:16.903Z</time></trkpt><trkpt lat="40.0900467" lon="15.347115"><ele>72.0</ele><time>2026-04-25T16:29:17.896Z</time></trkpt><trkpt lat="40.08997" lon="15.3472533"><ele>72.0</ele><time>2026-04-25T16:29:18.905Z</time></trkpt><trkpt lat="40.08989" lon="15.3473967"><ele>74.0</ele><time>2026-04-25T16:29:19.909Z</time></trkpt><trkpt lat="40.0897967" lon="15.34754"><ele>76.0</ele><time>2026-04-25T16:29:20.906Z</time></trkpt><trkpt lat="40.0897033" lon="15.3476817"><ele>78.0</ele><time>2026-04-25T16:29:21.895Z</time></trkpt><trkpt lat="40.089605" lon="15.347815"><ele>80.0</ele><time>2026-04-25T16:29:22.898Z</time></trkpt><trkpt lat="40.089525" lon="15.34794"><ele>78.4</ele><time>2026-04-25T16:29:23.893Z</time></trkpt><trkpt lat="40.0894567" lon="15.3480583"><ele>76.8</ele><time>2026-04-25T16:29:24.897Z</time></trkpt><trkpt lat="40.0893967" lon="15.3481667"><ele>75.2</ele><time>2026-04-25T16:29:25.949Z</time></trkpt><trkpt lat="40.0893417" lon="15.348255"><ele>73.6</ele><time>2026-04-25T16:29:26.896Z</time></trkpt><trkpt lat="40.0892883" lon="15.3483333"><ele>72.0</ele><time>2026-04-25T16:29:27.901Z</time></trkpt><trkpt lat="40.0892083" lon="15.3484333"><ele>72.0</ele><time>2026-04-25T16:29:29.903Z</time></trkpt><trkpt lat="40.0891383" lon="15.348505"><ele>72.0</ele><time>2026-04-25T16:29:37.906Z</time></trkpt><trkpt lat="40.0890633" lon="15.3485883"><ele>72.0</ele><time>2026-04-25T16:29:39.898Z</time></trkpt><trkpt lat="40.0889767" lon="15.3486633"><ele>72.0</ele><time>2026-04-25T16:29:41.904Z</time></trkpt><trkpt lat="40.0888833" lon="15.34873"><ele>72.0</ele><time>2026-04-25T16:29:43.903Z</time></trkpt><trkpt lat="40.0888183" lon="15.3487467"><ele>73.4</ele><time>2026-04-25T16:29:44.903Z</time></trkpt><trkpt lat="40.088745" lon="15.3487517"><ele>74.80000000000001</ele><time>2026-04-25T16:29:45.902Z</time></trkpt><trkpt lat="40.0885867" lon="15.34874"><ele>76.2</ele><time>2026-04-25T16:29:47.91Z</time></trkpt><trkpt lat="40.088505" lon="15.34873"><ele>77.60000000000001</ele><time>2026-04-25T16:29:48.899Z</time></trkpt><trkpt lat="40.08841" lon="15.3487183"><ele>79.0</ele><time>2026-04-25T16:29:49.908Z</time></trkpt><trkpt lat="40.0883183" lon="15.3487283"><ele>82.25</ele><time>2026-04-25T16:29:50.893Z</time></trkpt><trkpt lat="40.0882367" lon="15.348755"><ele>85.5</ele><time>2026-04-25T16:29:51.902Z</time></trkpt><trkpt lat="40.0880183" lon="15.3489283"><ele>88.75</ele><time>2026-04-25T16:29:54.899Z</time></trkpt><trkpt lat="40.08799" lon="15.3490667"><ele>92.0</ele><time>2026-04-25T16:29:55.961Z</time></trkpt><trkpt lat="40.0879667" lon="15.34935"><ele>92.0</ele><time>2026-04-25T16:29:57.9Z</time></trkpt><trkpt lat="40.0879683" lon="15.34948"><ele>92.0</ele><time>2026-04-25T16:29:58.9Z</time></trkpt><trkpt lat="40.0879833" lon="15.3496117"><ele>92.0</ele><time>2026-04-25T16:29:59.896Z</time></trkpt><trkpt lat="40.088015" lon="15.349755"><ele>92.0</ele><time>2026-04-25T16:30:00.899Z</time></trkpt><trkpt lat="40.088065" lon="15.349875"><ele>92.0</ele><time>2026-04-25T16:30:01.942Z</time></trkpt><trkpt lat="40.0881117" lon="15.3499783"><ele>91.0</ele><time>2026-04-25T16:30:02.895Z</time></trkpt><trkpt lat="40.0881533" lon="15.350075"><ele>90.0</ele><time>2026-04-25T16:30:03.901Z</time></trkpt><trkpt lat="40.08819" lon="15.3501867"><ele>89.0</ele><time>2026-04-25T16:30:05.898Z</time></trkpt><trkpt lat="40.0882133" lon="15.3503033"><ele>88.0</ele><time>2026-04-25T16:30:21.895Z</time></trkpt><trkpt lat="40.0882583" lon="15.3504483"><ele>87.0</ele><time>2026-04-25T16:30:23.903Z</time></trkpt><trkpt lat="40.088355" lon="15.3506083"><ele>82.33333333333333</ele><time>2026-04-25T16:30:25.955Z</time></trkpt><trkpt lat="40.088435" lon="15.3506483"><ele>77.66666666666667</ele><time>2026-04-25T16:30:26.893Z</time></trkpt><trkpt lat="40.088505" lon="15.3506667"><ele>73.0</ele><time>2026-04-25T16:30:27.901Z</time></trkpt><trkpt lat="40.0886117" lon="15.350675"><ele>68.33333333333334</ele><time>2026-04-25T16:30:29.896Z</time></trkpt><trkpt lat="40.0886717" lon="15.3506483"><ele>63.66666666666667</ele><time>2026-04-25T16:30:30.902Z</time></trkpt><trkpt lat="40.0887433" lon="15.3506083"><ele>59.0</ele><time>2026-04-25T16:30:31.948Z</time></trkpt><trkpt lat="40.088825" lon="15.350555"><ele>59.2</ele><time>2026-04-25T16:30:32.896Z</time></trkpt><trkpt lat="40.0889117" lon="15.3504883"><ele>59.400000000000006</ele><time>2026-04-25T16:30:33.897Z</time></trkpt><trkpt lat="40.0890017" lon="15.3504067"><ele>59.6</ele><time>2026-04-25T16:30:34.901Z</time></trkpt><trkpt lat="40.0890867" lon="15.3503067"><ele>59.8</ele><time>2026-04-25T16:30:35.902Z</time></trkpt><trkpt lat="40.08917" lon="15.350215"><ele>60.0</ele><time>2026-04-25T16:30:36.895Z</time></trkpt><trkpt lat="40.089255" lon="15.3501283"><ele>57.4</ele><time>2026-04-25T16:30:37.907Z</time></trkpt><trkpt lat="40.0893433" lon="15.3500533"><ele>54.8</ele><time>2026-04-25T16:30:38.896Z</time></trkpt><trkpt lat="40.0894333" lon="15.3499867"><ele>52.2</ele><time>2026-04-25T16:30:39.893Z</time></trkpt><trkpt lat="40.0895233" lon="15.3499333"><ele>49.6</ele><time>2026-04-25T16:30:40.901Z</time></trkpt><trkpt lat="40.0896083" lon="15.34989"><ele>47.0</ele><time>2026-04-25T16:30:41.9Z</time></trkpt><trkpt lat="40.0896867" lon="15.349865"><ele>47.0</ele><time>2026-04-25T16:30:42.896Z</time></trkpt><trkpt lat="40.08976" lon="15.34986"><ele>47.0</ele><time>2026-04-25T16:30:43.904Z</time></trkpt><trkpt lat="40.089855" lon="15.3499183"><ele>47.0</ele><time>2026-04-25T16:30:45.897Z</time></trkpt><trkpt lat="40.0899133" lon="15.3500567"><ele>47.0</ele><time>2026-04-25T16:30:47.893Z</time></trkpt><trkpt lat="40.089935" lon="15.3501817"><ele>47.0</ele><time>2026-04-25T16:30:48.898Z</time></trkpt><trkpt lat="40.0899583" lon="15.3502933"><ele>46.0</ele><time>2026-04-25T16:30:49.901Z</time></trkpt><trkpt lat="40.089985" lon="15.3503833"><ele>45.0</ele><time>2026-04-25T16:30:50.896Z</time></trkpt><trkpt lat="40.0900283" lon="15.3505183"><ele>44.0</ele><time>2026-04-25T16:30:52.893Z</time></trkpt><trkpt lat="40.0900617" lon="15.3506067"><ele>43.0</ele><time>2026-04-25T16:30:54.897Z</time></trkpt><trkpt lat="40.0900633" lon="15.3505217"><ele>42.0</ele><time>2026-04-25T16:31:14.903Z</time></trkpt><trkpt lat="40.0899967" lon="15.3504233"><ele>41.0</ele><time>2026-04-25T16:31:16.899Z</time></trkpt><trkpt lat="40.0899667" lon="15.3503383"><ele>41.0</ele><time>2026-04-25T16:31:17.908Z</time></trkpt><trkpt lat="40.0899283" lon="15.3502567"><ele>41.0</ele><time>2026-04-25T16:31:18.897Z</time></trkpt><trkpt lat="40.089895" lon="15.3501733"><ele>41.0</ele><time>2026-04-25T16:31:19.901Z</time></trkpt><trkpt lat="40.089845" lon="15.35005"><ele>41.0</ele><time>2026-04-25T16:31:21.896Z</time></trkpt><trkpt lat="40.0897967" lon="15.34995"><ele>41.0</ele><time>2026-04-25T16:31:23.895Z</time></trkpt><trkpt lat="40.0897583" lon="15.3498817"><ele>41.0</ele><time>2026-04-25T16:31:25.962Z</time></trkpt><trkpt lat="40.0896983" lon="15.3498533"><ele>42.0</ele><time>2026-04-25T16:31:32.896Z</time></trkpt><trkpt lat="40.089635" lon="15.3498683"><ele>43.0</ele><time>2026-04-25T16:31:34.897Z</time></trkpt><trkpt lat="40.089555" lon="15.3498933"><ele>44.0</ele><time>2026-04-25T16:31:36.902Z</time></trkpt><trkpt lat="40.0894817" lon="15.3499333"><ele>45.0</ele><time>2026-04-25T16:31:38.9Z</time></trkpt><trkpt lat="40.0894117" lon="15.3499583"><ele>46.0</ele><time>2026-04-25T16:31:40.903Z</time></trkpt><trkpt lat="40.089355" lon="15.3500467"><ele>47.0</ele><time>2026-04-25T16:31:43.91Z</time></trkpt><trkpt lat="40.08941" lon="15.35009"><ele>47.0</ele><time>2026-04-25T16:31:47.899Z</time></trkpt><trkpt lat="40.0894817" lon="15.3499967"><ele>47.0</ele><time>2026-04-25T16:31:50.896Z</time></trkpt><trkpt lat="40.0895683" lon="15.34994"><ele>47.0</ele><time>2026-04-25T16:31:52.904Z</time></trkpt><trkpt lat="40.0896533" lon="15.3499067"><ele>47.0</ele><time>2026-04-25T16:31:54.897Z</time></trkpt><trkpt lat="40.0897167" lon="15.349895"><ele>47.0</ele><time>2026-04-25T16:31:57.897Z</time></trkpt><trkpt lat="40.0897167" lon="15.349795"><ele>47.0</ele><time>2026-04-25T16:32:10.903Z</time></trkpt><trkpt lat="40.0896983" lon="15.349695"><ele>48.83333333333333</ele><time>2026-04-25T16:32:16.895Z</time></trkpt><trkpt lat="40.0896517" lon="15.3495467"><ele>50.666666666666664</ele><time>2026-04-25T16:32:42.9Z</time></trkpt><trkpt lat="40.08961" lon="15.3494617"><ele>52.5</ele><time>2026-04-25T16:32:47.901Z</time></trkpt><trkpt lat="40.0895617" lon="15.3493683"><ele>54.33333333333333</ele><time>2026-04-25T16:32:49.908Z</time></trkpt><trkpt lat="40.089535" lon="15.349285"><ele>56.166666666666664</ele><time>2026-04-25T16:32:52.902Z</time></trkpt><trkpt lat="40.0895867" lon="15.3492217"><ele>58.0</ele><time>2026-04-25T16:32:55.955Z</time></trkpt><trkpt lat="40.0896633" lon="15.3491733"><ele>57.99999999999999</ele><time>2026-04-25T16:32:58.901Z</time></trkpt><trkpt lat="40.0897333" lon="15.3491167"><ele>58.0</ele><time>2026-04-25T16:33:01.942Z</time></trkpt><trkpt lat="40.0898033" lon="15.3490433"><ele>58.0</ele><time>2026-04-25T16:33:03.901Z</time></trkpt><trkpt lat="40.08987" lon="15.348965"><ele>58.0</ele><time>2026-04-25T16:33:05.9Z</time></trkpt><trkpt lat="40.0899533" lon="15.348915"><ele>57.99999999999999</ele><time>2026-04-25T16:33:14.893Z</time></trkpt><trkpt lat="40.0900217" lon="15.34891"><ele>58.0</ele><time>2026-04-25T16:33:18.899Z</time></trkpt><trkpt lat="40.0901183" lon="15.348925"><ele>57.99999999999999</ele><time>2026-04-25T16:33:21.898Z</time></trkpt><trkpt lat="40.090205" lon="15.3489233"><ele>58.0</ele><time>2026-04-25T16:33:23.897Z</time></trkpt><trkpt lat="40.09028" lon="15.3489083"><ele>58.0</ele><time>2026-04-25T16:33:25.93Z</time></trkpt><trkpt lat="40.09036" lon="15.348835"><ele>58.0</ele><time>2026-04-25T16:33:28.903Z</time></trkpt><trkpt lat="40.090455" lon="15.3488167"><ele>57.99999999999999</ele><time>2026-04-25T16:33:31.947Z</time></trkpt><trkpt lat="40.09052" lon="15.3488233"><ele>58.0</ele><time>2026-04-25T16:33:32.896Z</time></trkpt><trkpt lat="40.0905833" lon="15.34883"><ele>58.0</ele><time>2026-04-25T16:33:33.902Z</time></trkpt><trkpt lat="40.0906933" lon="15.34885"><ele>58.0</ele><time>2026-04-25T16:33:35.897Z</time></trkpt><trkpt lat="40.0907967" lon="15.3488733"><ele>58.0</ele><time>2026-04-25T16:33:37.908Z</time></trkpt><trkpt lat="40.090915" lon="15.3489"><ele>58.0</ele><time>2026-04-25T16:33:39.894Z</time></trkpt><trkpt lat="40.091025" lon="15.34895"><ele>56.666666666666664</ele><time>2026-04-25T16:33:41.896Z</time></trkpt><trkpt lat="40.0910967" lon="15.3489733"><ele>55.33333333333333</ele><time>2026-04-25T16:33:43.903Z</time></trkpt><trkpt lat="40.0911833" lon="15.3489617"><ele>54.0</ele><time>2026-04-25T16:33:46.897Z</time></trkpt><trkpt lat="40.0912583" lon="15.3489183"><ele>52.66666666666667</ele><time>2026-04-25T16:33:48.894Z</time></trkpt><trkpt lat="40.0913167" lon="15.348885"><ele>51.333333333333336</ele><time>2026-04-25T16:33:49.897Z</time></trkpt><trkpt lat="40.0913867" lon="15.3488467"><ele>50.0</ele><time>2026-04-25T16:33:50.904Z</time></trkpt><trkpt lat="40.0914683" lon="15.3487733"><ele>50.0</ele><time>2026-04-25T16:33:51.901Z</time></trkpt><trkpt lat="40.091575" lon="15.34869"><ele>50.0</ele><time>2026-04-25T16:33:52.898Z</time></trkpt><trkpt lat="40.091655" lon="15.3485983"><ele>50.0</ele><time>2026-04-25T16:33:53.909Z</time></trkpt><trkpt lat="40.0917183" lon="15.34849"><ele>50.0</ele><time>2026-04-25T16:33:54.896Z</time></trkpt><trkpt lat="40.0917567" lon="15.348375"><ele>50.0</ele><time>2026-04-25T16:33:55.955Z</time></trkpt><trkpt lat="40.09179" lon="15.348265"><ele>50.0</ele><time>2026-04-25T16:33:56.892Z</time></trkpt><trkpt lat="40.091825" lon="15.3481583"><ele>50.0</ele><time>2026-04-25T16:33:57.921Z</time></trkpt><trkpt lat="40.091865" lon="15.34805"><ele>50.0</ele><time>2026-04-25T16:33:58.902Z</time></trkpt><trkpt lat="40.091905" lon="15.3479283"><ele>50.0</ele><time>2026-04-25T16:33:59.893Z</time></trkpt><trkpt lat="40.091945" lon="15.3477967"><ele>50.0</ele><time>2026-04-25T16:34:00.897Z</time></trkpt><trkpt lat="40.0919883" lon="15.34766"><ele>50.0</ele><time>2026-04-25T16:34:01.949Z</time></trkpt><trkpt lat="40.0920333" lon="15.347515"><ele>50.0</ele><time>2026-04-25T16:34:02.896Z</time></trkpt><trkpt lat="40.0920783" lon="15.3473733"><ele>50.0</ele><time>2026-04-25T16:34:03.896Z</time></trkpt><trkpt lat="40.092115" lon="15.3472417"><ele>50.0</ele><time>2026-04-25T16:34:04.905Z</time></trkpt><trkpt lat="40.0921633" lon="15.3471283"><ele>50.0</ele><time>2026-04-25T16:34:05.898Z</time></trkpt><trkpt lat="40.0922083" lon="15.3470183"><ele>50.4</ele><time>2026-04-25T16:34:06.895Z</time></trkpt><trkpt lat="40.0922467" lon="15.3469233"><ele>50.8</ele><time>2026-04-25T16:34:07.908Z</time></trkpt><trkpt lat="40.0922783" lon="15.3468367"><ele>51.2</ele><time>2026-04-25T16:34:08.9Z</time></trkpt><trkpt lat="40.09233" lon="15.3467317"><ele>51.6</ele><time>2026-04-25T16:34:10.901Z</time></trkpt><trkpt lat="40.0924417" lon="15.3467567"><ele>52.0</ele><time>2026-04-25T16:34:13.919Z</time></trkpt><trkpt lat="40.0925067" lon="15.34684"><ele>52.0</ele><time>2026-04-25T16:34:14.904Z</time></trkpt><trkpt lat="40.0925883" lon="15.34696"><ele>52.0</ele><time>2026-04-25T16:34:15.902Z</time></trkpt><trkpt lat="40.0926833" lon="15.3470733"><ele>52.0</ele><time>2026-04-25T16:34:16.901Z</time></trkpt><trkpt lat="40.0927817" lon="15.3471867"><ele>52.0</ele><time>2026-04-25T16:34:17.898Z</time></trkpt><trkpt lat="40.0928717" lon="15.3472933"><ele>51.33333333333333</ele><time>2026-04-25T16:34:18.898Z</time></trkpt><trkpt lat="40.09295" lon="15.347395"><ele>50.666666666666664</ele><time>2026-04-25T16:34:19.903Z</time></trkpt><trkpt lat="40.0930233" lon="15.347475"><ele>50.0</ele><time>2026-04-25T16:34:20.893Z</time></trkpt><trkpt lat="40.0930883" lon="15.3475467"><ele>49.33333333333333</ele><time>2026-04-25T16:34:21.9Z</time></trkpt><trkpt lat="40.0931483" lon="15.3476"><ele>48.666666666666664</ele><time>2026-04-25T16:34:22.896Z</time></trkpt><trkpt lat="40.0932033" lon="15.3476733"><ele>48.0</ele><time>2026-04-25T16:34:23.899Z</time></trkpt><trkpt lat="40.093195" lon="15.3477883"><ele>48.0</ele><time>2026-04-25T16:34:25.955Z</time></trkpt><trkpt lat="40.093125" lon="15.3478583"><ele>48.0</ele><time>2026-04-25T16:34:28.903Z</time></trkpt><trkpt lat="40.0930533" lon="15.3478517"><ele>48.0</ele><time>2026-04-25T16:34:30.9Z</time></trkpt><trkpt lat="40.0929867" lon="15.3478367"><ele>48.0</ele><time>2026-04-25T16:34:32.9Z</time></trkpt><trkpt lat="40.0929083" lon="15.347805"><ele>48.0</ele><time>2026-04-25T16:34:35.898Z</time></trkpt><trkpt lat="40.0928233" lon="15.3478383"><ele>48.0</ele><time>2026-04-25T16:34:41.901Z</time></trkpt><trkpt lat="40.092815" lon="15.34793"><ele>48.0</ele><time>2026-04-25T16:34:44.9Z</time></trkpt><trkpt lat="40.09278" lon="15.3480367"><ele>48.0</ele><time>2026-04-25T16:34:50.895Z</time></trkpt><trkpt lat="40.09271" lon="15.3481183"><ele>48.0</ele><time>2026-04-25T16:34:52.898Z</time></trkpt><trkpt lat="40.0926433" lon="15.3482083"><ele>48.0</ele><time>2026-04-25T16:34:54.895Z</time></trkpt><trkpt lat="40.092635" lon="15.348295"><ele>48.0</ele><time>2026-04-25T16:34:57.899Z</time></trkpt><trkpt lat="40.0926983" lon="15.3482283"><ele>48.0</ele><time>2026-04-25T16:35:00.897Z</time></trkpt><trkpt lat="40.09274" lon="15.348145"><ele>42.0</ele><time>2026-04-25T16:35:02.894Z</time></trkpt><trkpt lat="40.0928167" lon="15.3480917"><ele>42.0</ele><time>2026-04-25T16:35:05.898Z</time></trkpt></trkseg></trk></gpx>